<?xml version="1.0" encoding="UTF-8" standalone="no" ?>
<gpx xmlns="http://www.topografix.com/GPX/1/1" xmlns:xsi="http://www.w3.org/2001/XMLSchema-instance" xsi:schemaLocation="http://www.topografix.com/GPX/1/1 http://www.topografix.com/GPX/1/1/gpx.xsd" version="1.1" creator="VisuGPX - https://www.visugpx.com">
  <metadata>
    <name>Molièns Dreuil, Camps en amiénois </name>
    <desc><![CDATA[44 personnes ]]></desc>
  </metadata>
  <trk>
    <name><![CDATA[Molièns Dreuil, Camps en amiénois _1]]></name>
    <trkseg>
      <trkpt lat="49.88382" lon="2.0169">
        <ele>52</ele>
        <time>2023-05-03T12:06:13Z</time>
      </trkpt>
      <trkpt lat="49.88374" lon="2.01689">
        <ele>51.8</ele>
        <time>2023-05-03T12:06:15Z</time>
      </trkpt>
      <trkpt lat="49.8837" lon="2.01688">
        <ele>51.8</ele>
        <time>2023-05-03T12:06:16Z</time>
      </trkpt>
      <trkpt lat="49.8837" lon="2.01688">
        <ele>51.8</ele>
        <time>2023-05-03T12:06:17Z</time>
      </trkpt>
      <trkpt lat="49.8837" lon="2.01688">
        <ele>51.8</ele>
        <time>2023-05-03T12:06:18Z</time>
      </trkpt>
      <trkpt lat="49.8837" lon="2.01688">
        <ele>51.8</ele>
        <time>2023-05-03T12:06:19Z</time>
      </trkpt>
      <trkpt lat="49.8837" lon="2.01688">
        <ele>51.8</ele>
        <time>2023-05-03T12:06:20Z</time>
      </trkpt>
      <trkpt lat="49.8837" lon="2.01688">
        <ele>51.8</ele>
        <time>2023-05-03T12:06:21Z</time>
      </trkpt>
      <trkpt lat="49.8837" lon="2.01688">
        <ele>51.8</ele>
        <time>2023-05-03T12:06:22Z</time>
      </trkpt>
      <trkpt lat="49.8837" lon="2.01688">
        <ele>51.8</ele>
        <time>2023-05-03T12:06:23Z</time>
      </trkpt>
      <trkpt lat="49.8837" lon="2.01688">
        <ele>51.8</ele>
        <time>2023-05-03T12:06:24Z</time>
      </trkpt>
      <trkpt lat="49.8837" lon="2.01688">
        <ele>51.8</ele>
        <time>2023-05-03T12:06:25Z</time>
      </trkpt>
      <trkpt lat="49.8837" lon="2.01688">
        <ele>51.8</ele>
        <time>2023-05-03T12:06:26Z</time>
      </trkpt>
      <trkpt lat="49.8837" lon="2.01688">
        <ele>51.8</ele>
        <time>2023-05-03T12:06:27Z</time>
      </trkpt>
      <trkpt lat="49.8837" lon="2.01688">
        <ele>51.8</ele>
        <time>2023-05-03T12:06:28Z</time>
      </trkpt>
      <trkpt lat="49.8837" lon="2.01688">
        <ele>51.8</ele>
        <time>2023-05-03T12:06:29Z</time>
      </trkpt>
      <trkpt lat="49.8837" lon="2.01688">
        <ele>51.8</ele>
        <time>2023-05-03T12:06:30Z</time>
      </trkpt>
      <trkpt lat="49.8837" lon="2.01688">
        <ele>51.8</ele>
        <time>2023-05-03T12:06:31Z</time>
      </trkpt>
      <trkpt lat="49.8837" lon="2.01688">
        <ele>51.8</ele>
        <time>2023-05-03T12:06:32Z</time>
      </trkpt>
      <trkpt lat="49.8837" lon="2.01688">
        <ele>51.8</ele>
        <time>2023-05-03T12:06:33Z</time>
      </trkpt>
      <trkpt lat="49.8837" lon="2.01688">
        <ele>51.8</ele>
        <time>2023-05-03T12:06:34Z</time>
      </trkpt>
      <trkpt lat="49.8837" lon="2.01688">
        <ele>51.8</ele>
        <time>2023-05-03T12:06:35Z</time>
      </trkpt>
      <trkpt lat="49.8837" lon="2.01688">
        <ele>51.8</ele>
        <time>2023-05-03T12:06:36Z</time>
      </trkpt>
      <trkpt lat="49.8837" lon="2.01688">
        <ele>51.8</ele>
        <time>2023-05-03T12:06:37Z</time>
      </trkpt>
      <trkpt lat="49.8837" lon="2.01688">
        <ele>51.8</ele>
        <time>2023-05-03T12:06:38Z</time>
      </trkpt>
      <trkpt lat="49.8837" lon="2.01688">
        <ele>51.8</ele>
        <time>2023-05-03T12:06:39Z</time>
      </trkpt>
      <trkpt lat="49.8837" lon="2.01688">
        <ele>51.8</ele>
        <time>2023-05-03T12:06:40Z</time>
      </trkpt>
      <trkpt lat="49.88371" lon="2.01688">
        <ele>51.8</ele>
        <time>2023-05-03T12:06:41Z</time>
      </trkpt>
      <trkpt lat="49.88371" lon="2.01688">
        <ele>51.8</ele>
        <time>2023-05-03T12:06:42Z</time>
      </trkpt>
      <trkpt lat="49.88371" lon="2.01688">
        <ele>51.8</ele>
        <time>2023-05-03T12:06:43Z</time>
      </trkpt>
      <trkpt lat="49.88371" lon="2.01688">
        <ele>51.8</ele>
        <time>2023-05-03T12:06:44Z</time>
      </trkpt>
      <trkpt lat="49.88371" lon="2.01688">
        <ele>51.8</ele>
        <time>2023-05-03T12:06:45Z</time>
      </trkpt>
      <trkpt lat="49.88371" lon="2.01688">
        <ele>51.8</ele>
        <time>2023-05-03T12:06:46Z</time>
      </trkpt>
      <trkpt lat="49.88371" lon="2.01688">
        <ele>51.8</ele>
        <time>2023-05-03T12:06:47Z</time>
      </trkpt>
      <trkpt lat="49.88371" lon="2.01688">
        <ele>51.8</ele>
        <time>2023-05-03T12:06:48Z</time>
      </trkpt>
      <trkpt lat="49.88371" lon="2.01688">
        <ele>51.8</ele>
        <time>2023-05-03T12:06:49Z</time>
      </trkpt>
      <trkpt lat="49.88371" lon="2.01688">
        <ele>51.8</ele>
        <time>2023-05-03T12:06:50Z</time>
      </trkpt>
      <trkpt lat="49.88371" lon="2.01688">
        <ele>51.8</ele>
        <time>2023-05-03T12:06:51Z</time>
      </trkpt>
      <trkpt lat="49.88371" lon="2.01688">
        <ele>51.8</ele>
        <time>2023-05-03T12:06:52Z</time>
      </trkpt>
      <trkpt lat="49.88371" lon="2.01688">
        <ele>51.8</ele>
        <time>2023-05-03T12:06:53Z</time>
      </trkpt>
      <trkpt lat="49.88371" lon="2.01688">
        <ele>51.8</ele>
        <time>2023-05-03T12:06:54Z</time>
      </trkpt>
      <trkpt lat="49.88371" lon="2.01688">
        <ele>51.8</ele>
        <time>2023-05-03T12:06:55Z</time>
      </trkpt>
      <trkpt lat="49.88371" lon="2.01688">
        <ele>51.8</ele>
        <time>2023-05-03T12:06:56Z</time>
      </trkpt>
      <trkpt lat="49.88371" lon="2.01688">
        <ele>51.8</ele>
        <time>2023-05-03T12:06:57Z</time>
      </trkpt>
      <trkpt lat="49.88371" lon="2.01688">
        <ele>51.7</ele>
        <time>2023-05-03T12:06:58Z</time>
      </trkpt>
      <trkpt lat="49.88371" lon="2.01688">
        <ele>51.7</ele>
        <time>2023-05-03T12:06:59Z</time>
      </trkpt>
      <trkpt lat="49.88371" lon="2.01688">
        <ele>51.7</ele>
        <time>2023-05-03T12:07:00Z</time>
      </trkpt>
      <trkpt lat="49.88371" lon="2.01688">
        <ele>51.7</ele>
        <time>2023-05-03T12:07:01Z</time>
      </trkpt>
      <trkpt lat="49.88371" lon="2.01688">
        <ele>51.7</ele>
        <time>2023-05-03T12:07:02Z</time>
      </trkpt>
      <trkpt lat="49.88371" lon="2.01688">
        <ele>51.7</ele>
        <time>2023-05-03T12:07:03Z</time>
      </trkpt>
      <trkpt lat="49.88371" lon="2.01688">
        <ele>51.7</ele>
        <time>2023-05-03T12:07:04Z</time>
      </trkpt>
      <trkpt lat="49.88371" lon="2.01688">
        <ele>51.7</ele>
        <time>2023-05-03T12:07:05Z</time>
      </trkpt>
      <trkpt lat="49.88371" lon="2.01688">
        <ele>51.7</ele>
        <time>2023-05-03T12:07:06Z</time>
      </trkpt>
      <trkpt lat="49.88371" lon="2.01688">
        <ele>51.7</ele>
        <time>2023-05-03T12:07:07Z</time>
      </trkpt>
      <trkpt lat="49.88371" lon="2.01688">
        <ele>51.7</ele>
        <time>2023-05-03T12:07:08Z</time>
      </trkpt>
      <trkpt lat="49.88371" lon="2.01688">
        <ele>51.7</ele>
        <time>2023-05-03T12:07:09Z</time>
      </trkpt>
      <trkpt lat="49.88371" lon="2.01689">
        <ele>51.7</ele>
        <time>2023-05-03T12:07:10Z</time>
      </trkpt>
      <trkpt lat="49.88371" lon="2.01689">
        <ele>51.7</ele>
        <time>2023-05-03T12:07:11Z</time>
      </trkpt>
      <trkpt lat="49.88371" lon="2.01689">
        <ele>51.7</ele>
        <time>2023-05-03T12:07:12Z</time>
      </trkpt>
      <trkpt lat="49.88371" lon="2.01689">
        <ele>51.7</ele>
        <time>2023-05-03T12:07:13Z</time>
      </trkpt>
      <trkpt lat="49.88371" lon="2.01689">
        <ele>51.7</ele>
        <time>2023-05-03T12:07:14Z</time>
      </trkpt>
      <trkpt lat="49.88371" lon="2.01689">
        <ele>51.7</ele>
        <time>2023-05-03T12:07:15Z</time>
      </trkpt>
      <trkpt lat="49.88371" lon="2.01689">
        <ele>51.7</ele>
        <time>2023-05-03T12:07:16Z</time>
      </trkpt>
      <trkpt lat="49.88371" lon="2.01689">
        <ele>51.7</ele>
        <time>2023-05-03T12:07:17Z</time>
      </trkpt>
      <trkpt lat="49.88371" lon="2.01689">
        <ele>51.7</ele>
        <time>2023-05-03T12:07:18Z</time>
      </trkpt>
      <trkpt lat="49.88371" lon="2.01689">
        <ele>51.7</ele>
        <time>2023-05-03T12:07:19Z</time>
      </trkpt>
      <trkpt lat="49.88371" lon="2.01689">
        <ele>51.7</ele>
        <time>2023-05-03T12:07:20Z</time>
      </trkpt>
      <trkpt lat="49.88371" lon="2.01689">
        <ele>51.7</ele>
        <time>2023-05-03T12:07:21Z</time>
      </trkpt>
      <trkpt lat="49.88371" lon="2.01689">
        <ele>51.7</ele>
        <time>2023-05-03T12:07:22Z</time>
      </trkpt>
      <trkpt lat="49.88371" lon="2.01689">
        <ele>51.7</ele>
        <time>2023-05-03T12:07:23Z</time>
      </trkpt>
      <trkpt lat="49.88371" lon="2.01689">
        <ele>51.7</ele>
        <time>2023-05-03T12:07:24Z</time>
      </trkpt>
      <trkpt lat="49.88372" lon="2.01689">
        <ele>51.7</ele>
        <time>2023-05-03T12:07:25Z</time>
      </trkpt>
      <trkpt lat="49.88372" lon="2.01689">
        <ele>51.7</ele>
        <time>2023-05-03T12:07:26Z</time>
      </trkpt>
      <trkpt lat="49.88372" lon="2.01689">
        <ele>51.7</ele>
        <time>2023-05-03T12:07:27Z</time>
      </trkpt>
      <trkpt lat="49.88372" lon="2.01689">
        <ele>51.7</ele>
        <time>2023-05-03T12:07:28Z</time>
      </trkpt>
      <trkpt lat="49.88372" lon="2.01689">
        <ele>51.7</ele>
        <time>2023-05-03T12:07:29Z</time>
      </trkpt>
      <trkpt lat="49.88372" lon="2.01689">
        <ele>51.7</ele>
        <time>2023-05-03T12:07:30Z</time>
      </trkpt>
      <trkpt lat="49.88372" lon="2.01689">
        <ele>51.7</ele>
        <time>2023-05-03T12:07:31Z</time>
      </trkpt>
      <trkpt lat="49.88372" lon="2.01689">
        <ele>51.7</ele>
        <time>2023-05-03T12:07:32Z</time>
      </trkpt>
      <trkpt lat="49.88372" lon="2.01689">
        <ele>51.7</ele>
        <time>2023-05-03T12:07:33Z</time>
      </trkpt>
      <trkpt lat="49.88372" lon="2.01689">
        <ele>51.7</ele>
        <time>2023-05-03T12:07:34Z</time>
      </trkpt>
      <trkpt lat="49.88372" lon="2.01689">
        <ele>51.7</ele>
        <time>2023-05-03T12:07:35Z</time>
      </trkpt>
      <trkpt lat="49.88372" lon="2.01689">
        <ele>51.7</ele>
        <time>2023-05-03T12:07:36Z</time>
      </trkpt>
      <trkpt lat="49.88372" lon="2.01689">
        <ele>51.7</ele>
        <time>2023-05-03T12:07:37Z</time>
      </trkpt>
      <trkpt lat="49.88372" lon="2.01689">
        <ele>51.7</ele>
        <time>2023-05-03T12:07:38Z</time>
      </trkpt>
      <trkpt lat="49.88372" lon="2.01689">
        <ele>51.7</ele>
        <time>2023-05-03T12:07:39Z</time>
      </trkpt>
      <trkpt lat="49.88372" lon="2.01689">
        <ele>51.7</ele>
        <time>2023-05-03T12:07:40Z</time>
      </trkpt>
      <trkpt lat="49.88372" lon="2.01689">
        <ele>51.7</ele>
        <time>2023-05-03T12:07:41Z</time>
      </trkpt>
      <trkpt lat="49.88372" lon="2.01689">
        <ele>51.7</ele>
        <time>2023-05-03T12:07:42Z</time>
      </trkpt>
      <trkpt lat="49.88372" lon="2.01689">
        <ele>51.7</ele>
        <time>2023-05-03T12:07:43Z</time>
      </trkpt>
      <trkpt lat="49.88372" lon="2.01689">
        <ele>51.7</ele>
        <time>2023-05-03T12:07:44Z</time>
      </trkpt>
      <trkpt lat="49.88372" lon="2.01689">
        <ele>51.7</ele>
        <time>2023-05-03T12:07:45Z</time>
      </trkpt>
      <trkpt lat="49.88372" lon="2.01689">
        <ele>51.7</ele>
        <time>2023-05-03T12:07:46Z</time>
      </trkpt>
      <trkpt lat="49.88372" lon="2.01689">
        <ele>51.7</ele>
        <time>2023-05-03T12:07:47Z</time>
      </trkpt>
      <trkpt lat="49.88372" lon="2.01689">
        <ele>51.7</ele>
        <time>2023-05-03T12:07:48Z</time>
      </trkpt>
      <trkpt lat="49.88372" lon="2.01689">
        <ele>51.7</ele>
        <time>2023-05-03T12:07:49Z</time>
      </trkpt>
      <trkpt lat="49.88372" lon="2.01689">
        <ele>51.7</ele>
        <time>2023-05-03T12:07:50Z</time>
      </trkpt>
      <trkpt lat="49.88372" lon="2.01689">
        <ele>51.7</ele>
        <time>2023-05-03T12:07:51Z</time>
      </trkpt>
      <trkpt lat="49.88372" lon="2.01689">
        <ele>51.7</ele>
        <time>2023-05-03T12:07:52Z</time>
      </trkpt>
      <trkpt lat="49.88372" lon="2.01689">
        <ele>51.7</ele>
        <time>2023-05-03T12:07:53Z</time>
      </trkpt>
      <trkpt lat="49.88372" lon="2.01689">
        <ele>51.7</ele>
        <time>2023-05-03T12:07:54Z</time>
      </trkpt>
      <trkpt lat="49.88372" lon="2.01689">
        <ele>51.7</ele>
        <time>2023-05-03T12:07:55Z</time>
      </trkpt>
      <trkpt lat="49.88372" lon="2.01689">
        <ele>51.7</ele>
        <time>2023-05-03T12:07:56Z</time>
      </trkpt>
      <trkpt lat="49.88372" lon="2.01689">
        <ele>51.7</ele>
        <time>2023-05-03T12:07:57Z</time>
      </trkpt>
      <trkpt lat="49.88372" lon="2.01689">
        <ele>51.7</ele>
        <time>2023-05-03T12:07:58Z</time>
      </trkpt>
      <trkpt lat="49.88372" lon="2.01689">
        <ele>51.7</ele>
        <time>2023-05-03T12:07:59Z</time>
      </trkpt>
      <trkpt lat="49.88372" lon="2.01689">
        <ele>51.7</ele>
        <time>2023-05-03T12:08:00Z</time>
      </trkpt>
      <trkpt lat="49.88372" lon="2.01689">
        <ele>51.7</ele>
        <time>2023-05-03T12:08:01Z</time>
      </trkpt>
      <trkpt lat="49.88372" lon="2.01689">
        <ele>51.7</ele>
        <time>2023-05-03T12:08:02Z</time>
      </trkpt>
      <trkpt lat="49.88372" lon="2.01689">
        <ele>51.7</ele>
        <time>2023-05-03T12:08:03Z</time>
      </trkpt>
      <trkpt lat="49.88372" lon="2.01689">
        <ele>51.7</ele>
        <time>2023-05-03T12:08:04Z</time>
      </trkpt>
      <trkpt lat="49.88372" lon="2.01689">
        <ele>51.7</ele>
        <time>2023-05-03T12:08:05Z</time>
      </trkpt>
      <trkpt lat="49.88372" lon="2.01689">
        <ele>51.7</ele>
        <time>2023-05-03T12:08:06Z</time>
      </trkpt>
      <trkpt lat="49.88372" lon="2.01689">
        <ele>51.7</ele>
        <time>2023-05-03T12:08:07Z</time>
      </trkpt>
      <trkpt lat="49.88372" lon="2.01689">
        <ele>51.7</ele>
        <time>2023-05-03T12:08:08Z</time>
      </trkpt>
      <trkpt lat="49.88373" lon="2.01689">
        <ele>51.7</ele>
        <time>2023-05-03T12:08:09Z</time>
      </trkpt>
      <trkpt lat="49.88373" lon="2.01689">
        <ele>51.7</ele>
        <time>2023-05-03T12:08:10Z</time>
      </trkpt>
      <trkpt lat="49.88373" lon="2.01689">
        <ele>51.7</ele>
        <time>2023-05-03T12:08:11Z</time>
      </trkpt>
      <trkpt lat="49.88373" lon="2.01689">
        <ele>51.7</ele>
        <time>2023-05-03T12:08:12Z</time>
      </trkpt>
      <trkpt lat="49.88373" lon="2.01689">
        <ele>51.7</ele>
        <time>2023-05-03T12:08:13Z</time>
      </trkpt>
      <trkpt lat="49.88373" lon="2.01689">
        <ele>51.7</ele>
        <time>2023-05-03T12:08:14Z</time>
      </trkpt>
      <trkpt lat="49.88373" lon="2.01689">
        <ele>51.7</ele>
        <time>2023-05-03T12:08:15Z</time>
      </trkpt>
      <trkpt lat="49.88373" lon="2.01689">
        <ele>51.7</ele>
        <time>2023-05-03T12:08:16Z</time>
      </trkpt>
      <trkpt lat="49.88373" lon="2.01689">
        <ele>51.7</ele>
        <time>2023-05-03T12:08:17Z</time>
      </trkpt>
      <trkpt lat="49.88373" lon="2.01689">
        <ele>51.7</ele>
        <time>2023-05-03T12:08:18Z</time>
      </trkpt>
      <trkpt lat="49.88373" lon="2.01689">
        <ele>51.7</ele>
        <time>2023-05-03T12:08:19Z</time>
      </trkpt>
      <trkpt lat="49.88373" lon="2.01689">
        <ele>51.7</ele>
        <time>2023-05-03T12:08:20Z</time>
      </trkpt>
      <trkpt lat="49.88373" lon="2.01689">
        <ele>51.7</ele>
        <time>2023-05-03T12:08:21Z</time>
      </trkpt>
      <trkpt lat="49.88373" lon="2.01689">
        <ele>51.7</ele>
        <time>2023-05-03T12:08:22Z</time>
      </trkpt>
      <trkpt lat="49.88373" lon="2.01689">
        <ele>51.7</ele>
        <time>2023-05-03T12:08:23Z</time>
      </trkpt>
      <trkpt lat="49.88373" lon="2.01689">
        <ele>51.7</ele>
        <time>2023-05-03T12:08:24Z</time>
      </trkpt>
      <trkpt lat="49.88373" lon="2.01689">
        <ele>51.7</ele>
        <time>2023-05-03T12:08:25Z</time>
      </trkpt>
      <trkpt lat="49.88373" lon="2.01689">
        <ele>51.7</ele>
        <time>2023-05-03T12:08:26Z</time>
      </trkpt>
      <trkpt lat="49.88373" lon="2.01689">
        <ele>51.7</ele>
        <time>2023-05-03T12:08:27Z</time>
      </trkpt>
      <trkpt lat="49.88373" lon="2.01689">
        <ele>51.7</ele>
        <time>2023-05-03T12:08:28Z</time>
      </trkpt>
      <trkpt lat="49.88373" lon="2.01689">
        <ele>51.7</ele>
        <time>2023-05-03T12:08:29Z</time>
      </trkpt>
      <trkpt lat="49.88373" lon="2.01689">
        <ele>51.7</ele>
        <time>2023-05-03T12:08:30Z</time>
      </trkpt>
      <trkpt lat="49.88373" lon="2.01689">
        <ele>51.7</ele>
        <time>2023-05-03T12:08:31Z</time>
      </trkpt>
      <trkpt lat="49.88373" lon="2.01689">
        <ele>51.7</ele>
        <time>2023-05-03T12:08:32Z</time>
      </trkpt>
      <trkpt lat="49.88373" lon="2.01689">
        <ele>51.7</ele>
        <time>2023-05-03T12:08:33Z</time>
      </trkpt>
      <trkpt lat="49.88373" lon="2.01689">
        <ele>51.7</ele>
        <time>2023-05-03T12:08:34Z</time>
      </trkpt>
      <trkpt lat="49.88373" lon="2.01689">
        <ele>51.7</ele>
        <time>2023-05-03T12:08:35Z</time>
      </trkpt>
      <trkpt lat="49.88373" lon="2.01689">
        <ele>51.7</ele>
        <time>2023-05-03T12:08:36Z</time>
      </trkpt>
      <trkpt lat="49.88373" lon="2.01689">
        <ele>51.7</ele>
        <time>2023-05-03T12:08:37Z</time>
      </trkpt>
      <trkpt lat="49.88373" lon="2.01689">
        <ele>51.7</ele>
        <time>2023-05-03T12:08:38Z</time>
      </trkpt>
      <trkpt lat="49.88373" lon="2.01689">
        <ele>51.7</ele>
        <time>2023-05-03T12:08:39Z</time>
      </trkpt>
      <trkpt lat="49.88373" lon="2.01689">
        <ele>51.7</ele>
        <time>2023-05-03T12:08:40Z</time>
      </trkpt>
      <trkpt lat="49.88373" lon="2.01689">
        <ele>51.7</ele>
        <time>2023-05-03T12:08:41Z</time>
      </trkpt>
      <trkpt lat="49.88373" lon="2.01689">
        <ele>51.7</ele>
        <time>2023-05-03T12:08:42Z</time>
      </trkpt>
      <trkpt lat="49.88373" lon="2.01689">
        <ele>51.7</ele>
        <time>2023-05-03T12:08:43Z</time>
      </trkpt>
      <trkpt lat="49.88373" lon="2.01689">
        <ele>51.7</ele>
        <time>2023-05-03T12:08:44Z</time>
      </trkpt>
      <trkpt lat="49.88373" lon="2.01689">
        <ele>51.7</ele>
        <time>2023-05-03T12:08:45Z</time>
      </trkpt>
      <trkpt lat="49.88373" lon="2.01689">
        <ele>51.7</ele>
        <time>2023-05-03T12:08:46Z</time>
      </trkpt>
      <trkpt lat="49.88373" lon="2.01689">
        <ele>51.7</ele>
        <time>2023-05-03T12:08:47Z</time>
      </trkpt>
      <trkpt lat="49.88373" lon="2.0169">
        <ele>51.7</ele>
        <time>2023-05-03T12:08:48Z</time>
      </trkpt>
      <trkpt lat="49.88373" lon="2.0169">
        <ele>51.7</ele>
        <time>2023-05-03T12:08:49Z</time>
      </trkpt>
      <trkpt lat="49.88373" lon="2.0169">
        <ele>51.7</ele>
        <time>2023-05-03T12:08:50Z</time>
      </trkpt>
      <trkpt lat="49.88373" lon="2.0169">
        <ele>51.7</ele>
        <time>2023-05-03T12:08:51Z</time>
      </trkpt>
      <trkpt lat="49.88373" lon="2.0169">
        <ele>51.7</ele>
        <time>2023-05-03T12:08:52Z</time>
      </trkpt>
      <trkpt lat="49.88374" lon="2.0169">
        <ele>51.7</ele>
        <time>2023-05-03T12:08:53Z</time>
      </trkpt>
      <trkpt lat="49.88374" lon="2.0169">
        <ele>51.7</ele>
        <time>2023-05-03T12:08:54Z</time>
      </trkpt>
      <trkpt lat="49.88374" lon="2.0169">
        <ele>51.7</ele>
        <time>2023-05-03T12:08:55Z</time>
      </trkpt>
      <trkpt lat="49.88374" lon="2.0169">
        <ele>51.7</ele>
        <time>2023-05-03T12:08:56Z</time>
      </trkpt>
      <trkpt lat="49.88374" lon="2.0169">
        <ele>51.7</ele>
        <time>2023-05-03T12:08:57Z</time>
      </trkpt>
      <trkpt lat="49.88374" lon="2.0169">
        <ele>51.7</ele>
        <time>2023-05-03T12:08:58Z</time>
      </trkpt>
      <trkpt lat="49.88374" lon="2.0169">
        <ele>51.7</ele>
        <time>2023-05-03T12:08:59Z</time>
      </trkpt>
      <trkpt lat="49.88374" lon="2.0169">
        <ele>51.7</ele>
        <time>2023-05-03T12:09:00Z</time>
      </trkpt>
      <trkpt lat="49.88374" lon="2.0169">
        <ele>51.7</ele>
        <time>2023-05-03T12:09:01Z</time>
      </trkpt>
      <trkpt lat="49.88374" lon="2.0169">
        <ele>51.7</ele>
        <time>2023-05-03T12:09:02Z</time>
      </trkpt>
      <trkpt lat="49.88374" lon="2.0169">
        <ele>51.7</ele>
        <time>2023-05-03T12:09:03Z</time>
      </trkpt>
      <trkpt lat="49.88374" lon="2.0169">
        <ele>51.7</ele>
        <time>2023-05-03T12:09:04Z</time>
      </trkpt>
      <trkpt lat="49.88374" lon="2.0169">
        <ele>51.7</ele>
        <time>2023-05-03T12:09:05Z</time>
      </trkpt>
      <trkpt lat="49.88374" lon="2.0169">
        <ele>51.7</ele>
        <time>2023-05-03T12:09:06Z</time>
      </trkpt>
      <trkpt lat="49.88374" lon="2.0169">
        <ele>51.7</ele>
        <time>2023-05-03T12:09:07Z</time>
      </trkpt>
      <trkpt lat="49.88374" lon="2.0169">
        <ele>51.7</ele>
        <time>2023-05-03T12:09:08Z</time>
      </trkpt>
      <trkpt lat="49.88374" lon="2.0169">
        <ele>51.7</ele>
        <time>2023-05-03T12:09:09Z</time>
      </trkpt>
      <trkpt lat="49.88374" lon="2.0169">
        <ele>51.7</ele>
        <time>2023-05-03T12:09:10Z</time>
      </trkpt>
      <trkpt lat="49.88374" lon="2.0169">
        <ele>51.7</ele>
        <time>2023-05-03T12:09:11Z</time>
      </trkpt>
      <trkpt lat="49.88374" lon="2.0169">
        <ele>51.7</ele>
        <time>2023-05-03T12:09:12Z</time>
      </trkpt>
      <trkpt lat="49.88374" lon="2.0169">
        <ele>51.7</ele>
        <time>2023-05-03T12:09:13Z</time>
      </trkpt>
      <trkpt lat="49.88374" lon="2.0169">
        <ele>51.7</ele>
        <time>2023-05-03T12:09:14Z</time>
      </trkpt>
      <trkpt lat="49.88374" lon="2.0169">
        <ele>51.7</ele>
        <time>2023-05-03T12:09:15Z</time>
      </trkpt>
      <trkpt lat="49.88374" lon="2.0169">
        <ele>51.7</ele>
        <time>2023-05-03T12:09:16Z</time>
      </trkpt>
      <trkpt lat="49.88374" lon="2.0169">
        <ele>51.7</ele>
        <time>2023-05-03T12:09:17Z</time>
      </trkpt>
      <trkpt lat="49.88374" lon="2.0169">
        <ele>51.7</ele>
        <time>2023-05-03T12:09:18Z</time>
      </trkpt>
      <trkpt lat="49.88374" lon="2.0169">
        <ele>51.7</ele>
        <time>2023-05-03T12:09:19Z</time>
      </trkpt>
      <trkpt lat="49.88374" lon="2.0169">
        <ele>51.7</ele>
        <time>2023-05-03T12:09:20Z</time>
      </trkpt>
      <trkpt lat="49.88374" lon="2.0169">
        <ele>51.7</ele>
        <time>2023-05-03T12:09:21Z</time>
      </trkpt>
      <trkpt lat="49.88374" lon="2.0169">
        <ele>51.7</ele>
        <time>2023-05-03T12:09:22Z</time>
      </trkpt>
      <trkpt lat="49.88374" lon="2.0169">
        <ele>51.7</ele>
        <time>2023-05-03T12:09:23Z</time>
      </trkpt>
      <trkpt lat="49.88374" lon="2.0169">
        <ele>51.7</ele>
        <time>2023-05-03T12:09:24Z</time>
      </trkpt>
      <trkpt lat="49.88374" lon="2.0169">
        <ele>51.7</ele>
        <time>2023-05-03T12:09:25Z</time>
      </trkpt>
      <trkpt lat="49.88374" lon="2.0169">
        <ele>51.7</ele>
        <time>2023-05-03T12:09:26Z</time>
      </trkpt>
      <trkpt lat="49.88374" lon="2.0169">
        <ele>51.7</ele>
        <time>2023-05-03T12:09:27Z</time>
      </trkpt>
      <trkpt lat="49.88374" lon="2.0169">
        <ele>51.7</ele>
        <time>2023-05-03T12:09:28Z</time>
      </trkpt>
      <trkpt lat="49.88374" lon="2.0169">
        <ele>51.7</ele>
        <time>2023-05-03T12:09:29Z</time>
      </trkpt>
      <trkpt lat="49.88374" lon="2.0169">
        <ele>51.7</ele>
        <time>2023-05-03T12:09:30Z</time>
      </trkpt>
      <trkpt lat="49.88374" lon="2.0169">
        <ele>51.7</ele>
        <time>2023-05-03T12:09:31Z</time>
      </trkpt>
      <trkpt lat="49.88374" lon="2.0169">
        <ele>51.7</ele>
        <time>2023-05-03T12:09:32Z</time>
      </trkpt>
      <trkpt lat="49.88374" lon="2.0169">
        <ele>51.7</ele>
        <time>2023-05-03T12:09:33Z</time>
      </trkpt>
      <trkpt lat="49.88374" lon="2.0169">
        <ele>51.7</ele>
        <time>2023-05-03T12:09:34Z</time>
      </trkpt>
      <trkpt lat="49.88374" lon="2.0169">
        <ele>51.7</ele>
        <time>2023-05-03T12:09:35Z</time>
      </trkpt>
      <trkpt lat="49.88374" lon="2.0169">
        <ele>51.7</ele>
        <time>2023-05-03T12:09:36Z</time>
      </trkpt>
      <trkpt lat="49.88375" lon="2.0169">
        <ele>51.7</ele>
        <time>2023-05-03T12:09:37Z</time>
      </trkpt>
      <trkpt lat="49.88375" lon="2.0169">
        <ele>51.7</ele>
        <time>2023-05-03T12:09:38Z</time>
      </trkpt>
      <trkpt lat="49.88375" lon="2.0169">
        <ele>51.7</ele>
        <time>2023-05-03T12:09:39Z</time>
      </trkpt>
      <trkpt lat="49.88375" lon="2.0169">
        <ele>51.7</ele>
        <time>2023-05-03T12:09:40Z</time>
      </trkpt>
      <trkpt lat="49.88375" lon="2.0169">
        <ele>51.7</ele>
        <time>2023-05-03T12:09:41Z</time>
      </trkpt>
      <trkpt lat="49.88375" lon="2.0169">
        <ele>51.7</ele>
        <time>2023-05-03T12:09:42Z</time>
      </trkpt>
      <trkpt lat="49.88375" lon="2.0169">
        <ele>51.7</ele>
        <time>2023-05-03T12:09:43Z</time>
      </trkpt>
      <trkpt lat="49.88375" lon="2.0169">
        <ele>51.7</ele>
        <time>2023-05-03T12:09:44Z</time>
      </trkpt>
      <trkpt lat="49.88375" lon="2.0169">
        <ele>51.7</ele>
        <time>2023-05-03T12:09:45Z</time>
      </trkpt>
      <trkpt lat="49.88375" lon="2.0169">
        <ele>51.7</ele>
        <time>2023-05-03T12:09:46Z</time>
      </trkpt>
      <trkpt lat="49.88375" lon="2.0169">
        <ele>51.7</ele>
        <time>2023-05-03T12:09:47Z</time>
      </trkpt>
      <trkpt lat="49.88375" lon="2.0169">
        <ele>51.7</ele>
        <time>2023-05-03T12:09:48Z</time>
      </trkpt>
      <trkpt lat="49.88375" lon="2.0169">
        <ele>51.7</ele>
        <time>2023-05-03T12:09:49Z</time>
      </trkpt>
      <trkpt lat="49.88375" lon="2.0169">
        <ele>51.7</ele>
        <time>2023-05-03T12:09:50Z</time>
      </trkpt>
      <trkpt lat="49.88375" lon="2.0169">
        <ele>51.7</ele>
        <time>2023-05-03T12:09:51Z</time>
      </trkpt>
      <trkpt lat="49.88375" lon="2.0169">
        <ele>51.7</ele>
        <time>2023-05-03T12:09:52Z</time>
      </trkpt>
      <trkpt lat="49.88381" lon="2.01694">
        <ele>51.6</ele>
        <time>2023-05-03T12:09:53Z</time>
      </trkpt>
      <trkpt lat="49.88385" lon="2.01696">
        <ele>51.5</ele>
        <time>2023-05-03T12:09:54Z</time>
      </trkpt>
      <trkpt lat="49.88379" lon="2.01694">
        <ele>51.4</ele>
        <time>2023-05-03T12:09:56Z</time>
      </trkpt>
      <trkpt lat="49.88379" lon="2.01695">
        <ele>51.4</ele>
        <time>2023-05-03T12:09:57Z</time>
      </trkpt>
      <trkpt lat="49.8838" lon="2.01696">
        <ele>51.4</ele>
        <time>2023-05-03T12:09:58Z</time>
      </trkpt>
      <trkpt lat="49.88381" lon="2.01697">
        <ele>51.4</ele>
        <time>2023-05-03T12:09:59Z</time>
      </trkpt>
      <trkpt lat="49.88382" lon="2.01698">
        <ele>51.4</ele>
        <time>2023-05-03T12:10:00Z</time>
      </trkpt>
      <trkpt lat="49.88384" lon="2.01701">
        <ele>51.3</ele>
        <time>2023-05-03T12:10:01Z</time>
      </trkpt>
      <trkpt lat="49.88384" lon="2.01703">
        <ele>51.3</ele>
        <time>2023-05-03T12:10:03Z</time>
      </trkpt>
      <trkpt lat="49.88385" lon="2.01704">
        <ele>51.3</ele>
        <time>2023-05-03T12:10:04Z</time>
      </trkpt>
      <trkpt lat="49.88385" lon="2.01705">
        <ele>51.3</ele>
        <time>2023-05-03T12:10:05Z</time>
      </trkpt>
      <trkpt lat="49.88386" lon="2.01707">
        <ele>51.3</ele>
        <time>2023-05-03T12:10:06Z</time>
      </trkpt>
      <trkpt lat="49.88386" lon="2.0171">
        <ele>51.3</ele>
        <time>2023-05-03T12:10:07Z</time>
      </trkpt>
      <trkpt lat="49.88386" lon="2.01711">
        <ele>51.2</ele>
        <time>2023-05-03T12:10:08Z</time>
      </trkpt>
      <trkpt lat="49.88385" lon="2.01713">
        <ele>51.2</ele>
        <time>2023-05-03T12:10:09Z</time>
      </trkpt>
      <trkpt lat="49.88385" lon="2.01716">
        <ele>51.2</ele>
        <time>2023-05-03T12:10:11Z</time>
      </trkpt>
      <trkpt lat="49.88384" lon="2.01717">
        <ele>51.2</ele>
        <time>2023-05-03T12:10:12Z</time>
      </trkpt>
      <trkpt lat="49.88384" lon="2.01718">
        <ele>51.2</ele>
        <time>2023-05-03T12:10:13Z</time>
      </trkpt>
      <trkpt lat="49.8838" lon="2.01719">
        <ele>51.1</ele>
        <time>2023-05-03T12:10:14Z</time>
      </trkpt>
      <trkpt lat="49.88379" lon="2.01719">
        <ele>51.1</ele>
        <time>2023-05-03T12:10:15Z</time>
      </trkpt>
      <trkpt lat="49.88375" lon="2.01719">
        <ele>51.1</ele>
        <time>2023-05-03T12:10:16Z</time>
      </trkpt>
      <trkpt lat="49.88373" lon="2.01719">
        <ele>51</ele>
        <time>2023-05-03T12:10:17Z</time>
      </trkpt>
      <trkpt lat="49.88372" lon="2.0172">
        <ele>51</ele>
        <time>2023-05-03T12:10:19Z</time>
      </trkpt>
      <trkpt lat="49.88371" lon="2.01721">
        <ele>51</ele>
        <time>2023-05-03T12:10:20Z</time>
      </trkpt>
      <trkpt lat="49.88369" lon="2.01721">
        <ele>51</ele>
        <time>2023-05-03T12:10:21Z</time>
      </trkpt>
      <trkpt lat="49.88368" lon="2.01722">
        <ele>51</ele>
        <time>2023-05-03T12:10:22Z</time>
      </trkpt>
      <trkpt lat="49.88367" lon="2.01722">
        <ele>51</ele>
        <time>2023-05-03T12:10:23Z</time>
      </trkpt>
      <trkpt lat="49.88366" lon="2.01723">
        <ele>51</ele>
        <time>2023-05-03T12:10:24Z</time>
      </trkpt>
      <trkpt lat="49.88365" lon="2.01724">
        <ele>50.9</ele>
        <time>2023-05-03T12:10:25Z</time>
      </trkpt>
      <trkpt lat="49.88364" lon="2.01725">
        <ele>50.9</ele>
        <time>2023-05-03T12:10:26Z</time>
      </trkpt>
      <trkpt lat="49.88363" lon="2.01726">
        <ele>50.9</ele>
        <time>2023-05-03T12:10:28Z</time>
      </trkpt>
      <trkpt lat="49.88362" lon="2.01727">
        <ele>50.9</ele>
        <time>2023-05-03T12:10:29Z</time>
      </trkpt>
      <trkpt lat="49.88361" lon="2.01728">
        <ele>50.9</ele>
        <time>2023-05-03T12:10:30Z</time>
      </trkpt>
      <trkpt lat="49.8836" lon="2.01729">
        <ele>50.9</ele>
        <time>2023-05-03T12:10:31Z</time>
      </trkpt>
      <trkpt lat="49.88358" lon="2.01731">
        <ele>50.9</ele>
        <time>2023-05-03T12:10:32Z</time>
      </trkpt>
      <trkpt lat="49.88357" lon="2.01733">
        <ele>50.8</ele>
        <time>2023-05-03T12:10:34Z</time>
      </trkpt>
      <trkpt lat="49.88356" lon="2.01734">
        <ele>50.8</ele>
        <time>2023-05-03T12:10:35Z</time>
      </trkpt>
      <trkpt lat="49.88355" lon="2.01735">
        <ele>50.8</ele>
        <time>2023-05-03T12:10:36Z</time>
      </trkpt>
      <trkpt lat="49.88354" lon="2.01735">
        <ele>50.8</ele>
        <time>2023-05-03T12:10:37Z</time>
      </trkpt>
      <trkpt lat="49.88353" lon="2.01736">
        <ele>50.8</ele>
        <time>2023-05-03T12:10:38Z</time>
      </trkpt>
      <trkpt lat="49.88352" lon="2.01738">
        <ele>50.8</ele>
        <time>2023-05-03T12:10:39Z</time>
      </trkpt>
      <trkpt lat="49.88351" lon="2.01739">
        <ele>50.8</ele>
        <time>2023-05-03T12:10:40Z</time>
      </trkpt>
      <trkpt lat="49.88349" lon="2.01739">
        <ele>50.7</ele>
        <time>2023-05-03T12:10:42Z</time>
      </trkpt>
      <trkpt lat="49.88347" lon="2.01741">
        <ele>50.7</ele>
        <time>2023-05-03T12:10:43Z</time>
      </trkpt>
      <trkpt lat="49.88347" lon="2.01741">
        <ele>50.7</ele>
        <time>2023-05-03T12:10:44Z</time>
      </trkpt>
      <trkpt lat="49.88346" lon="2.01741">
        <ele>50.7</ele>
        <time>2023-05-03T12:10:45Z</time>
      </trkpt>
      <trkpt lat="49.88343" lon="2.01742">
        <ele>50.7</ele>
        <time>2023-05-03T12:10:46Z</time>
      </trkpt>
      <trkpt lat="49.88342" lon="2.01741">
        <ele>50.7</ele>
        <time>2023-05-03T12:10:47Z</time>
      </trkpt>
      <trkpt lat="49.88342" lon="2.01741">
        <ele>50.7</ele>
        <time>2023-05-03T12:10:48Z</time>
      </trkpt>
      <trkpt lat="49.88339" lon="2.0174">
        <ele>50.6</ele>
        <time>2023-05-03T12:10:50Z</time>
      </trkpt>
      <trkpt lat="49.88338" lon="2.0174">
        <ele>50.6</ele>
        <time>2023-05-03T12:10:51Z</time>
      </trkpt>
      <trkpt lat="49.88336" lon="2.01738">
        <ele>50.6</ele>
        <time>2023-05-03T12:10:52Z</time>
      </trkpt>
      <trkpt lat="49.88335" lon="2.01737">
        <ele>50.6</ele>
        <time>2023-05-03T12:10:53Z</time>
      </trkpt>
      <trkpt lat="49.88335" lon="2.01737">
        <ele>50.1</ele>
        <time>2023-05-03T12:10:54Z</time>
      </trkpt>
      <trkpt lat="49.88333" lon="2.01735">
        <ele>50.1</ele>
        <time>2023-05-03T12:10:55Z</time>
      </trkpt>
      <trkpt lat="49.88332" lon="2.01734">
        <ele>50.1</ele>
        <time>2023-05-03T12:10:57Z</time>
      </trkpt>
      <trkpt lat="49.88331" lon="2.01732">
        <ele>50.1</ele>
        <time>2023-05-03T12:10:58Z</time>
      </trkpt>
      <trkpt lat="49.8833" lon="2.0173">
        <ele>50.1</ele>
        <time>2023-05-03T12:10:59Z</time>
      </trkpt>
      <trkpt lat="49.88329" lon="2.01728">
        <ele>50.1</ele>
        <time>2023-05-03T12:11:00Z</time>
      </trkpt>
      <trkpt lat="49.88328" lon="2.01727">
        <ele>50.1</ele>
        <time>2023-05-03T12:11:01Z</time>
      </trkpt>
      <trkpt lat="49.88328" lon="2.01725">
        <ele>50.1</ele>
        <time>2023-05-03T12:11:02Z</time>
      </trkpt>
      <trkpt lat="49.88328" lon="2.01724">
        <ele>50.1</ele>
        <time>2023-05-03T12:11:03Z</time>
      </trkpt>
      <trkpt lat="49.88327" lon="2.01722">
        <ele>50.1</ele>
        <time>2023-05-03T12:11:04Z</time>
      </trkpt>
      <trkpt lat="49.88326" lon="2.01719">
        <ele>50.1</ele>
        <time>2023-05-03T12:11:06Z</time>
      </trkpt>
      <trkpt lat="49.88325" lon="2.01718">
        <ele>50.1</ele>
        <time>2023-05-03T12:11:07Z</time>
      </trkpt>
      <trkpt lat="49.88325" lon="2.01716">
        <ele>50.1</ele>
        <time>2023-05-03T12:11:08Z</time>
      </trkpt>
      <trkpt lat="49.88324" lon="2.01713">
        <ele>50.1</ele>
        <time>2023-05-03T12:11:10Z</time>
      </trkpt>
      <trkpt lat="49.88323" lon="2.01711">
        <ele>50.1</ele>
        <time>2023-05-03T12:11:11Z</time>
      </trkpt>
      <trkpt lat="49.88323" lon="2.0171">
        <ele>50.1</ele>
        <time>2023-05-03T12:11:12Z</time>
      </trkpt>
      <trkpt lat="49.88322" lon="2.01707">
        <ele>50.1</ele>
        <time>2023-05-03T12:11:13Z</time>
      </trkpt>
      <trkpt lat="49.88322" lon="2.01706">
        <ele>50.1</ele>
        <time>2023-05-03T12:11:14Z</time>
      </trkpt>
      <trkpt lat="49.88321" lon="2.01705">
        <ele>50.1</ele>
        <time>2023-05-03T12:11:15Z</time>
      </trkpt>
      <trkpt lat="49.88321" lon="2.01702">
        <ele>50.1</ele>
        <time>2023-05-03T12:11:16Z</time>
      </trkpt>
      <trkpt lat="49.8832" lon="2.017">
        <ele>50.1</ele>
        <time>2023-05-03T12:11:18Z</time>
      </trkpt>
      <trkpt lat="49.8832" lon="2.01699">
        <ele>50.1</ele>
        <time>2023-05-03T12:11:19Z</time>
      </trkpt>
      <trkpt lat="49.8832" lon="2.01697">
        <ele>50.1</ele>
        <time>2023-05-03T12:11:20Z</time>
      </trkpt>
      <trkpt lat="49.88319" lon="2.01696">
        <ele>50.1</ele>
        <time>2023-05-03T12:11:21Z</time>
      </trkpt>
      <trkpt lat="49.88319" lon="2.01694">
        <ele>50.1</ele>
        <time>2023-05-03T12:11:22Z</time>
      </trkpt>
      <trkpt lat="49.88318" lon="2.01693">
        <ele>50.1</ele>
        <time>2023-05-03T12:11:23Z</time>
      </trkpt>
      <trkpt lat="49.88318" lon="2.01691">
        <ele>50.1</ele>
        <time>2023-05-03T12:11:24Z</time>
      </trkpt>
      <trkpt lat="49.88317" lon="2.0169">
        <ele>50.1</ele>
        <time>2023-05-03T12:11:26Z</time>
      </trkpt>
      <trkpt lat="49.88316" lon="2.01688">
        <ele>50.1</ele>
        <time>2023-05-03T12:11:27Z</time>
      </trkpt>
      <trkpt lat="49.88316" lon="2.01687">
        <ele>50.1</ele>
        <time>2023-05-03T12:11:28Z</time>
      </trkpt>
      <trkpt lat="49.88315" lon="2.01685">
        <ele>50.1</ele>
        <time>2023-05-03T12:11:29Z</time>
      </trkpt>
      <trkpt lat="49.88314" lon="2.01683">
        <ele>50.1</ele>
        <time>2023-05-03T12:11:30Z</time>
      </trkpt>
      <trkpt lat="49.88314" lon="2.01681">
        <ele>50.2</ele>
        <time>2023-05-03T12:11:31Z</time>
      </trkpt>
      <trkpt lat="49.88313" lon="2.0168">
        <ele>50.2</ele>
        <time>2023-05-03T12:11:32Z</time>
      </trkpt>
      <trkpt lat="49.88312" lon="2.01677">
        <ele>50.2</ele>
        <time>2023-05-03T12:11:33Z</time>
      </trkpt>
      <trkpt lat="49.88312" lon="2.01676">
        <ele>50.2</ele>
        <time>2023-05-03T12:11:35Z</time>
      </trkpt>
      <trkpt lat="49.88311" lon="2.01675">
        <ele>50.2</ele>
        <time>2023-05-03T12:11:36Z</time>
      </trkpt>
      <trkpt lat="49.88311" lon="2.01673">
        <ele>50.2</ele>
        <time>2023-05-03T12:11:37Z</time>
      </trkpt>
      <trkpt lat="49.88311" lon="2.01672">
        <ele>50.2</ele>
        <time>2023-05-03T12:11:38Z</time>
      </trkpt>
      <trkpt lat="49.8831" lon="2.0167">
        <ele>50.2</ele>
        <time>2023-05-03T12:11:39Z</time>
      </trkpt>
      <trkpt lat="49.8831" lon="2.01669">
        <ele>50.2</ele>
        <time>2023-05-03T12:11:40Z</time>
      </trkpt>
      <trkpt lat="49.88309" lon="2.01668">
        <ele>50.2</ele>
        <time>2023-05-03T12:11:41Z</time>
      </trkpt>
      <trkpt lat="49.88308" lon="2.01666">
        <ele>50.2</ele>
        <time>2023-05-03T12:11:43Z</time>
      </trkpt>
      <trkpt lat="49.88308" lon="2.01665">
        <ele>50.2</ele>
        <time>2023-05-03T12:11:44Z</time>
      </trkpt>
      <trkpt lat="49.88307" lon="2.01663">
        <ele>50.2</ele>
        <time>2023-05-03T12:11:45Z</time>
      </trkpt>
      <trkpt lat="49.88307" lon="2.01661">
        <ele>50.2</ele>
        <time>2023-05-03T12:11:46Z</time>
      </trkpt>
      <trkpt lat="49.88306" lon="2.0166">
        <ele>50.2</ele>
        <time>2023-05-03T12:11:47Z</time>
      </trkpt>
      <trkpt lat="49.88305" lon="2.01659">
        <ele>50.2</ele>
        <time>2023-05-03T12:11:48Z</time>
      </trkpt>
      <trkpt lat="49.88304" lon="2.01657">
        <ele>50.3</ele>
        <time>2023-05-03T12:11:50Z</time>
      </trkpt>
      <trkpt lat="49.88304" lon="2.01656">
        <ele>50.3</ele>
        <time>2023-05-03T12:11:51Z</time>
      </trkpt>
      <trkpt lat="49.88304" lon="2.01657">
        <ele>50.3</ele>
        <time>2023-05-03T12:11:53Z</time>
      </trkpt>
      <trkpt lat="49.88304" lon="2.01657">
        <ele>50.3</ele>
        <time>2023-05-03T12:11:54Z</time>
      </trkpt>
      <trkpt lat="49.88304" lon="2.01657">
        <ele>50.3</ele>
        <time>2023-05-03T12:11:55Z</time>
      </trkpt>
      <trkpt lat="49.88305" lon="2.01656">
        <ele>50.3</ele>
        <time>2023-05-03T12:11:57Z</time>
      </trkpt>
      <trkpt lat="49.88305" lon="2.01656">
        <ele>50.3</ele>
        <time>2023-05-03T12:11:58Z</time>
      </trkpt>
      <trkpt lat="49.88305" lon="2.01656">
        <ele>50.3</ele>
        <time>2023-05-03T12:12:00Z</time>
      </trkpt>
      <trkpt lat="49.88305" lon="2.01656">
        <ele>50.3</ele>
        <time>2023-05-03T12:12:01Z</time>
      </trkpt>
      <trkpt lat="49.88305" lon="2.01656">
        <ele>50.3</ele>
        <time>2023-05-03T12:12:03Z</time>
      </trkpt>
      <trkpt lat="49.88305" lon="2.01656">
        <ele>50.3</ele>
        <time>2023-05-03T12:12:04Z</time>
      </trkpt>
      <trkpt lat="49.88305" lon="2.01656">
        <ele>50.3</ele>
        <time>2023-05-03T12:12:05Z</time>
      </trkpt>
      <trkpt lat="49.88305" lon="2.01657">
        <ele>50.3</ele>
        <time>2023-05-03T12:12:07Z</time>
      </trkpt>
      <trkpt lat="49.88305" lon="2.01657">
        <ele>50.3</ele>
        <time>2023-05-03T12:12:08Z</time>
      </trkpt>
      <trkpt lat="49.88305" lon="2.01657">
        <ele>50.3</ele>
        <time>2023-05-03T12:12:09Z</time>
      </trkpt>
      <trkpt lat="49.88305" lon="2.01657">
        <ele>50.3</ele>
        <time>2023-05-03T12:12:10Z</time>
      </trkpt>
      <trkpt lat="49.88305" lon="2.01657">
        <ele>50.3</ele>
        <time>2023-05-03T12:12:11Z</time>
      </trkpt>
      <trkpt lat="49.88305" lon="2.01657">
        <ele>50.3</ele>
        <time>2023-05-03T12:12:12Z</time>
      </trkpt>
      <trkpt lat="49.88305" lon="2.01657">
        <ele>50.3</ele>
        <time>2023-05-03T12:12:13Z</time>
      </trkpt>
      <trkpt lat="49.88305" lon="2.01657">
        <ele>50.3</ele>
        <time>2023-05-03T12:12:14Z</time>
      </trkpt>
      <trkpt lat="49.88305" lon="2.01657">
        <ele>50.3</ele>
        <time>2023-05-03T12:12:15Z</time>
      </trkpt>
      <trkpt lat="49.88305" lon="2.01657">
        <ele>50.3</ele>
        <time>2023-05-03T12:12:16Z</time>
      </trkpt>
      <trkpt lat="49.88305" lon="2.01657">
        <ele>50.3</ele>
        <time>2023-05-03T12:12:17Z</time>
      </trkpt>
      <trkpt lat="49.88305" lon="2.01657">
        <ele>50.3</ele>
        <time>2023-05-03T12:12:18Z</time>
      </trkpt>
      <trkpt lat="49.88305" lon="2.01657">
        <ele>50.3</ele>
        <time>2023-05-03T12:12:19Z</time>
      </trkpt>
      <trkpt lat="49.88305" lon="2.01657">
        <ele>50.3</ele>
        <time>2023-05-03T12:12:20Z</time>
      </trkpt>
      <trkpt lat="49.88305" lon="2.01657">
        <ele>50.3</ele>
        <time>2023-05-03T12:12:21Z</time>
      </trkpt>
      <trkpt lat="49.88305" lon="2.01657">
        <ele>50.3</ele>
        <time>2023-05-03T12:12:22Z</time>
      </trkpt>
      <trkpt lat="49.88305" lon="2.01657">
        <ele>50.3</ele>
        <time>2023-05-03T12:12:23Z</time>
      </trkpt>
      <trkpt lat="49.88305" lon="2.01657">
        <ele>50.3</ele>
        <time>2023-05-03T12:12:24Z</time>
      </trkpt>
      <trkpt lat="49.88305" lon="2.01657">
        <ele>50.3</ele>
        <time>2023-05-03T12:12:25Z</time>
      </trkpt>
      <trkpt lat="49.88305" lon="2.01657">
        <ele>50.3</ele>
        <time>2023-05-03T12:12:26Z</time>
      </trkpt>
      <trkpt lat="49.88305" lon="2.01657">
        <ele>50.3</ele>
        <time>2023-05-03T12:12:27Z</time>
      </trkpt>
      <trkpt lat="49.88305" lon="2.01657">
        <ele>50.3</ele>
        <time>2023-05-03T12:12:28Z</time>
      </trkpt>
      <trkpt lat="49.88305" lon="2.01657">
        <ele>50.3</ele>
        <time>2023-05-03T12:12:29Z</time>
      </trkpt>
      <trkpt lat="49.88305" lon="2.01657">
        <ele>50.3</ele>
        <time>2023-05-03T12:12:30Z</time>
      </trkpt>
      <trkpt lat="49.88305" lon="2.01657">
        <ele>50.3</ele>
        <time>2023-05-03T12:12:31Z</time>
      </trkpt>
      <trkpt lat="49.88305" lon="2.01657">
        <ele>50.3</ele>
        <time>2023-05-03T12:12:32Z</time>
      </trkpt>
      <trkpt lat="49.88305" lon="2.01657">
        <ele>50.3</ele>
        <time>2023-05-03T12:12:33Z</time>
      </trkpt>
      <trkpt lat="49.88305" lon="2.01657">
        <ele>50.3</ele>
        <time>2023-05-03T12:12:34Z</time>
      </trkpt>
      <trkpt lat="49.88305" lon="2.01657">
        <ele>50.3</ele>
        <time>2023-05-03T12:12:35Z</time>
      </trkpt>
      <trkpt lat="49.88305" lon="2.01657">
        <ele>50.3</ele>
        <time>2023-05-03T12:12:36Z</time>
      </trkpt>
      <trkpt lat="49.88305" lon="2.01657">
        <ele>50.3</ele>
        <time>2023-05-03T12:12:37Z</time>
      </trkpt>
      <trkpt lat="49.88305" lon="2.01657">
        <ele>50.3</ele>
        <time>2023-05-03T12:12:38Z</time>
      </trkpt>
      <trkpt lat="49.88305" lon="2.01657">
        <ele>50.3</ele>
        <time>2023-05-03T12:12:39Z</time>
      </trkpt>
      <trkpt lat="49.88305" lon="2.01657">
        <ele>50.3</ele>
        <time>2023-05-03T12:12:40Z</time>
      </trkpt>
      <trkpt lat="49.88305" lon="2.01657">
        <ele>50.3</ele>
        <time>2023-05-03T12:12:41Z</time>
      </trkpt>
      <trkpt lat="49.88305" lon="2.01657">
        <ele>50.3</ele>
        <time>2023-05-03T12:12:42Z</time>
      </trkpt>
      <trkpt lat="49.88305" lon="2.01657">
        <ele>50.3</ele>
        <time>2023-05-03T12:12:43Z</time>
      </trkpt>
      <trkpt lat="49.88305" lon="2.01657">
        <ele>50.3</ele>
        <time>2023-05-03T12:12:44Z</time>
      </trkpt>
      <trkpt lat="49.88305" lon="2.01657">
        <ele>50.3</ele>
        <time>2023-05-03T12:12:45Z</time>
      </trkpt>
      <trkpt lat="49.88305" lon="2.01657">
        <ele>50.3</ele>
        <time>2023-05-03T12:12:46Z</time>
      </trkpt>
      <trkpt lat="49.88305" lon="2.01657">
        <ele>50.3</ele>
        <time>2023-05-03T12:12:47Z</time>
      </trkpt>
      <trkpt lat="49.88305" lon="2.01657">
        <ele>50.3</ele>
        <time>2023-05-03T12:12:48Z</time>
      </trkpt>
      <trkpt lat="49.88305" lon="2.01657">
        <ele>50.3</ele>
        <time>2023-05-03T12:12:49Z</time>
      </trkpt>
      <trkpt lat="49.88305" lon="2.01657">
        <ele>50.3</ele>
        <time>2023-05-03T12:12:50Z</time>
      </trkpt>
      <trkpt lat="49.88305" lon="2.01657">
        <ele>50.3</ele>
        <time>2023-05-03T12:12:51Z</time>
      </trkpt>
      <trkpt lat="49.88306" lon="2.01658">
        <ele>50.3</ele>
        <time>2023-05-03T12:12:52Z</time>
      </trkpt>
      <trkpt lat="49.88307" lon="2.01659">
        <ele>50.3</ele>
        <time>2023-05-03T12:12:53Z</time>
      </trkpt>
      <trkpt lat="49.88307" lon="2.01658">
        <ele>50.3</ele>
        <time>2023-05-03T12:12:54Z</time>
      </trkpt>
      <trkpt lat="49.88307" lon="2.01657">
        <ele>50.3</ele>
        <time>2023-05-03T12:12:55Z</time>
      </trkpt>
      <trkpt lat="49.88308" lon="2.01656">
        <ele>50.3</ele>
        <time>2023-05-03T12:12:57Z</time>
      </trkpt>
      <trkpt lat="49.88308" lon="2.01654">
        <ele>50.3</ele>
        <time>2023-05-03T12:12:58Z</time>
      </trkpt>
      <trkpt lat="49.88308" lon="2.01653">
        <ele>50.3</ele>
        <time>2023-05-03T12:12:59Z</time>
      </trkpt>
      <trkpt lat="49.88309" lon="2.01651">
        <ele>50.3</ele>
        <time>2023-05-03T12:13:00Z</time>
      </trkpt>
      <trkpt lat="49.88309" lon="2.01649">
        <ele>50.3</ele>
        <time>2023-05-03T12:13:01Z</time>
      </trkpt>
      <trkpt lat="49.8831" lon="2.01647">
        <ele>50.3</ele>
        <time>2023-05-03T12:13:02Z</time>
      </trkpt>
      <trkpt lat="49.8831" lon="2.01644">
        <ele>50.4</ele>
        <time>2023-05-03T12:13:04Z</time>
      </trkpt>
      <trkpt lat="49.8831" lon="2.01642">
        <ele>50.4</ele>
        <time>2023-05-03T12:13:05Z</time>
      </trkpt>
      <trkpt lat="49.8831" lon="2.01639">
        <ele>50.4</ele>
        <time>2023-05-03T12:13:06Z</time>
      </trkpt>
      <trkpt lat="49.8831" lon="2.01636">
        <ele>50.4</ele>
        <time>2023-05-03T12:13:08Z</time>
      </trkpt>
      <trkpt lat="49.88311" lon="2.01634">
        <ele>50.4</ele>
        <time>2023-05-03T12:13:09Z</time>
      </trkpt>
      <trkpt lat="49.88311" lon="2.01633">
        <ele>50.4</ele>
        <time>2023-05-03T12:13:10Z</time>
      </trkpt>
      <trkpt lat="49.88311" lon="2.01631">
        <ele>50.4</ele>
        <time>2023-05-03T12:13:11Z</time>
      </trkpt>
      <trkpt lat="49.8831" lon="2.0163">
        <ele>50.4</ele>
        <time>2023-05-03T12:13:12Z</time>
      </trkpt>
      <trkpt lat="49.8831" lon="2.01629">
        <ele>50.4</ele>
        <time>2023-05-03T12:13:13Z</time>
      </trkpt>
      <trkpt lat="49.8831" lon="2.01627">
        <ele>50.4</ele>
        <time>2023-05-03T12:13:14Z</time>
      </trkpt>
      <trkpt lat="49.88309" lon="2.01627">
        <ele>50.4</ele>
        <time>2023-05-03T12:13:15Z</time>
      </trkpt>
      <trkpt lat="49.88309" lon="2.01625">
        <ele>50.4</ele>
        <time>2023-05-03T12:13:16Z</time>
      </trkpt>
      <trkpt lat="49.88309" lon="2.01624">
        <ele>50.5</ele>
        <time>2023-05-03T12:13:17Z</time>
      </trkpt>
      <trkpt lat="49.88308" lon="2.01623">
        <ele>50.5</ele>
        <time>2023-05-03T12:13:18Z</time>
      </trkpt>
      <trkpt lat="49.88308" lon="2.01622">
        <ele>50.5</ele>
        <time>2023-05-03T12:13:19Z</time>
      </trkpt>
      <trkpt lat="49.88307" lon="2.01621">
        <ele>50.5</ele>
        <time>2023-05-03T12:13:21Z</time>
      </trkpt>
      <trkpt lat="49.88307" lon="2.0162">
        <ele>50.5</ele>
        <time>2023-05-03T12:13:22Z</time>
      </trkpt>
      <trkpt lat="49.88307" lon="2.01618">
        <ele>50.5</ele>
        <time>2023-05-03T12:13:23Z</time>
      </trkpt>
      <trkpt lat="49.88306" lon="2.01617">
        <ele>50.5</ele>
        <time>2023-05-03T12:13:24Z</time>
      </trkpt>
      <trkpt lat="49.88306" lon="2.01615">
        <ele>50.5</ele>
        <time>2023-05-03T12:13:25Z</time>
      </trkpt>
      <trkpt lat="49.88306" lon="2.01614">
        <ele>50.5</ele>
        <time>2023-05-03T12:13:26Z</time>
      </trkpt>
      <trkpt lat="49.88305" lon="2.01612">
        <ele>50.5</ele>
        <time>2023-05-03T12:13:27Z</time>
      </trkpt>
      <trkpt lat="49.88305" lon="2.0161">
        <ele>50.5</ele>
        <time>2023-05-03T12:13:28Z</time>
      </trkpt>
      <trkpt lat="49.88305" lon="2.01609">
        <ele>50.5</ele>
        <time>2023-05-03T12:13:30Z</time>
      </trkpt>
      <trkpt lat="49.88304" lon="2.01607">
        <ele>50.5</ele>
        <time>2023-05-03T12:13:31Z</time>
      </trkpt>
      <trkpt lat="49.88304" lon="2.01606">
        <ele>50.5</ele>
        <time>2023-05-03T12:13:32Z</time>
      </trkpt>
      <trkpt lat="49.88303" lon="2.01604">
        <ele>50.6</ele>
        <time>2023-05-03T12:13:33Z</time>
      </trkpt>
      <trkpt lat="49.88303" lon="2.01603">
        <ele>50.6</ele>
        <time>2023-05-03T12:13:34Z</time>
      </trkpt>
      <trkpt lat="49.88302" lon="2.01601">
        <ele>50.6</ele>
        <time>2023-05-03T12:13:35Z</time>
      </trkpt>
      <trkpt lat="49.88302" lon="2.016">
        <ele>50.6</ele>
        <time>2023-05-03T12:13:37Z</time>
      </trkpt>
      <trkpt lat="49.88302" lon="2.01599">
        <ele>50.6</ele>
        <time>2023-05-03T12:13:38Z</time>
      </trkpt>
      <trkpt lat="49.88301" lon="2.01597">
        <ele>50.6</ele>
        <time>2023-05-03T12:13:39Z</time>
      </trkpt>
      <trkpt lat="49.88301" lon="2.01596">
        <ele>50.6</ele>
        <time>2023-05-03T12:13:40Z</time>
      </trkpt>
      <trkpt lat="49.88301" lon="2.01595">
        <ele>50.6</ele>
        <time>2023-05-03T12:13:41Z</time>
      </trkpt>
      <trkpt lat="49.883" lon="2.01594">
        <ele>50.6</ele>
        <time>2023-05-03T12:13:42Z</time>
      </trkpt>
      <trkpt lat="49.883" lon="2.01592">
        <ele>50.6</ele>
        <time>2023-05-03T12:13:43Z</time>
      </trkpt>
      <trkpt lat="49.883" lon="2.01591">
        <ele>50.6</ele>
        <time>2023-05-03T12:13:45Z</time>
      </trkpt>
      <trkpt lat="49.88299" lon="2.01589">
        <ele>50.6</ele>
        <time>2023-05-03T12:13:46Z</time>
      </trkpt>
      <trkpt lat="49.88299" lon="2.01587">
        <ele>50.6</ele>
        <time>2023-05-03T12:13:47Z</time>
      </trkpt>
      <trkpt lat="49.88299" lon="2.01584">
        <ele>50.7</ele>
        <time>2023-05-03T12:13:48Z</time>
      </trkpt>
      <trkpt lat="49.88298" lon="2.01583">
        <ele>50.7</ele>
        <time>2023-05-03T12:13:49Z</time>
      </trkpt>
      <trkpt lat="49.88298" lon="2.01582">
        <ele>50.7</ele>
        <time>2023-05-03T12:13:50Z</time>
      </trkpt>
      <trkpt lat="49.88298" lon="2.0158">
        <ele>50.7</ele>
        <time>2023-05-03T12:13:51Z</time>
      </trkpt>
      <trkpt lat="49.88297" lon="2.01578">
        <ele>50.7</ele>
        <time>2023-05-03T12:13:52Z</time>
      </trkpt>
      <trkpt lat="49.88297" lon="2.01576">
        <ele>50.7</ele>
        <time>2023-05-03T12:13:54Z</time>
      </trkpt>
      <trkpt lat="49.88296" lon="2.01573">
        <ele>50.7</ele>
        <time>2023-05-03T12:13:55Z</time>
      </trkpt>
      <trkpt lat="49.88296" lon="2.01572">
        <ele>50.7</ele>
        <time>2023-05-03T12:13:56Z</time>
      </trkpt>
      <trkpt lat="49.88296" lon="2.01571">
        <ele>50.7</ele>
        <time>2023-05-03T12:13:57Z</time>
      </trkpt>
      <trkpt lat="49.88296" lon="2.01568">
        <ele>50.7</ele>
        <time>2023-05-03T12:13:58Z</time>
      </trkpt>
      <trkpt lat="49.88296" lon="2.01566">
        <ele>50.7</ele>
        <time>2023-05-03T12:13:59Z</time>
      </trkpt>
      <trkpt lat="49.88296" lon="2.01564">
        <ele>50.8</ele>
        <time>2023-05-03T12:14:00Z</time>
      </trkpt>
      <trkpt lat="49.88295" lon="2.01562">
        <ele>50.8</ele>
        <time>2023-05-03T12:14:01Z</time>
      </trkpt>
      <trkpt lat="49.88295" lon="2.0156">
        <ele>50.8</ele>
        <time>2023-05-03T12:14:02Z</time>
      </trkpt>
      <trkpt lat="49.88295" lon="2.01558">
        <ele>50.8</ele>
        <time>2023-05-03T12:14:03Z</time>
      </trkpt>
      <trkpt lat="49.88295" lon="2.01555">
        <ele>50.8</ele>
        <time>2023-05-03T12:14:04Z</time>
      </trkpt>
      <trkpt lat="49.88294" lon="2.01553">
        <ele>50.8</ele>
        <time>2023-05-03T12:14:06Z</time>
      </trkpt>
      <trkpt lat="49.88294" lon="2.01551">
        <ele>50.8</ele>
        <time>2023-05-03T12:14:07Z</time>
      </trkpt>
      <trkpt lat="49.88294" lon="2.01549">
        <ele>50.8</ele>
        <time>2023-05-03T12:14:08Z</time>
      </trkpt>
      <trkpt lat="49.88293" lon="2.01546">
        <ele>50.8</ele>
        <time>2023-05-03T12:14:09Z</time>
      </trkpt>
      <trkpt lat="49.88293" lon="2.01544">
        <ele>50.9</ele>
        <time>2023-05-03T12:14:10Z</time>
      </trkpt>
      <trkpt lat="49.88292" lon="2.01542">
        <ele>50.9</ele>
        <time>2023-05-03T12:14:11Z</time>
      </trkpt>
      <trkpt lat="49.88292" lon="2.0154">
        <ele>50.9</ele>
        <time>2023-05-03T12:14:12Z</time>
      </trkpt>
      <trkpt lat="49.88291" lon="2.01537">
        <ele>50.9</ele>
        <time>2023-05-03T12:14:13Z</time>
      </trkpt>
      <trkpt lat="49.8829" lon="2.01534">
        <ele>50.9</ele>
        <time>2023-05-03T12:14:15Z</time>
      </trkpt>
      <trkpt lat="49.8829" lon="2.01532">
        <ele>50.9</ele>
        <time>2023-05-03T12:14:16Z</time>
      </trkpt>
      <trkpt lat="49.88289" lon="2.0153">
        <ele>51</ele>
        <time>2023-05-03T12:14:17Z</time>
      </trkpt>
      <trkpt lat="49.88289" lon="2.01528">
        <ele>51</ele>
        <time>2023-05-03T12:14:18Z</time>
      </trkpt>
      <trkpt lat="49.88288" lon="2.01526">
        <ele>51</ele>
        <time>2023-05-03T12:14:19Z</time>
      </trkpt>
      <trkpt lat="49.88288" lon="2.01523">
        <ele>51</ele>
        <time>2023-05-03T12:14:21Z</time>
      </trkpt>
      <trkpt lat="49.88287" lon="2.01521">
        <ele>51</ele>
        <time>2023-05-03T12:14:22Z</time>
      </trkpt>
      <trkpt lat="49.88287" lon="2.01519">
        <ele>51</ele>
        <time>2023-05-03T12:14:23Z</time>
      </trkpt>
      <trkpt lat="49.88287" lon="2.01516">
        <ele>51.1</ele>
        <time>2023-05-03T12:14:24Z</time>
      </trkpt>
      <trkpt lat="49.88286" lon="2.01513">
        <ele>51.1</ele>
        <time>2023-05-03T12:14:25Z</time>
      </trkpt>
      <trkpt lat="49.88286" lon="2.01512">
        <ele>51.1</ele>
        <time>2023-05-03T12:14:27Z</time>
      </trkpt>
      <trkpt lat="49.88286" lon="2.01511">
        <ele>51.1</ele>
        <time>2023-05-03T12:14:28Z</time>
      </trkpt>
      <trkpt lat="49.88285" lon="2.01508">
        <ele>51.1</ele>
        <time>2023-05-03T12:14:29Z</time>
      </trkpt>
      <trkpt lat="49.88285" lon="2.01506">
        <ele>51.1</ele>
        <time>2023-05-03T12:14:30Z</time>
      </trkpt>
      <trkpt lat="49.88285" lon="2.01505">
        <ele>51.2</ele>
        <time>2023-05-03T12:14:31Z</time>
      </trkpt>
      <trkpt lat="49.88284" lon="2.01503">
        <ele>51.2</ele>
        <time>2023-05-03T12:14:32Z</time>
      </trkpt>
      <trkpt lat="49.88284" lon="2.01501">
        <ele>51.2</ele>
        <time>2023-05-03T12:14:33Z</time>
      </trkpt>
      <trkpt lat="49.88283" lon="2.01499">
        <ele>51.2</ele>
        <time>2023-05-03T12:14:35Z</time>
      </trkpt>
      <trkpt lat="49.88283" lon="2.01497">
        <ele>51.2</ele>
        <time>2023-05-03T12:14:36Z</time>
      </trkpt>
      <trkpt lat="49.88282" lon="2.01494">
        <ele>51.3</ele>
        <time>2023-05-03T12:14:37Z</time>
      </trkpt>
      <trkpt lat="49.88282" lon="2.01492">
        <ele>51.3</ele>
        <time>2023-05-03T12:14:38Z</time>
      </trkpt>
      <trkpt lat="49.88282" lon="2.01491">
        <ele>51.3</ele>
        <time>2023-05-03T12:14:39Z</time>
      </trkpt>
      <trkpt lat="49.88281" lon="2.01488">
        <ele>51.3</ele>
        <time>2023-05-03T12:14:40Z</time>
      </trkpt>
      <trkpt lat="49.8828" lon="2.01487">
        <ele>51.3</ele>
        <time>2023-05-03T12:14:41Z</time>
      </trkpt>
      <trkpt lat="49.8828" lon="2.01485">
        <ele>51.3</ele>
        <time>2023-05-03T12:14:42Z</time>
      </trkpt>
      <trkpt lat="49.88279" lon="2.01483">
        <ele>51.3</ele>
        <time>2023-05-03T12:14:43Z</time>
      </trkpt>
      <trkpt lat="49.88279" lon="2.01481">
        <ele>51.4</ele>
        <time>2023-05-03T12:14:45Z</time>
      </trkpt>
      <trkpt lat="49.88278" lon="2.0148">
        <ele>51.4</ele>
        <time>2023-05-03T12:14:46Z</time>
      </trkpt>
      <trkpt lat="49.88277" lon="2.01478">
        <ele>51.4</ele>
        <time>2023-05-03T12:14:47Z</time>
      </trkpt>
      <trkpt lat="49.88277" lon="2.01476">
        <ele>51.4</ele>
        <time>2023-05-03T12:14:48Z</time>
      </trkpt>
      <trkpt lat="49.88276" lon="2.01474">
        <ele>51.5</ele>
        <time>2023-05-03T12:14:49Z</time>
      </trkpt>
      <trkpt lat="49.88275" lon="2.01471">
        <ele>51.5</ele>
        <time>2023-05-03T12:14:50Z</time>
      </trkpt>
      <trkpt lat="49.88275" lon="2.01469">
        <ele>51.5</ele>
        <time>2023-05-03T12:14:51Z</time>
      </trkpt>
      <trkpt lat="49.88274" lon="2.01468">
        <ele>51.5</ele>
        <time>2023-05-03T12:14:52Z</time>
      </trkpt>
      <trkpt lat="49.88274" lon="2.01466">
        <ele>51.5</ele>
        <time>2023-05-03T12:14:53Z</time>
      </trkpt>
      <trkpt lat="49.88273" lon="2.01464">
        <ele>51.6</ele>
        <time>2023-05-03T12:14:54Z</time>
      </trkpt>
      <trkpt lat="49.88272" lon="2.01462">
        <ele>51.6</ele>
        <time>2023-05-03T12:14:56Z</time>
      </trkpt>
      <trkpt lat="49.88271" lon="2.0146">
        <ele>51.6</ele>
        <time>2023-05-03T12:14:57Z</time>
      </trkpt>
      <trkpt lat="49.88271" lon="2.01459">
        <ele>51.6</ele>
        <time>2023-05-03T12:14:58Z</time>
      </trkpt>
      <trkpt lat="49.8827" lon="2.01457">
        <ele>51.7</ele>
        <time>2023-05-03T12:14:59Z</time>
      </trkpt>
      <trkpt lat="49.88269" lon="2.01456">
        <ele>51.7</ele>
        <time>2023-05-03T12:15:00Z</time>
      </trkpt>
      <trkpt lat="49.88269" lon="2.01454">
        <ele>51.7</ele>
        <time>2023-05-03T12:15:01Z</time>
      </trkpt>
      <trkpt lat="49.88268" lon="2.01452">
        <ele>51.7</ele>
        <time>2023-05-03T12:15:02Z</time>
      </trkpt>
      <trkpt lat="49.88267" lon="2.01451">
        <ele>51.7</ele>
        <time>2023-05-03T12:15:04Z</time>
      </trkpt>
      <trkpt lat="49.88267" lon="2.01449">
        <ele>51.7</ele>
        <time>2023-05-03T12:15:05Z</time>
      </trkpt>
      <trkpt lat="49.88267" lon="2.01448">
        <ele>51.7</ele>
        <time>2023-05-03T12:15:06Z</time>
      </trkpt>
      <trkpt lat="49.88266" lon="2.01447">
        <ele>51.8</ele>
        <time>2023-05-03T12:15:07Z</time>
      </trkpt>
      <trkpt lat="49.88265" lon="2.01446">
        <ele>51.8</ele>
        <time>2023-05-03T12:15:08Z</time>
      </trkpt>
      <trkpt lat="49.88264" lon="2.01445">
        <ele>51.8</ele>
        <time>2023-05-03T12:15:09Z</time>
      </trkpt>
      <trkpt lat="49.88263" lon="2.01444">
        <ele>51.8</ele>
        <time>2023-05-03T12:15:10Z</time>
      </trkpt>
      <trkpt lat="49.88263" lon="2.01442">
        <ele>51.8</ele>
        <time>2023-05-03T12:15:12Z</time>
      </trkpt>
      <trkpt lat="49.88262" lon="2.01441">
        <ele>51.8</ele>
        <time>2023-05-03T12:15:13Z</time>
      </trkpt>
      <trkpt lat="49.88261" lon="2.0144">
        <ele>51.8</ele>
        <time>2023-05-03T12:15:14Z</time>
      </trkpt>
      <trkpt lat="49.88261" lon="2.01438">
        <ele>51.8</ele>
        <time>2023-05-03T12:15:15Z</time>
      </trkpt>
      <trkpt lat="49.8826" lon="2.01435">
        <ele>51.9</ele>
        <time>2023-05-03T12:15:16Z</time>
      </trkpt>
      <trkpt lat="49.8826" lon="2.01434">
        <ele>51.9</ele>
        <time>2023-05-03T12:15:17Z</time>
      </trkpt>
      <trkpt lat="49.88259" lon="2.01432">
        <ele>51.9</ele>
        <time>2023-05-03T12:15:18Z</time>
      </trkpt>
      <trkpt lat="49.88258" lon="2.0143">
        <ele>51.9</ele>
        <time>2023-05-03T12:15:20Z</time>
      </trkpt>
      <trkpt lat="49.88258" lon="2.01428">
        <ele>51.9</ele>
        <time>2023-05-03T12:15:21Z</time>
      </trkpt>
      <trkpt lat="49.88258" lon="2.01427">
        <ele>51.9</ele>
        <time>2023-05-03T12:15:22Z</time>
      </trkpt>
      <trkpt lat="49.88257" lon="2.01425">
        <ele>52</ele>
        <time>2023-05-03T12:15:23Z</time>
      </trkpt>
      <trkpt lat="49.88256" lon="2.01424">
        <ele>52</ele>
        <time>2023-05-03T12:15:24Z</time>
      </trkpt>
      <trkpt lat="49.88255" lon="2.0142">
        <ele>52</ele>
        <time>2023-05-03T12:15:25Z</time>
      </trkpt>
      <trkpt lat="49.88255" lon="2.01419">
        <ele>52</ele>
        <time>2023-05-03T12:15:26Z</time>
      </trkpt>
      <trkpt lat="49.88255" lon="2.01418">
        <ele>52</ele>
        <time>2023-05-03T12:15:27Z</time>
      </trkpt>
      <trkpt lat="49.88254" lon="2.01415">
        <ele>52.1</ele>
        <time>2023-05-03T12:15:29Z</time>
      </trkpt>
      <trkpt lat="49.88254" lon="2.01414">
        <ele>52.1</ele>
        <time>2023-05-03T12:15:30Z</time>
      </trkpt>
      <trkpt lat="49.88254" lon="2.01412">
        <ele>52.1</ele>
        <time>2023-05-03T12:15:31Z</time>
      </trkpt>
      <trkpt lat="49.88253" lon="2.01409">
        <ele>52.1</ele>
        <time>2023-05-03T12:15:32Z</time>
      </trkpt>
      <trkpt lat="49.88253" lon="2.01408">
        <ele>52.1</ele>
        <time>2023-05-03T12:15:33Z</time>
      </trkpt>
      <trkpt lat="49.88253" lon="2.01406">
        <ele>52.1</ele>
        <time>2023-05-03T12:15:34Z</time>
      </trkpt>
      <trkpt lat="49.88252" lon="2.01403">
        <ele>52.2</ele>
        <time>2023-05-03T12:15:36Z</time>
      </trkpt>
      <trkpt lat="49.88252" lon="2.01402">
        <ele>52.2</ele>
        <time>2023-05-03T12:15:37Z</time>
      </trkpt>
      <trkpt lat="49.88252" lon="2.01401">
        <ele>52.2</ele>
        <time>2023-05-03T12:15:38Z</time>
      </trkpt>
      <trkpt lat="49.88252" lon="2.01397">
        <ele>52.2</ele>
        <time>2023-05-03T12:15:39Z</time>
      </trkpt>
      <trkpt lat="49.88251" lon="2.01396">
        <ele>52.2</ele>
        <time>2023-05-03T12:15:40Z</time>
      </trkpt>
      <trkpt lat="49.88251" lon="2.01395">
        <ele>52.3</ele>
        <time>2023-05-03T12:15:41Z</time>
      </trkpt>
      <trkpt lat="49.8825" lon="2.01391">
        <ele>52.3</ele>
        <time>2023-05-03T12:15:42Z</time>
      </trkpt>
      <trkpt lat="49.8825" lon="2.0139">
        <ele>52.3</ele>
        <time>2023-05-03T12:15:43Z</time>
      </trkpt>
      <trkpt lat="49.8825" lon="2.01389">
        <ele>52.3</ele>
        <time>2023-05-03T12:15:44Z</time>
      </trkpt>
      <trkpt lat="49.8825" lon="2.01387">
        <ele>52.3</ele>
        <time>2023-05-03T12:15:46Z</time>
      </trkpt>
      <trkpt lat="49.88249" lon="2.01386">
        <ele>52.3</ele>
        <time>2023-05-03T12:15:47Z</time>
      </trkpt>
      <trkpt lat="49.88249" lon="2.01384">
        <ele>52.4</ele>
        <time>2023-05-03T12:15:48Z</time>
      </trkpt>
      <trkpt lat="49.88249" lon="2.01382">
        <ele>52.4</ele>
        <time>2023-05-03T12:15:49Z</time>
      </trkpt>
      <trkpt lat="49.88249" lon="2.0138">
        <ele>52.4</ele>
        <time>2023-05-03T12:15:50Z</time>
      </trkpt>
      <trkpt lat="49.88249" lon="2.01378">
        <ele>52.4</ele>
        <time>2023-05-03T12:15:51Z</time>
      </trkpt>
      <trkpt lat="49.88248" lon="2.01377">
        <ele>52.4</ele>
        <time>2023-05-03T12:15:52Z</time>
      </trkpt>
      <trkpt lat="49.88248" lon="2.01375">
        <ele>52.5</ele>
        <time>2023-05-03T12:15:53Z</time>
      </trkpt>
      <trkpt lat="49.88248" lon="2.01373">
        <ele>52.5</ele>
        <time>2023-05-03T12:15:55Z</time>
      </trkpt>
      <trkpt lat="49.88248" lon="2.01371">
        <ele>52.5</ele>
        <time>2023-05-03T12:15:56Z</time>
      </trkpt>
      <trkpt lat="49.88247" lon="2.01369">
        <ele>52.5</ele>
        <time>2023-05-03T12:15:57Z</time>
      </trkpt>
      <trkpt lat="49.88247" lon="2.01367">
        <ele>52.5</ele>
        <time>2023-05-03T12:15:58Z</time>
      </trkpt>
      <trkpt lat="49.88247" lon="2.01366">
        <ele>52.5</ele>
        <time>2023-05-03T12:15:59Z</time>
      </trkpt>
      <trkpt lat="49.88247" lon="2.01364">
        <ele>52.6</ele>
        <time>2023-05-03T12:16:01Z</time>
      </trkpt>
      <trkpt lat="49.88248" lon="2.01363">
        <ele>52.6</ele>
        <time>2023-05-03T12:16:02Z</time>
      </trkpt>
      <trkpt lat="49.88247" lon="2.01361">
        <ele>52.6</ele>
        <time>2023-05-03T12:16:03Z</time>
      </trkpt>
      <trkpt lat="49.88247" lon="2.0136">
        <ele>52.6</ele>
        <time>2023-05-03T12:16:04Z</time>
      </trkpt>
      <trkpt lat="49.88247" lon="2.01359">
        <ele>52.6</ele>
        <time>2023-05-03T12:16:05Z</time>
      </trkpt>
      <trkpt lat="49.88247" lon="2.01357">
        <ele>52.6</ele>
        <time>2023-05-03T12:16:06Z</time>
      </trkpt>
      <trkpt lat="49.88246" lon="2.01354">
        <ele>52.7</ele>
        <time>2023-05-03T12:16:08Z</time>
      </trkpt>
      <trkpt lat="49.88245" lon="2.01353">
        <ele>52.7</ele>
        <time>2023-05-03T12:16:09Z</time>
      </trkpt>
      <trkpt lat="49.88245" lon="2.01352">
        <ele>52.7</ele>
        <time>2023-05-03T12:16:10Z</time>
      </trkpt>
      <trkpt lat="49.88244" lon="2.01351">
        <ele>52.7</ele>
        <time>2023-05-03T12:16:11Z</time>
      </trkpt>
      <trkpt lat="49.88244" lon="2.01349">
        <ele>52.7</ele>
        <time>2023-05-03T12:16:12Z</time>
      </trkpt>
      <trkpt lat="49.88243" lon="2.01347">
        <ele>52.7</ele>
        <time>2023-05-03T12:16:13Z</time>
      </trkpt>
      <trkpt lat="49.88242" lon="2.01345">
        <ele>52.8</ele>
        <time>2023-05-03T12:16:15Z</time>
      </trkpt>
      <trkpt lat="49.88241" lon="2.01343">
        <ele>52.8</ele>
        <time>2023-05-03T12:16:16Z</time>
      </trkpt>
      <trkpt lat="49.88241" lon="2.01341">
        <ele>52.8</ele>
        <time>2023-05-03T12:16:17Z</time>
      </trkpt>
      <trkpt lat="49.8824" lon="2.01339">
        <ele>52.8</ele>
        <time>2023-05-03T12:16:18Z</time>
      </trkpt>
      <trkpt lat="49.8824" lon="2.01337">
        <ele>52.8</ele>
        <time>2023-05-03T12:16:19Z</time>
      </trkpt>
      <trkpt lat="49.88239" lon="2.01334">
        <ele>52.9</ele>
        <time>2023-05-03T12:16:20Z</time>
      </trkpt>
      <trkpt lat="49.88238" lon="2.01333">
        <ele>52.9</ele>
        <time>2023-05-03T12:16:21Z</time>
      </trkpt>
      <trkpt lat="49.88238" lon="2.01331">
        <ele>52.9</ele>
        <time>2023-05-03T12:16:22Z</time>
      </trkpt>
      <trkpt lat="49.88237" lon="2.0133">
        <ele>52.9</ele>
        <time>2023-05-03T12:16:23Z</time>
      </trkpt>
      <trkpt lat="49.88237" lon="2.01328">
        <ele>52.9</ele>
        <time>2023-05-03T12:16:24Z</time>
      </trkpt>
      <trkpt lat="49.88236" lon="2.01326">
        <ele>52.9</ele>
        <time>2023-05-03T12:16:26Z</time>
      </trkpt>
      <trkpt lat="49.88235" lon="2.01324">
        <ele>53</ele>
        <time>2023-05-03T12:16:27Z</time>
      </trkpt>
      <trkpt lat="49.88235" lon="2.01322">
        <ele>53</ele>
        <time>2023-05-03T12:16:28Z</time>
      </trkpt>
      <trkpt lat="49.88234" lon="2.0132">
        <ele>53</ele>
        <time>2023-05-03T12:16:29Z</time>
      </trkpt>
      <trkpt lat="49.88234" lon="2.01317">
        <ele>53</ele>
        <time>2023-05-03T12:16:30Z</time>
      </trkpt>
      <trkpt lat="49.88233" lon="2.01316">
        <ele>53</ele>
        <time>2023-05-03T12:16:31Z</time>
      </trkpt>
      <trkpt lat="49.88233" lon="2.01314">
        <ele>53.1</ele>
        <time>2023-05-03T12:16:32Z</time>
      </trkpt>
      <trkpt lat="49.88232" lon="2.01311">
        <ele>53.1</ele>
        <time>2023-05-03T12:16:33Z</time>
      </trkpt>
      <trkpt lat="49.88232" lon="2.0131">
        <ele>53.1</ele>
        <time>2023-05-03T12:16:35Z</time>
      </trkpt>
      <trkpt lat="49.88232" lon="2.01309">
        <ele>53.1</ele>
        <time>2023-05-03T12:16:36Z</time>
      </trkpt>
      <trkpt lat="49.88231" lon="2.01306">
        <ele>53.1</ele>
        <time>2023-05-03T12:16:37Z</time>
      </trkpt>
      <trkpt lat="49.88231" lon="2.01305">
        <ele>53.1</ele>
        <time>2023-05-03T12:16:38Z</time>
      </trkpt>
      <trkpt lat="49.8823" lon="2.01304">
        <ele>53.1</ele>
        <time>2023-05-03T12:16:39Z</time>
      </trkpt>
      <trkpt lat="49.88229" lon="2.01301">
        <ele>53.2</ele>
        <time>2023-05-03T12:16:40Z</time>
      </trkpt>
      <trkpt lat="49.88229" lon="2.013">
        <ele>53.2</ele>
        <time>2023-05-03T12:16:41Z</time>
      </trkpt>
      <trkpt lat="49.88229" lon="2.01298">
        <ele>53.2</ele>
        <time>2023-05-03T12:16:42Z</time>
      </trkpt>
      <trkpt lat="49.88228" lon="2.01295">
        <ele>53.2</ele>
        <time>2023-05-03T12:16:43Z</time>
      </trkpt>
      <trkpt lat="49.88227" lon="2.01294">
        <ele>53.2</ele>
        <time>2023-05-03T12:16:44Z</time>
      </trkpt>
      <trkpt lat="49.88227" lon="2.01293">
        <ele>53.3</ele>
        <time>2023-05-03T12:16:45Z</time>
      </trkpt>
      <trkpt lat="49.88227" lon="2.01291">
        <ele>53.3</ele>
        <time>2023-05-03T12:16:46Z</time>
      </trkpt>
      <trkpt lat="49.88227" lon="2.01288">
        <ele>53.3</ele>
        <time>2023-05-03T12:16:47Z</time>
      </trkpt>
      <trkpt lat="49.88226" lon="2.01285">
        <ele>53.3</ele>
        <time>2023-05-03T12:16:49Z</time>
      </trkpt>
      <trkpt lat="49.88226" lon="2.01284">
        <ele>53.3</ele>
        <time>2023-05-03T12:16:50Z</time>
      </trkpt>
      <trkpt lat="49.88226" lon="2.01283">
        <ele>53.3</ele>
        <time>2023-05-03T12:16:51Z</time>
      </trkpt>
      <trkpt lat="49.88225" lon="2.0128">
        <ele>53.4</ele>
        <time>2023-05-03T12:16:52Z</time>
      </trkpt>
      <trkpt lat="49.88225" lon="2.01279">
        <ele>53.4</ele>
        <time>2023-05-03T12:16:53Z</time>
      </trkpt>
      <trkpt lat="49.88224" lon="2.01277">
        <ele>53.4</ele>
        <time>2023-05-03T12:16:54Z</time>
      </trkpt>
      <trkpt lat="49.88224" lon="2.01275">
        <ele>53.4</ele>
        <time>2023-05-03T12:16:56Z</time>
      </trkpt>
      <trkpt lat="49.88223" lon="2.01273">
        <ele>53.4</ele>
        <time>2023-05-03T12:16:57Z</time>
      </trkpt>
      <trkpt lat="49.88223" lon="2.0127">
        <ele>53.5</ele>
        <time>2023-05-03T12:16:58Z</time>
      </trkpt>
      <trkpt lat="49.88222" lon="2.01269">
        <ele>53.5</ele>
        <time>2023-05-03T12:16:59Z</time>
      </trkpt>
      <trkpt lat="49.88222" lon="2.01267">
        <ele>53.5</ele>
        <time>2023-05-03T12:17:00Z</time>
      </trkpt>
      <trkpt lat="49.88222" lon="2.01266">
        <ele>53.5</ele>
        <time>2023-05-03T12:17:01Z</time>
      </trkpt>
      <trkpt lat="49.88222" lon="2.01264">
        <ele>53.5</ele>
        <time>2023-05-03T12:17:02Z</time>
      </trkpt>
      <trkpt lat="49.88221" lon="2.01262">
        <ele>53.5</ele>
        <time>2023-05-03T12:17:03Z</time>
      </trkpt>
      <trkpt lat="49.88221" lon="2.0126">
        <ele>53.5</ele>
        <time>2023-05-03T12:17:04Z</time>
      </trkpt>
      <trkpt lat="49.8822" lon="2.01258">
        <ele>53.6</ele>
        <time>2023-05-03T12:17:06Z</time>
      </trkpt>
      <trkpt lat="49.88219" lon="2.01256">
        <ele>53.6</ele>
        <time>2023-05-03T12:17:07Z</time>
      </trkpt>
      <trkpt lat="49.88219" lon="2.01254">
        <ele>53.6</ele>
        <time>2023-05-03T12:17:08Z</time>
      </trkpt>
      <trkpt lat="49.88218" lon="2.01253">
        <ele>53.6</ele>
        <time>2023-05-03T12:17:09Z</time>
      </trkpt>
      <trkpt lat="49.88218" lon="2.01251">
        <ele>53.6</ele>
        <time>2023-05-03T12:17:10Z</time>
      </trkpt>
      <trkpt lat="49.88218" lon="2.01249">
        <ele>53.7</ele>
        <time>2023-05-03T12:17:12Z</time>
      </trkpt>
      <trkpt lat="49.88219" lon="2.01248">
        <ele>53.7</ele>
        <time>2023-05-03T12:17:13Z</time>
      </trkpt>
      <trkpt lat="49.88219" lon="2.01247">
        <ele>53.7</ele>
        <time>2023-05-03T12:17:14Z</time>
      </trkpt>
      <trkpt lat="49.8822" lon="2.01246">
        <ele>53.7</ele>
        <time>2023-05-03T12:17:15Z</time>
      </trkpt>
      <trkpt lat="49.88221" lon="2.01245">
        <ele>53.7</ele>
        <time>2023-05-03T12:17:16Z</time>
      </trkpt>
      <trkpt lat="49.88223" lon="2.01243">
        <ele>54.2</ele>
        <time>2023-05-03T12:17:17Z</time>
      </trkpt>
      <trkpt lat="49.88224" lon="2.01242">
        <ele>54.2</ele>
        <time>2023-05-03T12:17:18Z</time>
      </trkpt>
      <trkpt lat="49.88224" lon="2.01242">
        <ele>54.3</ele>
        <time>2023-05-03T12:17:19Z</time>
      </trkpt>
      <trkpt lat="49.88226" lon="2.0124">
        <ele>54.3</ele>
        <time>2023-05-03T12:17:20Z</time>
      </trkpt>
      <trkpt lat="49.88227" lon="2.01239">
        <ele>54.4</ele>
        <time>2023-05-03T12:17:21Z</time>
      </trkpt>
      <trkpt lat="49.88228" lon="2.01238">
        <ele>54.4</ele>
        <time>2023-05-03T12:17:23Z</time>
      </trkpt>
      <trkpt lat="49.88229" lon="2.01237">
        <ele>54.5</ele>
        <time>2023-05-03T12:17:24Z</time>
      </trkpt>
      <trkpt lat="49.88231" lon="2.01235">
        <ele>54.6</ele>
        <time>2023-05-03T12:17:25Z</time>
      </trkpt>
      <trkpt lat="49.88231" lon="2.01234">
        <ele>54.6</ele>
        <time>2023-05-03T12:17:26Z</time>
      </trkpt>
      <trkpt lat="49.88232" lon="2.01233">
        <ele>54.7</ele>
        <time>2023-05-03T12:17:27Z</time>
      </trkpt>
      <trkpt lat="49.88233" lon="2.01231">
        <ele>54.7</ele>
        <time>2023-05-03T12:17:28Z</time>
      </trkpt>
      <trkpt lat="49.88234" lon="2.0123">
        <ele>54.8</ele>
        <time>2023-05-03T12:17:29Z</time>
      </trkpt>
      <trkpt lat="49.88236" lon="2.01228">
        <ele>54.9</ele>
        <time>2023-05-03T12:17:30Z</time>
      </trkpt>
      <trkpt lat="49.88237" lon="2.01227">
        <ele>54.9</ele>
        <time>2023-05-03T12:17:32Z</time>
      </trkpt>
      <trkpt lat="49.88238" lon="2.01226">
        <ele>55</ele>
        <time>2023-05-03T12:17:33Z</time>
      </trkpt>
      <trkpt lat="49.88239" lon="2.01225">
        <ele>55</ele>
        <time>2023-05-03T12:17:34Z</time>
      </trkpt>
      <trkpt lat="49.88239" lon="2.01224">
        <ele>55.1</ele>
        <time>2023-05-03T12:17:35Z</time>
      </trkpt>
      <trkpt lat="49.8824" lon="2.01222">
        <ele>55.1</ele>
        <time>2023-05-03T12:17:36Z</time>
      </trkpt>
      <trkpt lat="49.88241" lon="2.01221">
        <ele>55.2</ele>
        <time>2023-05-03T12:17:37Z</time>
      </trkpt>
      <trkpt lat="49.88243" lon="2.01219">
        <ele>55.3</ele>
        <time>2023-05-03T12:17:38Z</time>
      </trkpt>
      <trkpt lat="49.88244" lon="2.01218">
        <ele>55.3</ele>
        <time>2023-05-03T12:17:39Z</time>
      </trkpt>
      <trkpt lat="49.88245" lon="2.01216">
        <ele>55.4</ele>
        <time>2023-05-03T12:17:41Z</time>
      </trkpt>
      <trkpt lat="49.88246" lon="2.01215">
        <ele>55.5</ele>
        <time>2023-05-03T12:17:42Z</time>
      </trkpt>
      <trkpt lat="49.88247" lon="2.01213">
        <ele>55.5</ele>
        <time>2023-05-03T12:17:43Z</time>
      </trkpt>
      <trkpt lat="49.88248" lon="2.01212">
        <ele>55.6</ele>
        <time>2023-05-03T12:17:44Z</time>
      </trkpt>
      <trkpt lat="49.88249" lon="2.01211">
        <ele>55.6</ele>
        <time>2023-05-03T12:17:45Z</time>
      </trkpt>
      <trkpt lat="49.88251" lon="2.01209">
        <ele>55.7</ele>
        <time>2023-05-03T12:17:47Z</time>
      </trkpt>
      <trkpt lat="49.88252" lon="2.01207">
        <ele>55.8</ele>
        <time>2023-05-03T12:17:48Z</time>
      </trkpt>
      <trkpt lat="49.88253" lon="2.01206">
        <ele>55.9</ele>
        <time>2023-05-03T12:17:49Z</time>
      </trkpt>
      <trkpt lat="49.88254" lon="2.01205">
        <ele>56</ele>
        <time>2023-05-03T12:17:50Z</time>
      </trkpt>
      <trkpt lat="49.88256" lon="2.01203">
        <ele>56</ele>
        <time>2023-05-03T12:17:51Z</time>
      </trkpt>
      <trkpt lat="49.88257" lon="2.01202">
        <ele>56.1</ele>
        <time>2023-05-03T12:17:52Z</time>
      </trkpt>
      <trkpt lat="49.88258" lon="2.01201">
        <ele>56.2</ele>
        <time>2023-05-03T12:17:54Z</time>
      </trkpt>
      <trkpt lat="49.88259" lon="2.012">
        <ele>56.2</ele>
        <time>2023-05-03T12:17:55Z</time>
      </trkpt>
      <trkpt lat="49.8826" lon="2.01199">
        <ele>56.3</ele>
        <time>2023-05-03T12:17:56Z</time>
      </trkpt>
      <trkpt lat="49.88262" lon="2.01197">
        <ele>56.4</ele>
        <time>2023-05-03T12:17:57Z</time>
      </trkpt>
      <trkpt lat="49.88263" lon="2.01196">
        <ele>56.4</ele>
        <time>2023-05-03T12:17:58Z</time>
      </trkpt>
      <trkpt lat="49.88263" lon="2.01195">
        <ele>56.5</ele>
        <time>2023-05-03T12:17:59Z</time>
      </trkpt>
      <trkpt lat="49.88265" lon="2.01193">
        <ele>56.6</ele>
        <time>2023-05-03T12:18:00Z</time>
      </trkpt>
      <trkpt lat="49.88266" lon="2.01192">
        <ele>56.6</ele>
        <time>2023-05-03T12:18:02Z</time>
      </trkpt>
      <trkpt lat="49.88267" lon="2.01191">
        <ele>56.7</ele>
        <time>2023-05-03T12:18:03Z</time>
      </trkpt>
      <trkpt lat="49.88269" lon="2.0119">
        <ele>56.8</ele>
        <time>2023-05-03T12:18:04Z</time>
      </trkpt>
      <trkpt lat="49.88269" lon="2.01189">
        <ele>56.8</ele>
        <time>2023-05-03T12:18:05Z</time>
      </trkpt>
      <trkpt lat="49.8827" lon="2.01188">
        <ele>56.8</ele>
        <time>2023-05-03T12:18:06Z</time>
      </trkpt>
      <trkpt lat="49.88272" lon="2.01188">
        <ele>56.9</ele>
        <time>2023-05-03T12:18:07Z</time>
      </trkpt>
      <trkpt lat="49.88273" lon="2.01187">
        <ele>57</ele>
        <time>2023-05-03T12:18:08Z</time>
      </trkpt>
      <trkpt lat="49.88274" lon="2.01187">
        <ele>57</ele>
        <time>2023-05-03T12:18:09Z</time>
      </trkpt>
      <trkpt lat="49.88276" lon="2.01186">
        <ele>57.1</ele>
        <time>2023-05-03T12:18:11Z</time>
      </trkpt>
      <trkpt lat="49.88277" lon="2.01185">
        <ele>57.1</ele>
        <time>2023-05-03T12:18:12Z</time>
      </trkpt>
      <trkpt lat="49.88278" lon="2.01185">
        <ele>57.2</ele>
        <time>2023-05-03T12:18:13Z</time>
      </trkpt>
      <trkpt lat="49.8828" lon="2.01184">
        <ele>57.2</ele>
        <time>2023-05-03T12:18:14Z</time>
      </trkpt>
      <trkpt lat="49.88281" lon="2.01183">
        <ele>57.3</ele>
        <time>2023-05-03T12:18:15Z</time>
      </trkpt>
      <trkpt lat="49.88283" lon="2.01183">
        <ele>57.4</ele>
        <time>2023-05-03T12:18:16Z</time>
      </trkpt>
      <trkpt lat="49.88284" lon="2.01182">
        <ele>57.4</ele>
        <time>2023-05-03T12:18:17Z</time>
      </trkpt>
      <trkpt lat="49.88285" lon="2.01182">
        <ele>57.4</ele>
        <time>2023-05-03T12:18:18Z</time>
      </trkpt>
      <trkpt lat="49.88286" lon="2.01181">
        <ele>57.5</ele>
        <time>2023-05-03T12:18:20Z</time>
      </trkpt>
      <trkpt lat="49.88288" lon="2.01181">
        <ele>57.5</ele>
        <time>2023-05-03T12:18:21Z</time>
      </trkpt>
      <trkpt lat="49.88289" lon="2.0118">
        <ele>57.6</ele>
        <time>2023-05-03T12:18:22Z</time>
      </trkpt>
      <trkpt lat="49.88291" lon="2.0118">
        <ele>57.6</ele>
        <time>2023-05-03T12:18:23Z</time>
      </trkpt>
      <trkpt lat="49.88292" lon="2.0118">
        <ele>57.7</ele>
        <time>2023-05-03T12:18:24Z</time>
      </trkpt>
      <trkpt lat="49.88293" lon="2.0118">
        <ele>57.7</ele>
        <time>2023-05-03T12:18:25Z</time>
      </trkpt>
      <trkpt lat="49.88295" lon="2.0118">
        <ele>57.8</ele>
        <time>2023-05-03T12:18:26Z</time>
      </trkpt>
      <trkpt lat="49.88296" lon="2.01179">
        <ele>57.8</ele>
        <time>2023-05-03T12:18:27Z</time>
      </trkpt>
      <trkpt lat="49.88298" lon="2.01178">
        <ele>57.9</ele>
        <time>2023-05-03T12:18:29Z</time>
      </trkpt>
      <trkpt lat="49.88299" lon="2.01178">
        <ele>57.9</ele>
        <time>2023-05-03T12:18:30Z</time>
      </trkpt>
      <trkpt lat="49.883" lon="2.01177">
        <ele>57.9</ele>
        <time>2023-05-03T12:18:31Z</time>
      </trkpt>
      <trkpt lat="49.88302" lon="2.01176">
        <ele>58</ele>
        <time>2023-05-03T12:18:32Z</time>
      </trkpt>
      <trkpt lat="49.88302" lon="2.01175">
        <ele>58</ele>
        <time>2023-05-03T12:18:33Z</time>
      </trkpt>
      <trkpt lat="49.88303" lon="2.01175">
        <ele>58</ele>
        <time>2023-05-03T12:18:34Z</time>
      </trkpt>
      <trkpt lat="49.88305" lon="2.01174">
        <ele>58.1</ele>
        <time>2023-05-03T12:18:36Z</time>
      </trkpt>
      <trkpt lat="49.88306" lon="2.01173">
        <ele>58.1</ele>
        <time>2023-05-03T12:18:37Z</time>
      </trkpt>
      <trkpt lat="49.88308" lon="2.01172">
        <ele>58.2</ele>
        <time>2023-05-03T12:18:38Z</time>
      </trkpt>
      <trkpt lat="49.88308" lon="2.01171">
        <ele>58.2</ele>
        <time>2023-05-03T12:18:39Z</time>
      </trkpt>
      <trkpt lat="49.88309" lon="2.0117">
        <ele>58.2</ele>
        <time>2023-05-03T12:18:40Z</time>
      </trkpt>
      <trkpt lat="49.8831" lon="2.01169">
        <ele>58.3</ele>
        <time>2023-05-03T12:18:41Z</time>
      </trkpt>
      <trkpt lat="49.88312" lon="2.01168">
        <ele>58.3</ele>
        <time>2023-05-03T12:18:42Z</time>
      </trkpt>
      <trkpt lat="49.88314" lon="2.01165">
        <ele>58.4</ele>
        <time>2023-05-03T12:18:43Z</time>
      </trkpt>
      <trkpt lat="49.88314" lon="2.01164">
        <ele>58.4</ele>
        <time>2023-05-03T12:18:45Z</time>
      </trkpt>
      <trkpt lat="49.88315" lon="2.01163">
        <ele>58.4</ele>
        <time>2023-05-03T12:18:46Z</time>
      </trkpt>
      <trkpt lat="49.88316" lon="2.01162">
        <ele>58.5</ele>
        <time>2023-05-03T12:18:47Z</time>
      </trkpt>
      <trkpt lat="49.88317" lon="2.0116">
        <ele>58.5</ele>
        <time>2023-05-03T12:18:48Z</time>
      </trkpt>
      <trkpt lat="49.88318" lon="2.01159">
        <ele>58.5</ele>
        <time>2023-05-03T12:18:49Z</time>
      </trkpt>
      <trkpt lat="49.88319" lon="2.01158">
        <ele>58.5</ele>
        <time>2023-05-03T12:18:50Z</time>
      </trkpt>
      <trkpt lat="49.8832" lon="2.01156">
        <ele>58.6</ele>
        <time>2023-05-03T12:18:51Z</time>
      </trkpt>
      <trkpt lat="49.88321" lon="2.01154">
        <ele>58.6</ele>
        <time>2023-05-03T12:18:52Z</time>
      </trkpt>
      <trkpt lat="49.88323" lon="2.01152">
        <ele>58.7</ele>
        <time>2023-05-03T12:18:53Z</time>
      </trkpt>
      <trkpt lat="49.88324" lon="2.01151">
        <ele>58.7</ele>
        <time>2023-05-03T12:18:55Z</time>
      </trkpt>
      <trkpt lat="49.88324" lon="2.0115">
        <ele>58.7</ele>
        <time>2023-05-03T12:18:56Z</time>
      </trkpt>
      <trkpt lat="49.88325" lon="2.01148">
        <ele>58.7</ele>
        <time>2023-05-03T12:18:57Z</time>
      </trkpt>
      <trkpt lat="49.88326" lon="2.01147">
        <ele>58.7</ele>
        <time>2023-05-03T12:18:58Z</time>
      </trkpt>
      <trkpt lat="49.88327" lon="2.01145">
        <ele>58.8</ele>
        <time>2023-05-03T12:18:59Z</time>
      </trkpt>
      <trkpt lat="49.88328" lon="2.01145">
        <ele>58.8</ele>
        <time>2023-05-03T12:19:00Z</time>
      </trkpt>
      <trkpt lat="49.88329" lon="2.01144">
        <ele>58.8</ele>
        <time>2023-05-03T12:19:01Z</time>
      </trkpt>
      <trkpt lat="49.88331" lon="2.01142">
        <ele>58.9</ele>
        <time>2023-05-03T12:19:03Z</time>
      </trkpt>
      <trkpt lat="49.88332" lon="2.0114">
        <ele>58.9</ele>
        <time>2023-05-03T12:19:04Z</time>
      </trkpt>
      <trkpt lat="49.88333" lon="2.01138">
        <ele>58.9</ele>
        <time>2023-05-03T12:19:05Z</time>
      </trkpt>
      <trkpt lat="49.88334" lon="2.01138">
        <ele>59</ele>
        <time>2023-05-03T12:19:06Z</time>
      </trkpt>
      <trkpt lat="49.88335" lon="2.01137">
        <ele>59</ele>
        <time>2023-05-03T12:19:07Z</time>
      </trkpt>
      <trkpt lat="49.88336" lon="2.01134">
        <ele>59</ele>
        <time>2023-05-03T12:19:09Z</time>
      </trkpt>
      <trkpt lat="49.88337" lon="2.01134">
        <ele>59</ele>
        <time>2023-05-03T12:19:10Z</time>
      </trkpt>
      <trkpt lat="49.88338" lon="2.01133">
        <ele>59</ele>
        <time>2023-05-03T12:19:11Z</time>
      </trkpt>
      <trkpt lat="49.88339" lon="2.01131">
        <ele>59.1</ele>
        <time>2023-05-03T12:19:12Z</time>
      </trkpt>
      <trkpt lat="49.88339" lon="2.01131">
        <ele>59.1</ele>
        <time>2023-05-03T12:19:13Z</time>
      </trkpt>
      <trkpt lat="49.8834" lon="2.01129">
        <ele>59.1</ele>
        <time>2023-05-03T12:19:14Z</time>
      </trkpt>
      <trkpt lat="49.88342" lon="2.01127">
        <ele>59.2</ele>
        <time>2023-05-03T12:19:15Z</time>
      </trkpt>
      <trkpt lat="49.88342" lon="2.01126">
        <ele>59.2</ele>
        <time>2023-05-03T12:19:17Z</time>
      </trkpt>
      <trkpt lat="49.88343" lon="2.01125">
        <ele>59.2</ele>
        <time>2023-05-03T12:19:18Z</time>
      </trkpt>
      <trkpt lat="49.88345" lon="2.01123">
        <ele>59.3</ele>
        <time>2023-05-03T12:19:19Z</time>
      </trkpt>
      <trkpt lat="49.88345" lon="2.01122">
        <ele>59.3</ele>
        <time>2023-05-03T12:19:20Z</time>
      </trkpt>
      <trkpt lat="49.88346" lon="2.01122">
        <ele>59.3</ele>
        <time>2023-05-03T12:19:21Z</time>
      </trkpt>
      <trkpt lat="49.88347" lon="2.0112">
        <ele>59.4</ele>
        <time>2023-05-03T12:19:23Z</time>
      </trkpt>
      <trkpt lat="49.88348" lon="2.01118">
        <ele>59.4</ele>
        <time>2023-05-03T12:19:24Z</time>
      </trkpt>
      <trkpt lat="49.88349" lon="2.01116">
        <ele>59.4</ele>
        <time>2023-05-03T12:19:25Z</time>
      </trkpt>
      <trkpt lat="49.8835" lon="2.01115">
        <ele>59.5</ele>
        <time>2023-05-03T12:19:26Z</time>
      </trkpt>
      <trkpt lat="49.88352" lon="2.01111">
        <ele>59.6</ele>
        <time>2023-05-03T12:19:28Z</time>
      </trkpt>
      <trkpt lat="49.88352" lon="2.01111">
        <ele>59.6</ele>
        <time>2023-05-03T12:19:29Z</time>
      </trkpt>
      <trkpt lat="49.88354" lon="2.01109">
        <ele>59.6</ele>
        <time>2023-05-03T12:19:30Z</time>
      </trkpt>
      <trkpt lat="49.88355" lon="2.01107">
        <ele>59.7</ele>
        <time>2023-05-03T12:19:31Z</time>
      </trkpt>
      <trkpt lat="49.88356" lon="2.01106">
        <ele>59.7</ele>
        <time>2023-05-03T12:19:32Z</time>
      </trkpt>
      <trkpt lat="49.88357" lon="2.01105">
        <ele>59.8</ele>
        <time>2023-05-03T12:19:33Z</time>
      </trkpt>
      <trkpt lat="49.88359" lon="2.01102">
        <ele>59.9</ele>
        <time>2023-05-03T12:19:35Z</time>
      </trkpt>
      <trkpt lat="49.8836" lon="2.01101">
        <ele>59.9</ele>
        <time>2023-05-03T12:19:36Z</time>
      </trkpt>
      <trkpt lat="49.88363" lon="2.01098">
        <ele>60</ele>
        <time>2023-05-03T12:19:38Z</time>
      </trkpt>
      <trkpt lat="49.88363" lon="2.01098">
        <ele>60</ele>
        <time>2023-05-03T12:19:39Z</time>
      </trkpt>
      <trkpt lat="49.88365" lon="2.01096">
        <ele>60.1</ele>
        <time>2023-05-03T12:19:40Z</time>
      </trkpt>
      <trkpt lat="49.88366" lon="2.01094">
        <ele>60.1</ele>
        <time>2023-05-03T12:19:42Z</time>
      </trkpt>
      <trkpt lat="49.88368" lon="2.01093">
        <ele>60.2</ele>
        <time>2023-05-03T12:19:43Z</time>
      </trkpt>
      <trkpt lat="49.88369" lon="2.01092">
        <ele>60.2</ele>
        <time>2023-05-03T12:19:44Z</time>
      </trkpt>
      <trkpt lat="49.8837" lon="2.0109">
        <ele>60.2</ele>
        <time>2023-05-03T12:19:45Z</time>
      </trkpt>
      <trkpt lat="49.88371" lon="2.01089">
        <ele>60.3</ele>
        <time>2023-05-03T12:19:46Z</time>
      </trkpt>
      <trkpt lat="49.88372" lon="2.01088">
        <ele>60.3</ele>
        <time>2023-05-03T12:19:47Z</time>
      </trkpt>
      <trkpt lat="49.88374" lon="2.01086">
        <ele>60.4</ele>
        <time>2023-05-03T12:19:48Z</time>
      </trkpt>
      <trkpt lat="49.88376" lon="2.01083">
        <ele>60.4</ele>
        <time>2023-05-03T12:19:49Z</time>
      </trkpt>
      <trkpt lat="49.88376" lon="2.01082">
        <ele>60.5</ele>
        <time>2023-05-03T12:19:51Z</time>
      </trkpt>
      <trkpt lat="49.88377" lon="2.01081">
        <ele>60.5</ele>
        <time>2023-05-03T12:19:52Z</time>
      </trkpt>
      <trkpt lat="49.88378" lon="2.0108">
        <ele>60.5</ele>
        <time>2023-05-03T12:19:53Z</time>
      </trkpt>
      <trkpt lat="49.88379" lon="2.01079">
        <ele>60.6</ele>
        <time>2023-05-03T12:19:54Z</time>
      </trkpt>
      <trkpt lat="49.8838" lon="2.01077">
        <ele>60.6</ele>
        <time>2023-05-03T12:19:55Z</time>
      </trkpt>
      <trkpt lat="49.88381" lon="2.01075">
        <ele>60.6</ele>
        <time>2023-05-03T12:19:57Z</time>
      </trkpt>
      <trkpt lat="49.88382" lon="2.01073">
        <ele>60.7</ele>
        <time>2023-05-03T12:19:58Z</time>
      </trkpt>
      <trkpt lat="49.88383" lon="2.01072">
        <ele>60.7</ele>
        <time>2023-05-03T12:19:59Z</time>
      </trkpt>
      <trkpt lat="49.88384" lon="2.0107">
        <ele>60.7</ele>
        <time>2023-05-03T12:20:01Z</time>
      </trkpt>
      <trkpt lat="49.88385" lon="2.01068">
        <ele>60.8</ele>
        <time>2023-05-03T12:20:02Z</time>
      </trkpt>
      <trkpt lat="49.88386" lon="2.01066">
        <ele>60.8</ele>
        <time>2023-05-03T12:20:03Z</time>
      </trkpt>
      <trkpt lat="49.88386" lon="2.01065">
        <ele>60.8</ele>
        <time>2023-05-03T12:20:04Z</time>
      </trkpt>
      <trkpt lat="49.88387" lon="2.01064">
        <ele>60.8</ele>
        <time>2023-05-03T12:20:05Z</time>
      </trkpt>
      <trkpt lat="49.88388" lon="2.01063">
        <ele>60.9</ele>
        <time>2023-05-03T12:20:06Z</time>
      </trkpt>
      <trkpt lat="49.88389" lon="2.01062">
        <ele>60.9</ele>
        <time>2023-05-03T12:20:07Z</time>
      </trkpt>
      <trkpt lat="49.8839" lon="2.0106">
        <ele>60.9</ele>
        <time>2023-05-03T12:20:08Z</time>
      </trkpt>
      <trkpt lat="49.88391" lon="2.01059">
        <ele>61</ele>
        <time>2023-05-03T12:20:09Z</time>
      </trkpt>
      <trkpt lat="49.88391" lon="2.01058">
        <ele>61</ele>
        <time>2023-05-03T12:20:10Z</time>
      </trkpt>
      <trkpt lat="49.88392" lon="2.01056">
        <ele>61</ele>
        <time>2023-05-03T12:20:12Z</time>
      </trkpt>
      <trkpt lat="49.88393" lon="2.01055">
        <ele>61</ele>
        <time>2023-05-03T12:20:13Z</time>
      </trkpt>
      <trkpt lat="49.88394" lon="2.01054">
        <ele>61.1</ele>
        <time>2023-05-03T12:20:14Z</time>
      </trkpt>
      <trkpt lat="49.88395" lon="2.01053">
        <ele>61.1</ele>
        <time>2023-05-03T12:20:15Z</time>
      </trkpt>
      <trkpt lat="49.88396" lon="2.01052">
        <ele>61.1</ele>
        <time>2023-05-03T12:20:16Z</time>
      </trkpt>
      <trkpt lat="49.88397" lon="2.01051">
        <ele>61.1</ele>
        <time>2023-05-03T12:20:17Z</time>
      </trkpt>
      <trkpt lat="49.88398" lon="2.0105">
        <ele>61.2</ele>
        <time>2023-05-03T12:20:18Z</time>
      </trkpt>
      <trkpt lat="49.88399" lon="2.01048">
        <ele>61.2</ele>
        <time>2023-05-03T12:20:19Z</time>
      </trkpt>
      <trkpt lat="49.884" lon="2.01047">
        <ele>61.2</ele>
        <time>2023-05-03T12:20:20Z</time>
      </trkpt>
      <trkpt lat="49.884" lon="2.01046">
        <ele>61.3</ele>
        <time>2023-05-03T12:20:22Z</time>
      </trkpt>
      <trkpt lat="49.88401" lon="2.01044">
        <ele>61.3</ele>
        <time>2023-05-03T12:20:23Z</time>
      </trkpt>
      <trkpt lat="49.88402" lon="2.01043">
        <ele>61.3</ele>
        <time>2023-05-03T12:20:24Z</time>
      </trkpt>
      <trkpt lat="49.88404" lon="2.01041">
        <ele>61.4</ele>
        <time>2023-05-03T12:20:25Z</time>
      </trkpt>
      <trkpt lat="49.88405" lon="2.0104">
        <ele>61.4</ele>
        <time>2023-05-03T12:20:26Z</time>
      </trkpt>
      <trkpt lat="49.88405" lon="2.01039">
        <ele>61.4</ele>
        <time>2023-05-03T12:20:27Z</time>
      </trkpt>
      <trkpt lat="49.88407" lon="2.01037">
        <ele>61.5</ele>
        <time>2023-05-03T12:20:28Z</time>
      </trkpt>
      <trkpt lat="49.88407" lon="2.01036">
        <ele>61.5</ele>
        <time>2023-05-03T12:20:29Z</time>
      </trkpt>
      <trkpt lat="49.88408" lon="2.01035">
        <ele>61.5</ele>
        <time>2023-05-03T12:20:30Z</time>
      </trkpt>
      <trkpt lat="49.8841" lon="2.01033">
        <ele>61.5</ele>
        <time>2023-05-03T12:20:31Z</time>
      </trkpt>
      <trkpt lat="49.88411" lon="2.01032">
        <ele>61.6</ele>
        <time>2023-05-03T12:20:33Z</time>
      </trkpt>
      <trkpt lat="49.88411" lon="2.01032">
        <ele>61.6</ele>
        <time>2023-05-03T12:20:34Z</time>
      </trkpt>
      <trkpt lat="49.88413" lon="2.0103">
        <ele>61.6</ele>
        <time>2023-05-03T12:20:35Z</time>
      </trkpt>
      <trkpt lat="49.88414" lon="2.01029">
        <ele>61.6</ele>
        <time>2023-05-03T12:20:36Z</time>
      </trkpt>
      <trkpt lat="49.88414" lon="2.01028">
        <ele>61.6</ele>
        <time>2023-05-03T12:20:37Z</time>
      </trkpt>
      <trkpt lat="49.88415" lon="2.01027">
        <ele>61.7</ele>
        <time>2023-05-03T12:20:39Z</time>
      </trkpt>
      <trkpt lat="49.88416" lon="2.01025">
        <ele>61.7</ele>
        <time>2023-05-03T12:20:40Z</time>
      </trkpt>
      <trkpt lat="49.88418" lon="2.01023">
        <ele>61.7</ele>
        <time>2023-05-03T12:20:41Z</time>
      </trkpt>
      <trkpt lat="49.88419" lon="2.01022">
        <ele>61.7</ele>
        <time>2023-05-03T12:20:42Z</time>
      </trkpt>
      <trkpt lat="49.88419" lon="2.01021">
        <ele>61.8</ele>
        <time>2023-05-03T12:20:43Z</time>
      </trkpt>
      <trkpt lat="49.8842" lon="2.0102">
        <ele>61.8</ele>
        <time>2023-05-03T12:20:44Z</time>
      </trkpt>
      <trkpt lat="49.88421" lon="2.01018">
        <ele>61.8</ele>
        <time>2023-05-03T12:20:45Z</time>
      </trkpt>
      <trkpt lat="49.88421" lon="2.01017">
        <ele>61.8</ele>
        <time>2023-05-03T12:20:47Z</time>
      </trkpt>
      <trkpt lat="49.88422" lon="2.01015">
        <ele>61.8</ele>
        <time>2023-05-03T12:20:48Z</time>
      </trkpt>
      <trkpt lat="49.88423" lon="2.01014">
        <ele>61.8</ele>
        <time>2023-05-03T12:20:49Z</time>
      </trkpt>
      <trkpt lat="49.88424" lon="2.01012">
        <ele>61.9</ele>
        <time>2023-05-03T12:20:50Z</time>
      </trkpt>
      <trkpt lat="49.88425" lon="2.01011">
        <ele>61.9</ele>
        <time>2023-05-03T12:20:51Z</time>
      </trkpt>
      <trkpt lat="49.88426" lon="2.0101">
        <ele>61.9</ele>
        <time>2023-05-03T12:20:52Z</time>
      </trkpt>
      <trkpt lat="49.88427" lon="2.01008">
        <ele>61.9</ele>
        <time>2023-05-03T12:20:53Z</time>
      </trkpt>
      <trkpt lat="49.88428" lon="2.01007">
        <ele>61.9</ele>
        <time>2023-05-03T12:20:55Z</time>
      </trkpt>
      <trkpt lat="49.88429" lon="2.01006">
        <ele>61.9</ele>
        <time>2023-05-03T12:20:56Z</time>
      </trkpt>
      <trkpt lat="49.8843" lon="2.01004">
        <ele>61.9</ele>
        <time>2023-05-03T12:20:57Z</time>
      </trkpt>
      <trkpt lat="49.88431" lon="2.01003">
        <ele>61.9</ele>
        <time>2023-05-03T12:20:58Z</time>
      </trkpt>
      <trkpt lat="49.88432" lon="2.01001">
        <ele>61.9</ele>
        <time>2023-05-03T12:20:59Z</time>
      </trkpt>
      <trkpt lat="49.88432" lon="2.01">
        <ele>61.9</ele>
        <time>2023-05-03T12:21:00Z</time>
      </trkpt>
      <trkpt lat="49.88433" lon="2.00999">
        <ele>61.9</ele>
        <time>2023-05-03T12:21:01Z</time>
      </trkpt>
      <trkpt lat="49.88435" lon="2.00997">
        <ele>61.9</ele>
        <time>2023-05-03T12:21:02Z</time>
      </trkpt>
      <trkpt lat="49.88435" lon="2.00996">
        <ele>61.9</ele>
        <time>2023-05-03T12:21:03Z</time>
      </trkpt>
      <trkpt lat="49.88436" lon="2.00995">
        <ele>61.9</ele>
        <time>2023-05-03T12:21:04Z</time>
      </trkpt>
      <trkpt lat="49.88437" lon="2.00993">
        <ele>61.9</ele>
        <time>2023-05-03T12:21:05Z</time>
      </trkpt>
      <trkpt lat="49.88438" lon="2.00991">
        <ele>61.9</ele>
        <time>2023-05-03T12:21:07Z</time>
      </trkpt>
      <trkpt lat="49.88439" lon="2.00989">
        <ele>61.9</ele>
        <time>2023-05-03T12:21:08Z</time>
      </trkpt>
      <trkpt lat="49.88439" lon="2.00988">
        <ele>61.9</ele>
        <time>2023-05-03T12:21:09Z</time>
      </trkpt>
      <trkpt lat="49.8844" lon="2.00987">
        <ele>61.9</ele>
        <time>2023-05-03T12:21:10Z</time>
      </trkpt>
      <trkpt lat="49.88442" lon="2.00985">
        <ele>61.8</ele>
        <time>2023-05-03T12:21:12Z</time>
      </trkpt>
      <trkpt lat="49.88443" lon="2.00984">
        <ele>61.8</ele>
        <time>2023-05-03T12:21:13Z</time>
      </trkpt>
      <trkpt lat="49.88443" lon="2.00983">
        <ele>61.8</ele>
        <time>2023-05-03T12:21:14Z</time>
      </trkpt>
      <trkpt lat="49.88445" lon="2.00982">
        <ele>61.8</ele>
        <time>2023-05-03T12:21:15Z</time>
      </trkpt>
      <trkpt lat="49.88446" lon="2.00981">
        <ele>61.8</ele>
        <time>2023-05-03T12:21:16Z</time>
      </trkpt>
      <trkpt lat="49.88448" lon="2.00979">
        <ele>61.7</ele>
        <time>2023-05-03T12:21:17Z</time>
      </trkpt>
      <trkpt lat="49.88449" lon="2.00978">
        <ele>61.7</ele>
        <time>2023-05-03T12:21:19Z</time>
      </trkpt>
      <trkpt lat="49.8845" lon="2.00978">
        <ele>61.7</ele>
        <time>2023-05-03T12:21:20Z</time>
      </trkpt>
      <trkpt lat="49.88451" lon="2.00977">
        <ele>61.7</ele>
        <time>2023-05-03T12:21:21Z</time>
      </trkpt>
      <trkpt lat="49.88451" lon="2.00976">
        <ele>61.7</ele>
        <time>2023-05-03T12:21:22Z</time>
      </trkpt>
      <trkpt lat="49.88453" lon="2.00975">
        <ele>61.6</ele>
        <time>2023-05-03T12:21:23Z</time>
      </trkpt>
      <trkpt lat="49.88454" lon="2.00975">
        <ele>61.6</ele>
        <time>2023-05-03T12:21:24Z</time>
      </trkpt>
      <trkpt lat="49.88455" lon="2.00974">
        <ele>61.6</ele>
        <time>2023-05-03T12:21:25Z</time>
      </trkpt>
      <trkpt lat="49.88456" lon="2.00974">
        <ele>61.6</ele>
        <time>2023-05-03T12:21:26Z</time>
      </trkpt>
      <trkpt lat="49.88458" lon="2.00973">
        <ele>61.5</ele>
        <time>2023-05-03T12:21:28Z</time>
      </trkpt>
      <trkpt lat="49.8846" lon="2.00972">
        <ele>61.5</ele>
        <time>2023-05-03T12:21:29Z</time>
      </trkpt>
      <trkpt lat="49.8846" lon="2.00972">
        <ele>61.5</ele>
        <time>2023-05-03T12:21:30Z</time>
      </trkpt>
      <trkpt lat="49.88461" lon="2.00971">
        <ele>61.4</ele>
        <time>2023-05-03T12:21:31Z</time>
      </trkpt>
      <trkpt lat="49.88463" lon="2.0097">
        <ele>61.4</ele>
        <time>2023-05-03T12:21:33Z</time>
      </trkpt>
      <trkpt lat="49.88464" lon="2.0097">
        <ele>61.4</ele>
        <time>2023-05-03T12:21:34Z</time>
      </trkpt>
      <trkpt lat="49.88467" lon="2.00969">
        <ele>61.3</ele>
        <time>2023-05-03T12:21:35Z</time>
      </trkpt>
      <trkpt lat="49.88468" lon="2.00968">
        <ele>61.3</ele>
        <time>2023-05-03T12:21:37Z</time>
      </trkpt>
      <trkpt lat="49.88469" lon="2.00968">
        <ele>61.3</ele>
        <time>2023-05-03T12:21:38Z</time>
      </trkpt>
      <trkpt lat="49.8847" lon="2.00968">
        <ele>61.2</ele>
        <time>2023-05-03T12:21:39Z</time>
      </trkpt>
      <trkpt lat="49.88471" lon="2.00967">
        <ele>61.2</ele>
        <time>2023-05-03T12:21:40Z</time>
      </trkpt>
      <trkpt lat="49.88473" lon="2.00966">
        <ele>61.2</ele>
        <time>2023-05-03T12:21:41Z</time>
      </trkpt>
      <trkpt lat="49.88474" lon="2.00966">
        <ele>61.1</ele>
        <time>2023-05-03T12:21:42Z</time>
      </trkpt>
      <trkpt lat="49.88475" lon="2.00965">
        <ele>61.1</ele>
        <time>2023-05-03T12:21:43Z</time>
      </trkpt>
      <trkpt lat="49.88476" lon="2.00965">
        <ele>61.1</ele>
        <time>2023-05-03T12:21:44Z</time>
      </trkpt>
      <trkpt lat="49.88477" lon="2.00964">
        <ele>61.1</ele>
        <time>2023-05-03T12:21:45Z</time>
      </trkpt>
      <trkpt lat="49.8848" lon="2.00964">
        <ele>61</ele>
        <time>2023-05-03T12:21:47Z</time>
      </trkpt>
      <trkpt lat="49.8848" lon="2.00963">
        <ele>61</ele>
        <time>2023-05-03T12:21:48Z</time>
      </trkpt>
      <trkpt lat="49.88481" lon="2.00963">
        <ele>61</ele>
        <time>2023-05-03T12:21:49Z</time>
      </trkpt>
      <trkpt lat="49.88482" lon="2.00963">
        <ele>61</ele>
        <time>2023-05-03T12:21:50Z</time>
      </trkpt>
      <trkpt lat="49.88484" lon="2.00962">
        <ele>61</ele>
        <time>2023-05-03T12:21:51Z</time>
      </trkpt>
      <trkpt lat="49.88486" lon="2.00961">
        <ele>60.9</ele>
        <time>2023-05-03T12:21:53Z</time>
      </trkpt>
      <trkpt lat="49.88488" lon="2.0096">
        <ele>60.9</ele>
        <time>2023-05-03T12:21:54Z</time>
      </trkpt>
      <trkpt lat="49.88488" lon="2.0096">
        <ele>60.9</ele>
        <time>2023-05-03T12:21:55Z</time>
      </trkpt>
      <trkpt lat="49.88489" lon="2.00959">
        <ele>60.9</ele>
        <time>2023-05-03T12:21:56Z</time>
      </trkpt>
      <trkpt lat="49.8849" lon="2.00958">
        <ele>60.8</ele>
        <time>2023-05-03T12:21:57Z</time>
      </trkpt>
      <trkpt lat="49.88491" lon="2.00958">
        <ele>60.8</ele>
        <time>2023-05-03T12:21:58Z</time>
      </trkpt>
      <trkpt lat="49.88493" lon="2.00956">
        <ele>60.8</ele>
        <time>2023-05-03T12:22:00Z</time>
      </trkpt>
      <trkpt lat="49.88495" lon="2.00955">
        <ele>60.8</ele>
        <time>2023-05-03T12:22:01Z</time>
      </trkpt>
      <trkpt lat="49.88496" lon="2.00955">
        <ele>60.8</ele>
        <time>2023-05-03T12:22:02Z</time>
      </trkpt>
      <trkpt lat="49.88496" lon="2.00954">
        <ele>60.8</ele>
        <time>2023-05-03T12:22:03Z</time>
      </trkpt>
      <trkpt lat="49.88498" lon="2.00954">
        <ele>60.7</ele>
        <time>2023-05-03T12:22:04Z</time>
      </trkpt>
      <trkpt lat="49.88499" lon="2.00953">
        <ele>60.7</ele>
        <time>2023-05-03T12:22:05Z</time>
      </trkpt>
      <trkpt lat="49.88501" lon="2.00953">
        <ele>60.7</ele>
        <time>2023-05-03T12:22:07Z</time>
      </trkpt>
      <trkpt lat="49.88503" lon="2.00952">
        <ele>60.7</ele>
        <time>2023-05-03T12:22:08Z</time>
      </trkpt>
      <trkpt lat="49.88504" lon="2.00952">
        <ele>60.7</ele>
        <time>2023-05-03T12:22:09Z</time>
      </trkpt>
      <trkpt lat="49.88504" lon="2.00951">
        <ele>60.7</ele>
        <time>2023-05-03T12:22:10Z</time>
      </trkpt>
      <trkpt lat="49.88506" lon="2.0095">
        <ele>60.7</ele>
        <time>2023-05-03T12:22:11Z</time>
      </trkpt>
      <trkpt lat="49.88507" lon="2.0095">
        <ele>60.7</ele>
        <time>2023-05-03T12:22:12Z</time>
      </trkpt>
      <trkpt lat="49.88508" lon="2.0095">
        <ele>60.7</ele>
        <time>2023-05-03T12:22:13Z</time>
      </trkpt>
      <trkpt lat="49.88509" lon="2.0095">
        <ele>60.7</ele>
        <time>2023-05-03T12:22:14Z</time>
      </trkpt>
      <trkpt lat="49.88511" lon="2.0095">
        <ele>60.7</ele>
        <time>2023-05-03T12:22:15Z</time>
      </trkpt>
      <trkpt lat="49.88512" lon="2.00949">
        <ele>60.7</ele>
        <time>2023-05-03T12:22:17Z</time>
      </trkpt>
      <trkpt lat="49.88513" lon="2.00949">
        <ele>60.7</ele>
        <time>2023-05-03T12:22:18Z</time>
      </trkpt>
      <trkpt lat="49.88514" lon="2.00949">
        <ele>60.7</ele>
        <time>2023-05-03T12:22:19Z</time>
      </trkpt>
      <trkpt lat="49.88515" lon="2.00948">
        <ele>60.7</ele>
        <time>2023-05-03T12:22:20Z</time>
      </trkpt>
      <trkpt lat="49.88517" lon="2.00947">
        <ele>60.7</ele>
        <time>2023-05-03T12:22:21Z</time>
      </trkpt>
      <trkpt lat="49.88518" lon="2.00947">
        <ele>60.8</ele>
        <time>2023-05-03T12:22:22Z</time>
      </trkpt>
      <trkpt lat="49.88519" lon="2.00947">
        <ele>60.8</ele>
        <time>2023-05-03T12:22:23Z</time>
      </trkpt>
      <trkpt lat="49.88521" lon="2.00945">
        <ele>60.8</ele>
        <time>2023-05-03T12:22:24Z</time>
      </trkpt>
      <trkpt lat="49.88522" lon="2.00945">
        <ele>60.8</ele>
        <time>2023-05-03T12:22:26Z</time>
      </trkpt>
      <trkpt lat="49.88523" lon="2.00944">
        <ele>60.8</ele>
        <time>2023-05-03T12:22:27Z</time>
      </trkpt>
      <trkpt lat="49.88524" lon="2.00944">
        <ele>60.8</ele>
        <time>2023-05-03T12:22:28Z</time>
      </trkpt>
      <trkpt lat="49.88525" lon="2.00943">
        <ele>60.8</ele>
        <time>2023-05-03T12:22:29Z</time>
      </trkpt>
      <trkpt lat="49.88526" lon="2.00943">
        <ele>60.9</ele>
        <time>2023-05-03T12:22:30Z</time>
      </trkpt>
      <trkpt lat="49.88527" lon="2.00943">
        <ele>60.9</ele>
        <time>2023-05-03T12:22:31Z</time>
      </trkpt>
      <trkpt lat="49.88528" lon="2.00942">
        <ele>60.9</ele>
        <time>2023-05-03T12:22:32Z</time>
      </trkpt>
      <trkpt lat="49.8853" lon="2.00941">
        <ele>60.9</ele>
        <time>2023-05-03T12:22:33Z</time>
      </trkpt>
      <trkpt lat="49.88531" lon="2.00941">
        <ele>60.9</ele>
        <time>2023-05-03T12:22:35Z</time>
      </trkpt>
      <trkpt lat="49.88532" lon="2.0094">
        <ele>60.9</ele>
        <time>2023-05-03T12:22:36Z</time>
      </trkpt>
      <trkpt lat="49.88534" lon="2.00939">
        <ele>61</ele>
        <time>2023-05-03T12:22:37Z</time>
      </trkpt>
      <trkpt lat="49.88534" lon="2.00939">
        <ele>61</ele>
        <time>2023-05-03T12:22:38Z</time>
      </trkpt>
      <trkpt lat="49.88535" lon="2.00939">
        <ele>61</ele>
        <time>2023-05-03T12:22:39Z</time>
      </trkpt>
      <trkpt lat="49.88537" lon="2.00938">
        <ele>61.1</ele>
        <time>2023-05-03T12:22:40Z</time>
      </trkpt>
      <trkpt lat="49.88538" lon="2.00938">
        <ele>61.1</ele>
        <time>2023-05-03T12:22:41Z</time>
      </trkpt>
      <trkpt lat="49.88539" lon="2.00937">
        <ele>61.1</ele>
        <time>2023-05-03T12:22:42Z</time>
      </trkpt>
      <trkpt lat="49.88541" lon="2.00936">
        <ele>61.2</ele>
        <time>2023-05-03T12:22:43Z</time>
      </trkpt>
      <trkpt lat="49.88542" lon="2.00936">
        <ele>61.2</ele>
        <time>2023-05-03T12:22:45Z</time>
      </trkpt>
      <trkpt lat="49.88543" lon="2.00935">
        <ele>61.2</ele>
        <time>2023-05-03T12:22:46Z</time>
      </trkpt>
      <trkpt lat="49.88544" lon="2.00935">
        <ele>61.2</ele>
        <time>2023-05-03T12:22:47Z</time>
      </trkpt>
      <trkpt lat="49.88545" lon="2.00935">
        <ele>61.3</ele>
        <time>2023-05-03T12:22:48Z</time>
      </trkpt>
      <trkpt lat="49.88547" lon="2.00934">
        <ele>61.3</ele>
        <time>2023-05-03T12:22:49Z</time>
      </trkpt>
      <trkpt lat="49.88548" lon="2.00934">
        <ele>61.3</ele>
        <time>2023-05-03T12:22:50Z</time>
      </trkpt>
      <trkpt lat="49.88549" lon="2.00934">
        <ele>61.4</ele>
        <time>2023-05-03T12:22:51Z</time>
      </trkpt>
      <trkpt lat="49.88551" lon="2.00933">
        <ele>61.4</ele>
        <time>2023-05-03T12:22:52Z</time>
      </trkpt>
      <trkpt lat="49.88553" lon="2.00933">
        <ele>61.5</ele>
        <time>2023-05-03T12:22:53Z</time>
      </trkpt>
      <trkpt lat="49.88554" lon="2.00933">
        <ele>61.5</ele>
        <time>2023-05-03T12:22:55Z</time>
      </trkpt>
      <trkpt lat="49.88556" lon="2.00933">
        <ele>61.6</ele>
        <time>2023-05-03T12:22:56Z</time>
      </trkpt>
      <trkpt lat="49.88557" lon="2.00932">
        <ele>61.6</ele>
        <time>2023-05-03T12:22:57Z</time>
      </trkpt>
      <trkpt lat="49.88558" lon="2.00932">
        <ele>61.6</ele>
        <time>2023-05-03T12:22:58Z</time>
      </trkpt>
      <trkpt lat="49.88559" lon="2.00932">
        <ele>61.7</ele>
        <time>2023-05-03T12:22:59Z</time>
      </trkpt>
      <trkpt lat="49.88561" lon="2.00932">
        <ele>61.7</ele>
        <time>2023-05-03T12:23:00Z</time>
      </trkpt>
      <trkpt lat="49.88562" lon="2.00931">
        <ele>61.8</ele>
        <time>2023-05-03T12:23:01Z</time>
      </trkpt>
      <trkpt lat="49.88564" lon="2.00931">
        <ele>61.9</ele>
        <time>2023-05-03T12:23:02Z</time>
      </trkpt>
      <trkpt lat="49.88566" lon="2.0093">
        <ele>61.9</ele>
        <time>2023-05-03T12:23:04Z</time>
      </trkpt>
      <trkpt lat="49.88567" lon="2.0093">
        <ele>62</ele>
        <time>2023-05-03T12:23:05Z</time>
      </trkpt>
      <trkpt lat="49.88568" lon="2.0093">
        <ele>62</ele>
        <time>2023-05-03T12:23:06Z</time>
      </trkpt>
      <trkpt lat="49.8857" lon="2.00929">
        <ele>62.1</ele>
        <time>2023-05-03T12:23:07Z</time>
      </trkpt>
      <trkpt lat="49.88571" lon="2.00929">
        <ele>62.1</ele>
        <time>2023-05-03T12:23:09Z</time>
      </trkpt>
      <trkpt lat="49.88572" lon="2.00928">
        <ele>62.2</ele>
        <time>2023-05-03T12:23:10Z</time>
      </trkpt>
      <trkpt lat="49.88574" lon="2.00928">
        <ele>62.2</ele>
        <time>2023-05-03T12:23:11Z</time>
      </trkpt>
      <trkpt lat="49.88575" lon="2.00927">
        <ele>62.3</ele>
        <time>2023-05-03T12:23:12Z</time>
      </trkpt>
      <trkpt lat="49.88576" lon="2.00927">
        <ele>62.3</ele>
        <time>2023-05-03T12:23:13Z</time>
      </trkpt>
      <trkpt lat="49.88577" lon="2.00927">
        <ele>62.4</ele>
        <time>2023-05-03T12:23:14Z</time>
      </trkpt>
      <trkpt lat="49.88579" lon="2.00927">
        <ele>62.4</ele>
        <time>2023-05-03T12:23:15Z</time>
      </trkpt>
      <trkpt lat="49.8858" lon="2.00927">
        <ele>62.5</ele>
        <time>2023-05-03T12:23:17Z</time>
      </trkpt>
      <trkpt lat="49.88581" lon="2.00926">
        <ele>62.5</ele>
        <time>2023-05-03T12:23:18Z</time>
      </trkpt>
      <trkpt lat="49.88582" lon="2.00925">
        <ele>62.6</ele>
        <time>2023-05-03T12:23:19Z</time>
      </trkpt>
      <trkpt lat="49.88584" lon="2.00925">
        <ele>62.6</ele>
        <time>2023-05-03T12:23:20Z</time>
      </trkpt>
      <trkpt lat="49.88585" lon="2.00924">
        <ele>62.7</ele>
        <time>2023-05-03T12:23:21Z</time>
      </trkpt>
      <trkpt lat="49.88586" lon="2.00923">
        <ele>62.7</ele>
        <time>2023-05-03T12:23:22Z</time>
      </trkpt>
      <trkpt lat="49.88587" lon="2.00922">
        <ele>62.7</ele>
        <time>2023-05-03T12:23:24Z</time>
      </trkpt>
      <trkpt lat="49.88588" lon="2.00921">
        <ele>62.8</ele>
        <time>2023-05-03T12:23:25Z</time>
      </trkpt>
      <trkpt lat="49.88589" lon="2.00921">
        <ele>62.8</ele>
        <time>2023-05-03T12:23:26Z</time>
      </trkpt>
      <trkpt lat="49.8859" lon="2.0092">
        <ele>62.9</ele>
        <time>2023-05-03T12:23:27Z</time>
      </trkpt>
      <trkpt lat="49.8859" lon="2.00919">
        <ele>62.9</ele>
        <time>2023-05-03T12:23:28Z</time>
      </trkpt>
      <trkpt lat="49.88592" lon="2.00918">
        <ele>63</ele>
        <time>2023-05-03T12:23:29Z</time>
      </trkpt>
      <trkpt lat="49.88593" lon="2.00917">
        <ele>63</ele>
        <time>2023-05-03T12:23:31Z</time>
      </trkpt>
      <trkpt lat="49.88594" lon="2.00916">
        <ele>63</ele>
        <time>2023-05-03T12:23:32Z</time>
      </trkpt>
      <trkpt lat="49.88595" lon="2.00913">
        <ele>63</ele>
        <time>2023-05-03T12:23:34Z</time>
      </trkpt>
      <trkpt lat="49.88595" lon="2.00912">
        <ele>63.1</ele>
        <time>2023-05-03T12:23:35Z</time>
      </trkpt>
      <trkpt lat="49.88595" lon="2.00911">
        <ele>63.1</ele>
        <time>2023-05-03T12:23:36Z</time>
      </trkpt>
      <trkpt lat="49.88596" lon="2.00908">
        <ele>63.1</ele>
        <time>2023-05-03T12:23:37Z</time>
      </trkpt>
      <trkpt lat="49.88597" lon="2.00907">
        <ele>63.1</ele>
        <time>2023-05-03T12:23:38Z</time>
      </trkpt>
      <trkpt lat="49.88597" lon="2.00906">
        <ele>63.1</ele>
        <time>2023-05-03T12:23:39Z</time>
      </trkpt>
      <trkpt lat="49.88597" lon="2.00904">
        <ele>63.1</ele>
        <time>2023-05-03T12:23:40Z</time>
      </trkpt>
      <trkpt lat="49.88597" lon="2.00902">
        <ele>63.1</ele>
        <time>2023-05-03T12:23:41Z</time>
      </trkpt>
      <trkpt lat="49.88597" lon="2.009">
        <ele>63.1</ele>
        <time>2023-05-03T12:23:43Z</time>
      </trkpt>
      <trkpt lat="49.88597" lon="2.00896">
        <ele>63.2</ele>
        <time>2023-05-03T12:23:44Z</time>
      </trkpt>
      <trkpt lat="49.88597" lon="2.00895">
        <ele>63.2</ele>
        <time>2023-05-03T12:23:45Z</time>
      </trkpt>
      <trkpt lat="49.88597" lon="2.00894">
        <ele>63.2</ele>
        <time>2023-05-03T12:23:46Z</time>
      </trkpt>
      <trkpt lat="49.88597" lon="2.00891">
        <ele>63.2</ele>
        <time>2023-05-03T12:23:47Z</time>
      </trkpt>
      <trkpt lat="49.88597" lon="2.00889">
        <ele>63.2</ele>
        <time>2023-05-03T12:23:48Z</time>
      </trkpt>
      <trkpt lat="49.88596" lon="2.00886">
        <ele>63.2</ele>
        <time>2023-05-03T12:23:50Z</time>
      </trkpt>
      <trkpt lat="49.88596" lon="2.00885">
        <ele>63.3</ele>
        <time>2023-05-03T12:23:51Z</time>
      </trkpt>
      <trkpt lat="49.88596" lon="2.00884">
        <ele>63.3</ele>
        <time>2023-05-03T12:23:52Z</time>
      </trkpt>
      <trkpt lat="49.88595" lon="2.0088">
        <ele>63.3</ele>
        <time>2023-05-03T12:23:53Z</time>
      </trkpt>
      <trkpt lat="49.88595" lon="2.00879">
        <ele>63.3</ele>
        <time>2023-05-03T12:23:54Z</time>
      </trkpt>
      <trkpt lat="49.88595" lon="2.00878">
        <ele>63.3</ele>
        <time>2023-05-03T12:23:55Z</time>
      </trkpt>
      <trkpt lat="49.88595" lon="2.00875">
        <ele>63.3</ele>
        <time>2023-05-03T12:23:56Z</time>
      </trkpt>
      <trkpt lat="49.88595" lon="2.00873">
        <ele>63.3</ele>
        <time>2023-05-03T12:23:57Z</time>
      </trkpt>
      <trkpt lat="49.88595" lon="2.00872">
        <ele>63.3</ele>
        <time>2023-05-03T12:23:59Z</time>
      </trkpt>
      <trkpt lat="49.88595" lon="2.0087">
        <ele>63.3</ele>
        <time>2023-05-03T12:24:00Z</time>
      </trkpt>
      <trkpt lat="49.88594" lon="2.00868">
        <ele>63.4</ele>
        <time>2023-05-03T12:24:01Z</time>
      </trkpt>
      <trkpt lat="49.88594" lon="2.00866">
        <ele>63.4</ele>
        <time>2023-05-03T12:24:02Z</time>
      </trkpt>
      <trkpt lat="49.88594" lon="2.00863">
        <ele>63.4</ele>
        <time>2023-05-03T12:24:03Z</time>
      </trkpt>
      <trkpt lat="49.88594" lon="2.00862">
        <ele>63.4</ele>
        <time>2023-05-03T12:24:04Z</time>
      </trkpt>
      <trkpt lat="49.88593" lon="2.0086">
        <ele>63.4</ele>
        <time>2023-05-03T12:24:05Z</time>
      </trkpt>
      <trkpt lat="49.88593" lon="2.00858">
        <ele>63.4</ele>
        <time>2023-05-03T12:24:06Z</time>
      </trkpt>
      <trkpt lat="49.88593" lon="2.00856">
        <ele>63.4</ele>
        <time>2023-05-03T12:24:08Z</time>
      </trkpt>
      <trkpt lat="49.88593" lon="2.00855">
        <ele>63.4</ele>
        <time>2023-05-03T12:24:09Z</time>
      </trkpt>
      <trkpt lat="49.88592" lon="2.00853">
        <ele>63.5</ele>
        <time>2023-05-03T12:24:10Z</time>
      </trkpt>
      <trkpt lat="49.88592" lon="2.00851">
        <ele>63.5</ele>
        <time>2023-05-03T12:24:11Z</time>
      </trkpt>
      <trkpt lat="49.88592" lon="2.00848">
        <ele>63.5</ele>
        <time>2023-05-03T12:24:12Z</time>
      </trkpt>
      <trkpt lat="49.88592" lon="2.00847">
        <ele>63.5</ele>
        <time>2023-05-03T12:24:13Z</time>
      </trkpt>
      <trkpt lat="49.88591" lon="2.00845">
        <ele>63.5</ele>
        <time>2023-05-03T12:24:14Z</time>
      </trkpt>
      <trkpt lat="49.88591" lon="2.00843">
        <ele>63.5</ele>
        <time>2023-05-03T12:24:15Z</time>
      </trkpt>
      <trkpt lat="49.88591" lon="2.00841">
        <ele>63.6</ele>
        <time>2023-05-03T12:24:16Z</time>
      </trkpt>
      <trkpt lat="49.8859" lon="2.0084">
        <ele>63.6</ele>
        <time>2023-05-03T12:24:18Z</time>
      </trkpt>
      <trkpt lat="49.8859" lon="2.00838">
        <ele>63.6</ele>
        <time>2023-05-03T12:24:19Z</time>
      </trkpt>
      <trkpt lat="49.88589" lon="2.00836">
        <ele>63.6</ele>
        <time>2023-05-03T12:24:20Z</time>
      </trkpt>
      <trkpt lat="49.88589" lon="2.00835">
        <ele>63.6</ele>
        <time>2023-05-03T12:24:21Z</time>
      </trkpt>
      <trkpt lat="49.88588" lon="2.00832">
        <ele>63.7</ele>
        <time>2023-05-03T12:24:22Z</time>
      </trkpt>
      <trkpt lat="49.88588" lon="2.0083">
        <ele>63.7</ele>
        <time>2023-05-03T12:24:23Z</time>
      </trkpt>
      <trkpt lat="49.88588" lon="2.00829">
        <ele>63.7</ele>
        <time>2023-05-03T12:24:24Z</time>
      </trkpt>
      <trkpt lat="49.88588" lon="2.00827">
        <ele>63.7</ele>
        <time>2023-05-03T12:24:25Z</time>
      </trkpt>
      <trkpt lat="49.88587" lon="2.00825">
        <ele>63.8</ele>
        <time>2023-05-03T12:24:27Z</time>
      </trkpt>
      <trkpt lat="49.88587" lon="2.00823">
        <ele>63.8</ele>
        <time>2023-05-03T12:24:28Z</time>
      </trkpt>
      <trkpt lat="49.88587" lon="2.00821">
        <ele>63.8</ele>
        <time>2023-05-03T12:24:29Z</time>
      </trkpt>
      <trkpt lat="49.88586" lon="2.0082">
        <ele>63.8</ele>
        <time>2023-05-03T12:24:30Z</time>
      </trkpt>
      <trkpt lat="49.88586" lon="2.00817">
        <ele>63.9</ele>
        <time>2023-05-03T12:24:31Z</time>
      </trkpt>
      <trkpt lat="49.88586" lon="2.00815">
        <ele>63.9</ele>
        <time>2023-05-03T12:24:32Z</time>
      </trkpt>
      <trkpt lat="49.88586" lon="2.00814">
        <ele>63.9</ele>
        <time>2023-05-03T12:24:33Z</time>
      </trkpt>
      <trkpt lat="49.88585" lon="2.00811">
        <ele>63.9</ele>
        <time>2023-05-03T12:24:35Z</time>
      </trkpt>
      <trkpt lat="49.88585" lon="2.0081">
        <ele>63.9</ele>
        <time>2023-05-03T12:24:36Z</time>
      </trkpt>
      <trkpt lat="49.88585" lon="2.00807">
        <ele>64</ele>
        <time>2023-05-03T12:24:37Z</time>
      </trkpt>
      <trkpt lat="49.88585" lon="2.00805">
        <ele>64</ele>
        <time>2023-05-03T12:24:38Z</time>
      </trkpt>
      <trkpt lat="49.88584" lon="2.00804">
        <ele>64</ele>
        <time>2023-05-03T12:24:39Z</time>
      </trkpt>
      <trkpt lat="49.88584" lon="2.00802">
        <ele>64</ele>
        <time>2023-05-03T12:24:41Z</time>
      </trkpt>
      <trkpt lat="49.88584" lon="2.008">
        <ele>64</ele>
        <time>2023-05-03T12:24:42Z</time>
      </trkpt>
      <trkpt lat="49.88583" lon="2.00797">
        <ele>64</ele>
        <time>2023-05-03T12:24:43Z</time>
      </trkpt>
      <trkpt lat="49.88583" lon="2.00795">
        <ele>64.1</ele>
        <time>2023-05-03T12:24:44Z</time>
      </trkpt>
      <trkpt lat="49.88582" lon="2.00792">
        <ele>64.1</ele>
        <time>2023-05-03T12:24:45Z</time>
      </trkpt>
      <trkpt lat="49.88582" lon="2.00791">
        <ele>64.1</ele>
        <time>2023-05-03T12:24:46Z</time>
      </trkpt>
      <trkpt lat="49.88582" lon="2.0079">
        <ele>64.1</ele>
        <time>2023-05-03T12:24:47Z</time>
      </trkpt>
      <trkpt lat="49.88582" lon="2.00788">
        <ele>64.1</ele>
        <time>2023-05-03T12:24:48Z</time>
      </trkpt>
      <trkpt lat="49.88582" lon="2.00786">
        <ele>64.1</ele>
        <time>2023-05-03T12:24:49Z</time>
      </trkpt>
      <trkpt lat="49.88581" lon="2.00783">
        <ele>64.2</ele>
        <time>2023-05-03T12:24:51Z</time>
      </trkpt>
      <trkpt lat="49.88581" lon="2.00781">
        <ele>64.2</ele>
        <time>2023-05-03T12:24:52Z</time>
      </trkpt>
      <trkpt lat="49.88581" lon="2.00778">
        <ele>64.2</ele>
        <time>2023-05-03T12:24:53Z</time>
      </trkpt>
      <trkpt lat="49.88581" lon="2.00774">
        <ele>64.3</ele>
        <time>2023-05-03T12:24:54Z</time>
      </trkpt>
      <trkpt lat="49.88581" lon="2.00773">
        <ele>64.3</ele>
        <time>2023-05-03T12:24:56Z</time>
      </trkpt>
      <trkpt lat="49.88581" lon="2.00771">
        <ele>64.3</ele>
        <time>2023-05-03T12:24:57Z</time>
      </trkpt>
      <trkpt lat="49.88581" lon="2.00769">
        <ele>64.3</ele>
        <time>2023-05-03T12:24:58Z</time>
      </trkpt>
      <trkpt lat="49.88581" lon="2.00768">
        <ele>64.3</ele>
        <time>2023-05-03T12:24:59Z</time>
      </trkpt>
      <trkpt lat="49.88581" lon="2.00766">
        <ele>64.4</ele>
        <time>2023-05-03T12:25:00Z</time>
      </trkpt>
      <trkpt lat="49.88581" lon="2.00764">
        <ele>64.4</ele>
        <time>2023-05-03T12:25:01Z</time>
      </trkpt>
      <trkpt lat="49.88581" lon="2.00761">
        <ele>64.4</ele>
        <time>2023-05-03T12:25:03Z</time>
      </trkpt>
      <trkpt lat="49.88581" lon="2.00758">
        <ele>64.5</ele>
        <time>2023-05-03T12:25:04Z</time>
      </trkpt>
      <trkpt lat="49.8858" lon="2.00756">
        <ele>64.5</ele>
        <time>2023-05-03T12:25:05Z</time>
      </trkpt>
      <trkpt lat="49.8858" lon="2.00752">
        <ele>64.6</ele>
        <time>2023-05-03T12:25:06Z</time>
      </trkpt>
      <trkpt lat="49.8858" lon="2.0075">
        <ele>64.6</ele>
        <time>2023-05-03T12:25:08Z</time>
      </trkpt>
      <trkpt lat="49.8858" lon="2.00748">
        <ele>64.6</ele>
        <time>2023-05-03T12:25:09Z</time>
      </trkpt>
      <trkpt lat="49.8858" lon="2.00747">
        <ele>64.6</ele>
        <time>2023-05-03T12:25:10Z</time>
      </trkpt>
      <trkpt lat="49.8858" lon="2.00745">
        <ele>64.7</ele>
        <time>2023-05-03T12:25:11Z</time>
      </trkpt>
      <trkpt lat="49.88579" lon="2.00742">
        <ele>64.7</ele>
        <time>2023-05-03T12:25:12Z</time>
      </trkpt>
      <trkpt lat="49.88579" lon="2.0074">
        <ele>64.7</ele>
        <time>2023-05-03T12:25:13Z</time>
      </trkpt>
      <trkpt lat="49.88579" lon="2.00737">
        <ele>64.8</ele>
        <time>2023-05-03T12:25:15Z</time>
      </trkpt>
      <trkpt lat="49.88579" lon="2.00736">
        <ele>64.8</ele>
        <time>2023-05-03T12:25:16Z</time>
      </trkpt>
      <trkpt lat="49.88579" lon="2.00734">
        <ele>64.8</ele>
        <time>2023-05-03T12:25:17Z</time>
      </trkpt>
      <trkpt lat="49.88578" lon="2.00731">
        <ele>64.9</ele>
        <time>2023-05-03T12:25:18Z</time>
      </trkpt>
      <trkpt lat="49.88578" lon="2.0073">
        <ele>64.9</ele>
        <time>2023-05-03T12:25:19Z</time>
      </trkpt>
      <trkpt lat="49.88578" lon="2.00729">
        <ele>64.9</ele>
        <time>2023-05-03T12:25:20Z</time>
      </trkpt>
      <trkpt lat="49.88578" lon="2.00727">
        <ele>64.9</ele>
        <time>2023-05-03T12:25:21Z</time>
      </trkpt>
      <trkpt lat="49.88578" lon="2.00725">
        <ele>65</ele>
        <time>2023-05-03T12:25:22Z</time>
      </trkpt>
      <trkpt lat="49.88578" lon="2.00722">
        <ele>65</ele>
        <time>2023-05-03T12:25:24Z</time>
      </trkpt>
      <trkpt lat="49.88578" lon="2.0072">
        <ele>65</ele>
        <time>2023-05-03T12:25:25Z</time>
      </trkpt>
      <trkpt lat="49.88578" lon="2.00719">
        <ele>65.1</ele>
        <time>2023-05-03T12:25:26Z</time>
      </trkpt>
      <trkpt lat="49.88578" lon="2.00715">
        <ele>65.1</ele>
        <time>2023-05-03T12:25:28Z</time>
      </trkpt>
      <trkpt lat="49.88578" lon="2.00712">
        <ele>65.2</ele>
        <time>2023-05-03T12:25:29Z</time>
      </trkpt>
      <trkpt lat="49.88578" lon="2.0071">
        <ele>65.2</ele>
        <time>2023-05-03T12:25:30Z</time>
      </trkpt>
      <trkpt lat="49.88578" lon="2.00709">
        <ele>65.2</ele>
        <time>2023-05-03T12:25:31Z</time>
      </trkpt>
      <trkpt lat="49.88577" lon="2.00707">
        <ele>65.2</ele>
        <time>2023-05-03T12:25:33Z</time>
      </trkpt>
      <trkpt lat="49.88577" lon="2.00705">
        <ele>65.3</ele>
        <time>2023-05-03T12:25:34Z</time>
      </trkpt>
      <trkpt lat="49.88577" lon="2.00702">
        <ele>65.3</ele>
        <time>2023-05-03T12:25:35Z</time>
      </trkpt>
      <trkpt lat="49.88577" lon="2.007">
        <ele>65.3</ele>
        <time>2023-05-03T12:25:36Z</time>
      </trkpt>
      <trkpt lat="49.88577" lon="2.00699">
        <ele>65.3</ele>
        <time>2023-05-03T12:25:37Z</time>
      </trkpt>
      <trkpt lat="49.88577" lon="2.00696">
        <ele>65.4</ele>
        <time>2023-05-03T12:25:38Z</time>
      </trkpt>
      <trkpt lat="49.88577" lon="2.00694">
        <ele>65.4</ele>
        <time>2023-05-03T12:25:39Z</time>
      </trkpt>
      <trkpt lat="49.88577" lon="2.00693">
        <ele>65.4</ele>
        <time>2023-05-03T12:25:40Z</time>
      </trkpt>
      <trkpt lat="49.88577" lon="2.00691">
        <ele>65.4</ele>
        <time>2023-05-03T12:25:42Z</time>
      </trkpt>
      <trkpt lat="49.88576" lon="2.00689">
        <ele>65.5</ele>
        <time>2023-05-03T12:25:43Z</time>
      </trkpt>
      <trkpt lat="49.88576" lon="2.00685">
        <ele>65.5</ele>
        <time>2023-05-03T12:25:44Z</time>
      </trkpt>
      <trkpt lat="49.88576" lon="2.00684">
        <ele>65.5</ele>
        <time>2023-05-03T12:25:45Z</time>
      </trkpt>
      <trkpt lat="49.88576" lon="2.00683">
        <ele>65.5</ele>
        <time>2023-05-03T12:25:46Z</time>
      </trkpt>
      <trkpt lat="49.88576" lon="2.0068">
        <ele>65.6</ele>
        <time>2023-05-03T12:25:48Z</time>
      </trkpt>
      <trkpt lat="49.88576" lon="2.00678">
        <ele>65.6</ele>
        <time>2023-05-03T12:25:49Z</time>
      </trkpt>
      <trkpt lat="49.88576" lon="2.00676">
        <ele>65.6</ele>
        <time>2023-05-03T12:25:50Z</time>
      </trkpt>
      <trkpt lat="49.88575" lon="2.00674">
        <ele>65.6</ele>
        <time>2023-05-03T12:25:51Z</time>
      </trkpt>
      <trkpt lat="49.88575" lon="2.00672">
        <ele>65.6</ele>
        <time>2023-05-03T12:25:52Z</time>
      </trkpt>
      <trkpt lat="49.88575" lon="2.0067">
        <ele>65.7</ele>
        <time>2023-05-03T12:25:53Z</time>
      </trkpt>
      <trkpt lat="49.88575" lon="2.00666">
        <ele>65.7</ele>
        <time>2023-05-03T12:25:55Z</time>
      </trkpt>
      <trkpt lat="49.88574" lon="2.00664">
        <ele>65.7</ele>
        <time>2023-05-03T12:25:56Z</time>
      </trkpt>
      <trkpt lat="49.88574" lon="2.00662">
        <ele>65.7</ele>
        <time>2023-05-03T12:25:57Z</time>
      </trkpt>
      <trkpt lat="49.88574" lon="2.0066">
        <ele>65.7</ele>
        <time>2023-05-03T12:25:58Z</time>
      </trkpt>
      <trkpt lat="49.88574" lon="2.00658">
        <ele>65.7</ele>
        <time>2023-05-03T12:25:59Z</time>
      </trkpt>
      <trkpt lat="49.88573" lon="2.00656">
        <ele>65.8</ele>
        <time>2023-05-03T12:26:01Z</time>
      </trkpt>
      <trkpt lat="49.88573" lon="2.00654">
        <ele>65.8</ele>
        <time>2023-05-03T12:26:02Z</time>
      </trkpt>
      <trkpt lat="49.88573" lon="2.00653">
        <ele>65.8</ele>
        <time>2023-05-03T12:26:03Z</time>
      </trkpt>
      <trkpt lat="49.88573" lon="2.00649">
        <ele>65.8</ele>
        <time>2023-05-03T12:26:04Z</time>
      </trkpt>
      <trkpt lat="49.88572" lon="2.00648">
        <ele>65.8</ele>
        <time>2023-05-03T12:26:06Z</time>
      </trkpt>
      <trkpt lat="49.88572" lon="2.00646">
        <ele>65.8</ele>
        <time>2023-05-03T12:26:07Z</time>
      </trkpt>
      <trkpt lat="49.88572" lon="2.00644">
        <ele>65.9</ele>
        <time>2023-05-03T12:26:08Z</time>
      </trkpt>
      <trkpt lat="49.88572" lon="2.00643">
        <ele>65.9</ele>
        <time>2023-05-03T12:26:09Z</time>
      </trkpt>
      <trkpt lat="49.88571" lon="2.00641">
        <ele>65.9</ele>
        <time>2023-05-03T12:26:10Z</time>
      </trkpt>
      <trkpt lat="49.88571" lon="2.0064">
        <ele>65.9</ele>
        <time>2023-05-03T12:26:11Z</time>
      </trkpt>
      <trkpt lat="49.8857" lon="2.00638">
        <ele>65.9</ele>
        <time>2023-05-03T12:26:12Z</time>
      </trkpt>
      <trkpt lat="49.8857" lon="2.00636">
        <ele>65.9</ele>
        <time>2023-05-03T12:26:13Z</time>
      </trkpt>
      <trkpt lat="49.88569" lon="2.00635">
        <ele>66</ele>
        <time>2023-05-03T12:26:14Z</time>
      </trkpt>
      <trkpt lat="49.88569" lon="2.00632">
        <ele>66</ele>
        <time>2023-05-03T12:26:16Z</time>
      </trkpt>
      <trkpt lat="49.88568" lon="2.0063">
        <ele>66</ele>
        <time>2023-05-03T12:26:17Z</time>
      </trkpt>
      <trkpt lat="49.88568" lon="2.00628">
        <ele>66</ele>
        <time>2023-05-03T12:26:18Z</time>
      </trkpt>
      <trkpt lat="49.88567" lon="2.00626">
        <ele>66.1</ele>
        <time>2023-05-03T12:26:19Z</time>
      </trkpt>
      <trkpt lat="49.88567" lon="2.00624">
        <ele>66.1</ele>
        <time>2023-05-03T12:26:20Z</time>
      </trkpt>
      <trkpt lat="49.88566" lon="2.00621">
        <ele>66.2</ele>
        <time>2023-05-03T12:26:22Z</time>
      </trkpt>
      <trkpt lat="49.88566" lon="2.00619">
        <ele>66.2</ele>
        <time>2023-05-03T12:26:23Z</time>
      </trkpt>
      <trkpt lat="49.88566" lon="2.00618">
        <ele>66.2</ele>
        <time>2023-05-03T12:26:24Z</time>
      </trkpt>
      <trkpt lat="49.88566" lon="2.00615">
        <ele>66.3</ele>
        <time>2023-05-03T12:26:25Z</time>
      </trkpt>
      <trkpt lat="49.88566" lon="2.00613">
        <ele>66.3</ele>
        <time>2023-05-03T12:26:26Z</time>
      </trkpt>
      <trkpt lat="49.88566" lon="2.00612">
        <ele>66.3</ele>
        <time>2023-05-03T12:26:27Z</time>
      </trkpt>
      <trkpt lat="49.88566" lon="2.00609">
        <ele>66.4</ele>
        <time>2023-05-03T12:26:28Z</time>
      </trkpt>
      <trkpt lat="49.88566" lon="2.00607">
        <ele>66.4</ele>
        <time>2023-05-03T12:26:29Z</time>
      </trkpt>
      <trkpt lat="49.88566" lon="2.00606">
        <ele>66.4</ele>
        <time>2023-05-03T12:26:30Z</time>
      </trkpt>
      <trkpt lat="49.88565" lon="2.00603">
        <ele>66.5</ele>
        <time>2023-05-03T12:26:32Z</time>
      </trkpt>
      <trkpt lat="49.88565" lon="2.00601">
        <ele>66.5</ele>
        <time>2023-05-03T12:26:33Z</time>
      </trkpt>
      <trkpt lat="49.88565" lon="2.006">
        <ele>66.5</ele>
        <time>2023-05-03T12:26:34Z</time>
      </trkpt>
      <trkpt lat="49.88565" lon="2.00597">
        <ele>66.6</ele>
        <time>2023-05-03T12:26:35Z</time>
      </trkpt>
      <trkpt lat="49.88565" lon="2.00595">
        <ele>66.6</ele>
        <time>2023-05-03T12:26:36Z</time>
      </trkpt>
      <trkpt lat="49.88565" lon="2.00594">
        <ele>66.6</ele>
        <time>2023-05-03T12:26:37Z</time>
      </trkpt>
      <trkpt lat="49.88565" lon="2.00592">
        <ele>66.7</ele>
        <time>2023-05-03T12:26:38Z</time>
      </trkpt>
      <trkpt lat="49.88565" lon="2.00589">
        <ele>66.7</ele>
        <time>2023-05-03T12:26:39Z</time>
      </trkpt>
      <trkpt lat="49.88565" lon="2.00585">
        <ele>66.8</ele>
        <time>2023-05-03T12:26:40Z</time>
      </trkpt>
      <trkpt lat="49.88565" lon="2.00583">
        <ele>66.8</ele>
        <time>2023-05-03T12:26:42Z</time>
      </trkpt>
      <trkpt lat="49.88565" lon="2.00582">
        <ele>66.8</ele>
        <time>2023-05-03T12:26:43Z</time>
      </trkpt>
      <trkpt lat="49.88565" lon="2.0058">
        <ele>66.8</ele>
        <time>2023-05-03T12:26:44Z</time>
      </trkpt>
      <trkpt lat="49.88565" lon="2.00578">
        <ele>66.9</ele>
        <time>2023-05-03T12:26:45Z</time>
      </trkpt>
      <trkpt lat="49.88565" lon="2.00576">
        <ele>66.9</ele>
        <time>2023-05-03T12:26:46Z</time>
      </trkpt>
      <trkpt lat="49.88565" lon="2.00574">
        <ele>66.9</ele>
        <time>2023-05-03T12:26:47Z</time>
      </trkpt>
      <trkpt lat="49.88566" lon="2.00571">
        <ele>67</ele>
        <time>2023-05-03T12:26:48Z</time>
      </trkpt>
      <trkpt lat="49.88566" lon="2.00569">
        <ele>67</ele>
        <time>2023-05-03T12:26:49Z</time>
      </trkpt>
      <trkpt lat="49.88566" lon="2.00567">
        <ele>67.1</ele>
        <time>2023-05-03T12:26:50Z</time>
      </trkpt>
      <trkpt lat="49.88566" lon="2.00565">
        <ele>67.1</ele>
        <time>2023-05-03T12:26:51Z</time>
      </trkpt>
      <trkpt lat="49.88567" lon="2.00561">
        <ele>67.1</ele>
        <time>2023-05-03T12:26:53Z</time>
      </trkpt>
      <trkpt lat="49.88567" lon="2.0056">
        <ele>67.2</ele>
        <time>2023-05-03T12:26:54Z</time>
      </trkpt>
      <trkpt lat="49.88567" lon="2.00558">
        <ele>67.2</ele>
        <time>2023-05-03T12:26:55Z</time>
      </trkpt>
      <trkpt lat="49.88567" lon="2.00556">
        <ele>67.2</ele>
        <time>2023-05-03T12:26:56Z</time>
      </trkpt>
      <trkpt lat="49.88567" lon="2.00554">
        <ele>67.2</ele>
        <time>2023-05-03T12:26:57Z</time>
      </trkpt>
      <trkpt lat="49.88567" lon="2.00551">
        <ele>67.3</ele>
        <time>2023-05-03T12:26:59Z</time>
      </trkpt>
      <trkpt lat="49.88568" lon="2.00549">
        <ele>67.3</ele>
        <time>2023-05-03T12:27:00Z</time>
      </trkpt>
      <trkpt lat="49.88568" lon="2.00546">
        <ele>67.3</ele>
        <time>2023-05-03T12:27:01Z</time>
      </trkpt>
      <trkpt lat="49.88568" lon="2.00544">
        <ele>67.4</ele>
        <time>2023-05-03T12:27:02Z</time>
      </trkpt>
      <trkpt lat="49.88568" lon="2.00542">
        <ele>67.4</ele>
        <time>2023-05-03T12:27:03Z</time>
      </trkpt>
      <trkpt lat="49.88568" lon="2.0054">
        <ele>67.4</ele>
        <time>2023-05-03T12:27:04Z</time>
      </trkpt>
      <trkpt lat="49.88568" lon="2.00538">
        <ele>67.4</ele>
        <time>2023-05-03T12:27:05Z</time>
      </trkpt>
      <trkpt lat="49.88568" lon="2.00533">
        <ele>67.5</ele>
        <time>2023-05-03T12:27:07Z</time>
      </trkpt>
      <trkpt lat="49.88568" lon="2.0053">
        <ele>67.5</ele>
        <time>2023-05-03T12:27:09Z</time>
      </trkpt>
      <trkpt lat="49.88568" lon="2.00529">
        <ele>67.5</ele>
        <time>2023-05-03T12:27:10Z</time>
      </trkpt>
      <trkpt lat="49.88567" lon="2.00527">
        <ele>67.6</ele>
        <time>2023-05-03T12:27:11Z</time>
      </trkpt>
      <trkpt lat="49.88567" lon="2.00524">
        <ele>67.6</ele>
        <time>2023-05-03T12:27:12Z</time>
      </trkpt>
      <trkpt lat="49.88567" lon="2.00521">
        <ele>67.6</ele>
        <time>2023-05-03T12:27:13Z</time>
      </trkpt>
      <trkpt lat="49.88567" lon="2.0052">
        <ele>67.7</ele>
        <time>2023-05-03T12:27:14Z</time>
      </trkpt>
      <trkpt lat="49.88567" lon="2.00519">
        <ele>67.7</ele>
        <time>2023-05-03T12:27:15Z</time>
      </trkpt>
      <trkpt lat="49.88567" lon="2.00516">
        <ele>67.7</ele>
        <time>2023-05-03T12:27:16Z</time>
      </trkpt>
      <trkpt lat="49.88567" lon="2.00514">
        <ele>67.7</ele>
        <time>2023-05-03T12:27:17Z</time>
      </trkpt>
      <trkpt lat="49.88567" lon="2.00512">
        <ele>67.8</ele>
        <time>2023-05-03T12:27:18Z</time>
      </trkpt>
      <trkpt lat="49.88566" lon="2.0051">
        <ele>67.8</ele>
        <time>2023-05-03T12:27:20Z</time>
      </trkpt>
      <trkpt lat="49.88566" lon="2.00508">
        <ele>67.8</ele>
        <time>2023-05-03T12:27:21Z</time>
      </trkpt>
      <trkpt lat="49.88566" lon="2.00506">
        <ele>67.9</ele>
        <time>2023-05-03T12:27:22Z</time>
      </trkpt>
      <trkpt lat="49.88566" lon="2.00503">
        <ele>67.9</ele>
        <time>2023-05-03T12:27:23Z</time>
      </trkpt>
      <trkpt lat="49.88566" lon="2.00501">
        <ele>67.9</ele>
        <time>2023-05-03T12:27:24Z</time>
      </trkpt>
      <trkpt lat="49.88567" lon="2.00499">
        <ele>68</ele>
        <time>2023-05-03T12:27:25Z</time>
      </trkpt>
      <trkpt lat="49.88567" lon="2.00497">
        <ele>68</ele>
        <time>2023-05-03T12:27:26Z</time>
      </trkpt>
      <trkpt lat="49.88567" lon="2.00495">
        <ele>68</ele>
        <time>2023-05-03T12:27:28Z</time>
      </trkpt>
      <trkpt lat="49.88567" lon="2.00492">
        <ele>68.1</ele>
        <time>2023-05-03T12:27:29Z</time>
      </trkpt>
      <trkpt lat="49.88567" lon="2.00491">
        <ele>68.1</ele>
        <time>2023-05-03T12:27:30Z</time>
      </trkpt>
      <trkpt lat="49.88567" lon="2.00489">
        <ele>68.1</ele>
        <time>2023-05-03T12:27:31Z</time>
      </trkpt>
      <trkpt lat="49.88568" lon="2.00486">
        <ele>68.2</ele>
        <time>2023-05-03T12:27:32Z</time>
      </trkpt>
      <trkpt lat="49.88568" lon="2.00485">
        <ele>68.2</ele>
        <time>2023-05-03T12:27:33Z</time>
      </trkpt>
      <trkpt lat="49.88568" lon="2.00484">
        <ele>68.2</ele>
        <time>2023-05-03T12:27:34Z</time>
      </trkpt>
      <trkpt lat="49.88568" lon="2.00482">
        <ele>68.3</ele>
        <time>2023-05-03T12:27:35Z</time>
      </trkpt>
      <trkpt lat="49.88568" lon="2.0048">
        <ele>68.3</ele>
        <time>2023-05-03T12:27:36Z</time>
      </trkpt>
      <trkpt lat="49.88568" lon="2.00477">
        <ele>68.3</ele>
        <time>2023-05-03T12:27:38Z</time>
      </trkpt>
      <trkpt lat="49.88568" lon="2.00474">
        <ele>68.4</ele>
        <time>2023-05-03T12:27:40Z</time>
      </trkpt>
      <trkpt lat="49.88568" lon="2.00471">
        <ele>68.4</ele>
        <time>2023-05-03T12:27:41Z</time>
      </trkpt>
      <trkpt lat="49.88568" lon="2.00468">
        <ele>68.5</ele>
        <time>2023-05-03T12:27:42Z</time>
      </trkpt>
      <trkpt lat="49.88568" lon="2.00467">
        <ele>68.5</ele>
        <time>2023-05-03T12:27:43Z</time>
      </trkpt>
      <trkpt lat="49.88568" lon="2.00465">
        <ele>68.5</ele>
        <time>2023-05-03T12:27:44Z</time>
      </trkpt>
      <trkpt lat="49.88568" lon="2.00463">
        <ele>68.5</ele>
        <time>2023-05-03T12:27:45Z</time>
      </trkpt>
      <trkpt lat="49.88568" lon="2.00461">
        <ele>68.6</ele>
        <time>2023-05-03T12:27:46Z</time>
      </trkpt>
      <trkpt lat="49.88568" lon="2.00459">
        <ele>68.6</ele>
        <time>2023-05-03T12:27:48Z</time>
      </trkpt>
      <trkpt lat="49.88568" lon="2.00456">
        <ele>68.7</ele>
        <time>2023-05-03T12:27:49Z</time>
      </trkpt>
      <trkpt lat="49.88568" lon="2.00455">
        <ele>68.7</ele>
        <time>2023-05-03T12:27:50Z</time>
      </trkpt>
      <trkpt lat="49.88568" lon="2.00453">
        <ele>68.7</ele>
        <time>2023-05-03T12:27:51Z</time>
      </trkpt>
      <trkpt lat="49.88568" lon="2.00451">
        <ele>68.7</ele>
        <time>2023-05-03T12:27:52Z</time>
      </trkpt>
      <trkpt lat="49.88568" lon="2.00449">
        <ele>68.8</ele>
        <time>2023-05-03T12:27:53Z</time>
      </trkpt>
      <trkpt lat="49.88568" lon="2.00446">
        <ele>68.8</ele>
        <time>2023-05-03T12:27:55Z</time>
      </trkpt>
      <trkpt lat="49.88568" lon="2.00444">
        <ele>68.8</ele>
        <time>2023-05-03T12:27:56Z</time>
      </trkpt>
      <trkpt lat="49.88568" lon="2.00443">
        <ele>68.9</ele>
        <time>2023-05-03T12:27:57Z</time>
      </trkpt>
      <trkpt lat="49.88568" lon="2.00441">
        <ele>68.9</ele>
        <time>2023-05-03T12:27:58Z</time>
      </trkpt>
      <trkpt lat="49.88567" lon="2.00437">
        <ele>68.9</ele>
        <time>2023-05-03T12:27:59Z</time>
      </trkpt>
      <trkpt lat="49.88567" lon="2.00436">
        <ele>69</ele>
        <time>2023-05-03T12:28:00Z</time>
      </trkpt>
      <trkpt lat="49.88567" lon="2.00435">
        <ele>69</ele>
        <time>2023-05-03T12:28:01Z</time>
      </trkpt>
      <trkpt lat="49.88567" lon="2.00431">
        <ele>69</ele>
        <time>2023-05-03T12:28:03Z</time>
      </trkpt>
      <trkpt lat="49.88567" lon="2.00429">
        <ele>69.1</ele>
        <time>2023-05-03T12:28:05Z</time>
      </trkpt>
      <trkpt lat="49.88566" lon="2.00425">
        <ele>69.1</ele>
        <time>2023-05-03T12:28:06Z</time>
      </trkpt>
      <trkpt lat="49.88566" lon="2.00424">
        <ele>69.1</ele>
        <time>2023-05-03T12:28:07Z</time>
      </trkpt>
      <trkpt lat="49.88566" lon="2.00423">
        <ele>69.1</ele>
        <time>2023-05-03T12:28:08Z</time>
      </trkpt>
      <trkpt lat="49.88566" lon="2.00419">
        <ele>69.2</ele>
        <time>2023-05-03T12:28:09Z</time>
      </trkpt>
      <trkpt lat="49.88566" lon="2.00418">
        <ele>69.2</ele>
        <time>2023-05-03T12:28:10Z</time>
      </trkpt>
      <trkpt lat="49.88566" lon="2.00416">
        <ele>69.2</ele>
        <time>2023-05-03T12:28:11Z</time>
      </trkpt>
      <trkpt lat="49.88566" lon="2.00414">
        <ele>69.2</ele>
        <time>2023-05-03T12:28:12Z</time>
      </trkpt>
      <trkpt lat="49.88566" lon="2.00412">
        <ele>69.3</ele>
        <time>2023-05-03T12:28:14Z</time>
      </trkpt>
      <trkpt lat="49.88566" lon="2.0041">
        <ele>69.3</ele>
        <time>2023-05-03T12:28:15Z</time>
      </trkpt>
      <trkpt lat="49.88566" lon="2.00408">
        <ele>69.3</ele>
        <time>2023-05-03T12:28:16Z</time>
      </trkpt>
      <trkpt lat="49.88566" lon="2.00404">
        <ele>69.3</ele>
        <time>2023-05-03T12:28:17Z</time>
      </trkpt>
      <trkpt lat="49.88567" lon="2.00403">
        <ele>69.3</ele>
        <time>2023-05-03T12:28:18Z</time>
      </trkpt>
      <trkpt lat="49.88567" lon="2.00401">
        <ele>69.3</ele>
        <time>2023-05-03T12:28:19Z</time>
      </trkpt>
      <trkpt lat="49.88567" lon="2.00399">
        <ele>69.4</ele>
        <time>2023-05-03T12:28:20Z</time>
      </trkpt>
      <trkpt lat="49.88567" lon="2.00397">
        <ele>69.4</ele>
        <time>2023-05-03T12:28:21Z</time>
      </trkpt>
      <trkpt lat="49.88567" lon="2.00395">
        <ele>69.4</ele>
        <time>2023-05-03T12:28:22Z</time>
      </trkpt>
      <trkpt lat="49.88567" lon="2.00393">
        <ele>69.4</ele>
        <time>2023-05-03T12:28:24Z</time>
      </trkpt>
      <trkpt lat="49.88567" lon="2.00391">
        <ele>69.4</ele>
        <time>2023-05-03T12:28:25Z</time>
      </trkpt>
      <trkpt lat="49.88567" lon="2.00389">
        <ele>69.5</ele>
        <time>2023-05-03T12:28:26Z</time>
      </trkpt>
      <trkpt lat="49.88567" lon="2.00387">
        <ele>69.5</ele>
        <time>2023-05-03T12:28:27Z</time>
      </trkpt>
      <trkpt lat="49.88567" lon="2.00384">
        <ele>69.5</ele>
        <time>2023-05-03T12:28:28Z</time>
      </trkpt>
      <trkpt lat="49.88567" lon="2.00383">
        <ele>69.5</ele>
        <time>2023-05-03T12:28:29Z</time>
      </trkpt>
      <trkpt lat="49.88567" lon="2.00381">
        <ele>69.5</ele>
        <time>2023-05-03T12:28:30Z</time>
      </trkpt>
      <trkpt lat="49.88567" lon="2.0038">
        <ele>69.5</ele>
        <time>2023-05-03T12:28:31Z</time>
      </trkpt>
      <trkpt lat="49.88567" lon="2.00377">
        <ele>69.6</ele>
        <time>2023-05-03T12:28:33Z</time>
      </trkpt>
      <trkpt lat="49.88567" lon="2.00376">
        <ele>69.6</ele>
        <time>2023-05-03T12:28:34Z</time>
      </trkpt>
      <trkpt lat="49.88567" lon="2.00374">
        <ele>69.6</ele>
        <time>2023-05-03T12:28:35Z</time>
      </trkpt>
      <trkpt lat="49.88567" lon="2.00372">
        <ele>69.6</ele>
        <time>2023-05-03T12:28:36Z</time>
      </trkpt>
      <trkpt lat="49.88567" lon="2.00371">
        <ele>69.7</ele>
        <time>2023-05-03T12:28:37Z</time>
      </trkpt>
      <trkpt lat="49.88567" lon="2.00369">
        <ele>69.7</ele>
        <time>2023-05-03T12:28:38Z</time>
      </trkpt>
      <trkpt lat="49.88567" lon="2.00367">
        <ele>69.7</ele>
        <time>2023-05-03T12:28:39Z</time>
      </trkpt>
      <trkpt lat="49.88568" lon="2.00363">
        <ele>69.8</ele>
        <time>2023-05-03T12:28:40Z</time>
      </trkpt>
      <trkpt lat="49.88568" lon="2.00362">
        <ele>69.8</ele>
        <time>2023-05-03T12:28:42Z</time>
      </trkpt>
      <trkpt lat="49.88568" lon="2.0036">
        <ele>69.8</ele>
        <time>2023-05-03T12:28:43Z</time>
      </trkpt>
      <trkpt lat="49.88568" lon="2.00358">
        <ele>69.8</ele>
        <time>2023-05-03T12:28:44Z</time>
      </trkpt>
      <trkpt lat="49.88568" lon="2.00356">
        <ele>69.9</ele>
        <time>2023-05-03T12:28:45Z</time>
      </trkpt>
      <trkpt lat="49.88568" lon="2.00354">
        <ele>69.9</ele>
        <time>2023-05-03T12:28:47Z</time>
      </trkpt>
      <trkpt lat="49.88568" lon="2.00352">
        <ele>70</ele>
        <time>2023-05-03T12:28:48Z</time>
      </trkpt>
      <trkpt lat="49.88568" lon="2.0035">
        <ele>70</ele>
        <time>2023-05-03T12:28:49Z</time>
      </trkpt>
      <trkpt lat="49.88568" lon="2.00349">
        <ele>70</ele>
        <time>2023-05-03T12:28:50Z</time>
      </trkpt>
      <trkpt lat="49.88568" lon="2.00347">
        <ele>70</ele>
        <time>2023-05-03T12:28:51Z</time>
      </trkpt>
      <trkpt lat="49.88568" lon="2.00345">
        <ele>70.1</ele>
        <time>2023-05-03T12:28:52Z</time>
      </trkpt>
      <trkpt lat="49.88567" lon="2.00343">
        <ele>70.1</ele>
        <time>2023-05-03T12:28:53Z</time>
      </trkpt>
      <trkpt lat="49.88567" lon="2.0034">
        <ele>70.2</ele>
        <time>2023-05-03T12:28:55Z</time>
      </trkpt>
      <trkpt lat="49.88567" lon="2.00337">
        <ele>70.2</ele>
        <time>2023-05-03T12:28:56Z</time>
      </trkpt>
      <trkpt lat="49.88567" lon="2.00336">
        <ele>70.2</ele>
        <time>2023-05-03T12:28:57Z</time>
      </trkpt>
      <trkpt lat="49.88566" lon="2.00334">
        <ele>70.2</ele>
        <time>2023-05-03T12:28:58Z</time>
      </trkpt>
      <trkpt lat="49.88566" lon="2.00331">
        <ele>70.3</ele>
        <time>2023-05-03T12:28:59Z</time>
      </trkpt>
      <trkpt lat="49.88565" lon="2.0033">
        <ele>70.3</ele>
        <time>2023-05-03T12:29:01Z</time>
      </trkpt>
      <trkpt lat="49.88565" lon="2.00329">
        <ele>70.3</ele>
        <time>2023-05-03T12:29:02Z</time>
      </trkpt>
      <trkpt lat="49.88564" lon="2.00326">
        <ele>70.4</ele>
        <time>2023-05-03T12:29:03Z</time>
      </trkpt>
      <trkpt lat="49.88564" lon="2.00324">
        <ele>70.4</ele>
        <time>2023-05-03T12:29:04Z</time>
      </trkpt>
      <trkpt lat="49.88564" lon="2.00323">
        <ele>70.4</ele>
        <time>2023-05-03T12:29:05Z</time>
      </trkpt>
      <trkpt lat="49.88563" lon="2.00321">
        <ele>70.5</ele>
        <time>2023-05-03T12:29:06Z</time>
      </trkpt>
      <trkpt lat="49.88563" lon="2.00319">
        <ele>70.5</ele>
        <time>2023-05-03T12:29:07Z</time>
      </trkpt>
      <trkpt lat="49.88562" lon="2.00317">
        <ele>70.5</ele>
        <time>2023-05-03T12:29:09Z</time>
      </trkpt>
      <trkpt lat="49.88561" lon="2.00314">
        <ele>70.6</ele>
        <time>2023-05-03T12:29:10Z</time>
      </trkpt>
      <trkpt lat="49.88561" lon="2.00313">
        <ele>70.6</ele>
        <time>2023-05-03T12:29:11Z</time>
      </trkpt>
      <trkpt lat="49.88561" lon="2.00311">
        <ele>70.6</ele>
        <time>2023-05-03T12:29:12Z</time>
      </trkpt>
      <trkpt lat="49.8856" lon="2.00308">
        <ele>70.7</ele>
        <time>2023-05-03T12:29:13Z</time>
      </trkpt>
      <trkpt lat="49.8856" lon="2.00307">
        <ele>70.7</ele>
        <time>2023-05-03T12:29:14Z</time>
      </trkpt>
      <trkpt lat="49.88559" lon="2.00305">
        <ele>70.7</ele>
        <time>2023-05-03T12:29:15Z</time>
      </trkpt>
      <trkpt lat="49.88559" lon="2.00303">
        <ele>70.7</ele>
        <time>2023-05-03T12:29:16Z</time>
      </trkpt>
      <trkpt lat="49.88559" lon="2.00301">
        <ele>70.7</ele>
        <time>2023-05-03T12:29:17Z</time>
      </trkpt>
      <trkpt lat="49.88559" lon="2.00298">
        <ele>70.7</ele>
        <time>2023-05-03T12:29:19Z</time>
      </trkpt>
      <trkpt lat="49.88558" lon="2.00296">
        <ele>70.8</ele>
        <time>2023-05-03T12:29:20Z</time>
      </trkpt>
      <trkpt lat="49.88558" lon="2.00295">
        <ele>70.8</ele>
        <time>2023-05-03T12:29:21Z</time>
      </trkpt>
      <trkpt lat="49.88558" lon="2.00292">
        <ele>70.8</ele>
        <time>2023-05-03T12:29:22Z</time>
      </trkpt>
      <trkpt lat="49.88558" lon="2.0029">
        <ele>70.8</ele>
        <time>2023-05-03T12:29:23Z</time>
      </trkpt>
      <trkpt lat="49.88558" lon="2.00289">
        <ele>70.8</ele>
        <time>2023-05-03T12:29:24Z</time>
      </trkpt>
      <trkpt lat="49.88558" lon="2.00287">
        <ele>70.8</ele>
        <time>2023-05-03T12:29:25Z</time>
      </trkpt>
      <trkpt lat="49.88558" lon="2.00285">
        <ele>70.8</ele>
        <time>2023-05-03T12:29:26Z</time>
      </trkpt>
      <trkpt lat="49.88558" lon="2.00282">
        <ele>70.9</ele>
        <time>2023-05-03T12:29:28Z</time>
      </trkpt>
      <trkpt lat="49.88558" lon="2.0028">
        <ele>70.9</ele>
        <time>2023-05-03T12:29:29Z</time>
      </trkpt>
      <trkpt lat="49.88558" lon="2.00277">
        <ele>70.9</ele>
        <time>2023-05-03T12:29:30Z</time>
      </trkpt>
      <trkpt lat="49.88558" lon="2.00276">
        <ele>70.9</ele>
        <time>2023-05-03T12:29:31Z</time>
      </trkpt>
      <trkpt lat="49.88558" lon="2.00275">
        <ele>70.9</ele>
        <time>2023-05-03T12:29:32Z</time>
      </trkpt>
      <trkpt lat="49.88558" lon="2.00271">
        <ele>70.9</ele>
        <time>2023-05-03T12:29:33Z</time>
      </trkpt>
      <trkpt lat="49.88558" lon="2.0027">
        <ele>70.9</ele>
        <time>2023-05-03T12:29:34Z</time>
      </trkpt>
      <trkpt lat="49.88558" lon="2.00269">
        <ele>70.9</ele>
        <time>2023-05-03T12:29:35Z</time>
      </trkpt>
      <trkpt lat="49.88558" lon="2.00267">
        <ele>70.9</ele>
        <time>2023-05-03T12:29:36Z</time>
      </trkpt>
      <trkpt lat="49.88558" lon="2.00265">
        <ele>71</ele>
        <time>2023-05-03T12:29:38Z</time>
      </trkpt>
      <trkpt lat="49.88558" lon="2.00263">
        <ele>71</ele>
        <time>2023-05-03T12:29:39Z</time>
      </trkpt>
      <trkpt lat="49.88558" lon="2.00261">
        <ele>71</ele>
        <time>2023-05-03T12:29:40Z</time>
      </trkpt>
      <trkpt lat="49.88558" lon="2.00259">
        <ele>71</ele>
        <time>2023-05-03T12:29:41Z</time>
      </trkpt>
      <trkpt lat="49.88558" lon="2.00258">
        <ele>71</ele>
        <time>2023-05-03T12:29:42Z</time>
      </trkpt>
      <trkpt lat="49.88558" lon="2.00255">
        <ele>71</ele>
        <time>2023-05-03T12:29:43Z</time>
      </trkpt>
      <trkpt lat="49.88559" lon="2.00253">
        <ele>71</ele>
        <time>2023-05-03T12:29:44Z</time>
      </trkpt>
      <trkpt lat="49.88559" lon="2.00252">
        <ele>71</ele>
        <time>2023-05-03T12:29:45Z</time>
      </trkpt>
      <trkpt lat="49.88559" lon="2.00248">
        <ele>71</ele>
        <time>2023-05-03T12:29:46Z</time>
      </trkpt>
      <trkpt lat="49.88559" lon="2.00247">
        <ele>71</ele>
        <time>2023-05-03T12:29:48Z</time>
      </trkpt>
      <trkpt lat="49.88559" lon="2.00245">
        <ele>71</ele>
        <time>2023-05-03T12:29:49Z</time>
      </trkpt>
      <trkpt lat="49.88559" lon="2.00243">
        <ele>71</ele>
        <time>2023-05-03T12:29:50Z</time>
      </trkpt>
      <trkpt lat="49.88559" lon="2.00242">
        <ele>71</ele>
        <time>2023-05-03T12:29:51Z</time>
      </trkpt>
      <trkpt lat="49.88559" lon="2.0024">
        <ele>71</ele>
        <time>2023-05-03T12:29:52Z</time>
      </trkpt>
      <trkpt lat="49.88559" lon="2.00238">
        <ele>71</ele>
        <time>2023-05-03T12:29:53Z</time>
      </trkpt>
      <trkpt lat="49.88559" lon="2.00236">
        <ele>71</ele>
        <time>2023-05-03T12:29:54Z</time>
      </trkpt>
      <trkpt lat="49.88559" lon="2.00233">
        <ele>71</ele>
        <time>2023-05-03T12:29:55Z</time>
      </trkpt>
      <trkpt lat="49.88559" lon="2.00232">
        <ele>71</ele>
        <time>2023-05-03T12:29:56Z</time>
      </trkpt>
      <trkpt lat="49.88559" lon="2.0023">
        <ele>71</ele>
        <time>2023-05-03T12:29:57Z</time>
      </trkpt>
      <trkpt lat="49.88559" lon="2.00228">
        <ele>71</ele>
        <time>2023-05-03T12:29:59Z</time>
      </trkpt>
      <trkpt lat="49.88559" lon="2.00227">
        <ele>71</ele>
        <time>2023-05-03T12:30:00Z</time>
      </trkpt>
      <trkpt lat="49.88559" lon="2.00225">
        <ele>71</ele>
        <time>2023-05-03T12:30:01Z</time>
      </trkpt>
      <trkpt lat="49.8856" lon="2.00222">
        <ele>71</ele>
        <time>2023-05-03T12:30:02Z</time>
      </trkpt>
      <trkpt lat="49.8856" lon="2.0022">
        <ele>71</ele>
        <time>2023-05-03T12:30:03Z</time>
      </trkpt>
      <trkpt lat="49.8856" lon="2.00219">
        <ele>71</ele>
        <time>2023-05-03T12:30:04Z</time>
      </trkpt>
      <trkpt lat="49.8856" lon="2.00216">
        <ele>71</ele>
        <time>2023-05-03T12:30:06Z</time>
      </trkpt>
      <trkpt lat="49.88561" lon="2.00214">
        <ele>71</ele>
        <time>2023-05-03T12:30:07Z</time>
      </trkpt>
      <trkpt lat="49.88561" lon="2.00212">
        <ele>71</ele>
        <time>2023-05-03T12:30:08Z</time>
      </trkpt>
      <trkpt lat="49.88561" lon="2.00209">
        <ele>71</ele>
        <time>2023-05-03T12:30:10Z</time>
      </trkpt>
      <trkpt lat="49.88561" lon="2.00207">
        <ele>71</ele>
        <time>2023-05-03T12:30:11Z</time>
      </trkpt>
      <trkpt lat="49.88561" lon="2.00205">
        <ele>71</ele>
        <time>2023-05-03T12:30:12Z</time>
      </trkpt>
      <trkpt lat="49.88561" lon="2.00203">
        <ele>71</ele>
        <time>2023-05-03T12:30:13Z</time>
      </trkpt>
      <trkpt lat="49.88561" lon="2.00201">
        <ele>71</ele>
        <time>2023-05-03T12:30:14Z</time>
      </trkpt>
      <trkpt lat="49.88561" lon="2.00199">
        <ele>71</ele>
        <time>2023-05-03T12:30:15Z</time>
      </trkpt>
      <trkpt lat="49.88561" lon="2.00196">
        <ele>71</ele>
        <time>2023-05-03T12:30:16Z</time>
      </trkpt>
      <trkpt lat="49.88561" lon="2.00194">
        <ele>71</ele>
        <time>2023-05-03T12:30:17Z</time>
      </trkpt>
      <trkpt lat="49.88561" lon="2.00192">
        <ele>71</ele>
        <time>2023-05-03T12:30:18Z</time>
      </trkpt>
      <trkpt lat="49.88562" lon="2.0019">
        <ele>71</ele>
        <time>2023-05-03T12:30:19Z</time>
      </trkpt>
      <trkpt lat="49.88562" lon="2.00187">
        <ele>71</ele>
        <time>2023-05-03T12:30:21Z</time>
      </trkpt>
      <trkpt lat="49.88562" lon="2.00185">
        <ele>71</ele>
        <time>2023-05-03T12:30:22Z</time>
      </trkpt>
      <trkpt lat="49.88562" lon="2.00182">
        <ele>71</ele>
        <time>2023-05-03T12:30:24Z</time>
      </trkpt>
      <trkpt lat="49.88562" lon="2.0018">
        <ele>71</ele>
        <time>2023-05-03T12:30:25Z</time>
      </trkpt>
      <trkpt lat="49.88562" lon="2.00177">
        <ele>71</ele>
        <time>2023-05-03T12:30:26Z</time>
      </trkpt>
      <trkpt lat="49.88562" lon="2.00175">
        <ele>71</ele>
        <time>2023-05-03T12:30:27Z</time>
      </trkpt>
      <trkpt lat="49.88562" lon="2.00173">
        <ele>71</ele>
        <time>2023-05-03T12:30:28Z</time>
      </trkpt>
      <trkpt lat="49.88562" lon="2.00171">
        <ele>71</ele>
        <time>2023-05-03T12:30:29Z</time>
      </trkpt>
      <trkpt lat="49.88562" lon="2.00169">
        <ele>71</ele>
        <time>2023-05-03T12:30:30Z</time>
      </trkpt>
      <trkpt lat="49.88562" lon="2.00166">
        <ele>71</ele>
        <time>2023-05-03T12:30:31Z</time>
      </trkpt>
      <trkpt lat="49.88563" lon="2.00164">
        <ele>71</ele>
        <time>2023-05-03T12:30:32Z</time>
      </trkpt>
      <trkpt lat="49.88563" lon="2.00161">
        <ele>71</ele>
        <time>2023-05-03T12:30:34Z</time>
      </trkpt>
      <trkpt lat="49.88563" lon="2.0016">
        <ele>71</ele>
        <time>2023-05-03T12:30:35Z</time>
      </trkpt>
      <trkpt lat="49.88563" lon="2.00158">
        <ele>71</ele>
        <time>2023-05-03T12:30:36Z</time>
      </trkpt>
      <trkpt lat="49.88563" lon="2.00155">
        <ele>71</ele>
        <time>2023-05-03T12:30:37Z</time>
      </trkpt>
      <trkpt lat="49.88563" lon="2.00154">
        <ele>71</ele>
        <time>2023-05-03T12:30:38Z</time>
      </trkpt>
      <trkpt lat="49.88563" lon="2.00152">
        <ele>71</ele>
        <time>2023-05-03T12:30:39Z</time>
      </trkpt>
      <trkpt lat="49.88564" lon="2.00148">
        <ele>71.1</ele>
        <time>2023-05-03T12:30:41Z</time>
      </trkpt>
      <trkpt lat="49.88564" lon="2.00147">
        <ele>71.1</ele>
        <time>2023-05-03T12:30:42Z</time>
      </trkpt>
      <trkpt lat="49.88564" lon="2.00145">
        <ele>71.1</ele>
        <time>2023-05-03T12:30:43Z</time>
      </trkpt>
      <trkpt lat="49.88565" lon="2.00142">
        <ele>71.1</ele>
        <time>2023-05-03T12:30:44Z</time>
      </trkpt>
      <trkpt lat="49.88565" lon="2.0014">
        <ele>71</ele>
        <time>2023-05-03T12:30:45Z</time>
      </trkpt>
      <trkpt lat="49.88566" lon="2.00138">
        <ele>71</ele>
        <time>2023-05-03T12:30:46Z</time>
      </trkpt>
      <trkpt lat="49.88566" lon="2.00135">
        <ele>71</ele>
        <time>2023-05-03T12:30:48Z</time>
      </trkpt>
      <trkpt lat="49.88567" lon="2.00134">
        <ele>71</ele>
        <time>2023-05-03T12:30:49Z</time>
      </trkpt>
      <trkpt lat="49.88567" lon="2.00133">
        <ele>71</ele>
        <time>2023-05-03T12:30:50Z</time>
      </trkpt>
      <trkpt lat="49.88567" lon="2.00131">
        <ele>71</ele>
        <time>2023-05-03T12:30:51Z</time>
      </trkpt>
      <trkpt lat="49.88568" lon="2.00129">
        <ele>71</ele>
        <time>2023-05-03T12:30:52Z</time>
      </trkpt>
      <trkpt lat="49.88569" lon="2.00126">
        <ele>71</ele>
        <time>2023-05-03T12:30:54Z</time>
      </trkpt>
      <trkpt lat="49.88569" lon="2.00124">
        <ele>71</ele>
        <time>2023-05-03T12:30:55Z</time>
      </trkpt>
      <trkpt lat="49.8857" lon="2.0012">
        <ele>71</ele>
        <time>2023-05-03T12:30:57Z</time>
      </trkpt>
      <trkpt lat="49.8857" lon="2.00119">
        <ele>71</ele>
        <time>2023-05-03T12:30:58Z</time>
      </trkpt>
      <trkpt lat="49.88571" lon="2.00117">
        <ele>71</ele>
        <time>2023-05-03T12:30:59Z</time>
      </trkpt>
      <trkpt lat="49.88572" lon="2.00114">
        <ele>71</ele>
        <time>2023-05-03T12:31:00Z</time>
      </trkpt>
      <trkpt lat="49.88573" lon="2.00111">
        <ele>71</ele>
        <time>2023-05-03T12:31:01Z</time>
      </trkpt>
      <trkpt lat="49.88573" lon="2.0011">
        <ele>71</ele>
        <time>2023-05-03T12:31:03Z</time>
      </trkpt>
      <trkpt lat="49.88573" lon="2.00109">
        <ele>71</ele>
        <time>2023-05-03T12:31:04Z</time>
      </trkpt>
      <trkpt lat="49.88574" lon="2.00107">
        <ele>71</ele>
        <time>2023-05-03T12:31:05Z</time>
      </trkpt>
      <trkpt lat="49.88574" lon="2.00105">
        <ele>71</ele>
        <time>2023-05-03T12:31:06Z</time>
      </trkpt>
      <trkpt lat="49.88575" lon="2.00104">
        <ele>71</ele>
        <time>2023-05-03T12:31:07Z</time>
      </trkpt>
      <trkpt lat="49.88575" lon="2.00101">
        <ele>71</ele>
        <time>2023-05-03T12:31:08Z</time>
      </trkpt>
      <trkpt lat="49.88576" lon="2.00099">
        <ele>71</ele>
        <time>2023-05-03T12:31:10Z</time>
      </trkpt>
      <trkpt lat="49.88576" lon="2.00098">
        <ele>71</ele>
        <time>2023-05-03T12:31:11Z</time>
      </trkpt>
      <trkpt lat="49.88577" lon="2.00095">
        <ele>71</ele>
        <time>2023-05-03T12:31:12Z</time>
      </trkpt>
      <trkpt lat="49.88577" lon="2.00094">
        <ele>71.1</ele>
        <time>2023-05-03T12:31:13Z</time>
      </trkpt>
      <trkpt lat="49.88577" lon="2.00092">
        <ele>71.1</ele>
        <time>2023-05-03T12:31:14Z</time>
      </trkpt>
      <trkpt lat="49.88578" lon="2.00089">
        <ele>71.1</ele>
        <time>2023-05-03T12:31:15Z</time>
      </trkpt>
      <trkpt lat="49.88578" lon="2.00088">
        <ele>71.1</ele>
        <time>2023-05-03T12:31:16Z</time>
      </trkpt>
      <trkpt lat="49.88578" lon="2.00087">
        <ele>71.1</ele>
        <time>2023-05-03T12:31:17Z</time>
      </trkpt>
      <trkpt lat="49.88579" lon="2.00083">
        <ele>71.1</ele>
        <time>2023-05-03T12:31:18Z</time>
      </trkpt>
      <trkpt lat="49.88579" lon="2.00082">
        <ele>71.1</ele>
        <time>2023-05-03T12:31:19Z</time>
      </trkpt>
      <trkpt lat="49.8858" lon="2.00081">
        <ele>71.1</ele>
        <time>2023-05-03T12:31:20Z</time>
      </trkpt>
      <trkpt lat="49.8858" lon="2.00079">
        <ele>71.2</ele>
        <time>2023-05-03T12:31:22Z</time>
      </trkpt>
      <trkpt lat="49.88581" lon="2.00076">
        <ele>71.2</ele>
        <time>2023-05-03T12:31:23Z</time>
      </trkpt>
      <trkpt lat="49.88581" lon="2.00074">
        <ele>71.2</ele>
        <time>2023-05-03T12:31:24Z</time>
      </trkpt>
      <trkpt lat="49.88581" lon="2.00072">
        <ele>71.2</ele>
        <time>2023-05-03T12:31:25Z</time>
      </trkpt>
      <trkpt lat="49.88582" lon="2.0007">
        <ele>71.2</ele>
        <time>2023-05-03T12:31:26Z</time>
      </trkpt>
      <trkpt lat="49.88583" lon="2.00066">
        <ele>71.2</ele>
        <time>2023-05-03T12:31:28Z</time>
      </trkpt>
      <trkpt lat="49.88583" lon="2.00064">
        <ele>71.3</ele>
        <time>2023-05-03T12:31:29Z</time>
      </trkpt>
      <trkpt lat="49.88584" lon="2.00062">
        <ele>71.3</ele>
        <time>2023-05-03T12:31:30Z</time>
      </trkpt>
      <trkpt lat="49.88585" lon="2.00059">
        <ele>71.3</ele>
        <time>2023-05-03T12:31:32Z</time>
      </trkpt>
      <trkpt lat="49.88585" lon="2.00058">
        <ele>71.3</ele>
        <time>2023-05-03T12:31:33Z</time>
      </trkpt>
      <trkpt lat="49.88585" lon="2.00057">
        <ele>71.3</ele>
        <time>2023-05-03T12:31:34Z</time>
      </trkpt>
      <trkpt lat="49.88586" lon="2.00054">
        <ele>71.3</ele>
        <time>2023-05-03T12:31:35Z</time>
      </trkpt>
      <trkpt lat="49.88586" lon="2.00053">
        <ele>71.3</ele>
        <time>2023-05-03T12:31:36Z</time>
      </trkpt>
      <trkpt lat="49.88587" lon="2.00052">
        <ele>71.3</ele>
        <time>2023-05-03T12:31:37Z</time>
      </trkpt>
      <trkpt lat="49.88587" lon="2.0005">
        <ele>71.3</ele>
        <time>2023-05-03T12:31:38Z</time>
      </trkpt>
      <trkpt lat="49.88588" lon="2.00049">
        <ele>71.3</ele>
        <time>2023-05-03T12:31:39Z</time>
      </trkpt>
      <trkpt lat="49.88588" lon="2.00047">
        <ele>71.3</ele>
        <time>2023-05-03T12:31:40Z</time>
      </trkpt>
      <trkpt lat="49.88589" lon="2.00044">
        <ele>71.3</ele>
        <time>2023-05-03T12:31:41Z</time>
      </trkpt>
      <trkpt lat="49.8859" lon="2.00043">
        <ele>71.3</ele>
        <time>2023-05-03T12:31:42Z</time>
      </trkpt>
      <trkpt lat="49.8859" lon="2.00042">
        <ele>71.3</ele>
        <time>2023-05-03T12:31:43Z</time>
      </trkpt>
      <trkpt lat="49.88591" lon="2.00039">
        <ele>71.3</ele>
        <time>2023-05-03T12:31:45Z</time>
      </trkpt>
      <trkpt lat="49.88592" lon="2.00038">
        <ele>71.3</ele>
        <time>2023-05-03T12:31:46Z</time>
      </trkpt>
      <trkpt lat="49.88592" lon="2.00037">
        <ele>71.3</ele>
        <time>2023-05-03T12:31:47Z</time>
      </trkpt>
      <trkpt lat="49.88593" lon="2.00034">
        <ele>71.4</ele>
        <time>2023-05-03T12:31:48Z</time>
      </trkpt>
      <trkpt lat="49.88593" lon="2.00033">
        <ele>71.4</ele>
        <time>2023-05-03T12:31:49Z</time>
      </trkpt>
      <trkpt lat="49.88594" lon="2.00031">
        <ele>71.4</ele>
        <time>2023-05-03T12:31:50Z</time>
      </trkpt>
      <trkpt lat="49.88594" lon="2.00029">
        <ele>71.4</ele>
        <time>2023-05-03T12:31:51Z</time>
      </trkpt>
      <trkpt lat="49.88595" lon="2.00026">
        <ele>71.4</ele>
        <time>2023-05-03T12:31:53Z</time>
      </trkpt>
      <trkpt lat="49.88596" lon="2.00024">
        <ele>71.4</ele>
        <time>2023-05-03T12:31:54Z</time>
      </trkpt>
      <trkpt lat="49.88597" lon="2.00022">
        <ele>71.5</ele>
        <time>2023-05-03T12:31:55Z</time>
      </trkpt>
      <trkpt lat="49.88597" lon="2.0002">
        <ele>71.5</ele>
        <time>2023-05-03T12:31:56Z</time>
      </trkpt>
      <trkpt lat="49.88598" lon="2.00018">
        <ele>71.5</ele>
        <time>2023-05-03T12:31:57Z</time>
      </trkpt>
      <trkpt lat="49.88599" lon="2.00015">
        <ele>71.5</ele>
        <time>2023-05-03T12:31:58Z</time>
      </trkpt>
      <trkpt lat="49.88599" lon="2.00014">
        <ele>71.5</ele>
        <time>2023-05-03T12:32:00Z</time>
      </trkpt>
      <trkpt lat="49.88599" lon="2.00012">
        <ele>71.5</ele>
        <time>2023-05-03T12:32:01Z</time>
      </trkpt>
      <trkpt lat="49.886" lon="2.00009">
        <ele>71.6</ele>
        <time>2023-05-03T12:32:02Z</time>
      </trkpt>
      <trkpt lat="49.886" lon="2.00008">
        <ele>71.6</ele>
        <time>2023-05-03T12:32:03Z</time>
      </trkpt>
      <trkpt lat="49.886" lon="2.00007">
        <ele>71.6</ele>
        <time>2023-05-03T12:32:04Z</time>
      </trkpt>
      <trkpt lat="49.88601" lon="2.00005">
        <ele>71.6</ele>
        <time>2023-05-03T12:32:05Z</time>
      </trkpt>
      <trkpt lat="49.88601" lon="2.00003">
        <ele>71.6</ele>
        <time>2023-05-03T12:32:06Z</time>
      </trkpt>
      <trkpt lat="49.88601" lon="2.00002">
        <ele>71.6</ele>
        <time>2023-05-03T12:32:07Z</time>
      </trkpt>
      <trkpt lat="49.88602" lon="2">
        <ele>71.6</ele>
        <time>2023-05-03T12:32:08Z</time>
      </trkpt>
      <trkpt lat="49.88602" lon="1.99998">
        <ele>71.6</ele>
        <time>2023-05-03T12:32:09Z</time>
      </trkpt>
      <trkpt lat="49.88603" lon="1.99994">
        <ele>71.6</ele>
        <time>2023-05-03T12:32:10Z</time>
      </trkpt>
      <trkpt lat="49.88603" lon="1.99993">
        <ele>71.7</ele>
        <time>2023-05-03T12:32:12Z</time>
      </trkpt>
      <trkpt lat="49.88603" lon="1.99991">
        <ele>71.7</ele>
        <time>2023-05-03T12:32:13Z</time>
      </trkpt>
      <trkpt lat="49.88604" lon="1.9999">
        <ele>71.7</ele>
        <time>2023-05-03T12:32:14Z</time>
      </trkpt>
      <trkpt lat="49.88604" lon="1.99988">
        <ele>71.7</ele>
        <time>2023-05-03T12:32:15Z</time>
      </trkpt>
      <trkpt lat="49.88605" lon="1.99985">
        <ele>71.7</ele>
        <time>2023-05-03T12:32:16Z</time>
      </trkpt>
      <trkpt lat="49.88605" lon="1.99984">
        <ele>71.7</ele>
        <time>2023-05-03T12:32:17Z</time>
      </trkpt>
      <trkpt lat="49.88605" lon="1.99982">
        <ele>71.7</ele>
        <time>2023-05-03T12:32:18Z</time>
      </trkpt>
      <trkpt lat="49.88606" lon="1.99979">
        <ele>71.7</ele>
        <time>2023-05-03T12:32:20Z</time>
      </trkpt>
      <trkpt lat="49.88606" lon="1.99978">
        <ele>71.7</ele>
        <time>2023-05-03T12:32:21Z</time>
      </trkpt>
      <trkpt lat="49.88607" lon="1.99974">
        <ele>71.8</ele>
        <time>2023-05-03T12:32:22Z</time>
      </trkpt>
      <trkpt lat="49.88607" lon="1.99972">
        <ele>71.8</ele>
        <time>2023-05-03T12:32:24Z</time>
      </trkpt>
      <trkpt lat="49.88607" lon="1.99971">
        <ele>71.8</ele>
        <time>2023-05-03T12:32:25Z</time>
      </trkpt>
      <trkpt lat="49.88608" lon="1.99969">
        <ele>71.8</ele>
        <time>2023-05-03T12:32:26Z</time>
      </trkpt>
      <trkpt lat="49.88608" lon="1.99968">
        <ele>71.8</ele>
        <time>2023-05-03T12:32:27Z</time>
      </trkpt>
      <trkpt lat="49.88608" lon="1.99966">
        <ele>71.8</ele>
        <time>2023-05-03T12:32:28Z</time>
      </trkpt>
      <trkpt lat="49.88609" lon="1.99964">
        <ele>71.8</ele>
        <time>2023-05-03T12:32:29Z</time>
      </trkpt>
      <trkpt lat="49.88609" lon="1.99963">
        <ele>71.8</ele>
        <time>2023-05-03T12:32:30Z</time>
      </trkpt>
      <trkpt lat="49.8861" lon="1.9996">
        <ele>71.9</ele>
        <time>2023-05-03T12:32:31Z</time>
      </trkpt>
      <trkpt lat="49.8861" lon="1.99958">
        <ele>71.9</ele>
        <time>2023-05-03T12:32:32Z</time>
      </trkpt>
      <trkpt lat="49.88611" lon="1.99957">
        <ele>71.9</ele>
        <time>2023-05-03T12:32:33Z</time>
      </trkpt>
      <trkpt lat="49.88611" lon="1.99955">
        <ele>71.9</ele>
        <time>2023-05-03T12:32:35Z</time>
      </trkpt>
      <trkpt lat="49.88611" lon="1.99953">
        <ele>71.9</ele>
        <time>2023-05-03T12:32:36Z</time>
      </trkpt>
      <trkpt lat="49.88612" lon="1.99951">
        <ele>71.9</ele>
        <time>2023-05-03T12:32:37Z</time>
      </trkpt>
      <trkpt lat="49.88612" lon="1.99949">
        <ele>72</ele>
        <time>2023-05-03T12:32:38Z</time>
      </trkpt>
      <trkpt lat="49.88612" lon="1.99947">
        <ele>72</ele>
        <time>2023-05-03T12:32:39Z</time>
      </trkpt>
      <trkpt lat="49.88612" lon="1.99946">
        <ele>72</ele>
        <time>2023-05-03T12:32:40Z</time>
      </trkpt>
      <trkpt lat="49.88613" lon="1.99942">
        <ele>72</ele>
        <time>2023-05-03T12:32:42Z</time>
      </trkpt>
      <trkpt lat="49.88613" lon="1.99941">
        <ele>72</ele>
        <time>2023-05-03T12:32:43Z</time>
      </trkpt>
      <trkpt lat="49.88613" lon="1.99938">
        <ele>72.1</ele>
        <time>2023-05-03T12:32:44Z</time>
      </trkpt>
      <trkpt lat="49.88613" lon="1.99936">
        <ele>72.1</ele>
        <time>2023-05-03T12:32:46Z</time>
      </trkpt>
      <trkpt lat="49.88614" lon="1.99933">
        <ele>72.1</ele>
        <time>2023-05-03T12:32:47Z</time>
      </trkpt>
      <trkpt lat="49.88614" lon="1.99931">
        <ele>72.1</ele>
        <time>2023-05-03T12:32:48Z</time>
      </trkpt>
      <trkpt lat="49.88614" lon="1.9993">
        <ele>72.1</ele>
        <time>2023-05-03T12:32:49Z</time>
      </trkpt>
      <trkpt lat="49.88614" lon="1.99928">
        <ele>72.1</ele>
        <time>2023-05-03T12:32:50Z</time>
      </trkpt>
      <trkpt lat="49.88614" lon="1.99926">
        <ele>72.1</ele>
        <time>2023-05-03T12:32:51Z</time>
      </trkpt>
      <trkpt lat="49.88615" lon="1.99924">
        <ele>72.2</ele>
        <time>2023-05-03T12:32:52Z</time>
      </trkpt>
      <trkpt lat="49.88615" lon="1.99921">
        <ele>72.2</ele>
        <time>2023-05-03T12:32:53Z</time>
      </trkpt>
      <trkpt lat="49.88615" lon="1.99918">
        <ele>72.2</ele>
        <time>2023-05-03T12:32:54Z</time>
      </trkpt>
      <trkpt lat="49.88616" lon="1.99917">
        <ele>72.2</ele>
        <time>2023-05-03T12:32:55Z</time>
      </trkpt>
      <trkpt lat="49.88616" lon="1.99916">
        <ele>72.2</ele>
        <time>2023-05-03T12:32:56Z</time>
      </trkpt>
      <trkpt lat="49.88616" lon="1.99912">
        <ele>72.2</ele>
        <time>2023-05-03T12:32:58Z</time>
      </trkpt>
      <trkpt lat="49.88616" lon="1.99911">
        <ele>72.2</ele>
        <time>2023-05-03T12:32:59Z</time>
      </trkpt>
      <trkpt lat="49.88616" lon="1.9991">
        <ele>72.2</ele>
        <time>2023-05-03T12:33:00Z</time>
      </trkpt>
      <trkpt lat="49.88617" lon="1.99908">
        <ele>72.3</ele>
        <time>2023-05-03T12:33:01Z</time>
      </trkpt>
      <trkpt lat="49.88617" lon="1.99906">
        <ele>72.3</ele>
        <time>2023-05-03T12:33:02Z</time>
      </trkpt>
      <trkpt lat="49.88617" lon="1.99903">
        <ele>72.3</ele>
        <time>2023-05-03T12:33:04Z</time>
      </trkpt>
      <trkpt lat="49.88617" lon="1.99901">
        <ele>72.3</ele>
        <time>2023-05-03T12:33:05Z</time>
      </trkpt>
      <trkpt lat="49.88618" lon="1.999">
        <ele>72.3</ele>
        <time>2023-05-03T12:33:06Z</time>
      </trkpt>
      <trkpt lat="49.88618" lon="1.99898">
        <ele>72.3</ele>
        <time>2023-05-03T12:33:07Z</time>
      </trkpt>
      <trkpt lat="49.88618" lon="1.99895">
        <ele>72.4</ele>
        <time>2023-05-03T12:33:08Z</time>
      </trkpt>
      <trkpt lat="49.88619" lon="1.99893">
        <ele>72.4</ele>
        <time>2023-05-03T12:33:10Z</time>
      </trkpt>
      <trkpt lat="49.88619" lon="1.99892">
        <ele>72.4</ele>
        <time>2023-05-03T12:33:11Z</time>
      </trkpt>
      <trkpt lat="49.88619" lon="1.9989">
        <ele>72.4</ele>
        <time>2023-05-03T12:33:12Z</time>
      </trkpt>
      <trkpt lat="49.88619" lon="1.99888">
        <ele>72.4</ele>
        <time>2023-05-03T12:33:13Z</time>
      </trkpt>
      <trkpt lat="49.8862" lon="1.99886">
        <ele>72.4</ele>
        <time>2023-05-03T12:33:15Z</time>
      </trkpt>
      <trkpt lat="49.8862" lon="1.99884">
        <ele>72.5</ele>
        <time>2023-05-03T12:33:16Z</time>
      </trkpt>
      <trkpt lat="49.8862" lon="1.99883">
        <ele>72.5</ele>
        <time>2023-05-03T12:33:17Z</time>
      </trkpt>
      <trkpt lat="49.88621" lon="1.99881">
        <ele>72.5</ele>
        <time>2023-05-03T12:33:18Z</time>
      </trkpt>
      <trkpt lat="49.88621" lon="1.9988">
        <ele>72.5</ele>
        <time>2023-05-03T12:33:19Z</time>
      </trkpt>
      <trkpt lat="49.88621" lon="1.99878">
        <ele>72.5</ele>
        <time>2023-05-03T12:33:20Z</time>
      </trkpt>
      <trkpt lat="49.88621" lon="1.99876">
        <ele>72.5</ele>
        <time>2023-05-03T12:33:21Z</time>
      </trkpt>
      <trkpt lat="49.88622" lon="1.99875">
        <ele>72.5</ele>
        <time>2023-05-03T12:33:22Z</time>
      </trkpt>
      <trkpt lat="49.88622" lon="1.99872">
        <ele>72.6</ele>
        <time>2023-05-03T12:33:24Z</time>
      </trkpt>
      <trkpt lat="49.88623" lon="1.99871">
        <ele>72.6</ele>
        <time>2023-05-03T12:33:25Z</time>
      </trkpt>
      <trkpt lat="49.88623" lon="1.99869">
        <ele>72.6</ele>
        <time>2023-05-03T12:33:26Z</time>
      </trkpt>
      <trkpt lat="49.88624" lon="1.99867">
        <ele>72.6</ele>
        <time>2023-05-03T12:33:27Z</time>
      </trkpt>
      <trkpt lat="49.88624" lon="1.99865">
        <ele>72.6</ele>
        <time>2023-05-03T12:33:29Z</time>
      </trkpt>
      <trkpt lat="49.88624" lon="1.99864">
        <ele>72.6</ele>
        <time>2023-05-03T12:33:30Z</time>
      </trkpt>
      <trkpt lat="49.88625" lon="1.99862">
        <ele>72.6</ele>
        <time>2023-05-03T12:33:31Z</time>
      </trkpt>
      <trkpt lat="49.88625" lon="1.9986">
        <ele>72.7</ele>
        <time>2023-05-03T12:33:32Z</time>
      </trkpt>
      <trkpt lat="49.88625" lon="1.99859">
        <ele>72.7</ele>
        <time>2023-05-03T12:33:33Z</time>
      </trkpt>
      <trkpt lat="49.88626" lon="1.99858">
        <ele>72.7</ele>
        <time>2023-05-03T12:33:34Z</time>
      </trkpt>
      <trkpt lat="49.88626" lon="1.99857">
        <ele>72.7</ele>
        <time>2023-05-03T12:33:35Z</time>
      </trkpt>
      <trkpt lat="49.88626" lon="1.99855">
        <ele>72.7</ele>
        <time>2023-05-03T12:33:37Z</time>
      </trkpt>
      <trkpt lat="49.88626" lon="1.99854">
        <ele>72.7</ele>
        <time>2023-05-03T12:33:38Z</time>
      </trkpt>
      <trkpt lat="49.88627" lon="1.99853">
        <ele>72.7</ele>
        <time>2023-05-03T12:33:39Z</time>
      </trkpt>
      <trkpt lat="49.88627" lon="1.99852">
        <ele>72.7</ele>
        <time>2023-05-03T12:33:40Z</time>
      </trkpt>
      <trkpt lat="49.88627" lon="1.99851">
        <ele>72.8</ele>
        <time>2023-05-03T12:33:41Z</time>
      </trkpt>
      <trkpt lat="49.88627" lon="1.99849">
        <ele>72.8</ele>
        <time>2023-05-03T12:33:43Z</time>
      </trkpt>
      <trkpt lat="49.88627" lon="1.99848">
        <ele>72.8</ele>
        <time>2023-05-03T12:33:44Z</time>
      </trkpt>
      <trkpt lat="49.88627" lon="1.99847">
        <ele>72.8</ele>
        <time>2023-05-03T12:33:45Z</time>
      </trkpt>
      <trkpt lat="49.88625" lon="1.99847">
        <ele>72.8</ele>
        <time>2023-05-03T12:33:47Z</time>
      </trkpt>
      <trkpt lat="49.88625" lon="1.99847">
        <ele>72.9</ele>
        <time>2023-05-03T12:33:48Z</time>
      </trkpt>
      <trkpt lat="49.88624" lon="1.99847">
        <ele>72.9</ele>
        <time>2023-05-03T12:33:49Z</time>
      </trkpt>
      <trkpt lat="49.88624" lon="1.99848">
        <ele>72.9</ele>
        <time>2023-05-03T12:33:51Z</time>
      </trkpt>
      <trkpt lat="49.88624" lon="1.99848">
        <ele>72.9</ele>
        <time>2023-05-03T12:33:52Z</time>
      </trkpt>
      <trkpt lat="49.88624" lon="1.99848">
        <ele>72.9</ele>
        <time>2023-05-03T12:33:54Z</time>
      </trkpt>
      <trkpt lat="49.88624" lon="1.99848">
        <ele>72.9</ele>
        <time>2023-05-03T12:33:55Z</time>
      </trkpt>
      <trkpt lat="49.88624" lon="1.99848">
        <ele>72.9</ele>
        <time>2023-05-03T12:33:56Z</time>
      </trkpt>
      <trkpt lat="49.88623" lon="1.99848">
        <ele>72.9</ele>
        <time>2023-05-03T12:33:58Z</time>
      </trkpt>
      <trkpt lat="49.88623" lon="1.99848">
        <ele>72.9</ele>
        <time>2023-05-03T12:33:59Z</time>
      </trkpt>
      <trkpt lat="49.88623" lon="1.99848">
        <ele>72.9</ele>
        <time>2023-05-03T12:34:00Z</time>
      </trkpt>
      <trkpt lat="49.88623" lon="1.99848">
        <ele>72.9</ele>
        <time>2023-05-03T12:34:02Z</time>
      </trkpt>
      <trkpt lat="49.88623" lon="1.99848">
        <ele>72.9</ele>
        <time>2023-05-03T12:34:03Z</time>
      </trkpt>
      <trkpt lat="49.88623" lon="1.99848">
        <ele>72.9</ele>
        <time>2023-05-03T12:34:04Z</time>
      </trkpt>
      <trkpt lat="49.88624" lon="1.99848">
        <ele>72.9</ele>
        <time>2023-05-03T12:34:05Z</time>
      </trkpt>
      <trkpt lat="49.88624" lon="1.99848">
        <ele>72.9</ele>
        <time>2023-05-03T12:34:06Z</time>
      </trkpt>
      <trkpt lat="49.88624" lon="1.99848">
        <ele>72.9</ele>
        <time>2023-05-03T12:34:07Z</time>
      </trkpt>
      <trkpt lat="49.88624" lon="1.99848">
        <ele>72.9</ele>
        <time>2023-05-03T12:34:08Z</time>
      </trkpt>
      <trkpt lat="49.88624" lon="1.99848">
        <ele>72.9</ele>
        <time>2023-05-03T12:34:09Z</time>
      </trkpt>
      <trkpt lat="49.88624" lon="1.99848">
        <ele>72.9</ele>
        <time>2023-05-03T12:34:10Z</time>
      </trkpt>
      <trkpt lat="49.88624" lon="1.99848">
        <ele>72.9</ele>
        <time>2023-05-03T12:34:11Z</time>
      </trkpt>
      <trkpt lat="49.88624" lon="1.99848">
        <ele>72.9</ele>
        <time>2023-05-03T12:34:12Z</time>
      </trkpt>
      <trkpt lat="49.88624" lon="1.99848">
        <ele>72.9</ele>
        <time>2023-05-03T12:34:13Z</time>
      </trkpt>
      <trkpt lat="49.88624" lon="1.99848">
        <ele>72.9</ele>
        <time>2023-05-03T12:34:14Z</time>
      </trkpt>
      <trkpt lat="49.88624" lon="1.99848">
        <ele>72.9</ele>
        <time>2023-05-03T12:34:15Z</time>
      </trkpt>
      <trkpt lat="49.88624" lon="1.99848">
        <ele>72.9</ele>
        <time>2023-05-03T12:34:16Z</time>
      </trkpt>
      <trkpt lat="49.88624" lon="1.99848">
        <ele>72.9</ele>
        <time>2023-05-03T12:34:17Z</time>
      </trkpt>
      <trkpt lat="49.88624" lon="1.99848">
        <ele>72.9</ele>
        <time>2023-05-03T12:34:18Z</time>
      </trkpt>
      <trkpt lat="49.88624" lon="1.99848">
        <ele>72.9</ele>
        <time>2023-05-03T12:34:19Z</time>
      </trkpt>
      <trkpt lat="49.88624" lon="1.99848">
        <ele>72.9</ele>
        <time>2023-05-03T12:34:20Z</time>
      </trkpt>
      <trkpt lat="49.88624" lon="1.99848">
        <ele>72.9</ele>
        <time>2023-05-03T12:34:21Z</time>
      </trkpt>
      <trkpt lat="49.88624" lon="1.99848">
        <ele>72.9</ele>
        <time>2023-05-03T12:34:22Z</time>
      </trkpt>
      <trkpt lat="49.88624" lon="1.99848">
        <ele>72.9</ele>
        <time>2023-05-03T12:34:23Z</time>
      </trkpt>
      <trkpt lat="49.88624" lon="1.99848">
        <ele>72.9</ele>
        <time>2023-05-03T12:34:24Z</time>
      </trkpt>
      <trkpt lat="49.88624" lon="1.99848">
        <ele>72.9</ele>
        <time>2023-05-03T12:34:25Z</time>
      </trkpt>
      <trkpt lat="49.88624" lon="1.99848">
        <ele>72.9</ele>
        <time>2023-05-03T12:34:26Z</time>
      </trkpt>
      <trkpt lat="49.88624" lon="1.99848">
        <ele>72.9</ele>
        <time>2023-05-03T12:34:27Z</time>
      </trkpt>
      <trkpt lat="49.88624" lon="1.99848">
        <ele>72.9</ele>
        <time>2023-05-03T12:34:28Z</time>
      </trkpt>
      <trkpt lat="49.88624" lon="1.99848">
        <ele>72.9</ele>
        <time>2023-05-03T12:34:29Z</time>
      </trkpt>
      <trkpt lat="49.88624" lon="1.99848">
        <ele>72.9</ele>
        <time>2023-05-03T12:34:30Z</time>
      </trkpt>
      <trkpt lat="49.88624" lon="1.99848">
        <ele>72.9</ele>
        <time>2023-05-03T12:34:31Z</time>
      </trkpt>
      <trkpt lat="49.88624" lon="1.99848">
        <ele>72.9</ele>
        <time>2023-05-03T12:34:32Z</time>
      </trkpt>
      <trkpt lat="49.88624" lon="1.99848">
        <ele>72.9</ele>
        <time>2023-05-03T12:34:33Z</time>
      </trkpt>
      <trkpt lat="49.88624" lon="1.99848">
        <ele>72.9</ele>
        <time>2023-05-03T12:34:34Z</time>
      </trkpt>
      <trkpt lat="49.88624" lon="1.99848">
        <ele>72.9</ele>
        <time>2023-05-03T12:34:35Z</time>
      </trkpt>
      <trkpt lat="49.88624" lon="1.99848">
        <ele>72.9</ele>
        <time>2023-05-03T12:34:36Z</time>
      </trkpt>
      <trkpt lat="49.88624" lon="1.99848">
        <ele>72.9</ele>
        <time>2023-05-03T12:34:37Z</time>
      </trkpt>
      <trkpt lat="49.88624" lon="1.99848">
        <ele>72.9</ele>
        <time>2023-05-03T12:34:38Z</time>
      </trkpt>
      <trkpt lat="49.88624" lon="1.99848">
        <ele>72.9</ele>
        <time>2023-05-03T12:34:39Z</time>
      </trkpt>
      <trkpt lat="49.88624" lon="1.99848">
        <ele>72.9</ele>
        <time>2023-05-03T12:34:40Z</time>
      </trkpt>
      <trkpt lat="49.88624" lon="1.99848">
        <ele>72.9</ele>
        <time>2023-05-03T12:34:41Z</time>
      </trkpt>
      <trkpt lat="49.88624" lon="1.99848">
        <ele>72.9</ele>
        <time>2023-05-03T12:34:42Z</time>
      </trkpt>
      <trkpt lat="49.88624" lon="1.99848">
        <ele>72.9</ele>
        <time>2023-05-03T12:34:43Z</time>
      </trkpt>
      <trkpt lat="49.88624" lon="1.99848">
        <ele>72.9</ele>
        <time>2023-05-03T12:34:44Z</time>
      </trkpt>
      <trkpt lat="49.88624" lon="1.99848">
        <ele>72.9</ele>
        <time>2023-05-03T12:34:45Z</time>
      </trkpt>
      <trkpt lat="49.88624" lon="1.99848">
        <ele>72.9</ele>
        <time>2023-05-03T12:34:46Z</time>
      </trkpt>
      <trkpt lat="49.88624" lon="1.99848">
        <ele>72.9</ele>
        <time>2023-05-03T12:34:47Z</time>
      </trkpt>
      <trkpt lat="49.88624" lon="1.99848">
        <ele>72.9</ele>
        <time>2023-05-03T12:34:48Z</time>
      </trkpt>
      <trkpt lat="49.88624" lon="1.99848">
        <ele>72.9</ele>
        <time>2023-05-03T12:34:49Z</time>
      </trkpt>
      <trkpt lat="49.88624" lon="1.99848">
        <ele>72.9</ele>
        <time>2023-05-03T12:34:50Z</time>
      </trkpt>
      <trkpt lat="49.88624" lon="1.99848">
        <ele>72.9</ele>
        <time>2023-05-03T12:34:51Z</time>
      </trkpt>
      <trkpt lat="49.88624" lon="1.99848">
        <ele>72.9</ele>
        <time>2023-05-03T12:34:52Z</time>
      </trkpt>
      <trkpt lat="49.88624" lon="1.99848">
        <ele>72.9</ele>
        <time>2023-05-03T12:34:53Z</time>
      </trkpt>
      <trkpt lat="49.88624" lon="1.99848">
        <ele>72.9</ele>
        <time>2023-05-03T12:34:54Z</time>
      </trkpt>
      <trkpt lat="49.88624" lon="1.99848">
        <ele>72.9</ele>
        <time>2023-05-03T12:34:55Z</time>
      </trkpt>
      <trkpt lat="49.88624" lon="1.99848">
        <ele>72.9</ele>
        <time>2023-05-03T12:34:56Z</time>
      </trkpt>
      <trkpt lat="49.88624" lon="1.99848">
        <ele>72.9</ele>
        <time>2023-05-03T12:34:57Z</time>
      </trkpt>
      <trkpt lat="49.88624" lon="1.99848">
        <ele>72.9</ele>
        <time>2023-05-03T12:34:58Z</time>
      </trkpt>
      <trkpt lat="49.88624" lon="1.99848">
        <ele>72.9</ele>
        <time>2023-05-03T12:34:59Z</time>
      </trkpt>
      <trkpt lat="49.88624" lon="1.99848">
        <ele>72.9</ele>
        <time>2023-05-03T12:35:00Z</time>
      </trkpt>
      <trkpt lat="49.88624" lon="1.99848">
        <ele>72.9</ele>
        <time>2023-05-03T12:35:01Z</time>
      </trkpt>
      <trkpt lat="49.88624" lon="1.99848">
        <ele>72.9</ele>
        <time>2023-05-03T12:35:02Z</time>
      </trkpt>
      <trkpt lat="49.88624" lon="1.99848">
        <ele>72.9</ele>
        <time>2023-05-03T12:35:03Z</time>
      </trkpt>
      <trkpt lat="49.88624" lon="1.99848">
        <ele>72.9</ele>
        <time>2023-05-03T12:35:04Z</time>
      </trkpt>
      <trkpt lat="49.88624" lon="1.99848">
        <ele>72.9</ele>
        <time>2023-05-03T12:35:05Z</time>
      </trkpt>
      <trkpt lat="49.88624" lon="1.99848">
        <ele>72.9</ele>
        <time>2023-05-03T12:35:06Z</time>
      </trkpt>
      <trkpt lat="49.88624" lon="1.99848">
        <ele>72.9</ele>
        <time>2023-05-03T12:35:07Z</time>
      </trkpt>
      <trkpt lat="49.88624" lon="1.99848">
        <ele>72.9</ele>
        <time>2023-05-03T12:35:08Z</time>
      </trkpt>
      <trkpt lat="49.88624" lon="1.99848">
        <ele>72.9</ele>
        <time>2023-05-03T12:35:09Z</time>
      </trkpt>
      <trkpt lat="49.88624" lon="1.99848">
        <ele>72.9</ele>
        <time>2023-05-03T12:35:10Z</time>
      </trkpt>
      <trkpt lat="49.88624" lon="1.99848">
        <ele>72.9</ele>
        <time>2023-05-03T12:35:11Z</time>
      </trkpt>
      <trkpt lat="49.88624" lon="1.99848">
        <ele>72.9</ele>
        <time>2023-05-03T12:35:12Z</time>
      </trkpt>
      <trkpt lat="49.88624" lon="1.99848">
        <ele>72.9</ele>
        <time>2023-05-03T12:35:13Z</time>
      </trkpt>
      <trkpt lat="49.88624" lon="1.99848">
        <ele>72.9</ele>
        <time>2023-05-03T12:35:14Z</time>
      </trkpt>
      <trkpt lat="49.88624" lon="1.99848">
        <ele>72.9</ele>
        <time>2023-05-03T12:35:15Z</time>
      </trkpt>
      <trkpt lat="49.88624" lon="1.99848">
        <ele>72.9</ele>
        <time>2023-05-03T12:35:16Z</time>
      </trkpt>
      <trkpt lat="49.88624" lon="1.99848">
        <ele>72.9</ele>
        <time>2023-05-03T12:35:17Z</time>
      </trkpt>
      <trkpt lat="49.88624" lon="1.99848">
        <ele>72.9</ele>
        <time>2023-05-03T12:35:18Z</time>
      </trkpt>
      <trkpt lat="49.88624" lon="1.99848">
        <ele>72.9</ele>
        <time>2023-05-03T12:35:19Z</time>
      </trkpt>
      <trkpt lat="49.88624" lon="1.99848">
        <ele>72.9</ele>
        <time>2023-05-03T12:35:20Z</time>
      </trkpt>
      <trkpt lat="49.88624" lon="1.99848">
        <ele>72.9</ele>
        <time>2023-05-03T12:35:21Z</time>
      </trkpt>
      <trkpt lat="49.88624" lon="1.99848">
        <ele>72.9</ele>
        <time>2023-05-03T12:35:22Z</time>
      </trkpt>
      <trkpt lat="49.88624" lon="1.99848">
        <ele>72.9</ele>
        <time>2023-05-03T12:35:23Z</time>
      </trkpt>
      <trkpt lat="49.88624" lon="1.99848">
        <ele>72.9</ele>
        <time>2023-05-03T12:35:24Z</time>
      </trkpt>
      <trkpt lat="49.88624" lon="1.99848">
        <ele>72.9</ele>
        <time>2023-05-03T12:35:25Z</time>
      </trkpt>
      <trkpt lat="49.88624" lon="1.99848">
        <ele>72.9</ele>
        <time>2023-05-03T12:35:26Z</time>
      </trkpt>
      <trkpt lat="49.88624" lon="1.99848">
        <ele>72.9</ele>
        <time>2023-05-03T12:35:27Z</time>
      </trkpt>
      <trkpt lat="49.88624" lon="1.99848">
        <ele>72.9</ele>
        <time>2023-05-03T12:35:28Z</time>
      </trkpt>
      <trkpt lat="49.88624" lon="1.99848">
        <ele>72.9</ele>
        <time>2023-05-03T12:35:29Z</time>
      </trkpt>
      <trkpt lat="49.88624" lon="1.99848">
        <ele>72.9</ele>
        <time>2023-05-03T12:35:30Z</time>
      </trkpt>
      <trkpt lat="49.88624" lon="1.99848">
        <ele>72.9</ele>
        <time>2023-05-03T12:35:31Z</time>
      </trkpt>
      <trkpt lat="49.88624" lon="1.99848">
        <ele>72.9</ele>
        <time>2023-05-03T12:35:32Z</time>
      </trkpt>
      <trkpt lat="49.88624" lon="1.99848">
        <ele>72.9</ele>
        <time>2023-05-03T12:35:33Z</time>
      </trkpt>
      <trkpt lat="49.88624" lon="1.99848">
        <ele>72.9</ele>
        <time>2023-05-03T12:35:34Z</time>
      </trkpt>
      <trkpt lat="49.88624" lon="1.99848">
        <ele>72.9</ele>
        <time>2023-05-03T12:35:35Z</time>
      </trkpt>
      <trkpt lat="49.88624" lon="1.99848">
        <ele>72.9</ele>
        <time>2023-05-03T12:35:36Z</time>
      </trkpt>
      <trkpt lat="49.88624" lon="1.99848">
        <ele>72.9</ele>
        <time>2023-05-03T12:35:37Z</time>
      </trkpt>
      <trkpt lat="49.88624" lon="1.99848">
        <ele>72.9</ele>
        <time>2023-05-03T12:35:38Z</time>
      </trkpt>
      <trkpt lat="49.88624" lon="1.99848">
        <ele>72.9</ele>
        <time>2023-05-03T12:35:39Z</time>
      </trkpt>
      <trkpt lat="49.88624" lon="1.99848">
        <ele>72.9</ele>
        <time>2023-05-03T12:35:40Z</time>
      </trkpt>
      <trkpt lat="49.88624" lon="1.99848">
        <ele>72.9</ele>
        <time>2023-05-03T12:35:41Z</time>
      </trkpt>
      <trkpt lat="49.88624" lon="1.99848">
        <ele>72.9</ele>
        <time>2023-05-03T12:35:42Z</time>
      </trkpt>
      <trkpt lat="49.88624" lon="1.99848">
        <ele>72.9</ele>
        <time>2023-05-03T12:35:43Z</time>
      </trkpt>
      <trkpt lat="49.88624" lon="1.99848">
        <ele>72.9</ele>
        <time>2023-05-03T12:35:44Z</time>
      </trkpt>
      <trkpt lat="49.88624" lon="1.99848">
        <ele>72.9</ele>
        <time>2023-05-03T12:35:45Z</time>
      </trkpt>
      <trkpt lat="49.88624" lon="1.99848">
        <ele>72.9</ele>
        <time>2023-05-03T12:35:46Z</time>
      </trkpt>
      <trkpt lat="49.88624" lon="1.99848">
        <ele>72.9</ele>
        <time>2023-05-03T12:35:47Z</time>
      </trkpt>
      <trkpt lat="49.88624" lon="1.99848">
        <ele>72.9</ele>
        <time>2023-05-03T12:35:48Z</time>
      </trkpt>
      <trkpt lat="49.88624" lon="1.99848">
        <ele>72.9</ele>
        <time>2023-05-03T12:35:49Z</time>
      </trkpt>
      <trkpt lat="49.88624" lon="1.99848">
        <ele>72.9</ele>
        <time>2023-05-03T12:35:50Z</time>
      </trkpt>
      <trkpt lat="49.88624" lon="1.99848">
        <ele>72.9</ele>
        <time>2023-05-03T12:35:51Z</time>
      </trkpt>
      <trkpt lat="49.88624" lon="1.99848">
        <ele>72.9</ele>
        <time>2023-05-03T12:35:52Z</time>
      </trkpt>
      <trkpt lat="49.88624" lon="1.99848">
        <ele>72.9</ele>
        <time>2023-05-03T12:35:53Z</time>
      </trkpt>
      <trkpt lat="49.88624" lon="1.99848">
        <ele>72.9</ele>
        <time>2023-05-03T12:35:54Z</time>
      </trkpt>
      <trkpt lat="49.88624" lon="1.99848">
        <ele>72.9</ele>
        <time>2023-05-03T12:35:55Z</time>
      </trkpt>
      <trkpt lat="49.88624" lon="1.99848">
        <ele>72.9</ele>
        <time>2023-05-03T12:35:56Z</time>
      </trkpt>
      <trkpt lat="49.88624" lon="1.9985">
        <ele>73</ele>
        <time>2023-05-03T12:35:57Z</time>
      </trkpt>
      <trkpt lat="49.88625" lon="1.99851">
        <ele>73</ele>
        <time>2023-05-03T12:35:58Z</time>
      </trkpt>
      <trkpt lat="49.88625" lon="1.99851">
        <ele>73</ele>
        <time>2023-05-03T12:35:59Z</time>
      </trkpt>
      <trkpt lat="49.88625" lon="1.9985">
        <ele>73</ele>
        <time>2023-05-03T12:36:00Z</time>
      </trkpt>
      <trkpt lat="49.88625" lon="1.99849">
        <ele>73</ele>
        <time>2023-05-03T12:36:01Z</time>
      </trkpt>
      <trkpt lat="49.88625" lon="1.99849">
        <ele>73</ele>
        <time>2023-05-03T12:36:02Z</time>
      </trkpt>
      <trkpt lat="49.88625" lon="1.99847">
        <ele>73</ele>
        <time>2023-05-03T12:36:04Z</time>
      </trkpt>
      <trkpt lat="49.88625" lon="1.99846">
        <ele>73.1</ele>
        <time>2023-05-03T12:36:06Z</time>
      </trkpt>
      <trkpt lat="49.88624" lon="1.99844">
        <ele>73.1</ele>
        <time>2023-05-03T12:36:07Z</time>
      </trkpt>
      <trkpt lat="49.88625" lon="1.99842">
        <ele>73.1</ele>
        <time>2023-05-03T12:36:08Z</time>
      </trkpt>
      <trkpt lat="49.88625" lon="1.9984">
        <ele>73.1</ele>
        <time>2023-05-03T12:36:09Z</time>
      </trkpt>
      <trkpt lat="49.88625" lon="1.99839">
        <ele>73.1</ele>
        <time>2023-05-03T12:36:10Z</time>
      </trkpt>
      <trkpt lat="49.88625" lon="1.99837">
        <ele>73.1</ele>
        <time>2023-05-03T12:36:12Z</time>
      </trkpt>
      <trkpt lat="49.88625" lon="1.99836">
        <ele>73.2</ele>
        <time>2023-05-03T12:36:13Z</time>
      </trkpt>
      <trkpt lat="49.88625" lon="1.99834">
        <ele>73.2</ele>
        <time>2023-05-03T12:36:14Z</time>
      </trkpt>
      <trkpt lat="49.88625" lon="1.99833">
        <ele>73.2</ele>
        <time>2023-05-03T12:36:15Z</time>
      </trkpt>
      <trkpt lat="49.88624" lon="1.99831">
        <ele>73.2</ele>
        <time>2023-05-03T12:36:17Z</time>
      </trkpt>
      <trkpt lat="49.88624" lon="1.99829">
        <ele>73.2</ele>
        <time>2023-05-03T12:36:18Z</time>
      </trkpt>
      <trkpt lat="49.88624" lon="1.99827">
        <ele>73.2</ele>
        <time>2023-05-03T12:36:19Z</time>
      </trkpt>
      <trkpt lat="49.88624" lon="1.99824">
        <ele>73.2</ele>
        <time>2023-05-03T12:36:20Z</time>
      </trkpt>
      <trkpt lat="49.88624" lon="1.99822">
        <ele>73.3</ele>
        <time>2023-05-03T12:36:21Z</time>
      </trkpt>
      <trkpt lat="49.88624" lon="1.99821">
        <ele>73.3</ele>
        <time>2023-05-03T12:36:23Z</time>
      </trkpt>
      <trkpt lat="49.88624" lon="1.99819">
        <ele>73.3</ele>
        <time>2023-05-03T12:36:24Z</time>
      </trkpt>
      <trkpt lat="49.88624" lon="1.99818">
        <ele>73.3</ele>
        <time>2023-05-03T12:36:25Z</time>
      </trkpt>
      <trkpt lat="49.88624" lon="1.99816">
        <ele>73.3</ele>
        <time>2023-05-03T12:36:26Z</time>
      </trkpt>
      <trkpt lat="49.88624" lon="1.99812">
        <ele>73.3</ele>
        <time>2023-05-03T12:36:27Z</time>
      </trkpt>
      <trkpt lat="49.88624" lon="1.9981">
        <ele>73.3</ele>
        <time>2023-05-03T12:36:29Z</time>
      </trkpt>
      <trkpt lat="49.88624" lon="1.99809">
        <ele>73.4</ele>
        <time>2023-05-03T12:36:30Z</time>
      </trkpt>
      <trkpt lat="49.88624" lon="1.99807">
        <ele>73.4</ele>
        <time>2023-05-03T12:36:31Z</time>
      </trkpt>
      <trkpt lat="49.88624" lon="1.99805">
        <ele>73.4</ele>
        <time>2023-05-03T12:36:32Z</time>
      </trkpt>
      <trkpt lat="49.88624" lon="1.99802">
        <ele>73.4</ele>
        <time>2023-05-03T12:36:34Z</time>
      </trkpt>
      <trkpt lat="49.88624" lon="1.998">
        <ele>73.4</ele>
        <time>2023-05-03T12:36:35Z</time>
      </trkpt>
      <trkpt lat="49.88624" lon="1.99799">
        <ele>73.4</ele>
        <time>2023-05-03T12:36:36Z</time>
      </trkpt>
      <trkpt lat="49.88624" lon="1.99796">
        <ele>73.4</ele>
        <time>2023-05-03T12:36:37Z</time>
      </trkpt>
      <trkpt lat="49.88624" lon="1.99794">
        <ele>73.5</ele>
        <time>2023-05-03T12:36:38Z</time>
      </trkpt>
      <trkpt lat="49.88624" lon="1.99793">
        <ele>73.5</ele>
        <time>2023-05-03T12:36:39Z</time>
      </trkpt>
      <trkpt lat="49.88624" lon="1.99791">
        <ele>73.5</ele>
        <time>2023-05-03T12:36:41Z</time>
      </trkpt>
      <trkpt lat="49.88624" lon="1.99789">
        <ele>73.5</ele>
        <time>2023-05-03T12:36:42Z</time>
      </trkpt>
      <trkpt lat="49.88624" lon="1.99787">
        <ele>73.5</ele>
        <time>2023-05-03T12:36:43Z</time>
      </trkpt>
      <trkpt lat="49.88624" lon="1.99784">
        <ele>73.5</ele>
        <time>2023-05-03T12:36:44Z</time>
      </trkpt>
      <trkpt lat="49.88623" lon="1.99781">
        <ele>73.6</ele>
        <time>2023-05-03T12:36:45Z</time>
      </trkpt>
      <trkpt lat="49.88623" lon="1.99779">
        <ele>73.6</ele>
        <time>2023-05-03T12:36:46Z</time>
      </trkpt>
      <trkpt lat="49.88623" lon="1.99778">
        <ele>73.6</ele>
        <time>2023-05-03T12:36:47Z</time>
      </trkpt>
      <trkpt lat="49.88623" lon="1.99775">
        <ele>73.6</ele>
        <time>2023-05-03T12:36:48Z</time>
      </trkpt>
      <trkpt lat="49.88623" lon="1.99773">
        <ele>73.6</ele>
        <time>2023-05-03T12:36:50Z</time>
      </trkpt>
      <trkpt lat="49.88622" lon="1.99772">
        <ele>73.6</ele>
        <time>2023-05-03T12:36:51Z</time>
      </trkpt>
      <trkpt lat="49.88622" lon="1.9977">
        <ele>73.6</ele>
        <time>2023-05-03T12:36:52Z</time>
      </trkpt>
      <trkpt lat="49.88622" lon="1.99768">
        <ele>73.6</ele>
        <time>2023-05-03T12:36:53Z</time>
      </trkpt>
      <trkpt lat="49.88622" lon="1.99767">
        <ele>73.7</ele>
        <time>2023-05-03T12:36:54Z</time>
      </trkpt>
      <trkpt lat="49.88622" lon="1.99765">
        <ele>73.7</ele>
        <time>2023-05-03T12:36:55Z</time>
      </trkpt>
      <trkpt lat="49.88622" lon="1.99762">
        <ele>73.7</ele>
        <time>2023-05-03T12:36:56Z</time>
      </trkpt>
      <trkpt lat="49.88622" lon="1.9976">
        <ele>73.7</ele>
        <time>2023-05-03T12:36:58Z</time>
      </trkpt>
      <trkpt lat="49.88622" lon="1.99758">
        <ele>73.7</ele>
        <time>2023-05-03T12:36:59Z</time>
      </trkpt>
      <trkpt lat="49.88622" lon="1.99756">
        <ele>73.7</ele>
        <time>2023-05-03T12:37:00Z</time>
      </trkpt>
      <trkpt lat="49.88622" lon="1.99752">
        <ele>73.8</ele>
        <time>2023-05-03T12:37:01Z</time>
      </trkpt>
      <trkpt lat="49.88622" lon="1.99751">
        <ele>73.8</ele>
        <time>2023-05-03T12:37:02Z</time>
      </trkpt>
      <trkpt lat="49.88622" lon="1.9975">
        <ele>73.8</ele>
        <time>2023-05-03T12:37:03Z</time>
      </trkpt>
      <trkpt lat="49.88622" lon="1.99747">
        <ele>73.8</ele>
        <time>2023-05-03T12:37:04Z</time>
      </trkpt>
      <trkpt lat="49.88622" lon="1.99745">
        <ele>73.8</ele>
        <time>2023-05-03T12:37:05Z</time>
      </trkpt>
      <trkpt lat="49.88622" lon="1.99743">
        <ele>73.9</ele>
        <time>2023-05-03T12:37:07Z</time>
      </trkpt>
      <trkpt lat="49.88622" lon="1.99741">
        <ele>73.9</ele>
        <time>2023-05-03T12:37:08Z</time>
      </trkpt>
      <trkpt lat="49.88621" lon="1.99738">
        <ele>73.9</ele>
        <time>2023-05-03T12:37:09Z</time>
      </trkpt>
      <trkpt lat="49.88621" lon="1.99736">
        <ele>73.9</ele>
        <time>2023-05-03T12:37:10Z</time>
      </trkpt>
      <trkpt lat="49.88621" lon="1.99735">
        <ele>73.9</ele>
        <time>2023-05-03T12:37:11Z</time>
      </trkpt>
      <trkpt lat="49.88621" lon="1.99733">
        <ele>73.9</ele>
        <time>2023-05-03T12:37:12Z</time>
      </trkpt>
      <trkpt lat="49.88621" lon="1.99731">
        <ele>73.9</ele>
        <time>2023-05-03T12:37:13Z</time>
      </trkpt>
      <trkpt lat="49.88621" lon="1.9973">
        <ele>74</ele>
        <time>2023-05-03T12:37:14Z</time>
      </trkpt>
      <trkpt lat="49.88621" lon="1.99728">
        <ele>74</ele>
        <time>2023-05-03T12:37:16Z</time>
      </trkpt>
      <trkpt lat="49.88621" lon="1.99726">
        <ele>74</ele>
        <time>2023-05-03T12:37:17Z</time>
      </trkpt>
      <trkpt lat="49.88621" lon="1.99724">
        <ele>74</ele>
        <time>2023-05-03T12:37:18Z</time>
      </trkpt>
      <trkpt lat="49.8862" lon="1.99722">
        <ele>74</ele>
        <time>2023-05-03T12:37:19Z</time>
      </trkpt>
      <trkpt lat="49.8862" lon="1.99721">
        <ele>74</ele>
        <time>2023-05-03T12:37:20Z</time>
      </trkpt>
      <trkpt lat="49.8862" lon="1.99719">
        <ele>74</ele>
        <time>2023-05-03T12:37:21Z</time>
      </trkpt>
      <trkpt lat="49.8862" lon="1.99717">
        <ele>74</ele>
        <time>2023-05-03T12:37:22Z</time>
      </trkpt>
      <trkpt lat="49.8862" lon="1.99716">
        <ele>74</ele>
        <time>2023-05-03T12:37:23Z</time>
      </trkpt>
      <trkpt lat="49.88619" lon="1.99714">
        <ele>74.1</ele>
        <time>2023-05-03T12:37:25Z</time>
      </trkpt>
      <trkpt lat="49.88619" lon="1.99713">
        <ele>74.1</ele>
        <time>2023-05-03T12:37:26Z</time>
      </trkpt>
      <trkpt lat="49.88619" lon="1.99711">
        <ele>74.1</ele>
        <time>2023-05-03T12:37:27Z</time>
      </trkpt>
      <trkpt lat="49.88619" lon="1.99709">
        <ele>74.1</ele>
        <time>2023-05-03T12:37:28Z</time>
      </trkpt>
      <trkpt lat="49.88619" lon="1.99708">
        <ele>74.1</ele>
        <time>2023-05-03T12:37:29Z</time>
      </trkpt>
      <trkpt lat="49.88619" lon="1.99707">
        <ele>74.1</ele>
        <time>2023-05-03T12:37:30Z</time>
      </trkpt>
      <trkpt lat="49.88619" lon="1.99705">
        <ele>74.1</ele>
        <time>2023-05-03T12:37:31Z</time>
      </trkpt>
      <trkpt lat="49.88619" lon="1.99703">
        <ele>74.1</ele>
        <time>2023-05-03T12:37:33Z</time>
      </trkpt>
      <trkpt lat="49.88619" lon="1.99701">
        <ele>74.1</ele>
        <time>2023-05-03T12:37:34Z</time>
      </trkpt>
      <trkpt lat="49.88618" lon="1.99699">
        <ele>74.1</ele>
        <time>2023-05-03T12:37:35Z</time>
      </trkpt>
      <trkpt lat="49.88618" lon="1.99698">
        <ele>74.1</ele>
        <time>2023-05-03T12:37:36Z</time>
      </trkpt>
      <trkpt lat="49.88618" lon="1.99696">
        <ele>74.2</ele>
        <time>2023-05-03T12:37:37Z</time>
      </trkpt>
      <trkpt lat="49.88618" lon="1.99694">
        <ele>74.2</ele>
        <time>2023-05-03T12:37:38Z</time>
      </trkpt>
      <trkpt lat="49.88617" lon="1.99691">
        <ele>74.2</ele>
        <time>2023-05-03T12:37:40Z</time>
      </trkpt>
      <trkpt lat="49.88617" lon="1.9969">
        <ele>74.2</ele>
        <time>2023-05-03T12:37:41Z</time>
      </trkpt>
      <trkpt lat="49.88617" lon="1.99689">
        <ele>74.2</ele>
        <time>2023-05-03T12:37:42Z</time>
      </trkpt>
      <trkpt lat="49.88616" lon="1.99686">
        <ele>74.2</ele>
        <time>2023-05-03T12:37:43Z</time>
      </trkpt>
      <trkpt lat="49.88616" lon="1.99684">
        <ele>74.2</ele>
        <time>2023-05-03T12:37:44Z</time>
      </trkpt>
      <trkpt lat="49.88615" lon="1.99683">
        <ele>74.2</ele>
        <time>2023-05-03T12:37:45Z</time>
      </trkpt>
      <trkpt lat="49.88615" lon="1.99681">
        <ele>74.2</ele>
        <time>2023-05-03T12:37:46Z</time>
      </trkpt>
      <trkpt lat="49.88615" lon="1.99679">
        <ele>74.3</ele>
        <time>2023-05-03T12:37:47Z</time>
      </trkpt>
      <trkpt lat="49.88614" lon="1.99675">
        <ele>74.3</ele>
        <time>2023-05-03T12:37:48Z</time>
      </trkpt>
      <trkpt lat="49.88614" lon="1.99674">
        <ele>74.3</ele>
        <time>2023-05-03T12:37:50Z</time>
      </trkpt>
      <trkpt lat="49.88614" lon="1.99672">
        <ele>74.3</ele>
        <time>2023-05-03T12:37:51Z</time>
      </trkpt>
      <trkpt lat="49.88614" lon="1.99671">
        <ele>74.3</ele>
        <time>2023-05-03T12:37:52Z</time>
      </trkpt>
      <trkpt lat="49.88613" lon="1.99669">
        <ele>74.3</ele>
        <time>2023-05-03T12:37:53Z</time>
      </trkpt>
      <trkpt lat="49.88613" lon="1.99667">
        <ele>74.3</ele>
        <time>2023-05-03T12:37:54Z</time>
      </trkpt>
      <trkpt lat="49.88613" lon="1.99666">
        <ele>74.3</ele>
        <time>2023-05-03T12:37:55Z</time>
      </trkpt>
      <trkpt lat="49.88612" lon="1.99663">
        <ele>74.3</ele>
        <time>2023-05-03T12:37:57Z</time>
      </trkpt>
      <trkpt lat="49.88612" lon="1.99661">
        <ele>74.4</ele>
        <time>2023-05-03T12:37:58Z</time>
      </trkpt>
      <trkpt lat="49.88612" lon="1.99659">
        <ele>74.4</ele>
        <time>2023-05-03T12:37:59Z</time>
      </trkpt>
      <trkpt lat="49.88612" lon="1.99657">
        <ele>74.4</ele>
        <time>2023-05-03T12:38:00Z</time>
      </trkpt>
      <trkpt lat="49.88611" lon="1.99655">
        <ele>74.4</ele>
        <time>2023-05-03T12:38:01Z</time>
      </trkpt>
      <trkpt lat="49.88611" lon="1.99653">
        <ele>74.4</ele>
        <time>2023-05-03T12:38:02Z</time>
      </trkpt>
      <trkpt lat="49.88611" lon="1.99651">
        <ele>74.4</ele>
        <time>2023-05-03T12:38:03Z</time>
      </trkpt>
      <trkpt lat="49.8861" lon="1.99648">
        <ele>74.5</ele>
        <time>2023-05-03T12:38:05Z</time>
      </trkpt>
      <trkpt lat="49.8861" lon="1.99645">
        <ele>74.5</ele>
        <time>2023-05-03T12:38:07Z</time>
      </trkpt>
      <trkpt lat="49.8861" lon="1.99642">
        <ele>74.5</ele>
        <time>2023-05-03T12:38:08Z</time>
      </trkpt>
      <trkpt lat="49.88609" lon="1.9964">
        <ele>74.5</ele>
        <time>2023-05-03T12:38:09Z</time>
      </trkpt>
      <trkpt lat="49.88609" lon="1.99639">
        <ele>74.5</ele>
        <time>2023-05-03T12:38:10Z</time>
      </trkpt>
      <trkpt lat="49.88608" lon="1.99636">
        <ele>74.6</ele>
        <time>2023-05-03T12:38:12Z</time>
      </trkpt>
      <trkpt lat="49.88608" lon="1.99634">
        <ele>74.6</ele>
        <time>2023-05-03T12:38:13Z</time>
      </trkpt>
      <trkpt lat="49.88608" lon="1.99632">
        <ele>74.6</ele>
        <time>2023-05-03T12:38:14Z</time>
      </trkpt>
      <trkpt lat="49.88607" lon="1.9963">
        <ele>74.6</ele>
        <time>2023-05-03T12:38:16Z</time>
      </trkpt>
      <trkpt lat="49.88606" lon="1.99628">
        <ele>74.6</ele>
        <time>2023-05-03T12:38:17Z</time>
      </trkpt>
      <trkpt lat="49.88606" lon="1.99625">
        <ele>74.6</ele>
        <time>2023-05-03T12:38:18Z</time>
      </trkpt>
      <trkpt lat="49.88605" lon="1.99622">
        <ele>74.7</ele>
        <time>2023-05-03T12:38:19Z</time>
      </trkpt>
      <trkpt lat="49.88605" lon="1.99621">
        <ele>74.7</ele>
        <time>2023-05-03T12:38:20Z</time>
      </trkpt>
      <trkpt lat="49.88605" lon="1.9962">
        <ele>74.7</ele>
        <time>2023-05-03T12:38:21Z</time>
      </trkpt>
      <trkpt lat="49.88604" lon="1.99617">
        <ele>74.7</ele>
        <time>2023-05-03T12:38:22Z</time>
      </trkpt>
      <trkpt lat="49.88604" lon="1.99615">
        <ele>74.7</ele>
        <time>2023-05-03T12:38:23Z</time>
      </trkpt>
      <trkpt lat="49.88603" lon="1.99612">
        <ele>74.8</ele>
        <time>2023-05-03T12:38:25Z</time>
      </trkpt>
      <trkpt lat="49.88602" lon="1.99611">
        <ele>74.8</ele>
        <time>2023-05-03T12:38:26Z</time>
      </trkpt>
      <trkpt lat="49.88602" lon="1.9961">
        <ele>74.8</ele>
        <time>2023-05-03T12:38:27Z</time>
      </trkpt>
      <trkpt lat="49.88601" lon="1.99607">
        <ele>74.8</ele>
        <time>2023-05-03T12:38:28Z</time>
      </trkpt>
      <trkpt lat="49.886" lon="1.99605">
        <ele>74.8</ele>
        <time>2023-05-03T12:38:30Z</time>
      </trkpt>
      <trkpt lat="49.886" lon="1.99603">
        <ele>74.8</ele>
        <time>2023-05-03T12:38:31Z</time>
      </trkpt>
      <trkpt lat="49.886" lon="1.99602">
        <ele>74.9</ele>
        <time>2023-05-03T12:38:32Z</time>
      </trkpt>
      <trkpt lat="49.88599" lon="1.996">
        <ele>74.9</ele>
        <time>2023-05-03T12:38:33Z</time>
      </trkpt>
      <trkpt lat="49.88599" lon="1.99598">
        <ele>74.9</ele>
        <time>2023-05-03T12:38:34Z</time>
      </trkpt>
      <trkpt lat="49.88598" lon="1.99596">
        <ele>74.9</ele>
        <time>2023-05-03T12:38:35Z</time>
      </trkpt>
      <trkpt lat="49.88598" lon="1.99592">
        <ele>75</ele>
        <time>2023-05-03T12:38:37Z</time>
      </trkpt>
      <trkpt lat="49.88598" lon="1.99591">
        <ele>75</ele>
        <time>2023-05-03T12:38:38Z</time>
      </trkpt>
      <trkpt lat="49.88598" lon="1.9959">
        <ele>75</ele>
        <time>2023-05-03T12:38:39Z</time>
      </trkpt>
      <trkpt lat="49.88598" lon="1.99586">
        <ele>75.1</ele>
        <time>2023-05-03T12:38:40Z</time>
      </trkpt>
      <trkpt lat="49.88597" lon="1.99585">
        <ele>75.1</ele>
        <time>2023-05-03T12:38:41Z</time>
      </trkpt>
      <trkpt lat="49.88597" lon="1.99584">
        <ele>75.1</ele>
        <time>2023-05-03T12:38:42Z</time>
      </trkpt>
      <trkpt lat="49.88597" lon="1.99582">
        <ele>75.1</ele>
        <time>2023-05-03T12:38:43Z</time>
      </trkpt>
      <trkpt lat="49.88597" lon="1.99579">
        <ele>75.2</ele>
        <time>2023-05-03T12:38:45Z</time>
      </trkpt>
      <trkpt lat="49.88597" lon="1.99577">
        <ele>75.2</ele>
        <time>2023-05-03T12:38:46Z</time>
      </trkpt>
      <trkpt lat="49.88596" lon="1.99574">
        <ele>75.2</ele>
        <time>2023-05-03T12:38:47Z</time>
      </trkpt>
      <trkpt lat="49.88596" lon="1.99573">
        <ele>75.2</ele>
        <time>2023-05-03T12:38:48Z</time>
      </trkpt>
      <trkpt lat="49.88596" lon="1.99571">
        <ele>75.3</ele>
        <time>2023-05-03T12:38:49Z</time>
      </trkpt>
      <trkpt lat="49.88596" lon="1.99569">
        <ele>75.3</ele>
        <time>2023-05-03T12:38:50Z</time>
      </trkpt>
      <trkpt lat="49.88596" lon="1.99567">
        <ele>75.3</ele>
        <time>2023-05-03T12:38:51Z</time>
      </trkpt>
      <trkpt lat="49.88595" lon="1.99564">
        <ele>75.4</ele>
        <time>2023-05-03T12:38:53Z</time>
      </trkpt>
      <trkpt lat="49.88595" lon="1.99562">
        <ele>75.4</ele>
        <time>2023-05-03T12:38:54Z</time>
      </trkpt>
      <trkpt lat="49.88594" lon="1.99561">
        <ele>75.4</ele>
        <time>2023-05-03T12:38:55Z</time>
      </trkpt>
      <trkpt lat="49.88594" lon="1.99559">
        <ele>75.4</ele>
        <time>2023-05-03T12:38:56Z</time>
      </trkpt>
      <trkpt lat="49.88594" lon="1.99557">
        <ele>75.5</ele>
        <time>2023-05-03T12:38:57Z</time>
      </trkpt>
      <trkpt lat="49.88593" lon="1.99555">
        <ele>75.5</ele>
        <time>2023-05-03T12:38:59Z</time>
      </trkpt>
      <trkpt lat="49.88593" lon="1.99553">
        <ele>75.5</ele>
        <time>2023-05-03T12:39:00Z</time>
      </trkpt>
      <trkpt lat="49.88592" lon="1.99551">
        <ele>75.6</ele>
        <time>2023-05-03T12:39:01Z</time>
      </trkpt>
      <trkpt lat="49.88592" lon="1.9955">
        <ele>75.6</ele>
        <time>2023-05-03T12:39:02Z</time>
      </trkpt>
      <trkpt lat="49.88592" lon="1.99548">
        <ele>75.6</ele>
        <time>2023-05-03T12:39:03Z</time>
      </trkpt>
      <trkpt lat="49.88591" lon="1.99545">
        <ele>75.7</ele>
        <time>2023-05-03T12:39:05Z</time>
      </trkpt>
      <trkpt lat="49.88591" lon="1.99543">
        <ele>75.7</ele>
        <time>2023-05-03T12:39:06Z</time>
      </trkpt>
      <trkpt lat="49.8859" lon="1.99541">
        <ele>75.7</ele>
        <time>2023-05-03T12:39:07Z</time>
      </trkpt>
      <trkpt lat="49.8859" lon="1.9954">
        <ele>75.8</ele>
        <time>2023-05-03T12:39:08Z</time>
      </trkpt>
      <trkpt lat="49.88589" lon="1.99536">
        <ele>75.8</ele>
        <time>2023-05-03T12:39:10Z</time>
      </trkpt>
      <trkpt lat="49.88589" lon="1.99535">
        <ele>75.8</ele>
        <time>2023-05-03T12:39:11Z</time>
      </trkpt>
      <trkpt lat="49.88589" lon="1.99534">
        <ele>75.9</ele>
        <time>2023-05-03T12:39:12Z</time>
      </trkpt>
      <trkpt lat="49.88589" lon="1.99533">
        <ele>75.9</ele>
        <time>2023-05-03T12:39:13Z</time>
      </trkpt>
      <trkpt lat="49.88589" lon="1.99531">
        <ele>75.9</ele>
        <time>2023-05-03T12:39:14Z</time>
      </trkpt>
      <trkpt lat="49.88588" lon="1.99529">
        <ele>75.9</ele>
        <time>2023-05-03T12:39:15Z</time>
      </trkpt>
      <trkpt lat="49.88588" lon="1.99527">
        <ele>76</ele>
        <time>2023-05-03T12:39:16Z</time>
      </trkpt>
      <trkpt lat="49.88588" lon="1.99525">
        <ele>76</ele>
        <time>2023-05-03T12:39:17Z</time>
      </trkpt>
      <trkpt lat="49.88587" lon="1.99522">
        <ele>76</ele>
        <time>2023-05-03T12:39:19Z</time>
      </trkpt>
      <trkpt lat="49.88587" lon="1.9952">
        <ele>76.1</ele>
        <time>2023-05-03T12:39:20Z</time>
      </trkpt>
      <trkpt lat="49.88587" lon="1.99519">
        <ele>76.1</ele>
        <time>2023-05-03T12:39:21Z</time>
      </trkpt>
      <trkpt lat="49.88586" lon="1.99516">
        <ele>76.1</ele>
        <time>2023-05-03T12:39:22Z</time>
      </trkpt>
      <trkpt lat="49.88585" lon="1.99515">
        <ele>76.1</ele>
        <time>2023-05-03T12:39:23Z</time>
      </trkpt>
      <trkpt lat="49.88585" lon="1.99514">
        <ele>76.2</ele>
        <time>2023-05-03T12:39:24Z</time>
      </trkpt>
      <trkpt lat="49.88585" lon="1.99512">
        <ele>76.2</ele>
        <time>2023-05-03T12:39:25Z</time>
      </trkpt>
      <trkpt lat="49.88584" lon="1.9951">
        <ele>76.2</ele>
        <time>2023-05-03T12:39:26Z</time>
      </trkpt>
      <trkpt lat="49.88584" lon="1.99508">
        <ele>76.3</ele>
        <time>2023-05-03T12:39:28Z</time>
      </trkpt>
      <trkpt lat="49.88584" lon="1.99506">
        <ele>76.3</ele>
        <time>2023-05-03T12:39:29Z</time>
      </trkpt>
      <trkpt lat="49.88583" lon="1.99505">
        <ele>76.3</ele>
        <time>2023-05-03T12:39:30Z</time>
      </trkpt>
      <trkpt lat="49.88583" lon="1.99503">
        <ele>76.3</ele>
        <time>2023-05-03T12:39:31Z</time>
      </trkpt>
      <trkpt lat="49.88583" lon="1.99501">
        <ele>76.4</ele>
        <time>2023-05-03T12:39:32Z</time>
      </trkpt>
      <trkpt lat="49.88583" lon="1.995">
        <ele>76.4</ele>
        <time>2023-05-03T12:39:33Z</time>
      </trkpt>
      <trkpt lat="49.88583" lon="1.99498">
        <ele>76.4</ele>
        <time>2023-05-03T12:39:34Z</time>
      </trkpt>
      <trkpt lat="49.88582" lon="1.99495">
        <ele>76.5</ele>
        <time>2023-05-03T12:39:36Z</time>
      </trkpt>
      <trkpt lat="49.88582" lon="1.99494">
        <ele>76.5</ele>
        <time>2023-05-03T12:39:37Z</time>
      </trkpt>
      <trkpt lat="49.88582" lon="1.99493">
        <ele>76.5</ele>
        <time>2023-05-03T12:39:38Z</time>
      </trkpt>
      <trkpt lat="49.88582" lon="1.99491">
        <ele>76.5</ele>
        <time>2023-05-03T12:39:39Z</time>
      </trkpt>
      <trkpt lat="49.88582" lon="1.99489">
        <ele>76.6</ele>
        <time>2023-05-03T12:39:40Z</time>
      </trkpt>
      <trkpt lat="49.88582" lon="1.99487">
        <ele>76.6</ele>
        <time>2023-05-03T12:39:41Z</time>
      </trkpt>
      <trkpt lat="49.88581" lon="1.99485">
        <ele>76.6</ele>
        <time>2023-05-03T12:39:42Z</time>
      </trkpt>
      <trkpt lat="49.88581" lon="1.99483">
        <ele>76.7</ele>
        <time>2023-05-03T12:39:44Z</time>
      </trkpt>
      <trkpt lat="49.88581" lon="1.99481">
        <ele>76.7</ele>
        <time>2023-05-03T12:39:45Z</time>
      </trkpt>
      <trkpt lat="49.8858" lon="1.99479">
        <ele>76.7</ele>
        <time>2023-05-03T12:39:46Z</time>
      </trkpt>
      <trkpt lat="49.8858" lon="1.99477">
        <ele>76.8</ele>
        <time>2023-05-03T12:39:47Z</time>
      </trkpt>
      <trkpt lat="49.8858" lon="1.99475">
        <ele>76.8</ele>
        <time>2023-05-03T12:39:48Z</time>
      </trkpt>
      <trkpt lat="49.88579" lon="1.99471">
        <ele>76.8</ele>
        <time>2023-05-03T12:39:49Z</time>
      </trkpt>
      <trkpt lat="49.88579" lon="1.9947">
        <ele>76.9</ele>
        <time>2023-05-03T12:39:51Z</time>
      </trkpt>
      <trkpt lat="49.88579" lon="1.99468">
        <ele>76.9</ele>
        <time>2023-05-03T12:39:52Z</time>
      </trkpt>
      <trkpt lat="49.88579" lon="1.99466">
        <ele>76.9</ele>
        <time>2023-05-03T12:39:53Z</time>
      </trkpt>
      <trkpt lat="49.88579" lon="1.99465">
        <ele>76.9</ele>
        <time>2023-05-03T12:39:54Z</time>
      </trkpt>
      <trkpt lat="49.88579" lon="1.99461">
        <ele>77</ele>
        <time>2023-05-03T12:39:55Z</time>
      </trkpt>
      <trkpt lat="49.88579" lon="1.9946">
        <ele>77</ele>
        <time>2023-05-03T12:39:56Z</time>
      </trkpt>
      <trkpt lat="49.88579" lon="1.99459">
        <ele>77</ele>
        <time>2023-05-03T12:39:57Z</time>
      </trkpt>
      <trkpt lat="49.88579" lon="1.99455">
        <ele>77.1</ele>
        <time>2023-05-03T12:39:58Z</time>
      </trkpt>
      <trkpt lat="49.88579" lon="1.99453">
        <ele>77.1</ele>
        <time>2023-05-03T12:40:00Z</time>
      </trkpt>
      <trkpt lat="49.88579" lon="1.99451">
        <ele>77.1</ele>
        <time>2023-05-03T12:40:01Z</time>
      </trkpt>
      <trkpt lat="49.88578" lon="1.9945">
        <ele>77.2</ele>
        <time>2023-05-03T12:40:02Z</time>
      </trkpt>
      <trkpt lat="49.88578" lon="1.99448">
        <ele>77.2</ele>
        <time>2023-05-03T12:40:03Z</time>
      </trkpt>
      <trkpt lat="49.88578" lon="1.99446">
        <ele>77.2</ele>
        <time>2023-05-03T12:40:04Z</time>
      </trkpt>
      <trkpt lat="49.88578" lon="1.99444">
        <ele>77.3</ele>
        <time>2023-05-03T12:40:05Z</time>
      </trkpt>
      <trkpt lat="49.88578" lon="1.9944">
        <ele>77.3</ele>
        <time>2023-05-03T12:40:06Z</time>
      </trkpt>
      <trkpt lat="49.88578" lon="1.99438">
        <ele>77.3</ele>
        <time>2023-05-03T12:40:08Z</time>
      </trkpt>
      <trkpt lat="49.88578" lon="1.99437">
        <ele>77.4</ele>
        <time>2023-05-03T12:40:09Z</time>
      </trkpt>
      <trkpt lat="49.88578" lon="1.99435">
        <ele>77.4</ele>
        <time>2023-05-03T12:40:10Z</time>
      </trkpt>
      <trkpt lat="49.88578" lon="1.99433">
        <ele>77.4</ele>
        <time>2023-05-03T12:40:11Z</time>
      </trkpt>
      <trkpt lat="49.88578" lon="1.99431">
        <ele>77.4</ele>
        <time>2023-05-03T12:40:12Z</time>
      </trkpt>
      <trkpt lat="49.88578" lon="1.9943">
        <ele>77.5</ele>
        <time>2023-05-03T12:40:13Z</time>
      </trkpt>
      <trkpt lat="49.88579" lon="1.99428">
        <ele>77.5</ele>
        <time>2023-05-03T12:40:14Z</time>
      </trkpt>
      <trkpt lat="49.88579" lon="1.99426">
        <ele>77.5</ele>
        <time>2023-05-03T12:40:15Z</time>
      </trkpt>
      <trkpt lat="49.88579" lon="1.99424">
        <ele>77.5</ele>
        <time>2023-05-03T12:40:17Z</time>
      </trkpt>
      <trkpt lat="49.88579" lon="1.99423">
        <ele>77.6</ele>
        <time>2023-05-03T12:40:18Z</time>
      </trkpt>
      <trkpt lat="49.88579" lon="1.99421">
        <ele>77.6</ele>
        <time>2023-05-03T12:40:19Z</time>
      </trkpt>
      <trkpt lat="49.88579" lon="1.99419">
        <ele>77.6</ele>
        <time>2023-05-03T12:40:20Z</time>
      </trkpt>
      <trkpt lat="49.88579" lon="1.99418">
        <ele>77.6</ele>
        <time>2023-05-03T12:40:21Z</time>
      </trkpt>
      <trkpt lat="49.88579" lon="1.99416">
        <ele>77.6</ele>
        <time>2023-05-03T12:40:22Z</time>
      </trkpt>
      <trkpt lat="49.88579" lon="1.99414">
        <ele>77.7</ele>
        <time>2023-05-03T12:40:23Z</time>
      </trkpt>
      <trkpt lat="49.88579" lon="1.99411">
        <ele>77.7</ele>
        <time>2023-05-03T12:40:25Z</time>
      </trkpt>
      <trkpt lat="49.88579" lon="1.99408">
        <ele>77.7</ele>
        <time>2023-05-03T12:40:26Z</time>
      </trkpt>
      <trkpt lat="49.88579" lon="1.99407">
        <ele>77.8</ele>
        <time>2023-05-03T12:40:27Z</time>
      </trkpt>
      <trkpt lat="49.88579" lon="1.99405">
        <ele>77.8</ele>
        <time>2023-05-03T12:40:28Z</time>
      </trkpt>
      <trkpt lat="49.88579" lon="1.99403">
        <ele>77.8</ele>
        <time>2023-05-03T12:40:29Z</time>
      </trkpt>
      <trkpt lat="49.8858" lon="1.994">
        <ele>77.8</ele>
        <time>2023-05-03T12:40:31Z</time>
      </trkpt>
      <trkpt lat="49.8858" lon="1.99398">
        <ele>77.9</ele>
        <time>2023-05-03T12:40:32Z</time>
      </trkpt>
      <trkpt lat="49.8858" lon="1.99395">
        <ele>77.9</ele>
        <time>2023-05-03T12:40:33Z</time>
      </trkpt>
      <trkpt lat="49.8858" lon="1.99393">
        <ele>77.9</ele>
        <time>2023-05-03T12:40:35Z</time>
      </trkpt>
      <trkpt lat="49.8858" lon="1.99391">
        <ele>77.9</ele>
        <time>2023-05-03T12:40:36Z</time>
      </trkpt>
      <trkpt lat="49.8858" lon="1.99387">
        <ele>78</ele>
        <time>2023-05-03T12:40:37Z</time>
      </trkpt>
      <trkpt lat="49.88581" lon="1.99386">
        <ele>78</ele>
        <time>2023-05-03T12:40:38Z</time>
      </trkpt>
      <trkpt lat="49.88581" lon="1.99385">
        <ele>78</ele>
        <time>2023-05-03T12:40:39Z</time>
      </trkpt>
      <trkpt lat="49.88581" lon="1.99381">
        <ele>78</ele>
        <time>2023-05-03T12:40:40Z</time>
      </trkpt>
      <trkpt lat="49.88581" lon="1.9938">
        <ele>78</ele>
        <time>2023-05-03T12:40:41Z</time>
      </trkpt>
      <trkpt lat="49.88582" lon="1.99378">
        <ele>78</ele>
        <time>2023-05-03T12:40:42Z</time>
      </trkpt>
      <trkpt lat="49.88582" lon="1.99375">
        <ele>78.1</ele>
        <time>2023-05-03T12:40:44Z</time>
      </trkpt>
      <trkpt lat="49.88582" lon="1.99374">
        <ele>78.1</ele>
        <time>2023-05-03T12:40:45Z</time>
      </trkpt>
      <trkpt lat="49.88582" lon="1.99373">
        <ele>78.1</ele>
        <time>2023-05-03T12:40:46Z</time>
      </trkpt>
      <trkpt lat="49.88582" lon="1.9937">
        <ele>78.1</ele>
        <time>2023-05-03T12:40:47Z</time>
      </trkpt>
      <trkpt lat="49.88582" lon="1.99368">
        <ele>78.1</ele>
        <time>2023-05-03T12:40:48Z</time>
      </trkpt>
      <trkpt lat="49.88582" lon="1.99367">
        <ele>78.1</ele>
        <time>2023-05-03T12:40:49Z</time>
      </trkpt>
      <trkpt lat="49.88582" lon="1.99365">
        <ele>78.1</ele>
        <time>2023-05-03T12:40:50Z</time>
      </trkpt>
      <trkpt lat="49.88583" lon="1.99363">
        <ele>78.1</ele>
        <time>2023-05-03T12:40:51Z</time>
      </trkpt>
      <trkpt lat="49.88583" lon="1.9936">
        <ele>78.1</ele>
        <time>2023-05-03T12:40:53Z</time>
      </trkpt>
      <trkpt lat="49.88583" lon="1.99358">
        <ele>78.1</ele>
        <time>2023-05-03T12:40:54Z</time>
      </trkpt>
      <trkpt lat="49.88583" lon="1.99356">
        <ele>78.1</ele>
        <time>2023-05-03T12:40:55Z</time>
      </trkpt>
      <trkpt lat="49.88583" lon="1.99354">
        <ele>78.2</ele>
        <time>2023-05-03T12:40:56Z</time>
      </trkpt>
      <trkpt lat="49.88583" lon="1.99351">
        <ele>78.2</ele>
        <time>2023-05-03T12:40:57Z</time>
      </trkpt>
      <trkpt lat="49.88583" lon="1.9935">
        <ele>78.2</ele>
        <time>2023-05-03T12:40:58Z</time>
      </trkpt>
      <trkpt lat="49.88583" lon="1.99349">
        <ele>78.2</ele>
        <time>2023-05-03T12:40:59Z</time>
      </trkpt>
      <trkpt lat="49.88583" lon="1.99346">
        <ele>78.2</ele>
        <time>2023-05-03T12:41:00Z</time>
      </trkpt>
      <trkpt lat="49.88583" lon="1.99343">
        <ele>78.2</ele>
        <time>2023-05-03T12:41:02Z</time>
      </trkpt>
      <trkpt lat="49.88583" lon="1.9934">
        <ele>78.2</ele>
        <time>2023-05-03T12:41:03Z</time>
      </trkpt>
      <trkpt lat="49.88582" lon="1.99338">
        <ele>78.2</ele>
        <time>2023-05-03T12:41:04Z</time>
      </trkpt>
      <trkpt lat="49.88582" lon="1.99334">
        <ele>78.2</ele>
        <time>2023-05-03T12:41:05Z</time>
      </trkpt>
      <trkpt lat="49.88583" lon="1.99333">
        <ele>78.2</ele>
        <time>2023-05-03T12:41:07Z</time>
      </trkpt>
      <trkpt lat="49.88583" lon="1.99331">
        <ele>78.2</ele>
        <time>2023-05-03T12:41:08Z</time>
      </trkpt>
      <trkpt lat="49.88583" lon="1.9933">
        <ele>78.2</ele>
        <time>2023-05-03T12:41:09Z</time>
      </trkpt>
      <trkpt lat="49.88583" lon="1.99328">
        <ele>78.3</ele>
        <time>2023-05-03T12:41:10Z</time>
      </trkpt>
      <trkpt lat="49.88583" lon="1.99326">
        <ele>78.3</ele>
        <time>2023-05-03T12:41:11Z</time>
      </trkpt>
      <trkpt lat="49.88583" lon="1.99324">
        <ele>78.3</ele>
        <time>2023-05-03T12:41:12Z</time>
      </trkpt>
      <trkpt lat="49.88583" lon="1.99322">
        <ele>78.3</ele>
        <time>2023-05-03T12:41:13Z</time>
      </trkpt>
      <trkpt lat="49.88583" lon="1.9932">
        <ele>78.3</ele>
        <time>2023-05-03T12:41:14Z</time>
      </trkpt>
      <trkpt lat="49.88584" lon="1.99316">
        <ele>78.3</ele>
        <time>2023-05-03T12:41:16Z</time>
      </trkpt>
      <trkpt lat="49.88584" lon="1.99314">
        <ele>78.3</ele>
        <time>2023-05-03T12:41:17Z</time>
      </trkpt>
      <trkpt lat="49.88585" lon="1.99311">
        <ele>78.4</ele>
        <time>2023-05-03T12:41:18Z</time>
      </trkpt>
      <trkpt lat="49.88585" lon="1.9931">
        <ele>78.4</ele>
        <time>2023-05-03T12:41:19Z</time>
      </trkpt>
      <trkpt lat="49.88585" lon="1.99309">
        <ele>78.4</ele>
        <time>2023-05-03T12:41:20Z</time>
      </trkpt>
      <trkpt lat="49.88586" lon="1.99305">
        <ele>78.4</ele>
        <time>2023-05-03T12:41:21Z</time>
      </trkpt>
      <trkpt lat="49.88586" lon="1.99303">
        <ele>78.4</ele>
        <time>2023-05-03T12:41:23Z</time>
      </trkpt>
      <trkpt lat="49.88586" lon="1.99302">
        <ele>78.5</ele>
        <time>2023-05-03T12:41:24Z</time>
      </trkpt>
      <trkpt lat="49.88587" lon="1.99298">
        <ele>78.5</ele>
        <time>2023-05-03T12:41:25Z</time>
      </trkpt>
      <trkpt lat="49.88587" lon="1.99297">
        <ele>78.5</ele>
        <time>2023-05-03T12:41:26Z</time>
      </trkpt>
      <trkpt lat="49.88587" lon="1.99295">
        <ele>78.5</ele>
        <time>2023-05-03T12:41:27Z</time>
      </trkpt>
      <trkpt lat="49.88587" lon="1.99293">
        <ele>78.6</ele>
        <time>2023-05-03T12:41:29Z</time>
      </trkpt>
      <trkpt lat="49.88587" lon="1.9929">
        <ele>78.6</ele>
        <time>2023-05-03T12:41:30Z</time>
      </trkpt>
      <trkpt lat="49.88588" lon="1.99288">
        <ele>78.6</ele>
        <time>2023-05-03T12:41:31Z</time>
      </trkpt>
      <trkpt lat="49.88588" lon="1.99286">
        <ele>78.6</ele>
        <time>2023-05-03T12:41:32Z</time>
      </trkpt>
      <trkpt lat="49.88588" lon="1.99284">
        <ele>78.7</ele>
        <time>2023-05-03T12:41:33Z</time>
      </trkpt>
      <trkpt lat="49.88589" lon="1.99282">
        <ele>78.7</ele>
        <time>2023-05-03T12:41:34Z</time>
      </trkpt>
      <trkpt lat="49.88589" lon="1.99278">
        <ele>78.7</ele>
        <time>2023-05-03T12:41:35Z</time>
      </trkpt>
      <trkpt lat="49.88589" lon="1.99277">
        <ele>78.7</ele>
        <time>2023-05-03T12:41:36Z</time>
      </trkpt>
      <trkpt lat="49.88589" lon="1.99276">
        <ele>78.7</ele>
        <time>2023-05-03T12:41:37Z</time>
      </trkpt>
      <trkpt lat="49.8859" lon="1.99273">
        <ele>78.8</ele>
        <time>2023-05-03T12:41:39Z</time>
      </trkpt>
      <trkpt lat="49.8859" lon="1.99271">
        <ele>78.8</ele>
        <time>2023-05-03T12:41:40Z</time>
      </trkpt>
      <trkpt lat="49.8859" lon="1.9927">
        <ele>78.8</ele>
        <time>2023-05-03T12:41:41Z</time>
      </trkpt>
      <trkpt lat="49.8859" lon="1.99268">
        <ele>78.8</ele>
        <time>2023-05-03T12:41:42Z</time>
      </trkpt>
      <trkpt lat="49.88591" lon="1.99267">
        <ele>78.9</ele>
        <time>2023-05-03T12:41:43Z</time>
      </trkpt>
      <trkpt lat="49.88591" lon="1.99264">
        <ele>78.9</ele>
        <time>2023-05-03T12:41:45Z</time>
      </trkpt>
      <trkpt lat="49.88591" lon="1.99261">
        <ele>78.9</ele>
        <time>2023-05-03T12:41:46Z</time>
      </trkpt>
      <trkpt lat="49.88591" lon="1.99259">
        <ele>78.9</ele>
        <time>2023-05-03T12:41:47Z</time>
      </trkpt>
      <trkpt lat="49.88591" lon="1.99256">
        <ele>79</ele>
        <time>2023-05-03T12:41:48Z</time>
      </trkpt>
      <trkpt lat="49.88591" lon="1.99254">
        <ele>79</ele>
        <time>2023-05-03T12:41:50Z</time>
      </trkpt>
      <trkpt lat="49.8859" lon="1.99253">
        <ele>79</ele>
        <time>2023-05-03T12:41:51Z</time>
      </trkpt>
      <trkpt lat="49.8859" lon="1.9925">
        <ele>79.1</ele>
        <time>2023-05-03T12:41:52Z</time>
      </trkpt>
      <trkpt lat="49.8859" lon="1.99248">
        <ele>79.1</ele>
        <time>2023-05-03T12:41:53Z</time>
      </trkpt>
      <trkpt lat="49.8859" lon="1.99247">
        <ele>79.1</ele>
        <time>2023-05-03T12:41:54Z</time>
      </trkpt>
      <trkpt lat="49.8859" lon="1.99245">
        <ele>79.1</ele>
        <time>2023-05-03T12:41:55Z</time>
      </trkpt>
      <trkpt lat="49.8859" lon="1.99243">
        <ele>79.2</ele>
        <time>2023-05-03T12:41:56Z</time>
      </trkpt>
      <trkpt lat="49.8859" lon="1.99239">
        <ele>79.2</ele>
        <time>2023-05-03T12:41:57Z</time>
      </trkpt>
      <trkpt lat="49.8859" lon="1.99238">
        <ele>79.2</ele>
        <time>2023-05-03T12:41:59Z</time>
      </trkpt>
      <trkpt lat="49.8859" lon="1.99237">
        <ele>79.2</ele>
        <time>2023-05-03T12:42:00Z</time>
      </trkpt>
      <trkpt lat="49.8859" lon="1.99234">
        <ele>79.3</ele>
        <time>2023-05-03T12:42:01Z</time>
      </trkpt>
      <trkpt lat="49.8859" lon="1.99232">
        <ele>79.3</ele>
        <time>2023-05-03T12:42:02Z</time>
      </trkpt>
      <trkpt lat="49.8859" lon="1.99231">
        <ele>79.3</ele>
        <time>2023-05-03T12:42:03Z</time>
      </trkpt>
      <trkpt lat="49.8859" lon="1.99229">
        <ele>79.3</ele>
        <time>2023-05-03T12:42:04Z</time>
      </trkpt>
      <trkpt lat="49.8859" lon="1.99227">
        <ele>79.4</ele>
        <time>2023-05-03T12:42:05Z</time>
      </trkpt>
      <trkpt lat="49.8859" lon="1.99225">
        <ele>79.4</ele>
        <time>2023-05-03T12:42:07Z</time>
      </trkpt>
      <trkpt lat="49.8859" lon="1.99224">
        <ele>79.4</ele>
        <time>2023-05-03T12:42:08Z</time>
      </trkpt>
      <trkpt lat="49.8859" lon="1.99222">
        <ele>79.4</ele>
        <time>2023-05-03T12:42:09Z</time>
      </trkpt>
      <trkpt lat="49.88591" lon="1.9922">
        <ele>79.5</ele>
        <time>2023-05-03T12:42:10Z</time>
      </trkpt>
      <trkpt lat="49.88591" lon="1.99217">
        <ele>79.5</ele>
        <time>2023-05-03T12:42:11Z</time>
      </trkpt>
      <trkpt lat="49.88591" lon="1.99216">
        <ele>79.5</ele>
        <time>2023-05-03T12:42:12Z</time>
      </trkpt>
      <trkpt lat="49.88591" lon="1.99214">
        <ele>79.5</ele>
        <time>2023-05-03T12:42:13Z</time>
      </trkpt>
      <trkpt lat="49.88591" lon="1.99211">
        <ele>79.6</ele>
        <time>2023-05-03T12:42:15Z</time>
      </trkpt>
      <trkpt lat="49.88592" lon="1.9921">
        <ele>79.6</ele>
        <time>2023-05-03T12:42:16Z</time>
      </trkpt>
      <trkpt lat="49.88592" lon="1.99209">
        <ele>79.6</ele>
        <time>2023-05-03T12:42:17Z</time>
      </trkpt>
      <trkpt lat="49.88592" lon="1.99206">
        <ele>79.6</ele>
        <time>2023-05-03T12:42:18Z</time>
      </trkpt>
      <trkpt lat="49.88593" lon="1.99204">
        <ele>79.7</ele>
        <time>2023-05-03T12:42:19Z</time>
      </trkpt>
      <trkpt lat="49.88593" lon="1.99203">
        <ele>79.7</ele>
        <time>2023-05-03T12:42:20Z</time>
      </trkpt>
      <trkpt lat="49.88593" lon="1.992">
        <ele>79.7</ele>
        <time>2023-05-03T12:42:21Z</time>
      </trkpt>
      <trkpt lat="49.88594" lon="1.99198">
        <ele>79.7</ele>
        <time>2023-05-03T12:42:23Z</time>
      </trkpt>
      <trkpt lat="49.88594" lon="1.99197">
        <ele>79.8</ele>
        <time>2023-05-03T12:42:24Z</time>
      </trkpt>
      <trkpt lat="49.88594" lon="1.99194">
        <ele>79.8</ele>
        <time>2023-05-03T12:42:25Z</time>
      </trkpt>
      <trkpt lat="49.88594" lon="1.99193">
        <ele>79.8</ele>
        <time>2023-05-03T12:42:26Z</time>
      </trkpt>
      <trkpt lat="49.88594" lon="1.99191">
        <ele>79.8</ele>
        <time>2023-05-03T12:42:27Z</time>
      </trkpt>
      <trkpt lat="49.88594" lon="1.9919">
        <ele>79.8</ele>
        <time>2023-05-03T12:42:28Z</time>
      </trkpt>
      <trkpt lat="49.88594" lon="1.99186">
        <ele>79.8</ele>
        <time>2023-05-03T12:42:30Z</time>
      </trkpt>
      <trkpt lat="49.88593" lon="1.99185">
        <ele>79.9</ele>
        <time>2023-05-03T12:42:31Z</time>
      </trkpt>
      <trkpt lat="49.88594" lon="1.99183">
        <ele>79.9</ele>
        <time>2023-05-03T12:42:32Z</time>
      </trkpt>
      <trkpt lat="49.88594" lon="1.99181">
        <ele>79.9</ele>
        <time>2023-05-03T12:42:33Z</time>
      </trkpt>
      <trkpt lat="49.88594" lon="1.99178">
        <ele>79.9</ele>
        <time>2023-05-03T12:42:34Z</time>
      </trkpt>
      <trkpt lat="49.88595" lon="1.99176">
        <ele>79.9</ele>
        <time>2023-05-03T12:42:36Z</time>
      </trkpt>
      <trkpt lat="49.88595" lon="1.99174">
        <ele>79.9</ele>
        <time>2023-05-03T12:42:37Z</time>
      </trkpt>
      <trkpt lat="49.88595" lon="1.99173">
        <ele>79.9</ele>
        <time>2023-05-03T12:42:38Z</time>
      </trkpt>
      <trkpt lat="49.88596" lon="1.99171">
        <ele>79.9</ele>
        <time>2023-05-03T12:42:39Z</time>
      </trkpt>
      <trkpt lat="49.88596" lon="1.99169">
        <ele>79.9</ele>
        <time>2023-05-03T12:42:40Z</time>
      </trkpt>
      <trkpt lat="49.88597" lon="1.99167">
        <ele>80</ele>
        <time>2023-05-03T12:42:41Z</time>
      </trkpt>
      <trkpt lat="49.88597" lon="1.99164">
        <ele>80</ele>
        <time>2023-05-03T12:42:43Z</time>
      </trkpt>
      <trkpt lat="49.88597" lon="1.99162">
        <ele>80</ele>
        <time>2023-05-03T12:42:44Z</time>
      </trkpt>
      <trkpt lat="49.88598" lon="1.9916">
        <ele>80</ele>
        <time>2023-05-03T12:42:45Z</time>
      </trkpt>
      <trkpt lat="49.88598" lon="1.99158">
        <ele>80</ele>
        <time>2023-05-03T12:42:46Z</time>
      </trkpt>
      <trkpt lat="49.88599" lon="1.99155">
        <ele>80</ele>
        <time>2023-05-03T12:42:47Z</time>
      </trkpt>
      <trkpt lat="49.88599" lon="1.99153">
        <ele>80</ele>
        <time>2023-05-03T12:42:48Z</time>
      </trkpt>
      <trkpt lat="49.886" lon="1.9915">
        <ele>80</ele>
        <time>2023-05-03T12:42:49Z</time>
      </trkpt>
      <trkpt lat="49.886" lon="1.99148">
        <ele>80.1</ele>
        <time>2023-05-03T12:42:50Z</time>
      </trkpt>
      <trkpt lat="49.886" lon="1.99145">
        <ele>80.1</ele>
        <time>2023-05-03T12:42:51Z</time>
      </trkpt>
      <trkpt lat="49.88601" lon="1.99143">
        <ele>80.1</ele>
        <time>2023-05-03T12:42:53Z</time>
      </trkpt>
      <trkpt lat="49.88601" lon="1.99141">
        <ele>80.1</ele>
        <time>2023-05-03T12:42:54Z</time>
      </trkpt>
      <trkpt lat="49.88601" lon="1.99139">
        <ele>80.1</ele>
        <time>2023-05-03T12:42:55Z</time>
      </trkpt>
      <trkpt lat="49.88601" lon="1.99135">
        <ele>80.2</ele>
        <time>2023-05-03T12:42:56Z</time>
      </trkpt>
      <trkpt lat="49.88602" lon="1.99134">
        <ele>80.2</ele>
        <time>2023-05-03T12:42:57Z</time>
      </trkpt>
      <trkpt lat="49.88602" lon="1.99132">
        <ele>80.2</ele>
        <time>2023-05-03T12:42:58Z</time>
      </trkpt>
      <trkpt lat="49.88602" lon="1.99129">
        <ele>80.2</ele>
        <time>2023-05-03T12:43:00Z</time>
      </trkpt>
      <trkpt lat="49.88602" lon="1.99128">
        <ele>80.3</ele>
        <time>2023-05-03T12:43:01Z</time>
      </trkpt>
      <trkpt lat="49.88602" lon="1.99126">
        <ele>80.3</ele>
        <time>2023-05-03T12:43:02Z</time>
      </trkpt>
      <trkpt lat="49.88603" lon="1.99123">
        <ele>80.3</ele>
        <time>2023-05-03T12:43:03Z</time>
      </trkpt>
      <trkpt lat="49.88603" lon="1.99122">
        <ele>80.4</ele>
        <time>2023-05-03T12:43:04Z</time>
      </trkpt>
      <trkpt lat="49.88603" lon="1.9912">
        <ele>80.4</ele>
        <time>2023-05-03T12:43:05Z</time>
      </trkpt>
      <trkpt lat="49.88603" lon="1.99118">
        <ele>80.4</ele>
        <time>2023-05-03T12:43:06Z</time>
      </trkpt>
      <trkpt lat="49.88603" lon="1.99116">
        <ele>80.4</ele>
        <time>2023-05-03T12:43:08Z</time>
      </trkpt>
      <trkpt lat="49.88603" lon="1.99114">
        <ele>80.5</ele>
        <time>2023-05-03T12:43:09Z</time>
      </trkpt>
      <trkpt lat="49.88603" lon="1.99112">
        <ele>80.5</ele>
        <time>2023-05-03T12:43:10Z</time>
      </trkpt>
      <trkpt lat="49.88603" lon="1.9911">
        <ele>80.5</ele>
        <time>2023-05-03T12:43:11Z</time>
      </trkpt>
      <trkpt lat="49.88603" lon="1.99107">
        <ele>80.6</ele>
        <time>2023-05-03T12:43:12Z</time>
      </trkpt>
      <trkpt lat="49.88603" lon="1.99106">
        <ele>80.6</ele>
        <time>2023-05-03T12:43:13Z</time>
      </trkpt>
      <trkpt lat="49.88603" lon="1.99104">
        <ele>80.6</ele>
        <time>2023-05-03T12:43:14Z</time>
      </trkpt>
      <trkpt lat="49.88603" lon="1.99102">
        <ele>80.7</ele>
        <time>2023-05-03T12:43:15Z</time>
      </trkpt>
      <trkpt lat="49.88603" lon="1.991">
        <ele>80.7</ele>
        <time>2023-05-03T12:43:16Z</time>
      </trkpt>
      <trkpt lat="49.88603" lon="1.99098">
        <ele>80.7</ele>
        <time>2023-05-03T12:43:18Z</time>
      </trkpt>
      <trkpt lat="49.88603" lon="1.99095">
        <ele>80.8</ele>
        <time>2023-05-03T12:43:19Z</time>
      </trkpt>
      <trkpt lat="49.88603" lon="1.99093">
        <ele>80.8</ele>
        <time>2023-05-03T12:43:20Z</time>
      </trkpt>
      <trkpt lat="49.88603" lon="1.99092">
        <ele>80.8</ele>
        <time>2023-05-03T12:43:21Z</time>
      </trkpt>
      <trkpt lat="49.88603" lon="1.9909">
        <ele>80.9</ele>
        <time>2023-05-03T12:43:22Z</time>
      </trkpt>
      <trkpt lat="49.88603" lon="1.99088">
        <ele>80.9</ele>
        <time>2023-05-03T12:43:23Z</time>
      </trkpt>
      <trkpt lat="49.88603" lon="1.99086">
        <ele>80.9</ele>
        <time>2023-05-03T12:43:24Z</time>
      </trkpt>
      <trkpt lat="49.88603" lon="1.99083">
        <ele>81</ele>
        <time>2023-05-03T12:43:25Z</time>
      </trkpt>
      <trkpt lat="49.88604" lon="1.99082">
        <ele>81</ele>
        <time>2023-05-03T12:43:27Z</time>
      </trkpt>
      <trkpt lat="49.88604" lon="1.99081">
        <ele>81</ele>
        <time>2023-05-03T12:43:28Z</time>
      </trkpt>
      <trkpt lat="49.88604" lon="1.99079">
        <ele>81.1</ele>
        <time>2023-05-03T12:43:29Z</time>
      </trkpt>
      <trkpt lat="49.88604" lon="1.99077">
        <ele>81.1</ele>
        <time>2023-05-03T12:43:30Z</time>
      </trkpt>
      <trkpt lat="49.88604" lon="1.99075">
        <ele>81.1</ele>
        <time>2023-05-03T12:43:31Z</time>
      </trkpt>
      <trkpt lat="49.88605" lon="1.99074">
        <ele>81.2</ele>
        <time>2023-05-03T12:43:32Z</time>
      </trkpt>
      <trkpt lat="49.88605" lon="1.99072">
        <ele>81.2</ele>
        <time>2023-05-03T12:43:33Z</time>
      </trkpt>
      <trkpt lat="49.88605" lon="1.9907">
        <ele>81.2</ele>
        <time>2023-05-03T12:43:34Z</time>
      </trkpt>
      <trkpt lat="49.88605" lon="1.99067">
        <ele>81.3</ele>
        <time>2023-05-03T12:43:36Z</time>
      </trkpt>
      <trkpt lat="49.88606" lon="1.99066">
        <ele>81.3</ele>
        <time>2023-05-03T12:43:37Z</time>
      </trkpt>
      <trkpt lat="49.88606" lon="1.99064">
        <ele>81.3</ele>
        <time>2023-05-03T12:43:38Z</time>
      </trkpt>
      <trkpt lat="49.88606" lon="1.99063">
        <ele>81.4</ele>
        <time>2023-05-03T12:43:39Z</time>
      </trkpt>
      <trkpt lat="49.88606" lon="1.99061">
        <ele>81.4</ele>
        <time>2023-05-03T12:43:40Z</time>
      </trkpt>
      <trkpt lat="49.88606" lon="1.99059">
        <ele>81.4</ele>
        <time>2023-05-03T12:43:41Z</time>
      </trkpt>
      <trkpt lat="49.88607" lon="1.99056">
        <ele>81.5</ele>
        <time>2023-05-03T12:43:42Z</time>
      </trkpt>
      <trkpt lat="49.88607" lon="1.99054">
        <ele>81.5</ele>
        <time>2023-05-03T12:43:44Z</time>
      </trkpt>
      <trkpt lat="49.88607" lon="1.99053">
        <ele>81.6</ele>
        <time>2023-05-03T12:43:45Z</time>
      </trkpt>
      <trkpt lat="49.88607" lon="1.99051">
        <ele>81.6</ele>
        <time>2023-05-03T12:43:46Z</time>
      </trkpt>
      <trkpt lat="49.88608" lon="1.9905">
        <ele>81.6</ele>
        <time>2023-05-03T12:43:47Z</time>
      </trkpt>
      <trkpt lat="49.88608" lon="1.99048">
        <ele>81.7</ele>
        <time>2023-05-03T12:43:48Z</time>
      </trkpt>
      <trkpt lat="49.88608" lon="1.99045">
        <ele>81.7</ele>
        <time>2023-05-03T12:43:49Z</time>
      </trkpt>
      <trkpt lat="49.88608" lon="1.99043">
        <ele>81.7</ele>
        <time>2023-05-03T12:43:50Z</time>
      </trkpt>
      <trkpt lat="49.88608" lon="1.99042">
        <ele>81.8</ele>
        <time>2023-05-03T12:43:51Z</time>
      </trkpt>
      <trkpt lat="49.88609" lon="1.9904">
        <ele>81.8</ele>
        <time>2023-05-03T12:43:52Z</time>
      </trkpt>
      <trkpt lat="49.88609" lon="1.99038">
        <ele>81.8</ele>
        <time>2023-05-03T12:43:53Z</time>
      </trkpt>
      <trkpt lat="49.88609" lon="1.99035">
        <ele>81.9</ele>
        <time>2023-05-03T12:43:54Z</time>
      </trkpt>
      <trkpt lat="49.88609" lon="1.99033">
        <ele>81.9</ele>
        <time>2023-05-03T12:43:56Z</time>
      </trkpt>
      <trkpt lat="49.88609" lon="1.99031">
        <ele>82</ele>
        <time>2023-05-03T12:43:57Z</time>
      </trkpt>
      <trkpt lat="49.8861" lon="1.99028">
        <ele>82</ele>
        <time>2023-05-03T12:43:58Z</time>
      </trkpt>
      <trkpt lat="49.8861" lon="1.99026">
        <ele>82</ele>
        <time>2023-05-03T12:43:59Z</time>
      </trkpt>
      <trkpt lat="49.8861" lon="1.99024">
        <ele>82.1</ele>
        <time>2023-05-03T12:44:00Z</time>
      </trkpt>
      <trkpt lat="49.8861" lon="1.99021">
        <ele>82.1</ele>
        <time>2023-05-03T12:44:01Z</time>
      </trkpt>
      <trkpt lat="49.88611" lon="1.99019">
        <ele>82.1</ele>
        <time>2023-05-03T12:44:03Z</time>
      </trkpt>
      <trkpt lat="49.88611" lon="1.99017">
        <ele>82.2</ele>
        <time>2023-05-03T12:44:04Z</time>
      </trkpt>
      <trkpt lat="49.88611" lon="1.99016">
        <ele>82.2</ele>
        <time>2023-05-03T12:44:05Z</time>
      </trkpt>
      <trkpt lat="49.88611" lon="1.99014">
        <ele>82.2</ele>
        <time>2023-05-03T12:44:06Z</time>
      </trkpt>
      <trkpt lat="49.88611" lon="1.99013">
        <ele>82.2</ele>
        <time>2023-05-03T12:44:07Z</time>
      </trkpt>
      <trkpt lat="49.88612" lon="1.9901">
        <ele>82.3</ele>
        <time>2023-05-03T12:44:09Z</time>
      </trkpt>
      <trkpt lat="49.88612" lon="1.99008">
        <ele>82.3</ele>
        <time>2023-05-03T12:44:10Z</time>
      </trkpt>
      <trkpt lat="49.88612" lon="1.99006">
        <ele>82.3</ele>
        <time>2023-05-03T12:44:11Z</time>
      </trkpt>
      <trkpt lat="49.88612" lon="1.99005">
        <ele>82.3</ele>
        <time>2023-05-03T12:44:12Z</time>
      </trkpt>
      <trkpt lat="49.88613" lon="1.99003">
        <ele>82.4</ele>
        <time>2023-05-03T12:44:14Z</time>
      </trkpt>
      <trkpt lat="49.88613" lon="1.99001">
        <ele>82.4</ele>
        <time>2023-05-03T12:44:15Z</time>
      </trkpt>
      <trkpt lat="49.88613" lon="1.99">
        <ele>82.4</ele>
        <time>2023-05-03T12:44:16Z</time>
      </trkpt>
      <trkpt lat="49.88613" lon="1.98998">
        <ele>82.4</ele>
        <time>2023-05-03T12:44:17Z</time>
      </trkpt>
      <trkpt lat="49.88613" lon="1.98997">
        <ele>82.4</ele>
        <time>2023-05-03T12:44:18Z</time>
      </trkpt>
      <trkpt lat="49.88613" lon="1.98995">
        <ele>82.5</ele>
        <time>2023-05-03T12:44:19Z</time>
      </trkpt>
      <trkpt lat="49.88614" lon="1.98993">
        <ele>82.5</ele>
        <time>2023-05-03T12:44:20Z</time>
      </trkpt>
      <trkpt lat="49.88614" lon="1.98991">
        <ele>82.5</ele>
        <time>2023-05-03T12:44:22Z</time>
      </trkpt>
      <trkpt lat="49.88614" lon="1.98989">
        <ele>82.5</ele>
        <time>2023-05-03T12:44:23Z</time>
      </trkpt>
      <trkpt lat="49.88614" lon="1.98988">
        <ele>82.6</ele>
        <time>2023-05-03T12:44:24Z</time>
      </trkpt>
      <trkpt lat="49.88614" lon="1.98986">
        <ele>82.6</ele>
        <time>2023-05-03T12:44:25Z</time>
      </trkpt>
      <trkpt lat="49.88614" lon="1.98984">
        <ele>82.6</ele>
        <time>2023-05-03T12:44:26Z</time>
      </trkpt>
      <trkpt lat="49.88614" lon="1.98981">
        <ele>82.6</ele>
        <time>2023-05-03T12:44:27Z</time>
      </trkpt>
      <trkpt lat="49.88614" lon="1.9898">
        <ele>82.7</ele>
        <time>2023-05-03T12:44:29Z</time>
      </trkpt>
      <trkpt lat="49.88615" lon="1.98979">
        <ele>82.7</ele>
        <time>2023-05-03T12:44:30Z</time>
      </trkpt>
      <trkpt lat="49.88615" lon="1.98977">
        <ele>82.7</ele>
        <time>2023-05-03T12:44:31Z</time>
      </trkpt>
      <trkpt lat="49.88615" lon="1.98976">
        <ele>82.7</ele>
        <time>2023-05-03T12:44:32Z</time>
      </trkpt>
      <trkpt lat="49.88615" lon="1.98974">
        <ele>82.8</ele>
        <time>2023-05-03T12:44:33Z</time>
      </trkpt>
      <trkpt lat="49.88615" lon="1.98972">
        <ele>82.8</ele>
        <time>2023-05-03T12:44:34Z</time>
      </trkpt>
      <trkpt lat="49.88615" lon="1.98971">
        <ele>82.8</ele>
        <time>2023-05-03T12:44:35Z</time>
      </trkpt>
      <trkpt lat="49.88615" lon="1.98969">
        <ele>82.8</ele>
        <time>2023-05-03T12:44:37Z</time>
      </trkpt>
      <trkpt lat="49.88615" lon="1.98967">
        <ele>82.9</ele>
        <time>2023-05-03T12:44:38Z</time>
      </trkpt>
      <trkpt lat="49.88615" lon="1.98965">
        <ele>82.9</ele>
        <time>2023-05-03T12:44:39Z</time>
      </trkpt>
      <trkpt lat="49.88616" lon="1.98964">
        <ele>82.9</ele>
        <time>2023-05-03T12:44:40Z</time>
      </trkpt>
      <trkpt lat="49.88616" lon="1.98962">
        <ele>83</ele>
        <time>2023-05-03T12:44:41Z</time>
      </trkpt>
      <trkpt lat="49.88616" lon="1.9896">
        <ele>83</ele>
        <time>2023-05-03T12:44:42Z</time>
      </trkpt>
      <trkpt lat="49.88616" lon="1.98958">
        <ele>83</ele>
        <time>2023-05-03T12:44:43Z</time>
      </trkpt>
      <trkpt lat="49.88616" lon="1.98956">
        <ele>83.1</ele>
        <time>2023-05-03T12:44:45Z</time>
      </trkpt>
      <trkpt lat="49.88616" lon="1.98954">
        <ele>83.1</ele>
        <time>2023-05-03T12:44:46Z</time>
      </trkpt>
      <trkpt lat="49.88616" lon="1.98953">
        <ele>83.1</ele>
        <time>2023-05-03T12:44:47Z</time>
      </trkpt>
      <trkpt lat="49.88616" lon="1.98949">
        <ele>83.2</ele>
        <time>2023-05-03T12:44:48Z</time>
      </trkpt>
      <trkpt lat="49.88616" lon="1.98948">
        <ele>83.2</ele>
        <time>2023-05-03T12:44:49Z</time>
      </trkpt>
      <trkpt lat="49.88616" lon="1.98947">
        <ele>83.2</ele>
        <time>2023-05-03T12:44:50Z</time>
      </trkpt>
      <trkpt lat="49.88616" lon="1.98944">
        <ele>83.3</ele>
        <time>2023-05-03T12:44:51Z</time>
      </trkpt>
      <trkpt lat="49.88616" lon="1.98943">
        <ele>83.3</ele>
        <time>2023-05-03T12:44:53Z</time>
      </trkpt>
      <trkpt lat="49.88616" lon="1.98941">
        <ele>83.3</ele>
        <time>2023-05-03T12:44:54Z</time>
      </trkpt>
      <trkpt lat="49.88616" lon="1.98938">
        <ele>83.3</ele>
        <time>2023-05-03T12:44:55Z</time>
      </trkpt>
      <trkpt lat="49.88616" lon="1.98937">
        <ele>83.3</ele>
        <time>2023-05-03T12:44:56Z</time>
      </trkpt>
      <trkpt lat="49.88616" lon="1.98936">
        <ele>83.4</ele>
        <time>2023-05-03T12:44:57Z</time>
      </trkpt>
      <trkpt lat="49.88616" lon="1.98932">
        <ele>83.4</ele>
        <time>2023-05-03T12:44:58Z</time>
      </trkpt>
      <trkpt lat="49.88616" lon="1.98931">
        <ele>83.4</ele>
        <time>2023-05-03T12:44:59Z</time>
      </trkpt>
      <trkpt lat="49.88616" lon="1.98929">
        <ele>83.4</ele>
        <time>2023-05-03T12:45:00Z</time>
      </trkpt>
      <trkpt lat="49.88616" lon="1.98927">
        <ele>83.5</ele>
        <time>2023-05-03T12:45:02Z</time>
      </trkpt>
      <trkpt lat="49.88616" lon="1.98925">
        <ele>83.5</ele>
        <time>2023-05-03T12:45:03Z</time>
      </trkpt>
      <trkpt lat="49.88616" lon="1.98923">
        <ele>83.5</ele>
        <time>2023-05-03T12:45:04Z</time>
      </trkpt>
      <trkpt lat="49.88616" lon="1.98921">
        <ele>83.5</ele>
        <time>2023-05-03T12:45:05Z</time>
      </trkpt>
      <trkpt lat="49.88616" lon="1.98919">
        <ele>83.6</ele>
        <time>2023-05-03T12:45:06Z</time>
      </trkpt>
      <trkpt lat="49.88616" lon="1.98917">
        <ele>83.6</ele>
        <time>2023-05-03T12:45:07Z</time>
      </trkpt>
      <trkpt lat="49.88616" lon="1.98913">
        <ele>83.6</ele>
        <time>2023-05-03T12:45:08Z</time>
      </trkpt>
      <trkpt lat="49.88616" lon="1.98912">
        <ele>83.6</ele>
        <time>2023-05-03T12:45:10Z</time>
      </trkpt>
      <trkpt lat="49.88616" lon="1.98911">
        <ele>83.6</ele>
        <time>2023-05-03T12:45:11Z</time>
      </trkpt>
      <trkpt lat="49.88616" lon="1.98907">
        <ele>83.7</ele>
        <time>2023-05-03T12:45:12Z</time>
      </trkpt>
      <trkpt lat="49.88616" lon="1.98906">
        <ele>83.7</ele>
        <time>2023-05-03T12:45:13Z</time>
      </trkpt>
      <trkpt lat="49.88616" lon="1.98905">
        <ele>83.7</ele>
        <time>2023-05-03T12:45:14Z</time>
      </trkpt>
      <trkpt lat="49.88616" lon="1.98901">
        <ele>83.7</ele>
        <time>2023-05-03T12:45:15Z</time>
      </trkpt>
      <trkpt lat="49.88615" lon="1.989">
        <ele>83.8</ele>
        <time>2023-05-03T12:45:16Z</time>
      </trkpt>
      <trkpt lat="49.88615" lon="1.98899">
        <ele>83.8</ele>
        <time>2023-05-03T12:45:17Z</time>
      </trkpt>
      <trkpt lat="49.88615" lon="1.98895">
        <ele>83.8</ele>
        <time>2023-05-03T12:45:19Z</time>
      </trkpt>
      <trkpt lat="49.88615" lon="1.98894">
        <ele>83.8</ele>
        <time>2023-05-03T12:45:20Z</time>
      </trkpt>
      <trkpt lat="49.88615" lon="1.98893">
        <ele>83.8</ele>
        <time>2023-05-03T12:45:21Z</time>
      </trkpt>
      <trkpt lat="49.88615" lon="1.9889">
        <ele>83.9</ele>
        <time>2023-05-03T12:45:22Z</time>
      </trkpt>
      <trkpt lat="49.88615" lon="1.98888">
        <ele>83.9</ele>
        <time>2023-05-03T12:45:23Z</time>
      </trkpt>
      <trkpt lat="49.88615" lon="1.98887">
        <ele>83.9</ele>
        <time>2023-05-03T12:45:24Z</time>
      </trkpt>
      <trkpt lat="49.88615" lon="1.98883">
        <ele>84</ele>
        <time>2023-05-03T12:45:25Z</time>
      </trkpt>
      <trkpt lat="49.88615" lon="1.98882">
        <ele>84</ele>
        <time>2023-05-03T12:45:27Z</time>
      </trkpt>
      <trkpt lat="49.88615" lon="1.9888">
        <ele>84</ele>
        <time>2023-05-03T12:45:28Z</time>
      </trkpt>
      <trkpt lat="49.88615" lon="1.98878">
        <ele>84</ele>
        <time>2023-05-03T12:45:29Z</time>
      </trkpt>
      <trkpt lat="49.88615" lon="1.98877">
        <ele>84</ele>
        <time>2023-05-03T12:45:30Z</time>
      </trkpt>
      <trkpt lat="49.88615" lon="1.98873">
        <ele>84.1</ele>
        <time>2023-05-03T12:45:31Z</time>
      </trkpt>
      <trkpt lat="49.88615" lon="1.98872">
        <ele>84.1</ele>
        <time>2023-05-03T12:45:32Z</time>
      </trkpt>
      <trkpt lat="49.88615" lon="1.9887">
        <ele>84.1</ele>
        <time>2023-05-03T12:45:33Z</time>
      </trkpt>
      <trkpt lat="49.88615" lon="1.98868">
        <ele>84.1</ele>
        <time>2023-05-03T12:45:34Z</time>
      </trkpt>
      <trkpt lat="49.88615" lon="1.98866">
        <ele>84.1</ele>
        <time>2023-05-03T12:45:35Z</time>
      </trkpt>
      <trkpt lat="49.88616" lon="1.98864">
        <ele>84.1</ele>
        <time>2023-05-03T12:45:37Z</time>
      </trkpt>
      <trkpt lat="49.88616" lon="1.98861">
        <ele>84.2</ele>
        <time>2023-05-03T12:45:38Z</time>
      </trkpt>
      <trkpt lat="49.88616" lon="1.9886">
        <ele>84.2</ele>
        <time>2023-05-03T12:45:39Z</time>
      </trkpt>
      <trkpt lat="49.88616" lon="1.98858">
        <ele>84.2</ele>
        <time>2023-05-03T12:45:40Z</time>
      </trkpt>
      <trkpt lat="49.88617" lon="1.98855">
        <ele>84.2</ele>
        <time>2023-05-03T12:45:41Z</time>
      </trkpt>
      <trkpt lat="49.88617" lon="1.98854">
        <ele>84.2</ele>
        <time>2023-05-03T12:45:42Z</time>
      </trkpt>
      <trkpt lat="49.88617" lon="1.98852">
        <ele>84.2</ele>
        <time>2023-05-03T12:45:43Z</time>
      </trkpt>
      <trkpt lat="49.88617" lon="1.98849">
        <ele>84.3</ele>
        <time>2023-05-03T12:45:44Z</time>
      </trkpt>
      <trkpt lat="49.88617" lon="1.98848">
        <ele>84.3</ele>
        <time>2023-05-03T12:45:46Z</time>
      </trkpt>
      <trkpt lat="49.88617" lon="1.98846">
        <ele>84.3</ele>
        <time>2023-05-03T12:45:47Z</time>
      </trkpt>
      <trkpt lat="49.88618" lon="1.98843">
        <ele>84.3</ele>
        <time>2023-05-03T12:45:48Z</time>
      </trkpt>
      <trkpt lat="49.88618" lon="1.98842">
        <ele>84.3</ele>
        <time>2023-05-03T12:45:49Z</time>
      </trkpt>
      <trkpt lat="49.88618" lon="1.98841">
        <ele>84.3</ele>
        <time>2023-05-03T12:45:50Z</time>
      </trkpt>
      <trkpt lat="49.88618" lon="1.98837">
        <ele>84.3</ele>
        <time>2023-05-03T12:45:51Z</time>
      </trkpt>
      <trkpt lat="49.88618" lon="1.98836">
        <ele>84.3</ele>
        <time>2023-05-03T12:45:52Z</time>
      </trkpt>
      <trkpt lat="49.88618" lon="1.98835">
        <ele>84.3</ele>
        <time>2023-05-03T12:45:53Z</time>
      </trkpt>
      <trkpt lat="49.88618" lon="1.98831">
        <ele>84.4</ele>
        <time>2023-05-03T12:45:55Z</time>
      </trkpt>
      <trkpt lat="49.88618" lon="1.9883">
        <ele>84.4</ele>
        <time>2023-05-03T12:45:56Z</time>
      </trkpt>
      <trkpt lat="49.88619" lon="1.98828">
        <ele>84.4</ele>
        <time>2023-05-03T12:45:57Z</time>
      </trkpt>
      <trkpt lat="49.88619" lon="1.98825">
        <ele>84.4</ele>
        <time>2023-05-03T12:45:58Z</time>
      </trkpt>
      <trkpt lat="49.88619" lon="1.98824">
        <ele>84.4</ele>
        <time>2023-05-03T12:45:59Z</time>
      </trkpt>
      <trkpt lat="49.88619" lon="1.98822">
        <ele>84.4</ele>
        <time>2023-05-03T12:46:00Z</time>
      </trkpt>
      <trkpt lat="49.88619" lon="1.98819">
        <ele>84.4</ele>
        <time>2023-05-03T12:46:01Z</time>
      </trkpt>
      <trkpt lat="49.88619" lon="1.98818">
        <ele>84.4</ele>
        <time>2023-05-03T12:46:02Z</time>
      </trkpt>
      <trkpt lat="49.88619" lon="1.98816">
        <ele>84.4</ele>
        <time>2023-05-03T12:46:03Z</time>
      </trkpt>
      <trkpt lat="49.88619" lon="1.98813">
        <ele>84.5</ele>
        <time>2023-05-03T12:46:05Z</time>
      </trkpt>
      <trkpt lat="49.88619" lon="1.98812">
        <ele>84.5</ele>
        <time>2023-05-03T12:46:06Z</time>
      </trkpt>
      <trkpt lat="49.88619" lon="1.9881">
        <ele>84.5</ele>
        <time>2023-05-03T12:46:07Z</time>
      </trkpt>
      <trkpt lat="49.88619" lon="1.98808">
        <ele>84.5</ele>
        <time>2023-05-03T12:46:08Z</time>
      </trkpt>
      <trkpt lat="49.8862" lon="1.98806">
        <ele>84.5</ele>
        <time>2023-05-03T12:46:09Z</time>
      </trkpt>
      <trkpt lat="49.8862" lon="1.98802">
        <ele>84.5</ele>
        <time>2023-05-03T12:46:10Z</time>
      </trkpt>
      <trkpt lat="49.8862" lon="1.98801">
        <ele>84.5</ele>
        <time>2023-05-03T12:46:12Z</time>
      </trkpt>
      <trkpt lat="49.8862" lon="1.98799">
        <ele>84.5</ele>
        <time>2023-05-03T12:46:13Z</time>
      </trkpt>
      <trkpt lat="49.8862" lon="1.98798">
        <ele>84.6</ele>
        <time>2023-05-03T12:46:14Z</time>
      </trkpt>
      <trkpt lat="49.8862" lon="1.98796">
        <ele>84.6</ele>
        <time>2023-05-03T12:46:15Z</time>
      </trkpt>
      <trkpt lat="49.8862" lon="1.98793">
        <ele>84.6</ele>
        <time>2023-05-03T12:46:16Z</time>
      </trkpt>
      <trkpt lat="49.8862" lon="1.98792">
        <ele>84.6</ele>
        <time>2023-05-03T12:46:17Z</time>
      </trkpt>
      <trkpt lat="49.8862" lon="1.98791">
        <ele>84.6</ele>
        <time>2023-05-03T12:46:18Z</time>
      </trkpt>
      <trkpt lat="49.8862" lon="1.98788">
        <ele>84.6</ele>
        <time>2023-05-03T12:46:20Z</time>
      </trkpt>
      <trkpt lat="49.8862" lon="1.98786">
        <ele>84.7</ele>
        <time>2023-05-03T12:46:21Z</time>
      </trkpt>
      <trkpt lat="49.8862" lon="1.98784">
        <ele>84.7</ele>
        <time>2023-05-03T12:46:22Z</time>
      </trkpt>
      <trkpt lat="49.8862" lon="1.98783">
        <ele>84.7</ele>
        <time>2023-05-03T12:46:23Z</time>
      </trkpt>
      <trkpt lat="49.8862" lon="1.98781">
        <ele>84.7</ele>
        <time>2023-05-03T12:46:25Z</time>
      </trkpt>
      <trkpt lat="49.8862" lon="1.98779">
        <ele>84.8</ele>
        <time>2023-05-03T12:46:26Z</time>
      </trkpt>
      <trkpt lat="49.88621" lon="1.98777">
        <ele>84.8</ele>
        <time>2023-05-03T12:46:27Z</time>
      </trkpt>
      <trkpt lat="49.88621" lon="1.98775">
        <ele>84.8</ele>
        <time>2023-05-03T12:46:28Z</time>
      </trkpt>
      <trkpt lat="49.88621" lon="1.98774">
        <ele>84.8</ele>
        <time>2023-05-03T12:46:29Z</time>
      </trkpt>
      <trkpt lat="49.88621" lon="1.98772">
        <ele>84.9</ele>
        <time>2023-05-03T12:46:30Z</time>
      </trkpt>
      <trkpt lat="49.88621" lon="1.9877">
        <ele>84.9</ele>
        <time>2023-05-03T12:46:31Z</time>
      </trkpt>
      <trkpt lat="49.88621" lon="1.98767">
        <ele>84.9</ele>
        <time>2023-05-03T12:46:33Z</time>
      </trkpt>
      <trkpt lat="49.88621" lon="1.98766">
        <ele>85</ele>
        <time>2023-05-03T12:46:34Z</time>
      </trkpt>
      <trkpt lat="49.88621" lon="1.98765">
        <ele>85</ele>
        <time>2023-05-03T12:46:35Z</time>
      </trkpt>
      <trkpt lat="49.88621" lon="1.98761">
        <ele>85</ele>
        <time>2023-05-03T12:46:36Z</time>
      </trkpt>
      <trkpt lat="49.88621" lon="1.9876">
        <ele>85.1</ele>
        <time>2023-05-03T12:46:37Z</time>
      </trkpt>
      <trkpt lat="49.88621" lon="1.98759">
        <ele>85.1</ele>
        <time>2023-05-03T12:46:38Z</time>
      </trkpt>
      <trkpt lat="49.88621" lon="1.98757">
        <ele>85.1</ele>
        <time>2023-05-03T12:46:39Z</time>
      </trkpt>
      <trkpt lat="49.88622" lon="1.98754">
        <ele>85.2</ele>
        <time>2023-05-03T12:46:40Z</time>
      </trkpt>
      <trkpt lat="49.88622" lon="1.98752">
        <ele>85.2</ele>
        <time>2023-05-03T12:46:42Z</time>
      </trkpt>
      <trkpt lat="49.88622" lon="1.9875">
        <ele>85.2</ele>
        <time>2023-05-03T12:46:43Z</time>
      </trkpt>
      <trkpt lat="49.88622" lon="1.98748">
        <ele>85.3</ele>
        <time>2023-05-03T12:46:44Z</time>
      </trkpt>
      <trkpt lat="49.88622" lon="1.98746">
        <ele>85.3</ele>
        <time>2023-05-03T12:46:45Z</time>
      </trkpt>
      <trkpt lat="49.88622" lon="1.98743">
        <ele>85.3</ele>
        <time>2023-05-03T12:46:46Z</time>
      </trkpt>
      <trkpt lat="49.88622" lon="1.98742">
        <ele>85.4</ele>
        <time>2023-05-03T12:46:47Z</time>
      </trkpt>
      <trkpt lat="49.88622" lon="1.9874">
        <ele>85.4</ele>
        <time>2023-05-03T12:46:48Z</time>
      </trkpt>
      <trkpt lat="49.88622" lon="1.98737">
        <ele>85.4</ele>
        <time>2023-05-03T12:46:50Z</time>
      </trkpt>
      <trkpt lat="49.88622" lon="1.98735">
        <ele>85.5</ele>
        <time>2023-05-03T12:46:51Z</time>
      </trkpt>
      <trkpt lat="49.88622" lon="1.98734">
        <ele>85.5</ele>
        <time>2023-05-03T12:46:52Z</time>
      </trkpt>
      <trkpt lat="49.88622" lon="1.98731">
        <ele>85.5</ele>
        <time>2023-05-03T12:46:53Z</time>
      </trkpt>
      <trkpt lat="49.88622" lon="1.98729">
        <ele>85.6</ele>
        <time>2023-05-03T12:46:54Z</time>
      </trkpt>
      <trkpt lat="49.88622" lon="1.98728">
        <ele>85.6</ele>
        <time>2023-05-03T12:46:55Z</time>
      </trkpt>
      <trkpt lat="49.88622" lon="1.98726">
        <ele>85.6</ele>
        <time>2023-05-03T12:46:56Z</time>
      </trkpt>
      <trkpt lat="49.88622" lon="1.98724">
        <ele>85.7</ele>
        <time>2023-05-03T12:46:57Z</time>
      </trkpt>
      <trkpt lat="49.88622" lon="1.98722">
        <ele>85.7</ele>
        <time>2023-05-03T12:46:59Z</time>
      </trkpt>
      <trkpt lat="49.88622" lon="1.98718">
        <ele>85.8</ele>
        <time>2023-05-03T12:47:00Z</time>
      </trkpt>
      <trkpt lat="49.88622" lon="1.98717">
        <ele>85.8</ele>
        <time>2023-05-03T12:47:01Z</time>
      </trkpt>
      <trkpt lat="49.88622" lon="1.98716">
        <ele>85.8</ele>
        <time>2023-05-03T12:47:02Z</time>
      </trkpt>
      <trkpt lat="49.88622" lon="1.98713">
        <ele>85.9</ele>
        <time>2023-05-03T12:47:03Z</time>
      </trkpt>
      <trkpt lat="49.88622" lon="1.98711">
        <ele>85.9</ele>
        <time>2023-05-03T12:47:04Z</time>
      </trkpt>
      <trkpt lat="49.88622" lon="1.9871">
        <ele>85.9</ele>
        <time>2023-05-03T12:47:05Z</time>
      </trkpt>
      <trkpt lat="49.88622" lon="1.98707">
        <ele>86</ele>
        <time>2023-05-03T12:47:07Z</time>
      </trkpt>
      <trkpt lat="49.88622" lon="1.98705">
        <ele>86</ele>
        <time>2023-05-03T12:47:08Z</time>
      </trkpt>
      <trkpt lat="49.88622" lon="1.98704">
        <ele>86</ele>
        <time>2023-05-03T12:47:09Z</time>
      </trkpt>
      <trkpt lat="49.88622" lon="1.98702">
        <ele>86</ele>
        <time>2023-05-03T12:47:10Z</time>
      </trkpt>
      <trkpt lat="49.88621" lon="1.987">
        <ele>86.1</ele>
        <time>2023-05-03T12:47:11Z</time>
      </trkpt>
      <trkpt lat="49.88621" lon="1.98699">
        <ele>86.1</ele>
        <time>2023-05-03T12:47:12Z</time>
      </trkpt>
      <trkpt lat="49.88621" lon="1.98697">
        <ele>86.1</ele>
        <time>2023-05-03T12:47:13Z</time>
      </trkpt>
      <trkpt lat="49.88621" lon="1.98695">
        <ele>86.1</ele>
        <time>2023-05-03T12:47:15Z</time>
      </trkpt>
      <trkpt lat="49.88621" lon="1.98693">
        <ele>86.2</ele>
        <time>2023-05-03T12:47:16Z</time>
      </trkpt>
      <trkpt lat="49.88621" lon="1.98692">
        <ele>86.2</ele>
        <time>2023-05-03T12:47:17Z</time>
      </trkpt>
      <trkpt lat="49.88621" lon="1.9869">
        <ele>86.2</ele>
        <time>2023-05-03T12:47:18Z</time>
      </trkpt>
      <trkpt lat="49.88621" lon="1.98688">
        <ele>86.2</ele>
        <time>2023-05-03T12:47:19Z</time>
      </trkpt>
      <trkpt lat="49.8862" lon="1.98687">
        <ele>86.2</ele>
        <time>2023-05-03T12:47:20Z</time>
      </trkpt>
      <trkpt lat="49.8862" lon="1.98685">
        <ele>86.3</ele>
        <time>2023-05-03T12:47:21Z</time>
      </trkpt>
      <trkpt lat="49.8862" lon="1.98683">
        <ele>86.3</ele>
        <time>2023-05-03T12:47:23Z</time>
      </trkpt>
      <trkpt lat="49.8862" lon="1.98681">
        <ele>86.3</ele>
        <time>2023-05-03T12:47:24Z</time>
      </trkpt>
      <trkpt lat="49.8862" lon="1.9868">
        <ele>86.3</ele>
        <time>2023-05-03T12:47:25Z</time>
      </trkpt>
      <trkpt lat="49.8862" lon="1.98678">
        <ele>86.4</ele>
        <time>2023-05-03T12:47:26Z</time>
      </trkpt>
      <trkpt lat="49.88619" lon="1.98676">
        <ele>86.4</ele>
        <time>2023-05-03T12:47:27Z</time>
      </trkpt>
      <trkpt lat="49.88619" lon="1.98674">
        <ele>86.4</ele>
        <time>2023-05-03T12:47:28Z</time>
      </trkpt>
      <trkpt lat="49.88619" lon="1.98672">
        <ele>86.4</ele>
        <time>2023-05-03T12:47:29Z</time>
      </trkpt>
      <trkpt lat="49.88619" lon="1.98669">
        <ele>86.5</ele>
        <time>2023-05-03T12:47:30Z</time>
      </trkpt>
      <trkpt lat="49.88619" lon="1.98668">
        <ele>86.5</ele>
        <time>2023-05-03T12:47:32Z</time>
      </trkpt>
      <trkpt lat="49.88619" lon="1.98666">
        <ele>86.5</ele>
        <time>2023-05-03T12:47:33Z</time>
      </trkpt>
      <trkpt lat="49.88619" lon="1.98665">
        <ele>86.5</ele>
        <time>2023-05-03T12:47:34Z</time>
      </trkpt>
      <trkpt lat="49.88618" lon="1.98662">
        <ele>86.6</ele>
        <time>2023-05-03T12:47:35Z</time>
      </trkpt>
      <trkpt lat="49.88618" lon="1.9866">
        <ele>86.6</ele>
        <time>2023-05-03T12:47:37Z</time>
      </trkpt>
      <trkpt lat="49.88618" lon="1.98657">
        <ele>86.6</ele>
        <time>2023-05-03T12:47:38Z</time>
      </trkpt>
      <trkpt lat="49.88618" lon="1.98655">
        <ele>86.6</ele>
        <time>2023-05-03T12:47:39Z</time>
      </trkpt>
      <trkpt lat="49.88618" lon="1.98654">
        <ele>86.7</ele>
        <time>2023-05-03T12:47:40Z</time>
      </trkpt>
      <trkpt lat="49.88617" lon="1.98651">
        <ele>86.7</ele>
        <time>2023-05-03T12:47:41Z</time>
      </trkpt>
      <trkpt lat="49.88617" lon="1.98649">
        <ele>86.7</ele>
        <time>2023-05-03T12:47:42Z</time>
      </trkpt>
      <trkpt lat="49.88617" lon="1.98648">
        <ele>86.7</ele>
        <time>2023-05-03T12:47:43Z</time>
      </trkpt>
      <trkpt lat="49.88617" lon="1.98646">
        <ele>86.8</ele>
        <time>2023-05-03T12:47:45Z</time>
      </trkpt>
      <trkpt lat="49.88617" lon="1.98643">
        <ele>86.8</ele>
        <time>2023-05-03T12:47:46Z</time>
      </trkpt>
      <trkpt lat="49.88617" lon="1.98642">
        <ele>86.8</ele>
        <time>2023-05-03T12:47:47Z</time>
      </trkpt>
      <trkpt lat="49.88617" lon="1.9864">
        <ele>86.8</ele>
        <time>2023-05-03T12:47:48Z</time>
      </trkpt>
      <trkpt lat="49.88616" lon="1.98638">
        <ele>86.9</ele>
        <time>2023-05-03T12:47:49Z</time>
      </trkpt>
      <trkpt lat="49.88616" lon="1.98636">
        <ele>86.9</ele>
        <time>2023-05-03T12:47:50Z</time>
      </trkpt>
      <trkpt lat="49.88616" lon="1.98633">
        <ele>86.9</ele>
        <time>2023-05-03T12:47:52Z</time>
      </trkpt>
      <trkpt lat="49.88616" lon="1.98632">
        <ele>86.9</ele>
        <time>2023-05-03T12:47:53Z</time>
      </trkpt>
      <trkpt lat="49.88616" lon="1.9863">
        <ele>86.9</ele>
        <time>2023-05-03T12:47:54Z</time>
      </trkpt>
      <trkpt lat="49.88615" lon="1.98627">
        <ele>87</ele>
        <time>2023-05-03T12:47:56Z</time>
      </trkpt>
      <trkpt lat="49.88614" lon="1.98623">
        <ele>87</ele>
        <time>2023-05-03T12:47:57Z</time>
      </trkpt>
      <trkpt lat="49.88614" lon="1.98621">
        <ele>87</ele>
        <time>2023-05-03T12:47:59Z</time>
      </trkpt>
      <trkpt lat="49.88614" lon="1.98619">
        <ele>87.1</ele>
        <time>2023-05-03T12:48:01Z</time>
      </trkpt>
      <trkpt lat="49.88613" lon="1.98617">
        <ele>87.1</ele>
        <time>2023-05-03T12:48:02Z</time>
      </trkpt>
      <trkpt lat="49.88612" lon="1.98614">
        <ele>87.1</ele>
        <time>2023-05-03T12:48:03Z</time>
      </trkpt>
      <trkpt lat="49.88612" lon="1.98613">
        <ele>87.1</ele>
        <time>2023-05-03T12:48:04Z</time>
      </trkpt>
      <trkpt lat="49.88612" lon="1.98611">
        <ele>87.1</ele>
        <time>2023-05-03T12:48:05Z</time>
      </trkpt>
      <trkpt lat="49.88611" lon="1.98609">
        <ele>87.1</ele>
        <time>2023-05-03T12:48:06Z</time>
      </trkpt>
      <trkpt lat="49.88611" lon="1.98606">
        <ele>87.2</ele>
        <time>2023-05-03T12:48:08Z</time>
      </trkpt>
      <trkpt lat="49.88611" lon="1.98604">
        <ele>87.2</ele>
        <time>2023-05-03T12:48:09Z</time>
      </trkpt>
      <trkpt lat="49.88611" lon="1.98601">
        <ele>87.2</ele>
        <time>2023-05-03T12:48:10Z</time>
      </trkpt>
      <trkpt lat="49.8861" lon="1.98599">
        <ele>87.2</ele>
        <time>2023-05-03T12:48:11Z</time>
      </trkpt>
      <trkpt lat="49.8861" lon="1.98597">
        <ele>87.3</ele>
        <time>2023-05-03T12:48:12Z</time>
      </trkpt>
      <trkpt lat="49.8861" lon="1.98595">
        <ele>87.3</ele>
        <time>2023-05-03T12:48:13Z</time>
      </trkpt>
      <trkpt lat="49.8861" lon="1.98592">
        <ele>87.3</ele>
        <time>2023-05-03T12:48:14Z</time>
      </trkpt>
      <trkpt lat="49.8861" lon="1.98589">
        <ele>87.3</ele>
        <time>2023-05-03T12:48:15Z</time>
      </trkpt>
      <trkpt lat="49.8861" lon="1.98587">
        <ele>87.3</ele>
        <time>2023-05-03T12:48:17Z</time>
      </trkpt>
      <trkpt lat="49.8861" lon="1.98585">
        <ele>87.4</ele>
        <time>2023-05-03T12:48:18Z</time>
      </trkpt>
      <trkpt lat="49.8861" lon="1.98584">
        <ele>87.4</ele>
        <time>2023-05-03T12:48:19Z</time>
      </trkpt>
      <trkpt lat="49.8861" lon="1.98582">
        <ele>87.4</ele>
        <time>2023-05-03T12:48:20Z</time>
      </trkpt>
      <trkpt lat="49.88609" lon="1.98579">
        <ele>87.4</ele>
        <time>2023-05-03T12:48:21Z</time>
      </trkpt>
      <trkpt lat="49.88609" lon="1.98578">
        <ele>87.4</ele>
        <time>2023-05-03T12:48:22Z</time>
      </trkpt>
      <trkpt lat="49.88609" lon="1.98576">
        <ele>87.4</ele>
        <time>2023-05-03T12:48:23Z</time>
      </trkpt>
      <trkpt lat="49.88609" lon="1.98573">
        <ele>87.5</ele>
        <time>2023-05-03T12:48:25Z</time>
      </trkpt>
      <trkpt lat="49.88609" lon="1.98572">
        <ele>87.5</ele>
        <time>2023-05-03T12:48:26Z</time>
      </trkpt>
      <trkpt lat="49.88609" lon="1.9857">
        <ele>87.5</ele>
        <time>2023-05-03T12:48:27Z</time>
      </trkpt>
      <trkpt lat="49.88609" lon="1.98567">
        <ele>87.5</ele>
        <time>2023-05-03T12:48:28Z</time>
      </trkpt>
      <trkpt lat="49.88608" lon="1.98566">
        <ele>87.5</ele>
        <time>2023-05-03T12:48:29Z</time>
      </trkpt>
      <trkpt lat="49.88608" lon="1.98565">
        <ele>87.5</ele>
        <time>2023-05-03T12:48:30Z</time>
      </trkpt>
      <trkpt lat="49.88608" lon="1.98562">
        <ele>87.5</ele>
        <time>2023-05-03T12:48:31Z</time>
      </trkpt>
      <trkpt lat="49.88608" lon="1.9856">
        <ele>87.6</ele>
        <time>2023-05-03T12:48:33Z</time>
      </trkpt>
      <trkpt lat="49.88607" lon="1.98559">
        <ele>87.6</ele>
        <time>2023-05-03T12:48:34Z</time>
      </trkpt>
      <trkpt lat="49.88607" lon="1.98557">
        <ele>87.6</ele>
        <time>2023-05-03T12:48:35Z</time>
      </trkpt>
      <trkpt lat="49.88607" lon="1.98556">
        <ele>87.6</ele>
        <time>2023-05-03T12:48:36Z</time>
      </trkpt>
      <trkpt lat="49.88607" lon="1.98554">
        <ele>87.6</ele>
        <time>2023-05-03T12:48:37Z</time>
      </trkpt>
      <trkpt lat="49.88607" lon="1.98552">
        <ele>87.6</ele>
        <time>2023-05-03T12:48:38Z</time>
      </trkpt>
      <trkpt lat="49.88607" lon="1.9855">
        <ele>87.7</ele>
        <time>2023-05-03T12:48:39Z</time>
      </trkpt>
      <trkpt lat="49.88607" lon="1.98549">
        <ele>87.7</ele>
        <time>2023-05-03T12:48:41Z</time>
      </trkpt>
      <trkpt lat="49.88606" lon="1.98547">
        <ele>87.7</ele>
        <time>2023-05-03T12:48:42Z</time>
      </trkpt>
      <trkpt lat="49.88606" lon="1.98545">
        <ele>87.7</ele>
        <time>2023-05-03T12:48:43Z</time>
      </trkpt>
      <trkpt lat="49.88606" lon="1.98543">
        <ele>87.8</ele>
        <time>2023-05-03T12:48:44Z</time>
      </trkpt>
      <trkpt lat="49.88606" lon="1.98542">
        <ele>87.8</ele>
        <time>2023-05-03T12:48:45Z</time>
      </trkpt>
      <trkpt lat="49.88606" lon="1.9854">
        <ele>87.8</ele>
        <time>2023-05-03T12:48:46Z</time>
      </trkpt>
      <trkpt lat="49.88605" lon="1.98538">
        <ele>87.8</ele>
        <time>2023-05-03T12:48:47Z</time>
      </trkpt>
      <trkpt lat="49.88605" lon="1.98535">
        <ele>87.9</ele>
        <time>2023-05-03T12:48:48Z</time>
      </trkpt>
      <trkpt lat="49.88605" lon="1.98533">
        <ele>87.9</ele>
        <time>2023-05-03T12:48:49Z</time>
      </trkpt>
      <trkpt lat="49.88605" lon="1.98532">
        <ele>87.9</ele>
        <time>2023-05-03T12:48:50Z</time>
      </trkpt>
      <trkpt lat="49.88604" lon="1.98528">
        <ele>88</ele>
        <time>2023-05-03T12:48:52Z</time>
      </trkpt>
      <trkpt lat="49.88604" lon="1.98527">
        <ele>88</ele>
        <time>2023-05-03T12:48:53Z</time>
      </trkpt>
      <trkpt lat="49.88604" lon="1.98526">
        <ele>88</ele>
        <time>2023-05-03T12:48:54Z</time>
      </trkpt>
      <trkpt lat="49.88604" lon="1.98524">
        <ele>88</ele>
        <time>2023-05-03T12:48:55Z</time>
      </trkpt>
      <trkpt lat="49.88604" lon="1.98521">
        <ele>88.1</ele>
        <time>2023-05-03T12:48:56Z</time>
      </trkpt>
      <trkpt lat="49.88604" lon="1.98519">
        <ele>88.1</ele>
        <time>2023-05-03T12:48:57Z</time>
      </trkpt>
      <trkpt lat="49.88603" lon="1.98517">
        <ele>88.1</ele>
        <time>2023-05-03T12:48:58Z</time>
      </trkpt>
      <trkpt lat="49.88603" lon="1.98515">
        <ele>88.1</ele>
        <time>2023-05-03T12:49:00Z</time>
      </trkpt>
      <trkpt lat="49.88603" lon="1.98513">
        <ele>88.1</ele>
        <time>2023-05-03T12:49:01Z</time>
      </trkpt>
      <trkpt lat="49.88603" lon="1.98511">
        <ele>88.2</ele>
        <time>2023-05-03T12:49:02Z</time>
      </trkpt>
      <trkpt lat="49.88603" lon="1.98509">
        <ele>88.2</ele>
        <time>2023-05-03T12:49:03Z</time>
      </trkpt>
      <trkpt lat="49.88602" lon="1.98507">
        <ele>88.2</ele>
        <time>2023-05-03T12:49:04Z</time>
      </trkpt>
      <trkpt lat="49.88602" lon="1.98506">
        <ele>88.2</ele>
        <time>2023-05-03T12:49:05Z</time>
      </trkpt>
      <trkpt lat="49.88602" lon="1.98504">
        <ele>88.2</ele>
        <time>2023-05-03T12:49:06Z</time>
      </trkpt>
      <trkpt lat="49.88601" lon="1.98502">
        <ele>88.2</ele>
        <time>2023-05-03T12:49:08Z</time>
      </trkpt>
      <trkpt lat="49.88601" lon="1.985">
        <ele>88.3</ele>
        <time>2023-05-03T12:49:09Z</time>
      </trkpt>
      <trkpt lat="49.88601" lon="1.98499">
        <ele>88.3</ele>
        <time>2023-05-03T12:49:10Z</time>
      </trkpt>
      <trkpt lat="49.88601" lon="1.98497">
        <ele>88.3</ele>
        <time>2023-05-03T12:49:11Z</time>
      </trkpt>
      <trkpt lat="49.886" lon="1.98495">
        <ele>88.3</ele>
        <time>2023-05-03T12:49:13Z</time>
      </trkpt>
      <trkpt lat="49.886" lon="1.98492">
        <ele>88.4</ele>
        <time>2023-05-03T12:49:14Z</time>
      </trkpt>
      <trkpt lat="49.886" lon="1.98491">
        <ele>88.4</ele>
        <time>2023-05-03T12:49:15Z</time>
      </trkpt>
      <trkpt lat="49.886" lon="1.98488">
        <ele>88.4</ele>
        <time>2023-05-03T12:49:17Z</time>
      </trkpt>
      <trkpt lat="49.886" lon="1.98487">
        <ele>88.4</ele>
        <time>2023-05-03T12:49:18Z</time>
      </trkpt>
      <trkpt lat="49.886" lon="1.98483">
        <ele>88.5</ele>
        <time>2023-05-03T12:49:19Z</time>
      </trkpt>
      <trkpt lat="49.886" lon="1.98482">
        <ele>88.5</ele>
        <time>2023-05-03T12:49:20Z</time>
      </trkpt>
      <trkpt lat="49.886" lon="1.98481">
        <ele>88.5</ele>
        <time>2023-05-03T12:49:21Z</time>
      </trkpt>
      <trkpt lat="49.886" lon="1.98479">
        <ele>88.5</ele>
        <time>2023-05-03T12:49:22Z</time>
      </trkpt>
      <trkpt lat="49.886" lon="1.98477">
        <ele>88.6</ele>
        <time>2023-05-03T12:49:23Z</time>
      </trkpt>
      <trkpt lat="49.886" lon="1.98475">
        <ele>88.6</ele>
        <time>2023-05-03T12:49:25Z</time>
      </trkpt>
      <trkpt lat="49.886" lon="1.98473">
        <ele>88.6</ele>
        <time>2023-05-03T12:49:26Z</time>
      </trkpt>
      <trkpt lat="49.886" lon="1.98471">
        <ele>88.6</ele>
        <time>2023-05-03T12:49:27Z</time>
      </trkpt>
      <trkpt lat="49.886" lon="1.9847">
        <ele>88.7</ele>
        <time>2023-05-03T12:49:28Z</time>
      </trkpt>
      <trkpt lat="49.886" lon="1.98468">
        <ele>88.7</ele>
        <time>2023-05-03T12:49:29Z</time>
      </trkpt>
      <trkpt lat="49.886" lon="1.98466">
        <ele>88.7</ele>
        <time>2023-05-03T12:49:30Z</time>
      </trkpt>
      <trkpt lat="49.88599" lon="1.98464">
        <ele>88.7</ele>
        <time>2023-05-03T12:49:31Z</time>
      </trkpt>
      <trkpt lat="49.88599" lon="1.98461">
        <ele>88.8</ele>
        <time>2023-05-03T12:49:33Z</time>
      </trkpt>
      <trkpt lat="49.88599" lon="1.9846">
        <ele>88.8</ele>
        <time>2023-05-03T12:49:34Z</time>
      </trkpt>
      <trkpt lat="49.88599" lon="1.98458">
        <ele>88.8</ele>
        <time>2023-05-03T12:49:35Z</time>
      </trkpt>
      <trkpt lat="49.88598" lon="1.98455">
        <ele>88.9</ele>
        <time>2023-05-03T12:49:36Z</time>
      </trkpt>
      <trkpt lat="49.88598" lon="1.98454">
        <ele>88.9</ele>
        <time>2023-05-03T12:49:37Z</time>
      </trkpt>
      <trkpt lat="49.88598" lon="1.98452">
        <ele>88.9</ele>
        <time>2023-05-03T12:49:38Z</time>
      </trkpt>
      <trkpt lat="49.88598" lon="1.9845">
        <ele>88.9</ele>
        <time>2023-05-03T12:49:39Z</time>
      </trkpt>
      <trkpt lat="49.88597" lon="1.98448">
        <ele>88.9</ele>
        <time>2023-05-03T12:49:40Z</time>
      </trkpt>
      <trkpt lat="49.88597" lon="1.98445">
        <ele>89</ele>
        <time>2023-05-03T12:49:42Z</time>
      </trkpt>
      <trkpt lat="49.88597" lon="1.98443">
        <ele>89</ele>
        <time>2023-05-03T12:49:43Z</time>
      </trkpt>
      <trkpt lat="49.88597" lon="1.9844">
        <ele>89</ele>
        <time>2023-05-03T12:49:44Z</time>
      </trkpt>
      <trkpt lat="49.88597" lon="1.98439">
        <ele>89</ele>
        <time>2023-05-03T12:49:45Z</time>
      </trkpt>
      <trkpt lat="49.88596" lon="1.98437">
        <ele>89.1</ele>
        <time>2023-05-03T12:49:46Z</time>
      </trkpt>
      <trkpt lat="49.88596" lon="1.98434">
        <ele>89.1</ele>
        <time>2023-05-03T12:49:47Z</time>
      </trkpt>
      <trkpt lat="49.88596" lon="1.98432">
        <ele>89.1</ele>
        <time>2023-05-03T12:49:49Z</time>
      </trkpt>
      <trkpt lat="49.88596" lon="1.98431">
        <ele>89.1</ele>
        <time>2023-05-03T12:49:50Z</time>
      </trkpt>
      <trkpt lat="49.88595" lon="1.98429">
        <ele>89.2</ele>
        <time>2023-05-03T12:49:51Z</time>
      </trkpt>
      <trkpt lat="49.88595" lon="1.98427">
        <ele>89.2</ele>
        <time>2023-05-03T12:49:52Z</time>
      </trkpt>
      <trkpt lat="49.88595" lon="1.98425">
        <ele>89.2</ele>
        <time>2023-05-03T12:49:53Z</time>
      </trkpt>
      <trkpt lat="49.88594" lon="1.98423">
        <ele>89.2</ele>
        <time>2023-05-03T12:49:54Z</time>
      </trkpt>
      <trkpt lat="49.88594" lon="1.98422">
        <ele>89.2</ele>
        <time>2023-05-03T12:49:55Z</time>
      </trkpt>
      <trkpt lat="49.88594" lon="1.9842">
        <ele>89.3</ele>
        <time>2023-05-03T12:49:56Z</time>
      </trkpt>
      <trkpt lat="49.88593" lon="1.98418">
        <ele>89.3</ele>
        <time>2023-05-03T12:49:58Z</time>
      </trkpt>
      <trkpt lat="49.88593" lon="1.98417">
        <ele>89.3</ele>
        <time>2023-05-03T12:49:59Z</time>
      </trkpt>
      <trkpt lat="49.88593" lon="1.98415">
        <ele>89.3</ele>
        <time>2023-05-03T12:50:00Z</time>
      </trkpt>
      <trkpt lat="49.88592" lon="1.98414">
        <ele>89.3</ele>
        <time>2023-05-03T12:50:01Z</time>
      </trkpt>
      <trkpt lat="49.88592" lon="1.98412">
        <ele>89.3</ele>
        <time>2023-05-03T12:50:02Z</time>
      </trkpt>
      <trkpt lat="49.88591" lon="1.9841">
        <ele>89.4</ele>
        <time>2023-05-03T12:50:03Z</time>
      </trkpt>
      <trkpt lat="49.88591" lon="1.98408">
        <ele>89.4</ele>
        <time>2023-05-03T12:50:04Z</time>
      </trkpt>
      <trkpt lat="49.8859" lon="1.98406">
        <ele>89.4</ele>
        <time>2023-05-03T12:50:06Z</time>
      </trkpt>
      <trkpt lat="49.8859" lon="1.98405">
        <ele>89.4</ele>
        <time>2023-05-03T12:50:07Z</time>
      </trkpt>
      <trkpt lat="49.88589" lon="1.98403">
        <ele>89.4</ele>
        <time>2023-05-03T12:50:08Z</time>
      </trkpt>
      <trkpt lat="49.88589" lon="1.984">
        <ele>89.5</ele>
        <time>2023-05-03T12:50:09Z</time>
      </trkpt>
      <trkpt lat="49.88588" lon="1.98399">
        <ele>89.5</ele>
        <time>2023-05-03T12:50:10Z</time>
      </trkpt>
      <trkpt lat="49.88588" lon="1.98397">
        <ele>89.5</ele>
        <time>2023-05-03T12:50:11Z</time>
      </trkpt>
      <trkpt lat="49.88588" lon="1.98394">
        <ele>89.5</ele>
        <time>2023-05-03T12:50:12Z</time>
      </trkpt>
      <trkpt lat="49.88587" lon="1.98393">
        <ele>89.5</ele>
        <time>2023-05-03T12:50:14Z</time>
      </trkpt>
      <trkpt lat="49.88587" lon="1.98392">
        <ele>89.6</ele>
        <time>2023-05-03T12:50:15Z</time>
      </trkpt>
      <trkpt lat="49.88587" lon="1.9839">
        <ele>89.6</ele>
        <time>2023-05-03T12:50:16Z</time>
      </trkpt>
      <trkpt lat="49.88587" lon="1.98388">
        <ele>89.6</ele>
        <time>2023-05-03T12:50:17Z</time>
      </trkpt>
      <trkpt lat="49.88586" lon="1.98387">
        <ele>89.6</ele>
        <time>2023-05-03T12:50:18Z</time>
      </trkpt>
      <trkpt lat="49.88586" lon="1.98385">
        <ele>89.6</ele>
        <time>2023-05-03T12:50:19Z</time>
      </trkpt>
      <trkpt lat="49.88586" lon="1.98384">
        <ele>89.6</ele>
        <time>2023-05-03T12:50:20Z</time>
      </trkpt>
      <trkpt lat="49.88586" lon="1.98382">
        <ele>89.7</ele>
        <time>2023-05-03T12:50:21Z</time>
      </trkpt>
      <trkpt lat="49.88586" lon="1.98378">
        <ele>89.7</ele>
        <time>2023-05-03T12:50:22Z</time>
      </trkpt>
      <trkpt lat="49.88585" lon="1.98377">
        <ele>89.7</ele>
        <time>2023-05-03T12:50:24Z</time>
      </trkpt>
      <trkpt lat="49.88585" lon="1.98376">
        <ele>89.7</ele>
        <time>2023-05-03T12:50:25Z</time>
      </trkpt>
      <trkpt lat="49.88585" lon="1.98374">
        <ele>89.7</ele>
        <time>2023-05-03T12:50:26Z</time>
      </trkpt>
      <trkpt lat="49.88585" lon="1.98372">
        <ele>89.8</ele>
        <time>2023-05-03T12:50:27Z</time>
      </trkpt>
      <trkpt lat="49.88585" lon="1.9837">
        <ele>89.8</ele>
        <time>2023-05-03T12:50:28Z</time>
      </trkpt>
      <trkpt lat="49.88585" lon="1.98368">
        <ele>89.8</ele>
        <time>2023-05-03T12:50:29Z</time>
      </trkpt>
      <trkpt lat="49.88585" lon="1.98366">
        <ele>89.8</ele>
        <time>2023-05-03T12:50:30Z</time>
      </trkpt>
      <trkpt lat="49.88584" lon="1.98364">
        <ele>89.8</ele>
        <time>2023-05-03T12:50:32Z</time>
      </trkpt>
      <trkpt lat="49.88584" lon="1.98361">
        <ele>89.8</ele>
        <time>2023-05-03T12:50:33Z</time>
      </trkpt>
      <trkpt lat="49.88584" lon="1.9836">
        <ele>89.9</ele>
        <time>2023-05-03T12:50:34Z</time>
      </trkpt>
      <trkpt lat="49.88584" lon="1.98359">
        <ele>89.9</ele>
        <time>2023-05-03T12:50:35Z</time>
      </trkpt>
      <trkpt lat="49.88583" lon="1.98356">
        <ele>89.9</ele>
        <time>2023-05-03T12:50:36Z</time>
      </trkpt>
      <trkpt lat="49.88583" lon="1.98354">
        <ele>89.9</ele>
        <time>2023-05-03T12:50:37Z</time>
      </trkpt>
      <trkpt lat="49.88583" lon="1.98352">
        <ele>89.9</ele>
        <time>2023-05-03T12:50:38Z</time>
      </trkpt>
      <trkpt lat="49.88583" lon="1.9835">
        <ele>89.9</ele>
        <time>2023-05-03T12:50:39Z</time>
      </trkpt>
      <trkpt lat="49.88582" lon="1.98348">
        <ele>90</ele>
        <time>2023-05-03T12:50:41Z</time>
      </trkpt>
      <trkpt lat="49.88582" lon="1.98345">
        <ele>90</ele>
        <time>2023-05-03T12:50:42Z</time>
      </trkpt>
      <trkpt lat="49.88582" lon="1.98344">
        <ele>90</ele>
        <time>2023-05-03T12:50:43Z</time>
      </trkpt>
      <trkpt lat="49.88582" lon="1.98343">
        <ele>90</ele>
        <time>2023-05-03T12:50:44Z</time>
      </trkpt>
      <trkpt lat="49.88581" lon="1.98339">
        <ele>90</ele>
        <time>2023-05-03T12:50:45Z</time>
      </trkpt>
      <trkpt lat="49.88581" lon="1.98338">
        <ele>90</ele>
        <time>2023-05-03T12:50:46Z</time>
      </trkpt>
      <trkpt lat="49.88581" lon="1.98337">
        <ele>90.1</ele>
        <time>2023-05-03T12:50:47Z</time>
      </trkpt>
      <trkpt lat="49.8858" lon="1.98334">
        <ele>90.1</ele>
        <time>2023-05-03T12:50:49Z</time>
      </trkpt>
      <trkpt lat="49.8858" lon="1.98333">
        <ele>90.1</ele>
        <time>2023-05-03T12:50:50Z</time>
      </trkpt>
      <trkpt lat="49.8858" lon="1.98331">
        <ele>90.1</ele>
        <time>2023-05-03T12:50:51Z</time>
      </trkpt>
      <trkpt lat="49.88579" lon="1.98328">
        <ele>90.2</ele>
        <time>2023-05-03T12:50:52Z</time>
      </trkpt>
      <trkpt lat="49.88579" lon="1.98327">
        <ele>90.2</ele>
        <time>2023-05-03T12:50:53Z</time>
      </trkpt>
      <trkpt lat="49.88579" lon="1.98325">
        <ele>90.2</ele>
        <time>2023-05-03T12:50:54Z</time>
      </trkpt>
      <trkpt lat="49.88578" lon="1.98322">
        <ele>90.2</ele>
        <time>2023-05-03T12:50:55Z</time>
      </trkpt>
      <trkpt lat="49.88578" lon="1.98321">
        <ele>90.3</ele>
        <time>2023-05-03T12:50:57Z</time>
      </trkpt>
      <trkpt lat="49.88578" lon="1.98319">
        <ele>90.3</ele>
        <time>2023-05-03T12:50:58Z</time>
      </trkpt>
      <trkpt lat="49.88578" lon="1.98317">
        <ele>90.3</ele>
        <time>2023-05-03T12:50:59Z</time>
      </trkpt>
      <trkpt lat="49.88577" lon="1.98316">
        <ele>90.3</ele>
        <time>2023-05-03T12:51:00Z</time>
      </trkpt>
      <trkpt lat="49.88577" lon="1.98315">
        <ele>90.3</ele>
        <time>2023-05-03T12:51:01Z</time>
      </trkpt>
      <trkpt lat="49.88577" lon="1.98313">
        <ele>90.4</ele>
        <time>2023-05-03T12:51:02Z</time>
      </trkpt>
      <trkpt lat="49.88577" lon="1.98311">
        <ele>90.4</ele>
        <time>2023-05-03T12:51:03Z</time>
      </trkpt>
      <trkpt lat="49.88576" lon="1.9831">
        <ele>90.4</ele>
        <time>2023-05-03T12:51:04Z</time>
      </trkpt>
      <trkpt lat="49.88576" lon="1.98308">
        <ele>90.4</ele>
        <time>2023-05-03T12:51:06Z</time>
      </trkpt>
      <trkpt lat="49.88576" lon="1.98306">
        <ele>90.5</ele>
        <time>2023-05-03T12:51:07Z</time>
      </trkpt>
      <trkpt lat="49.88575" lon="1.98305">
        <ele>90.5</ele>
        <time>2023-05-03T12:51:08Z</time>
      </trkpt>
      <trkpt lat="49.88575" lon="1.98303">
        <ele>90.5</ele>
        <time>2023-05-03T12:51:09Z</time>
      </trkpt>
      <trkpt lat="49.88574" lon="1.98302">
        <ele>90.5</ele>
        <time>2023-05-03T12:51:10Z</time>
      </trkpt>
      <trkpt lat="49.88574" lon="1.983">
        <ele>90.6</ele>
        <time>2023-05-03T12:51:11Z</time>
      </trkpt>
      <trkpt lat="49.88573" lon="1.98298">
        <ele>90.6</ele>
        <time>2023-05-03T12:51:12Z</time>
      </trkpt>
      <trkpt lat="49.88573" lon="1.98297">
        <ele>90.6</ele>
        <time>2023-05-03T12:51:13Z</time>
      </trkpt>
      <trkpt lat="49.88572" lon="1.98295">
        <ele>90.7</ele>
        <time>2023-05-03T12:51:15Z</time>
      </trkpt>
      <trkpt lat="49.88571" lon="1.98294">
        <ele>90.7</ele>
        <time>2023-05-03T12:51:16Z</time>
      </trkpt>
      <trkpt lat="49.88571" lon="1.98292">
        <ele>90.7</ele>
        <time>2023-05-03T12:51:17Z</time>
      </trkpt>
      <trkpt lat="49.88571" lon="1.98291">
        <ele>90.7</ele>
        <time>2023-05-03T12:51:18Z</time>
      </trkpt>
      <trkpt lat="49.8857" lon="1.98289">
        <ele>90.8</ele>
        <time>2023-05-03T12:51:19Z</time>
      </trkpt>
      <trkpt lat="49.8857" lon="1.98287">
        <ele>90.8</ele>
        <time>2023-05-03T12:51:20Z</time>
      </trkpt>
      <trkpt lat="49.8857" lon="1.98286">
        <ele>90.8</ele>
        <time>2023-05-03T12:51:22Z</time>
      </trkpt>
      <trkpt lat="49.8857" lon="1.98284">
        <ele>90.8</ele>
        <time>2023-05-03T12:51:23Z</time>
      </trkpt>
      <trkpt lat="49.88569" lon="1.98282">
        <ele>90.9</ele>
        <time>2023-05-03T12:51:24Z</time>
      </trkpt>
      <trkpt lat="49.88569" lon="1.9828">
        <ele>90.9</ele>
        <time>2023-05-03T12:51:25Z</time>
      </trkpt>
      <trkpt lat="49.88569" lon="1.98277">
        <ele>91</ele>
        <time>2023-05-03T12:51:26Z</time>
      </trkpt>
      <trkpt lat="49.88569" lon="1.98276">
        <ele>91</ele>
        <time>2023-05-03T12:51:27Z</time>
      </trkpt>
      <trkpt lat="49.88569" lon="1.98274">
        <ele>91</ele>
        <time>2023-05-03T12:51:28Z</time>
      </trkpt>
      <trkpt lat="49.88568" lon="1.98272">
        <ele>91</ele>
        <time>2023-05-03T12:51:30Z</time>
      </trkpt>
      <trkpt lat="49.88568" lon="1.9827">
        <ele>91.1</ele>
        <time>2023-05-03T12:51:31Z</time>
      </trkpt>
      <trkpt lat="49.88567" lon="1.98267">
        <ele>91.1</ele>
        <time>2023-05-03T12:51:32Z</time>
      </trkpt>
      <trkpt lat="49.88567" lon="1.98266">
        <ele>91.1</ele>
        <time>2023-05-03T12:51:33Z</time>
      </trkpt>
      <trkpt lat="49.88566" lon="1.98265">
        <ele>91.2</ele>
        <time>2023-05-03T12:51:34Z</time>
      </trkpt>
      <trkpt lat="49.88566" lon="1.98263">
        <ele>91.2</ele>
        <time>2023-05-03T12:51:36Z</time>
      </trkpt>
      <trkpt lat="49.88565" lon="1.98262">
        <ele>91.2</ele>
        <time>2023-05-03T12:51:37Z</time>
      </trkpt>
      <trkpt lat="49.88564" lon="1.98261">
        <ele>91.3</ele>
        <time>2023-05-03T12:51:39Z</time>
      </trkpt>
      <trkpt lat="49.88563" lon="1.98261">
        <ele>91.3</ele>
        <time>2023-05-03T12:51:40Z</time>
      </trkpt>
      <trkpt lat="49.88563" lon="1.9826">
        <ele>91.3</ele>
        <time>2023-05-03T12:51:41Z</time>
      </trkpt>
      <trkpt lat="49.88563" lon="1.9826">
        <ele>91.3</ele>
        <time>2023-05-03T12:51:43Z</time>
      </trkpt>
      <trkpt lat="49.88562" lon="1.9826">
        <ele>91.3</ele>
        <time>2023-05-03T12:51:44Z</time>
      </trkpt>
      <trkpt lat="49.88562" lon="1.9826">
        <ele>91.3</ele>
        <time>2023-05-03T12:51:45Z</time>
      </trkpt>
      <trkpt lat="49.88561" lon="1.9826">
        <ele>91.3</ele>
        <time>2023-05-03T12:51:47Z</time>
      </trkpt>
      <trkpt lat="49.88561" lon="1.9826">
        <ele>91.3</ele>
        <time>2023-05-03T12:51:48Z</time>
      </trkpt>
      <trkpt lat="49.88561" lon="1.9826">
        <ele>91.3</ele>
        <time>2023-05-03T12:51:50Z</time>
      </trkpt>
      <trkpt lat="49.88561" lon="1.9826">
        <ele>91.3</ele>
        <time>2023-05-03T12:51:51Z</time>
      </trkpt>
      <trkpt lat="49.88561" lon="1.9826">
        <ele>91.3</ele>
        <time>2023-05-03T12:51:52Z</time>
      </trkpt>
      <trkpt lat="49.88561" lon="1.9826">
        <ele>91.3</ele>
        <time>2023-05-03T12:51:54Z</time>
      </trkpt>
      <trkpt lat="49.88561" lon="1.98261">
        <ele>91.3</ele>
        <time>2023-05-03T12:51:55Z</time>
      </trkpt>
      <trkpt lat="49.88562" lon="1.98262">
        <ele>91.4</ele>
        <time>2023-05-03T12:51:56Z</time>
      </trkpt>
      <trkpt lat="49.88564" lon="1.98262">
        <ele>91.4</ele>
        <time>2023-05-03T12:51:57Z</time>
      </trkpt>
      <trkpt lat="49.88564" lon="1.98262">
        <ele>91.4</ele>
        <time>2023-05-03T12:51:58Z</time>
      </trkpt>
      <trkpt lat="49.88565" lon="1.98262">
        <ele>91.5</ele>
        <time>2023-05-03T12:51:59Z</time>
      </trkpt>
      <trkpt lat="49.88566" lon="1.98262">
        <ele>91.5</ele>
        <time>2023-05-03T12:52:00Z</time>
      </trkpt>
      <trkpt lat="49.88566" lon="1.98261">
        <ele>91.5</ele>
        <time>2023-05-03T12:52:01Z</time>
      </trkpt>
      <trkpt lat="49.88567" lon="1.98261">
        <ele>91.5</ele>
        <time>2023-05-03T12:52:02Z</time>
      </trkpt>
      <trkpt lat="49.88568" lon="1.9826">
        <ele>91.5</ele>
        <time>2023-05-03T12:52:03Z</time>
      </trkpt>
      <trkpt lat="49.88569" lon="1.98259">
        <ele>91.6</ele>
        <time>2023-05-03T12:52:04Z</time>
      </trkpt>
      <trkpt lat="49.8857" lon="1.98258">
        <ele>91.6</ele>
        <time>2023-05-03T12:52:05Z</time>
      </trkpt>
      <trkpt lat="49.8857" lon="1.98258">
        <ele>91.6</ele>
        <time>2023-05-03T12:52:06Z</time>
      </trkpt>
      <trkpt lat="49.8857" lon="1.98258">
        <ele>91.6</ele>
        <time>2023-05-03T12:52:07Z</time>
      </trkpt>
      <trkpt lat="49.8857" lon="1.98258">
        <ele>91.6</ele>
        <time>2023-05-03T12:52:08Z</time>
      </trkpt>
      <trkpt lat="49.8857" lon="1.98258">
        <ele>91.6</ele>
        <time>2023-05-03T12:52:09Z</time>
      </trkpt>
      <trkpt lat="49.8857" lon="1.98258">
        <ele>91.6</ele>
        <time>2023-05-03T12:52:10Z</time>
      </trkpt>
      <trkpt lat="49.8857" lon="1.98257">
        <ele>91.6</ele>
        <time>2023-05-03T12:52:11Z</time>
      </trkpt>
      <trkpt lat="49.8857" lon="1.98257">
        <ele>91.6</ele>
        <time>2023-05-03T12:52:12Z</time>
      </trkpt>
      <trkpt lat="49.88571" lon="1.98256">
        <ele>91.6</ele>
        <time>2023-05-03T12:52:13Z</time>
      </trkpt>
      <trkpt lat="49.88571" lon="1.98256">
        <ele>91.6</ele>
        <time>2023-05-03T12:52:14Z</time>
      </trkpt>
      <trkpt lat="49.88571" lon="1.98255">
        <ele>91.7</ele>
        <time>2023-05-03T12:52:15Z</time>
      </trkpt>
      <trkpt lat="49.88572" lon="1.98255">
        <ele>91.7</ele>
        <time>2023-05-03T12:52:16Z</time>
      </trkpt>
      <trkpt lat="49.88572" lon="1.98255">
        <ele>91.7</ele>
        <time>2023-05-03T12:52:17Z</time>
      </trkpt>
      <trkpt lat="49.88572" lon="1.98255">
        <ele>91.7</ele>
        <time>2023-05-03T12:52:18Z</time>
      </trkpt>
      <trkpt lat="49.88572" lon="1.98255">
        <ele>91.7</ele>
        <time>2023-05-03T12:52:19Z</time>
      </trkpt>
      <trkpt lat="49.88571" lon="1.98254">
        <ele>91.7</ele>
        <time>2023-05-03T12:52:21Z</time>
      </trkpt>
      <trkpt lat="49.88571" lon="1.98254">
        <ele>91.7</ele>
        <time>2023-05-03T12:52:22Z</time>
      </trkpt>
      <trkpt lat="49.88571" lon="1.98253">
        <ele>91.7</ele>
        <time>2023-05-03T12:52:23Z</time>
      </trkpt>
      <trkpt lat="49.88571" lon="1.98253">
        <ele>91.7</ele>
        <time>2023-05-03T12:52:24Z</time>
      </trkpt>
      <trkpt lat="49.8857" lon="1.98252">
        <ele>91.7</ele>
        <time>2023-05-03T12:52:25Z</time>
      </trkpt>
      <trkpt lat="49.8857" lon="1.98251">
        <ele>91.7</ele>
        <time>2023-05-03T12:52:26Z</time>
      </trkpt>
      <trkpt lat="49.8857" lon="1.98248">
        <ele>91.8</ele>
        <time>2023-05-03T12:52:28Z</time>
      </trkpt>
      <trkpt lat="49.88569" lon="1.98246">
        <ele>91.8</ele>
        <time>2023-05-03T12:52:29Z</time>
      </trkpt>
      <trkpt lat="49.88568" lon="1.98245">
        <ele>91.8</ele>
        <time>2023-05-03T12:52:31Z</time>
      </trkpt>
      <trkpt lat="49.88568" lon="1.98243">
        <ele>91.8</ele>
        <time>2023-05-03T12:52:32Z</time>
      </trkpt>
      <trkpt lat="49.88567" lon="1.98242">
        <ele>91.9</ele>
        <time>2023-05-03T12:52:33Z</time>
      </trkpt>
      <trkpt lat="49.88567" lon="1.9824">
        <ele>91.9</ele>
        <time>2023-05-03T12:52:34Z</time>
      </trkpt>
      <trkpt lat="49.88566" lon="1.98238">
        <ele>91.9</ele>
        <time>2023-05-03T12:52:35Z</time>
      </trkpt>
      <trkpt lat="49.88566" lon="1.98236">
        <ele>91.9</ele>
        <time>2023-05-03T12:52:37Z</time>
      </trkpt>
      <trkpt lat="49.88565" lon="1.98235">
        <ele>92</ele>
        <time>2023-05-03T12:52:38Z</time>
      </trkpt>
      <trkpt lat="49.88565" lon="1.98233">
        <ele>92</ele>
        <time>2023-05-03T12:52:39Z</time>
      </trkpt>
      <trkpt lat="49.88565" lon="1.98232">
        <ele>92</ele>
        <time>2023-05-03T12:52:40Z</time>
      </trkpt>
      <trkpt lat="49.88565" lon="1.9823">
        <ele>92</ele>
        <time>2023-05-03T12:52:41Z</time>
      </trkpt>
      <trkpt lat="49.88564" lon="1.98229">
        <ele>92</ele>
        <time>2023-05-03T12:52:43Z</time>
      </trkpt>
      <trkpt lat="49.88564" lon="1.98228">
        <ele>92</ele>
        <time>2023-05-03T12:52:44Z</time>
      </trkpt>
      <trkpt lat="49.88564" lon="1.98227">
        <ele>92.1</ele>
        <time>2023-05-03T12:52:45Z</time>
      </trkpt>
      <trkpt lat="49.88564" lon="1.98226">
        <ele>92.1</ele>
        <time>2023-05-03T12:52:46Z</time>
      </trkpt>
      <trkpt lat="49.88563" lon="1.98225">
        <ele>92.1</ele>
        <time>2023-05-03T12:52:47Z</time>
      </trkpt>
      <trkpt lat="49.88563" lon="1.98224">
        <ele>92.1</ele>
        <time>2023-05-03T12:52:48Z</time>
      </trkpt>
      <trkpt lat="49.88563" lon="1.98223">
        <ele>92.1</ele>
        <time>2023-05-03T12:52:49Z</time>
      </trkpt>
      <trkpt lat="49.88562" lon="1.98223">
        <ele>92.1</ele>
        <time>2023-05-03T12:52:50Z</time>
      </trkpt>
      <trkpt lat="49.88562" lon="1.98221">
        <ele>92.1</ele>
        <time>2023-05-03T12:52:51Z</time>
      </trkpt>
      <trkpt lat="49.88561" lon="1.9822">
        <ele>92.2</ele>
        <time>2023-05-03T12:52:53Z</time>
      </trkpt>
      <trkpt lat="49.88561" lon="1.98218">
        <ele>92.2</ele>
        <time>2023-05-03T12:52:54Z</time>
      </trkpt>
      <trkpt lat="49.8856" lon="1.98217">
        <ele>92.2</ele>
        <time>2023-05-03T12:52:55Z</time>
      </trkpt>
      <trkpt lat="49.8856" lon="1.98215">
        <ele>92.2</ele>
        <time>2023-05-03T12:52:56Z</time>
      </trkpt>
      <trkpt lat="49.88559" lon="1.98213">
        <ele>92.3</ele>
        <time>2023-05-03T12:52:57Z</time>
      </trkpt>
      <trkpt lat="49.88559" lon="1.98211">
        <ele>92.3</ele>
        <time>2023-05-03T12:52:58Z</time>
      </trkpt>
      <trkpt lat="49.88559" lon="1.9821">
        <ele>92.3</ele>
        <time>2023-05-03T12:53:00Z</time>
      </trkpt>
      <trkpt lat="49.88559" lon="1.98208">
        <ele>92.3</ele>
        <time>2023-05-03T12:53:01Z</time>
      </trkpt>
      <trkpt lat="49.88559" lon="1.98207">
        <ele>92.3</ele>
        <time>2023-05-03T12:53:02Z</time>
      </trkpt>
      <trkpt lat="49.88559" lon="1.98205">
        <ele>92.4</ele>
        <time>2023-05-03T12:53:03Z</time>
      </trkpt>
      <trkpt lat="49.88559" lon="1.98203">
        <ele>92.4</ele>
        <time>2023-05-03T12:53:04Z</time>
      </trkpt>
      <trkpt lat="49.88559" lon="1.982">
        <ele>92.4</ele>
        <time>2023-05-03T12:53:06Z</time>
      </trkpt>
      <trkpt lat="49.88559" lon="1.98198">
        <ele>92.5</ele>
        <time>2023-05-03T12:53:07Z</time>
      </trkpt>
      <trkpt lat="49.88558" lon="1.98196">
        <ele>92.5</ele>
        <time>2023-05-03T12:53:08Z</time>
      </trkpt>
      <trkpt lat="49.88558" lon="1.98191">
        <ele>92.6</ele>
        <time>2023-05-03T12:53:09Z</time>
      </trkpt>
      <trkpt lat="49.88558" lon="1.9819">
        <ele>92.6</ele>
        <time>2023-05-03T12:53:11Z</time>
      </trkpt>
      <trkpt lat="49.88558" lon="1.98188">
        <ele>92.6</ele>
        <time>2023-05-03T12:53:12Z</time>
      </trkpt>
      <trkpt lat="49.88558" lon="1.98186">
        <ele>92.7</ele>
        <time>2023-05-03T12:53:13Z</time>
      </trkpt>
      <trkpt lat="49.88558" lon="1.98185">
        <ele>92.7</ele>
        <time>2023-05-03T12:53:14Z</time>
      </trkpt>
      <trkpt lat="49.88557" lon="1.98181">
        <ele>92.8</ele>
        <time>2023-05-03T12:53:15Z</time>
      </trkpt>
      <trkpt lat="49.88557" lon="1.9818">
        <ele>92.8</ele>
        <time>2023-05-03T12:53:16Z</time>
      </trkpt>
      <trkpt lat="49.88557" lon="1.98179">
        <ele>92.8</ele>
        <time>2023-05-03T12:53:17Z</time>
      </trkpt>
      <trkpt lat="49.88557" lon="1.98177">
        <ele>92.9</ele>
        <time>2023-05-03T12:53:18Z</time>
      </trkpt>
      <trkpt lat="49.88557" lon="1.98174">
        <ele>92.9</ele>
        <time>2023-05-03T12:53:20Z</time>
      </trkpt>
      <trkpt lat="49.88557" lon="1.98173">
        <ele>93</ele>
        <time>2023-05-03T12:53:21Z</time>
      </trkpt>
      <trkpt lat="49.88557" lon="1.98171">
        <ele>93</ele>
        <time>2023-05-03T12:53:22Z</time>
      </trkpt>
      <trkpt lat="49.88556" lon="1.9817">
        <ele>93</ele>
        <time>2023-05-03T12:53:23Z</time>
      </trkpt>
      <trkpt lat="49.88556" lon="1.98169">
        <ele>93</ele>
        <time>2023-05-03T12:53:24Z</time>
      </trkpt>
      <trkpt lat="49.88555" lon="1.98168">
        <ele>93</ele>
        <time>2023-05-03T12:53:25Z</time>
      </trkpt>
      <trkpt lat="49.88555" lon="1.98167">
        <ele>93</ele>
        <time>2023-05-03T12:53:26Z</time>
      </trkpt>
      <trkpt lat="49.88554" lon="1.98166">
        <ele>93.1</ele>
        <time>2023-05-03T12:53:28Z</time>
      </trkpt>
      <trkpt lat="49.88554" lon="1.98166">
        <ele>93.1</ele>
        <time>2023-05-03T12:53:29Z</time>
      </trkpt>
      <trkpt lat="49.88554" lon="1.98166">
        <ele>93.1</ele>
        <time>2023-05-03T12:53:30Z</time>
      </trkpt>
      <trkpt lat="49.88554" lon="1.98164">
        <ele>93.1</ele>
        <time>2023-05-03T12:53:31Z</time>
      </trkpt>
      <trkpt lat="49.88555" lon="1.98164">
        <ele>93.1</ele>
        <time>2023-05-03T12:53:32Z</time>
      </trkpt>
      <trkpt lat="49.88556" lon="1.98164">
        <ele>93.1</ele>
        <time>2023-05-03T12:53:34Z</time>
      </trkpt>
      <trkpt lat="49.88557" lon="1.98164">
        <ele>93.1</ele>
        <time>2023-05-03T12:53:35Z</time>
      </trkpt>
      <trkpt lat="49.88557" lon="1.98164">
        <ele>93.1</ele>
        <time>2023-05-03T12:53:36Z</time>
      </trkpt>
      <trkpt lat="49.88557" lon="1.98165">
        <ele>93.1</ele>
        <time>2023-05-03T12:53:38Z</time>
      </trkpt>
      <trkpt lat="49.88557" lon="1.98165">
        <ele>93.1</ele>
        <time>2023-05-03T12:53:39Z</time>
      </trkpt>
      <trkpt lat="49.88557" lon="1.98165">
        <ele>93.1</ele>
        <time>2023-05-03T12:53:40Z</time>
      </trkpt>
      <trkpt lat="49.88557" lon="1.98165">
        <ele>93.1</ele>
        <time>2023-05-03T12:53:42Z</time>
      </trkpt>
      <trkpt lat="49.88557" lon="1.98165">
        <ele>93.1</ele>
        <time>2023-05-03T12:53:43Z</time>
      </trkpt>
      <trkpt lat="49.88557" lon="1.98165">
        <ele>93.1</ele>
        <time>2023-05-03T12:53:44Z</time>
      </trkpt>
      <trkpt lat="49.88557" lon="1.98165">
        <ele>93.1</ele>
        <time>2023-05-03T12:53:46Z</time>
      </trkpt>
      <trkpt lat="49.88557" lon="1.98165">
        <ele>93.2</ele>
        <time>2023-05-03T12:53:47Z</time>
      </trkpt>
      <trkpt lat="49.88557" lon="1.98165">
        <ele>93.2</ele>
        <time>2023-05-03T12:53:49Z</time>
      </trkpt>
      <trkpt lat="49.88557" lon="1.98165">
        <ele>93.2</ele>
        <time>2023-05-03T12:53:50Z</time>
      </trkpt>
      <trkpt lat="49.88557" lon="1.98165">
        <ele>93.2</ele>
        <time>2023-05-03T12:53:51Z</time>
      </trkpt>
      <trkpt lat="49.88557" lon="1.98165">
        <ele>93.2</ele>
        <time>2023-05-03T12:53:52Z</time>
      </trkpt>
      <trkpt lat="49.88557" lon="1.98165">
        <ele>93.2</ele>
        <time>2023-05-03T12:53:53Z</time>
      </trkpt>
      <trkpt lat="49.88557" lon="1.98165">
        <ele>93.2</ele>
        <time>2023-05-03T12:53:54Z</time>
      </trkpt>
      <trkpt lat="49.88557" lon="1.98165">
        <ele>93.2</ele>
        <time>2023-05-03T12:53:55Z</time>
      </trkpt>
      <trkpt lat="49.88557" lon="1.98165">
        <ele>93.2</ele>
        <time>2023-05-03T12:53:56Z</time>
      </trkpt>
      <trkpt lat="49.88557" lon="1.98165">
        <ele>93.2</ele>
        <time>2023-05-03T12:53:57Z</time>
      </trkpt>
      <trkpt lat="49.88557" lon="1.98165">
        <ele>93.2</ele>
        <time>2023-05-03T12:53:58Z</time>
      </trkpt>
      <trkpt lat="49.88557" lon="1.98165">
        <ele>93.2</ele>
        <time>2023-05-03T12:53:59Z</time>
      </trkpt>
      <trkpt lat="49.88557" lon="1.98165">
        <ele>93.2</ele>
        <time>2023-05-03T12:54:00Z</time>
      </trkpt>
      <trkpt lat="49.88557" lon="1.98165">
        <ele>93.2</ele>
        <time>2023-05-03T12:54:01Z</time>
      </trkpt>
      <trkpt lat="49.88557" lon="1.98165">
        <ele>93.2</ele>
        <time>2023-05-03T12:54:02Z</time>
      </trkpt>
      <trkpt lat="49.88557" lon="1.98165">
        <ele>93.2</ele>
        <time>2023-05-03T12:54:03Z</time>
      </trkpt>
      <trkpt lat="49.88557" lon="1.98165">
        <ele>93.2</ele>
        <time>2023-05-03T12:54:04Z</time>
      </trkpt>
      <trkpt lat="49.88557" lon="1.98165">
        <ele>93.2</ele>
        <time>2023-05-03T12:54:05Z</time>
      </trkpt>
      <trkpt lat="49.88557" lon="1.98165">
        <ele>93.2</ele>
        <time>2023-05-03T12:54:06Z</time>
      </trkpt>
      <trkpt lat="49.88557" lon="1.98165">
        <ele>93.2</ele>
        <time>2023-05-03T12:54:07Z</time>
      </trkpt>
      <trkpt lat="49.88557" lon="1.98165">
        <ele>93.2</ele>
        <time>2023-05-03T12:54:08Z</time>
      </trkpt>
      <trkpt lat="49.88557" lon="1.98165">
        <ele>93.2</ele>
        <time>2023-05-03T12:54:09Z</time>
      </trkpt>
      <trkpt lat="49.88557" lon="1.98165">
        <ele>93.2</ele>
        <time>2023-05-03T12:54:10Z</time>
      </trkpt>
      <trkpt lat="49.88557" lon="1.98165">
        <ele>93.2</ele>
        <time>2023-05-03T12:54:11Z</time>
      </trkpt>
      <trkpt lat="49.88557" lon="1.98165">
        <ele>93.2</ele>
        <time>2023-05-03T12:54:12Z</time>
      </trkpt>
      <trkpt lat="49.88557" lon="1.98165">
        <ele>93.2</ele>
        <time>2023-05-03T12:54:13Z</time>
      </trkpt>
      <trkpt lat="49.88557" lon="1.98165">
        <ele>93.2</ele>
        <time>2023-05-03T12:54:14Z</time>
      </trkpt>
      <trkpt lat="49.88557" lon="1.98165">
        <ele>93.2</ele>
        <time>2023-05-03T12:54:15Z</time>
      </trkpt>
      <trkpt lat="49.88557" lon="1.98165">
        <ele>93.2</ele>
        <time>2023-05-03T12:54:16Z</time>
      </trkpt>
      <trkpt lat="49.88557" lon="1.98165">
        <ele>93.2</ele>
        <time>2023-05-03T12:54:17Z</time>
      </trkpt>
      <trkpt lat="49.88557" lon="1.98165">
        <ele>93.2</ele>
        <time>2023-05-03T12:54:18Z</time>
      </trkpt>
      <trkpt lat="49.88557" lon="1.98165">
        <ele>93.2</ele>
        <time>2023-05-03T12:54:19Z</time>
      </trkpt>
      <trkpt lat="49.88557" lon="1.98165">
        <ele>93.2</ele>
        <time>2023-05-03T12:54:20Z</time>
      </trkpt>
      <trkpt lat="49.88557" lon="1.98165">
        <ele>93.2</ele>
        <time>2023-05-03T12:54:21Z</time>
      </trkpt>
      <trkpt lat="49.88557" lon="1.98165">
        <ele>93.2</ele>
        <time>2023-05-03T12:54:22Z</time>
      </trkpt>
      <trkpt lat="49.88557" lon="1.98165">
        <ele>93.2</ele>
        <time>2023-05-03T12:54:23Z</time>
      </trkpt>
      <trkpt lat="49.88557" lon="1.98165">
        <ele>93.2</ele>
        <time>2023-05-03T12:54:24Z</time>
      </trkpt>
      <trkpt lat="49.88557" lon="1.98165">
        <ele>93.2</ele>
        <time>2023-05-03T12:54:25Z</time>
      </trkpt>
      <trkpt lat="49.88557" lon="1.98165">
        <ele>93.2</ele>
        <time>2023-05-03T12:54:26Z</time>
      </trkpt>
      <trkpt lat="49.88557" lon="1.98165">
        <ele>93.2</ele>
        <time>2023-05-03T12:54:27Z</time>
      </trkpt>
      <trkpt lat="49.88557" lon="1.98165">
        <ele>93.2</ele>
        <time>2023-05-03T12:54:28Z</time>
      </trkpt>
      <trkpt lat="49.88557" lon="1.98165">
        <ele>93.2</ele>
        <time>2023-05-03T12:54:29Z</time>
      </trkpt>
      <trkpt lat="49.88557" lon="1.98165">
        <ele>93.2</ele>
        <time>2023-05-03T12:54:30Z</time>
      </trkpt>
      <trkpt lat="49.88557" lon="1.98165">
        <ele>93.2</ele>
        <time>2023-05-03T12:54:31Z</time>
      </trkpt>
      <trkpt lat="49.88557" lon="1.98165">
        <ele>93.2</ele>
        <time>2023-05-03T12:54:32Z</time>
      </trkpt>
      <trkpt lat="49.88557" lon="1.98165">
        <ele>93.2</ele>
        <time>2023-05-03T12:54:33Z</time>
      </trkpt>
      <trkpt lat="49.88557" lon="1.98165">
        <ele>93.2</ele>
        <time>2023-05-03T12:54:34Z</time>
      </trkpt>
      <trkpt lat="49.88557" lon="1.98165">
        <ele>93.2</ele>
        <time>2023-05-03T12:54:35Z</time>
      </trkpt>
      <trkpt lat="49.88557" lon="1.98165">
        <ele>93.2</ele>
        <time>2023-05-03T12:54:36Z</time>
      </trkpt>
      <trkpt lat="49.88557" lon="1.98165">
        <ele>93.2</ele>
        <time>2023-05-03T12:54:37Z</time>
      </trkpt>
      <trkpt lat="49.88557" lon="1.98165">
        <ele>93.2</ele>
        <time>2023-05-03T12:54:38Z</time>
      </trkpt>
      <trkpt lat="49.88557" lon="1.98165">
        <ele>93.2</ele>
        <time>2023-05-03T12:54:39Z</time>
      </trkpt>
      <trkpt lat="49.88557" lon="1.98165">
        <ele>93.2</ele>
        <time>2023-05-03T12:54:40Z</time>
      </trkpt>
      <trkpt lat="49.88557" lon="1.98165">
        <ele>93.2</ele>
        <time>2023-05-03T12:54:41Z</time>
      </trkpt>
      <trkpt lat="49.88557" lon="1.98165">
        <ele>93.2</ele>
        <time>2023-05-03T12:54:42Z</time>
      </trkpt>
      <trkpt lat="49.88557" lon="1.98165">
        <ele>93.2</ele>
        <time>2023-05-03T12:54:43Z</time>
      </trkpt>
      <trkpt lat="49.88557" lon="1.98165">
        <ele>93.2</ele>
        <time>2023-05-03T12:54:44Z</time>
      </trkpt>
      <trkpt lat="49.88557" lon="1.98165">
        <ele>93.2</ele>
        <time>2023-05-03T12:54:45Z</time>
      </trkpt>
      <trkpt lat="49.88557" lon="1.98165">
        <ele>93.2</ele>
        <time>2023-05-03T12:54:46Z</time>
      </trkpt>
      <trkpt lat="49.88557" lon="1.98165">
        <ele>93.2</ele>
        <time>2023-05-03T12:54:47Z</time>
      </trkpt>
      <trkpt lat="49.88557" lon="1.98165">
        <ele>93.2</ele>
        <time>2023-05-03T12:54:48Z</time>
      </trkpt>
      <trkpt lat="49.88557" lon="1.98165">
        <ele>93.2</ele>
        <time>2023-05-03T12:54:49Z</time>
      </trkpt>
      <trkpt lat="49.88557" lon="1.98165">
        <ele>93.2</ele>
        <time>2023-05-03T12:54:50Z</time>
      </trkpt>
      <trkpt lat="49.88557" lon="1.98165">
        <ele>93.2</ele>
        <time>2023-05-03T12:54:51Z</time>
      </trkpt>
      <trkpt lat="49.88557" lon="1.98165">
        <ele>93.2</ele>
        <time>2023-05-03T12:54:52Z</time>
      </trkpt>
      <trkpt lat="49.88557" lon="1.98165">
        <ele>93.2</ele>
        <time>2023-05-03T12:54:53Z</time>
      </trkpt>
      <trkpt lat="49.88557" lon="1.98165">
        <ele>93.2</ele>
        <time>2023-05-03T12:54:54Z</time>
      </trkpt>
      <trkpt lat="49.88557" lon="1.98165">
        <ele>93.2</ele>
        <time>2023-05-03T12:54:55Z</time>
      </trkpt>
      <trkpt lat="49.88557" lon="1.98165">
        <ele>93.2</ele>
        <time>2023-05-03T12:54:56Z</time>
      </trkpt>
      <trkpt lat="49.88557" lon="1.98165">
        <ele>93.2</ele>
        <time>2023-05-03T12:54:57Z</time>
      </trkpt>
      <trkpt lat="49.88557" lon="1.98165">
        <ele>93.2</ele>
        <time>2023-05-03T12:54:58Z</time>
      </trkpt>
      <trkpt lat="49.88557" lon="1.98165">
        <ele>93.2</ele>
        <time>2023-05-03T12:54:59Z</time>
      </trkpt>
      <trkpt lat="49.88557" lon="1.98165">
        <ele>93.2</ele>
        <time>2023-05-03T12:55:00Z</time>
      </trkpt>
      <trkpt lat="49.88557" lon="1.98165">
        <ele>93.2</ele>
        <time>2023-05-03T12:55:01Z</time>
      </trkpt>
      <trkpt lat="49.88557" lon="1.98165">
        <ele>93.2</ele>
        <time>2023-05-03T12:55:02Z</time>
      </trkpt>
      <trkpt lat="49.88557" lon="1.98165">
        <ele>93.2</ele>
        <time>2023-05-03T12:55:03Z</time>
      </trkpt>
      <trkpt lat="49.88557" lon="1.98165">
        <ele>93.2</ele>
        <time>2023-05-03T12:55:04Z</time>
      </trkpt>
      <trkpt lat="49.88557" lon="1.98165">
        <ele>93.2</ele>
        <time>2023-05-03T12:55:05Z</time>
      </trkpt>
      <trkpt lat="49.88557" lon="1.98165">
        <ele>93.2</ele>
        <time>2023-05-03T12:55:06Z</time>
      </trkpt>
      <trkpt lat="49.88557" lon="1.98165">
        <ele>93.2</ele>
        <time>2023-05-03T12:55:07Z</time>
      </trkpt>
      <trkpt lat="49.88557" lon="1.98165">
        <ele>93.2</ele>
        <time>2023-05-03T12:55:08Z</time>
      </trkpt>
      <trkpt lat="49.88557" lon="1.98165">
        <ele>93.2</ele>
        <time>2023-05-03T12:55:09Z</time>
      </trkpt>
      <trkpt lat="49.88557" lon="1.98165">
        <ele>93.2</ele>
        <time>2023-05-03T12:55:10Z</time>
      </trkpt>
      <trkpt lat="49.88557" lon="1.98165">
        <ele>93.2</ele>
        <time>2023-05-03T12:55:11Z</time>
      </trkpt>
      <trkpt lat="49.88557" lon="1.98165">
        <ele>93.2</ele>
        <time>2023-05-03T12:55:12Z</time>
      </trkpt>
      <trkpt lat="49.88557" lon="1.98165">
        <ele>93.2</ele>
        <time>2023-05-03T12:55:13Z</time>
      </trkpt>
      <trkpt lat="49.88557" lon="1.98165">
        <ele>93.2</ele>
        <time>2023-05-03T12:55:14Z</time>
      </trkpt>
      <trkpt lat="49.88557" lon="1.98165">
        <ele>93.2</ele>
        <time>2023-05-03T12:55:15Z</time>
      </trkpt>
      <trkpt lat="49.88557" lon="1.98165">
        <ele>93.2</ele>
        <time>2023-05-03T12:55:16Z</time>
      </trkpt>
      <trkpt lat="49.88557" lon="1.98165">
        <ele>93.2</ele>
        <time>2023-05-03T12:55:17Z</time>
      </trkpt>
      <trkpt lat="49.88557" lon="1.98165">
        <ele>93.2</ele>
        <time>2023-05-03T12:55:18Z</time>
      </trkpt>
      <trkpt lat="49.88557" lon="1.98165">
        <ele>93.2</ele>
        <time>2023-05-03T12:55:19Z</time>
      </trkpt>
      <trkpt lat="49.88557" lon="1.98165">
        <ele>93.2</ele>
        <time>2023-05-03T12:55:20Z</time>
      </trkpt>
      <trkpt lat="49.88557" lon="1.98165">
        <ele>93.2</ele>
        <time>2023-05-03T12:55:21Z</time>
      </trkpt>
      <trkpt lat="49.88557" lon="1.98165">
        <ele>93.2</ele>
        <time>2023-05-03T12:55:22Z</time>
      </trkpt>
      <trkpt lat="49.88557" lon="1.98165">
        <ele>93.2</ele>
        <time>2023-05-03T12:55:23Z</time>
      </trkpt>
      <trkpt lat="49.88557" lon="1.98165">
        <ele>93.2</ele>
        <time>2023-05-03T12:55:24Z</time>
      </trkpt>
      <trkpt lat="49.88557" lon="1.98165">
        <ele>93.2</ele>
        <time>2023-05-03T12:55:25Z</time>
      </trkpt>
      <trkpt lat="49.88557" lon="1.98165">
        <ele>93.2</ele>
        <time>2023-05-03T12:55:26Z</time>
      </trkpt>
      <trkpt lat="49.88557" lon="1.98165">
        <ele>93.2</ele>
        <time>2023-05-03T12:55:27Z</time>
      </trkpt>
      <trkpt lat="49.88557" lon="1.98165">
        <ele>93.2</ele>
        <time>2023-05-03T12:55:28Z</time>
      </trkpt>
      <trkpt lat="49.88557" lon="1.98165">
        <ele>93.2</ele>
        <time>2023-05-03T12:55:29Z</time>
      </trkpt>
      <trkpt lat="49.88557" lon="1.98165">
        <ele>93.2</ele>
        <time>2023-05-03T12:55:30Z</time>
      </trkpt>
      <trkpt lat="49.88557" lon="1.98165">
        <ele>93.2</ele>
        <time>2023-05-03T12:55:31Z</time>
      </trkpt>
      <trkpt lat="49.88557" lon="1.98165">
        <ele>93.2</ele>
        <time>2023-05-03T12:55:32Z</time>
      </trkpt>
      <trkpt lat="49.88557" lon="1.98165">
        <ele>93.2</ele>
        <time>2023-05-03T12:55:33Z</time>
      </trkpt>
      <trkpt lat="49.88557" lon="1.98165">
        <ele>93.2</ele>
        <time>2023-05-03T12:55:34Z</time>
      </trkpt>
      <trkpt lat="49.88557" lon="1.98165">
        <ele>93.2</ele>
        <time>2023-05-03T12:55:35Z</time>
      </trkpt>
      <trkpt lat="49.88557" lon="1.98165">
        <ele>93.2</ele>
        <time>2023-05-03T12:55:36Z</time>
      </trkpt>
      <trkpt lat="49.88557" lon="1.98165">
        <ele>93.2</ele>
        <time>2023-05-03T12:55:37Z</time>
      </trkpt>
      <trkpt lat="49.88557" lon="1.98165">
        <ele>93.2</ele>
        <time>2023-05-03T12:55:38Z</time>
      </trkpt>
      <trkpt lat="49.88557" lon="1.98165">
        <ele>93.2</ele>
        <time>2023-05-03T12:55:39Z</time>
      </trkpt>
      <trkpt lat="49.88557" lon="1.98165">
        <ele>93.2</ele>
        <time>2023-05-03T12:55:40Z</time>
      </trkpt>
      <trkpt lat="49.88557" lon="1.98165">
        <ele>93.2</ele>
        <time>2023-05-03T12:55:41Z</time>
      </trkpt>
      <trkpt lat="49.88557" lon="1.98165">
        <ele>93.2</ele>
        <time>2023-05-03T12:55:42Z</time>
      </trkpt>
      <trkpt lat="49.88557" lon="1.98165">
        <ele>93.2</ele>
        <time>2023-05-03T12:55:43Z</time>
      </trkpt>
      <trkpt lat="49.88557" lon="1.98165">
        <ele>93.2</ele>
        <time>2023-05-03T12:55:44Z</time>
      </trkpt>
      <trkpt lat="49.88557" lon="1.98165">
        <ele>93.2</ele>
        <time>2023-05-03T12:55:45Z</time>
      </trkpt>
      <trkpt lat="49.88557" lon="1.98165">
        <ele>93.2</ele>
        <time>2023-05-03T12:55:46Z</time>
      </trkpt>
      <trkpt lat="49.88557" lon="1.98165">
        <ele>93.2</ele>
        <time>2023-05-03T12:55:47Z</time>
      </trkpt>
      <trkpt lat="49.88557" lon="1.98165">
        <ele>93.2</ele>
        <time>2023-05-03T12:55:48Z</time>
      </trkpt>
      <trkpt lat="49.88557" lon="1.98165">
        <ele>93.2</ele>
        <time>2023-05-03T12:55:49Z</time>
      </trkpt>
      <trkpt lat="49.88557" lon="1.98165">
        <ele>93.2</ele>
        <time>2023-05-03T12:55:50Z</time>
      </trkpt>
      <trkpt lat="49.88557" lon="1.98165">
        <ele>93.2</ele>
        <time>2023-05-03T12:55:51Z</time>
      </trkpt>
      <trkpt lat="49.88557" lon="1.98165">
        <ele>93.2</ele>
        <time>2023-05-03T12:55:52Z</time>
      </trkpt>
      <trkpt lat="49.88557" lon="1.98165">
        <ele>93.2</ele>
        <time>2023-05-03T12:55:53Z</time>
      </trkpt>
      <trkpt lat="49.88557" lon="1.98165">
        <ele>93.2</ele>
        <time>2023-05-03T12:55:54Z</time>
      </trkpt>
      <trkpt lat="49.88557" lon="1.98165">
        <ele>93.2</ele>
        <time>2023-05-03T12:55:55Z</time>
      </trkpt>
      <trkpt lat="49.88557" lon="1.98165">
        <ele>93.2</ele>
        <time>2023-05-03T12:55:56Z</time>
      </trkpt>
      <trkpt lat="49.88557" lon="1.98165">
        <ele>93.2</ele>
        <time>2023-05-03T12:55:57Z</time>
      </trkpt>
      <trkpt lat="49.88557" lon="1.98165">
        <ele>93.2</ele>
        <time>2023-05-03T12:55:58Z</time>
      </trkpt>
      <trkpt lat="49.88557" lon="1.98165">
        <ele>93.2</ele>
        <time>2023-05-03T12:55:59Z</time>
      </trkpt>
      <trkpt lat="49.88557" lon="1.98165">
        <ele>93.2</ele>
        <time>2023-05-03T12:56:00Z</time>
      </trkpt>
      <trkpt lat="49.88557" lon="1.98165">
        <ele>93.2</ele>
        <time>2023-05-03T12:56:01Z</time>
      </trkpt>
      <trkpt lat="49.88557" lon="1.98165">
        <ele>93.2</ele>
        <time>2023-05-03T12:56:02Z</time>
      </trkpt>
      <trkpt lat="49.88557" lon="1.98165">
        <ele>93.2</ele>
        <time>2023-05-03T12:56:03Z</time>
      </trkpt>
      <trkpt lat="49.88557" lon="1.98165">
        <ele>93.2</ele>
        <time>2023-05-03T12:56:04Z</time>
      </trkpt>
      <trkpt lat="49.88557" lon="1.98165">
        <ele>93.2</ele>
        <time>2023-05-03T12:56:05Z</time>
      </trkpt>
      <trkpt lat="49.88557" lon="1.98165">
        <ele>93.2</ele>
        <time>2023-05-03T12:56:06Z</time>
      </trkpt>
      <trkpt lat="49.88557" lon="1.98165">
        <ele>93.2</ele>
        <time>2023-05-03T12:56:07Z</time>
      </trkpt>
      <trkpt lat="49.88557" lon="1.98165">
        <ele>93.2</ele>
        <time>2023-05-03T12:56:08Z</time>
      </trkpt>
      <trkpt lat="49.88557" lon="1.98165">
        <ele>93.2</ele>
        <time>2023-05-03T12:56:09Z</time>
      </trkpt>
      <trkpt lat="49.88557" lon="1.98165">
        <ele>93.2</ele>
        <time>2023-05-03T12:56:10Z</time>
      </trkpt>
      <trkpt lat="49.88557" lon="1.98165">
        <ele>93.2</ele>
        <time>2023-05-03T12:56:11Z</time>
      </trkpt>
      <trkpt lat="49.88557" lon="1.98165">
        <ele>93.2</ele>
        <time>2023-05-03T12:56:12Z</time>
      </trkpt>
      <trkpt lat="49.88557" lon="1.98165">
        <ele>93.2</ele>
        <time>2023-05-03T12:56:13Z</time>
      </trkpt>
      <trkpt lat="49.88557" lon="1.98165">
        <ele>93.2</ele>
        <time>2023-05-03T12:56:14Z</time>
      </trkpt>
      <trkpt lat="49.88557" lon="1.98165">
        <ele>93.2</ele>
        <time>2023-05-03T12:56:15Z</time>
      </trkpt>
      <trkpt lat="49.88557" lon="1.98165">
        <ele>93.2</ele>
        <time>2023-05-03T12:56:16Z</time>
      </trkpt>
      <trkpt lat="49.88557" lon="1.98165">
        <ele>93.2</ele>
        <time>2023-05-03T12:56:17Z</time>
      </trkpt>
      <trkpt lat="49.88557" lon="1.98165">
        <ele>93.2</ele>
        <time>2023-05-03T12:56:18Z</time>
      </trkpt>
      <trkpt lat="49.88557" lon="1.98165">
        <ele>93.2</ele>
        <time>2023-05-03T12:56:19Z</time>
      </trkpt>
      <trkpt lat="49.88557" lon="1.98165">
        <ele>93.2</ele>
        <time>2023-05-03T12:56:20Z</time>
      </trkpt>
      <trkpt lat="49.88557" lon="1.98165">
        <ele>93.2</ele>
        <time>2023-05-03T12:56:21Z</time>
      </trkpt>
      <trkpt lat="49.88557" lon="1.98165">
        <ele>93.2</ele>
        <time>2023-05-03T12:56:22Z</time>
      </trkpt>
      <trkpt lat="49.88557" lon="1.98165">
        <ele>93.2</ele>
        <time>2023-05-03T12:56:23Z</time>
      </trkpt>
      <trkpt lat="49.88557" lon="1.98165">
        <ele>93.2</ele>
        <time>2023-05-03T12:56:24Z</time>
      </trkpt>
      <trkpt lat="49.88557" lon="1.98165">
        <ele>93.2</ele>
        <time>2023-05-03T12:56:25Z</time>
      </trkpt>
      <trkpt lat="49.88557" lon="1.98165">
        <ele>93.2</ele>
        <time>2023-05-03T12:56:26Z</time>
      </trkpt>
      <trkpt lat="49.88557" lon="1.98165">
        <ele>93.2</ele>
        <time>2023-05-03T12:56:27Z</time>
      </trkpt>
      <trkpt lat="49.88557" lon="1.98165">
        <ele>93.2</ele>
        <time>2023-05-03T12:56:28Z</time>
      </trkpt>
      <trkpt lat="49.88557" lon="1.98165">
        <ele>93.2</ele>
        <time>2023-05-03T12:56:29Z</time>
      </trkpt>
      <trkpt lat="49.88557" lon="1.98165">
        <ele>93.2</ele>
        <time>2023-05-03T12:56:30Z</time>
      </trkpt>
      <trkpt lat="49.88557" lon="1.98165">
        <ele>93.2</ele>
        <time>2023-05-03T12:56:31Z</time>
      </trkpt>
      <trkpt lat="49.88557" lon="1.98165">
        <ele>93.2</ele>
        <time>2023-05-03T12:56:32Z</time>
      </trkpt>
      <trkpt lat="49.88557" lon="1.98165">
        <ele>93.2</ele>
        <time>2023-05-03T12:56:33Z</time>
      </trkpt>
      <trkpt lat="49.88557" lon="1.98165">
        <ele>93.2</ele>
        <time>2023-05-03T12:56:34Z</time>
      </trkpt>
      <trkpt lat="49.88557" lon="1.98165">
        <ele>93.2</ele>
        <time>2023-05-03T12:56:35Z</time>
      </trkpt>
      <trkpt lat="49.88557" lon="1.98165">
        <ele>93.2</ele>
        <time>2023-05-03T12:56:36Z</time>
      </trkpt>
      <trkpt lat="49.88557" lon="1.98165">
        <ele>93.2</ele>
        <time>2023-05-03T12:56:37Z</time>
      </trkpt>
      <trkpt lat="49.88557" lon="1.98165">
        <ele>93.2</ele>
        <time>2023-05-03T12:56:38Z</time>
      </trkpt>
      <trkpt lat="49.88557" lon="1.98165">
        <ele>93.2</ele>
        <time>2023-05-03T12:56:39Z</time>
      </trkpt>
      <trkpt lat="49.88557" lon="1.98165">
        <ele>93.2</ele>
        <time>2023-05-03T12:56:40Z</time>
      </trkpt>
      <trkpt lat="49.88557" lon="1.98165">
        <ele>93.2</ele>
        <time>2023-05-03T12:56:41Z</time>
      </trkpt>
      <trkpt lat="49.88557" lon="1.98165">
        <ele>93.2</ele>
        <time>2023-05-03T12:56:42Z</time>
      </trkpt>
      <trkpt lat="49.88557" lon="1.98165">
        <ele>93.2</ele>
        <time>2023-05-03T12:56:43Z</time>
      </trkpt>
      <trkpt lat="49.88557" lon="1.98165">
        <ele>93.2</ele>
        <time>2023-05-03T12:56:44Z</time>
      </trkpt>
      <trkpt lat="49.88557" lon="1.98165">
        <ele>93.2</ele>
        <time>2023-05-03T12:56:45Z</time>
      </trkpt>
      <trkpt lat="49.88557" lon="1.98165">
        <ele>93.2</ele>
        <time>2023-05-03T12:56:46Z</time>
      </trkpt>
      <trkpt lat="49.88557" lon="1.98165">
        <ele>93.2</ele>
        <time>2023-05-03T12:56:47Z</time>
      </trkpt>
      <trkpt lat="49.88557" lon="1.98165">
        <ele>93.2</ele>
        <time>2023-05-03T12:56:48Z</time>
      </trkpt>
      <trkpt lat="49.88557" lon="1.98165">
        <ele>93.2</ele>
        <time>2023-05-03T12:56:49Z</time>
      </trkpt>
      <trkpt lat="49.88557" lon="1.98165">
        <ele>93.2</ele>
        <time>2023-05-03T12:56:50Z</time>
      </trkpt>
      <trkpt lat="49.88557" lon="1.98165">
        <ele>93.2</ele>
        <time>2023-05-03T12:56:51Z</time>
      </trkpt>
      <trkpt lat="49.88557" lon="1.98165">
        <ele>93.2</ele>
        <time>2023-05-03T12:56:52Z</time>
      </trkpt>
      <trkpt lat="49.88557" lon="1.98165">
        <ele>93.2</ele>
        <time>2023-05-03T12:56:53Z</time>
      </trkpt>
      <trkpt lat="49.88557" lon="1.98165">
        <ele>93.2</ele>
        <time>2023-05-03T12:56:54Z</time>
      </trkpt>
      <trkpt lat="49.88557" lon="1.98165">
        <ele>93.2</ele>
        <time>2023-05-03T12:56:55Z</time>
      </trkpt>
      <trkpt lat="49.88557" lon="1.98165">
        <ele>93.2</ele>
        <time>2023-05-03T12:56:56Z</time>
      </trkpt>
      <trkpt lat="49.88557" lon="1.98165">
        <ele>93.2</ele>
        <time>2023-05-03T12:56:57Z</time>
      </trkpt>
      <trkpt lat="49.88557" lon="1.98165">
        <ele>93.2</ele>
        <time>2023-05-03T12:56:58Z</time>
      </trkpt>
      <trkpt lat="49.88557" lon="1.98165">
        <ele>93.2</ele>
        <time>2023-05-03T12:56:59Z</time>
      </trkpt>
      <trkpt lat="49.88557" lon="1.98165">
        <ele>93.2</ele>
        <time>2023-05-03T12:57:00Z</time>
      </trkpt>
      <trkpt lat="49.88557" lon="1.98165">
        <ele>93.2</ele>
        <time>2023-05-03T12:57:01Z</time>
      </trkpt>
      <trkpt lat="49.88557" lon="1.98165">
        <ele>93.2</ele>
        <time>2023-05-03T12:57:02Z</time>
      </trkpt>
      <trkpt lat="49.88557" lon="1.98165">
        <ele>93.2</ele>
        <time>2023-05-03T12:57:03Z</time>
      </trkpt>
      <trkpt lat="49.88557" lon="1.98165">
        <ele>93.2</ele>
        <time>2023-05-03T12:57:04Z</time>
      </trkpt>
      <trkpt lat="49.88557" lon="1.98165">
        <ele>93.2</ele>
        <time>2023-05-03T12:57:05Z</time>
      </trkpt>
      <trkpt lat="49.88557" lon="1.98165">
        <ele>93.2</ele>
        <time>2023-05-03T12:57:06Z</time>
      </trkpt>
      <trkpt lat="49.88557" lon="1.98165">
        <ele>93.2</ele>
        <time>2023-05-03T12:57:07Z</time>
      </trkpt>
      <trkpt lat="49.88557" lon="1.98165">
        <ele>93.2</ele>
        <time>2023-05-03T12:57:08Z</time>
      </trkpt>
      <trkpt lat="49.88557" lon="1.98165">
        <ele>93.2</ele>
        <time>2023-05-03T12:57:09Z</time>
      </trkpt>
      <trkpt lat="49.88557" lon="1.98165">
        <ele>93.2</ele>
        <time>2023-05-03T12:57:10Z</time>
      </trkpt>
      <trkpt lat="49.88557" lon="1.98165">
        <ele>93.2</ele>
        <time>2023-05-03T12:57:11Z</time>
      </trkpt>
      <trkpt lat="49.88556" lon="1.98167">
        <ele>93.2</ele>
        <time>2023-05-03T12:57:12Z</time>
      </trkpt>
      <trkpt lat="49.88556" lon="1.98167">
        <ele>93.2</ele>
        <time>2023-05-03T12:57:13Z</time>
      </trkpt>
      <trkpt lat="49.88556" lon="1.98166">
        <ele>93.2</ele>
        <time>2023-05-03T12:57:14Z</time>
      </trkpt>
      <trkpt lat="49.88556" lon="1.98165">
        <ele>93.2</ele>
        <time>2023-05-03T12:57:15Z</time>
      </trkpt>
      <trkpt lat="49.88556" lon="1.98165">
        <ele>93.2</ele>
        <time>2023-05-03T12:57:16Z</time>
      </trkpt>
      <trkpt lat="49.88556" lon="1.98163">
        <ele>93.2</ele>
        <time>2023-05-03T12:57:18Z</time>
      </trkpt>
      <trkpt lat="49.88556" lon="1.98162">
        <ele>93.3</ele>
        <time>2023-05-03T12:57:19Z</time>
      </trkpt>
      <trkpt lat="49.88556" lon="1.98161">
        <ele>93.3</ele>
        <time>2023-05-03T12:57:20Z</time>
      </trkpt>
      <trkpt lat="49.88556" lon="1.98159">
        <ele>93.3</ele>
        <time>2023-05-03T12:57:22Z</time>
      </trkpt>
      <trkpt lat="49.88556" lon="1.98157">
        <ele>93.4</ele>
        <time>2023-05-03T12:57:23Z</time>
      </trkpt>
      <trkpt lat="49.88556" lon="1.98155">
        <ele>93.4</ele>
        <time>2023-05-03T12:57:24Z</time>
      </trkpt>
      <trkpt lat="49.88556" lon="1.98154">
        <ele>93.4</ele>
        <time>2023-05-03T12:57:26Z</time>
      </trkpt>
      <trkpt lat="49.88556" lon="1.98152">
        <ele>93.5</ele>
        <time>2023-05-03T12:57:27Z</time>
      </trkpt>
      <trkpt lat="49.88557" lon="1.98151">
        <ele>93.5</ele>
        <time>2023-05-03T12:57:28Z</time>
      </trkpt>
      <trkpt lat="49.88556" lon="1.9815">
        <ele>93.5</ele>
        <time>2023-05-03T12:57:29Z</time>
      </trkpt>
      <trkpt lat="49.88556" lon="1.98148">
        <ele>93.5</ele>
        <time>2023-05-03T12:57:30Z</time>
      </trkpt>
      <trkpt lat="49.88556" lon="1.98147">
        <ele>93.5</ele>
        <time>2023-05-03T12:57:32Z</time>
      </trkpt>
      <trkpt lat="49.88556" lon="1.98146">
        <ele>93.6</ele>
        <time>2023-05-03T12:57:33Z</time>
      </trkpt>
      <trkpt lat="49.88556" lon="1.98145">
        <ele>93.6</ele>
        <time>2023-05-03T12:57:34Z</time>
      </trkpt>
      <trkpt lat="49.88556" lon="1.98145">
        <ele>93.6</ele>
        <time>2023-05-03T12:57:35Z</time>
      </trkpt>
      <trkpt lat="49.88556" lon="1.98143">
        <ele>93.6</ele>
        <time>2023-05-03T12:57:36Z</time>
      </trkpt>
      <trkpt lat="49.88556" lon="1.98142">
        <ele>93.6</ele>
        <time>2023-05-03T12:57:37Z</time>
      </trkpt>
      <trkpt lat="49.88556" lon="1.98141">
        <ele>93.7</ele>
        <time>2023-05-03T12:57:38Z</time>
      </trkpt>
      <trkpt lat="49.88556" lon="1.9814">
        <ele>93.7</ele>
        <time>2023-05-03T12:57:39Z</time>
      </trkpt>
      <trkpt lat="49.88556" lon="1.98138">
        <ele>93.7</ele>
        <time>2023-05-03T12:57:40Z</time>
      </trkpt>
      <trkpt lat="49.88555" lon="1.98137">
        <ele>93.7</ele>
        <time>2023-05-03T12:57:42Z</time>
      </trkpt>
      <trkpt lat="49.88555" lon="1.98136">
        <ele>93.8</ele>
        <time>2023-05-03T12:57:43Z</time>
      </trkpt>
      <trkpt lat="49.88555" lon="1.98134">
        <ele>93.8</ele>
        <time>2023-05-03T12:57:44Z</time>
      </trkpt>
      <trkpt lat="49.88555" lon="1.98133">
        <ele>93.8</ele>
        <time>2023-05-03T12:57:45Z</time>
      </trkpt>
      <trkpt lat="49.88554" lon="1.98131">
        <ele>93.9</ele>
        <time>2023-05-03T12:57:46Z</time>
      </trkpt>
      <trkpt lat="49.88554" lon="1.98129">
        <ele>93.9</ele>
        <time>2023-05-03T12:57:47Z</time>
      </trkpt>
      <trkpt lat="49.88554" lon="1.98127">
        <ele>93.9</ele>
        <time>2023-05-03T12:57:49Z</time>
      </trkpt>
      <trkpt lat="49.88553" lon="1.98124">
        <ele>94</ele>
        <time>2023-05-03T12:57:50Z</time>
      </trkpt>
      <trkpt lat="49.88553" lon="1.98123">
        <ele>94</ele>
        <time>2023-05-03T12:57:51Z</time>
      </trkpt>
      <trkpt lat="49.88553" lon="1.98122">
        <ele>94</ele>
        <time>2023-05-03T12:57:52Z</time>
      </trkpt>
      <trkpt lat="49.88553" lon="1.9812">
        <ele>94.1</ele>
        <time>2023-05-03T12:57:53Z</time>
      </trkpt>
      <trkpt lat="49.88552" lon="1.98118">
        <ele>94.1</ele>
        <time>2023-05-03T12:57:54Z</time>
      </trkpt>
      <trkpt lat="49.88552" lon="1.98114">
        <ele>94.1</ele>
        <time>2023-05-03T12:57:56Z</time>
      </trkpt>
      <trkpt lat="49.88552" lon="1.98113">
        <ele>94.2</ele>
        <time>2023-05-03T12:57:57Z</time>
      </trkpt>
      <trkpt lat="49.88552" lon="1.98112">
        <ele>94.2</ele>
        <time>2023-05-03T12:57:58Z</time>
      </trkpt>
      <trkpt lat="49.88552" lon="1.98109">
        <ele>94.2</ele>
        <time>2023-05-03T12:57:59Z</time>
      </trkpt>
      <trkpt lat="49.88552" lon="1.98108">
        <ele>94.2</ele>
        <time>2023-05-03T12:58:00Z</time>
      </trkpt>
      <trkpt lat="49.88552" lon="1.98106">
        <ele>94.3</ele>
        <time>2023-05-03T12:58:01Z</time>
      </trkpt>
      <trkpt lat="49.88552" lon="1.98104">
        <ele>94.3</ele>
        <time>2023-05-03T12:58:03Z</time>
      </trkpt>
      <trkpt lat="49.88552" lon="1.98102">
        <ele>94.3</ele>
        <time>2023-05-03T12:58:04Z</time>
      </trkpt>
      <trkpt lat="49.88552" lon="1.981">
        <ele>94.3</ele>
        <time>2023-05-03T12:58:05Z</time>
      </trkpt>
      <trkpt lat="49.88552" lon="1.98098">
        <ele>94.4</ele>
        <time>2023-05-03T12:58:06Z</time>
      </trkpt>
      <trkpt lat="49.88552" lon="1.98096">
        <ele>94.4</ele>
        <time>2023-05-03T12:58:07Z</time>
      </trkpt>
      <trkpt lat="49.88552" lon="1.98094">
        <ele>94.4</ele>
        <time>2023-05-03T12:58:08Z</time>
      </trkpt>
      <trkpt lat="49.88552" lon="1.98092">
        <ele>94.5</ele>
        <time>2023-05-03T12:58:09Z</time>
      </trkpt>
      <trkpt lat="49.88552" lon="1.9809">
        <ele>94.5</ele>
        <time>2023-05-03T12:58:10Z</time>
      </trkpt>
      <trkpt lat="49.88552" lon="1.98088">
        <ele>94.5</ele>
        <time>2023-05-03T12:58:11Z</time>
      </trkpt>
      <trkpt lat="49.88552" lon="1.98085">
        <ele>94.6</ele>
        <time>2023-05-03T12:58:13Z</time>
      </trkpt>
      <trkpt lat="49.88552" lon="1.98081">
        <ele>94.6</ele>
        <time>2023-05-03T12:58:14Z</time>
      </trkpt>
      <trkpt lat="49.88552" lon="1.9808">
        <ele>94.6</ele>
        <time>2023-05-03T12:58:15Z</time>
      </trkpt>
      <trkpt lat="49.88552" lon="1.98079">
        <ele>94.6</ele>
        <time>2023-05-03T12:58:16Z</time>
      </trkpt>
      <trkpt lat="49.88552" lon="1.98076">
        <ele>94.7</ele>
        <time>2023-05-03T12:58:18Z</time>
      </trkpt>
      <trkpt lat="49.88552" lon="1.98074">
        <ele>94.7</ele>
        <time>2023-05-03T12:58:19Z</time>
      </trkpt>
      <trkpt lat="49.88552" lon="1.98072">
        <ele>94.8</ele>
        <time>2023-05-03T12:58:21Z</time>
      </trkpt>
      <trkpt lat="49.88551" lon="1.9807">
        <ele>94.8</ele>
        <time>2023-05-03T12:58:22Z</time>
      </trkpt>
      <trkpt lat="49.88551" lon="1.98066">
        <ele>94.8</ele>
        <time>2023-05-03T12:58:23Z</time>
      </trkpt>
      <trkpt lat="49.88551" lon="1.98065">
        <ele>94.9</ele>
        <time>2023-05-03T12:58:24Z</time>
      </trkpt>
      <trkpt lat="49.88551" lon="1.98064">
        <ele>94.9</ele>
        <time>2023-05-03T12:58:25Z</time>
      </trkpt>
      <trkpt lat="49.88551" lon="1.98062">
        <ele>94.9</ele>
        <time>2023-05-03T12:58:26Z</time>
      </trkpt>
      <trkpt lat="49.8855" lon="1.9806">
        <ele>94.9</ele>
        <time>2023-05-03T12:58:28Z</time>
      </trkpt>
      <trkpt lat="49.8855" lon="1.98059">
        <ele>95</ele>
        <time>2023-05-03T12:58:29Z</time>
      </trkpt>
      <trkpt lat="49.8855" lon="1.98057">
        <ele>95</ele>
        <time>2023-05-03T12:58:30Z</time>
      </trkpt>
      <trkpt lat="49.8855" lon="1.98056">
        <ele>95</ele>
        <time>2023-05-03T12:58:31Z</time>
      </trkpt>
      <trkpt lat="49.88549" lon="1.98054">
        <ele>95</ele>
        <time>2023-05-03T12:58:32Z</time>
      </trkpt>
      <trkpt lat="49.88549" lon="1.98053">
        <ele>95.1</ele>
        <time>2023-05-03T12:58:33Z</time>
      </trkpt>
      <trkpt lat="49.88548" lon="1.98051">
        <ele>95.1</ele>
        <time>2023-05-03T12:58:34Z</time>
      </trkpt>
      <trkpt lat="49.88548" lon="1.9805">
        <ele>95.1</ele>
        <time>2023-05-03T12:58:35Z</time>
      </trkpt>
      <trkpt lat="49.88547" lon="1.98048">
        <ele>95.1</ele>
        <time>2023-05-03T12:58:37Z</time>
      </trkpt>
      <trkpt lat="49.88546" lon="1.98046">
        <ele>95.2</ele>
        <time>2023-05-03T12:58:38Z</time>
      </trkpt>
      <trkpt lat="49.88546" lon="1.98045">
        <ele>95.2</ele>
        <time>2023-05-03T12:58:39Z</time>
      </trkpt>
      <trkpt lat="49.88545" lon="1.98043">
        <ele>95.2</ele>
        <time>2023-05-03T12:58:40Z</time>
      </trkpt>
      <trkpt lat="49.88545" lon="1.98041">
        <ele>95.2</ele>
        <time>2023-05-03T12:58:41Z</time>
      </trkpt>
      <trkpt lat="49.88544" lon="1.98039">
        <ele>95.3</ele>
        <time>2023-05-03T12:58:43Z</time>
      </trkpt>
      <trkpt lat="49.88543" lon="1.98036">
        <ele>95.3</ele>
        <time>2023-05-03T12:58:44Z</time>
      </trkpt>
      <trkpt lat="49.88542" lon="1.98035">
        <ele>95.3</ele>
        <time>2023-05-03T12:58:45Z</time>
      </trkpt>
      <trkpt lat="49.88541" lon="1.98032">
        <ele>95.4</ele>
        <time>2023-05-03T12:58:46Z</time>
      </trkpt>
      <trkpt lat="49.88541" lon="1.98031">
        <ele>95.4</ele>
        <time>2023-05-03T12:58:47Z</time>
      </trkpt>
      <trkpt lat="49.8854" lon="1.98029">
        <ele>95.4</ele>
        <time>2023-05-03T12:58:48Z</time>
      </trkpt>
      <trkpt lat="49.8854" lon="1.98027">
        <ele>95.5</ele>
        <time>2023-05-03T12:58:50Z</time>
      </trkpt>
      <trkpt lat="49.88539" lon="1.98025">
        <ele>95.5</ele>
        <time>2023-05-03T12:58:51Z</time>
      </trkpt>
      <trkpt lat="49.88538" lon="1.98022">
        <ele>95.5</ele>
        <time>2023-05-03T12:58:52Z</time>
      </trkpt>
      <trkpt lat="49.88538" lon="1.9802">
        <ele>95.5</ele>
        <time>2023-05-03T12:58:53Z</time>
      </trkpt>
      <trkpt lat="49.88537" lon="1.98019">
        <ele>95.6</ele>
        <time>2023-05-03T12:58:54Z</time>
      </trkpt>
      <trkpt lat="49.88537" lon="1.98016">
        <ele>95.6</ele>
        <time>2023-05-03T12:58:56Z</time>
      </trkpt>
      <trkpt lat="49.88536" lon="1.98014">
        <ele>95.7</ele>
        <time>2023-05-03T12:58:58Z</time>
      </trkpt>
      <trkpt lat="49.88535" lon="1.98012">
        <ele>95.7</ele>
        <time>2023-05-03T12:58:59Z</time>
      </trkpt>
      <trkpt lat="49.88534" lon="1.9801">
        <ele>95.7</ele>
        <time>2023-05-03T12:59:00Z</time>
      </trkpt>
      <trkpt lat="49.88533" lon="1.98008">
        <ele>95.8</ele>
        <time>2023-05-03T12:59:01Z</time>
      </trkpt>
      <trkpt lat="49.88532" lon="1.98006">
        <ele>95.8</ele>
        <time>2023-05-03T12:59:03Z</time>
      </trkpt>
      <trkpt lat="49.88532" lon="1.98003">
        <ele>95.9</ele>
        <time>2023-05-03T12:59:04Z</time>
      </trkpt>
      <trkpt lat="49.88531" lon="1.98001">
        <ele>95.9</ele>
        <time>2023-05-03T12:59:05Z</time>
      </trkpt>
      <trkpt lat="49.8853" lon="1.97999">
        <ele>96</ele>
        <time>2023-05-03T12:59:06Z</time>
      </trkpt>
      <trkpt lat="49.8853" lon="1.97997">
        <ele>96</ele>
        <time>2023-05-03T12:59:07Z</time>
      </trkpt>
      <trkpt lat="49.8853" lon="1.97996">
        <ele>96</ele>
        <time>2023-05-03T12:59:08Z</time>
      </trkpt>
      <trkpt lat="49.88529" lon="1.97995">
        <ele>96</ele>
        <time>2023-05-03T12:59:10Z</time>
      </trkpt>
      <trkpt lat="49.88529" lon="1.97993">
        <ele>96.1</ele>
        <time>2023-05-03T12:59:11Z</time>
      </trkpt>
      <trkpt lat="49.88528" lon="1.97991">
        <ele>96.1</ele>
        <time>2023-05-03T12:59:12Z</time>
      </trkpt>
      <trkpt lat="49.88527" lon="1.97988">
        <ele>96.2</ele>
        <time>2023-05-03T12:59:13Z</time>
      </trkpt>
      <trkpt lat="49.88527" lon="1.97987">
        <ele>96.2</ele>
        <time>2023-05-03T12:59:14Z</time>
      </trkpt>
      <trkpt lat="49.88527" lon="1.97986">
        <ele>96.2</ele>
        <time>2023-05-03T12:59:15Z</time>
      </trkpt>
      <trkpt lat="49.88526" lon="1.97984">
        <ele>96.2</ele>
        <time>2023-05-03T12:59:16Z</time>
      </trkpt>
      <trkpt lat="49.88526" lon="1.97983">
        <ele>96.3</ele>
        <time>2023-05-03T12:59:17Z</time>
      </trkpt>
      <trkpt lat="49.88525" lon="1.97981">
        <ele>96.3</ele>
        <time>2023-05-03T12:59:18Z</time>
      </trkpt>
      <trkpt lat="49.88525" lon="1.97978">
        <ele>96.3</ele>
        <time>2023-05-03T12:59:20Z</time>
      </trkpt>
      <trkpt lat="49.88524" lon="1.97977">
        <ele>96.4</ele>
        <time>2023-05-03T12:59:21Z</time>
      </trkpt>
      <trkpt lat="49.88523" lon="1.97974">
        <ele>96.4</ele>
        <time>2023-05-03T12:59:22Z</time>
      </trkpt>
      <trkpt lat="49.88523" lon="1.97972">
        <ele>96.4</ele>
        <time>2023-05-03T12:59:23Z</time>
      </trkpt>
      <trkpt lat="49.88523" lon="1.97971">
        <ele>96.5</ele>
        <time>2023-05-03T12:59:24Z</time>
      </trkpt>
      <trkpt lat="49.88522" lon="1.97968">
        <ele>96.5</ele>
        <time>2023-05-03T12:59:26Z</time>
      </trkpt>
      <trkpt lat="49.88521" lon="1.97966">
        <ele>96.5</ele>
        <time>2023-05-03T12:59:27Z</time>
      </trkpt>
      <trkpt lat="49.88521" lon="1.97965">
        <ele>96.6</ele>
        <time>2023-05-03T12:59:28Z</time>
      </trkpt>
      <trkpt lat="49.8852" lon="1.97963">
        <ele>96.6</ele>
        <time>2023-05-03T12:59:29Z</time>
      </trkpt>
      <trkpt lat="49.8852" lon="1.97961">
        <ele>96.6</ele>
        <time>2023-05-03T12:59:30Z</time>
      </trkpt>
      <trkpt lat="49.88519" lon="1.97959">
        <ele>96.7</ele>
        <time>2023-05-03T12:59:31Z</time>
      </trkpt>
      <trkpt lat="49.88518" lon="1.97957">
        <ele>96.7</ele>
        <time>2023-05-03T12:59:32Z</time>
      </trkpt>
      <trkpt lat="49.88518" lon="1.97955">
        <ele>96.8</ele>
        <time>2023-05-03T12:59:33Z</time>
      </trkpt>
      <trkpt lat="49.88517" lon="1.97953">
        <ele>96.8</ele>
        <time>2023-05-03T12:59:34Z</time>
      </trkpt>
      <trkpt lat="49.88516" lon="1.97952">
        <ele>96.8</ele>
        <time>2023-05-03T12:59:36Z</time>
      </trkpt>
      <trkpt lat="49.88516" lon="1.9795">
        <ele>96.9</ele>
        <time>2023-05-03T12:59:37Z</time>
      </trkpt>
      <trkpt lat="49.88515" lon="1.97949">
        <ele>96.9</ele>
        <time>2023-05-03T12:59:38Z</time>
      </trkpt>
      <trkpt lat="49.88515" lon="1.97946">
        <ele>97</ele>
        <time>2023-05-03T12:59:39Z</time>
      </trkpt>
      <trkpt lat="49.88514" lon="1.97945">
        <ele>97</ele>
        <time>2023-05-03T12:59:40Z</time>
      </trkpt>
      <trkpt lat="49.88514" lon="1.97944">
        <ele>97</ele>
        <time>2023-05-03T12:59:41Z</time>
      </trkpt>
      <trkpt lat="49.88514" lon="1.97941">
        <ele>97</ele>
        <time>2023-05-03T12:59:42Z</time>
      </trkpt>
      <trkpt lat="49.88513" lon="1.97939">
        <ele>97.1</ele>
        <time>2023-05-03T12:59:43Z</time>
      </trkpt>
      <trkpt lat="49.88513" lon="1.97938">
        <ele>97.1</ele>
        <time>2023-05-03T12:59:44Z</time>
      </trkpt>
      <trkpt lat="49.88513" lon="1.97937">
        <ele>97.1</ele>
        <time>2023-05-03T12:59:46Z</time>
      </trkpt>
      <trkpt lat="49.88512" lon="1.97935">
        <ele>97.1</ele>
        <time>2023-05-03T12:59:47Z</time>
      </trkpt>
      <trkpt lat="49.88512" lon="1.97933">
        <ele>97.2</ele>
        <time>2023-05-03T12:59:48Z</time>
      </trkpt>
      <trkpt lat="49.88511" lon="1.97931">
        <ele>97.2</ele>
        <time>2023-05-03T12:59:49Z</time>
      </trkpt>
      <trkpt lat="49.88511" lon="1.97929">
        <ele>97.2</ele>
        <time>2023-05-03T12:59:50Z</time>
      </trkpt>
      <trkpt lat="49.8851" lon="1.97927">
        <ele>97.3</ele>
        <time>2023-05-03T12:59:51Z</time>
      </trkpt>
      <trkpt lat="49.88509" lon="1.97924">
        <ele>97.3</ele>
        <time>2023-05-03T12:59:53Z</time>
      </trkpt>
      <trkpt lat="49.88509" lon="1.97922">
        <ele>97.4</ele>
        <time>2023-05-03T12:59:54Z</time>
      </trkpt>
      <trkpt lat="49.88508" lon="1.9792">
        <ele>97.4</ele>
        <time>2023-05-03T12:59:56Z</time>
      </trkpt>
      <trkpt lat="49.88508" lon="1.97918">
        <ele>97.4</ele>
        <time>2023-05-03T12:59:57Z</time>
      </trkpt>
      <trkpt lat="49.88507" lon="1.97916">
        <ele>97.5</ele>
        <time>2023-05-03T12:59:58Z</time>
      </trkpt>
      <trkpt lat="49.88507" lon="1.97914">
        <ele>97.5</ele>
        <time>2023-05-03T12:59:59Z</time>
      </trkpt>
      <trkpt lat="49.88506" lon="1.97912">
        <ele>97.6</ele>
        <time>2023-05-03T13:00:00Z</time>
      </trkpt>
      <trkpt lat="49.88505" lon="1.97909">
        <ele>97.6</ele>
        <time>2023-05-03T13:00:01Z</time>
      </trkpt>
      <trkpt lat="49.88505" lon="1.97907">
        <ele>97.7</ele>
        <time>2023-05-03T13:00:02Z</time>
      </trkpt>
      <trkpt lat="49.88505" lon="1.97906">
        <ele>97.7</ele>
        <time>2023-05-03T13:00:03Z</time>
      </trkpt>
      <trkpt lat="49.88504" lon="1.97904">
        <ele>97.7</ele>
        <time>2023-05-03T13:00:05Z</time>
      </trkpt>
      <trkpt lat="49.88504" lon="1.97902">
        <ele>97.8</ele>
        <time>2023-05-03T13:00:06Z</time>
      </trkpt>
      <trkpt lat="49.88503" lon="1.97899">
        <ele>97.8</ele>
        <time>2023-05-03T13:00:07Z</time>
      </trkpt>
      <trkpt lat="49.88503" lon="1.97898">
        <ele>97.8</ele>
        <time>2023-05-03T13:00:08Z</time>
      </trkpt>
      <trkpt lat="49.88502" lon="1.97897">
        <ele>97.9</ele>
        <time>2023-05-03T13:00:09Z</time>
      </trkpt>
      <trkpt lat="49.88501" lon="1.97893">
        <ele>97.9</ele>
        <time>2023-05-03T13:00:10Z</time>
      </trkpt>
      <trkpt lat="49.88501" lon="1.97892">
        <ele>97.9</ele>
        <time>2023-05-03T13:00:12Z</time>
      </trkpt>
      <trkpt lat="49.88501" lon="1.9789">
        <ele>98</ele>
        <time>2023-05-03T13:00:13Z</time>
      </trkpt>
      <trkpt lat="49.885" lon="1.97888">
        <ele>98</ele>
        <time>2023-05-03T13:00:15Z</time>
      </trkpt>
      <trkpt lat="49.885" lon="1.97886">
        <ele>98</ele>
        <time>2023-05-03T13:00:16Z</time>
      </trkpt>
      <trkpt lat="49.88499" lon="1.97884">
        <ele>98.1</ele>
        <time>2023-05-03T13:00:17Z</time>
      </trkpt>
      <trkpt lat="49.88499" lon="1.97883">
        <ele>98.1</ele>
        <time>2023-05-03T13:00:18Z</time>
      </trkpt>
      <trkpt lat="49.88498" lon="1.97879">
        <ele>98.1</ele>
        <time>2023-05-03T13:00:19Z</time>
      </trkpt>
      <trkpt lat="49.88498" lon="1.97878">
        <ele>98.1</ele>
        <time>2023-05-03T13:00:20Z</time>
      </trkpt>
      <trkpt lat="49.88498" lon="1.97877">
        <ele>98.2</ele>
        <time>2023-05-03T13:00:21Z</time>
      </trkpt>
      <trkpt lat="49.88498" lon="1.97875">
        <ele>98.2</ele>
        <time>2023-05-03T13:00:22Z</time>
      </trkpt>
      <trkpt lat="49.88497" lon="1.97873">
        <ele>98.2</ele>
        <time>2023-05-03T13:00:23Z</time>
      </trkpt>
      <trkpt lat="49.88497" lon="1.97871">
        <ele>98.3</ele>
        <time>2023-05-03T13:00:25Z</time>
      </trkpt>
      <trkpt lat="49.88496" lon="1.97868">
        <ele>98.3</ele>
        <time>2023-05-03T13:00:26Z</time>
      </trkpt>
      <trkpt lat="49.88496" lon="1.97866">
        <ele>98.3</ele>
        <time>2023-05-03T13:00:27Z</time>
      </trkpt>
      <trkpt lat="49.88496" lon="1.97865">
        <ele>98.3</ele>
        <time>2023-05-03T13:00:28Z</time>
      </trkpt>
      <trkpt lat="49.88495" lon="1.97863">
        <ele>98.4</ele>
        <time>2023-05-03T13:00:29Z</time>
      </trkpt>
      <trkpt lat="49.88495" lon="1.97861">
        <ele>98.4</ele>
        <time>2023-05-03T13:00:30Z</time>
      </trkpt>
      <trkpt lat="49.88494" lon="1.97859">
        <ele>98.5</ele>
        <time>2023-05-03T13:00:31Z</time>
      </trkpt>
      <trkpt lat="49.88494" lon="1.97856">
        <ele>98.5</ele>
        <time>2023-05-03T13:00:32Z</time>
      </trkpt>
      <trkpt lat="49.88493" lon="1.97853">
        <ele>98.6</ele>
        <time>2023-05-03T13:00:34Z</time>
      </trkpt>
      <trkpt lat="49.88493" lon="1.97852">
        <ele>98.6</ele>
        <time>2023-05-03T13:00:35Z</time>
      </trkpt>
      <trkpt lat="49.88492" lon="1.97851">
        <ele>98.6</ele>
        <time>2023-05-03T13:00:36Z</time>
      </trkpt>
      <trkpt lat="49.88492" lon="1.97848">
        <ele>98.7</ele>
        <time>2023-05-03T13:00:37Z</time>
      </trkpt>
      <trkpt lat="49.88492" lon="1.97846">
        <ele>98.7</ele>
        <time>2023-05-03T13:00:38Z</time>
      </trkpt>
      <trkpt lat="49.88491" lon="1.97845">
        <ele>98.7</ele>
        <time>2023-05-03T13:00:39Z</time>
      </trkpt>
      <trkpt lat="49.88491" lon="1.97843">
        <ele>98.8</ele>
        <time>2023-05-03T13:00:40Z</time>
      </trkpt>
      <trkpt lat="49.88491" lon="1.97841">
        <ele>98.8</ele>
        <time>2023-05-03T13:00:42Z</time>
      </trkpt>
      <trkpt lat="49.8849" lon="1.9784">
        <ele>98.8</ele>
        <time>2023-05-03T13:00:43Z</time>
      </trkpt>
      <trkpt lat="49.8849" lon="1.97838">
        <ele>98.9</ele>
        <time>2023-05-03T13:00:44Z</time>
      </trkpt>
      <trkpt lat="49.8849" lon="1.97837">
        <ele>98.9</ele>
        <time>2023-05-03T13:00:45Z</time>
      </trkpt>
      <trkpt lat="49.88489" lon="1.97835">
        <ele>98.9</ele>
        <time>2023-05-03T13:00:46Z</time>
      </trkpt>
      <trkpt lat="49.88489" lon="1.97832">
        <ele>99</ele>
        <time>2023-05-03T13:00:47Z</time>
      </trkpt>
      <trkpt lat="49.88488" lon="1.97831">
        <ele>99</ele>
        <time>2023-05-03T13:00:48Z</time>
      </trkpt>
      <trkpt lat="49.88488" lon="1.9783">
        <ele>99</ele>
        <time>2023-05-03T13:00:49Z</time>
      </trkpt>
      <trkpt lat="49.88488" lon="1.97826">
        <ele>99.1</ele>
        <time>2023-05-03T13:00:51Z</time>
      </trkpt>
      <trkpt lat="49.88487" lon="1.97825">
        <ele>99.1</ele>
        <time>2023-05-03T13:00:52Z</time>
      </trkpt>
      <trkpt lat="49.88487" lon="1.97824">
        <ele>99.1</ele>
        <time>2023-05-03T13:00:53Z</time>
      </trkpt>
      <trkpt lat="49.88486" lon="1.9782">
        <ele>99.2</ele>
        <time>2023-05-03T13:00:54Z</time>
      </trkpt>
      <trkpt lat="49.88486" lon="1.97819">
        <ele>99.2</ele>
        <time>2023-05-03T13:00:56Z</time>
      </trkpt>
      <trkpt lat="49.88486" lon="1.97817">
        <ele>99.3</ele>
        <time>2023-05-03T13:00:57Z</time>
      </trkpt>
      <trkpt lat="49.88485" lon="1.97815">
        <ele>99.3</ele>
        <time>2023-05-03T13:00:58Z</time>
      </trkpt>
      <trkpt lat="49.88485" lon="1.97813">
        <ele>99.3</ele>
        <time>2023-05-03T13:00:59Z</time>
      </trkpt>
      <trkpt lat="49.88485" lon="1.97811">
        <ele>99.4</ele>
        <time>2023-05-03T13:01:01Z</time>
      </trkpt>
      <trkpt lat="49.88484" lon="1.97809">
        <ele>99.4</ele>
        <time>2023-05-03T13:01:02Z</time>
      </trkpt>
      <trkpt lat="49.88484" lon="1.97808">
        <ele>99.4</ele>
        <time>2023-05-03T13:01:03Z</time>
      </trkpt>
      <trkpt lat="49.88484" lon="1.97804">
        <ele>99.5</ele>
        <time>2023-05-03T13:01:04Z</time>
      </trkpt>
      <trkpt lat="49.88484" lon="1.97803">
        <ele>99.5</ele>
        <time>2023-05-03T13:01:05Z</time>
      </trkpt>
      <trkpt lat="49.88484" lon="1.97802">
        <ele>99.5</ele>
        <time>2023-05-03T13:01:06Z</time>
      </trkpt>
      <trkpt lat="49.88484" lon="1.97799">
        <ele>99.6</ele>
        <time>2023-05-03T13:01:07Z</time>
      </trkpt>
      <trkpt lat="49.88483" lon="1.97797">
        <ele>99.6</ele>
        <time>2023-05-03T13:01:09Z</time>
      </trkpt>
      <trkpt lat="49.88483" lon="1.97795">
        <ele>99.7</ele>
        <time>2023-05-03T13:01:10Z</time>
      </trkpt>
      <trkpt lat="49.88483" lon="1.97793">
        <ele>99.7</ele>
        <time>2023-05-03T13:01:11Z</time>
      </trkpt>
      <trkpt lat="49.88482" lon="1.9779">
        <ele>99.8</ele>
        <time>2023-05-03T13:01:12Z</time>
      </trkpt>
      <trkpt lat="49.88482" lon="1.97789">
        <ele>99.8</ele>
        <time>2023-05-03T13:01:13Z</time>
      </trkpt>
      <trkpt lat="49.88482" lon="1.97787">
        <ele>99.8</ele>
        <time>2023-05-03T13:01:14Z</time>
      </trkpt>
      <trkpt lat="49.88481" lon="1.97784">
        <ele>99.9</ele>
        <time>2023-05-03T13:01:15Z</time>
      </trkpt>
      <trkpt lat="49.88481" lon="1.97783">
        <ele>99.9</ele>
        <time>2023-05-03T13:01:16Z</time>
      </trkpt>
      <trkpt lat="49.8848" lon="1.97781">
        <ele>99.9</ele>
        <time>2023-05-03T13:01:17Z</time>
      </trkpt>
      <trkpt lat="49.8848" lon="1.97778">
        <ele>100</ele>
        <time>2023-05-03T13:01:19Z</time>
      </trkpt>
      <trkpt lat="49.88479" lon="1.97777">
        <ele>100</ele>
        <time>2023-05-03T13:01:20Z</time>
      </trkpt>
      <trkpt lat="49.88479" lon="1.97776">
        <ele>100</ele>
        <time>2023-05-03T13:01:21Z</time>
      </trkpt>
      <trkpt lat="49.88479" lon="1.97775">
        <ele>100.1</ele>
        <time>2023-05-03T13:01:22Z</time>
      </trkpt>
      <trkpt lat="49.88478" lon="1.97773">
        <ele>100.1</ele>
        <time>2023-05-03T13:01:23Z</time>
      </trkpt>
      <trkpt lat="49.88478" lon="1.9777">
        <ele>100.2</ele>
        <time>2023-05-03T13:01:25Z</time>
      </trkpt>
      <trkpt lat="49.88477" lon="1.97767">
        <ele>100.2</ele>
        <time>2023-05-03T13:01:26Z</time>
      </trkpt>
      <trkpt lat="49.88477" lon="1.97766">
        <ele>100.2</ele>
        <time>2023-05-03T13:01:28Z</time>
      </trkpt>
      <trkpt lat="49.88476" lon="1.97764">
        <ele>100.3</ele>
        <time>2023-05-03T13:01:29Z</time>
      </trkpt>
      <trkpt lat="49.88476" lon="1.97763">
        <ele>100.3</ele>
        <time>2023-05-03T13:01:30Z</time>
      </trkpt>
      <trkpt lat="49.88476" lon="1.97761">
        <ele>100.3</ele>
        <time>2023-05-03T13:01:31Z</time>
      </trkpt>
      <trkpt lat="49.88476" lon="1.97759">
        <ele>100.4</ele>
        <time>2023-05-03T13:01:32Z</time>
      </trkpt>
      <trkpt lat="49.88475" lon="1.97756">
        <ele>100.4</ele>
        <time>2023-05-03T13:01:33Z</time>
      </trkpt>
      <trkpt lat="49.88475" lon="1.97755">
        <ele>100.4</ele>
        <time>2023-05-03T13:01:34Z</time>
      </trkpt>
      <trkpt lat="49.88475" lon="1.97754">
        <ele>100.5</ele>
        <time>2023-05-03T13:01:35Z</time>
      </trkpt>
      <trkpt lat="49.88475" lon="1.97752">
        <ele>100.5</ele>
        <time>2023-05-03T13:01:37Z</time>
      </trkpt>
      <trkpt lat="49.88475" lon="1.9775">
        <ele>100.5</ele>
        <time>2023-05-03T13:01:38Z</time>
      </trkpt>
      <trkpt lat="49.88474" lon="1.97748">
        <ele>100.5</ele>
        <time>2023-05-03T13:01:39Z</time>
      </trkpt>
      <trkpt lat="49.88474" lon="1.97747">
        <ele>100.6</ele>
        <time>2023-05-03T13:01:40Z</time>
      </trkpt>
      <trkpt lat="49.88474" lon="1.97745">
        <ele>100.6</ele>
        <time>2023-05-03T13:01:41Z</time>
      </trkpt>
      <trkpt lat="49.88474" lon="1.97743">
        <ele>100.6</ele>
        <time>2023-05-03T13:01:42Z</time>
      </trkpt>
      <trkpt lat="49.88474" lon="1.97741">
        <ele>100.6</ele>
        <time>2023-05-03T13:01:43Z</time>
      </trkpt>
      <trkpt lat="49.88474" lon="1.97739">
        <ele>100.7</ele>
        <time>2023-05-03T13:01:44Z</time>
      </trkpt>
      <trkpt lat="49.88474" lon="1.97737">
        <ele>100.7</ele>
        <time>2023-05-03T13:01:46Z</time>
      </trkpt>
      <trkpt lat="49.88473" lon="1.97734">
        <ele>100.7</ele>
        <time>2023-05-03T13:01:47Z</time>
      </trkpt>
      <trkpt lat="49.88473" lon="1.97733">
        <ele>100.8</ele>
        <time>2023-05-03T13:01:48Z</time>
      </trkpt>
      <trkpt lat="49.88473" lon="1.97732">
        <ele>100.8</ele>
        <time>2023-05-03T13:01:49Z</time>
      </trkpt>
      <trkpt lat="49.88473" lon="1.9773">
        <ele>100.8</ele>
        <time>2023-05-03T13:01:50Z</time>
      </trkpt>
      <trkpt lat="49.88473" lon="1.97727">
        <ele>100.8</ele>
        <time>2023-05-03T13:01:51Z</time>
      </trkpt>
      <trkpt lat="49.88474" lon="1.97725">
        <ele>100.9</ele>
        <time>2023-05-03T13:01:52Z</time>
      </trkpt>
      <trkpt lat="49.88474" lon="1.97723">
        <ele>100.9</ele>
        <time>2023-05-03T13:01:54Z</time>
      </trkpt>
      <trkpt lat="49.88473" lon="1.97721">
        <ele>100.9</ele>
        <time>2023-05-03T13:01:55Z</time>
      </trkpt>
      <trkpt lat="49.88473" lon="1.97719">
        <ele>101</ele>
        <time>2023-05-03T13:01:56Z</time>
      </trkpt>
      <trkpt lat="49.88473" lon="1.97716">
        <ele>101</ele>
        <time>2023-05-03T13:01:57Z</time>
      </trkpt>
      <trkpt lat="49.88473" lon="1.97714">
        <ele>101</ele>
        <time>2023-05-03T13:01:58Z</time>
      </trkpt>
      <trkpt lat="49.88473" lon="1.97711">
        <ele>101.1</ele>
        <time>2023-05-03T13:01:59Z</time>
      </trkpt>
      <trkpt lat="49.88473" lon="1.97709">
        <ele>101.1</ele>
        <time>2023-05-03T13:02:00Z</time>
      </trkpt>
      <trkpt lat="49.88473" lon="1.97706">
        <ele>101.2</ele>
        <time>2023-05-03T13:02:01Z</time>
      </trkpt>
      <trkpt lat="49.88473" lon="1.97704">
        <ele>101.2</ele>
        <time>2023-05-03T13:02:03Z</time>
      </trkpt>
      <trkpt lat="49.88473" lon="1.97702">
        <ele>101.3</ele>
        <time>2023-05-03T13:02:04Z</time>
      </trkpt>
      <trkpt lat="49.88473" lon="1.97699">
        <ele>101.3</ele>
        <time>2023-05-03T13:02:05Z</time>
      </trkpt>
      <trkpt lat="49.88474" lon="1.97697">
        <ele>101.4</ele>
        <time>2023-05-03T13:02:06Z</time>
      </trkpt>
      <trkpt lat="49.88474" lon="1.97694">
        <ele>101.4</ele>
        <time>2023-05-03T13:02:07Z</time>
      </trkpt>
      <trkpt lat="49.88474" lon="1.97691">
        <ele>101.5</ele>
        <time>2023-05-03T13:02:08Z</time>
      </trkpt>
      <trkpt lat="49.88475" lon="1.97689">
        <ele>101.5</ele>
        <time>2023-05-03T13:02:09Z</time>
      </trkpt>
      <trkpt lat="49.88475" lon="1.97686">
        <ele>101.6</ele>
        <time>2023-05-03T13:02:10Z</time>
      </trkpt>
      <trkpt lat="49.88475" lon="1.97683">
        <ele>101.6</ele>
        <time>2023-05-03T13:02:12Z</time>
      </trkpt>
      <trkpt lat="49.88475" lon="1.97681">
        <ele>101.7</ele>
        <time>2023-05-03T13:02:13Z</time>
      </trkpt>
      <trkpt lat="49.88476" lon="1.97678">
        <ele>101.8</ele>
        <time>2023-05-03T13:02:14Z</time>
      </trkpt>
      <trkpt lat="49.88476" lon="1.97676">
        <ele>101.8</ele>
        <time>2023-05-03T13:02:15Z</time>
      </trkpt>
      <trkpt lat="49.88476" lon="1.97673">
        <ele>101.9</ele>
        <time>2023-05-03T13:02:16Z</time>
      </trkpt>
      <trkpt lat="49.88476" lon="1.9767">
        <ele>102</ele>
        <time>2023-05-03T13:02:17Z</time>
      </trkpt>
      <trkpt lat="49.88477" lon="1.97668">
        <ele>102</ele>
        <time>2023-05-03T13:02:18Z</time>
      </trkpt>
      <trkpt lat="49.88477" lon="1.97665">
        <ele>102.1</ele>
        <time>2023-05-03T13:02:19Z</time>
      </trkpt>
      <trkpt lat="49.88477" lon="1.97663">
        <ele>102.2</ele>
        <time>2023-05-03T13:02:21Z</time>
      </trkpt>
      <trkpt lat="49.88477" lon="1.97661">
        <ele>102.2</ele>
        <time>2023-05-03T13:02:22Z</time>
      </trkpt>
      <trkpt lat="49.88477" lon="1.97659">
        <ele>102.3</ele>
        <time>2023-05-03T13:02:23Z</time>
      </trkpt>
      <trkpt lat="49.88477" lon="1.97655">
        <ele>102.4</ele>
        <time>2023-05-03T13:02:24Z</time>
      </trkpt>
      <trkpt lat="49.88477" lon="1.97654">
        <ele>102.4</ele>
        <time>2023-05-03T13:02:25Z</time>
      </trkpt>
      <trkpt lat="49.88477" lon="1.97652">
        <ele>102.5</ele>
        <time>2023-05-03T13:02:26Z</time>
      </trkpt>
      <trkpt lat="49.88477" lon="1.97649">
        <ele>102.5</ele>
        <time>2023-05-03T13:02:27Z</time>
      </trkpt>
      <trkpt lat="49.88477" lon="1.97647">
        <ele>102.6</ele>
        <time>2023-05-03T13:02:29Z</time>
      </trkpt>
      <trkpt lat="49.88477" lon="1.97646">
        <ele>102.6</ele>
        <time>2023-05-03T13:02:30Z</time>
      </trkpt>
      <trkpt lat="49.88477" lon="1.97644">
        <ele>102.7</ele>
        <time>2023-05-03T13:02:31Z</time>
      </trkpt>
      <trkpt lat="49.88477" lon="1.97642">
        <ele>102.7</ele>
        <time>2023-05-03T13:02:32Z</time>
      </trkpt>
      <trkpt lat="49.88477" lon="1.97639">
        <ele>102.8</ele>
        <time>2023-05-03T13:02:33Z</time>
      </trkpt>
      <trkpt lat="49.88477" lon="1.97638">
        <ele>102.8</ele>
        <time>2023-05-03T13:02:34Z</time>
      </trkpt>
      <trkpt lat="49.88477" lon="1.97636">
        <ele>102.8</ele>
        <time>2023-05-03T13:02:35Z</time>
      </trkpt>
      <trkpt lat="49.88477" lon="1.97634">
        <ele>102.9</ele>
        <time>2023-05-03T13:02:37Z</time>
      </trkpt>
      <trkpt lat="49.88477" lon="1.97632">
        <ele>102.9</ele>
        <time>2023-05-03T13:02:38Z</time>
      </trkpt>
      <trkpt lat="49.88477" lon="1.9763">
        <ele>103</ele>
        <time>2023-05-03T13:02:39Z</time>
      </trkpt>
      <trkpt lat="49.88477" lon="1.97628">
        <ele>103</ele>
        <time>2023-05-03T13:02:40Z</time>
      </trkpt>
      <trkpt lat="49.88477" lon="1.97625">
        <ele>103</ele>
        <time>2023-05-03T13:02:41Z</time>
      </trkpt>
      <trkpt lat="49.88477" lon="1.97623">
        <ele>103.1</ele>
        <time>2023-05-03T13:02:42Z</time>
      </trkpt>
      <trkpt lat="49.88477" lon="1.97619">
        <ele>103.1</ele>
        <time>2023-05-03T13:02:43Z</time>
      </trkpt>
      <trkpt lat="49.88477" lon="1.97617">
        <ele>103.2</ele>
        <time>2023-05-03T13:02:45Z</time>
      </trkpt>
      <trkpt lat="49.88477" lon="1.97615">
        <ele>103.2</ele>
        <time>2023-05-03T13:02:46Z</time>
      </trkpt>
      <trkpt lat="49.88477" lon="1.97614">
        <ele>103.2</ele>
        <time>2023-05-03T13:02:47Z</time>
      </trkpt>
      <trkpt lat="49.88477" lon="1.97612">
        <ele>103.2</ele>
        <time>2023-05-03T13:02:48Z</time>
      </trkpt>
      <trkpt lat="49.88477" lon="1.9761">
        <ele>103.3</ele>
        <time>2023-05-03T13:02:49Z</time>
      </trkpt>
      <trkpt lat="49.88477" lon="1.97607">
        <ele>103.3</ele>
        <time>2023-05-03T13:02:50Z</time>
      </trkpt>
      <trkpt lat="49.88476" lon="1.97604">
        <ele>103.4</ele>
        <time>2023-05-03T13:02:51Z</time>
      </trkpt>
      <trkpt lat="49.88476" lon="1.97602">
        <ele>103.4</ele>
        <time>2023-05-03T13:02:53Z</time>
      </trkpt>
      <trkpt lat="49.88476" lon="1.976">
        <ele>103.5</ele>
        <time>2023-05-03T13:02:54Z</time>
      </trkpt>
      <trkpt lat="49.88476" lon="1.97599">
        <ele>103.5</ele>
        <time>2023-05-03T13:02:55Z</time>
      </trkpt>
      <trkpt lat="49.88476" lon="1.97597">
        <ele>103.6</ele>
        <time>2023-05-03T13:02:56Z</time>
      </trkpt>
      <trkpt lat="49.88476" lon="1.97595">
        <ele>103.6</ele>
        <time>2023-05-03T13:02:57Z</time>
      </trkpt>
      <trkpt lat="49.88476" lon="1.97593">
        <ele>103.7</ele>
        <time>2023-05-03T13:02:58Z</time>
      </trkpt>
      <trkpt lat="49.88476" lon="1.97589">
        <ele>103.8</ele>
        <time>2023-05-03T13:02:59Z</time>
      </trkpt>
      <trkpt lat="49.88476" lon="1.97587">
        <ele>103.9</ele>
        <time>2023-05-03T13:03:01Z</time>
      </trkpt>
      <trkpt lat="49.88476" lon="1.97586">
        <ele>103.9</ele>
        <time>2023-05-03T13:03:02Z</time>
      </trkpt>
      <trkpt lat="49.88477" lon="1.97584">
        <ele>104</ele>
        <time>2023-05-03T13:03:03Z</time>
      </trkpt>
      <trkpt lat="49.88477" lon="1.97583">
        <ele>104</ele>
        <time>2023-05-03T13:03:04Z</time>
      </trkpt>
      <trkpt lat="49.88477" lon="1.9758">
        <ele>104.1</ele>
        <time>2023-05-03T13:03:05Z</time>
      </trkpt>
      <trkpt lat="49.88477" lon="1.97579">
        <ele>104.2</ele>
        <time>2023-05-03T13:03:06Z</time>
      </trkpt>
      <trkpt lat="49.88478" lon="1.97577">
        <ele>104.2</ele>
        <time>2023-05-03T13:03:07Z</time>
      </trkpt>
      <trkpt lat="49.88478" lon="1.97575">
        <ele>104.3</ele>
        <time>2023-05-03T13:03:09Z</time>
      </trkpt>
      <trkpt lat="49.88478" lon="1.97574">
        <ele>104.3</ele>
        <time>2023-05-03T13:03:10Z</time>
      </trkpt>
      <trkpt lat="49.88478" lon="1.97572">
        <ele>104.4</ele>
        <time>2023-05-03T13:03:11Z</time>
      </trkpt>
      <trkpt lat="49.88478" lon="1.9757">
        <ele>104.5</ele>
        <time>2023-05-03T13:03:12Z</time>
      </trkpt>
      <trkpt lat="49.88478" lon="1.97569">
        <ele>104.5</ele>
        <time>2023-05-03T13:03:13Z</time>
      </trkpt>
      <trkpt lat="49.88478" lon="1.97567">
        <ele>104.6</ele>
        <time>2023-05-03T13:03:14Z</time>
      </trkpt>
      <trkpt lat="49.88478" lon="1.97565">
        <ele>104.7</ele>
        <time>2023-05-03T13:03:16Z</time>
      </trkpt>
      <trkpt lat="49.88478" lon="1.97563">
        <ele>104.8</ele>
        <time>2023-05-03T13:03:17Z</time>
      </trkpt>
      <trkpt lat="49.88478" lon="1.97561">
        <ele>104.8</ele>
        <time>2023-05-03T13:03:18Z</time>
      </trkpt>
      <trkpt lat="49.88478" lon="1.9756">
        <ele>104.9</ele>
        <time>2023-05-03T13:03:19Z</time>
      </trkpt>
      <trkpt lat="49.88478" lon="1.97558">
        <ele>105</ele>
        <time>2023-05-03T13:03:20Z</time>
      </trkpt>
      <trkpt lat="49.88478" lon="1.97556">
        <ele>105</ele>
        <time>2023-05-03T13:03:21Z</time>
      </trkpt>
      <trkpt lat="49.88478" lon="1.97555">
        <ele>105.1</ele>
        <time>2023-05-03T13:03:22Z</time>
      </trkpt>
      <trkpt lat="49.88478" lon="1.97553">
        <ele>105.2</ele>
        <time>2023-05-03T13:03:23Z</time>
      </trkpt>
      <trkpt lat="49.88478" lon="1.97551">
        <ele>105.2</ele>
        <time>2023-05-03T13:03:25Z</time>
      </trkpt>
      <trkpt lat="49.88478" lon="1.97549">
        <ele>105.3</ele>
        <time>2023-05-03T13:03:26Z</time>
      </trkpt>
      <trkpt lat="49.88478" lon="1.97548">
        <ele>105.4</ele>
        <time>2023-05-03T13:03:27Z</time>
      </trkpt>
      <trkpt lat="49.88478" lon="1.97546">
        <ele>105.5</ele>
        <time>2023-05-03T13:03:28Z</time>
      </trkpt>
      <trkpt lat="49.88478" lon="1.97545">
        <ele>105.5</ele>
        <time>2023-05-03T13:03:29Z</time>
      </trkpt>
      <trkpt lat="49.88478" lon="1.97543">
        <ele>105.6</ele>
        <time>2023-05-03T13:03:30Z</time>
      </trkpt>
      <trkpt lat="49.88478" lon="1.97541">
        <ele>105.7</ele>
        <time>2023-05-03T13:03:32Z</time>
      </trkpt>
      <trkpt lat="49.88478" lon="1.9754">
        <ele>105.7</ele>
        <time>2023-05-03T13:03:33Z</time>
      </trkpt>
      <trkpt lat="49.88478" lon="1.97538">
        <ele>105.8</ele>
        <time>2023-05-03T13:03:34Z</time>
      </trkpt>
      <trkpt lat="49.88478" lon="1.97537">
        <ele>105.9</ele>
        <time>2023-05-03T13:03:35Z</time>
      </trkpt>
      <trkpt lat="49.88478" lon="1.97535">
        <ele>105.9</ele>
        <time>2023-05-03T13:03:36Z</time>
      </trkpt>
      <trkpt lat="49.88478" lon="1.97533">
        <ele>106</ele>
        <time>2023-05-03T13:03:38Z</time>
      </trkpt>
      <trkpt lat="49.88478" lon="1.97531">
        <ele>106.1</ele>
        <time>2023-05-03T13:03:39Z</time>
      </trkpt>
      <trkpt lat="49.88478" lon="1.97528">
        <ele>106.3</ele>
        <time>2023-05-03T13:03:40Z</time>
      </trkpt>
      <trkpt lat="49.88478" lon="1.97527">
        <ele>106.3</ele>
        <time>2023-05-03T13:03:41Z</time>
      </trkpt>
      <trkpt lat="49.88478" lon="1.97526">
        <ele>106.4</ele>
        <time>2023-05-03T13:03:42Z</time>
      </trkpt>
      <trkpt lat="49.88478" lon="1.97524">
        <ele>106.5</ele>
        <time>2023-05-03T13:03:44Z</time>
      </trkpt>
      <trkpt lat="49.88478" lon="1.97522">
        <ele>106.5</ele>
        <time>2023-05-03T13:03:45Z</time>
      </trkpt>
      <trkpt lat="49.88478" lon="1.9752">
        <ele>106.6</ele>
        <time>2023-05-03T13:03:46Z</time>
      </trkpt>
      <trkpt lat="49.88477" lon="1.97518">
        <ele>106.7</ele>
        <time>2023-05-03T13:03:47Z</time>
      </trkpt>
      <trkpt lat="49.88477" lon="1.97517">
        <ele>106.8</ele>
        <time>2023-05-03T13:03:48Z</time>
      </trkpt>
      <trkpt lat="49.88477" lon="1.97515">
        <ele>106.9</ele>
        <time>2023-05-03T13:03:49Z</time>
      </trkpt>
      <trkpt lat="49.88478" lon="1.97511">
        <ele>107</ele>
        <time>2023-05-03T13:03:51Z</time>
      </trkpt>
      <trkpt lat="49.88478" lon="1.9751">
        <ele>107</ele>
        <time>2023-05-03T13:03:52Z</time>
      </trkpt>
      <trkpt lat="49.88478" lon="1.97509">
        <ele>107.1</ele>
        <time>2023-05-03T13:03:53Z</time>
      </trkpt>
      <trkpt lat="49.88478" lon="1.97507">
        <ele>107.1</ele>
        <time>2023-05-03T13:03:54Z</time>
      </trkpt>
      <trkpt lat="49.88478" lon="1.97505">
        <ele>107.2</ele>
        <time>2023-05-03T13:03:55Z</time>
      </trkpt>
      <trkpt lat="49.88478" lon="1.97504">
        <ele>107.3</ele>
        <time>2023-05-03T13:03:56Z</time>
      </trkpt>
      <trkpt lat="49.88478" lon="1.97502">
        <ele>107.3</ele>
        <time>2023-05-03T13:03:57Z</time>
      </trkpt>
      <trkpt lat="49.88478" lon="1.975">
        <ele>107.4</ele>
        <time>2023-05-03T13:03:58Z</time>
      </trkpt>
      <trkpt lat="49.88478" lon="1.97498">
        <ele>107.5</ele>
        <time>2023-05-03T13:04:00Z</time>
      </trkpt>
      <trkpt lat="49.88478" lon="1.97496">
        <ele>107.5</ele>
        <time>2023-05-03T13:04:01Z</time>
      </trkpt>
      <trkpt lat="49.88478" lon="1.97494">
        <ele>107.6</ele>
        <time>2023-05-03T13:04:02Z</time>
      </trkpt>
      <trkpt lat="49.88477" lon="1.97493">
        <ele>107.6</ele>
        <time>2023-05-03T13:04:03Z</time>
      </trkpt>
      <trkpt lat="49.88477" lon="1.97491">
        <ele>107.7</ele>
        <time>2023-05-03T13:04:04Z</time>
      </trkpt>
      <trkpt lat="49.88477" lon="1.97489">
        <ele>107.7</ele>
        <time>2023-05-03T13:04:06Z</time>
      </trkpt>
      <trkpt lat="49.88477" lon="1.97487">
        <ele>107.8</ele>
        <time>2023-05-03T13:04:07Z</time>
      </trkpt>
      <trkpt lat="49.88476" lon="1.97484">
        <ele>107.9</ele>
        <time>2023-05-03T13:04:08Z</time>
      </trkpt>
      <trkpt lat="49.88476" lon="1.97482">
        <ele>107.9</ele>
        <time>2023-05-03T13:04:09Z</time>
      </trkpt>
      <trkpt lat="49.88476" lon="1.97481">
        <ele>108</ele>
        <time>2023-05-03T13:04:10Z</time>
      </trkpt>
      <trkpt lat="49.88476" lon="1.97479">
        <ele>108</ele>
        <time>2023-05-03T13:04:11Z</time>
      </trkpt>
      <trkpt lat="49.88476" lon="1.97478">
        <ele>108</ele>
        <time>2023-05-03T13:04:13Z</time>
      </trkpt>
      <trkpt lat="49.88475" lon="1.97476">
        <ele>108.1</ele>
        <time>2023-05-03T13:04:14Z</time>
      </trkpt>
      <trkpt lat="49.88475" lon="1.97475">
        <ele>108.1</ele>
        <time>2023-05-03T13:04:15Z</time>
      </trkpt>
      <trkpt lat="49.88475" lon="1.97473">
        <ele>108.2</ele>
        <time>2023-05-03T13:04:16Z</time>
      </trkpt>
      <trkpt lat="49.88475" lon="1.97472">
        <ele>108.2</ele>
        <time>2023-05-03T13:04:17Z</time>
      </trkpt>
      <trkpt lat="49.88474" lon="1.9747">
        <ele>108.2</ele>
        <time>2023-05-03T13:04:18Z</time>
      </trkpt>
      <trkpt lat="49.88474" lon="1.97468">
        <ele>108.3</ele>
        <time>2023-05-03T13:04:20Z</time>
      </trkpt>
      <trkpt lat="49.88473" lon="1.97467">
        <ele>108.3</ele>
        <time>2023-05-03T13:04:21Z</time>
      </trkpt>
      <trkpt lat="49.88473" lon="1.97466">
        <ele>108.4</ele>
        <time>2023-05-03T13:04:22Z</time>
      </trkpt>
      <trkpt lat="49.88473" lon="1.97465">
        <ele>108.4</ele>
        <time>2023-05-03T13:04:23Z</time>
      </trkpt>
      <trkpt lat="49.88472" lon="1.97463">
        <ele>108.4</ele>
        <time>2023-05-03T13:04:24Z</time>
      </trkpt>
      <trkpt lat="49.88472" lon="1.97462">
        <ele>108.5</ele>
        <time>2023-05-03T13:04:25Z</time>
      </trkpt>
      <trkpt lat="49.88471" lon="1.9746">
        <ele>108.5</ele>
        <time>2023-05-03T13:04:26Z</time>
      </trkpt>
      <trkpt lat="49.88471" lon="1.97458">
        <ele>108.5</ele>
        <time>2023-05-03T13:04:28Z</time>
      </trkpt>
      <trkpt lat="49.88471" lon="1.97457">
        <ele>108.6</ele>
        <time>2023-05-03T13:04:29Z</time>
      </trkpt>
      <trkpt lat="49.8847" lon="1.97455">
        <ele>108.6</ele>
        <time>2023-05-03T13:04:30Z</time>
      </trkpt>
      <trkpt lat="49.8847" lon="1.97453">
        <ele>108.6</ele>
        <time>2023-05-03T13:04:31Z</time>
      </trkpt>
      <trkpt lat="49.8847" lon="1.97451">
        <ele>108.7</ele>
        <time>2023-05-03T13:04:32Z</time>
      </trkpt>
      <trkpt lat="49.88469" lon="1.97449">
        <ele>108.7</ele>
        <time>2023-05-03T13:04:33Z</time>
      </trkpt>
      <trkpt lat="49.88468" lon="1.97445">
        <ele>108.8</ele>
        <time>2023-05-03T13:04:34Z</time>
      </trkpt>
      <trkpt lat="49.88468" lon="1.97444">
        <ele>108.8</ele>
        <time>2023-05-03T13:04:36Z</time>
      </trkpt>
      <trkpt lat="49.88468" lon="1.97442">
        <ele>108.8</ele>
        <time>2023-05-03T13:04:37Z</time>
      </trkpt>
      <trkpt lat="49.88467" lon="1.97441">
        <ele>108.9</ele>
        <time>2023-05-03T13:04:38Z</time>
      </trkpt>
      <trkpt lat="49.88467" lon="1.97439">
        <ele>108.9</ele>
        <time>2023-05-03T13:04:39Z</time>
      </trkpt>
      <trkpt lat="49.88466" lon="1.97437">
        <ele>108.9</ele>
        <time>2023-05-03T13:04:40Z</time>
      </trkpt>
      <trkpt lat="49.88465" lon="1.97435">
        <ele>109</ele>
        <time>2023-05-03T13:04:41Z</time>
      </trkpt>
      <trkpt lat="49.88464" lon="1.97431">
        <ele>109</ele>
        <time>2023-05-03T13:04:42Z</time>
      </trkpt>
      <trkpt lat="49.88464" lon="1.9743">
        <ele>109.1</ele>
        <time>2023-05-03T13:04:44Z</time>
      </trkpt>
      <trkpt lat="49.88464" lon="1.97428">
        <ele>109.1</ele>
        <time>2023-05-03T13:04:45Z</time>
      </trkpt>
      <trkpt lat="49.88463" lon="1.97426">
        <ele>109.1</ele>
        <time>2023-05-03T13:04:46Z</time>
      </trkpt>
      <trkpt lat="49.88463" lon="1.97425">
        <ele>109.1</ele>
        <time>2023-05-03T13:04:47Z</time>
      </trkpt>
      <trkpt lat="49.88463" lon="1.97423">
        <ele>109.2</ele>
        <time>2023-05-03T13:04:48Z</time>
      </trkpt>
      <trkpt lat="49.88462" lon="1.97419">
        <ele>109.2</ele>
        <time>2023-05-03T13:04:50Z</time>
      </trkpt>
      <trkpt lat="49.88462" lon="1.97417">
        <ele>109.3</ele>
        <time>2023-05-03T13:04:51Z</time>
      </trkpt>
      <trkpt lat="49.88462" lon="1.97416">
        <ele>109.3</ele>
        <time>2023-05-03T13:04:52Z</time>
      </trkpt>
      <trkpt lat="49.88461" lon="1.97413">
        <ele>109.3</ele>
        <time>2023-05-03T13:04:54Z</time>
      </trkpt>
      <trkpt lat="49.8846" lon="1.97409">
        <ele>109.4</ele>
        <time>2023-05-03T13:04:55Z</time>
      </trkpt>
      <trkpt lat="49.8846" lon="1.97408">
        <ele>109.4</ele>
        <time>2023-05-03T13:04:56Z</time>
      </trkpt>
      <trkpt lat="49.8846" lon="1.97407">
        <ele>109.4</ele>
        <time>2023-05-03T13:04:57Z</time>
      </trkpt>
      <trkpt lat="49.8846" lon="1.97405">
        <ele>109.5</ele>
        <time>2023-05-03T13:04:58Z</time>
      </trkpt>
      <trkpt lat="49.88459" lon="1.97403">
        <ele>109.5</ele>
        <time>2023-05-03T13:04:59Z</time>
      </trkpt>
      <trkpt lat="49.88459" lon="1.97401">
        <ele>109.5</ele>
        <time>2023-05-03T13:05:01Z</time>
      </trkpt>
      <trkpt lat="49.88459" lon="1.974">
        <ele>109.5</ele>
        <time>2023-05-03T13:05:02Z</time>
      </trkpt>
      <trkpt lat="49.88459" lon="1.97398">
        <ele>109.6</ele>
        <time>2023-05-03T13:05:03Z</time>
      </trkpt>
      <trkpt lat="49.88459" lon="1.97396">
        <ele>109.6</ele>
        <time>2023-05-03T13:05:04Z</time>
      </trkpt>
      <trkpt lat="49.88458" lon="1.97395">
        <ele>109.6</ele>
        <time>2023-05-03T13:05:05Z</time>
      </trkpt>
      <trkpt lat="49.88458" lon="1.97393">
        <ele>109.6</ele>
        <time>2023-05-03T13:05:06Z</time>
      </trkpt>
      <trkpt lat="49.88458" lon="1.97391">
        <ele>109.6</ele>
        <time>2023-05-03T13:05:07Z</time>
      </trkpt>
      <trkpt lat="49.88457" lon="1.97388">
        <ele>109.7</ele>
        <time>2023-05-03T13:05:09Z</time>
      </trkpt>
      <trkpt lat="49.88457" lon="1.97387">
        <ele>109.7</ele>
        <time>2023-05-03T13:05:10Z</time>
      </trkpt>
      <trkpt lat="49.88456" lon="1.97386">
        <ele>109.7</ele>
        <time>2023-05-03T13:05:11Z</time>
      </trkpt>
      <trkpt lat="49.88456" lon="1.97384">
        <ele>109.7</ele>
        <time>2023-05-03T13:05:12Z</time>
      </trkpt>
      <trkpt lat="49.88455" lon="1.97382">
        <ele>109.7</ele>
        <time>2023-05-03T13:05:13Z</time>
      </trkpt>
      <trkpt lat="49.88455" lon="1.9738">
        <ele>109.8</ele>
        <time>2023-05-03T13:05:14Z</time>
      </trkpt>
      <trkpt lat="49.88454" lon="1.97378">
        <ele>109.8</ele>
        <time>2023-05-03T13:05:15Z</time>
      </trkpt>
      <trkpt lat="49.88454" lon="1.97376">
        <ele>109.8</ele>
        <time>2023-05-03T13:05:16Z</time>
      </trkpt>
      <trkpt lat="49.88453" lon="1.97374">
        <ele>109.8</ele>
        <time>2023-05-03T13:05:18Z</time>
      </trkpt>
      <trkpt lat="49.88453" lon="1.97373">
        <ele>109.8</ele>
        <time>2023-05-03T13:05:19Z</time>
      </trkpt>
      <trkpt lat="49.88453" lon="1.97371">
        <ele>109.8</ele>
        <time>2023-05-03T13:05:20Z</time>
      </trkpt>
      <trkpt lat="49.88452" lon="1.9737">
        <ele>109.8</ele>
        <time>2023-05-03T13:05:21Z</time>
      </trkpt>
      <trkpt lat="49.88452" lon="1.97368">
        <ele>109.9</ele>
        <time>2023-05-03T13:05:22Z</time>
      </trkpt>
      <trkpt lat="49.88451" lon="1.97365">
        <ele>109.9</ele>
        <time>2023-05-03T13:05:23Z</time>
      </trkpt>
      <trkpt lat="49.88451" lon="1.97364">
        <ele>109.9</ele>
        <time>2023-05-03T13:05:24Z</time>
      </trkpt>
      <trkpt lat="49.8845" lon="1.97363">
        <ele>109.9</ele>
        <time>2023-05-03T13:05:25Z</time>
      </trkpt>
      <trkpt lat="49.8845" lon="1.97361">
        <ele>110</ele>
        <time>2023-05-03T13:05:27Z</time>
      </trkpt>
      <trkpt lat="49.88449" lon="1.97359">
        <ele>110</ele>
        <time>2023-05-03T13:05:28Z</time>
      </trkpt>
      <trkpt lat="49.88449" lon="1.97357">
        <ele>110</ele>
        <time>2023-05-03T13:05:29Z</time>
      </trkpt>
      <trkpt lat="49.88449" lon="1.97356">
        <ele>110</ele>
        <time>2023-05-03T13:05:30Z</time>
      </trkpt>
      <trkpt lat="49.88448" lon="1.97354">
        <ele>110</ele>
        <time>2023-05-03T13:05:31Z</time>
      </trkpt>
      <trkpt lat="49.88448" lon="1.97352">
        <ele>110.1</ele>
        <time>2023-05-03T13:05:32Z</time>
      </trkpt>
      <trkpt lat="49.88448" lon="1.97349">
        <ele>110.1</ele>
        <time>2023-05-03T13:05:34Z</time>
      </trkpt>
      <trkpt lat="49.88447" lon="1.97348">
        <ele>110.1</ele>
        <time>2023-05-03T13:05:35Z</time>
      </trkpt>
      <trkpt lat="49.88447" lon="1.97344">
        <ele>110.2</ele>
        <time>2023-05-03T13:05:37Z</time>
      </trkpt>
      <trkpt lat="49.88447" lon="1.97343">
        <ele>110.2</ele>
        <time>2023-05-03T13:05:38Z</time>
      </trkpt>
      <trkpt lat="49.88446" lon="1.97342">
        <ele>110.2</ele>
        <time>2023-05-03T13:05:39Z</time>
      </trkpt>
      <trkpt lat="49.88446" lon="1.9734">
        <ele>110.2</ele>
        <time>2023-05-03T13:05:40Z</time>
      </trkpt>
      <trkpt lat="49.88446" lon="1.97339">
        <ele>110.2</ele>
        <time>2023-05-03T13:05:41Z</time>
      </trkpt>
      <trkpt lat="49.88446" lon="1.97338">
        <ele>110.3</ele>
        <time>2023-05-03T13:05:42Z</time>
      </trkpt>
      <trkpt lat="49.88446" lon="1.97336">
        <ele>110.3</ele>
        <time>2023-05-03T13:05:43Z</time>
      </trkpt>
      <trkpt lat="49.88446" lon="1.97335">
        <ele>110.3</ele>
        <time>2023-05-03T13:05:44Z</time>
      </trkpt>
      <trkpt lat="49.88446" lon="1.97333">
        <ele>110.3</ele>
        <time>2023-05-03T13:05:46Z</time>
      </trkpt>
      <trkpt lat="49.88445" lon="1.97332">
        <ele>110.3</ele>
        <time>2023-05-03T13:05:47Z</time>
      </trkpt>
      <trkpt lat="49.88445" lon="1.9733">
        <ele>110.4</ele>
        <time>2023-05-03T13:05:48Z</time>
      </trkpt>
      <trkpt lat="49.88445" lon="1.97328">
        <ele>110.4</ele>
        <time>2023-05-03T13:05:49Z</time>
      </trkpt>
      <trkpt lat="49.88445" lon="1.97325">
        <ele>110.4</ele>
        <time>2023-05-03T13:05:50Z</time>
      </trkpt>
      <trkpt lat="49.88446" lon="1.97324">
        <ele>110.5</ele>
        <time>2023-05-03T13:05:51Z</time>
      </trkpt>
      <trkpt lat="49.88446" lon="1.97322">
        <ele>110.5</ele>
        <time>2023-05-03T13:05:52Z</time>
      </trkpt>
      <trkpt lat="49.88447" lon="1.97318">
        <ele>110.5</ele>
        <time>2023-05-03T13:05:53Z</time>
      </trkpt>
      <trkpt lat="49.88447" lon="1.97317">
        <ele>110.6</ele>
        <time>2023-05-03T13:05:55Z</time>
      </trkpt>
      <trkpt lat="49.88447" lon="1.97315">
        <ele>110.6</ele>
        <time>2023-05-03T13:05:56Z</time>
      </trkpt>
      <trkpt lat="49.88448" lon="1.97314">
        <ele>110.6</ele>
        <time>2023-05-03T13:05:57Z</time>
      </trkpt>
      <trkpt lat="49.88448" lon="1.97312">
        <ele>110.6</ele>
        <time>2023-05-03T13:05:58Z</time>
      </trkpt>
      <trkpt lat="49.88449" lon="1.9731">
        <ele>110.7</ele>
        <time>2023-05-03T13:05:59Z</time>
      </trkpt>
      <trkpt lat="49.88449" lon="1.97308">
        <ele>110.7</ele>
        <time>2023-05-03T13:06:01Z</time>
      </trkpt>
      <trkpt lat="49.8845" lon="1.97306">
        <ele>110.8</ele>
        <time>2023-05-03T13:06:02Z</time>
      </trkpt>
      <trkpt lat="49.88451" lon="1.97304">
        <ele>110.8</ele>
        <time>2023-05-03T13:06:03Z</time>
      </trkpt>
      <trkpt lat="49.88452" lon="1.97301">
        <ele>110.9</ele>
        <time>2023-05-03T13:06:04Z</time>
      </trkpt>
      <trkpt lat="49.88453" lon="1.973">
        <ele>110.9</ele>
        <time>2023-05-03T13:06:05Z</time>
      </trkpt>
      <trkpt lat="49.88453" lon="1.97299">
        <ele>110.9</ele>
        <time>2023-05-03T13:06:06Z</time>
      </trkpt>
      <trkpt lat="49.88454" lon="1.97298">
        <ele>110.9</ele>
        <time>2023-05-03T13:06:07Z</time>
      </trkpt>
      <trkpt lat="49.88455" lon="1.97296">
        <ele>110.9</ele>
        <time>2023-05-03T13:06:08Z</time>
      </trkpt>
      <trkpt lat="49.88456" lon="1.97295">
        <ele>111</ele>
        <time>2023-05-03T13:06:10Z</time>
      </trkpt>
      <trkpt lat="49.88457" lon="1.97293">
        <ele>111</ele>
        <time>2023-05-03T13:06:11Z</time>
      </trkpt>
      <trkpt lat="49.88457" lon="1.97292">
        <ele>111</ele>
        <time>2023-05-03T13:06:12Z</time>
      </trkpt>
      <trkpt lat="49.88458" lon="1.9729">
        <ele>111.1</ele>
        <time>2023-05-03T13:06:13Z</time>
      </trkpt>
      <trkpt lat="49.88459" lon="1.97289">
        <ele>111.1</ele>
        <time>2023-05-03T13:06:14Z</time>
      </trkpt>
      <trkpt lat="49.8846" lon="1.97288">
        <ele>111.1</ele>
        <time>2023-05-03T13:06:15Z</time>
      </trkpt>
      <trkpt lat="49.8846" lon="1.97287">
        <ele>111.2</ele>
        <time>2023-05-03T13:06:16Z</time>
      </trkpt>
      <trkpt lat="49.88461" lon="1.97285">
        <ele>111.2</ele>
        <time>2023-05-03T13:06:18Z</time>
      </trkpt>
      <trkpt lat="49.88461" lon="1.97283">
        <ele>111.2</ele>
        <time>2023-05-03T13:06:19Z</time>
      </trkpt>
      <trkpt lat="49.88462" lon="1.97282">
        <ele>111.5</ele>
        <time>2023-05-03T13:06:20Z</time>
      </trkpt>
      <trkpt lat="49.88462" lon="1.97281">
        <ele>111.5</ele>
        <time>2023-05-03T13:06:21Z</time>
      </trkpt>
      <trkpt lat="49.88462" lon="1.9728">
        <ele>111.5</ele>
        <time>2023-05-03T13:06:22Z</time>
      </trkpt>
      <trkpt lat="49.88462" lon="1.97278">
        <ele>111.5</ele>
        <time>2023-05-03T13:06:24Z</time>
      </trkpt>
      <trkpt lat="49.88462" lon="1.97277">
        <ele>111.5</ele>
        <time>2023-05-03T13:06:25Z</time>
      </trkpt>
      <trkpt lat="49.88462" lon="1.97276">
        <ele>111.5</ele>
        <time>2023-05-03T13:06:27Z</time>
      </trkpt>
      <trkpt lat="49.88462" lon="1.97275">
        <ele>111.5</ele>
        <time>2023-05-03T13:06:29Z</time>
      </trkpt>
      <trkpt lat="49.88462" lon="1.97274">
        <ele>111.5</ele>
        <time>2023-05-03T13:06:30Z</time>
      </trkpt>
      <trkpt lat="49.88462" lon="1.97274">
        <ele>111.5</ele>
        <time>2023-05-03T13:06:31Z</time>
      </trkpt>
      <trkpt lat="49.88461" lon="1.97274">
        <ele>111.6</ele>
        <time>2023-05-03T13:06:32Z</time>
      </trkpt>
      <trkpt lat="49.88461" lon="1.97274">
        <ele>111.6</ele>
        <time>2023-05-03T13:06:33Z</time>
      </trkpt>
      <trkpt lat="49.8846" lon="1.97274">
        <ele>111.6</ele>
        <time>2023-05-03T13:06:35Z</time>
      </trkpt>
      <trkpt lat="49.88459" lon="1.97274">
        <ele>111.6</ele>
        <time>2023-05-03T13:06:36Z</time>
      </trkpt>
      <trkpt lat="49.88459" lon="1.97275">
        <ele>111.6</ele>
        <time>2023-05-03T13:06:37Z</time>
      </trkpt>
      <trkpt lat="49.88459" lon="1.97276">
        <ele>111.6</ele>
        <time>2023-05-03T13:06:39Z</time>
      </trkpt>
      <trkpt lat="49.88459" lon="1.97277">
        <ele>111.6</ele>
        <time>2023-05-03T13:06:40Z</time>
      </trkpt>
      <trkpt lat="49.88459" lon="1.97277">
        <ele>111.6</ele>
        <time>2023-05-03T13:06:41Z</time>
      </trkpt>
      <trkpt lat="49.88459" lon="1.97278">
        <ele>111.6</ele>
        <time>2023-05-03T13:06:43Z</time>
      </trkpt>
      <trkpt lat="49.88459" lon="1.97278">
        <ele>111.6</ele>
        <time>2023-05-03T13:06:44Z</time>
      </trkpt>
      <trkpt lat="49.88459" lon="1.97278">
        <ele>111.6</ele>
        <time>2023-05-03T13:06:45Z</time>
      </trkpt>
      <trkpt lat="49.88459" lon="1.97278">
        <ele>111.6</ele>
        <time>2023-05-03T13:06:47Z</time>
      </trkpt>
      <trkpt lat="49.88459" lon="1.97278">
        <ele>111.6</ele>
        <time>2023-05-03T13:06:48Z</time>
      </trkpt>
      <trkpt lat="49.88459" lon="1.97279">
        <ele>111.6</ele>
        <time>2023-05-03T13:06:49Z</time>
      </trkpt>
      <trkpt lat="49.88459" lon="1.97279">
        <ele>111.6</ele>
        <time>2023-05-03T13:06:51Z</time>
      </trkpt>
      <trkpt lat="49.88459" lon="1.97279">
        <ele>111.6</ele>
        <time>2023-05-03T13:06:52Z</time>
      </trkpt>
      <trkpt lat="49.88459" lon="1.97278">
        <ele>111.6</ele>
        <time>2023-05-03T13:06:53Z</time>
      </trkpt>
      <trkpt lat="49.88459" lon="1.97278">
        <ele>111.6</ele>
        <time>2023-05-03T13:06:54Z</time>
      </trkpt>
      <trkpt lat="49.88459" lon="1.97278">
        <ele>111.6</ele>
        <time>2023-05-03T13:06:55Z</time>
      </trkpt>
      <trkpt lat="49.88459" lon="1.97278">
        <ele>111.6</ele>
        <time>2023-05-03T13:06:56Z</time>
      </trkpt>
      <trkpt lat="49.88459" lon="1.97278">
        <ele>111.6</ele>
        <time>2023-05-03T13:06:57Z</time>
      </trkpt>
      <trkpt lat="49.88459" lon="1.97278">
        <ele>111.6</ele>
        <time>2023-05-03T13:06:58Z</time>
      </trkpt>
      <trkpt lat="49.88459" lon="1.97278">
        <ele>111.6</ele>
        <time>2023-05-03T13:06:59Z</time>
      </trkpt>
      <trkpt lat="49.88459" lon="1.97278">
        <ele>111.6</ele>
        <time>2023-05-03T13:07:00Z</time>
      </trkpt>
      <trkpt lat="49.88459" lon="1.97278">
        <ele>111.6</ele>
        <time>2023-05-03T13:07:01Z</time>
      </trkpt>
      <trkpt lat="49.88459" lon="1.97278">
        <ele>111.6</ele>
        <time>2023-05-03T13:07:02Z</time>
      </trkpt>
      <trkpt lat="49.88459" lon="1.97278">
        <ele>111.6</ele>
        <time>2023-05-03T13:07:03Z</time>
      </trkpt>
      <trkpt lat="49.88459" lon="1.97278">
        <ele>111.6</ele>
        <time>2023-05-03T13:07:04Z</time>
      </trkpt>
      <trkpt lat="49.88459" lon="1.97278">
        <ele>111.6</ele>
        <time>2023-05-03T13:07:05Z</time>
      </trkpt>
      <trkpt lat="49.88459" lon="1.97278">
        <ele>111.6</ele>
        <time>2023-05-03T13:07:06Z</time>
      </trkpt>
      <trkpt lat="49.88459" lon="1.97278">
        <ele>111.6</ele>
        <time>2023-05-03T13:07:07Z</time>
      </trkpt>
      <trkpt lat="49.88459" lon="1.97278">
        <ele>111.6</ele>
        <time>2023-05-03T13:07:08Z</time>
      </trkpt>
      <trkpt lat="49.88459" lon="1.97278">
        <ele>111.6</ele>
        <time>2023-05-03T13:07:09Z</time>
      </trkpt>
      <trkpt lat="49.88459" lon="1.97278">
        <ele>111.6</ele>
        <time>2023-05-03T13:07:10Z</time>
      </trkpt>
      <trkpt lat="49.88459" lon="1.97278">
        <ele>111.6</ele>
        <time>2023-05-03T13:07:11Z</time>
      </trkpt>
      <trkpt lat="49.88459" lon="1.97278">
        <ele>111.6</ele>
        <time>2023-05-03T13:07:12Z</time>
      </trkpt>
      <trkpt lat="49.88459" lon="1.97278">
        <ele>111.6</ele>
        <time>2023-05-03T13:07:13Z</time>
      </trkpt>
      <trkpt lat="49.88459" lon="1.97278">
        <ele>111.6</ele>
        <time>2023-05-03T13:07:14Z</time>
      </trkpt>
      <trkpt lat="49.88459" lon="1.97278">
        <ele>111.6</ele>
        <time>2023-05-03T13:07:15Z</time>
      </trkpt>
      <trkpt lat="49.88459" lon="1.97278">
        <ele>111.6</ele>
        <time>2023-05-03T13:07:16Z</time>
      </trkpt>
      <trkpt lat="49.88459" lon="1.97278">
        <ele>111.6</ele>
        <time>2023-05-03T13:07:17Z</time>
      </trkpt>
      <trkpt lat="49.88459" lon="1.97278">
        <ele>111.6</ele>
        <time>2023-05-03T13:07:18Z</time>
      </trkpt>
      <trkpt lat="49.88459" lon="1.97278">
        <ele>111.6</ele>
        <time>2023-05-03T13:07:19Z</time>
      </trkpt>
      <trkpt lat="49.88459" lon="1.97278">
        <ele>111.6</ele>
        <time>2023-05-03T13:07:20Z</time>
      </trkpt>
      <trkpt lat="49.88459" lon="1.97278">
        <ele>111.6</ele>
        <time>2023-05-03T13:07:21Z</time>
      </trkpt>
      <trkpt lat="49.88459" lon="1.97278">
        <ele>111.6</ele>
        <time>2023-05-03T13:07:22Z</time>
      </trkpt>
      <trkpt lat="49.88459" lon="1.97278">
        <ele>111.6</ele>
        <time>2023-05-03T13:07:23Z</time>
      </trkpt>
      <trkpt lat="49.88459" lon="1.97278">
        <ele>111.6</ele>
        <time>2023-05-03T13:07:24Z</time>
      </trkpt>
      <trkpt lat="49.88459" lon="1.97278">
        <ele>111.6</ele>
        <time>2023-05-03T13:07:25Z</time>
      </trkpt>
      <trkpt lat="49.88459" lon="1.97278">
        <ele>111.6</ele>
        <time>2023-05-03T13:07:26Z</time>
      </trkpt>
      <trkpt lat="49.88459" lon="1.97278">
        <ele>111.6</ele>
        <time>2023-05-03T13:07:27Z</time>
      </trkpt>
      <trkpt lat="49.88459" lon="1.97278">
        <ele>111.6</ele>
        <time>2023-05-03T13:07:28Z</time>
      </trkpt>
      <trkpt lat="49.88459" lon="1.97278">
        <ele>111.6</ele>
        <time>2023-05-03T13:07:29Z</time>
      </trkpt>
      <trkpt lat="49.88459" lon="1.97278">
        <ele>111.6</ele>
        <time>2023-05-03T13:07:30Z</time>
      </trkpt>
      <trkpt lat="49.88459" lon="1.97278">
        <ele>111.6</ele>
        <time>2023-05-03T13:07:31Z</time>
      </trkpt>
      <trkpt lat="49.88459" lon="1.97278">
        <ele>111.6</ele>
        <time>2023-05-03T13:07:32Z</time>
      </trkpt>
      <trkpt lat="49.88459" lon="1.97278">
        <ele>111.6</ele>
        <time>2023-05-03T13:07:33Z</time>
      </trkpt>
      <trkpt lat="49.88459" lon="1.97278">
        <ele>111.6</ele>
        <time>2023-05-03T13:07:34Z</time>
      </trkpt>
      <trkpt lat="49.88459" lon="1.97278">
        <ele>111.6</ele>
        <time>2023-05-03T13:07:35Z</time>
      </trkpt>
      <trkpt lat="49.88459" lon="1.97278">
        <ele>111.6</ele>
        <time>2023-05-03T13:07:36Z</time>
      </trkpt>
      <trkpt lat="49.88459" lon="1.97278">
        <ele>111.6</ele>
        <time>2023-05-03T13:07:37Z</time>
      </trkpt>
      <trkpt lat="49.88459" lon="1.97278">
        <ele>111.6</ele>
        <time>2023-05-03T13:07:38Z</time>
      </trkpt>
      <trkpt lat="49.88459" lon="1.97278">
        <ele>111.6</ele>
        <time>2023-05-03T13:07:39Z</time>
      </trkpt>
      <trkpt lat="49.88459" lon="1.97278">
        <ele>111.6</ele>
        <time>2023-05-03T13:07:40Z</time>
      </trkpt>
      <trkpt lat="49.88459" lon="1.97278">
        <ele>111.6</ele>
        <time>2023-05-03T13:07:41Z</time>
      </trkpt>
      <trkpt lat="49.88459" lon="1.97278">
        <ele>111.6</ele>
        <time>2023-05-03T13:07:42Z</time>
      </trkpt>
      <trkpt lat="49.88459" lon="1.97278">
        <ele>111.6</ele>
        <time>2023-05-03T13:07:43Z</time>
      </trkpt>
      <trkpt lat="49.88459" lon="1.97278">
        <ele>111.6</ele>
        <time>2023-05-03T13:07:44Z</time>
      </trkpt>
      <trkpt lat="49.88459" lon="1.97278">
        <ele>111.6</ele>
        <time>2023-05-03T13:07:45Z</time>
      </trkpt>
      <trkpt lat="49.88459" lon="1.97278">
        <ele>111.6</ele>
        <time>2023-05-03T13:07:46Z</time>
      </trkpt>
      <trkpt lat="49.88459" lon="1.97278">
        <ele>111.6</ele>
        <time>2023-05-03T13:07:47Z</time>
      </trkpt>
      <trkpt lat="49.88459" lon="1.97278">
        <ele>111.6</ele>
        <time>2023-05-03T13:07:48Z</time>
      </trkpt>
      <trkpt lat="49.88459" lon="1.97278">
        <ele>111.6</ele>
        <time>2023-05-03T13:07:49Z</time>
      </trkpt>
      <trkpt lat="49.88459" lon="1.97278">
        <ele>111.6</ele>
        <time>2023-05-03T13:07:50Z</time>
      </trkpt>
      <trkpt lat="49.88459" lon="1.97278">
        <ele>111.6</ele>
        <time>2023-05-03T13:07:51Z</time>
      </trkpt>
      <trkpt lat="49.88459" lon="1.97278">
        <ele>111.6</ele>
        <time>2023-05-03T13:07:52Z</time>
      </trkpt>
      <trkpt lat="49.88459" lon="1.97278">
        <ele>111.6</ele>
        <time>2023-05-03T13:07:53Z</time>
      </trkpt>
      <trkpt lat="49.88459" lon="1.97278">
        <ele>111.6</ele>
        <time>2023-05-03T13:07:54Z</time>
      </trkpt>
      <trkpt lat="49.88459" lon="1.97278">
        <ele>111.6</ele>
        <time>2023-05-03T13:07:55Z</time>
      </trkpt>
      <trkpt lat="49.88459" lon="1.97278">
        <ele>111.6</ele>
        <time>2023-05-03T13:07:56Z</time>
      </trkpt>
      <trkpt lat="49.88461" lon="1.97279">
        <ele>111.6</ele>
        <time>2023-05-03T13:07:57Z</time>
      </trkpt>
      <trkpt lat="49.88461" lon="1.97279">
        <ele>111.6</ele>
        <time>2023-05-03T13:07:58Z</time>
      </trkpt>
      <trkpt lat="49.88462" lon="1.9728">
        <ele>111.7</ele>
        <time>2023-05-03T13:07:59Z</time>
      </trkpt>
      <trkpt lat="49.88462" lon="1.9728">
        <ele>111.7</ele>
        <time>2023-05-03T13:08:00Z</time>
      </trkpt>
      <trkpt lat="49.88462" lon="1.9728">
        <ele>111.7</ele>
        <time>2023-05-03T13:08:01Z</time>
      </trkpt>
      <trkpt lat="49.88462" lon="1.9728">
        <ele>111.7</ele>
        <time>2023-05-03T13:08:02Z</time>
      </trkpt>
      <trkpt lat="49.88462" lon="1.9728">
        <ele>111.7</ele>
        <time>2023-05-03T13:08:03Z</time>
      </trkpt>
      <trkpt lat="49.88462" lon="1.9728">
        <ele>111.7</ele>
        <time>2023-05-03T13:08:04Z</time>
      </trkpt>
      <trkpt lat="49.88462" lon="1.9728">
        <ele>111.7</ele>
        <time>2023-05-03T13:08:05Z</time>
      </trkpt>
      <trkpt lat="49.88462" lon="1.97279">
        <ele>111.7</ele>
        <time>2023-05-03T13:08:06Z</time>
      </trkpt>
      <trkpt lat="49.88462" lon="1.97279">
        <ele>111.7</ele>
        <time>2023-05-03T13:08:07Z</time>
      </trkpt>
      <trkpt lat="49.88462" lon="1.97279">
        <ele>111.7</ele>
        <time>2023-05-03T13:08:08Z</time>
      </trkpt>
      <trkpt lat="49.88462" lon="1.97279">
        <ele>111.7</ele>
        <time>2023-05-03T13:08:09Z</time>
      </trkpt>
      <trkpt lat="49.88462" lon="1.97279">
        <ele>111.7</ele>
        <time>2023-05-03T13:08:10Z</time>
      </trkpt>
      <trkpt lat="49.88462" lon="1.97279">
        <ele>111.7</ele>
        <time>2023-05-03T13:08:11Z</time>
      </trkpt>
      <trkpt lat="49.88462" lon="1.97279">
        <ele>111.7</ele>
        <time>2023-05-03T13:08:12Z</time>
      </trkpt>
      <trkpt lat="49.88462" lon="1.97279">
        <ele>111.7</ele>
        <time>2023-05-03T13:08:13Z</time>
      </trkpt>
      <trkpt lat="49.88462" lon="1.97279">
        <ele>111.7</ele>
        <time>2023-05-03T13:08:14Z</time>
      </trkpt>
      <trkpt lat="49.88462" lon="1.97279">
        <ele>111.7</ele>
        <time>2023-05-03T13:08:15Z</time>
      </trkpt>
      <trkpt lat="49.88462" lon="1.97279">
        <ele>111.7</ele>
        <time>2023-05-03T13:08:16Z</time>
      </trkpt>
      <trkpt lat="49.88462" lon="1.97279">
        <ele>111.7</ele>
        <time>2023-05-03T13:08:17Z</time>
      </trkpt>
      <trkpt lat="49.88462" lon="1.97278">
        <ele>111.7</ele>
        <time>2023-05-03T13:08:18Z</time>
      </trkpt>
      <trkpt lat="49.88462" lon="1.97278">
        <ele>111.7</ele>
        <time>2023-05-03T13:08:19Z</time>
      </trkpt>
      <trkpt lat="49.88462" lon="1.97278">
        <ele>111.7</ele>
        <time>2023-05-03T13:08:20Z</time>
      </trkpt>
      <trkpt lat="49.88462" lon="1.97278">
        <ele>111.7</ele>
        <time>2023-05-03T13:08:21Z</time>
      </trkpt>
      <trkpt lat="49.88462" lon="1.97278">
        <ele>111.7</ele>
        <time>2023-05-03T13:08:22Z</time>
      </trkpt>
      <trkpt lat="49.88462" lon="1.97278">
        <ele>111.7</ele>
        <time>2023-05-03T13:08:23Z</time>
      </trkpt>
      <trkpt lat="49.88462" lon="1.97278">
        <ele>111.7</ele>
        <time>2023-05-03T13:08:24Z</time>
      </trkpt>
      <trkpt lat="49.88462" lon="1.97278">
        <ele>111.7</ele>
        <time>2023-05-03T13:08:25Z</time>
      </trkpt>
      <trkpt lat="49.88462" lon="1.97278">
        <ele>111.7</ele>
        <time>2023-05-03T13:08:26Z</time>
      </trkpt>
      <trkpt lat="49.88462" lon="1.97278">
        <ele>111.7</ele>
        <time>2023-05-03T13:08:27Z</time>
      </trkpt>
      <trkpt lat="49.88462" lon="1.97278">
        <ele>111.7</ele>
        <time>2023-05-03T13:08:28Z</time>
      </trkpt>
      <trkpt lat="49.88462" lon="1.97278">
        <ele>111.7</ele>
        <time>2023-05-03T13:08:29Z</time>
      </trkpt>
      <trkpt lat="49.88462" lon="1.97277">
        <ele>111.7</ele>
        <time>2023-05-03T13:08:30Z</time>
      </trkpt>
      <trkpt lat="49.88462" lon="1.97277">
        <ele>111.7</ele>
        <time>2023-05-03T13:08:31Z</time>
      </trkpt>
      <trkpt lat="49.88462" lon="1.97277">
        <ele>111.7</ele>
        <time>2023-05-03T13:08:32Z</time>
      </trkpt>
      <trkpt lat="49.88462" lon="1.97277">
        <ele>111.7</ele>
        <time>2023-05-03T13:08:33Z</time>
      </trkpt>
      <trkpt lat="49.88462" lon="1.97277">
        <ele>111.7</ele>
        <time>2023-05-03T13:08:34Z</time>
      </trkpt>
      <trkpt lat="49.88462" lon="1.97277">
        <ele>111.7</ele>
        <time>2023-05-03T13:08:35Z</time>
      </trkpt>
      <trkpt lat="49.88462" lon="1.97277">
        <ele>111.7</ele>
        <time>2023-05-03T13:08:36Z</time>
      </trkpt>
      <trkpt lat="49.88462" lon="1.97277">
        <ele>111.7</ele>
        <time>2023-05-03T13:08:37Z</time>
      </trkpt>
      <trkpt lat="49.88462" lon="1.97277">
        <ele>111.7</ele>
        <time>2023-05-03T13:08:38Z</time>
      </trkpt>
      <trkpt lat="49.88462" lon="1.97277">
        <ele>111.7</ele>
        <time>2023-05-03T13:08:39Z</time>
      </trkpt>
      <trkpt lat="49.88462" lon="1.97277">
        <ele>111.7</ele>
        <time>2023-05-03T13:08:40Z</time>
      </trkpt>
      <trkpt lat="49.88462" lon="1.97277">
        <ele>111.7</ele>
        <time>2023-05-03T13:08:41Z</time>
      </trkpt>
      <trkpt lat="49.88462" lon="1.97277">
        <ele>111.7</ele>
        <time>2023-05-03T13:08:42Z</time>
      </trkpt>
      <trkpt lat="49.88462" lon="1.97276">
        <ele>111.7</ele>
        <time>2023-05-03T13:08:43Z</time>
      </trkpt>
      <trkpt lat="49.88462" lon="1.97276">
        <ele>111.7</ele>
        <time>2023-05-03T13:08:44Z</time>
      </trkpt>
      <trkpt lat="49.88462" lon="1.97276">
        <ele>111.7</ele>
        <time>2023-05-03T13:08:45Z</time>
      </trkpt>
      <trkpt lat="49.88462" lon="1.97276">
        <ele>111.7</ele>
        <time>2023-05-03T13:08:46Z</time>
      </trkpt>
      <trkpt lat="49.88462" lon="1.97276">
        <ele>111.7</ele>
        <time>2023-05-03T13:08:47Z</time>
      </trkpt>
      <trkpt lat="49.88462" lon="1.97276">
        <ele>111.7</ele>
        <time>2023-05-03T13:08:48Z</time>
      </trkpt>
      <trkpt lat="49.88462" lon="1.97276">
        <ele>111.7</ele>
        <time>2023-05-03T13:08:49Z</time>
      </trkpt>
      <trkpt lat="49.88462" lon="1.97276">
        <ele>111.7</ele>
        <time>2023-05-03T13:08:50Z</time>
      </trkpt>
      <trkpt lat="49.88462" lon="1.97276">
        <ele>111.7</ele>
        <time>2023-05-03T13:08:51Z</time>
      </trkpt>
      <trkpt lat="49.88462" lon="1.97276">
        <ele>111.7</ele>
        <time>2023-05-03T13:08:52Z</time>
      </trkpt>
      <trkpt lat="49.88462" lon="1.97276">
        <ele>111.7</ele>
        <time>2023-05-03T13:08:53Z</time>
      </trkpt>
      <trkpt lat="49.88462" lon="1.97276">
        <ele>111.7</ele>
        <time>2023-05-03T13:08:54Z</time>
      </trkpt>
      <trkpt lat="49.88462" lon="1.97275">
        <ele>111.7</ele>
        <time>2023-05-03T13:08:55Z</time>
      </trkpt>
      <trkpt lat="49.88462" lon="1.97275">
        <ele>111.7</ele>
        <time>2023-05-03T13:08:56Z</time>
      </trkpt>
      <trkpt lat="49.88462" lon="1.97275">
        <ele>111.7</ele>
        <time>2023-05-03T13:08:57Z</time>
      </trkpt>
      <trkpt lat="49.88462" lon="1.97275">
        <ele>111.7</ele>
        <time>2023-05-03T13:08:58Z</time>
      </trkpt>
      <trkpt lat="49.88462" lon="1.97275">
        <ele>111.7</ele>
        <time>2023-05-03T13:08:59Z</time>
      </trkpt>
      <trkpt lat="49.88462" lon="1.97275">
        <ele>111.7</ele>
        <time>2023-05-03T13:09:00Z</time>
      </trkpt>
      <trkpt lat="49.88462" lon="1.97275">
        <ele>111.7</ele>
        <time>2023-05-03T13:09:01Z</time>
      </trkpt>
      <trkpt lat="49.88462" lon="1.97275">
        <ele>111.7</ele>
        <time>2023-05-03T13:09:02Z</time>
      </trkpt>
      <trkpt lat="49.88462" lon="1.97275">
        <ele>111.7</ele>
        <time>2023-05-03T13:09:03Z</time>
      </trkpt>
      <trkpt lat="49.88462" lon="1.97275">
        <ele>111.7</ele>
        <time>2023-05-03T13:09:04Z</time>
      </trkpt>
      <trkpt lat="49.88462" lon="1.97275">
        <ele>111.7</ele>
        <time>2023-05-03T13:09:05Z</time>
      </trkpt>
      <trkpt lat="49.88462" lon="1.97275">
        <ele>111.7</ele>
        <time>2023-05-03T13:09:06Z</time>
      </trkpt>
      <trkpt lat="49.88462" lon="1.97274">
        <ele>111.7</ele>
        <time>2023-05-03T13:09:07Z</time>
      </trkpt>
      <trkpt lat="49.88462" lon="1.97274">
        <ele>111.7</ele>
        <time>2023-05-03T13:09:08Z</time>
      </trkpt>
      <trkpt lat="49.88462" lon="1.97274">
        <ele>111.7</ele>
        <time>2023-05-03T13:09:09Z</time>
      </trkpt>
      <trkpt lat="49.88462" lon="1.97274">
        <ele>111.7</ele>
        <time>2023-05-03T13:09:10Z</time>
      </trkpt>
      <trkpt lat="49.88462" lon="1.97274">
        <ele>111.7</ele>
        <time>2023-05-03T13:09:11Z</time>
      </trkpt>
      <trkpt lat="49.88462" lon="1.97274">
        <ele>111.7</ele>
        <time>2023-05-03T13:09:12Z</time>
      </trkpt>
      <trkpt lat="49.88462" lon="1.97274">
        <ele>111.7</ele>
        <time>2023-05-03T13:09:13Z</time>
      </trkpt>
      <trkpt lat="49.88462" lon="1.97274">
        <ele>111.7</ele>
        <time>2023-05-03T13:09:14Z</time>
      </trkpt>
      <trkpt lat="49.88462" lon="1.97274">
        <ele>111.7</ele>
        <time>2023-05-03T13:09:15Z</time>
      </trkpt>
      <trkpt lat="49.88462" lon="1.97274">
        <ele>111.7</ele>
        <time>2023-05-03T13:09:16Z</time>
      </trkpt>
      <trkpt lat="49.88462" lon="1.97274">
        <ele>111.7</ele>
        <time>2023-05-03T13:09:17Z</time>
      </trkpt>
      <trkpt lat="49.88462" lon="1.97274">
        <ele>111.7</ele>
        <time>2023-05-03T13:09:18Z</time>
      </trkpt>
      <trkpt lat="49.88462" lon="1.97274">
        <ele>111.7</ele>
        <time>2023-05-03T13:09:19Z</time>
      </trkpt>
      <trkpt lat="49.88462" lon="1.97273">
        <ele>111.7</ele>
        <time>2023-05-03T13:09:20Z</time>
      </trkpt>
      <trkpt lat="49.88462" lon="1.97273">
        <ele>111.7</ele>
        <time>2023-05-03T13:09:21Z</time>
      </trkpt>
      <trkpt lat="49.88462" lon="1.97273">
        <ele>111.7</ele>
        <time>2023-05-03T13:09:22Z</time>
      </trkpt>
      <trkpt lat="49.88462" lon="1.97273">
        <ele>111.7</ele>
        <time>2023-05-03T13:09:23Z</time>
      </trkpt>
      <trkpt lat="49.88462" lon="1.97273">
        <ele>111.7</ele>
        <time>2023-05-03T13:09:24Z</time>
      </trkpt>
      <trkpt lat="49.88462" lon="1.97273">
        <ele>111.7</ele>
        <time>2023-05-03T13:09:25Z</time>
      </trkpt>
      <trkpt lat="49.88462" lon="1.97273">
        <ele>111.7</ele>
        <time>2023-05-03T13:09:26Z</time>
      </trkpt>
      <trkpt lat="49.88462" lon="1.97273">
        <ele>111.7</ele>
        <time>2023-05-03T13:09:27Z</time>
      </trkpt>
      <trkpt lat="49.88462" lon="1.97273">
        <ele>111.7</ele>
        <time>2023-05-03T13:09:28Z</time>
      </trkpt>
      <trkpt lat="49.88462" lon="1.97273">
        <ele>111.7</ele>
        <time>2023-05-03T13:09:29Z</time>
      </trkpt>
      <trkpt lat="49.88462" lon="1.97273">
        <ele>111.7</ele>
        <time>2023-05-03T13:09:30Z</time>
      </trkpt>
      <trkpt lat="49.88462" lon="1.9727">
        <ele>111.7</ele>
        <time>2023-05-03T13:09:31Z</time>
      </trkpt>
      <trkpt lat="49.88462" lon="1.97268">
        <ele>111.7</ele>
        <time>2023-05-03T13:09:32Z</time>
      </trkpt>
      <trkpt lat="49.88463" lon="1.97267">
        <ele>111.7</ele>
        <time>2023-05-03T13:09:33Z</time>
      </trkpt>
      <trkpt lat="49.88463" lon="1.97266">
        <ele>111.7</ele>
        <time>2023-05-03T13:09:35Z</time>
      </trkpt>
      <trkpt lat="49.88463" lon="1.97265">
        <ele>111.7</ele>
        <time>2023-05-03T13:09:36Z</time>
      </trkpt>
      <trkpt lat="49.88463" lon="1.97264">
        <ele>111.7</ele>
        <time>2023-05-03T13:09:37Z</time>
      </trkpt>
      <trkpt lat="49.88463" lon="1.97261">
        <ele>111.8</ele>
        <time>2023-05-03T13:09:39Z</time>
      </trkpt>
      <trkpt lat="49.88464" lon="1.97259">
        <ele>111.8</ele>
        <time>2023-05-03T13:09:40Z</time>
      </trkpt>
      <trkpt lat="49.88464" lon="1.97258">
        <ele>111.8</ele>
        <time>2023-05-03T13:09:41Z</time>
      </trkpt>
      <trkpt lat="49.88464" lon="1.97255">
        <ele>111.8</ele>
        <time>2023-05-03T13:09:42Z</time>
      </trkpt>
      <trkpt lat="49.88464" lon="1.97254">
        <ele>111.8</ele>
        <time>2023-05-03T13:09:43Z</time>
      </trkpt>
      <trkpt lat="49.88464" lon="1.97252">
        <ele>111.8</ele>
        <time>2023-05-03T13:09:45Z</time>
      </trkpt>
      <trkpt lat="49.88463" lon="1.97251">
        <ele>111.8</ele>
        <time>2023-05-03T13:09:46Z</time>
      </trkpt>
      <trkpt lat="49.88463" lon="1.97249">
        <ele>111.8</ele>
        <time>2023-05-03T13:09:47Z</time>
      </trkpt>
      <trkpt lat="49.88463" lon="1.97248">
        <ele>111.8</ele>
        <time>2023-05-03T13:09:48Z</time>
      </trkpt>
      <trkpt lat="49.88463" lon="1.97246">
        <ele>111.8</ele>
        <time>2023-05-03T13:09:49Z</time>
      </trkpt>
      <trkpt lat="49.88462" lon="1.97244">
        <ele>111.8</ele>
        <time>2023-05-03T13:09:51Z</time>
      </trkpt>
      <trkpt lat="49.88462" lon="1.97242">
        <ele>111.8</ele>
        <time>2023-05-03T13:09:52Z</time>
      </trkpt>
      <trkpt lat="49.88461" lon="1.9724">
        <ele>111.8</ele>
        <time>2023-05-03T13:09:53Z</time>
      </trkpt>
      <trkpt lat="49.88461" lon="1.97238">
        <ele>111.8</ele>
        <time>2023-05-03T13:09:54Z</time>
      </trkpt>
      <trkpt lat="49.88461" lon="1.97237">
        <ele>111.8</ele>
        <time>2023-05-03T13:09:55Z</time>
      </trkpt>
      <trkpt lat="49.8846" lon="1.97235">
        <ele>111.9</ele>
        <time>2023-05-03T13:09:56Z</time>
      </trkpt>
      <trkpt lat="49.8846" lon="1.97233">
        <ele>111.9</ele>
        <time>2023-05-03T13:09:57Z</time>
      </trkpt>
      <trkpt lat="49.88459" lon="1.97231">
        <ele>111.9</ele>
        <time>2023-05-03T13:09:59Z</time>
      </trkpt>
      <trkpt lat="49.88459" lon="1.97229">
        <ele>111.9</ele>
        <time>2023-05-03T13:10:01Z</time>
      </trkpt>
      <trkpt lat="49.88458" lon="1.97227">
        <ele>111.9</ele>
        <time>2023-05-03T13:10:02Z</time>
      </trkpt>
      <trkpt lat="49.88458" lon="1.97225">
        <ele>111.9</ele>
        <time>2023-05-03T13:10:03Z</time>
      </trkpt>
      <trkpt lat="49.88457" lon="1.97224">
        <ele>111.9</ele>
        <time>2023-05-03T13:10:04Z</time>
      </trkpt>
      <trkpt lat="49.88457" lon="1.97222">
        <ele>111.9</ele>
        <time>2023-05-03T13:10:05Z</time>
      </trkpt>
      <trkpt lat="49.88457" lon="1.9722">
        <ele>111.9</ele>
        <time>2023-05-03T13:10:06Z</time>
      </trkpt>
      <trkpt lat="49.88456" lon="1.97219">
        <ele>111.9</ele>
        <time>2023-05-03T13:10:07Z</time>
      </trkpt>
      <trkpt lat="49.88455" lon="1.97216">
        <ele>111.9</ele>
        <time>2023-05-03T13:10:08Z</time>
      </trkpt>
      <trkpt lat="49.88455" lon="1.97214">
        <ele>111.9</ele>
        <time>2023-05-03T13:10:09Z</time>
      </trkpt>
      <trkpt lat="49.88455" lon="1.97213">
        <ele>111.9</ele>
        <time>2023-05-03T13:10:10Z</time>
      </trkpt>
      <trkpt lat="49.88454" lon="1.97211">
        <ele>111.9</ele>
        <time>2023-05-03T13:10:12Z</time>
      </trkpt>
      <trkpt lat="49.88454" lon="1.9721">
        <ele>111.9</ele>
        <time>2023-05-03T13:10:13Z</time>
      </trkpt>
      <trkpt lat="49.88453" lon="1.97209">
        <ele>111.9</ele>
        <time>2023-05-03T13:10:14Z</time>
      </trkpt>
      <trkpt lat="49.88452" lon="1.97207">
        <ele>111.9</ele>
        <time>2023-05-03T13:10:15Z</time>
      </trkpt>
      <trkpt lat="49.88452" lon="1.97205">
        <ele>111.9</ele>
        <time>2023-05-03T13:10:16Z</time>
      </trkpt>
      <trkpt lat="49.88451" lon="1.97203">
        <ele>111.9</ele>
        <time>2023-05-03T13:10:18Z</time>
      </trkpt>
      <trkpt lat="49.88451" lon="1.97201">
        <ele>111.9</ele>
        <time>2023-05-03T13:10:19Z</time>
      </trkpt>
      <trkpt lat="49.8845" lon="1.97198">
        <ele>111.9</ele>
        <time>2023-05-03T13:10:20Z</time>
      </trkpt>
      <trkpt lat="49.8845" lon="1.97196">
        <ele>111.9</ele>
        <time>2023-05-03T13:10:21Z</time>
      </trkpt>
      <trkpt lat="49.88449" lon="1.97194">
        <ele>111.9</ele>
        <time>2023-05-03T13:10:22Z</time>
      </trkpt>
      <trkpt lat="49.88449" lon="1.97191">
        <ele>111.9</ele>
        <time>2023-05-03T13:10:24Z</time>
      </trkpt>
      <trkpt lat="49.88448" lon="1.9719">
        <ele>111.9</ele>
        <time>2023-05-03T13:10:25Z</time>
      </trkpt>
      <trkpt lat="49.88448" lon="1.97189">
        <ele>111.9</ele>
        <time>2023-05-03T13:10:26Z</time>
      </trkpt>
      <trkpt lat="49.88448" lon="1.97185">
        <ele>111.9</ele>
        <time>2023-05-03T13:10:27Z</time>
      </trkpt>
      <trkpt lat="49.88448" lon="1.97184">
        <ele>111.9</ele>
        <time>2023-05-03T13:10:28Z</time>
      </trkpt>
      <trkpt lat="49.88448" lon="1.97183">
        <ele>111.9</ele>
        <time>2023-05-03T13:10:29Z</time>
      </trkpt>
      <trkpt lat="49.88447" lon="1.97181">
        <ele>111.9</ele>
        <time>2023-05-03T13:10:30Z</time>
      </trkpt>
      <trkpt lat="49.88447" lon="1.97178">
        <ele>111.9</ele>
        <time>2023-05-03T13:10:32Z</time>
      </trkpt>
      <trkpt lat="49.88446" lon="1.97175">
        <ele>111.9</ele>
        <time>2023-05-03T13:10:33Z</time>
      </trkpt>
      <trkpt lat="49.88446" lon="1.97173">
        <ele>111.9</ele>
        <time>2023-05-03T13:10:34Z</time>
      </trkpt>
      <trkpt lat="49.88446" lon="1.97171">
        <ele>111.9</ele>
        <time>2023-05-03T13:10:35Z</time>
      </trkpt>
      <trkpt lat="49.88445" lon="1.97169">
        <ele>111.9</ele>
        <time>2023-05-03T13:10:36Z</time>
      </trkpt>
      <trkpt lat="49.88445" lon="1.97166">
        <ele>111.9</ele>
        <time>2023-05-03T13:10:37Z</time>
      </trkpt>
      <trkpt lat="49.88445" lon="1.97164">
        <ele>111.9</ele>
        <time>2023-05-03T13:10:39Z</time>
      </trkpt>
      <trkpt lat="49.88445" lon="1.97163">
        <ele>111.9</ele>
        <time>2023-05-03T13:10:40Z</time>
      </trkpt>
      <trkpt lat="49.88444" lon="1.97162">
        <ele>111.9</ele>
        <time>2023-05-03T13:10:41Z</time>
      </trkpt>
      <trkpt lat="49.88444" lon="1.9716">
        <ele>111.9</ele>
        <time>2023-05-03T13:10:42Z</time>
      </trkpt>
      <trkpt lat="49.88444" lon="1.97157">
        <ele>111.9</ele>
        <time>2023-05-03T13:10:44Z</time>
      </trkpt>
      <trkpt lat="49.88443" lon="1.97155">
        <ele>111.9</ele>
        <time>2023-05-03T13:10:45Z</time>
      </trkpt>
      <trkpt lat="49.88443" lon="1.97153">
        <ele>111.9</ele>
        <time>2023-05-03T13:10:46Z</time>
      </trkpt>
      <trkpt lat="49.88442" lon="1.97149">
        <ele>111.9</ele>
        <time>2023-05-03T13:10:48Z</time>
      </trkpt>
      <trkpt lat="49.88442" lon="1.97148">
        <ele>111.9</ele>
        <time>2023-05-03T13:10:49Z</time>
      </trkpt>
      <trkpt lat="49.88441" lon="1.97146">
        <ele>112</ele>
        <time>2023-05-03T13:10:50Z</time>
      </trkpt>
      <trkpt lat="49.88441" lon="1.97145">
        <ele>112</ele>
        <time>2023-05-03T13:10:51Z</time>
      </trkpt>
      <trkpt lat="49.8844" lon="1.97141">
        <ele>112</ele>
        <time>2023-05-03T13:10:52Z</time>
      </trkpt>
      <trkpt lat="49.88439" lon="1.9714">
        <ele>112</ele>
        <time>2023-05-03T13:10:54Z</time>
      </trkpt>
      <trkpt lat="49.88439" lon="1.97138">
        <ele>112</ele>
        <time>2023-05-03T13:10:55Z</time>
      </trkpt>
      <trkpt lat="49.88438" lon="1.97136">
        <ele>112</ele>
        <time>2023-05-03T13:10:56Z</time>
      </trkpt>
      <trkpt lat="49.88438" lon="1.97135">
        <ele>112</ele>
        <time>2023-05-03T13:10:57Z</time>
      </trkpt>
      <trkpt lat="49.88437" lon="1.97131">
        <ele>112</ele>
        <time>2023-05-03T13:10:58Z</time>
      </trkpt>
      <trkpt lat="49.88437" lon="1.9713">
        <ele>112</ele>
        <time>2023-05-03T13:11:00Z</time>
      </trkpt>
      <trkpt lat="49.88436" lon="1.97129">
        <ele>112</ele>
        <time>2023-05-03T13:11:01Z</time>
      </trkpt>
      <trkpt lat="49.88436" lon="1.97126">
        <ele>112</ele>
        <time>2023-05-03T13:11:02Z</time>
      </trkpt>
      <trkpt lat="49.88436" lon="1.97124">
        <ele>112</ele>
        <time>2023-05-03T13:11:03Z</time>
      </trkpt>
      <trkpt lat="49.88435" lon="1.97123">
        <ele>112</ele>
        <time>2023-05-03T13:11:04Z</time>
      </trkpt>
      <trkpt lat="49.88435" lon="1.9712">
        <ele>112</ele>
        <time>2023-05-03T13:11:06Z</time>
      </trkpt>
      <trkpt lat="49.88435" lon="1.97118">
        <ele>112</ele>
        <time>2023-05-03T13:11:07Z</time>
      </trkpt>
      <trkpt lat="49.88435" lon="1.97116">
        <ele>112</ele>
        <time>2023-05-03T13:11:08Z</time>
      </trkpt>
      <trkpt lat="49.88434" lon="1.97114">
        <ele>112</ele>
        <time>2023-05-03T13:11:09Z</time>
      </trkpt>
      <trkpt lat="49.88434" lon="1.97111">
        <ele>112</ele>
        <time>2023-05-03T13:11:11Z</time>
      </trkpt>
      <trkpt lat="49.88433" lon="1.97109">
        <ele>112</ele>
        <time>2023-05-03T13:11:12Z</time>
      </trkpt>
      <trkpt lat="49.88433" lon="1.97108">
        <ele>112.1</ele>
        <time>2023-05-03T13:11:13Z</time>
      </trkpt>
      <trkpt lat="49.88432" lon="1.97105">
        <ele>112.1</ele>
        <time>2023-05-03T13:11:14Z</time>
      </trkpt>
      <trkpt lat="49.88432" lon="1.97103">
        <ele>112.1</ele>
        <time>2023-05-03T13:11:15Z</time>
      </trkpt>
      <trkpt lat="49.88431" lon="1.97102">
        <ele>112.1</ele>
        <time>2023-05-03T13:11:17Z</time>
      </trkpt>
      <trkpt lat="49.88431" lon="1.971">
        <ele>112.1</ele>
        <time>2023-05-03T13:11:18Z</time>
      </trkpt>
      <trkpt lat="49.8843" lon="1.97099">
        <ele>112.1</ele>
        <time>2023-05-03T13:11:19Z</time>
      </trkpt>
      <trkpt lat="49.88429" lon="1.97097">
        <ele>112.1</ele>
        <time>2023-05-03T13:11:20Z</time>
      </trkpt>
      <trkpt lat="49.88429" lon="1.97096">
        <ele>112.1</ele>
        <time>2023-05-03T13:11:21Z</time>
      </trkpt>
      <trkpt lat="49.88428" lon="1.97094">
        <ele>112.1</ele>
        <time>2023-05-03T13:11:22Z</time>
      </trkpt>
      <trkpt lat="49.88428" lon="1.97093">
        <ele>112.1</ele>
        <time>2023-05-03T13:11:23Z</time>
      </trkpt>
      <trkpt lat="49.88427" lon="1.97091">
        <ele>112.1</ele>
        <time>2023-05-03T13:11:24Z</time>
      </trkpt>
      <trkpt lat="49.88427" lon="1.97089">
        <ele>112.1</ele>
        <time>2023-05-03T13:11:25Z</time>
      </trkpt>
      <trkpt lat="49.88426" lon="1.97086">
        <ele>112.2</ele>
        <time>2023-05-03T13:11:26Z</time>
      </trkpt>
      <trkpt lat="49.88425" lon="1.97085">
        <ele>112.2</ele>
        <time>2023-05-03T13:11:28Z</time>
      </trkpt>
      <trkpt lat="49.88425" lon="1.97083">
        <ele>112.2</ele>
        <time>2023-05-03T13:11:29Z</time>
      </trkpt>
      <trkpt lat="49.88424" lon="1.97081">
        <ele>112.2</ele>
        <time>2023-05-03T13:11:30Z</time>
      </trkpt>
      <trkpt lat="49.88424" lon="1.9708">
        <ele>112.2</ele>
        <time>2023-05-03T13:11:31Z</time>
      </trkpt>
      <trkpt lat="49.88424" lon="1.97078">
        <ele>112.2</ele>
        <time>2023-05-03T13:11:32Z</time>
      </trkpt>
      <trkpt lat="49.88423" lon="1.97076">
        <ele>112.3</ele>
        <time>2023-05-03T13:11:33Z</time>
      </trkpt>
      <trkpt lat="49.88423" lon="1.97074">
        <ele>112.3</ele>
        <time>2023-05-03T13:11:35Z</time>
      </trkpt>
      <trkpt lat="49.88422" lon="1.97071">
        <ele>112.3</ele>
        <time>2023-05-03T13:11:36Z</time>
      </trkpt>
      <trkpt lat="49.88422" lon="1.97069">
        <ele>112.3</ele>
        <time>2023-05-03T13:11:37Z</time>
      </trkpt>
      <trkpt lat="49.88422" lon="1.97068">
        <ele>112.4</ele>
        <time>2023-05-03T13:11:38Z</time>
      </trkpt>
      <trkpt lat="49.88421" lon="1.97065">
        <ele>112.4</ele>
        <time>2023-05-03T13:11:39Z</time>
      </trkpt>
      <trkpt lat="49.88421" lon="1.97064">
        <ele>112.4</ele>
        <time>2023-05-03T13:11:40Z</time>
      </trkpt>
      <trkpt lat="49.8842" lon="1.97062">
        <ele>112.4</ele>
        <time>2023-05-03T13:11:41Z</time>
      </trkpt>
      <trkpt lat="49.8842" lon="1.9706">
        <ele>112.5</ele>
        <time>2023-05-03T13:11:42Z</time>
      </trkpt>
      <trkpt lat="49.8842" lon="1.97058">
        <ele>112.5</ele>
        <time>2023-05-03T13:11:43Z</time>
      </trkpt>
      <trkpt lat="49.88419" lon="1.97056">
        <ele>112.5</ele>
        <time>2023-05-03T13:11:44Z</time>
      </trkpt>
      <trkpt lat="49.88419" lon="1.97054">
        <ele>112.6</ele>
        <time>2023-05-03T13:11:45Z</time>
      </trkpt>
      <trkpt lat="49.88418" lon="1.9705">
        <ele>112.6</ele>
        <time>2023-05-03T13:11:46Z</time>
      </trkpt>
      <trkpt lat="49.88417" lon="1.97049">
        <ele>112.7</ele>
        <time>2023-05-03T13:11:48Z</time>
      </trkpt>
      <trkpt lat="49.88417" lon="1.97048">
        <ele>112.7</ele>
        <time>2023-05-03T13:11:49Z</time>
      </trkpt>
      <trkpt lat="49.88417" lon="1.97046">
        <ele>112.7</ele>
        <time>2023-05-03T13:11:50Z</time>
      </trkpt>
      <trkpt lat="49.88416" lon="1.97045">
        <ele>112.8</ele>
        <time>2023-05-03T13:11:51Z</time>
      </trkpt>
      <trkpt lat="49.88415" lon="1.97043">
        <ele>112.8</ele>
        <time>2023-05-03T13:11:52Z</time>
      </trkpt>
      <trkpt lat="49.88414" lon="1.97042">
        <ele>112.8</ele>
        <time>2023-05-03T13:11:53Z</time>
      </trkpt>
      <trkpt lat="49.88413" lon="1.97041">
        <ele>112.9</ele>
        <time>2023-05-03T13:11:54Z</time>
      </trkpt>
      <trkpt lat="49.88411" lon="1.9704">
        <ele>112.9</ele>
        <time>2023-05-03T13:11:55Z</time>
      </trkpt>
      <trkpt lat="49.8841" lon="1.97039">
        <ele>112.9</ele>
        <time>2023-05-03T13:11:56Z</time>
      </trkpt>
      <trkpt lat="49.88409" lon="1.97039">
        <ele>112.9</ele>
        <time>2023-05-03T13:11:57Z</time>
      </trkpt>
      <trkpt lat="49.88406" lon="1.97038">
        <ele>112.9</ele>
        <time>2023-05-03T13:11:58Z</time>
      </trkpt>
      <trkpt lat="49.88406" lon="1.97038">
        <ele>112.9</ele>
        <time>2023-05-03T13:12:00Z</time>
      </trkpt>
      <trkpt lat="49.88405" lon="1.97038">
        <ele>112.9</ele>
        <time>2023-05-03T13:12:01Z</time>
      </trkpt>
      <trkpt lat="49.88404" lon="1.97038">
        <ele>112.9</ele>
        <time>2023-05-03T13:12:02Z</time>
      </trkpt>
      <trkpt lat="49.88403" lon="1.97038">
        <ele>112.9</ele>
        <time>2023-05-03T13:12:03Z</time>
      </trkpt>
      <trkpt lat="49.88401" lon="1.97039">
        <ele>112.9</ele>
        <time>2023-05-03T13:12:05Z</time>
      </trkpt>
      <trkpt lat="49.88399" lon="1.97039">
        <ele>112.9</ele>
        <time>2023-05-03T13:12:06Z</time>
      </trkpt>
      <trkpt lat="49.88398" lon="1.97039">
        <ele>112.9</ele>
        <time>2023-05-03T13:12:07Z</time>
      </trkpt>
      <trkpt lat="49.88397" lon="1.9704">
        <ele>112.9</ele>
        <time>2023-05-03T13:12:08Z</time>
      </trkpt>
      <trkpt lat="49.88395" lon="1.9704">
        <ele>112.9</ele>
        <time>2023-05-03T13:12:10Z</time>
      </trkpt>
      <trkpt lat="49.88394" lon="1.9704">
        <ele>112.9</ele>
        <time>2023-05-03T13:12:11Z</time>
      </trkpt>
      <trkpt lat="49.88393" lon="1.97041">
        <ele>112.9</ele>
        <time>2023-05-03T13:12:12Z</time>
      </trkpt>
      <trkpt lat="49.88392" lon="1.97041">
        <ele>112.9</ele>
        <time>2023-05-03T13:12:14Z</time>
      </trkpt>
      <trkpt lat="49.88391" lon="1.97041">
        <ele>112.9</ele>
        <time>2023-05-03T13:12:15Z</time>
      </trkpt>
      <trkpt lat="49.88389" lon="1.97042">
        <ele>112.9</ele>
        <time>2023-05-03T13:12:16Z</time>
      </trkpt>
      <trkpt lat="49.88388" lon="1.97042">
        <ele>112.9</ele>
        <time>2023-05-03T13:12:17Z</time>
      </trkpt>
      <trkpt lat="49.88387" lon="1.97042">
        <ele>112.9</ele>
        <time>2023-05-03T13:12:18Z</time>
      </trkpt>
      <trkpt lat="49.88386" lon="1.97042">
        <ele>112.9</ele>
        <time>2023-05-03T13:12:19Z</time>
      </trkpt>
      <trkpt lat="49.88385" lon="1.97042">
        <ele>112.9</ele>
        <time>2023-05-03T13:12:20Z</time>
      </trkpt>
      <trkpt lat="49.88383" lon="1.97043">
        <ele>113</ele>
        <time>2023-05-03T13:12:21Z</time>
      </trkpt>
      <trkpt lat="49.88382" lon="1.97043">
        <ele>113</ele>
        <time>2023-05-03T13:12:22Z</time>
      </trkpt>
      <trkpt lat="49.88381" lon="1.97043">
        <ele>113</ele>
        <time>2023-05-03T13:12:23Z</time>
      </trkpt>
      <trkpt lat="49.8838" lon="1.97044">
        <ele>113</ele>
        <time>2023-05-03T13:12:25Z</time>
      </trkpt>
      <trkpt lat="49.88379" lon="1.97045">
        <ele>113</ele>
        <time>2023-05-03T13:12:26Z</time>
      </trkpt>
      <trkpt lat="49.88378" lon="1.97045">
        <ele>113</ele>
        <time>2023-05-03T13:12:27Z</time>
      </trkpt>
      <trkpt lat="49.88377" lon="1.97046">
        <ele>113</ele>
        <time>2023-05-03T13:12:28Z</time>
      </trkpt>
      <trkpt lat="49.88375" lon="1.97046">
        <ele>113</ele>
        <time>2023-05-03T13:12:29Z</time>
      </trkpt>
      <trkpt lat="49.88374" lon="1.97047">
        <ele>113</ele>
        <time>2023-05-03T13:12:31Z</time>
      </trkpt>
      <trkpt lat="49.88373" lon="1.97047">
        <ele>113</ele>
        <time>2023-05-03T13:12:32Z</time>
      </trkpt>
      <trkpt lat="49.88371" lon="1.97048">
        <ele>113</ele>
        <time>2023-05-03T13:12:33Z</time>
      </trkpt>
      <trkpt lat="49.88369" lon="1.97049">
        <ele>113.1</ele>
        <time>2023-05-03T13:12:34Z</time>
      </trkpt>
      <trkpt lat="49.88369" lon="1.9705">
        <ele>113.1</ele>
        <time>2023-05-03T13:12:35Z</time>
      </trkpt>
      <trkpt lat="49.88368" lon="1.9705">
        <ele>113.1</ele>
        <time>2023-05-03T13:12:36Z</time>
      </trkpt>
      <trkpt lat="49.88367" lon="1.97051">
        <ele>113.1</ele>
        <time>2023-05-03T13:12:37Z</time>
      </trkpt>
      <trkpt lat="49.88366" lon="1.97052">
        <ele>113.2</ele>
        <time>2023-05-03T13:12:38Z</time>
      </trkpt>
      <trkpt lat="49.88364" lon="1.97053">
        <ele>113.2</ele>
        <time>2023-05-03T13:12:40Z</time>
      </trkpt>
      <trkpt lat="49.88363" lon="1.97054">
        <ele>113.2</ele>
        <time>2023-05-03T13:12:41Z</time>
      </trkpt>
      <trkpt lat="49.88362" lon="1.97054">
        <ele>113.2</ele>
        <time>2023-05-03T13:12:42Z</time>
      </trkpt>
      <trkpt lat="49.8836" lon="1.97055">
        <ele>113.3</ele>
        <time>2023-05-03T13:12:44Z</time>
      </trkpt>
      <trkpt lat="49.88359" lon="1.97056">
        <ele>113.3</ele>
        <time>2023-05-03T13:12:45Z</time>
      </trkpt>
      <trkpt lat="49.88358" lon="1.97057">
        <ele>113.3</ele>
        <time>2023-05-03T13:12:46Z</time>
      </trkpt>
      <trkpt lat="49.88357" lon="1.97057">
        <ele>113.4</ele>
        <time>2023-05-03T13:12:47Z</time>
      </trkpt>
      <trkpt lat="49.88356" lon="1.97058">
        <ele>113.4</ele>
        <time>2023-05-03T13:12:48Z</time>
      </trkpt>
      <trkpt lat="49.88355" lon="1.97058">
        <ele>113.4</ele>
        <time>2023-05-03T13:12:49Z</time>
      </trkpt>
      <trkpt lat="49.88354" lon="1.97059">
        <ele>113.4</ele>
        <time>2023-05-03T13:12:51Z</time>
      </trkpt>
      <trkpt lat="49.88353" lon="1.97059">
        <ele>113.5</ele>
        <time>2023-05-03T13:12:52Z</time>
      </trkpt>
      <trkpt lat="49.88352" lon="1.9706">
        <ele>113.5</ele>
        <time>2023-05-03T13:12:53Z</time>
      </trkpt>
      <trkpt lat="49.88351" lon="1.9706">
        <ele>113.5</ele>
        <time>2023-05-03T13:12:54Z</time>
      </trkpt>
      <trkpt lat="49.88349" lon="1.97061">
        <ele>113.6</ele>
        <time>2023-05-03T13:12:55Z</time>
      </trkpt>
      <trkpt lat="49.88348" lon="1.97062">
        <ele>113.6</ele>
        <time>2023-05-03T13:12:57Z</time>
      </trkpt>
      <trkpt lat="49.88347" lon="1.97062">
        <ele>113.6</ele>
        <time>2023-05-03T13:12:58Z</time>
      </trkpt>
      <trkpt lat="49.88346" lon="1.97062">
        <ele>113.6</ele>
        <time>2023-05-03T13:12:59Z</time>
      </trkpt>
      <trkpt lat="49.88345" lon="1.97062">
        <ele>113.7</ele>
        <time>2023-05-03T13:13:00Z</time>
      </trkpt>
      <trkpt lat="49.88344" lon="1.97063">
        <ele>113.7</ele>
        <time>2023-05-03T13:13:01Z</time>
      </trkpt>
      <trkpt lat="49.88343" lon="1.97063">
        <ele>113.7</ele>
        <time>2023-05-03T13:13:02Z</time>
      </trkpt>
      <trkpt lat="49.88341" lon="1.97063">
        <ele>113.8</ele>
        <time>2023-05-03T13:13:03Z</time>
      </trkpt>
      <trkpt lat="49.8834" lon="1.97064">
        <ele>113.8</ele>
        <time>2023-05-03T13:13:04Z</time>
      </trkpt>
      <trkpt lat="49.88339" lon="1.97064">
        <ele>113.8</ele>
        <time>2023-05-03T13:13:06Z</time>
      </trkpt>
      <trkpt lat="49.88338" lon="1.97065">
        <ele>113.9</ele>
        <time>2023-05-03T13:13:07Z</time>
      </trkpt>
      <trkpt lat="49.88337" lon="1.97065">
        <ele>113.9</ele>
        <time>2023-05-03T13:13:08Z</time>
      </trkpt>
      <trkpt lat="49.88336" lon="1.97066">
        <ele>113.9</ele>
        <time>2023-05-03T13:13:09Z</time>
      </trkpt>
      <trkpt lat="49.88335" lon="1.97066">
        <ele>114</ele>
        <time>2023-05-03T13:13:10Z</time>
      </trkpt>
      <trkpt lat="49.88334" lon="1.97067">
        <ele>114</ele>
        <time>2023-05-03T13:13:11Z</time>
      </trkpt>
      <trkpt lat="49.88333" lon="1.97067">
        <ele>114</ele>
        <time>2023-05-03T13:13:12Z</time>
      </trkpt>
      <trkpt lat="49.88331" lon="1.97068">
        <ele>114.1</ele>
        <time>2023-05-03T13:13:13Z</time>
      </trkpt>
      <trkpt lat="49.8833" lon="1.97068">
        <ele>114.1</ele>
        <time>2023-05-03T13:13:14Z</time>
      </trkpt>
      <trkpt lat="49.88328" lon="1.97069">
        <ele>114.2</ele>
        <time>2023-05-03T13:13:15Z</time>
      </trkpt>
      <trkpt lat="49.88327" lon="1.9707">
        <ele>114.2</ele>
        <time>2023-05-03T13:13:17Z</time>
      </trkpt>
      <trkpt lat="49.88326" lon="1.9707">
        <ele>114.2</ele>
        <time>2023-05-03T13:13:18Z</time>
      </trkpt>
      <trkpt lat="49.88324" lon="1.97071">
        <ele>114.3</ele>
        <time>2023-05-03T13:13:19Z</time>
      </trkpt>
      <trkpt lat="49.88323" lon="1.97072">
        <ele>114.3</ele>
        <time>2023-05-03T13:13:20Z</time>
      </trkpt>
      <trkpt lat="49.88322" lon="1.97073">
        <ele>114.3</ele>
        <time>2023-05-03T13:13:21Z</time>
      </trkpt>
      <trkpt lat="49.88321" lon="1.97073">
        <ele>114.4</ele>
        <time>2023-05-03T13:13:22Z</time>
      </trkpt>
      <trkpt lat="49.8832" lon="1.97074">
        <ele>114.4</ele>
        <time>2023-05-03T13:13:23Z</time>
      </trkpt>
      <trkpt lat="49.88319" lon="1.97074">
        <ele>114.4</ele>
        <time>2023-05-03T13:13:24Z</time>
      </trkpt>
      <trkpt lat="49.88317" lon="1.97076">
        <ele>114.5</ele>
        <time>2023-05-03T13:13:25Z</time>
      </trkpt>
      <trkpt lat="49.88316" lon="1.97076">
        <ele>114.5</ele>
        <time>2023-05-03T13:13:26Z</time>
      </trkpt>
      <trkpt lat="49.88315" lon="1.97077">
        <ele>114.5</ele>
        <time>2023-05-03T13:13:27Z</time>
      </trkpt>
      <trkpt lat="49.88314" lon="1.97078">
        <ele>114.6</ele>
        <time>2023-05-03T13:13:28Z</time>
      </trkpt>
      <trkpt lat="49.88313" lon="1.97078">
        <ele>114.6</ele>
        <time>2023-05-03T13:13:29Z</time>
      </trkpt>
      <trkpt lat="49.88311" lon="1.97079">
        <ele>114.7</ele>
        <time>2023-05-03T13:13:31Z</time>
      </trkpt>
      <trkpt lat="49.8831" lon="1.97079">
        <ele>114.7</ele>
        <time>2023-05-03T13:13:32Z</time>
      </trkpt>
      <trkpt lat="49.88309" lon="1.9708">
        <ele>114.7</ele>
        <time>2023-05-03T13:13:33Z</time>
      </trkpt>
      <trkpt lat="49.88307" lon="1.97081">
        <ele>114.8</ele>
        <time>2023-05-03T13:13:34Z</time>
      </trkpt>
      <trkpt lat="49.88306" lon="1.97082">
        <ele>114.8</ele>
        <time>2023-05-03T13:13:35Z</time>
      </trkpt>
      <trkpt lat="49.88305" lon="1.97082">
        <ele>114.9</ele>
        <time>2023-05-03T13:13:36Z</time>
      </trkpt>
      <trkpt lat="49.88304" lon="1.97083">
        <ele>114.9</ele>
        <time>2023-05-03T13:13:37Z</time>
      </trkpt>
      <trkpt lat="49.88303" lon="1.97084">
        <ele>115</ele>
        <time>2023-05-03T13:13:38Z</time>
      </trkpt>
      <trkpt lat="49.88301" lon="1.97085">
        <ele>115</ele>
        <time>2023-05-03T13:13:40Z</time>
      </trkpt>
      <trkpt lat="49.88299" lon="1.97086">
        <ele>115.1</ele>
        <time>2023-05-03T13:13:41Z</time>
      </trkpt>
      <trkpt lat="49.88298" lon="1.97087">
        <ele>115.1</ele>
        <time>2023-05-03T13:13:42Z</time>
      </trkpt>
      <trkpt lat="49.88298" lon="1.97087">
        <ele>115.2</ele>
        <time>2023-05-03T13:13:43Z</time>
      </trkpt>
      <trkpt lat="49.88296" lon="1.97089">
        <ele>115.2</ele>
        <time>2023-05-03T13:13:44Z</time>
      </trkpt>
      <trkpt lat="49.88295" lon="1.9709">
        <ele>115.3</ele>
        <time>2023-05-03T13:13:45Z</time>
      </trkpt>
      <trkpt lat="49.88294" lon="1.9709">
        <ele>115.3</ele>
        <time>2023-05-03T13:13:46Z</time>
      </trkpt>
      <trkpt lat="49.88293" lon="1.97091">
        <ele>115.3</ele>
        <time>2023-05-03T13:13:48Z</time>
      </trkpt>
      <trkpt lat="49.88292" lon="1.97092">
        <ele>115.4</ele>
        <time>2023-05-03T13:13:49Z</time>
      </trkpt>
      <trkpt lat="49.88291" lon="1.97093">
        <ele>115.4</ele>
        <time>2023-05-03T13:13:50Z</time>
      </trkpt>
      <trkpt lat="49.8829" lon="1.97095">
        <ele>115.5</ele>
        <time>2023-05-03T13:13:51Z</time>
      </trkpt>
      <trkpt lat="49.88289" lon="1.97096">
        <ele>115.5</ele>
        <time>2023-05-03T13:13:52Z</time>
      </trkpt>
      <trkpt lat="49.88288" lon="1.97096">
        <ele>115.5</ele>
        <time>2023-05-03T13:13:53Z</time>
      </trkpt>
      <trkpt lat="49.88287" lon="1.97097">
        <ele>115.6</ele>
        <time>2023-05-03T13:13:54Z</time>
      </trkpt>
      <trkpt lat="49.88285" lon="1.97098">
        <ele>115.6</ele>
        <time>2023-05-03T13:13:56Z</time>
      </trkpt>
      <trkpt lat="49.88284" lon="1.97099">
        <ele>115.7</ele>
        <time>2023-05-03T13:13:57Z</time>
      </trkpt>
      <trkpt lat="49.88283" lon="1.97099">
        <ele>115.7</ele>
        <time>2023-05-03T13:13:58Z</time>
      </trkpt>
      <trkpt lat="49.88282" lon="1.971">
        <ele>115.7</ele>
        <time>2023-05-03T13:13:59Z</time>
      </trkpt>
      <trkpt lat="49.88281" lon="1.97101">
        <ele>115.8</ele>
        <time>2023-05-03T13:14:00Z</time>
      </trkpt>
      <trkpt lat="49.88279" lon="1.97102">
        <ele>115.8</ele>
        <time>2023-05-03T13:14:02Z</time>
      </trkpt>
      <trkpt lat="49.88278" lon="1.97103">
        <ele>115.9</ele>
        <time>2023-05-03T13:14:03Z</time>
      </trkpt>
      <trkpt lat="49.88276" lon="1.97104">
        <ele>115.9</ele>
        <time>2023-05-03T13:14:04Z</time>
      </trkpt>
      <trkpt lat="49.88275" lon="1.97105">
        <ele>116</ele>
        <time>2023-05-03T13:14:05Z</time>
      </trkpt>
      <trkpt lat="49.88274" lon="1.97106">
        <ele>116</ele>
        <time>2023-05-03T13:14:06Z</time>
      </trkpt>
      <trkpt lat="49.88273" lon="1.97106">
        <ele>116</ele>
        <time>2023-05-03T13:14:07Z</time>
      </trkpt>
      <trkpt lat="49.88271" lon="1.97107">
        <ele>116.1</ele>
        <time>2023-05-03T13:14:08Z</time>
      </trkpt>
      <trkpt lat="49.8827" lon="1.97108">
        <ele>116.1</ele>
        <time>2023-05-03T13:14:09Z</time>
      </trkpt>
      <trkpt lat="49.88269" lon="1.97109">
        <ele>116.2</ele>
        <time>2023-05-03T13:14:11Z</time>
      </trkpt>
      <trkpt lat="49.88268" lon="1.97109">
        <ele>116.2</ele>
        <time>2023-05-03T13:14:12Z</time>
      </trkpt>
      <trkpt lat="49.88267" lon="1.9711">
        <ele>116.2</ele>
        <time>2023-05-03T13:14:13Z</time>
      </trkpt>
      <trkpt lat="49.88265" lon="1.97111">
        <ele>116.2</ele>
        <time>2023-05-03T13:14:14Z</time>
      </trkpt>
      <trkpt lat="49.88264" lon="1.97111">
        <ele>116.3</ele>
        <time>2023-05-03T13:14:15Z</time>
      </trkpt>
      <trkpt lat="49.88263" lon="1.97112">
        <ele>116.3</ele>
        <time>2023-05-03T13:14:16Z</time>
      </trkpt>
      <trkpt lat="49.88262" lon="1.97112">
        <ele>116.3</ele>
        <time>2023-05-03T13:14:17Z</time>
      </trkpt>
      <trkpt lat="49.88261" lon="1.97113">
        <ele>116.3</ele>
        <time>2023-05-03T13:14:18Z</time>
      </trkpt>
      <trkpt lat="49.88259" lon="1.97114">
        <ele>116.4</ele>
        <time>2023-05-03T13:14:19Z</time>
      </trkpt>
      <trkpt lat="49.88258" lon="1.97114">
        <ele>116.4</ele>
        <time>2023-05-03T13:14:20Z</time>
      </trkpt>
      <trkpt lat="49.88258" lon="1.97115">
        <ele>116.4</ele>
        <time>2023-05-03T13:14:22Z</time>
      </trkpt>
      <trkpt lat="49.88257" lon="1.97116">
        <ele>116.4</ele>
        <time>2023-05-03T13:14:23Z</time>
      </trkpt>
      <trkpt lat="49.88256" lon="1.97116">
        <ele>116.5</ele>
        <time>2023-05-03T13:14:24Z</time>
      </trkpt>
      <trkpt lat="49.88255" lon="1.97117">
        <ele>116.5</ele>
        <time>2023-05-03T13:14:25Z</time>
      </trkpt>
      <trkpt lat="49.88254" lon="1.97117">
        <ele>116.5</ele>
        <time>2023-05-03T13:14:26Z</time>
      </trkpt>
      <trkpt lat="49.88253" lon="1.97118">
        <ele>116.5</ele>
        <time>2023-05-03T13:14:27Z</time>
      </trkpt>
      <trkpt lat="49.8825" lon="1.97119">
        <ele>116.6</ele>
        <time>2023-05-03T13:14:29Z</time>
      </trkpt>
      <trkpt lat="49.88248" lon="1.97119">
        <ele>116.6</ele>
        <time>2023-05-03T13:14:30Z</time>
      </trkpt>
      <trkpt lat="49.88248" lon="1.9712">
        <ele>116.6</ele>
        <time>2023-05-03T13:14:31Z</time>
      </trkpt>
      <trkpt lat="49.88247" lon="1.9712">
        <ele>116.6</ele>
        <time>2023-05-03T13:14:32Z</time>
      </trkpt>
      <trkpt lat="49.88246" lon="1.97121">
        <ele>116.7</ele>
        <time>2023-05-03T13:14:33Z</time>
      </trkpt>
      <trkpt lat="49.88244" lon="1.97122">
        <ele>116.7</ele>
        <time>2023-05-03T13:14:34Z</time>
      </trkpt>
      <trkpt lat="49.88242" lon="1.97122">
        <ele>116.7</ele>
        <time>2023-05-03T13:14:36Z</time>
      </trkpt>
      <trkpt lat="49.88241" lon="1.97123">
        <ele>116.7</ele>
        <time>2023-05-03T13:14:37Z</time>
      </trkpt>
      <trkpt lat="49.8824" lon="1.97123">
        <ele>116.8</ele>
        <time>2023-05-03T13:14:38Z</time>
      </trkpt>
      <trkpt lat="49.88238" lon="1.97124">
        <ele>116.8</ele>
        <time>2023-05-03T13:14:39Z</time>
      </trkpt>
      <trkpt lat="49.88237" lon="1.97124">
        <ele>116.8</ele>
        <time>2023-05-03T13:14:40Z</time>
      </trkpt>
      <trkpt lat="49.88236" lon="1.97125">
        <ele>116.8</ele>
        <time>2023-05-03T13:14:41Z</time>
      </trkpt>
      <trkpt lat="49.88235" lon="1.97126">
        <ele>116.9</ele>
        <time>2023-05-03T13:14:43Z</time>
      </trkpt>
      <trkpt lat="49.88233" lon="1.97127">
        <ele>116.9</ele>
        <time>2023-05-03T13:14:44Z</time>
      </trkpt>
      <trkpt lat="49.88232" lon="1.97128">
        <ele>116.9</ele>
        <time>2023-05-03T13:14:45Z</time>
      </trkpt>
      <trkpt lat="49.88229" lon="1.97129">
        <ele>116.9</ele>
        <time>2023-05-03T13:14:47Z</time>
      </trkpt>
      <trkpt lat="49.88228" lon="1.9713">
        <ele>116.9</ele>
        <time>2023-05-03T13:14:48Z</time>
      </trkpt>
      <trkpt lat="49.88226" lon="1.97131">
        <ele>117</ele>
        <time>2023-05-03T13:14:49Z</time>
      </trkpt>
      <trkpt lat="49.88224" lon="1.97131">
        <ele>117</ele>
        <time>2023-05-03T13:14:50Z</time>
      </trkpt>
      <trkpt lat="49.88223" lon="1.97131">
        <ele>117</ele>
        <time>2023-05-03T13:14:52Z</time>
      </trkpt>
      <trkpt lat="49.88222" lon="1.97132">
        <ele>117</ele>
        <time>2023-05-03T13:14:53Z</time>
      </trkpt>
      <trkpt lat="49.88221" lon="1.97132">
        <ele>117</ele>
        <time>2023-05-03T13:14:54Z</time>
      </trkpt>
      <trkpt lat="49.8822" lon="1.97132">
        <ele>117</ele>
        <time>2023-05-03T13:14:55Z</time>
      </trkpt>
      <trkpt lat="49.88219" lon="1.97133">
        <ele>117</ele>
        <time>2023-05-03T13:14:56Z</time>
      </trkpt>
      <trkpt lat="49.88217" lon="1.97133">
        <ele>117</ele>
        <time>2023-05-03T13:14:57Z</time>
      </trkpt>
      <trkpt lat="49.88216" lon="1.97133">
        <ele>117</ele>
        <time>2023-05-03T13:14:58Z</time>
      </trkpt>
      <trkpt lat="49.88214" lon="1.97133">
        <ele>117</ele>
        <time>2023-05-03T13:14:59Z</time>
      </trkpt>
      <trkpt lat="49.88211" lon="1.97134">
        <ele>117</ele>
        <time>2023-05-03T13:15:01Z</time>
      </trkpt>
      <trkpt lat="49.8821" lon="1.97134">
        <ele>117</ele>
        <time>2023-05-03T13:15:02Z</time>
      </trkpt>
      <trkpt lat="49.88209" lon="1.97135">
        <ele>117</ele>
        <time>2023-05-03T13:15:03Z</time>
      </trkpt>
      <trkpt lat="49.88207" lon="1.97135">
        <ele>117</ele>
        <time>2023-05-03T13:15:04Z</time>
      </trkpt>
      <trkpt lat="49.88205" lon="1.97135">
        <ele>117.1</ele>
        <time>2023-05-03T13:15:05Z</time>
      </trkpt>
      <trkpt lat="49.88204" lon="1.97135">
        <ele>117.1</ele>
        <time>2023-05-03T13:15:06Z</time>
      </trkpt>
      <trkpt lat="49.88202" lon="1.97135">
        <ele>117.1</ele>
        <time>2023-05-03T13:15:08Z</time>
      </trkpt>
      <trkpt lat="49.88201" lon="1.97135">
        <ele>117.1</ele>
        <time>2023-05-03T13:15:09Z</time>
      </trkpt>
      <trkpt lat="49.88199" lon="1.97135">
        <ele>117.1</ele>
        <time>2023-05-03T13:15:10Z</time>
      </trkpt>
      <trkpt lat="49.88198" lon="1.97135">
        <ele>117.1</ele>
        <time>2023-05-03T13:15:11Z</time>
      </trkpt>
      <trkpt lat="49.88196" lon="1.97135">
        <ele>117.1</ele>
        <time>2023-05-03T13:15:12Z</time>
      </trkpt>
      <trkpt lat="49.88194" lon="1.97135">
        <ele>117.1</ele>
        <time>2023-05-03T13:15:14Z</time>
      </trkpt>
      <trkpt lat="49.88192" lon="1.97135">
        <ele>117.1</ele>
        <time>2023-05-03T13:15:15Z</time>
      </trkpt>
      <trkpt lat="49.88191" lon="1.97134">
        <ele>117.1</ele>
        <time>2023-05-03T13:15:16Z</time>
      </trkpt>
      <trkpt lat="49.8819" lon="1.97133">
        <ele>117.1</ele>
        <time>2023-05-03T13:15:17Z</time>
      </trkpt>
      <trkpt lat="49.88188" lon="1.97133">
        <ele>117.1</ele>
        <time>2023-05-03T13:15:18Z</time>
      </trkpt>
      <trkpt lat="49.88187" lon="1.97132">
        <ele>117.1</ele>
        <time>2023-05-03T13:15:19Z</time>
      </trkpt>
      <trkpt lat="49.88186" lon="1.97132">
        <ele>117.1</ele>
        <time>2023-05-03T13:15:21Z</time>
      </trkpt>
      <trkpt lat="49.88185" lon="1.97131">
        <ele>117.1</ele>
        <time>2023-05-03T13:15:22Z</time>
      </trkpt>
      <trkpt lat="49.88184" lon="1.97131">
        <ele>117.1</ele>
        <time>2023-05-03T13:15:23Z</time>
      </trkpt>
      <trkpt lat="49.88183" lon="1.9713">
        <ele>117.1</ele>
        <time>2023-05-03T13:15:24Z</time>
      </trkpt>
      <trkpt lat="49.88182" lon="1.9713">
        <ele>117.1</ele>
        <time>2023-05-03T13:15:25Z</time>
      </trkpt>
      <trkpt lat="49.88181" lon="1.97129">
        <ele>117.1</ele>
        <time>2023-05-03T13:15:26Z</time>
      </trkpt>
      <trkpt lat="49.88179" lon="1.97128">
        <ele>117.1</ele>
        <time>2023-05-03T13:15:27Z</time>
      </trkpt>
      <trkpt lat="49.88178" lon="1.97128">
        <ele>117.1</ele>
        <time>2023-05-03T13:15:28Z</time>
      </trkpt>
      <trkpt lat="49.88177" lon="1.97128">
        <ele>117.1</ele>
        <time>2023-05-03T13:15:29Z</time>
      </trkpt>
      <trkpt lat="49.88176" lon="1.97127">
        <ele>117.1</ele>
        <time>2023-05-03T13:15:31Z</time>
      </trkpt>
      <trkpt lat="49.88174" lon="1.97126">
        <ele>117.1</ele>
        <time>2023-05-03T13:15:32Z</time>
      </trkpt>
      <trkpt lat="49.88172" lon="1.97126">
        <ele>117.1</ele>
        <time>2023-05-03T13:15:33Z</time>
      </trkpt>
      <trkpt lat="49.88171" lon="1.97126">
        <ele>117.1</ele>
        <time>2023-05-03T13:15:35Z</time>
      </trkpt>
      <trkpt lat="49.88169" lon="1.97126">
        <ele>117</ele>
        <time>2023-05-03T13:15:36Z</time>
      </trkpt>
      <trkpt lat="49.88167" lon="1.97127">
        <ele>117</ele>
        <time>2023-05-03T13:15:37Z</time>
      </trkpt>
      <trkpt lat="49.88166" lon="1.97127">
        <ele>117</ele>
        <time>2023-05-03T13:15:38Z</time>
      </trkpt>
      <trkpt lat="49.88165" lon="1.97127">
        <ele>117</ele>
        <time>2023-05-03T13:15:39Z</time>
      </trkpt>
      <trkpt lat="49.88164" lon="1.97128">
        <ele>117.1</ele>
        <time>2023-05-03T13:15:40Z</time>
      </trkpt>
      <trkpt lat="49.88161" lon="1.97129">
        <ele>117.1</ele>
        <time>2023-05-03T13:15:42Z</time>
      </trkpt>
      <trkpt lat="49.8816" lon="1.9713">
        <ele>117.1</ele>
        <time>2023-05-03T13:15:43Z</time>
      </trkpt>
      <trkpt lat="49.88159" lon="1.9713">
        <ele>117.1</ele>
        <time>2023-05-03T13:15:44Z</time>
      </trkpt>
      <trkpt lat="49.88157" lon="1.97131">
        <ele>117.1</ele>
        <time>2023-05-03T13:15:45Z</time>
      </trkpt>
      <trkpt lat="49.88156" lon="1.97132">
        <ele>117.2</ele>
        <time>2023-05-03T13:15:46Z</time>
      </trkpt>
      <trkpt lat="49.88153" lon="1.97134">
        <ele>117.2</ele>
        <time>2023-05-03T13:15:48Z</time>
      </trkpt>
      <trkpt lat="49.88152" lon="1.97135">
        <ele>117.2</ele>
        <time>2023-05-03T13:15:50Z</time>
      </trkpt>
      <trkpt lat="49.88151" lon="1.97135">
        <ele>117.2</ele>
        <time>2023-05-03T13:15:51Z</time>
      </trkpt>
      <trkpt lat="49.8815" lon="1.97136">
        <ele>117.2</ele>
        <time>2023-05-03T13:15:52Z</time>
      </trkpt>
      <trkpt lat="49.88149" lon="1.97136">
        <ele>117.2</ele>
        <time>2023-05-03T13:15:53Z</time>
      </trkpt>
      <trkpt lat="49.88147" lon="1.97137">
        <ele>117.2</ele>
        <time>2023-05-03T13:15:54Z</time>
      </trkpt>
      <trkpt lat="49.88147" lon="1.97138">
        <ele>117.2</ele>
        <time>2023-05-03T13:15:55Z</time>
      </trkpt>
      <trkpt lat="49.88146" lon="1.97138">
        <ele>117.3</ele>
        <time>2023-05-03T13:15:56Z</time>
      </trkpt>
      <trkpt lat="49.88143" lon="1.97139">
        <ele>117.3</ele>
        <time>2023-05-03T13:15:57Z</time>
      </trkpt>
      <trkpt lat="49.88142" lon="1.97139">
        <ele>117.3</ele>
        <time>2023-05-03T13:15:59Z</time>
      </trkpt>
      <trkpt lat="49.88141" lon="1.9714">
        <ele>117.3</ele>
        <time>2023-05-03T13:16:00Z</time>
      </trkpt>
      <trkpt lat="49.8814" lon="1.9714">
        <ele>117.3</ele>
        <time>2023-05-03T13:16:01Z</time>
      </trkpt>
      <trkpt lat="49.88139" lon="1.97141">
        <ele>117.3</ele>
        <time>2023-05-03T13:16:02Z</time>
      </trkpt>
      <trkpt lat="49.88138" lon="1.97141">
        <ele>117.3</ele>
        <time>2023-05-03T13:16:03Z</time>
      </trkpt>
      <trkpt lat="49.88137" lon="1.97142">
        <ele>117.3</ele>
        <time>2023-05-03T13:16:05Z</time>
      </trkpt>
      <trkpt lat="49.88136" lon="1.97142">
        <ele>117.3</ele>
        <time>2023-05-03T13:16:06Z</time>
      </trkpt>
      <trkpt lat="49.88135" lon="1.97143">
        <ele>117.3</ele>
        <time>2023-05-03T13:16:07Z</time>
      </trkpt>
      <trkpt lat="49.88133" lon="1.97143">
        <ele>117.4</ele>
        <time>2023-05-03T13:16:08Z</time>
      </trkpt>
      <trkpt lat="49.88132" lon="1.97144">
        <ele>117.4</ele>
        <time>2023-05-03T13:16:09Z</time>
      </trkpt>
      <trkpt lat="49.8813" lon="1.97146">
        <ele>117.4</ele>
        <time>2023-05-03T13:16:11Z</time>
      </trkpt>
      <trkpt lat="49.88129" lon="1.97146">
        <ele>117.4</ele>
        <time>2023-05-03T13:16:12Z</time>
      </trkpt>
      <trkpt lat="49.88127" lon="1.97147">
        <ele>117.4</ele>
        <time>2023-05-03T13:16:13Z</time>
      </trkpt>
      <trkpt lat="49.88126" lon="1.97148">
        <ele>117.4</ele>
        <time>2023-05-03T13:16:14Z</time>
      </trkpt>
      <trkpt lat="49.88125" lon="1.97148">
        <ele>117.4</ele>
        <time>2023-05-03T13:16:15Z</time>
      </trkpt>
      <trkpt lat="49.88124" lon="1.97149">
        <ele>117.5</ele>
        <time>2023-05-03T13:16:16Z</time>
      </trkpt>
      <trkpt lat="49.88123" lon="1.9715">
        <ele>117.5</ele>
        <time>2023-05-03T13:16:18Z</time>
      </trkpt>
      <trkpt lat="49.88122" lon="1.97151">
        <ele>117.5</ele>
        <time>2023-05-03T13:16:19Z</time>
      </trkpt>
      <trkpt lat="49.88121" lon="1.97151">
        <ele>117.5</ele>
        <time>2023-05-03T13:16:20Z</time>
      </trkpt>
      <trkpt lat="49.8812" lon="1.97152">
        <ele>117.5</ele>
        <time>2023-05-03T13:16:21Z</time>
      </trkpt>
      <trkpt lat="49.88119" lon="1.97153">
        <ele>117.5</ele>
        <time>2023-05-03T13:16:22Z</time>
      </trkpt>
      <trkpt lat="49.88119" lon="1.97154">
        <ele>117.5</ele>
        <time>2023-05-03T13:16:23Z</time>
      </trkpt>
      <trkpt lat="49.88118" lon="1.97154">
        <ele>117.5</ele>
        <time>2023-05-03T13:16:24Z</time>
      </trkpt>
      <trkpt lat="49.88116" lon="1.97155">
        <ele>117.5</ele>
        <time>2023-05-03T13:16:25Z</time>
      </trkpt>
      <trkpt lat="49.88115" lon="1.97156">
        <ele>117.5</ele>
        <time>2023-05-03T13:16:26Z</time>
      </trkpt>
      <trkpt lat="49.88114" lon="1.97156">
        <ele>117.5</ele>
        <time>2023-05-03T13:16:28Z</time>
      </trkpt>
      <trkpt lat="49.88113" lon="1.97156">
        <ele>117.5</ele>
        <time>2023-05-03T13:16:29Z</time>
      </trkpt>
      <trkpt lat="49.88112" lon="1.97157">
        <ele>117.5</ele>
        <time>2023-05-03T13:16:30Z</time>
      </trkpt>
      <trkpt lat="49.88111" lon="1.97157">
        <ele>117.5</ele>
        <time>2023-05-03T13:16:31Z</time>
      </trkpt>
      <trkpt lat="49.8811" lon="1.97157">
        <ele>117.5</ele>
        <time>2023-05-03T13:16:32Z</time>
      </trkpt>
      <trkpt lat="49.88108" lon="1.97158">
        <ele>117.5</ele>
        <time>2023-05-03T13:16:33Z</time>
      </trkpt>
      <trkpt lat="49.88107" lon="1.97158">
        <ele>117.5</ele>
        <time>2023-05-03T13:16:34Z</time>
      </trkpt>
      <trkpt lat="49.88106" lon="1.97158">
        <ele>117.5</ele>
        <time>2023-05-03T13:16:35Z</time>
      </trkpt>
      <trkpt lat="49.88104" lon="1.97158">
        <ele>117.5</ele>
        <time>2023-05-03T13:16:36Z</time>
      </trkpt>
      <trkpt lat="49.88103" lon="1.97158">
        <ele>117.5</ele>
        <time>2023-05-03T13:16:38Z</time>
      </trkpt>
      <trkpt lat="49.88102" lon="1.97158">
        <ele>117.5</ele>
        <time>2023-05-03T13:16:39Z</time>
      </trkpt>
      <trkpt lat="49.88101" lon="1.97159">
        <ele>117.5</ele>
        <time>2023-05-03T13:16:40Z</time>
      </trkpt>
      <trkpt lat="49.881" lon="1.97159">
        <ele>117.6</ele>
        <time>2023-05-03T13:16:41Z</time>
      </trkpt>
      <trkpt lat="49.88097" lon="1.97159">
        <ele>117.6</ele>
        <time>2023-05-03T13:16:42Z</time>
      </trkpt>
      <trkpt lat="49.88097" lon="1.97159">
        <ele>117.6</ele>
        <time>2023-05-03T13:16:43Z</time>
      </trkpt>
      <trkpt lat="49.88096" lon="1.9716">
        <ele>117.6</ele>
        <time>2023-05-03T13:16:44Z</time>
      </trkpt>
      <trkpt lat="49.88093" lon="1.9716">
        <ele>117.6</ele>
        <time>2023-05-03T13:16:45Z</time>
      </trkpt>
      <trkpt lat="49.88093" lon="1.9716">
        <ele>117.6</ele>
        <time>2023-05-03T13:16:47Z</time>
      </trkpt>
      <trkpt lat="49.88092" lon="1.9716">
        <ele>117.6</ele>
        <time>2023-05-03T13:16:48Z</time>
      </trkpt>
      <trkpt lat="49.8809" lon="1.97161">
        <ele>117.6</ele>
        <time>2023-05-03T13:16:49Z</time>
      </trkpt>
      <trkpt lat="49.88089" lon="1.97161">
        <ele>117.6</ele>
        <time>2023-05-03T13:16:50Z</time>
      </trkpt>
      <trkpt lat="49.88088" lon="1.97162">
        <ele>117.6</ele>
        <time>2023-05-03T13:16:51Z</time>
      </trkpt>
      <trkpt lat="49.88087" lon="1.97162">
        <ele>117.6</ele>
        <time>2023-05-03T13:16:52Z</time>
      </trkpt>
      <trkpt lat="49.88085" lon="1.97162">
        <ele>117.6</ele>
        <time>2023-05-03T13:16:53Z</time>
      </trkpt>
      <trkpt lat="49.88084" lon="1.97163">
        <ele>117.6</ele>
        <time>2023-05-03T13:16:55Z</time>
      </trkpt>
      <trkpt lat="49.88083" lon="1.97163">
        <ele>117.6</ele>
        <time>2023-05-03T13:16:56Z</time>
      </trkpt>
      <trkpt lat="49.88082" lon="1.97163">
        <ele>117.7</ele>
        <time>2023-05-03T13:16:57Z</time>
      </trkpt>
      <trkpt lat="49.8808" lon="1.97163">
        <ele>117.7</ele>
        <time>2023-05-03T13:16:58Z</time>
      </trkpt>
      <trkpt lat="49.88079" lon="1.97163">
        <ele>117.7</ele>
        <time>2023-05-03T13:16:59Z</time>
      </trkpt>
      <trkpt lat="49.88078" lon="1.97163">
        <ele>117.7</ele>
        <time>2023-05-03T13:17:00Z</time>
      </trkpt>
      <trkpt lat="49.88077" lon="1.97162">
        <ele>117.7</ele>
        <time>2023-05-03T13:17:01Z</time>
      </trkpt>
      <trkpt lat="49.88075" lon="1.97162">
        <ele>117.7</ele>
        <time>2023-05-03T13:17:03Z</time>
      </trkpt>
      <trkpt lat="49.88074" lon="1.97161">
        <ele>117.8</ele>
        <time>2023-05-03T13:17:04Z</time>
      </trkpt>
      <trkpt lat="49.88073" lon="1.97161">
        <ele>117.8</ele>
        <time>2023-05-03T13:17:05Z</time>
      </trkpt>
      <trkpt lat="49.88072" lon="1.9716">
        <ele>117.8</ele>
        <time>2023-05-03T13:17:06Z</time>
      </trkpt>
      <trkpt lat="49.88071" lon="1.9716">
        <ele>117.8</ele>
        <time>2023-05-03T13:17:07Z</time>
      </trkpt>
      <trkpt lat="49.88069" lon="1.9716">
        <ele>117.8</ele>
        <time>2023-05-03T13:17:09Z</time>
      </trkpt>
      <trkpt lat="49.88068" lon="1.97159">
        <ele>117.8</ele>
        <time>2023-05-03T13:17:10Z</time>
      </trkpt>
      <trkpt lat="49.88067" lon="1.97159">
        <ele>117.9</ele>
        <time>2023-05-03T13:17:11Z</time>
      </trkpt>
      <trkpt lat="49.88066" lon="1.9716">
        <ele>117.9</ele>
        <time>2023-05-03T13:17:12Z</time>
      </trkpt>
      <trkpt lat="49.88066" lon="1.9716">
        <ele>117.9</ele>
        <time>2023-05-03T13:17:14Z</time>
      </trkpt>
      <trkpt lat="49.88066" lon="1.9716">
        <ele>117.9</ele>
        <time>2023-05-03T13:17:15Z</time>
      </trkpt>
      <trkpt lat="49.88066" lon="1.9716">
        <ele>117.9</ele>
        <time>2023-05-03T13:17:16Z</time>
      </trkpt>
      <trkpt lat="49.88066" lon="1.97161">
        <ele>117.9</ele>
        <time>2023-05-03T13:17:18Z</time>
      </trkpt>
      <trkpt lat="49.88066" lon="1.97161">
        <ele>117.9</ele>
        <time>2023-05-03T13:17:19Z</time>
      </trkpt>
      <trkpt lat="49.88066" lon="1.97161">
        <ele>117.9</ele>
        <time>2023-05-03T13:17:20Z</time>
      </trkpt>
      <trkpt lat="49.88066" lon="1.97161">
        <ele>117.9</ele>
        <time>2023-05-03T13:17:22Z</time>
      </trkpt>
      <trkpt lat="49.88066" lon="1.97161">
        <ele>117.9</ele>
        <time>2023-05-03T13:17:23Z</time>
      </trkpt>
      <trkpt lat="49.88066" lon="1.97161">
        <ele>117.9</ele>
        <time>2023-05-03T13:17:25Z</time>
      </trkpt>
      <trkpt lat="49.88066" lon="1.97161">
        <ele>117.9</ele>
        <time>2023-05-03T13:17:26Z</time>
      </trkpt>
      <trkpt lat="49.88067" lon="1.97161">
        <ele>117.9</ele>
        <time>2023-05-03T13:17:27Z</time>
      </trkpt>
      <trkpt lat="49.88066" lon="1.9716">
        <ele>117.9</ele>
        <time>2023-05-03T13:17:29Z</time>
      </trkpt>
      <trkpt lat="49.88067" lon="1.97161">
        <ele>117.9</ele>
        <time>2023-05-03T13:17:30Z</time>
      </trkpt>
      <trkpt lat="49.88067" lon="1.97162">
        <ele>117.9</ele>
        <time>2023-05-03T13:17:31Z</time>
      </trkpt>
      <trkpt lat="49.88068" lon="1.97163">
        <ele>118</ele>
        <time>2023-05-03T13:17:32Z</time>
      </trkpt>
      <trkpt lat="49.88068" lon="1.97164">
        <ele>118</ele>
        <time>2023-05-03T13:17:33Z</time>
      </trkpt>
      <trkpt lat="49.88069" lon="1.97164">
        <ele>118</ele>
        <time>2023-05-03T13:17:34Z</time>
      </trkpt>
      <trkpt lat="49.88069" lon="1.97165">
        <ele>118</ele>
        <time>2023-05-03T13:17:35Z</time>
      </trkpt>
      <trkpt lat="49.88069" lon="1.97165">
        <ele>118</ele>
        <time>2023-05-03T13:17:36Z</time>
      </trkpt>
      <trkpt lat="49.88069" lon="1.97165">
        <ele>118</ele>
        <time>2023-05-03T13:17:37Z</time>
      </trkpt>
      <trkpt lat="49.8807" lon="1.97165">
        <ele>118</ele>
        <time>2023-05-03T13:17:38Z</time>
      </trkpt>
      <trkpt lat="49.8807" lon="1.97165">
        <ele>118</ele>
        <time>2023-05-03T13:17:39Z</time>
      </trkpt>
      <trkpt lat="49.8807" lon="1.97165">
        <ele>118</ele>
        <time>2023-05-03T13:17:40Z</time>
      </trkpt>
      <trkpt lat="49.8807" lon="1.97165">
        <ele>118</ele>
        <time>2023-05-03T13:17:41Z</time>
      </trkpt>
      <trkpt lat="49.8807" lon="1.97165">
        <ele>118</ele>
        <time>2023-05-03T13:17:42Z</time>
      </trkpt>
      <trkpt lat="49.8807" lon="1.97164">
        <ele>118</ele>
        <time>2023-05-03T13:17:43Z</time>
      </trkpt>
      <trkpt lat="49.8807" lon="1.97164">
        <ele>118</ele>
        <time>2023-05-03T13:17:44Z</time>
      </trkpt>
      <trkpt lat="49.8807" lon="1.97164">
        <ele>118</ele>
        <time>2023-05-03T13:17:45Z</time>
      </trkpt>
      <trkpt lat="49.8807" lon="1.97164">
        <ele>118</ele>
        <time>2023-05-03T13:17:46Z</time>
      </trkpt>
      <trkpt lat="49.8807" lon="1.97164">
        <ele>118</ele>
        <time>2023-05-03T13:17:47Z</time>
      </trkpt>
      <trkpt lat="49.8807" lon="1.97163">
        <ele>118</ele>
        <time>2023-05-03T13:17:48Z</time>
      </trkpt>
      <trkpt lat="49.88069" lon="1.97162">
        <ele>118</ele>
        <time>2023-05-03T13:17:49Z</time>
      </trkpt>
      <trkpt lat="49.88069" lon="1.97162">
        <ele>118</ele>
        <time>2023-05-03T13:17:50Z</time>
      </trkpt>
      <trkpt lat="49.88069" lon="1.97162">
        <ele>118.1</ele>
        <time>2023-05-03T13:17:51Z</time>
      </trkpt>
      <trkpt lat="49.88069" lon="1.97161">
        <ele>118.1</ele>
        <time>2023-05-03T13:17:52Z</time>
      </trkpt>
      <trkpt lat="49.88069" lon="1.97161">
        <ele>118.1</ele>
        <time>2023-05-03T13:17:53Z</time>
      </trkpt>
      <trkpt lat="49.88069" lon="1.97161">
        <ele>118.1</ele>
        <time>2023-05-03T13:17:54Z</time>
      </trkpt>
      <trkpt lat="49.88068" lon="1.9716">
        <ele>118.1</ele>
        <time>2023-05-03T13:17:55Z</time>
      </trkpt>
      <trkpt lat="49.88068" lon="1.9716">
        <ele>118.1</ele>
        <time>2023-05-03T13:17:56Z</time>
      </trkpt>
      <trkpt lat="49.88069" lon="1.9716">
        <ele>118.1</ele>
        <time>2023-05-03T13:17:57Z</time>
      </trkpt>
      <trkpt lat="49.88069" lon="1.9716">
        <ele>118.1</ele>
        <time>2023-05-03T13:17:58Z</time>
      </trkpt>
      <trkpt lat="49.88069" lon="1.9716">
        <ele>118.1</ele>
        <time>2023-05-03T13:17:59Z</time>
      </trkpt>
      <trkpt lat="49.88069" lon="1.97161">
        <ele>118.1</ele>
        <time>2023-05-03T13:18:00Z</time>
      </trkpt>
      <trkpt lat="49.88069" lon="1.97161">
        <ele>118.1</ele>
        <time>2023-05-03T13:18:01Z</time>
      </trkpt>
      <trkpt lat="49.88069" lon="1.97161">
        <ele>118.1</ele>
        <time>2023-05-03T13:18:02Z</time>
      </trkpt>
      <trkpt lat="49.88069" lon="1.97161">
        <ele>118.1</ele>
        <time>2023-05-03T13:18:03Z</time>
      </trkpt>
      <trkpt lat="49.88068" lon="1.9716">
        <ele>118.1</ele>
        <time>2023-05-03T13:18:04Z</time>
      </trkpt>
      <trkpt lat="49.88068" lon="1.9716">
        <ele>118.1</ele>
        <time>2023-05-03T13:18:05Z</time>
      </trkpt>
      <trkpt lat="49.88068" lon="1.9716">
        <ele>118.1</ele>
        <time>2023-05-03T13:18:06Z</time>
      </trkpt>
      <trkpt lat="49.88067" lon="1.9716">
        <ele>118.1</ele>
        <time>2023-05-03T13:18:07Z</time>
      </trkpt>
      <trkpt lat="49.88066" lon="1.97159">
        <ele>118.1</ele>
        <time>2023-05-03T13:18:08Z</time>
      </trkpt>
      <trkpt lat="49.88065" lon="1.9716">
        <ele>118.2</ele>
        <time>2023-05-03T13:18:10Z</time>
      </trkpt>
      <trkpt lat="49.88065" lon="1.97161">
        <ele>118.2</ele>
        <time>2023-05-03T13:18:11Z</time>
      </trkpt>
      <trkpt lat="49.88064" lon="1.97162">
        <ele>118.2</ele>
        <time>2023-05-03T13:18:12Z</time>
      </trkpt>
      <trkpt lat="49.88063" lon="1.97163">
        <ele>118.2</ele>
        <time>2023-05-03T13:18:13Z</time>
      </trkpt>
      <trkpt lat="49.88062" lon="1.97164">
        <ele>118.2</ele>
        <time>2023-05-03T13:18:14Z</time>
      </trkpt>
      <trkpt lat="49.88062" lon="1.97164">
        <ele>118.2</ele>
        <time>2023-05-03T13:18:16Z</time>
      </trkpt>
      <trkpt lat="49.88061" lon="1.97163">
        <ele>118.2</ele>
        <time>2023-05-03T13:18:17Z</time>
      </trkpt>
      <trkpt lat="49.88061" lon="1.97164">
        <ele>118.3</ele>
        <time>2023-05-03T13:18:18Z</time>
      </trkpt>
      <trkpt lat="49.8806" lon="1.97163">
        <ele>118.3</ele>
        <time>2023-05-03T13:18:20Z</time>
      </trkpt>
      <trkpt lat="49.88059" lon="1.97163">
        <ele>118.3</ele>
        <time>2023-05-03T13:18:21Z</time>
      </trkpt>
      <trkpt lat="49.88059" lon="1.97162">
        <ele>118.3</ele>
        <time>2023-05-03T13:18:22Z</time>
      </trkpt>
      <trkpt lat="49.88057" lon="1.97161">
        <ele>118.4</ele>
        <time>2023-05-03T13:18:24Z</time>
      </trkpt>
      <trkpt lat="49.88057" lon="1.9716">
        <ele>118.4</ele>
        <time>2023-05-03T13:18:25Z</time>
      </trkpt>
      <trkpt lat="49.88056" lon="1.97159">
        <ele>118.4</ele>
        <time>2023-05-03T13:18:26Z</time>
      </trkpt>
      <trkpt lat="49.88056" lon="1.97158">
        <ele>118.4</ele>
        <time>2023-05-03T13:18:27Z</time>
      </trkpt>
      <trkpt lat="49.88055" lon="1.97157">
        <ele>118.4</ele>
        <time>2023-05-03T13:18:28Z</time>
      </trkpt>
      <trkpt lat="49.88053" lon="1.97156">
        <ele>118.5</ele>
        <time>2023-05-03T13:18:30Z</time>
      </trkpt>
      <trkpt lat="49.88052" lon="1.97155">
        <ele>118.5</ele>
        <time>2023-05-03T13:18:31Z</time>
      </trkpt>
      <trkpt lat="49.88052" lon="1.97154">
        <ele>118.5</ele>
        <time>2023-05-03T13:18:32Z</time>
      </trkpt>
      <trkpt lat="49.88051" lon="1.97153">
        <ele>118.6</ele>
        <time>2023-05-03T13:18:33Z</time>
      </trkpt>
      <trkpt lat="49.8805" lon="1.97153">
        <ele>118.6</ele>
        <time>2023-05-03T13:18:35Z</time>
      </trkpt>
      <trkpt lat="49.88049" lon="1.97154">
        <ele>118.6</ele>
        <time>2023-05-03T13:18:36Z</time>
      </trkpt>
      <trkpt lat="49.88048" lon="1.97154">
        <ele>118.6</ele>
        <time>2023-05-03T13:18:37Z</time>
      </trkpt>
      <trkpt lat="49.88047" lon="1.97154">
        <ele>118.7</ele>
        <time>2023-05-03T13:18:38Z</time>
      </trkpt>
      <trkpt lat="49.88046" lon="1.97153">
        <ele>118.7</ele>
        <time>2023-05-03T13:18:39Z</time>
      </trkpt>
      <trkpt lat="49.88044" lon="1.97152">
        <ele>118.7</ele>
        <time>2023-05-03T13:18:40Z</time>
      </trkpt>
      <trkpt lat="49.88043" lon="1.97152">
        <ele>118.8</ele>
        <time>2023-05-03T13:18:41Z</time>
      </trkpt>
      <trkpt lat="49.88041" lon="1.97152">
        <ele>118.8</ele>
        <time>2023-05-03T13:18:43Z</time>
      </trkpt>
      <trkpt lat="49.8804" lon="1.97152">
        <ele>118.8</ele>
        <time>2023-05-03T13:18:44Z</time>
      </trkpt>
      <trkpt lat="49.88039" lon="1.97152">
        <ele>118.9</ele>
        <time>2023-05-03T13:18:45Z</time>
      </trkpt>
      <trkpt lat="49.88039" lon="1.97152">
        <ele>118.9</ele>
        <time>2023-05-03T13:18:46Z</time>
      </trkpt>
      <trkpt lat="49.88038" lon="1.97152">
        <ele>118.9</ele>
        <time>2023-05-03T13:18:47Z</time>
      </trkpt>
      <trkpt lat="49.88037" lon="1.97153">
        <ele>118.9</ele>
        <time>2023-05-03T13:18:48Z</time>
      </trkpt>
      <trkpt lat="49.88037" lon="1.97154">
        <ele>118.9</ele>
        <time>2023-05-03T13:18:49Z</time>
      </trkpt>
      <trkpt lat="49.88036" lon="1.97155">
        <ele>119</ele>
        <time>2023-05-03T13:18:51Z</time>
      </trkpt>
      <trkpt lat="49.88036" lon="1.97156">
        <ele>119</ele>
        <time>2023-05-03T13:18:52Z</time>
      </trkpt>
      <trkpt lat="49.88036" lon="1.97157">
        <ele>119</ele>
        <time>2023-05-03T13:18:53Z</time>
      </trkpt>
      <trkpt lat="49.88035" lon="1.97158">
        <ele>119</ele>
        <time>2023-05-03T13:18:54Z</time>
      </trkpt>
      <trkpt lat="49.88034" lon="1.97159">
        <ele>119.1</ele>
        <time>2023-05-03T13:18:55Z</time>
      </trkpt>
      <trkpt lat="49.88033" lon="1.9716">
        <ele>119.1</ele>
        <time>2023-05-03T13:18:56Z</time>
      </trkpt>
      <trkpt lat="49.88033" lon="1.9716">
        <ele>119.1</ele>
        <time>2023-05-03T13:18:57Z</time>
      </trkpt>
      <trkpt lat="49.88032" lon="1.97161">
        <ele>119.1</ele>
        <time>2023-05-03T13:18:58Z</time>
      </trkpt>
      <trkpt lat="49.88031" lon="1.97161">
        <ele>119.2</ele>
        <time>2023-05-03T13:19:00Z</time>
      </trkpt>
      <trkpt lat="49.8803" lon="1.97162">
        <ele>119.2</ele>
        <time>2023-05-03T13:19:01Z</time>
      </trkpt>
      <trkpt lat="49.88029" lon="1.97162">
        <ele>119.2</ele>
        <time>2023-05-03T13:19:02Z</time>
      </trkpt>
      <trkpt lat="49.88028" lon="1.97163">
        <ele>119.3</ele>
        <time>2023-05-03T13:19:03Z</time>
      </trkpt>
      <trkpt lat="49.88027" lon="1.97163">
        <ele>119.3</ele>
        <time>2023-05-03T13:19:04Z</time>
      </trkpt>
      <trkpt lat="49.88026" lon="1.97164">
        <ele>119.4</ele>
        <time>2023-05-03T13:19:05Z</time>
      </trkpt>
      <trkpt lat="49.88025" lon="1.97164">
        <ele>119.4</ele>
        <time>2023-05-03T13:19:06Z</time>
      </trkpt>
      <trkpt lat="49.88024" lon="1.97165">
        <ele>119.4</ele>
        <time>2023-05-03T13:19:07Z</time>
      </trkpt>
      <trkpt lat="49.88024" lon="1.97164">
        <ele>119.5</ele>
        <time>2023-05-03T13:19:09Z</time>
      </trkpt>
      <trkpt lat="49.88023" lon="1.97164">
        <ele>119.5</ele>
        <time>2023-05-03T13:19:10Z</time>
      </trkpt>
      <trkpt lat="49.88022" lon="1.97164">
        <ele>119.5</ele>
        <time>2023-05-03T13:19:11Z</time>
      </trkpt>
      <trkpt lat="49.88022" lon="1.97164">
        <ele>119.5</ele>
        <time>2023-05-03T13:19:12Z</time>
      </trkpt>
      <trkpt lat="49.8802" lon="1.97163">
        <ele>119.6</ele>
        <time>2023-05-03T13:19:14Z</time>
      </trkpt>
      <trkpt lat="49.8802" lon="1.97163">
        <ele>119.6</ele>
        <time>2023-05-03T13:19:15Z</time>
      </trkpt>
      <trkpt lat="49.88019" lon="1.97163">
        <ele>119.6</ele>
        <time>2023-05-03T13:19:16Z</time>
      </trkpt>
      <trkpt lat="49.88018" lon="1.97162">
        <ele>119.7</ele>
        <time>2023-05-03T13:19:17Z</time>
      </trkpt>
      <trkpt lat="49.88018" lon="1.97162">
        <ele>119.7</ele>
        <time>2023-05-03T13:19:19Z</time>
      </trkpt>
      <trkpt lat="49.88017" lon="1.97162">
        <ele>119.7</ele>
        <time>2023-05-03T13:19:20Z</time>
      </trkpt>
      <trkpt lat="49.88017" lon="1.97162">
        <ele>119.7</ele>
        <time>2023-05-03T13:19:21Z</time>
      </trkpt>
      <trkpt lat="49.88015" lon="1.9716">
        <ele>119.8</ele>
        <time>2023-05-03T13:19:22Z</time>
      </trkpt>
      <trkpt lat="49.88014" lon="1.97159">
        <ele>119.8</ele>
        <time>2023-05-03T13:19:23Z</time>
      </trkpt>
      <trkpt lat="49.88014" lon="1.97159">
        <ele>119.9</ele>
        <time>2023-05-03T13:19:24Z</time>
      </trkpt>
      <trkpt lat="49.88012" lon="1.97158">
        <ele>119.9</ele>
        <time>2023-05-03T13:19:25Z</time>
      </trkpt>
      <trkpt lat="49.88011" lon="1.97158">
        <ele>119.9</ele>
        <time>2023-05-03T13:19:26Z</time>
      </trkpt>
      <trkpt lat="49.8801" lon="1.97158">
        <ele>120</ele>
        <time>2023-05-03T13:19:27Z</time>
      </trkpt>
      <trkpt lat="49.88006" lon="1.97159">
        <ele>120</ele>
        <time>2023-05-03T13:19:29Z</time>
      </trkpt>
      <trkpt lat="49.88005" lon="1.9716">
        <ele>120.1</ele>
        <time>2023-05-03T13:19:30Z</time>
      </trkpt>
      <trkpt lat="49.88003" lon="1.9716">
        <ele>120.1</ele>
        <time>2023-05-03T13:19:31Z</time>
      </trkpt>
      <trkpt lat="49.88002" lon="1.9716">
        <ele>120.1</ele>
        <time>2023-05-03T13:19:32Z</time>
      </trkpt>
      <trkpt lat="49.88" lon="1.97159">
        <ele>120.2</ele>
        <time>2023-05-03T13:19:33Z</time>
      </trkpt>
      <trkpt lat="49.87999" lon="1.97158">
        <ele>120.2</ele>
        <time>2023-05-03T13:19:34Z</time>
      </trkpt>
      <trkpt lat="49.87999" lon="1.97157">
        <ele>120.2</ele>
        <time>2023-05-03T13:19:35Z</time>
      </trkpt>
      <trkpt lat="49.87998" lon="1.97155">
        <ele>120.2</ele>
        <time>2023-05-03T13:19:37Z</time>
      </trkpt>
      <trkpt lat="49.87997" lon="1.97154">
        <ele>120.3</ele>
        <time>2023-05-03T13:19:38Z</time>
      </trkpt>
      <trkpt lat="49.87997" lon="1.97153">
        <ele>120.3</ele>
        <time>2023-05-03T13:19:39Z</time>
      </trkpt>
      <trkpt lat="49.87996" lon="1.97152">
        <ele>120.3</ele>
        <time>2023-05-03T13:19:40Z</time>
      </trkpt>
      <trkpt lat="49.87996" lon="1.9715">
        <ele>120.3</ele>
        <time>2023-05-03T13:19:41Z</time>
      </trkpt>
      <trkpt lat="49.87995" lon="1.97148">
        <ele>120.4</ele>
        <time>2023-05-03T13:19:42Z</time>
      </trkpt>
      <trkpt lat="49.87993" lon="1.97143">
        <ele>120.4</ele>
        <time>2023-05-03T13:19:43Z</time>
      </trkpt>
      <trkpt lat="49.87993" lon="1.97142">
        <ele>120.4</ele>
        <time>2023-05-03T13:19:44Z</time>
      </trkpt>
      <trkpt lat="49.87992" lon="1.97139">
        <ele>120.5</ele>
        <time>2023-05-03T13:19:45Z</time>
      </trkpt>
      <trkpt lat="49.87991" lon="1.97135">
        <ele>120.5</ele>
        <time>2023-05-03T13:19:47Z</time>
      </trkpt>
      <trkpt lat="49.8799" lon="1.97133">
        <ele>120.6</ele>
        <time>2023-05-03T13:19:48Z</time>
      </trkpt>
      <trkpt lat="49.8799" lon="1.97131">
        <ele>120.6</ele>
        <time>2023-05-03T13:19:49Z</time>
      </trkpt>
      <trkpt lat="49.87989" lon="1.97129">
        <ele>120.6</ele>
        <time>2023-05-03T13:19:50Z</time>
      </trkpt>
      <trkpt lat="49.87988" lon="1.97127">
        <ele>120.6</ele>
        <time>2023-05-03T13:19:51Z</time>
      </trkpt>
      <trkpt lat="49.87987" lon="1.97125">
        <ele>120.6</ele>
        <time>2023-05-03T13:19:53Z</time>
      </trkpt>
      <trkpt lat="49.87986" lon="1.97123">
        <ele>120.5</ele>
        <time>2023-05-03T13:19:54Z</time>
      </trkpt>
      <trkpt lat="49.87985" lon="1.97121">
        <ele>120.5</ele>
        <time>2023-05-03T13:19:55Z</time>
      </trkpt>
      <trkpt lat="49.87984" lon="1.97119">
        <ele>120.5</ele>
        <time>2023-05-03T13:19:56Z</time>
      </trkpt>
      <trkpt lat="49.87984" lon="1.97118">
        <ele>120.5</ele>
        <time>2023-05-03T13:19:57Z</time>
      </trkpt>
      <trkpt lat="49.87983" lon="1.97116">
        <ele>120.5</ele>
        <time>2023-05-03T13:19:58Z</time>
      </trkpt>
      <trkpt lat="49.87982" lon="1.97114">
        <ele>120.5</ele>
        <time>2023-05-03T13:19:59Z</time>
      </trkpt>
      <trkpt lat="49.87981" lon="1.97112">
        <ele>120.5</ele>
        <time>2023-05-03T13:20:00Z</time>
      </trkpt>
      <trkpt lat="49.8798" lon="1.97109">
        <ele>120.4</ele>
        <time>2023-05-03T13:20:01Z</time>
      </trkpt>
      <trkpt lat="49.87979" lon="1.97108">
        <ele>120.4</ele>
        <time>2023-05-03T13:20:03Z</time>
      </trkpt>
      <trkpt lat="49.87978" lon="1.97107">
        <ele>120.4</ele>
        <time>2023-05-03T13:20:04Z</time>
      </trkpt>
      <trkpt lat="49.87978" lon="1.97106">
        <ele>120.4</ele>
        <time>2023-05-03T13:20:05Z</time>
      </trkpt>
      <trkpt lat="49.87977" lon="1.97104">
        <ele>120.4</ele>
        <time>2023-05-03T13:20:06Z</time>
      </trkpt>
      <trkpt lat="49.87976" lon="1.97102">
        <ele>120.4</ele>
        <time>2023-05-03T13:20:07Z</time>
      </trkpt>
      <trkpt lat="49.87975" lon="1.97101">
        <ele>120.4</ele>
        <time>2023-05-03T13:20:08Z</time>
      </trkpt>
      <trkpt lat="49.87975" lon="1.97099">
        <ele>120.4</ele>
        <time>2023-05-03T13:20:09Z</time>
      </trkpt>
      <trkpt lat="49.87974" lon="1.97098">
        <ele>120.3</ele>
        <time>2023-05-03T13:20:10Z</time>
      </trkpt>
      <trkpt lat="49.87973" lon="1.97096">
        <ele>120.3</ele>
        <time>2023-05-03T13:20:11Z</time>
      </trkpt>
      <trkpt lat="49.87973" lon="1.97094">
        <ele>120.3</ele>
        <time>2023-05-03T13:20:13Z</time>
      </trkpt>
      <trkpt lat="49.87972" lon="1.9709">
        <ele>120.3</ele>
        <time>2023-05-03T13:20:14Z</time>
      </trkpt>
      <trkpt lat="49.87972" lon="1.97089">
        <ele>120.3</ele>
        <time>2023-05-03T13:20:15Z</time>
      </trkpt>
      <trkpt lat="49.87971" lon="1.97087">
        <ele>120.3</ele>
        <time>2023-05-03T13:20:16Z</time>
      </trkpt>
      <trkpt lat="49.8797" lon="1.97083">
        <ele>120.3</ele>
        <time>2023-05-03T13:20:17Z</time>
      </trkpt>
      <trkpt lat="49.8797" lon="1.97081">
        <ele>120.3</ele>
        <time>2023-05-03T13:20:19Z</time>
      </trkpt>
      <trkpt lat="49.8797" lon="1.97078">
        <ele>120.3</ele>
        <time>2023-05-03T13:20:20Z</time>
      </trkpt>
      <trkpt lat="49.87969" lon="1.97076">
        <ele>120.3</ele>
        <time>2023-05-03T13:20:22Z</time>
      </trkpt>
      <trkpt lat="49.87969" lon="1.97074">
        <ele>120.3</ele>
        <time>2023-05-03T13:20:24Z</time>
      </trkpt>
      <trkpt lat="49.87969" lon="1.97072">
        <ele>120.3</ele>
        <time>2023-05-03T13:20:25Z</time>
      </trkpt>
      <trkpt lat="49.87968" lon="1.97069">
        <ele>120.3</ele>
        <time>2023-05-03T13:20:26Z</time>
      </trkpt>
      <trkpt lat="49.87968" lon="1.97067">
        <ele>120.3</ele>
        <time>2023-05-03T13:20:27Z</time>
      </trkpt>
      <trkpt lat="49.87968" lon="1.97064">
        <ele>120.3</ele>
        <time>2023-05-03T13:20:28Z</time>
      </trkpt>
      <trkpt lat="49.87968" lon="1.97062">
        <ele>120.3</ele>
        <time>2023-05-03T13:20:29Z</time>
      </trkpt>
      <trkpt lat="49.87968" lon="1.97061">
        <ele>120.3</ele>
        <time>2023-05-03T13:20:30Z</time>
      </trkpt>
      <trkpt lat="49.87967" lon="1.97058">
        <ele>120.3</ele>
        <time>2023-05-03T13:20:32Z</time>
      </trkpt>
      <trkpt lat="49.87967" lon="1.97056">
        <ele>120.3</ele>
        <time>2023-05-03T13:20:33Z</time>
      </trkpt>
      <trkpt lat="49.87966" lon="1.97055">
        <ele>120.3</ele>
        <time>2023-05-03T13:20:34Z</time>
      </trkpt>
      <trkpt lat="49.87966" lon="1.97053">
        <ele>120.3</ele>
        <time>2023-05-03T13:20:35Z</time>
      </trkpt>
      <trkpt lat="49.87965" lon="1.97051">
        <ele>120.3</ele>
        <time>2023-05-03T13:20:36Z</time>
      </trkpt>
      <trkpt lat="49.87964" lon="1.97049">
        <ele>120.4</ele>
        <time>2023-05-03T13:20:37Z</time>
      </trkpt>
      <trkpt lat="49.87964" lon="1.97048">
        <ele>120.4</ele>
        <time>2023-05-03T13:20:38Z</time>
      </trkpt>
      <trkpt lat="49.87963" lon="1.97046">
        <ele>120.4</ele>
        <time>2023-05-03T13:20:39Z</time>
      </trkpt>
      <trkpt lat="49.87962" lon="1.97044">
        <ele>120.4</ele>
        <time>2023-05-03T13:20:40Z</time>
      </trkpt>
      <trkpt lat="49.87961" lon="1.97042">
        <ele>120.4</ele>
        <time>2023-05-03T13:20:41Z</time>
      </trkpt>
      <trkpt lat="49.87961" lon="1.9704">
        <ele>120.4</ele>
        <time>2023-05-03T13:20:42Z</time>
      </trkpt>
      <trkpt lat="49.87959" lon="1.97037">
        <ele>120.5</ele>
        <time>2023-05-03T13:20:44Z</time>
      </trkpt>
      <trkpt lat="49.87959" lon="1.97036">
        <ele>120.5</ele>
        <time>2023-05-03T13:20:45Z</time>
      </trkpt>
      <trkpt lat="49.87959" lon="1.97035">
        <ele>120.5</ele>
        <time>2023-05-03T13:20:46Z</time>
      </trkpt>
      <trkpt lat="49.87958" lon="1.97033">
        <ele>120.5</ele>
        <time>2023-05-03T13:20:47Z</time>
      </trkpt>
      <trkpt lat="49.87957" lon="1.97031">
        <ele>120.5</ele>
        <time>2023-05-03T13:20:48Z</time>
      </trkpt>
      <trkpt lat="49.87955" lon="1.97029">
        <ele>120.5</ele>
        <time>2023-05-03T13:20:50Z</time>
      </trkpt>
      <trkpt lat="49.87954" lon="1.97028">
        <ele>120.5</ele>
        <time>2023-05-03T13:20:51Z</time>
      </trkpt>
      <trkpt lat="49.87953" lon="1.97027">
        <ele>120.5</ele>
        <time>2023-05-03T13:20:52Z</time>
      </trkpt>
      <trkpt lat="49.87951" lon="1.97026">
        <ele>120.5</ele>
        <time>2023-05-03T13:20:53Z</time>
      </trkpt>
      <trkpt lat="49.87949" lon="1.97024">
        <ele>120.5</ele>
        <time>2023-05-03T13:20:54Z</time>
      </trkpt>
      <trkpt lat="49.87949" lon="1.97024">
        <ele>120.5</ele>
        <time>2023-05-03T13:20:55Z</time>
      </trkpt>
      <trkpt lat="49.87948" lon="1.97023">
        <ele>120.5</ele>
        <time>2023-05-03T13:20:56Z</time>
      </trkpt>
      <trkpt lat="49.87945" lon="1.97023">
        <ele>120.5</ele>
        <time>2023-05-03T13:20:57Z</time>
      </trkpt>
      <trkpt lat="49.87944" lon="1.97022">
        <ele>120.5</ele>
        <time>2023-05-03T13:20:59Z</time>
      </trkpt>
      <trkpt lat="49.87943" lon="1.97022">
        <ele>120.5</ele>
        <time>2023-05-03T13:21:00Z</time>
      </trkpt>
      <trkpt lat="49.87942" lon="1.97022">
        <ele>120.5</ele>
        <time>2023-05-03T13:21:01Z</time>
      </trkpt>
      <trkpt lat="49.87941" lon="1.97022">
        <ele>120.4</ele>
        <time>2023-05-03T13:21:02Z</time>
      </trkpt>
      <trkpt lat="49.87939" lon="1.97022">
        <ele>120.4</ele>
        <time>2023-05-03T13:21:03Z</time>
      </trkpt>
      <trkpt lat="49.87938" lon="1.97022">
        <ele>120.4</ele>
        <time>2023-05-03T13:21:05Z</time>
      </trkpt>
      <trkpt lat="49.87937" lon="1.97022">
        <ele>120.4</ele>
        <time>2023-05-03T13:21:06Z</time>
      </trkpt>
      <trkpt lat="49.87936" lon="1.97023">
        <ele>120.4</ele>
        <time>2023-05-03T13:21:07Z</time>
      </trkpt>
      <trkpt lat="49.87935" lon="1.97024">
        <ele>120.4</ele>
        <time>2023-05-03T13:21:08Z</time>
      </trkpt>
      <trkpt lat="49.87934" lon="1.97024">
        <ele>120.4</ele>
        <time>2023-05-03T13:21:09Z</time>
      </trkpt>
      <trkpt lat="49.87933" lon="1.97025">
        <ele>120.4</ele>
        <time>2023-05-03T13:21:10Z</time>
      </trkpt>
      <trkpt lat="49.87932" lon="1.97026">
        <ele>120.3</ele>
        <time>2023-05-03T13:21:11Z</time>
      </trkpt>
      <trkpt lat="49.87931" lon="1.97026">
        <ele>120.3</ele>
        <time>2023-05-03T13:21:12Z</time>
      </trkpt>
      <trkpt lat="49.87929" lon="1.97027">
        <ele>120.3</ele>
        <time>2023-05-03T13:21:14Z</time>
      </trkpt>
      <trkpt lat="49.87928" lon="1.97028">
        <ele>120.3</ele>
        <time>2023-05-03T13:21:15Z</time>
      </trkpt>
      <trkpt lat="49.87927" lon="1.97029">
        <ele>120.2</ele>
        <time>2023-05-03T13:21:16Z</time>
      </trkpt>
      <trkpt lat="49.87926" lon="1.9703">
        <ele>120.2</ele>
        <time>2023-05-03T13:21:18Z</time>
      </trkpt>
      <trkpt lat="49.87925" lon="1.9703">
        <ele>120.2</ele>
        <time>2023-05-03T13:21:19Z</time>
      </trkpt>
      <trkpt lat="49.87923" lon="1.97032">
        <ele>120.1</ele>
        <time>2023-05-03T13:21:20Z</time>
      </trkpt>
      <trkpt lat="49.87922" lon="1.97032">
        <ele>120.1</ele>
        <time>2023-05-03T13:21:21Z</time>
      </trkpt>
      <trkpt lat="49.87922" lon="1.97033">
        <ele>120.1</ele>
        <time>2023-05-03T13:21:22Z</time>
      </trkpt>
      <trkpt lat="49.8792" lon="1.97034">
        <ele>120.1</ele>
        <time>2023-05-03T13:21:23Z</time>
      </trkpt>
      <trkpt lat="49.87919" lon="1.97035">
        <ele>120</ele>
        <time>2023-05-03T13:21:24Z</time>
      </trkpt>
      <trkpt lat="49.87917" lon="1.97036">
        <ele>120</ele>
        <time>2023-05-03T13:21:25Z</time>
      </trkpt>
      <trkpt lat="49.87916" lon="1.97036">
        <ele>120</ele>
        <time>2023-05-03T13:21:26Z</time>
      </trkpt>
      <trkpt lat="49.87915" lon="1.97037">
        <ele>120</ele>
        <time>2023-05-03T13:21:28Z</time>
      </trkpt>
      <trkpt lat="49.87914" lon="1.97038">
        <ele>120</ele>
        <time>2023-05-03T13:21:29Z</time>
      </trkpt>
      <trkpt lat="49.87912" lon="1.97039">
        <ele>120</ele>
        <time>2023-05-03T13:21:30Z</time>
      </trkpt>
      <trkpt lat="49.87911" lon="1.9704">
        <ele>120</ele>
        <time>2023-05-03T13:21:31Z</time>
      </trkpt>
      <trkpt lat="49.8791" lon="1.97041">
        <ele>120</ele>
        <time>2023-05-03T13:21:32Z</time>
      </trkpt>
      <trkpt lat="49.87908" lon="1.97042">
        <ele>120</ele>
        <time>2023-05-03T13:21:33Z</time>
      </trkpt>
      <trkpt lat="49.87907" lon="1.97042">
        <ele>120</ele>
        <time>2023-05-03T13:21:34Z</time>
      </trkpt>
      <trkpt lat="49.87906" lon="1.97043">
        <ele>120</ele>
        <time>2023-05-03T13:21:35Z</time>
      </trkpt>
      <trkpt lat="49.87904" lon="1.97044">
        <ele>120</ele>
        <time>2023-05-03T13:21:36Z</time>
      </trkpt>
      <trkpt lat="49.87903" lon="1.97044">
        <ele>120</ele>
        <time>2023-05-03T13:21:38Z</time>
      </trkpt>
      <trkpt lat="49.87902" lon="1.97045">
        <ele>120</ele>
        <time>2023-05-03T13:21:39Z</time>
      </trkpt>
      <trkpt lat="49.87901" lon="1.97045">
        <ele>120</ele>
        <time>2023-05-03T13:21:40Z</time>
      </trkpt>
      <trkpt lat="49.879" lon="1.97046">
        <ele>120</ele>
        <time>2023-05-03T13:21:41Z</time>
      </trkpt>
      <trkpt lat="49.87898" lon="1.97047">
        <ele>120.1</ele>
        <time>2023-05-03T13:21:42Z</time>
      </trkpt>
      <trkpt lat="49.87897" lon="1.97048">
        <ele>120.1</ele>
        <time>2023-05-03T13:21:43Z</time>
      </trkpt>
      <trkpt lat="49.87896" lon="1.97048">
        <ele>120.1</ele>
        <time>2023-05-03T13:21:44Z</time>
      </trkpt>
      <trkpt lat="49.87895" lon="1.97049">
        <ele>120.1</ele>
        <time>2023-05-03T13:21:45Z</time>
      </trkpt>
      <trkpt lat="49.87894" lon="1.9705">
        <ele>120.1</ele>
        <time>2023-05-03T13:21:46Z</time>
      </trkpt>
      <trkpt lat="49.87894" lon="1.97051">
        <ele>120.2</ele>
        <time>2023-05-03T13:21:48Z</time>
      </trkpt>
      <trkpt lat="49.87893" lon="1.97052">
        <ele>120.2</ele>
        <time>2023-05-03T13:21:49Z</time>
      </trkpt>
      <trkpt lat="49.87892" lon="1.97053">
        <ele>120.2</ele>
        <time>2023-05-03T13:21:50Z</time>
      </trkpt>
      <trkpt lat="49.87891" lon="1.97054">
        <ele>120.2</ele>
        <time>2023-05-03T13:21:51Z</time>
      </trkpt>
      <trkpt lat="49.8789" lon="1.97055">
        <ele>120.2</ele>
        <time>2023-05-03T13:21:52Z</time>
      </trkpt>
      <trkpt lat="49.8789" lon="1.97055">
        <ele>120.3</ele>
        <time>2023-05-03T13:21:53Z</time>
      </trkpt>
      <trkpt lat="49.87889" lon="1.97056">
        <ele>120.3</ele>
        <time>2023-05-03T13:21:54Z</time>
      </trkpt>
      <trkpt lat="49.87888" lon="1.97057">
        <ele>120.3</ele>
        <time>2023-05-03T13:21:55Z</time>
      </trkpt>
      <trkpt lat="49.87887" lon="1.97058">
        <ele>120.3</ele>
        <time>2023-05-03T13:21:57Z</time>
      </trkpt>
      <trkpt lat="49.87886" lon="1.97059">
        <ele>120.3</ele>
        <time>2023-05-03T13:21:58Z</time>
      </trkpt>
      <trkpt lat="49.87885" lon="1.9706">
        <ele>120.4</ele>
        <time>2023-05-03T13:21:59Z</time>
      </trkpt>
      <trkpt lat="49.87885" lon="1.9706">
        <ele>120.4</ele>
        <time>2023-05-03T13:22:00Z</time>
      </trkpt>
      <trkpt lat="49.87884" lon="1.97061">
        <ele>120.4</ele>
        <time>2023-05-03T13:22:01Z</time>
      </trkpt>
      <trkpt lat="49.87883" lon="1.97061">
        <ele>120.4</ele>
        <time>2023-05-03T13:22:02Z</time>
      </trkpt>
      <trkpt lat="49.87882" lon="1.97061">
        <ele>120.4</ele>
        <time>2023-05-03T13:22:03Z</time>
      </trkpt>
      <trkpt lat="49.87881" lon="1.97061">
        <ele>120.5</ele>
        <time>2023-05-03T13:22:04Z</time>
      </trkpt>
      <trkpt lat="49.8788" lon="1.97061">
        <ele>120.5</ele>
        <time>2023-05-03T13:22:05Z</time>
      </trkpt>
      <trkpt lat="49.87879" lon="1.97061">
        <ele>120.5</ele>
        <time>2023-05-03T13:22:07Z</time>
      </trkpt>
      <trkpt lat="49.87878" lon="1.97059">
        <ele>120.5</ele>
        <time>2023-05-03T13:22:08Z</time>
      </trkpt>
      <trkpt lat="49.87877" lon="1.97058">
        <ele>120.6</ele>
        <time>2023-05-03T13:22:09Z</time>
      </trkpt>
      <trkpt lat="49.87876" lon="1.97058">
        <ele>120.6</ele>
        <time>2023-05-03T13:22:10Z</time>
      </trkpt>
      <trkpt lat="49.87875" lon="1.97058">
        <ele>120.6</ele>
        <time>2023-05-03T13:22:11Z</time>
      </trkpt>
      <trkpt lat="49.87874" lon="1.97058">
        <ele>120.6</ele>
        <time>2023-05-03T13:22:12Z</time>
      </trkpt>
      <trkpt lat="49.87872" lon="1.97059">
        <ele>120.7</ele>
        <time>2023-05-03T13:22:14Z</time>
      </trkpt>
      <trkpt lat="49.87871" lon="1.97059">
        <ele>120.7</ele>
        <time>2023-05-03T13:22:15Z</time>
      </trkpt>
      <trkpt lat="49.87871" lon="1.9706">
        <ele>120.7</ele>
        <time>2023-05-03T13:22:16Z</time>
      </trkpt>
      <trkpt lat="49.8787" lon="1.9706">
        <ele>120.7</ele>
        <time>2023-05-03T13:22:17Z</time>
      </trkpt>
      <trkpt lat="49.87869" lon="1.97061">
        <ele>120.7</ele>
        <time>2023-05-03T13:22:18Z</time>
      </trkpt>
      <trkpt lat="49.87868" lon="1.97062">
        <ele>120.8</ele>
        <time>2023-05-03T13:22:19Z</time>
      </trkpt>
      <trkpt lat="49.87866" lon="1.97063">
        <ele>120.8</ele>
        <time>2023-05-03T13:22:21Z</time>
      </trkpt>
      <trkpt lat="49.87864" lon="1.97064">
        <ele>120.8</ele>
        <time>2023-05-03T13:22:22Z</time>
      </trkpt>
      <trkpt lat="49.87863" lon="1.97065">
        <ele>120.8</ele>
        <time>2023-05-03T13:22:23Z</time>
      </trkpt>
      <trkpt lat="49.87862" lon="1.97065">
        <ele>120.9</ele>
        <time>2023-05-03T13:22:24Z</time>
      </trkpt>
      <trkpt lat="49.8786" lon="1.97066">
        <ele>120.9</ele>
        <time>2023-05-03T13:22:25Z</time>
      </trkpt>
      <trkpt lat="49.87859" lon="1.97066">
        <ele>121</ele>
        <time>2023-05-03T13:22:27Z</time>
      </trkpt>
      <trkpt lat="49.87857" lon="1.97067">
        <ele>121</ele>
        <time>2023-05-03T13:22:28Z</time>
      </trkpt>
      <trkpt lat="49.87856" lon="1.97067">
        <ele>121.1</ele>
        <time>2023-05-03T13:22:29Z</time>
      </trkpt>
      <trkpt lat="49.87854" lon="1.97068">
        <ele>121.1</ele>
        <time>2023-05-03T13:22:30Z</time>
      </trkpt>
      <trkpt lat="49.87853" lon="1.97068">
        <ele>121.1</ele>
        <time>2023-05-03T13:22:31Z</time>
      </trkpt>
      <trkpt lat="49.87851" lon="1.97069">
        <ele>121.1</ele>
        <time>2023-05-03T13:22:32Z</time>
      </trkpt>
      <trkpt lat="49.8785" lon="1.97069">
        <ele>121.2</ele>
        <time>2023-05-03T13:22:33Z</time>
      </trkpt>
      <trkpt lat="49.87848" lon="1.97069">
        <ele>121.2</ele>
        <time>2023-05-03T13:22:34Z</time>
      </trkpt>
      <trkpt lat="49.87846" lon="1.97069">
        <ele>121.2</ele>
        <time>2023-05-03T13:22:36Z</time>
      </trkpt>
      <trkpt lat="49.87845" lon="1.97068">
        <ele>121.3</ele>
        <time>2023-05-03T13:22:37Z</time>
      </trkpt>
      <trkpt lat="49.87844" lon="1.97068">
        <ele>121.3</ele>
        <time>2023-05-03T13:22:38Z</time>
      </trkpt>
      <trkpt lat="49.87842" lon="1.97067">
        <ele>121.3</ele>
        <time>2023-05-03T13:22:39Z</time>
      </trkpt>
      <trkpt lat="49.87841" lon="1.97066">
        <ele>121.4</ele>
        <time>2023-05-03T13:22:40Z</time>
      </trkpt>
      <trkpt lat="49.87839" lon="1.97066">
        <ele>121.4</ele>
        <time>2023-05-03T13:22:42Z</time>
      </trkpt>
      <trkpt lat="49.87838" lon="1.97065">
        <ele>121.4</ele>
        <time>2023-05-03T13:22:43Z</time>
      </trkpt>
      <trkpt lat="49.87837" lon="1.97064">
        <ele>121.4</ele>
        <time>2023-05-03T13:22:44Z</time>
      </trkpt>
      <trkpt lat="49.87835" lon="1.97064">
        <ele>121.5</ele>
        <time>2023-05-03T13:22:45Z</time>
      </trkpt>
      <trkpt lat="49.87834" lon="1.97063">
        <ele>121.5</ele>
        <time>2023-05-03T13:22:46Z</time>
      </trkpt>
      <trkpt lat="49.87832" lon="1.97062">
        <ele>121.5</ele>
        <time>2023-05-03T13:22:48Z</time>
      </trkpt>
      <trkpt lat="49.8783" lon="1.97062">
        <ele>121.6</ele>
        <time>2023-05-03T13:22:49Z</time>
      </trkpt>
      <trkpt lat="49.87829" lon="1.9706">
        <ele>121.6</ele>
        <time>2023-05-03T13:22:50Z</time>
      </trkpt>
      <trkpt lat="49.87827" lon="1.97059">
        <ele>121.6</ele>
        <time>2023-05-03T13:22:51Z</time>
      </trkpt>
      <trkpt lat="49.87826" lon="1.97059">
        <ele>121.6</ele>
        <time>2023-05-03T13:22:52Z</time>
      </trkpt>
      <trkpt lat="49.87825" lon="1.97058">
        <ele>121.7</ele>
        <time>2023-05-03T13:22:53Z</time>
      </trkpt>
      <trkpt lat="49.87824" lon="1.97058">
        <ele>121.7</ele>
        <time>2023-05-03T13:22:54Z</time>
      </trkpt>
      <trkpt lat="49.87823" lon="1.97057">
        <ele>121.7</ele>
        <time>2023-05-03T13:22:55Z</time>
      </trkpt>
      <trkpt lat="49.87821" lon="1.97056">
        <ele>121.8</ele>
        <time>2023-05-03T13:22:57Z</time>
      </trkpt>
      <trkpt lat="49.8782" lon="1.97056">
        <ele>121.8</ele>
        <time>2023-05-03T13:22:58Z</time>
      </trkpt>
      <trkpt lat="49.87819" lon="1.97056">
        <ele>121.8</ele>
        <time>2023-05-03T13:22:59Z</time>
      </trkpt>
      <trkpt lat="49.87817" lon="1.97055">
        <ele>121.8</ele>
        <time>2023-05-03T13:23:00Z</time>
      </trkpt>
      <trkpt lat="49.87816" lon="1.97055">
        <ele>121.8</ele>
        <time>2023-05-03T13:23:01Z</time>
      </trkpt>
      <trkpt lat="49.87815" lon="1.97055">
        <ele>121.9</ele>
        <time>2023-05-03T13:23:02Z</time>
      </trkpt>
      <trkpt lat="49.87814" lon="1.97054">
        <ele>121.9</ele>
        <time>2023-05-03T13:23:03Z</time>
      </trkpt>
      <trkpt lat="49.87812" lon="1.97054">
        <ele>121.9</ele>
        <time>2023-05-03T13:23:05Z</time>
      </trkpt>
      <trkpt lat="49.8781" lon="1.97054">
        <ele>121.9</ele>
        <time>2023-05-03T13:23:06Z</time>
      </trkpt>
      <trkpt lat="49.87809" lon="1.97054">
        <ele>122</ele>
        <time>2023-05-03T13:23:07Z</time>
      </trkpt>
      <trkpt lat="49.87807" lon="1.97054">
        <ele>122</ele>
        <time>2023-05-03T13:23:09Z</time>
      </trkpt>
      <trkpt lat="49.87806" lon="1.97054">
        <ele>122</ele>
        <time>2023-05-03T13:23:10Z</time>
      </trkpt>
      <trkpt lat="49.87805" lon="1.97054">
        <ele>122</ele>
        <time>2023-05-03T13:23:11Z</time>
      </trkpt>
      <trkpt lat="49.87802" lon="1.97054">
        <ele>122.1</ele>
        <time>2023-05-03T13:23:12Z</time>
      </trkpt>
      <trkpt lat="49.87802" lon="1.97054">
        <ele>122.1</ele>
        <time>2023-05-03T13:23:13Z</time>
      </trkpt>
      <trkpt lat="49.87801" lon="1.97054">
        <ele>122.1</ele>
        <time>2023-05-03T13:23:14Z</time>
      </trkpt>
      <trkpt lat="49.87799" lon="1.97054">
        <ele>122.1</ele>
        <time>2023-05-03T13:23:15Z</time>
      </trkpt>
      <trkpt lat="49.87797" lon="1.97054">
        <ele>122.2</ele>
        <time>2023-05-03T13:23:16Z</time>
      </trkpt>
      <trkpt lat="49.87795" lon="1.97053">
        <ele>122.2</ele>
        <time>2023-05-03T13:23:17Z</time>
      </trkpt>
      <trkpt lat="49.87794" lon="1.97053">
        <ele>122.2</ele>
        <time>2023-05-03T13:23:19Z</time>
      </trkpt>
      <trkpt lat="49.87793" lon="1.97053">
        <ele>122.2</ele>
        <time>2023-05-03T13:23:20Z</time>
      </trkpt>
      <trkpt lat="49.87792" lon="1.97053">
        <ele>122.3</ele>
        <time>2023-05-03T13:23:21Z</time>
      </trkpt>
      <trkpt lat="49.87791" lon="1.97053">
        <ele>122.3</ele>
        <time>2023-05-03T13:23:22Z</time>
      </trkpt>
      <trkpt lat="49.87789" lon="1.97053">
        <ele>122.3</ele>
        <time>2023-05-03T13:23:23Z</time>
      </trkpt>
      <trkpt lat="49.87788" lon="1.97053">
        <ele>122.3</ele>
        <time>2023-05-03T13:23:24Z</time>
      </trkpt>
      <trkpt lat="49.87787" lon="1.97054">
        <ele>122.3</ele>
        <time>2023-05-03T13:23:25Z</time>
      </trkpt>
      <trkpt lat="49.87786" lon="1.97054">
        <ele>122.4</ele>
        <time>2023-05-03T13:23:26Z</time>
      </trkpt>
      <trkpt lat="49.87785" lon="1.97054">
        <ele>122.4</ele>
        <time>2023-05-03T13:23:27Z</time>
      </trkpt>
      <trkpt lat="49.87784" lon="1.97055">
        <ele>122.4</ele>
        <time>2023-05-03T13:23:29Z</time>
      </trkpt>
      <trkpt lat="49.87783" lon="1.97055">
        <ele>122.4</ele>
        <time>2023-05-03T13:23:30Z</time>
      </trkpt>
      <trkpt lat="49.87782" lon="1.97055">
        <ele>122.4</ele>
        <time>2023-05-03T13:23:31Z</time>
      </trkpt>
      <trkpt lat="49.8778" lon="1.97056">
        <ele>122.5</ele>
        <time>2023-05-03T13:23:32Z</time>
      </trkpt>
      <trkpt lat="49.87778" lon="1.97056">
        <ele>122.5</ele>
        <time>2023-05-03T13:23:33Z</time>
      </trkpt>
      <trkpt lat="49.87777" lon="1.97056">
        <ele>122.5</ele>
        <time>2023-05-03T13:23:34Z</time>
      </trkpt>
      <trkpt lat="49.87776" lon="1.97056">
        <ele>122.5</ele>
        <time>2023-05-03T13:23:35Z</time>
      </trkpt>
      <trkpt lat="49.87775" lon="1.97056">
        <ele>122.6</ele>
        <time>2023-05-03T13:23:36Z</time>
      </trkpt>
      <trkpt lat="49.87773" lon="1.97056">
        <ele>122.6</ele>
        <time>2023-05-03T13:23:38Z</time>
      </trkpt>
      <trkpt lat="49.87772" lon="1.97056">
        <ele>122.6</ele>
        <time>2023-05-03T13:23:39Z</time>
      </trkpt>
      <trkpt lat="49.87771" lon="1.97056">
        <ele>122.6</ele>
        <time>2023-05-03T13:23:40Z</time>
      </trkpt>
      <trkpt lat="49.87769" lon="1.97056">
        <ele>122.6</ele>
        <time>2023-05-03T13:23:41Z</time>
      </trkpt>
      <trkpt lat="49.87768" lon="1.97057">
        <ele>122.7</ele>
        <time>2023-05-03T13:23:42Z</time>
      </trkpt>
      <trkpt lat="49.87767" lon="1.97058">
        <ele>122.7</ele>
        <time>2023-05-03T13:23:44Z</time>
      </trkpt>
      <trkpt lat="49.87767" lon="1.97059">
        <ele>122.7</ele>
        <time>2023-05-03T13:23:45Z</time>
      </trkpt>
      <trkpt lat="49.87767" lon="1.9706">
        <ele>122.7</ele>
        <time>2023-05-03T13:23:47Z</time>
      </trkpt>
      <trkpt lat="49.87767" lon="1.97061">
        <ele>122.7</ele>
        <time>2023-05-03T13:23:48Z</time>
      </trkpt>
      <trkpt lat="49.87767" lon="1.9706">
        <ele>122.7</ele>
        <time>2023-05-03T13:23:49Z</time>
      </trkpt>
      <trkpt lat="49.87768" lon="1.9706">
        <ele>122.7</ele>
        <time>2023-05-03T13:23:50Z</time>
      </trkpt>
      <trkpt lat="49.87768" lon="1.97061">
        <ele>122.7</ele>
        <time>2023-05-03T13:23:52Z</time>
      </trkpt>
      <trkpt lat="49.87768" lon="1.97062">
        <ele>122.7</ele>
        <time>2023-05-03T13:23:53Z</time>
      </trkpt>
      <trkpt lat="49.87768" lon="1.97063">
        <ele>122.8</ele>
        <time>2023-05-03T13:23:55Z</time>
      </trkpt>
      <trkpt lat="49.87768" lon="1.97063">
        <ele>122.8</ele>
        <time>2023-05-03T13:23:56Z</time>
      </trkpt>
      <trkpt lat="49.87768" lon="1.97063">
        <ele>122.8</ele>
        <time>2023-05-03T13:23:57Z</time>
      </trkpt>
      <trkpt lat="49.87768" lon="1.97063">
        <ele>122.8</ele>
        <time>2023-05-03T13:23:58Z</time>
      </trkpt>
      <trkpt lat="49.87768" lon="1.97063">
        <ele>122.8</ele>
        <time>2023-05-03T13:24:00Z</time>
      </trkpt>
      <trkpt lat="49.87768" lon="1.97063">
        <ele>122.8</ele>
        <time>2023-05-03T13:24:01Z</time>
      </trkpt>
      <trkpt lat="49.87768" lon="1.97063">
        <ele>122.8</ele>
        <time>2023-05-03T13:24:02Z</time>
      </trkpt>
      <trkpt lat="49.87768" lon="1.97063">
        <ele>122.8</ele>
        <time>2023-05-03T13:24:04Z</time>
      </trkpt>
      <trkpt lat="49.87767" lon="1.97063">
        <ele>122.8</ele>
        <time>2023-05-03T13:24:05Z</time>
      </trkpt>
      <trkpt lat="49.87767" lon="1.97063">
        <ele>122.8</ele>
        <time>2023-05-03T13:24:06Z</time>
      </trkpt>
      <trkpt lat="49.87766" lon="1.97062">
        <ele>122.8</ele>
        <time>2023-05-03T13:24:08Z</time>
      </trkpt>
      <trkpt lat="49.87765" lon="1.97062">
        <ele>122.8</ele>
        <time>2023-05-03T13:24:09Z</time>
      </trkpt>
      <trkpt lat="49.87764" lon="1.97062">
        <ele>122.8</ele>
        <time>2023-05-03T13:24:10Z</time>
      </trkpt>
      <trkpt lat="49.87762" lon="1.97061">
        <ele>122.9</ele>
        <time>2023-05-03T13:24:11Z</time>
      </trkpt>
      <trkpt lat="49.87761" lon="1.97061">
        <ele>122.9</ele>
        <time>2023-05-03T13:24:13Z</time>
      </trkpt>
      <trkpt lat="49.8776" lon="1.97061">
        <ele>122.9</ele>
        <time>2023-05-03T13:24:14Z</time>
      </trkpt>
      <trkpt lat="49.87759" lon="1.9706">
        <ele>122.9</ele>
        <time>2023-05-03T13:24:15Z</time>
      </trkpt>
      <trkpt lat="49.87758" lon="1.9706">
        <ele>123</ele>
        <time>2023-05-03T13:24:16Z</time>
      </trkpt>
      <trkpt lat="49.87757" lon="1.9706">
        <ele>123</ele>
        <time>2023-05-03T13:24:17Z</time>
      </trkpt>
      <trkpt lat="49.87756" lon="1.97058">
        <ele>123</ele>
        <time>2023-05-03T13:24:18Z</time>
      </trkpt>
      <trkpt lat="49.87755" lon="1.97056">
        <ele>123</ele>
        <time>2023-05-03T13:24:20Z</time>
      </trkpt>
      <trkpt lat="49.87755" lon="1.97055">
        <ele>123</ele>
        <time>2023-05-03T13:24:21Z</time>
      </trkpt>
      <trkpt lat="49.87755" lon="1.97055">
        <ele>123.1</ele>
        <time>2023-05-03T13:24:22Z</time>
      </trkpt>
      <trkpt lat="49.87755" lon="1.97054">
        <ele>123.1</ele>
        <time>2023-05-03T13:24:24Z</time>
      </trkpt>
      <trkpt lat="49.87755" lon="1.97054">
        <ele>123.1</ele>
        <time>2023-05-03T13:24:25Z</time>
      </trkpt>
      <trkpt lat="49.87755" lon="1.97053">
        <ele>123.1</ele>
        <time>2023-05-03T13:24:26Z</time>
      </trkpt>
      <trkpt lat="49.87755" lon="1.97053">
        <ele>123.1</ele>
        <time>2023-05-03T13:24:28Z</time>
      </trkpt>
      <trkpt lat="49.87755" lon="1.97053">
        <ele>123.1</ele>
        <time>2023-05-03T13:24:29Z</time>
      </trkpt>
      <trkpt lat="49.87755" lon="1.97052">
        <ele>123.1</ele>
        <time>2023-05-03T13:24:30Z</time>
      </trkpt>
      <trkpt lat="49.87755" lon="1.97052">
        <ele>123.1</ele>
        <time>2023-05-03T13:24:31Z</time>
      </trkpt>
      <trkpt lat="49.87754" lon="1.97052">
        <ele>123.1</ele>
        <time>2023-05-03T13:24:33Z</time>
      </trkpt>
      <trkpt lat="49.87754" lon="1.97052">
        <ele>123.1</ele>
        <time>2023-05-03T13:24:34Z</time>
      </trkpt>
      <trkpt lat="49.87753" lon="1.97053">
        <ele>123.1</ele>
        <time>2023-05-03T13:24:35Z</time>
      </trkpt>
      <trkpt lat="49.87752" lon="1.97053">
        <ele>123.2</ele>
        <time>2023-05-03T13:24:36Z</time>
      </trkpt>
      <trkpt lat="49.87751" lon="1.97054">
        <ele>123.2</ele>
        <time>2023-05-03T13:24:37Z</time>
      </trkpt>
      <trkpt lat="49.8775" lon="1.97056">
        <ele>123.2</ele>
        <time>2023-05-03T13:24:38Z</time>
      </trkpt>
      <trkpt lat="49.87749" lon="1.97058">
        <ele>123.3</ele>
        <time>2023-05-03T13:24:39Z</time>
      </trkpt>
      <trkpt lat="49.87748" lon="1.97059">
        <ele>123.3</ele>
        <time>2023-05-03T13:24:41Z</time>
      </trkpt>
      <trkpt lat="49.87747" lon="1.97061">
        <ele>123.3</ele>
        <time>2023-05-03T13:24:42Z</time>
      </trkpt>
      <trkpt lat="49.87746" lon="1.97062">
        <ele>123.4</ele>
        <time>2023-05-03T13:24:43Z</time>
      </trkpt>
      <trkpt lat="49.87745" lon="1.97063">
        <ele>123.4</ele>
        <time>2023-05-03T13:24:44Z</time>
      </trkpt>
      <trkpt lat="49.87743" lon="1.97065">
        <ele>123.4</ele>
        <time>2023-05-03T13:24:45Z</time>
      </trkpt>
      <trkpt lat="49.87743" lon="1.97065">
        <ele>123.4</ele>
        <time>2023-05-03T13:24:46Z</time>
      </trkpt>
      <trkpt lat="49.87742" lon="1.97065">
        <ele>123.4</ele>
        <time>2023-05-03T13:24:47Z</time>
      </trkpt>
      <trkpt lat="49.87741" lon="1.97066">
        <ele>123.4</ele>
        <time>2023-05-03T13:24:48Z</time>
      </trkpt>
      <trkpt lat="49.87739" lon="1.97067">
        <ele>123.4</ele>
        <time>2023-05-03T13:24:49Z</time>
      </trkpt>
      <trkpt lat="49.87738" lon="1.97067">
        <ele>123.4</ele>
        <time>2023-05-03T13:24:51Z</time>
      </trkpt>
      <trkpt lat="49.87736" lon="1.97069">
        <ele>123.4</ele>
        <time>2023-05-03T13:24:52Z</time>
      </trkpt>
      <trkpt lat="49.87735" lon="1.97069">
        <ele>123.4</ele>
        <time>2023-05-03T13:24:53Z</time>
      </trkpt>
      <trkpt lat="49.87735" lon="1.9707">
        <ele>123.4</ele>
        <time>2023-05-03T13:24:54Z</time>
      </trkpt>
      <trkpt lat="49.87734" lon="1.97071">
        <ele>123.3</ele>
        <time>2023-05-03T13:24:55Z</time>
      </trkpt>
      <trkpt lat="49.87733" lon="1.97072">
        <ele>123.3</ele>
        <time>2023-05-03T13:24:56Z</time>
      </trkpt>
      <trkpt lat="49.87732" lon="1.97073">
        <ele>123.3</ele>
        <time>2023-05-03T13:24:57Z</time>
      </trkpt>
      <trkpt lat="49.87731" lon="1.97074">
        <ele>123.3</ele>
        <time>2023-05-03T13:24:58Z</time>
      </trkpt>
      <trkpt lat="49.8773" lon="1.97075">
        <ele>123.3</ele>
        <time>2023-05-03T13:24:59Z</time>
      </trkpt>
      <trkpt lat="49.87729" lon="1.97077">
        <ele>123.3</ele>
        <time>2023-05-03T13:25:01Z</time>
      </trkpt>
      <trkpt lat="49.87727" lon="1.97078">
        <ele>123.2</ele>
        <time>2023-05-03T13:25:02Z</time>
      </trkpt>
      <trkpt lat="49.87726" lon="1.97079">
        <ele>123.2</ele>
        <time>2023-05-03T13:25:03Z</time>
      </trkpt>
      <trkpt lat="49.87726" lon="1.9708">
        <ele>123.2</ele>
        <time>2023-05-03T13:25:04Z</time>
      </trkpt>
      <trkpt lat="49.87724" lon="1.97081">
        <ele>123.2</ele>
        <time>2023-05-03T13:25:05Z</time>
      </trkpt>
      <trkpt lat="49.87723" lon="1.97082">
        <ele>123.2</ele>
        <time>2023-05-03T13:25:06Z</time>
      </trkpt>
      <trkpt lat="49.87722" lon="1.97082">
        <ele>123.2</ele>
        <time>2023-05-03T13:25:07Z</time>
      </trkpt>
      <trkpt lat="49.87721" lon="1.97083">
        <ele>123.1</ele>
        <time>2023-05-03T13:25:08Z</time>
      </trkpt>
      <trkpt lat="49.8772" lon="1.97085">
        <ele>123.1</ele>
        <time>2023-05-03T13:25:09Z</time>
      </trkpt>
      <trkpt lat="49.87719" lon="1.97086">
        <ele>123.1</ele>
        <time>2023-05-03T13:25:11Z</time>
      </trkpt>
      <trkpt lat="49.87717" lon="1.97088">
        <ele>123.1</ele>
        <time>2023-05-03T13:25:12Z</time>
      </trkpt>
      <trkpt lat="49.87717" lon="1.97089">
        <ele>123.1</ele>
        <time>2023-05-03T13:25:13Z</time>
      </trkpt>
      <trkpt lat="49.87716" lon="1.9709">
        <ele>123</ele>
        <time>2023-05-03T13:25:14Z</time>
      </trkpt>
      <trkpt lat="49.87715" lon="1.97091">
        <ele>123</ele>
        <time>2023-05-03T13:25:15Z</time>
      </trkpt>
      <trkpt lat="49.87714" lon="1.97093">
        <ele>123</ele>
        <time>2023-05-03T13:25:16Z</time>
      </trkpt>
      <trkpt lat="49.87713" lon="1.97094">
        <ele>123</ele>
        <time>2023-05-03T13:25:17Z</time>
      </trkpt>
      <trkpt lat="49.87712" lon="1.97096">
        <ele>123</ele>
        <time>2023-05-03T13:25:18Z</time>
      </trkpt>
      <trkpt lat="49.87711" lon="1.97098">
        <ele>123</ele>
        <time>2023-05-03T13:25:20Z</time>
      </trkpt>
      <trkpt lat="49.8771" lon="1.97099">
        <ele>123</ele>
        <time>2023-05-03T13:25:21Z</time>
      </trkpt>
      <trkpt lat="49.87708" lon="1.97101">
        <ele>123</ele>
        <time>2023-05-03T13:25:23Z</time>
      </trkpt>
      <trkpt lat="49.87707" lon="1.97103">
        <ele>123</ele>
        <time>2023-05-03T13:25:24Z</time>
      </trkpt>
      <trkpt lat="49.87706" lon="1.97104">
        <ele>123</ele>
        <time>2023-05-03T13:25:25Z</time>
      </trkpt>
      <trkpt lat="49.87705" lon="1.97105">
        <ele>123</ele>
        <time>2023-05-03T13:25:26Z</time>
      </trkpt>
      <trkpt lat="49.87703" lon="1.97107">
        <ele>123</ele>
        <time>2023-05-03T13:25:27Z</time>
      </trkpt>
      <trkpt lat="49.87702" lon="1.97108">
        <ele>123</ele>
        <time>2023-05-03T13:25:28Z</time>
      </trkpt>
      <trkpt lat="49.87701" lon="1.97109">
        <ele>123</ele>
        <time>2023-05-03T13:25:29Z</time>
      </trkpt>
      <trkpt lat="49.877" lon="1.9711">
        <ele>123</ele>
        <time>2023-05-03T13:25:30Z</time>
      </trkpt>
      <trkpt lat="49.87698" lon="1.97113">
        <ele>123</ele>
        <time>2023-05-03T13:25:31Z</time>
      </trkpt>
      <trkpt lat="49.87698" lon="1.97114">
        <ele>123</ele>
        <time>2023-05-03T13:25:32Z</time>
      </trkpt>
      <trkpt lat="49.87697" lon="1.97115">
        <ele>122.9</ele>
        <time>2023-05-03T13:25:33Z</time>
      </trkpt>
      <trkpt lat="49.87696" lon="1.97117">
        <ele>122.9</ele>
        <time>2023-05-03T13:25:34Z</time>
      </trkpt>
      <trkpt lat="49.87695" lon="1.97118">
        <ele>122.9</ele>
        <time>2023-05-03T13:25:36Z</time>
      </trkpt>
      <trkpt lat="49.87695" lon="1.97119">
        <ele>122.9</ele>
        <time>2023-05-03T13:25:37Z</time>
      </trkpt>
      <trkpt lat="49.87693" lon="1.97121">
        <ele>122.9</ele>
        <time>2023-05-03T13:25:38Z</time>
      </trkpt>
      <trkpt lat="49.87693" lon="1.97122">
        <ele>122.9</ele>
        <time>2023-05-03T13:25:39Z</time>
      </trkpt>
      <trkpt lat="49.87691" lon="1.97125">
        <ele>122.9</ele>
        <time>2023-05-03T13:25:41Z</time>
      </trkpt>
      <trkpt lat="49.87689" lon="1.97127">
        <ele>122.9</ele>
        <time>2023-05-03T13:25:42Z</time>
      </trkpt>
      <trkpt lat="49.87689" lon="1.97128">
        <ele>122.8</ele>
        <time>2023-05-03T13:25:43Z</time>
      </trkpt>
      <trkpt lat="49.87688" lon="1.97128">
        <ele>122.8</ele>
        <time>2023-05-03T13:25:44Z</time>
      </trkpt>
      <trkpt lat="49.87686" lon="1.9713">
        <ele>122.8</ele>
        <time>2023-05-03T13:25:45Z</time>
      </trkpt>
      <trkpt lat="49.87685" lon="1.97131">
        <ele>122.8</ele>
        <time>2023-05-03T13:25:47Z</time>
      </trkpt>
      <trkpt lat="49.87684" lon="1.97132">
        <ele>122.8</ele>
        <time>2023-05-03T13:25:48Z</time>
      </trkpt>
      <trkpt lat="49.87683" lon="1.97133">
        <ele>122.7</ele>
        <time>2023-05-03T13:25:49Z</time>
      </trkpt>
      <trkpt lat="49.87683" lon="1.97134">
        <ele>122.7</ele>
        <time>2023-05-03T13:25:50Z</time>
      </trkpt>
      <trkpt lat="49.87681" lon="1.97135">
        <ele>122.7</ele>
        <time>2023-05-03T13:25:51Z</time>
      </trkpt>
      <trkpt lat="49.87679" lon="1.97137">
        <ele>122.7</ele>
        <time>2023-05-03T13:25:53Z</time>
      </trkpt>
      <trkpt lat="49.87677" lon="1.97139">
        <ele>122.6</ele>
        <time>2023-05-03T13:25:54Z</time>
      </trkpt>
      <trkpt lat="49.87677" lon="1.9714">
        <ele>122.6</ele>
        <time>2023-05-03T13:25:55Z</time>
      </trkpt>
      <trkpt lat="49.87676" lon="1.9714">
        <ele>122.6</ele>
        <time>2023-05-03T13:25:56Z</time>
      </trkpt>
      <trkpt lat="49.87675" lon="1.97141">
        <ele>122.6</ele>
        <time>2023-05-03T13:25:57Z</time>
      </trkpt>
      <trkpt lat="49.87673" lon="1.97143">
        <ele>122.5</ele>
        <time>2023-05-03T13:25:59Z</time>
      </trkpt>
      <trkpt lat="49.87672" lon="1.97144">
        <ele>122.5</ele>
        <time>2023-05-03T13:26:00Z</time>
      </trkpt>
      <trkpt lat="49.87671" lon="1.97145">
        <ele>122.5</ele>
        <time>2023-05-03T13:26:01Z</time>
      </trkpt>
      <trkpt lat="49.8767" lon="1.97146">
        <ele>122.4</ele>
        <time>2023-05-03T13:26:03Z</time>
      </trkpt>
      <trkpt lat="49.87668" lon="1.97148">
        <ele>122.4</ele>
        <time>2023-05-03T13:26:04Z</time>
      </trkpt>
      <trkpt lat="49.87668" lon="1.97148">
        <ele>122.4</ele>
        <time>2023-05-03T13:26:05Z</time>
      </trkpt>
      <trkpt lat="49.87667" lon="1.97149">
        <ele>122.4</ele>
        <time>2023-05-03T13:26:06Z</time>
      </trkpt>
      <trkpt lat="49.87666" lon="1.9715">
        <ele>122.3</ele>
        <time>2023-05-03T13:26:07Z</time>
      </trkpt>
      <trkpt lat="49.87665" lon="1.9715">
        <ele>122.3</ele>
        <time>2023-05-03T13:26:08Z</time>
      </trkpt>
      <trkpt lat="49.87663" lon="1.97152">
        <ele>122.2</ele>
        <time>2023-05-03T13:26:10Z</time>
      </trkpt>
      <trkpt lat="49.87662" lon="1.97153">
        <ele>122.2</ele>
        <time>2023-05-03T13:26:11Z</time>
      </trkpt>
      <trkpt lat="49.87661" lon="1.97153">
        <ele>122.1</ele>
        <time>2023-05-03T13:26:12Z</time>
      </trkpt>
      <trkpt lat="49.8766" lon="1.97154">
        <ele>122.1</ele>
        <time>2023-05-03T13:26:13Z</time>
      </trkpt>
      <trkpt lat="49.87658" lon="1.97155">
        <ele>122</ele>
        <time>2023-05-03T13:26:14Z</time>
      </trkpt>
      <trkpt lat="49.87656" lon="1.97157">
        <ele>121.9</ele>
        <time>2023-05-03T13:26:16Z</time>
      </trkpt>
      <trkpt lat="49.87656" lon="1.97157">
        <ele>121.9</ele>
        <time>2023-05-03T13:26:17Z</time>
      </trkpt>
      <trkpt lat="49.87655" lon="1.97158">
        <ele>121.9</ele>
        <time>2023-05-03T13:26:18Z</time>
      </trkpt>
      <trkpt lat="49.87653" lon="1.97159">
        <ele>121.8</ele>
        <time>2023-05-03T13:26:19Z</time>
      </trkpt>
      <trkpt lat="49.87652" lon="1.97159">
        <ele>121.7</ele>
        <time>2023-05-03T13:26:20Z</time>
      </trkpt>
      <trkpt lat="49.87651" lon="1.97159">
        <ele>121.7</ele>
        <time>2023-05-03T13:26:21Z</time>
      </trkpt>
      <trkpt lat="49.8765" lon="1.9716">
        <ele>121.6</ele>
        <time>2023-05-03T13:26:22Z</time>
      </trkpt>
      <trkpt lat="49.87649" lon="1.97161">
        <ele>121.6</ele>
        <time>2023-05-03T13:26:23Z</time>
      </trkpt>
      <trkpt lat="49.87648" lon="1.97161">
        <ele>121.5</ele>
        <time>2023-05-03T13:26:24Z</time>
      </trkpt>
      <trkpt lat="49.87647" lon="1.97162">
        <ele>121.4</ele>
        <time>2023-05-03T13:26:25Z</time>
      </trkpt>
      <trkpt lat="49.87646" lon="1.97163">
        <ele>121.4</ele>
        <time>2023-05-03T13:26:26Z</time>
      </trkpt>
      <trkpt lat="49.87645" lon="1.97164">
        <ele>121.3</ele>
        <time>2023-05-03T13:26:28Z</time>
      </trkpt>
      <trkpt lat="49.87644" lon="1.97164">
        <ele>121.3</ele>
        <time>2023-05-03T13:26:29Z</time>
      </trkpt>
      <trkpt lat="49.87644" lon="1.97165">
        <ele>121.2</ele>
        <time>2023-05-03T13:26:30Z</time>
      </trkpt>
      <trkpt lat="49.87643" lon="1.97165">
        <ele>121.2</ele>
        <time>2023-05-03T13:26:31Z</time>
      </trkpt>
      <trkpt lat="49.87641" lon="1.97167">
        <ele>121.1</ele>
        <time>2023-05-03T13:26:33Z</time>
      </trkpt>
      <trkpt lat="49.8764" lon="1.97168">
        <ele>121</ele>
        <time>2023-05-03T13:26:34Z</time>
      </trkpt>
      <trkpt lat="49.87639" lon="1.97169">
        <ele>121</ele>
        <time>2023-05-03T13:26:35Z</time>
      </trkpt>
      <trkpt lat="49.87639" lon="1.9717">
        <ele>120.9</ele>
        <time>2023-05-03T13:26:36Z</time>
      </trkpt>
      <trkpt lat="49.87638" lon="1.9717">
        <ele>120.8</ele>
        <time>2023-05-03T13:26:37Z</time>
      </trkpt>
      <trkpt lat="49.87637" lon="1.97171">
        <ele>120.8</ele>
        <time>2023-05-03T13:26:38Z</time>
      </trkpt>
      <trkpt lat="49.87636" lon="1.97172">
        <ele>120.7</ele>
        <time>2023-05-03T13:26:40Z</time>
      </trkpt>
      <trkpt lat="49.87635" lon="1.97172">
        <ele>120.6</ele>
        <time>2023-05-03T13:26:41Z</time>
      </trkpt>
      <trkpt lat="49.87634" lon="1.97173">
        <ele>120.5</ele>
        <time>2023-05-03T13:26:42Z</time>
      </trkpt>
      <trkpt lat="49.87633" lon="1.97173">
        <ele>120.4</ele>
        <time>2023-05-03T13:26:43Z</time>
      </trkpt>
      <trkpt lat="49.87632" lon="1.97174">
        <ele>120.3</ele>
        <time>2023-05-03T13:26:44Z</time>
      </trkpt>
      <trkpt lat="49.8763" lon="1.97175">
        <ele>120.2</ele>
        <time>2023-05-03T13:26:46Z</time>
      </trkpt>
      <trkpt lat="49.87628" lon="1.97176">
        <ele>120.1</ele>
        <time>2023-05-03T13:26:47Z</time>
      </trkpt>
      <trkpt lat="49.87627" lon="1.97176">
        <ele>120</ele>
        <time>2023-05-03T13:26:48Z</time>
      </trkpt>
      <trkpt lat="49.87625" lon="1.97177">
        <ele>119.8</ele>
        <time>2023-05-03T13:26:49Z</time>
      </trkpt>
      <trkpt lat="49.87624" lon="1.97178">
        <ele>119.7</ele>
        <time>2023-05-03T13:26:50Z</time>
      </trkpt>
      <trkpt lat="49.87622" lon="1.97179">
        <ele>119.5</ele>
        <time>2023-05-03T13:26:51Z</time>
      </trkpt>
      <trkpt lat="49.87621" lon="1.9718">
        <ele>119.4</ele>
        <time>2023-05-03T13:26:53Z</time>
      </trkpt>
      <trkpt lat="49.8762" lon="1.9718">
        <ele>119.4</ele>
        <time>2023-05-03T13:26:54Z</time>
      </trkpt>
      <trkpt lat="49.87619" lon="1.97181">
        <ele>119.3</ele>
        <time>2023-05-03T13:26:55Z</time>
      </trkpt>
      <trkpt lat="49.87618" lon="1.97181">
        <ele>119.2</ele>
        <time>2023-05-03T13:26:56Z</time>
      </trkpt>
      <trkpt lat="49.87616" lon="1.97183">
        <ele>119.1</ele>
        <time>2023-05-03T13:26:57Z</time>
      </trkpt>
      <trkpt lat="49.87615" lon="1.97183">
        <ele>119</ele>
        <time>2023-05-03T13:26:58Z</time>
      </trkpt>
      <trkpt lat="49.87614" lon="1.97184">
        <ele>119</ele>
        <time>2023-05-03T13:26:59Z</time>
      </trkpt>
      <trkpt lat="49.87612" lon="1.97185">
        <ele>118.8</ele>
        <time>2023-05-03T13:27:00Z</time>
      </trkpt>
      <trkpt lat="49.87612" lon="1.97186">
        <ele>118.8</ele>
        <time>2023-05-03T13:27:01Z</time>
      </trkpt>
      <trkpt lat="49.87611" lon="1.97186">
        <ele>118.7</ele>
        <time>2023-05-03T13:27:02Z</time>
      </trkpt>
      <trkpt lat="49.87609" lon="1.97188">
        <ele>118.6</ele>
        <time>2023-05-03T13:27:04Z</time>
      </trkpt>
      <trkpt lat="49.87608" lon="1.97189">
        <ele>118.5</ele>
        <time>2023-05-03T13:27:05Z</time>
      </trkpt>
      <trkpt lat="49.87608" lon="1.97189">
        <ele>118.5</ele>
        <time>2023-05-03T13:27:06Z</time>
      </trkpt>
      <trkpt lat="49.87606" lon="1.9719">
        <ele>118.4</ele>
        <time>2023-05-03T13:27:07Z</time>
      </trkpt>
      <trkpt lat="49.87605" lon="1.97191">
        <ele>118.3</ele>
        <time>2023-05-03T13:27:08Z</time>
      </trkpt>
      <trkpt lat="49.87604" lon="1.97193">
        <ele>118.2</ele>
        <time>2023-05-03T13:27:10Z</time>
      </trkpt>
      <trkpt lat="49.87603" lon="1.97194">
        <ele>118.1</ele>
        <time>2023-05-03T13:27:11Z</time>
      </trkpt>
      <trkpt lat="49.87602" lon="1.97195">
        <ele>117.9</ele>
        <time>2023-05-03T13:27:12Z</time>
      </trkpt>
      <trkpt lat="49.876" lon="1.97196">
        <ele>117.8</ele>
        <time>2023-05-03T13:27:13Z</time>
      </trkpt>
      <trkpt lat="49.87599" lon="1.97196">
        <ele>117.7</ele>
        <time>2023-05-03T13:27:14Z</time>
      </trkpt>
      <trkpt lat="49.87598" lon="1.97197">
        <ele>117.6</ele>
        <time>2023-05-03T13:27:15Z</time>
      </trkpt>
      <trkpt lat="49.87598" lon="1.97198">
        <ele>117.5</ele>
        <time>2023-05-03T13:27:16Z</time>
      </trkpt>
      <trkpt lat="49.87597" lon="1.97199">
        <ele>117.4</ele>
        <time>2023-05-03T13:27:17Z</time>
      </trkpt>
      <trkpt lat="49.87596" lon="1.972">
        <ele>117.3</ele>
        <time>2023-05-03T13:27:18Z</time>
      </trkpt>
      <trkpt lat="49.87595" lon="1.97201">
        <ele>117.2</ele>
        <time>2023-05-03T13:27:19Z</time>
      </trkpt>
      <trkpt lat="49.87593" lon="1.97202">
        <ele>117.1</ele>
        <time>2023-05-03T13:27:20Z</time>
      </trkpt>
      <trkpt lat="49.87592" lon="1.97203">
        <ele>117</ele>
        <time>2023-05-03T13:27:22Z</time>
      </trkpt>
      <trkpt lat="49.87591" lon="1.97204">
        <ele>116.9</ele>
        <time>2023-05-03T13:27:23Z</time>
      </trkpt>
      <trkpt lat="49.8759" lon="1.97204">
        <ele>116.7</ele>
        <time>2023-05-03T13:27:24Z</time>
      </trkpt>
      <trkpt lat="49.87589" lon="1.97205">
        <ele>116.6</ele>
        <time>2023-05-03T13:27:25Z</time>
      </trkpt>
      <trkpt lat="49.87588" lon="1.97206">
        <ele>116.5</ele>
        <time>2023-05-03T13:27:26Z</time>
      </trkpt>
      <trkpt lat="49.87587" lon="1.97207">
        <ele>116.4</ele>
        <time>2023-05-03T13:27:27Z</time>
      </trkpt>
      <trkpt lat="49.87585" lon="1.97208">
        <ele>116.2</ele>
        <time>2023-05-03T13:27:29Z</time>
      </trkpt>
      <trkpt lat="49.87584" lon="1.97209">
        <ele>116.1</ele>
        <time>2023-05-03T13:27:30Z</time>
      </trkpt>
      <trkpt lat="49.87583" lon="1.9721">
        <ele>116</ele>
        <time>2023-05-03T13:27:31Z</time>
      </trkpt>
      <trkpt lat="49.87582" lon="1.97211">
        <ele>115.8</ele>
        <time>2023-05-03T13:27:32Z</time>
      </trkpt>
      <trkpt lat="49.87581" lon="1.97212">
        <ele>115.7</ele>
        <time>2023-05-03T13:27:33Z</time>
      </trkpt>
      <trkpt lat="49.87579" lon="1.97213">
        <ele>115.5</ele>
        <time>2023-05-03T13:27:34Z</time>
      </trkpt>
      <trkpt lat="49.87578" lon="1.97214">
        <ele>115.4</ele>
        <time>2023-05-03T13:27:35Z</time>
      </trkpt>
      <trkpt lat="49.87577" lon="1.97214">
        <ele>115.3</ele>
        <time>2023-05-03T13:27:36Z</time>
      </trkpt>
      <trkpt lat="49.87575" lon="1.97215">
        <ele>115.1</ele>
        <time>2023-05-03T13:27:37Z</time>
      </trkpt>
      <trkpt lat="49.87574" lon="1.97216">
        <ele>114.9</ele>
        <time>2023-05-03T13:27:38Z</time>
      </trkpt>
      <trkpt lat="49.87573" lon="1.97217">
        <ele>114.8</ele>
        <time>2023-05-03T13:27:39Z</time>
      </trkpt>
      <trkpt lat="49.87571" lon="1.97217">
        <ele>114.6</ele>
        <time>2023-05-03T13:27:40Z</time>
      </trkpt>
      <trkpt lat="49.8757" lon="1.97218">
        <ele>114.5</ele>
        <time>2023-05-03T13:27:42Z</time>
      </trkpt>
      <trkpt lat="49.87569" lon="1.97219">
        <ele>114.3</ele>
        <time>2023-05-03T13:27:43Z</time>
      </trkpt>
      <trkpt lat="49.87568" lon="1.9722">
        <ele>114.2</ele>
        <time>2023-05-03T13:27:44Z</time>
      </trkpt>
      <trkpt lat="49.87566" lon="1.97221">
        <ele>114</ele>
        <time>2023-05-03T13:27:45Z</time>
      </trkpt>
      <trkpt lat="49.87565" lon="1.97223">
        <ele>113.8</ele>
        <time>2023-05-03T13:27:46Z</time>
      </trkpt>
      <trkpt lat="49.87564" lon="1.97224">
        <ele>113.7</ele>
        <time>2023-05-03T13:27:47Z</time>
      </trkpt>
      <trkpt lat="49.87563" lon="1.97225">
        <ele>113.5</ele>
        <time>2023-05-03T13:27:48Z</time>
      </trkpt>
      <trkpt lat="49.87562" lon="1.97226">
        <ele>113.4</ele>
        <time>2023-05-03T13:27:49Z</time>
      </trkpt>
      <trkpt lat="49.8756" lon="1.97228">
        <ele>113.2</ele>
        <time>2023-05-03T13:27:51Z</time>
      </trkpt>
      <trkpt lat="49.87559" lon="1.97229">
        <ele>113</ele>
        <time>2023-05-03T13:27:52Z</time>
      </trkpt>
      <trkpt lat="49.87557" lon="1.9723">
        <ele>112.8</ele>
        <time>2023-05-03T13:27:53Z</time>
      </trkpt>
      <trkpt lat="49.87556" lon="1.97231">
        <ele>112.7</ele>
        <time>2023-05-03T13:27:55Z</time>
      </trkpt>
      <trkpt lat="49.87554" lon="1.97232">
        <ele>112.5</ele>
        <time>2023-05-03T13:27:56Z</time>
      </trkpt>
      <trkpt lat="49.87553" lon="1.97233">
        <ele>112.3</ele>
        <time>2023-05-03T13:27:57Z</time>
      </trkpt>
      <trkpt lat="49.87552" lon="1.97234">
        <ele>112.2</ele>
        <time>2023-05-03T13:27:58Z</time>
      </trkpt>
      <trkpt lat="49.8755" lon="1.97235">
        <ele>112</ele>
        <time>2023-05-03T13:27:59Z</time>
      </trkpt>
      <trkpt lat="49.87549" lon="1.97237">
        <ele>111.8</ele>
        <time>2023-05-03T13:28:00Z</time>
      </trkpt>
      <trkpt lat="49.87548" lon="1.97239">
        <ele>111.5</ele>
        <time>2023-05-03T13:28:01Z</time>
      </trkpt>
      <trkpt lat="49.87547" lon="1.9724">
        <ele>111.4</ele>
        <time>2023-05-03T13:28:02Z</time>
      </trkpt>
      <trkpt lat="49.87546" lon="1.9724">
        <ele>111.3</ele>
        <time>2023-05-03T13:28:03Z</time>
      </trkpt>
      <trkpt lat="49.87545" lon="1.97242">
        <ele>111.1</ele>
        <time>2023-05-03T13:28:04Z</time>
      </trkpt>
      <trkpt lat="49.87544" lon="1.97243">
        <ele>111</ele>
        <time>2023-05-03T13:28:05Z</time>
      </trkpt>
      <trkpt lat="49.87542" lon="1.97246">
        <ele>110.7</ele>
        <time>2023-05-03T13:28:07Z</time>
      </trkpt>
      <trkpt lat="49.87542" lon="1.97246">
        <ele>110.6</ele>
        <time>2023-05-03T13:28:08Z</time>
      </trkpt>
      <trkpt lat="49.87541" lon="1.97247">
        <ele>110.5</ele>
        <time>2023-05-03T13:28:09Z</time>
      </trkpt>
      <trkpt lat="49.8754" lon="1.97249">
        <ele>110.3</ele>
        <time>2023-05-03T13:28:10Z</time>
      </trkpt>
      <trkpt lat="49.87539" lon="1.9725">
        <ele>110.2</ele>
        <time>2023-05-03T13:28:11Z</time>
      </trkpt>
      <trkpt lat="49.87539" lon="1.97251">
        <ele>110.1</ele>
        <time>2023-05-03T13:28:12Z</time>
      </trkpt>
      <trkpt lat="49.87538" lon="1.97252">
        <ele>110</ele>
        <time>2023-05-03T13:28:13Z</time>
      </trkpt>
      <trkpt lat="49.87537" lon="1.97253">
        <ele>109.9</ele>
        <time>2023-05-03T13:28:14Z</time>
      </trkpt>
      <trkpt lat="49.87536" lon="1.97255">
        <ele>109.8</ele>
        <time>2023-05-03T13:28:15Z</time>
      </trkpt>
      <trkpt lat="49.87536" lon="1.97256">
        <ele>109.6</ele>
        <time>2023-05-03T13:28:16Z</time>
      </trkpt>
      <trkpt lat="49.87535" lon="1.97258">
        <ele>109.5</ele>
        <time>2023-05-03T13:28:18Z</time>
      </trkpt>
      <trkpt lat="49.87534" lon="1.97259">
        <ele>109.4</ele>
        <time>2023-05-03T13:28:19Z</time>
      </trkpt>
      <trkpt lat="49.87533" lon="1.9726">
        <ele>109.3</ele>
        <time>2023-05-03T13:28:20Z</time>
      </trkpt>
      <trkpt lat="49.87532" lon="1.97262">
        <ele>109.2</ele>
        <time>2023-05-03T13:28:21Z</time>
      </trkpt>
      <trkpt lat="49.87532" lon="1.97263">
        <ele>109.1</ele>
        <time>2023-05-03T13:28:22Z</time>
      </trkpt>
      <trkpt lat="49.87531" lon="1.97264">
        <ele>109</ele>
        <time>2023-05-03T13:28:23Z</time>
      </trkpt>
      <trkpt lat="49.8753" lon="1.97265">
        <ele>108.9</ele>
        <time>2023-05-03T13:28:24Z</time>
      </trkpt>
      <trkpt lat="49.87529" lon="1.97266">
        <ele>108.8</ele>
        <time>2023-05-03T13:28:26Z</time>
      </trkpt>
      <trkpt lat="49.87528" lon="1.97268">
        <ele>108.6</ele>
        <time>2023-05-03T13:28:27Z</time>
      </trkpt>
      <trkpt lat="49.87527" lon="1.97269">
        <ele>108.5</ele>
        <time>2023-05-03T13:28:28Z</time>
      </trkpt>
      <trkpt lat="49.87526" lon="1.97271">
        <ele>108.3</ele>
        <time>2023-05-03T13:28:29Z</time>
      </trkpt>
      <trkpt lat="49.87525" lon="1.97272">
        <ele>108.2</ele>
        <time>2023-05-03T13:28:30Z</time>
      </trkpt>
      <trkpt lat="49.87524" lon="1.97274">
        <ele>108</ele>
        <time>2023-05-03T13:28:31Z</time>
      </trkpt>
      <trkpt lat="49.87523" lon="1.97275">
        <ele>107.8</ele>
        <time>2023-05-03T13:28:32Z</time>
      </trkpt>
      <trkpt lat="49.87522" lon="1.97277">
        <ele>107.7</ele>
        <time>2023-05-03T13:28:33Z</time>
      </trkpt>
      <trkpt lat="49.87521" lon="1.97278">
        <ele>107.5</ele>
        <time>2023-05-03T13:28:35Z</time>
      </trkpt>
      <trkpt lat="49.87519" lon="1.97279">
        <ele>107.3</ele>
        <time>2023-05-03T13:28:36Z</time>
      </trkpt>
      <trkpt lat="49.87518" lon="1.9728">
        <ele>107</ele>
        <time>2023-05-03T13:28:37Z</time>
      </trkpt>
      <trkpt lat="49.87517" lon="1.97282">
        <ele>106.8</ele>
        <time>2023-05-03T13:28:38Z</time>
      </trkpt>
      <trkpt lat="49.87515" lon="1.97283">
        <ele>106.6</ele>
        <time>2023-05-03T13:28:39Z</time>
      </trkpt>
      <trkpt lat="49.87514" lon="1.97284">
        <ele>106.3</ele>
        <time>2023-05-03T13:28:40Z</time>
      </trkpt>
      <trkpt lat="49.87513" lon="1.97286">
        <ele>106.1</ele>
        <time>2023-05-03T13:28:41Z</time>
      </trkpt>
      <trkpt lat="49.87512" lon="1.97287">
        <ele>106</ele>
        <time>2023-05-03T13:28:42Z</time>
      </trkpt>
      <trkpt lat="49.87511" lon="1.97289">
        <ele>105.8</ele>
        <time>2023-05-03T13:28:43Z</time>
      </trkpt>
      <trkpt lat="49.8751" lon="1.9729">
        <ele>105.7</ele>
        <time>2023-05-03T13:28:44Z</time>
      </trkpt>
      <trkpt lat="49.87509" lon="1.97292">
        <ele>105.4</ele>
        <time>2023-05-03T13:28:45Z</time>
      </trkpt>
      <trkpt lat="49.87508" lon="1.97293">
        <ele>105.3</ele>
        <time>2023-05-03T13:28:46Z</time>
      </trkpt>
      <trkpt lat="49.87508" lon="1.97294">
        <ele>105.1</ele>
        <time>2023-05-03T13:28:47Z</time>
      </trkpt>
      <trkpt lat="49.87507" lon="1.97296">
        <ele>104.9</ele>
        <time>2023-05-03T13:28:49Z</time>
      </trkpt>
      <trkpt lat="49.87506" lon="1.97297">
        <ele>104.8</ele>
        <time>2023-05-03T13:28:50Z</time>
      </trkpt>
      <trkpt lat="49.87506" lon="1.97298">
        <ele>104.7</ele>
        <time>2023-05-03T13:28:51Z</time>
      </trkpt>
      <trkpt lat="49.87504" lon="1.97301">
        <ele>104.4</ele>
        <time>2023-05-03T13:28:52Z</time>
      </trkpt>
      <trkpt lat="49.87504" lon="1.97302">
        <ele>104.3</ele>
        <time>2023-05-03T13:28:53Z</time>
      </trkpt>
      <trkpt lat="49.87503" lon="1.97303">
        <ele>104.1</ele>
        <time>2023-05-03T13:28:54Z</time>
      </trkpt>
      <trkpt lat="49.87503" lon="1.97305">
        <ele>104</ele>
        <time>2023-05-03T13:28:55Z</time>
      </trkpt>
      <trkpt lat="49.87502" lon="1.97306">
        <ele>103.8</ele>
        <time>2023-05-03T13:28:56Z</time>
      </trkpt>
      <trkpt lat="49.87502" lon="1.97308">
        <ele>103.7</ele>
        <time>2023-05-03T13:28:57Z</time>
      </trkpt>
      <trkpt lat="49.87501" lon="1.97309">
        <ele>103.5</ele>
        <time>2023-05-03T13:28:58Z</time>
      </trkpt>
      <trkpt lat="49.87501" lon="1.97311">
        <ele>103.4</ele>
        <time>2023-05-03T13:28:59Z</time>
      </trkpt>
      <trkpt lat="49.87501" lon="1.97312">
        <ele>103.2</ele>
        <time>2023-05-03T13:29:00Z</time>
      </trkpt>
      <trkpt lat="49.875" lon="1.97314">
        <ele>103.1</ele>
        <time>2023-05-03T13:29:01Z</time>
      </trkpt>
      <trkpt lat="49.87499" lon="1.97315">
        <ele>102.9</ele>
        <time>2023-05-03T13:29:02Z</time>
      </trkpt>
      <trkpt lat="49.87499" lon="1.97317">
        <ele>102.7</ele>
        <time>2023-05-03T13:29:03Z</time>
      </trkpt>
      <trkpt lat="49.87498" lon="1.97318">
        <ele>102.6</ele>
        <time>2023-05-03T13:29:04Z</time>
      </trkpt>
      <trkpt lat="49.87498" lon="1.9732">
        <ele>102.4</ele>
        <time>2023-05-03T13:29:06Z</time>
      </trkpt>
      <trkpt lat="49.87497" lon="1.97321">
        <ele>102.3</ele>
        <time>2023-05-03T13:29:07Z</time>
      </trkpt>
      <trkpt lat="49.87497" lon="1.97323">
        <ele>102.1</ele>
        <time>2023-05-03T13:29:08Z</time>
      </trkpt>
      <trkpt lat="49.87496" lon="1.97324">
        <ele>102</ele>
        <time>2023-05-03T13:29:09Z</time>
      </trkpt>
      <trkpt lat="49.87495" lon="1.97326">
        <ele>101.8</ele>
        <time>2023-05-03T13:29:10Z</time>
      </trkpt>
      <trkpt lat="49.87495" lon="1.97327">
        <ele>101.7</ele>
        <time>2023-05-03T13:29:11Z</time>
      </trkpt>
      <trkpt lat="49.87494" lon="1.97328">
        <ele>101.6</ele>
        <time>2023-05-03T13:29:12Z</time>
      </trkpt>
      <trkpt lat="49.87494" lon="1.97329">
        <ele>101.4</ele>
        <time>2023-05-03T13:29:13Z</time>
      </trkpt>
      <trkpt lat="49.87493" lon="1.9733">
        <ele>101.3</ele>
        <time>2023-05-03T13:29:14Z</time>
      </trkpt>
      <trkpt lat="49.87493" lon="1.97332">
        <ele>101.2</ele>
        <time>2023-05-03T13:29:15Z</time>
      </trkpt>
      <trkpt lat="49.87492" lon="1.97333">
        <ele>101</ele>
        <time>2023-05-03T13:29:17Z</time>
      </trkpt>
      <trkpt lat="49.87492" lon="1.97334">
        <ele>100.9</ele>
        <time>2023-05-03T13:29:18Z</time>
      </trkpt>
      <trkpt lat="49.87491" lon="1.97336">
        <ele>100.8</ele>
        <time>2023-05-03T13:29:19Z</time>
      </trkpt>
      <trkpt lat="49.87491" lon="1.97337">
        <ele>100.6</ele>
        <time>2023-05-03T13:29:20Z</time>
      </trkpt>
      <trkpt lat="49.8749" lon="1.97339">
        <ele>100.5</ele>
        <time>2023-05-03T13:29:21Z</time>
      </trkpt>
      <trkpt lat="49.87489" lon="1.9734">
        <ele>100.3</ele>
        <time>2023-05-03T13:29:22Z</time>
      </trkpt>
      <trkpt lat="49.87489" lon="1.97342">
        <ele>100.2</ele>
        <time>2023-05-03T13:29:23Z</time>
      </trkpt>
      <trkpt lat="49.87488" lon="1.97343">
        <ele>100</ele>
        <time>2023-05-03T13:29:24Z</time>
      </trkpt>
      <trkpt lat="49.87487" lon="1.97345">
        <ele>99.9</ele>
        <time>2023-05-03T13:29:25Z</time>
      </trkpt>
      <trkpt lat="49.87487" lon="1.97346">
        <ele>99.7</ele>
        <time>2023-05-03T13:29:26Z</time>
      </trkpt>
      <trkpt lat="49.87486" lon="1.97348">
        <ele>99.6</ele>
        <time>2023-05-03T13:29:27Z</time>
      </trkpt>
      <trkpt lat="49.87485" lon="1.97349">
        <ele>99.5</ele>
        <time>2023-05-03T13:29:28Z</time>
      </trkpt>
      <trkpt lat="49.87484" lon="1.9735">
        <ele>99.3</ele>
        <time>2023-05-03T13:29:30Z</time>
      </trkpt>
      <trkpt lat="49.87482" lon="1.97352">
        <ele>99</ele>
        <time>2023-05-03T13:29:31Z</time>
      </trkpt>
      <trkpt lat="49.87481" lon="1.97352">
        <ele>98.9</ele>
        <time>2023-05-03T13:29:32Z</time>
      </trkpt>
      <trkpt lat="49.87481" lon="1.97353">
        <ele>98.8</ele>
        <time>2023-05-03T13:29:33Z</time>
      </trkpt>
      <trkpt lat="49.87479" lon="1.97355">
        <ele>98.5</ele>
        <time>2023-05-03T13:29:34Z</time>
      </trkpt>
      <trkpt lat="49.87478" lon="1.97355">
        <ele>98.4</ele>
        <time>2023-05-03T13:29:35Z</time>
      </trkpt>
      <trkpt lat="49.87478" lon="1.97356">
        <ele>98.3</ele>
        <time>2023-05-03T13:29:36Z</time>
      </trkpt>
      <trkpt lat="49.87477" lon="1.97357">
        <ele>98.2</ele>
        <time>2023-05-03T13:29:37Z</time>
      </trkpt>
      <trkpt lat="49.87476" lon="1.97359">
        <ele>98</ele>
        <time>2023-05-03T13:29:38Z</time>
      </trkpt>
      <trkpt lat="49.87475" lon="1.9736">
        <ele>97.7</ele>
        <time>2023-05-03T13:29:40Z</time>
      </trkpt>
      <trkpt lat="49.87473" lon="1.97362">
        <ele>97.5</ele>
        <time>2023-05-03T13:29:41Z</time>
      </trkpt>
      <trkpt lat="49.87473" lon="1.97363">
        <ele>97.3</ele>
        <time>2023-05-03T13:29:42Z</time>
      </trkpt>
      <trkpt lat="49.87472" lon="1.97364">
        <ele>97.2</ele>
        <time>2023-05-03T13:29:43Z</time>
      </trkpt>
      <trkpt lat="49.87471" lon="1.97365">
        <ele>97.1</ele>
        <time>2023-05-03T13:29:44Z</time>
      </trkpt>
      <trkpt lat="49.8747" lon="1.97366">
        <ele>96.9</ele>
        <time>2023-05-03T13:29:45Z</time>
      </trkpt>
      <trkpt lat="49.87468" lon="1.97368">
        <ele>96.6</ele>
        <time>2023-05-03T13:29:47Z</time>
      </trkpt>
      <trkpt lat="49.87467" lon="1.97369">
        <ele>96.5</ele>
        <time>2023-05-03T13:29:48Z</time>
      </trkpt>
      <trkpt lat="49.87466" lon="1.97369">
        <ele>96.4</ele>
        <time>2023-05-03T13:29:49Z</time>
      </trkpt>
      <trkpt lat="49.87465" lon="1.97371">
        <ele>96.2</ele>
        <time>2023-05-03T13:29:50Z</time>
      </trkpt>
      <trkpt lat="49.87464" lon="1.97372">
        <ele>96.1</ele>
        <time>2023-05-03T13:29:51Z</time>
      </trkpt>
      <trkpt lat="49.87463" lon="1.97373">
        <ele>96</ele>
        <time>2023-05-03T13:29:52Z</time>
      </trkpt>
      <trkpt lat="49.87462" lon="1.97375">
        <ele>95.8</ele>
        <time>2023-05-03T13:29:54Z</time>
      </trkpt>
      <trkpt lat="49.87461" lon="1.97377">
        <ele>95.6</ele>
        <time>2023-05-03T13:29:55Z</time>
      </trkpt>
      <trkpt lat="49.8746" lon="1.97378">
        <ele>95.4</ele>
        <time>2023-05-03T13:29:56Z</time>
      </trkpt>
      <trkpt lat="49.87459" lon="1.9738">
        <ele>95.2</ele>
        <time>2023-05-03T13:29:57Z</time>
      </trkpt>
      <trkpt lat="49.87458" lon="1.97381">
        <ele>95.1</ele>
        <time>2023-05-03T13:29:58Z</time>
      </trkpt>
      <trkpt lat="49.87457" lon="1.97383">
        <ele>94.9</ele>
        <time>2023-05-03T13:29:59Z</time>
      </trkpt>
      <trkpt lat="49.87455" lon="1.97384">
        <ele>94.7</ele>
        <time>2023-05-03T13:30:00Z</time>
      </trkpt>
      <trkpt lat="49.87454" lon="1.97386">
        <ele>94.5</ele>
        <time>2023-05-03T13:30:01Z</time>
      </trkpt>
      <trkpt lat="49.87453" lon="1.97387">
        <ele>94.3</ele>
        <time>2023-05-03T13:30:02Z</time>
      </trkpt>
      <trkpt lat="49.87452" lon="1.97389">
        <ele>94.1</ele>
        <time>2023-05-03T13:30:03Z</time>
      </trkpt>
      <trkpt lat="49.8745" lon="1.97391">
        <ele>93.7</ele>
        <time>2023-05-03T13:30:05Z</time>
      </trkpt>
      <trkpt lat="49.87449" lon="1.97391">
        <ele>93.6</ele>
        <time>2023-05-03T13:30:06Z</time>
      </trkpt>
      <trkpt lat="49.87449" lon="1.97392">
        <ele>93.5</ele>
        <time>2023-05-03T13:30:07Z</time>
      </trkpt>
      <trkpt lat="49.87448" lon="1.97393">
        <ele>93.3</ele>
        <time>2023-05-03T13:30:08Z</time>
      </trkpt>
      <trkpt lat="49.87447" lon="1.97394">
        <ele>93.2</ele>
        <time>2023-05-03T13:30:09Z</time>
      </trkpt>
      <trkpt lat="49.87446" lon="1.97394">
        <ele>93</ele>
        <time>2023-05-03T13:30:10Z</time>
      </trkpt>
      <trkpt lat="49.87444" lon="1.97395">
        <ele>92.8</ele>
        <time>2023-05-03T13:30:11Z</time>
      </trkpt>
      <trkpt lat="49.87443" lon="1.97396">
        <ele>92.6</ele>
        <time>2023-05-03T13:30:12Z</time>
      </trkpt>
      <trkpt lat="49.87443" lon="1.97397">
        <ele>92.5</ele>
        <time>2023-05-03T13:30:13Z</time>
      </trkpt>
      <trkpt lat="49.87442" lon="1.97397">
        <ele>92.3</ele>
        <time>2023-05-03T13:30:15Z</time>
      </trkpt>
      <trkpt lat="49.87441" lon="1.97398">
        <ele>92.1</ele>
        <time>2023-05-03T13:30:16Z</time>
      </trkpt>
      <trkpt lat="49.8744" lon="1.97399">
        <ele>92</ele>
        <time>2023-05-03T13:30:17Z</time>
      </trkpt>
      <trkpt lat="49.87439" lon="1.97401">
        <ele>91.8</ele>
        <time>2023-05-03T13:30:18Z</time>
      </trkpt>
      <trkpt lat="49.87439" lon="1.97402">
        <ele>91.6</ele>
        <time>2023-05-03T13:30:19Z</time>
      </trkpt>
      <trkpt lat="49.87438" lon="1.97403">
        <ele>91.5</ele>
        <time>2023-05-03T13:30:20Z</time>
      </trkpt>
      <trkpt lat="49.87437" lon="1.97404">
        <ele>91.3</ele>
        <time>2023-05-03T13:30:21Z</time>
      </trkpt>
      <trkpt lat="49.87437" lon="1.97405">
        <ele>91.2</ele>
        <time>2023-05-03T13:30:22Z</time>
      </trkpt>
      <trkpt lat="49.87436" lon="1.97406">
        <ele>91</ele>
        <time>2023-05-03T13:30:23Z</time>
      </trkpt>
      <trkpt lat="49.87436" lon="1.97408">
        <ele>90.9</ele>
        <time>2023-05-03T13:30:24Z</time>
      </trkpt>
      <trkpt lat="49.87435" lon="1.97409">
        <ele>90.7</ele>
        <time>2023-05-03T13:30:26Z</time>
      </trkpt>
      <trkpt lat="49.87435" lon="1.9741">
        <ele>90.5</ele>
        <time>2023-05-03T13:30:27Z</time>
      </trkpt>
      <trkpt lat="49.87434" lon="1.97412">
        <ele>90.4</ele>
        <time>2023-05-03T13:30:28Z</time>
      </trkpt>
      <trkpt lat="49.87434" lon="1.97413">
        <ele>90.2</ele>
        <time>2023-05-03T13:30:29Z</time>
      </trkpt>
      <trkpt lat="49.87433" lon="1.97414">
        <ele>90.1</ele>
        <time>2023-05-03T13:30:30Z</time>
      </trkpt>
      <trkpt lat="49.87432" lon="1.97416">
        <ele>89.9</ele>
        <time>2023-05-03T13:30:31Z</time>
      </trkpt>
      <trkpt lat="49.87432" lon="1.97417">
        <ele>89.7</ele>
        <time>2023-05-03T13:30:32Z</time>
      </trkpt>
      <trkpt lat="49.87431" lon="1.97418">
        <ele>89.6</ele>
        <time>2023-05-03T13:30:33Z</time>
      </trkpt>
      <trkpt lat="49.8743" lon="1.9742">
        <ele>89.4</ele>
        <time>2023-05-03T13:30:35Z</time>
      </trkpt>
      <trkpt lat="49.87429" lon="1.97421">
        <ele>89.2</ele>
        <time>2023-05-03T13:30:36Z</time>
      </trkpt>
      <trkpt lat="49.87428" lon="1.97422">
        <ele>89</ele>
        <time>2023-05-03T13:30:37Z</time>
      </trkpt>
      <trkpt lat="49.87427" lon="1.97424">
        <ele>88.7</ele>
        <time>2023-05-03T13:30:38Z</time>
      </trkpt>
      <trkpt lat="49.87426" lon="1.97425">
        <ele>88.6</ele>
        <time>2023-05-03T13:30:39Z</time>
      </trkpt>
      <trkpt lat="49.87426" lon="1.97426">
        <ele>88.4</ele>
        <time>2023-05-03T13:30:40Z</time>
      </trkpt>
      <trkpt lat="49.87425" lon="1.97427">
        <ele>88.2</ele>
        <time>2023-05-03T13:30:41Z</time>
      </trkpt>
      <trkpt lat="49.87423" lon="1.97429">
        <ele>87.9</ele>
        <time>2023-05-03T13:30:43Z</time>
      </trkpt>
      <trkpt lat="49.87422" lon="1.9743">
        <ele>87.8</ele>
        <time>2023-05-03T13:30:44Z</time>
      </trkpt>
      <trkpt lat="49.87421" lon="1.97431">
        <ele>87.6</ele>
        <time>2023-05-03T13:30:46Z</time>
      </trkpt>
      <trkpt lat="49.87421" lon="1.9743">
        <ele>87.5</ele>
        <time>2023-05-03T13:30:47Z</time>
      </trkpt>
      <trkpt lat="49.87421" lon="1.97429">
        <ele>87.4</ele>
        <time>2023-05-03T13:30:48Z</time>
      </trkpt>
      <trkpt lat="49.87421" lon="1.97428">
        <ele>87.4</ele>
        <time>2023-05-03T13:30:50Z</time>
      </trkpt>
      <trkpt lat="49.87421" lon="1.97428">
        <ele>87.3</ele>
        <time>2023-05-03T13:30:51Z</time>
      </trkpt>
      <trkpt lat="49.87421" lon="1.97428">
        <ele>87.3</ele>
        <time>2023-05-03T13:30:52Z</time>
      </trkpt>
      <trkpt lat="49.8742" lon="1.97428">
        <ele>87.3</ele>
        <time>2023-05-03T13:30:54Z</time>
      </trkpt>
      <trkpt lat="49.8742" lon="1.97428">
        <ele>87.3</ele>
        <time>2023-05-03T13:30:55Z</time>
      </trkpt>
      <trkpt lat="49.8742" lon="1.97428">
        <ele>87.3</ele>
        <time>2023-05-03T13:30:57Z</time>
      </trkpt>
      <trkpt lat="49.8742" lon="1.97428">
        <ele>87.3</ele>
        <time>2023-05-03T13:30:58Z</time>
      </trkpt>
      <trkpt lat="49.8742" lon="1.97428">
        <ele>87.3</ele>
        <time>2023-05-03T13:30:59Z</time>
      </trkpt>
      <trkpt lat="49.8742" lon="1.97428">
        <ele>87.2</ele>
        <time>2023-05-03T13:31:01Z</time>
      </trkpt>
      <trkpt lat="49.8742" lon="1.97428">
        <ele>87.2</ele>
        <time>2023-05-03T13:31:02Z</time>
      </trkpt>
      <trkpt lat="49.8742" lon="1.97427">
        <ele>87.2</ele>
        <time>2023-05-03T13:31:03Z</time>
      </trkpt>
      <trkpt lat="49.8742" lon="1.97427">
        <ele>87.2</ele>
        <time>2023-05-03T13:31:04Z</time>
      </trkpt>
      <trkpt lat="49.8742" lon="1.97427">
        <ele>87.2</ele>
        <time>2023-05-03T13:31:05Z</time>
      </trkpt>
      <trkpt lat="49.8742" lon="1.97427">
        <ele>87.2</ele>
        <time>2023-05-03T13:31:06Z</time>
      </trkpt>
      <trkpt lat="49.8742" lon="1.97427">
        <ele>87.2</ele>
        <time>2023-05-03T13:31:07Z</time>
      </trkpt>
      <trkpt lat="49.8742" lon="1.97428">
        <ele>87.1</ele>
        <time>2023-05-03T13:31:08Z</time>
      </trkpt>
      <trkpt lat="49.87419" lon="1.97429">
        <ele>87</ele>
        <time>2023-05-03T13:31:09Z</time>
      </trkpt>
      <trkpt lat="49.87419" lon="1.97429">
        <ele>86.9</ele>
        <time>2023-05-03T13:31:11Z</time>
      </trkpt>
      <trkpt lat="49.87418" lon="1.9743">
        <ele>86.8</ele>
        <time>2023-05-03T13:31:12Z</time>
      </trkpt>
      <trkpt lat="49.87418" lon="1.9743">
        <ele>86.7</ele>
        <time>2023-05-03T13:31:13Z</time>
      </trkpt>
      <trkpt lat="49.87417" lon="1.97431">
        <ele>86.6</ele>
        <time>2023-05-03T13:31:14Z</time>
      </trkpt>
      <trkpt lat="49.87416" lon="1.97432">
        <ele>86.4</ele>
        <time>2023-05-03T13:31:15Z</time>
      </trkpt>
      <trkpt lat="49.87415" lon="1.97433">
        <ele>86.2</ele>
        <time>2023-05-03T13:31:16Z</time>
      </trkpt>
      <trkpt lat="49.87414" lon="1.97434">
        <ele>86</ele>
        <time>2023-05-03T13:31:17Z</time>
      </trkpt>
      <trkpt lat="49.87412" lon="1.97435">
        <ele>85.8</ele>
        <time>2023-05-03T13:31:18Z</time>
      </trkpt>
      <trkpt lat="49.87411" lon="1.97436">
        <ele>85.6</ele>
        <time>2023-05-03T13:31:20Z</time>
      </trkpt>
      <trkpt lat="49.8741" lon="1.97437">
        <ele>85.4</ele>
        <time>2023-05-03T13:31:21Z</time>
      </trkpt>
      <trkpt lat="49.87408" lon="1.97439">
        <ele>85.2</ele>
        <time>2023-05-03T13:31:22Z</time>
      </trkpt>
      <trkpt lat="49.87408" lon="1.9744">
        <ele>85</ele>
        <time>2023-05-03T13:31:23Z</time>
      </trkpt>
      <trkpt lat="49.87407" lon="1.97441">
        <ele>84.9</ele>
        <time>2023-05-03T13:31:24Z</time>
      </trkpt>
      <trkpt lat="49.87405" lon="1.97443">
        <ele>84.6</ele>
        <time>2023-05-03T13:31:25Z</time>
      </trkpt>
      <trkpt lat="49.87404" lon="1.97443">
        <ele>84.5</ele>
        <time>2023-05-03T13:31:26Z</time>
      </trkpt>
      <trkpt lat="49.87403" lon="1.97444">
        <ele>84.4</ele>
        <time>2023-05-03T13:31:27Z</time>
      </trkpt>
      <trkpt lat="49.87401" lon="1.97445">
        <ele>84.1</ele>
        <time>2023-05-03T13:31:29Z</time>
      </trkpt>
      <trkpt lat="49.87401" lon="1.97446">
        <ele>84</ele>
        <time>2023-05-03T13:31:30Z</time>
      </trkpt>
      <trkpt lat="49.874" lon="1.97447">
        <ele>83.8</ele>
        <time>2023-05-03T13:31:31Z</time>
      </trkpt>
      <trkpt lat="49.87399" lon="1.97447">
        <ele>83.7</ele>
        <time>2023-05-03T13:31:32Z</time>
      </trkpt>
      <trkpt lat="49.87398" lon="1.97448">
        <ele>83.6</ele>
        <time>2023-05-03T13:31:33Z</time>
      </trkpt>
      <trkpt lat="49.87398" lon="1.97449">
        <ele>83.4</ele>
        <time>2023-05-03T13:31:34Z</time>
      </trkpt>
      <trkpt lat="49.87397" lon="1.9745">
        <ele>83.3</ele>
        <time>2023-05-03T13:31:35Z</time>
      </trkpt>
      <trkpt lat="49.87396" lon="1.97451">
        <ele>83.2</ele>
        <time>2023-05-03T13:31:36Z</time>
      </trkpt>
      <trkpt lat="49.87395" lon="1.97453">
        <ele>82.9</ele>
        <time>2023-05-03T13:31:38Z</time>
      </trkpt>
      <trkpt lat="49.87395" lon="1.97453">
        <ele>82.9</ele>
        <time>2023-05-03T13:31:39Z</time>
      </trkpt>
      <trkpt lat="49.87394" lon="1.97455">
        <ele>82.7</ele>
        <time>2023-05-03T13:31:40Z</time>
      </trkpt>
      <trkpt lat="49.87393" lon="1.97456">
        <ele>82.6</ele>
        <time>2023-05-03T13:31:41Z</time>
      </trkpt>
      <trkpt lat="49.87393" lon="1.97457">
        <ele>82.4</ele>
        <time>2023-05-03T13:31:42Z</time>
      </trkpt>
      <trkpt lat="49.87392" lon="1.97458">
        <ele>82.3</ele>
        <time>2023-05-03T13:31:43Z</time>
      </trkpt>
      <trkpt lat="49.87391" lon="1.97459">
        <ele>82.2</ele>
        <time>2023-05-03T13:31:44Z</time>
      </trkpt>
      <trkpt lat="49.87391" lon="1.9746">
        <ele>82.1</ele>
        <time>2023-05-03T13:31:45Z</time>
      </trkpt>
      <trkpt lat="49.8739" lon="1.97461">
        <ele>82</ele>
        <time>2023-05-03T13:31:46Z</time>
      </trkpt>
      <trkpt lat="49.87389" lon="1.97462">
        <ele>81.8</ele>
        <time>2023-05-03T13:31:47Z</time>
      </trkpt>
      <trkpt lat="49.87388" lon="1.97463">
        <ele>81.6</ele>
        <time>2023-05-03T13:31:49Z</time>
      </trkpt>
      <trkpt lat="49.87387" lon="1.97464">
        <ele>81.5</ele>
        <time>2023-05-03T13:31:50Z</time>
      </trkpt>
      <trkpt lat="49.87386" lon="1.97465">
        <ele>81.3</ele>
        <time>2023-05-03T13:31:51Z</time>
      </trkpt>
      <trkpt lat="49.87385" lon="1.97466">
        <ele>81.2</ele>
        <time>2023-05-03T13:31:52Z</time>
      </trkpt>
      <trkpt lat="49.87383" lon="1.97468">
        <ele>80.9</ele>
        <time>2023-05-03T13:31:53Z</time>
      </trkpt>
      <trkpt lat="49.87383" lon="1.97469">
        <ele>80.8</ele>
        <time>2023-05-03T13:31:54Z</time>
      </trkpt>
      <trkpt lat="49.87382" lon="1.9747">
        <ele>80.7</ele>
        <time>2023-05-03T13:31:55Z</time>
      </trkpt>
      <trkpt lat="49.87381" lon="1.97471">
        <ele>80.5</ele>
        <time>2023-05-03T13:31:56Z</time>
      </trkpt>
      <trkpt lat="49.8738" lon="1.97472">
        <ele>80.4</ele>
        <time>2023-05-03T13:31:57Z</time>
      </trkpt>
      <trkpt lat="49.87379" lon="1.97473">
        <ele>80.2</ele>
        <time>2023-05-03T13:31:59Z</time>
      </trkpt>
      <trkpt lat="49.87378" lon="1.97474">
        <ele>80.1</ele>
        <time>2023-05-03T13:32:00Z</time>
      </trkpt>
      <trkpt lat="49.87377" lon="1.97474">
        <ele>79.9</ele>
        <time>2023-05-03T13:32:01Z</time>
      </trkpt>
      <trkpt lat="49.87376" lon="1.97475">
        <ele>79.8</ele>
        <time>2023-05-03T13:32:02Z</time>
      </trkpt>
      <trkpt lat="49.87375" lon="1.97476">
        <ele>79.7</ele>
        <time>2023-05-03T13:32:03Z</time>
      </trkpt>
      <trkpt lat="49.87374" lon="1.97477">
        <ele>79.5</ele>
        <time>2023-05-03T13:32:04Z</time>
      </trkpt>
      <trkpt lat="49.87373" lon="1.97477">
        <ele>79.4</ele>
        <time>2023-05-03T13:32:05Z</time>
      </trkpt>
      <trkpt lat="49.87371" lon="1.97478">
        <ele>79.3</ele>
        <time>2023-05-03T13:32:06Z</time>
      </trkpt>
      <trkpt lat="49.8737" lon="1.97479">
        <ele>79.2</ele>
        <time>2023-05-03T13:32:07Z</time>
      </trkpt>
      <trkpt lat="49.87369" lon="1.9748">
        <ele>79</ele>
        <time>2023-05-03T13:32:08Z</time>
      </trkpt>
      <trkpt lat="49.87368" lon="1.97481">
        <ele>78.9</ele>
        <time>2023-05-03T13:32:09Z</time>
      </trkpt>
      <trkpt lat="49.87367" lon="1.97482">
        <ele>78.8</ele>
        <time>2023-05-03T13:32:10Z</time>
      </trkpt>
      <trkpt lat="49.87366" lon="1.97483">
        <ele>78.7</ele>
        <time>2023-05-03T13:32:12Z</time>
      </trkpt>
      <trkpt lat="49.87365" lon="1.97484">
        <ele>78.6</ele>
        <time>2023-05-03T13:32:13Z</time>
      </trkpt>
      <trkpt lat="49.87364" lon="1.97484">
        <ele>78.5</ele>
        <time>2023-05-03T13:32:14Z</time>
      </trkpt>
      <trkpt lat="49.87364" lon="1.97483">
        <ele>78.5</ele>
        <time>2023-05-03T13:32:15Z</time>
      </trkpt>
      <trkpt lat="49.87363" lon="1.97483">
        <ele>78.4</ele>
        <time>2023-05-03T13:32:16Z</time>
      </trkpt>
      <trkpt lat="49.87362" lon="1.97483">
        <ele>78.4</ele>
        <time>2023-05-03T13:32:18Z</time>
      </trkpt>
      <trkpt lat="49.87362" lon="1.97485">
        <ele>78.3</ele>
        <time>2023-05-03T13:32:19Z</time>
      </trkpt>
      <trkpt lat="49.87362" lon="1.97487">
        <ele>78.2</ele>
        <time>2023-05-03T13:32:20Z</time>
      </trkpt>
      <trkpt lat="49.87361" lon="1.97488">
        <ele>78.1</ele>
        <time>2023-05-03T13:32:21Z</time>
      </trkpt>
      <trkpt lat="49.8736" lon="1.9749">
        <ele>78</ele>
        <time>2023-05-03T13:32:22Z</time>
      </trkpt>
      <trkpt lat="49.87359" lon="1.97491">
        <ele>77.9</ele>
        <time>2023-05-03T13:32:23Z</time>
      </trkpt>
      <trkpt lat="49.87357" lon="1.97492">
        <ele>77.8</ele>
        <time>2023-05-03T13:32:24Z</time>
      </trkpt>
      <trkpt lat="49.87357" lon="1.97493">
        <ele>77.7</ele>
        <time>2023-05-03T13:32:25Z</time>
      </trkpt>
      <trkpt lat="49.87356" lon="1.97494">
        <ele>77.6</ele>
        <time>2023-05-03T13:32:26Z</time>
      </trkpt>
      <trkpt lat="49.87355" lon="1.97495">
        <ele>77.5</ele>
        <time>2023-05-03T13:32:28Z</time>
      </trkpt>
      <trkpt lat="49.87354" lon="1.97496">
        <ele>77.4</ele>
        <time>2023-05-03T13:32:29Z</time>
      </trkpt>
      <trkpt lat="49.87352" lon="1.97497">
        <ele>77.3</ele>
        <time>2023-05-03T13:32:30Z</time>
      </trkpt>
      <trkpt lat="49.87352" lon="1.97498">
        <ele>77.3</ele>
        <time>2023-05-03T13:32:31Z</time>
      </trkpt>
      <trkpt lat="49.87351" lon="1.97498">
        <ele>77.2</ele>
        <time>2023-05-03T13:32:32Z</time>
      </trkpt>
      <trkpt lat="49.8735" lon="1.97499">
        <ele>77.1</ele>
        <time>2023-05-03T13:32:33Z</time>
      </trkpt>
      <trkpt lat="49.87348" lon="1.97501">
        <ele>76.9</ele>
        <time>2023-05-03T13:32:34Z</time>
      </trkpt>
      <trkpt lat="49.87347" lon="1.97502">
        <ele>76.8</ele>
        <time>2023-05-03T13:32:35Z</time>
      </trkpt>
      <trkpt lat="49.87345" lon="1.97504">
        <ele>76.7</ele>
        <time>2023-05-03T13:32:36Z</time>
      </trkpt>
      <trkpt lat="49.87343" lon="1.97506">
        <ele>76.5</ele>
        <time>2023-05-03T13:32:38Z</time>
      </trkpt>
      <trkpt lat="49.87342" lon="1.97507">
        <ele>76.4</ele>
        <time>2023-05-03T13:32:39Z</time>
      </trkpt>
      <trkpt lat="49.87341" lon="1.97508">
        <ele>76.3</ele>
        <time>2023-05-03T13:32:40Z</time>
      </trkpt>
      <trkpt lat="49.87339" lon="1.97509">
        <ele>76.2</ele>
        <time>2023-05-03T13:32:41Z</time>
      </trkpt>
      <trkpt lat="49.87338" lon="1.9751">
        <ele>76.1</ele>
        <time>2023-05-03T13:32:42Z</time>
      </trkpt>
      <trkpt lat="49.87335" lon="1.97513">
        <ele>75.9</ele>
        <time>2023-05-03T13:32:43Z</time>
      </trkpt>
      <trkpt lat="49.87334" lon="1.97514">
        <ele>75.8</ele>
        <time>2023-05-03T13:32:44Z</time>
      </trkpt>
      <trkpt lat="49.87333" lon="1.97515">
        <ele>75.7</ele>
        <time>2023-05-03T13:32:46Z</time>
      </trkpt>
      <trkpt lat="49.87332" lon="1.97516">
        <ele>75.6</ele>
        <time>2023-05-03T13:32:47Z</time>
      </trkpt>
      <trkpt lat="49.87331" lon="1.97516">
        <ele>75.6</ele>
        <time>2023-05-03T13:32:48Z</time>
      </trkpt>
      <trkpt lat="49.8733" lon="1.97517">
        <ele>75.6</ele>
        <time>2023-05-03T13:32:49Z</time>
      </trkpt>
      <trkpt lat="49.87329" lon="1.97517">
        <ele>75.5</ele>
        <time>2023-05-03T13:32:50Z</time>
      </trkpt>
      <trkpt lat="49.87329" lon="1.97517">
        <ele>75.5</ele>
        <time>2023-05-03T13:32:51Z</time>
      </trkpt>
      <trkpt lat="49.87328" lon="1.97517">
        <ele>75.4</ele>
        <time>2023-05-03T13:32:52Z</time>
      </trkpt>
      <trkpt lat="49.87327" lon="1.97518">
        <ele>75.4</ele>
        <time>2023-05-03T13:32:53Z</time>
      </trkpt>
      <trkpt lat="49.87325" lon="1.97519">
        <ele>75.4</ele>
        <time>2023-05-03T13:32:55Z</time>
      </trkpt>
      <trkpt lat="49.87324" lon="1.9752">
        <ele>75.3</ele>
        <time>2023-05-03T13:32:56Z</time>
      </trkpt>
      <trkpt lat="49.87323" lon="1.97521">
        <ele>75.3</ele>
        <time>2023-05-03T13:32:57Z</time>
      </trkpt>
      <trkpt lat="49.87322" lon="1.97522">
        <ele>75.3</ele>
        <time>2023-05-03T13:32:58Z</time>
      </trkpt>
      <trkpt lat="49.8732" lon="1.97524">
        <ele>75.2</ele>
        <time>2023-05-03T13:32:59Z</time>
      </trkpt>
      <trkpt lat="49.87319" lon="1.97524">
        <ele>75.2</ele>
        <time>2023-05-03T13:33:00Z</time>
      </trkpt>
      <trkpt lat="49.87319" lon="1.97525">
        <ele>75.2</ele>
        <time>2023-05-03T13:33:01Z</time>
      </trkpt>
      <trkpt lat="49.87317" lon="1.97526">
        <ele>75.2</ele>
        <time>2023-05-03T13:33:02Z</time>
      </trkpt>
      <trkpt lat="49.87315" lon="1.97527">
        <ele>75.1</ele>
        <time>2023-05-03T13:33:04Z</time>
      </trkpt>
      <trkpt lat="49.87314" lon="1.97528">
        <ele>75.1</ele>
        <time>2023-05-03T13:33:05Z</time>
      </trkpt>
      <trkpt lat="49.87313" lon="1.9753">
        <ele>75.1</ele>
        <time>2023-05-03T13:33:06Z</time>
      </trkpt>
      <trkpt lat="49.87312" lon="1.97531">
        <ele>75.1</ele>
        <time>2023-05-03T13:33:07Z</time>
      </trkpt>
      <trkpt lat="49.87311" lon="1.97533">
        <ele>75.1</ele>
        <time>2023-05-03T13:33:08Z</time>
      </trkpt>
      <trkpt lat="49.8731" lon="1.97535">
        <ele>75</ele>
        <time>2023-05-03T13:33:10Z</time>
      </trkpt>
      <trkpt lat="49.8731" lon="1.97538">
        <ele>75</ele>
        <time>2023-05-03T13:33:12Z</time>
      </trkpt>
      <trkpt lat="49.8731" lon="1.9754">
        <ele>75</ele>
        <time>2023-05-03T13:33:13Z</time>
      </trkpt>
      <trkpt lat="49.8731" lon="1.97541">
        <ele>75</ele>
        <time>2023-05-03T13:33:14Z</time>
      </trkpt>
      <trkpt lat="49.87309" lon="1.97542">
        <ele>75</ele>
        <time>2023-05-03T13:33:16Z</time>
      </trkpt>
      <trkpt lat="49.87307" lon="1.9754">
        <ele>74.9</ele>
        <time>2023-05-03T13:33:17Z</time>
      </trkpt>
      <trkpt lat="49.87305" lon="1.9754">
        <ele>74.9</ele>
        <time>2023-05-03T13:33:18Z</time>
      </trkpt>
      <trkpt lat="49.87304" lon="1.97541">
        <ele>74.9</ele>
        <time>2023-05-03T13:33:19Z</time>
      </trkpt>
      <trkpt lat="49.87302" lon="1.97543">
        <ele>74.8</ele>
        <time>2023-05-03T13:33:21Z</time>
      </trkpt>
      <trkpt lat="49.87302" lon="1.97544">
        <ele>74.8</ele>
        <time>2023-05-03T13:33:22Z</time>
      </trkpt>
      <trkpt lat="49.87301" lon="1.97544">
        <ele>74.8</ele>
        <time>2023-05-03T13:33:23Z</time>
      </trkpt>
      <trkpt lat="49.873" lon="1.97545">
        <ele>74.8</ele>
        <time>2023-05-03T13:33:24Z</time>
      </trkpt>
      <trkpt lat="49.873" lon="1.97546">
        <ele>74.8</ele>
        <time>2023-05-03T13:33:25Z</time>
      </trkpt>
      <trkpt lat="49.87298" lon="1.97548">
        <ele>74.7</ele>
        <time>2023-05-03T13:33:26Z</time>
      </trkpt>
      <trkpt lat="49.87297" lon="1.9755">
        <ele>74.7</ele>
        <time>2023-05-03T13:33:27Z</time>
      </trkpt>
      <trkpt lat="49.87296" lon="1.97551">
        <ele>74.7</ele>
        <time>2023-05-03T13:33:28Z</time>
      </trkpt>
      <trkpt lat="49.87295" lon="1.97552">
        <ele>74.6</ele>
        <time>2023-05-03T13:33:29Z</time>
      </trkpt>
      <trkpt lat="49.87293" lon="1.97553">
        <ele>74.6</ele>
        <time>2023-05-03T13:33:31Z</time>
      </trkpt>
      <trkpt lat="49.87292" lon="1.97554">
        <ele>74.6</ele>
        <time>2023-05-03T13:33:32Z</time>
      </trkpt>
      <trkpt lat="49.87291" lon="1.97556">
        <ele>74.6</ele>
        <time>2023-05-03T13:33:33Z</time>
      </trkpt>
      <trkpt lat="49.87289" lon="1.97557">
        <ele>74.6</ele>
        <time>2023-05-03T13:33:34Z</time>
      </trkpt>
      <trkpt lat="49.87288" lon="1.97559">
        <ele>74.6</ele>
        <time>2023-05-03T13:33:35Z</time>
      </trkpt>
      <trkpt lat="49.87287" lon="1.97561">
        <ele>74.6</ele>
        <time>2023-05-03T13:33:36Z</time>
      </trkpt>
      <trkpt lat="49.87284" lon="1.97564">
        <ele>74.5</ele>
        <time>2023-05-03T13:33:38Z</time>
      </trkpt>
      <trkpt lat="49.87284" lon="1.97564">
        <ele>74.5</ele>
        <time>2023-05-03T13:33:39Z</time>
      </trkpt>
      <trkpt lat="49.87282" lon="1.97565">
        <ele>74.5</ele>
        <time>2023-05-03T13:33:40Z</time>
      </trkpt>
      <trkpt lat="49.87281" lon="1.97566">
        <ele>74.5</ele>
        <time>2023-05-03T13:33:41Z</time>
      </trkpt>
      <trkpt lat="49.87279" lon="1.97567">
        <ele>74.5</ele>
        <time>2023-05-03T13:33:42Z</time>
      </trkpt>
      <trkpt lat="49.87278" lon="1.97567">
        <ele>74.5</ele>
        <time>2023-05-03T13:33:43Z</time>
      </trkpt>
      <trkpt lat="49.87276" lon="1.97569">
        <ele>74.5</ele>
        <time>2023-05-03T13:33:44Z</time>
      </trkpt>
      <trkpt lat="49.87275" lon="1.97569">
        <ele>74.5</ele>
        <time>2023-05-03T13:33:46Z</time>
      </trkpt>
      <trkpt lat="49.87275" lon="1.9757">
        <ele>74.5</ele>
        <time>2023-05-03T13:33:47Z</time>
      </trkpt>
      <trkpt lat="49.87273" lon="1.97571">
        <ele>74.5</ele>
        <time>2023-05-03T13:33:48Z</time>
      </trkpt>
      <trkpt lat="49.87272" lon="1.97571">
        <ele>74.6</ele>
        <time>2023-05-03T13:33:49Z</time>
      </trkpt>
      <trkpt lat="49.8727" lon="1.97573">
        <ele>74.6</ele>
        <time>2023-05-03T13:33:51Z</time>
      </trkpt>
      <trkpt lat="49.87269" lon="1.97574">
        <ele>74.6</ele>
        <time>2023-05-03T13:33:52Z</time>
      </trkpt>
      <trkpt lat="49.87267" lon="1.97575">
        <ele>74.6</ele>
        <time>2023-05-03T13:33:53Z</time>
      </trkpt>
      <trkpt lat="49.87266" lon="1.97576">
        <ele>74.6</ele>
        <time>2023-05-03T13:33:54Z</time>
      </trkpt>
      <trkpt lat="49.87265" lon="1.97577">
        <ele>74.6</ele>
        <time>2023-05-03T13:33:55Z</time>
      </trkpt>
      <trkpt lat="49.87263" lon="1.97578">
        <ele>74.6</ele>
        <time>2023-05-03T13:33:57Z</time>
      </trkpt>
      <trkpt lat="49.87261" lon="1.97579">
        <ele>74.6</ele>
        <time>2023-05-03T13:33:59Z</time>
      </trkpt>
      <trkpt lat="49.8726" lon="1.9758">
        <ele>74.7</ele>
        <time>2023-05-03T13:34:00Z</time>
      </trkpt>
      <trkpt lat="49.87258" lon="1.97581">
        <ele>74.7</ele>
        <time>2023-05-03T13:34:01Z</time>
      </trkpt>
      <trkpt lat="49.87257" lon="1.97582">
        <ele>74.7</ele>
        <time>2023-05-03T13:34:02Z</time>
      </trkpt>
      <trkpt lat="49.87257" lon="1.97582">
        <ele>74.7</ele>
        <time>2023-05-03T13:34:03Z</time>
      </trkpt>
      <trkpt lat="49.87255" lon="1.97583">
        <ele>74.7</ele>
        <time>2023-05-03T13:34:04Z</time>
      </trkpt>
      <trkpt lat="49.87254" lon="1.97584">
        <ele>74.7</ele>
        <time>2023-05-03T13:34:05Z</time>
      </trkpt>
      <trkpt lat="49.87254" lon="1.97584">
        <ele>74.7</ele>
        <time>2023-05-03T13:34:06Z</time>
      </trkpt>
      <trkpt lat="49.87254" lon="1.97584">
        <ele>74.7</ele>
        <time>2023-05-03T13:34:07Z</time>
      </trkpt>
      <trkpt lat="49.87253" lon="1.97584">
        <ele>74.7</ele>
        <time>2023-05-03T13:34:08Z</time>
      </trkpt>
      <trkpt lat="49.87253" lon="1.97585">
        <ele>74.7</ele>
        <time>2023-05-03T13:34:09Z</time>
      </trkpt>
      <trkpt lat="49.87252" lon="1.97586">
        <ele>74.6</ele>
        <time>2023-05-03T13:34:10Z</time>
      </trkpt>
      <trkpt lat="49.87251" lon="1.97587">
        <ele>74.6</ele>
        <time>2023-05-03T13:34:12Z</time>
      </trkpt>
      <trkpt lat="49.8725" lon="1.97588">
        <ele>74.6</ele>
        <time>2023-05-03T13:34:13Z</time>
      </trkpt>
      <trkpt lat="49.87248" lon="1.97589">
        <ele>74.6</ele>
        <time>2023-05-03T13:34:14Z</time>
      </trkpt>
      <trkpt lat="49.87247" lon="1.9759">
        <ele>74.6</ele>
        <time>2023-05-03T13:34:15Z</time>
      </trkpt>
      <trkpt lat="49.87245" lon="1.97591">
        <ele>74.6</ele>
        <time>2023-05-03T13:34:17Z</time>
      </trkpt>
      <trkpt lat="49.87244" lon="1.97592">
        <ele>74.6</ele>
        <time>2023-05-03T13:34:18Z</time>
      </trkpt>
      <trkpt lat="49.87243" lon="1.97593">
        <ele>74.5</ele>
        <time>2023-05-03T13:34:19Z</time>
      </trkpt>
      <trkpt lat="49.87239" lon="1.97596">
        <ele>74.5</ele>
        <time>2023-05-03T13:34:21Z</time>
      </trkpt>
      <trkpt lat="49.87237" lon="1.97597">
        <ele>74.5</ele>
        <time>2023-05-03T13:34:22Z</time>
      </trkpt>
      <trkpt lat="49.87236" lon="1.97598">
        <ele>74.4</ele>
        <time>2023-05-03T13:34:23Z</time>
      </trkpt>
      <trkpt lat="49.87234" lon="1.976">
        <ele>74.4</ele>
        <time>2023-05-03T13:34:24Z</time>
      </trkpt>
      <trkpt lat="49.87233" lon="1.97601">
        <ele>74.4</ele>
        <time>2023-05-03T13:34:25Z</time>
      </trkpt>
      <trkpt lat="49.87231" lon="1.97602">
        <ele>74.4</ele>
        <time>2023-05-03T13:34:26Z</time>
      </trkpt>
      <trkpt lat="49.8723" lon="1.97603">
        <ele>74.4</ele>
        <time>2023-05-03T13:34:27Z</time>
      </trkpt>
      <trkpt lat="49.87229" lon="1.97603">
        <ele>74.4</ele>
        <time>2023-05-03T13:34:28Z</time>
      </trkpt>
      <trkpt lat="49.87227" lon="1.97604">
        <ele>74.4</ele>
        <time>2023-05-03T13:34:30Z</time>
      </trkpt>
      <trkpt lat="49.87226" lon="1.97605">
        <ele>74.4</ele>
        <time>2023-05-03T13:34:31Z</time>
      </trkpt>
      <trkpt lat="49.87225" lon="1.97606">
        <ele>74.4</ele>
        <time>2023-05-03T13:34:32Z</time>
      </trkpt>
      <trkpt lat="49.87223" lon="1.97607">
        <ele>74.4</ele>
        <time>2023-05-03T13:34:33Z</time>
      </trkpt>
      <trkpt lat="49.87222" lon="1.97608">
        <ele>74.4</ele>
        <time>2023-05-03T13:34:34Z</time>
      </trkpt>
      <trkpt lat="49.87221" lon="1.97609">
        <ele>74.4</ele>
        <time>2023-05-03T13:34:35Z</time>
      </trkpt>
      <trkpt lat="49.8722" lon="1.9761">
        <ele>74.4</ele>
        <time>2023-05-03T13:34:36Z</time>
      </trkpt>
      <trkpt lat="49.87219" lon="1.97612">
        <ele>74.4</ele>
        <time>2023-05-03T13:34:38Z</time>
      </trkpt>
      <trkpt lat="49.87217" lon="1.97614">
        <ele>74.4</ele>
        <time>2023-05-03T13:34:39Z</time>
      </trkpt>
      <trkpt lat="49.87216" lon="1.97614">
        <ele>74.4</ele>
        <time>2023-05-03T13:34:40Z</time>
      </trkpt>
      <trkpt lat="49.87216" lon="1.97615">
        <ele>74.4</ele>
        <time>2023-05-03T13:34:41Z</time>
      </trkpt>
      <trkpt lat="49.87214" lon="1.97617">
        <ele>74.4</ele>
        <time>2023-05-03T13:34:43Z</time>
      </trkpt>
      <trkpt lat="49.87213" lon="1.97618">
        <ele>74.4</ele>
        <time>2023-05-03T13:34:44Z</time>
      </trkpt>
      <trkpt lat="49.87213" lon="1.97619">
        <ele>74.3</ele>
        <time>2023-05-03T13:34:45Z</time>
      </trkpt>
      <trkpt lat="49.87211" lon="1.97621">
        <ele>74.3</ele>
        <time>2023-05-03T13:34:46Z</time>
      </trkpt>
      <trkpt lat="49.8721" lon="1.97621">
        <ele>74.3</ele>
        <time>2023-05-03T13:34:47Z</time>
      </trkpt>
      <trkpt lat="49.8721" lon="1.97622">
        <ele>74.3</ele>
        <time>2023-05-03T13:34:48Z</time>
      </trkpt>
      <trkpt lat="49.87208" lon="1.97624">
        <ele>74.3</ele>
        <time>2023-05-03T13:34:50Z</time>
      </trkpt>
      <trkpt lat="49.87207" lon="1.97625">
        <ele>74.3</ele>
        <time>2023-05-03T13:34:51Z</time>
      </trkpt>
      <trkpt lat="49.87206" lon="1.97627">
        <ele>74.2</ele>
        <time>2023-05-03T13:34:52Z</time>
      </trkpt>
      <trkpt lat="49.87204" lon="1.97628">
        <ele>74.2</ele>
        <time>2023-05-03T13:34:53Z</time>
      </trkpt>
      <trkpt lat="49.87202" lon="1.9763">
        <ele>74.2</ele>
        <time>2023-05-03T13:34:54Z</time>
      </trkpt>
      <trkpt lat="49.87202" lon="1.97631">
        <ele>74.2</ele>
        <time>2023-05-03T13:34:56Z</time>
      </trkpt>
      <trkpt lat="49.87201" lon="1.97632">
        <ele>74.2</ele>
        <time>2023-05-03T13:34:57Z</time>
      </trkpt>
      <trkpt lat="49.872" lon="1.97633">
        <ele>74.1</ele>
        <time>2023-05-03T13:34:58Z</time>
      </trkpt>
      <trkpt lat="49.87199" lon="1.97634">
        <ele>74.1</ele>
        <time>2023-05-03T13:34:59Z</time>
      </trkpt>
      <trkpt lat="49.87198" lon="1.97636">
        <ele>74.1</ele>
        <time>2023-05-03T13:35:00Z</time>
      </trkpt>
      <trkpt lat="49.87197" lon="1.97637">
        <ele>74.1</ele>
        <time>2023-05-03T13:35:01Z</time>
      </trkpt>
      <trkpt lat="49.87195" lon="1.97638">
        <ele>74.1</ele>
        <time>2023-05-03T13:35:02Z</time>
      </trkpt>
      <trkpt lat="49.87194" lon="1.97639">
        <ele>74</ele>
        <time>2023-05-03T13:35:03Z</time>
      </trkpt>
      <trkpt lat="49.87193" lon="1.9764">
        <ele>74</ele>
        <time>2023-05-03T13:35:04Z</time>
      </trkpt>
      <trkpt lat="49.87191" lon="1.97642">
        <ele>74</ele>
        <time>2023-05-03T13:35:06Z</time>
      </trkpt>
      <trkpt lat="49.87189" lon="1.97644">
        <ele>74</ele>
        <time>2023-05-03T13:35:07Z</time>
      </trkpt>
      <trkpt lat="49.87188" lon="1.97645">
        <ele>74</ele>
        <time>2023-05-03T13:35:09Z</time>
      </trkpt>
      <trkpt lat="49.87187" lon="1.97646">
        <ele>74</ele>
        <time>2023-05-03T13:35:10Z</time>
      </trkpt>
      <trkpt lat="49.87186" lon="1.97648">
        <ele>74</ele>
        <time>2023-05-03T13:35:11Z</time>
      </trkpt>
      <trkpt lat="49.87186" lon="1.97649">
        <ele>73.8</ele>
        <time>2023-05-03T13:35:12Z</time>
      </trkpt>
      <trkpt lat="49.87185" lon="1.97651">
        <ele>73.8</ele>
        <time>2023-05-03T13:35:13Z</time>
      </trkpt>
      <trkpt lat="49.87185" lon="1.97653">
        <ele>73.8</ele>
        <time>2023-05-03T13:35:14Z</time>
      </trkpt>
      <trkpt lat="49.87185" lon="1.97655">
        <ele>73.8</ele>
        <time>2023-05-03T13:35:16Z</time>
      </trkpt>
      <trkpt lat="49.87185" lon="1.97657">
        <ele>73.7</ele>
        <time>2023-05-03T13:35:17Z</time>
      </trkpt>
      <trkpt lat="49.87186" lon="1.97659">
        <ele>73.7</ele>
        <time>2023-05-03T13:35:18Z</time>
      </trkpt>
      <trkpt lat="49.87186" lon="1.97661">
        <ele>73.7</ele>
        <time>2023-05-03T13:35:19Z</time>
      </trkpt>
      <trkpt lat="49.87186" lon="1.97662">
        <ele>73.7</ele>
        <time>2023-05-03T13:35:20Z</time>
      </trkpt>
      <trkpt lat="49.87187" lon="1.97664">
        <ele>73.7</ele>
        <time>2023-05-03T13:35:21Z</time>
      </trkpt>
      <trkpt lat="49.87187" lon="1.97665">
        <ele>73.7</ele>
        <time>2023-05-03T13:35:22Z</time>
      </trkpt>
      <trkpt lat="49.87188" lon="1.97667">
        <ele>73.6</ele>
        <time>2023-05-03T13:35:24Z</time>
      </trkpt>
      <trkpt lat="49.87188" lon="1.97669">
        <ele>73.6</ele>
        <time>2023-05-03T13:35:25Z</time>
      </trkpt>
      <trkpt lat="49.87189" lon="1.97671">
        <ele>73.6</ele>
        <time>2023-05-03T13:35:27Z</time>
      </trkpt>
      <trkpt lat="49.8719" lon="1.97673">
        <ele>73.6</ele>
        <time>2023-05-03T13:35:28Z</time>
      </trkpt>
      <trkpt lat="49.8719" lon="1.97674">
        <ele>73.6</ele>
        <time>2023-05-03T13:35:29Z</time>
      </trkpt>
      <trkpt lat="49.87191" lon="1.97676">
        <ele>73.6</ele>
        <time>2023-05-03T13:35:31Z</time>
      </trkpt>
      <trkpt lat="49.87191" lon="1.97678">
        <ele>73.6</ele>
        <time>2023-05-03T13:35:32Z</time>
      </trkpt>
      <trkpt lat="49.87191" lon="1.97679">
        <ele>73.6</ele>
        <time>2023-05-03T13:35:33Z</time>
      </trkpt>
      <trkpt lat="49.8719" lon="1.9768">
        <ele>73.5</ele>
        <time>2023-05-03T13:35:35Z</time>
      </trkpt>
      <trkpt lat="49.8719" lon="1.9768">
        <ele>73.5</ele>
        <time>2023-05-03T13:35:36Z</time>
      </trkpt>
      <trkpt lat="49.8719" lon="1.9768">
        <ele>73.5</ele>
        <time>2023-05-03T13:35:37Z</time>
      </trkpt>
      <trkpt lat="49.8719" lon="1.9768">
        <ele>73.5</ele>
        <time>2023-05-03T13:35:39Z</time>
      </trkpt>
      <trkpt lat="49.8719" lon="1.9768">
        <ele>73.5</ele>
        <time>2023-05-03T13:35:40Z</time>
      </trkpt>
      <trkpt lat="49.8719" lon="1.9768">
        <ele>73.5</ele>
        <time>2023-05-03T13:35:41Z</time>
      </trkpt>
      <trkpt lat="49.87189" lon="1.9768">
        <ele>73.5</ele>
        <time>2023-05-03T13:35:43Z</time>
      </trkpt>
      <trkpt lat="49.87189" lon="1.9768">
        <ele>73.5</ele>
        <time>2023-05-03T13:35:44Z</time>
      </trkpt>
      <trkpt lat="49.87189" lon="1.9768">
        <ele>73.5</ele>
        <time>2023-05-03T13:35:45Z</time>
      </trkpt>
      <trkpt lat="49.87189" lon="1.9768">
        <ele>73.5</ele>
        <time>2023-05-03T13:35:47Z</time>
      </trkpt>
      <trkpt lat="49.87189" lon="1.9768">
        <ele>73.5</ele>
        <time>2023-05-03T13:35:48Z</time>
      </trkpt>
      <trkpt lat="49.87189" lon="1.9768">
        <ele>73.5</ele>
        <time>2023-05-03T13:35:49Z</time>
      </trkpt>
      <trkpt lat="49.87189" lon="1.97679">
        <ele>73.5</ele>
        <time>2023-05-03T13:35:50Z</time>
      </trkpt>
      <trkpt lat="49.87189" lon="1.97679">
        <ele>73.5</ele>
        <time>2023-05-03T13:35:51Z</time>
      </trkpt>
      <trkpt lat="49.87189" lon="1.97679">
        <ele>73.5</ele>
        <time>2023-05-03T13:35:52Z</time>
      </trkpt>
      <trkpt lat="49.87189" lon="1.97679">
        <ele>73.5</ele>
        <time>2023-05-03T13:35:53Z</time>
      </trkpt>
      <trkpt lat="49.87189" lon="1.97679">
        <ele>73.5</ele>
        <time>2023-05-03T13:35:54Z</time>
      </trkpt>
      <trkpt lat="49.87189" lon="1.97679">
        <ele>73.5</ele>
        <time>2023-05-03T13:35:55Z</time>
      </trkpt>
      <trkpt lat="49.87189" lon="1.97679">
        <ele>73.5</ele>
        <time>2023-05-03T13:35:56Z</time>
      </trkpt>
      <trkpt lat="49.87189" lon="1.97679">
        <ele>73.5</ele>
        <time>2023-05-03T13:35:57Z</time>
      </trkpt>
      <trkpt lat="49.87189" lon="1.97678">
        <ele>73.5</ele>
        <time>2023-05-03T13:35:58Z</time>
      </trkpt>
      <trkpt lat="49.87189" lon="1.97678">
        <ele>73.5</ele>
        <time>2023-05-03T13:35:59Z</time>
      </trkpt>
      <trkpt lat="49.87189" lon="1.97678">
        <ele>73.5</ele>
        <time>2023-05-03T13:36:00Z</time>
      </trkpt>
      <trkpt lat="49.87189" lon="1.97678">
        <ele>73.5</ele>
        <time>2023-05-03T13:36:01Z</time>
      </trkpt>
      <trkpt lat="49.87189" lon="1.97678">
        <ele>73.5</ele>
        <time>2023-05-03T13:36:02Z</time>
      </trkpt>
      <trkpt lat="49.87189" lon="1.97678">
        <ele>73.5</ele>
        <time>2023-05-03T13:36:03Z</time>
      </trkpt>
      <trkpt lat="49.87189" lon="1.97678">
        <ele>73.5</ele>
        <time>2023-05-03T13:36:04Z</time>
      </trkpt>
      <trkpt lat="49.87189" lon="1.97678">
        <ele>73.5</ele>
        <time>2023-05-03T13:36:05Z</time>
      </trkpt>
      <trkpt lat="49.87189" lon="1.97678">
        <ele>73.5</ele>
        <time>2023-05-03T13:36:06Z</time>
      </trkpt>
      <trkpt lat="49.87189" lon="1.97678">
        <ele>73.5</ele>
        <time>2023-05-03T13:36:07Z</time>
      </trkpt>
      <trkpt lat="49.87189" lon="1.97678">
        <ele>73.5</ele>
        <time>2023-05-03T13:36:08Z</time>
      </trkpt>
      <trkpt lat="49.87189" lon="1.97678">
        <ele>73.5</ele>
        <time>2023-05-03T13:36:09Z</time>
      </trkpt>
      <trkpt lat="49.87189" lon="1.97678">
        <ele>73.5</ele>
        <time>2023-05-03T13:36:10Z</time>
      </trkpt>
      <trkpt lat="49.87189" lon="1.97678">
        <ele>73.5</ele>
        <time>2023-05-03T13:36:11Z</time>
      </trkpt>
      <trkpt lat="49.87189" lon="1.97678">
        <ele>73.5</ele>
        <time>2023-05-03T13:36:12Z</time>
      </trkpt>
      <trkpt lat="49.87189" lon="1.97678">
        <ele>73.5</ele>
        <time>2023-05-03T13:36:13Z</time>
      </trkpt>
      <trkpt lat="49.87189" lon="1.97678">
        <ele>73.5</ele>
        <time>2023-05-03T13:36:14Z</time>
      </trkpt>
      <trkpt lat="49.87189" lon="1.97678">
        <ele>73.5</ele>
        <time>2023-05-03T13:36:15Z</time>
      </trkpt>
      <trkpt lat="49.87189" lon="1.97678">
        <ele>73.5</ele>
        <time>2023-05-03T13:36:16Z</time>
      </trkpt>
      <trkpt lat="49.87189" lon="1.97678">
        <ele>73.5</ele>
        <time>2023-05-03T13:36:17Z</time>
      </trkpt>
      <trkpt lat="49.87189" lon="1.97678">
        <ele>73.5</ele>
        <time>2023-05-03T13:36:18Z</time>
      </trkpt>
      <trkpt lat="49.87189" lon="1.97678">
        <ele>73.5</ele>
        <time>2023-05-03T13:36:19Z</time>
      </trkpt>
      <trkpt lat="49.87189" lon="1.97678">
        <ele>73.5</ele>
        <time>2023-05-03T13:36:20Z</time>
      </trkpt>
      <trkpt lat="49.87189" lon="1.97678">
        <ele>73.5</ele>
        <time>2023-05-03T13:36:21Z</time>
      </trkpt>
      <trkpt lat="49.87189" lon="1.97678">
        <ele>73.5</ele>
        <time>2023-05-03T13:36:22Z</time>
      </trkpt>
      <trkpt lat="49.87189" lon="1.97678">
        <ele>73.5</ele>
        <time>2023-05-03T13:36:23Z</time>
      </trkpt>
      <trkpt lat="49.87189" lon="1.97678">
        <ele>73.5</ele>
        <time>2023-05-03T13:36:24Z</time>
      </trkpt>
      <trkpt lat="49.87189" lon="1.97678">
        <ele>73.5</ele>
        <time>2023-05-03T13:36:25Z</time>
      </trkpt>
      <trkpt lat="49.87189" lon="1.97678">
        <ele>73.5</ele>
        <time>2023-05-03T13:36:26Z</time>
      </trkpt>
      <trkpt lat="49.87189" lon="1.97678">
        <ele>73.5</ele>
        <time>2023-05-03T13:36:27Z</time>
      </trkpt>
      <trkpt lat="49.87189" lon="1.97678">
        <ele>73.5</ele>
        <time>2023-05-03T13:36:28Z</time>
      </trkpt>
      <trkpt lat="49.87189" lon="1.97678">
        <ele>73.5</ele>
        <time>2023-05-03T13:36:29Z</time>
      </trkpt>
      <trkpt lat="49.87189" lon="1.97678">
        <ele>73.5</ele>
        <time>2023-05-03T13:36:30Z</time>
      </trkpt>
      <trkpt lat="49.87189" lon="1.97678">
        <ele>73.5</ele>
        <time>2023-05-03T13:36:31Z</time>
      </trkpt>
      <trkpt lat="49.87189" lon="1.97678">
        <ele>73.5</ele>
        <time>2023-05-03T13:36:32Z</time>
      </trkpt>
      <trkpt lat="49.87189" lon="1.97678">
        <ele>73.5</ele>
        <time>2023-05-03T13:36:33Z</time>
      </trkpt>
      <trkpt lat="49.87189" lon="1.97678">
        <ele>73.5</ele>
        <time>2023-05-03T13:36:34Z</time>
      </trkpt>
      <trkpt lat="49.87189" lon="1.97678">
        <ele>73.5</ele>
        <time>2023-05-03T13:36:35Z</time>
      </trkpt>
      <trkpt lat="49.87189" lon="1.97678">
        <ele>73.5</ele>
        <time>2023-05-03T13:36:36Z</time>
      </trkpt>
      <trkpt lat="49.87189" lon="1.97678">
        <ele>73.5</ele>
        <time>2023-05-03T13:36:37Z</time>
      </trkpt>
      <trkpt lat="49.87189" lon="1.97678">
        <ele>73.5</ele>
        <time>2023-05-03T13:36:38Z</time>
      </trkpt>
      <trkpt lat="49.87189" lon="1.97678">
        <ele>73.5</ele>
        <time>2023-05-03T13:36:39Z</time>
      </trkpt>
      <trkpt lat="49.87189" lon="1.97678">
        <ele>73.5</ele>
        <time>2023-05-03T13:36:40Z</time>
      </trkpt>
      <trkpt lat="49.87189" lon="1.97678">
        <ele>73.5</ele>
        <time>2023-05-03T13:36:41Z</time>
      </trkpt>
      <trkpt lat="49.87189" lon="1.97678">
        <ele>73.5</ele>
        <time>2023-05-03T13:36:42Z</time>
      </trkpt>
      <trkpt lat="49.87189" lon="1.97678">
        <ele>73.5</ele>
        <time>2023-05-03T13:36:43Z</time>
      </trkpt>
      <trkpt lat="49.87189" lon="1.97678">
        <ele>73.5</ele>
        <time>2023-05-03T13:36:44Z</time>
      </trkpt>
      <trkpt lat="49.8719" lon="1.97675">
        <ele>73.5</ele>
        <time>2023-05-03T13:36:45Z</time>
      </trkpt>
      <trkpt lat="49.8719" lon="1.97673">
        <ele>73.5</ele>
        <time>2023-05-03T13:36:46Z</time>
      </trkpt>
      <trkpt lat="49.87189" lon="1.97673">
        <ele>73.5</ele>
        <time>2023-05-03T13:36:47Z</time>
      </trkpt>
      <trkpt lat="49.87189" lon="1.97673">
        <ele>73.5</ele>
        <time>2023-05-03T13:36:48Z</time>
      </trkpt>
      <trkpt lat="49.87189" lon="1.97673">
        <ele>73.5</ele>
        <time>2023-05-03T13:36:49Z</time>
      </trkpt>
      <trkpt lat="49.87189" lon="1.97672">
        <ele>73.5</ele>
        <time>2023-05-03T13:36:50Z</time>
      </trkpt>
      <trkpt lat="49.87189" lon="1.97672">
        <ele>73.5</ele>
        <time>2023-05-03T13:36:51Z</time>
      </trkpt>
      <trkpt lat="49.87189" lon="1.97672">
        <ele>73.5</ele>
        <time>2023-05-03T13:36:52Z</time>
      </trkpt>
      <trkpt lat="49.87189" lon="1.97672">
        <ele>73.5</ele>
        <time>2023-05-03T13:36:53Z</time>
      </trkpt>
      <trkpt lat="49.87189" lon="1.97672">
        <ele>73.5</ele>
        <time>2023-05-03T13:36:54Z</time>
      </trkpt>
      <trkpt lat="49.87189" lon="1.97672">
        <ele>73.5</ele>
        <time>2023-05-03T13:36:55Z</time>
      </trkpt>
      <trkpt lat="49.87189" lon="1.97672">
        <ele>73.5</ele>
        <time>2023-05-03T13:36:56Z</time>
      </trkpt>
      <trkpt lat="49.87189" lon="1.97672">
        <ele>73.5</ele>
        <time>2023-05-03T13:36:57Z</time>
      </trkpt>
      <trkpt lat="49.87189" lon="1.97672">
        <ele>73.5</ele>
        <time>2023-05-03T13:36:58Z</time>
      </trkpt>
      <trkpt lat="49.87189" lon="1.97672">
        <ele>73.5</ele>
        <time>2023-05-03T13:36:59Z</time>
      </trkpt>
      <trkpt lat="49.87189" lon="1.97672">
        <ele>73.5</ele>
        <time>2023-05-03T13:37:00Z</time>
      </trkpt>
      <trkpt lat="49.87189" lon="1.97672">
        <ele>73.5</ele>
        <time>2023-05-03T13:37:01Z</time>
      </trkpt>
      <trkpt lat="49.87189" lon="1.97672">
        <ele>73.5</ele>
        <time>2023-05-03T13:37:02Z</time>
      </trkpt>
      <trkpt lat="49.87189" lon="1.97672">
        <ele>73.5</ele>
        <time>2023-05-03T13:37:03Z</time>
      </trkpt>
      <trkpt lat="49.87189" lon="1.97672">
        <ele>73.5</ele>
        <time>2023-05-03T13:37:04Z</time>
      </trkpt>
      <trkpt lat="49.87189" lon="1.97672">
        <ele>73.5</ele>
        <time>2023-05-03T13:37:05Z</time>
      </trkpt>
      <trkpt lat="49.87189" lon="1.97672">
        <ele>73.5</ele>
        <time>2023-05-03T13:37:06Z</time>
      </trkpt>
      <trkpt lat="49.87189" lon="1.97672">
        <ele>73.5</ele>
        <time>2023-05-03T13:37:07Z</time>
      </trkpt>
      <trkpt lat="49.87189" lon="1.97672">
        <ele>73.5</ele>
        <time>2023-05-03T13:37:08Z</time>
      </trkpt>
      <trkpt lat="49.87189" lon="1.97672">
        <ele>73.5</ele>
        <time>2023-05-03T13:37:09Z</time>
      </trkpt>
      <trkpt lat="49.87189" lon="1.97672">
        <ele>73.5</ele>
        <time>2023-05-03T13:37:10Z</time>
      </trkpt>
      <trkpt lat="49.87189" lon="1.97672">
        <ele>73.5</ele>
        <time>2023-05-03T13:37:11Z</time>
      </trkpt>
      <trkpt lat="49.87189" lon="1.97672">
        <ele>73.5</ele>
        <time>2023-05-03T13:37:12Z</time>
      </trkpt>
      <trkpt lat="49.87189" lon="1.97672">
        <ele>73.5</ele>
        <time>2023-05-03T13:37:13Z</time>
      </trkpt>
      <trkpt lat="49.87189" lon="1.97672">
        <ele>73.5</ele>
        <time>2023-05-03T13:37:14Z</time>
      </trkpt>
      <trkpt lat="49.87189" lon="1.97672">
        <ele>73.5</ele>
        <time>2023-05-03T13:37:15Z</time>
      </trkpt>
      <trkpt lat="49.87189" lon="1.97672">
        <ele>73.5</ele>
        <time>2023-05-03T13:37:16Z</time>
      </trkpt>
      <trkpt lat="49.87189" lon="1.97672">
        <ele>73.5</ele>
        <time>2023-05-03T13:37:17Z</time>
      </trkpt>
      <trkpt lat="49.87189" lon="1.97672">
        <ele>73.5</ele>
        <time>2023-05-03T13:37:18Z</time>
      </trkpt>
      <trkpt lat="49.87189" lon="1.97672">
        <ele>73.5</ele>
        <time>2023-05-03T13:37:19Z</time>
      </trkpt>
      <trkpt lat="49.87189" lon="1.97672">
        <ele>73.5</ele>
        <time>2023-05-03T13:37:20Z</time>
      </trkpt>
      <trkpt lat="49.87189" lon="1.97672">
        <ele>73.5</ele>
        <time>2023-05-03T13:37:21Z</time>
      </trkpt>
      <trkpt lat="49.87189" lon="1.97672">
        <ele>73.5</ele>
        <time>2023-05-03T13:37:22Z</time>
      </trkpt>
      <trkpt lat="49.87189" lon="1.97672">
        <ele>73.5</ele>
        <time>2023-05-03T13:37:23Z</time>
      </trkpt>
      <trkpt lat="49.87189" lon="1.97672">
        <ele>73.5</ele>
        <time>2023-05-03T13:37:24Z</time>
      </trkpt>
      <trkpt lat="49.87189" lon="1.97672">
        <ele>73.5</ele>
        <time>2023-05-03T13:37:25Z</time>
      </trkpt>
      <trkpt lat="49.87189" lon="1.97672">
        <ele>73.5</ele>
        <time>2023-05-03T13:37:26Z</time>
      </trkpt>
      <trkpt lat="49.87189" lon="1.97672">
        <ele>73.5</ele>
        <time>2023-05-03T13:37:27Z</time>
      </trkpt>
      <trkpt lat="49.87189" lon="1.97672">
        <ele>73.5</ele>
        <time>2023-05-03T13:37:28Z</time>
      </trkpt>
      <trkpt lat="49.87189" lon="1.97672">
        <ele>73.5</ele>
        <time>2023-05-03T13:37:29Z</time>
      </trkpt>
      <trkpt lat="49.87189" lon="1.97672">
        <ele>73.5</ele>
        <time>2023-05-03T13:37:30Z</time>
      </trkpt>
      <trkpt lat="49.87189" lon="1.97672">
        <ele>73.5</ele>
        <time>2023-05-03T13:37:31Z</time>
      </trkpt>
      <trkpt lat="49.87189" lon="1.97672">
        <ele>73.5</ele>
        <time>2023-05-03T13:37:32Z</time>
      </trkpt>
      <trkpt lat="49.87189" lon="1.97672">
        <ele>73.5</ele>
        <time>2023-05-03T13:37:33Z</time>
      </trkpt>
      <trkpt lat="49.87189" lon="1.97672">
        <ele>73.5</ele>
        <time>2023-05-03T13:37:34Z</time>
      </trkpt>
      <trkpt lat="49.87189" lon="1.97672">
        <ele>73.5</ele>
        <time>2023-05-03T13:37:35Z</time>
      </trkpt>
      <trkpt lat="49.87189" lon="1.97672">
        <ele>73.5</ele>
        <time>2023-05-03T13:37:36Z</time>
      </trkpt>
      <trkpt lat="49.87189" lon="1.97672">
        <ele>73.5</ele>
        <time>2023-05-03T13:37:37Z</time>
      </trkpt>
      <trkpt lat="49.87189" lon="1.97672">
        <ele>73.5</ele>
        <time>2023-05-03T13:37:38Z</time>
      </trkpt>
      <trkpt lat="49.87189" lon="1.97672">
        <ele>73.5</ele>
        <time>2023-05-03T13:37:39Z</time>
      </trkpt>
      <trkpt lat="49.87189" lon="1.97672">
        <ele>73.5</ele>
        <time>2023-05-03T13:37:40Z</time>
      </trkpt>
      <trkpt lat="49.87189" lon="1.97672">
        <ele>73.5</ele>
        <time>2023-05-03T13:37:41Z</time>
      </trkpt>
      <trkpt lat="49.8719" lon="1.97673">
        <ele>73.5</ele>
        <time>2023-05-03T13:37:42Z</time>
      </trkpt>
      <trkpt lat="49.87191" lon="1.97673">
        <ele>73.4</ele>
        <time>2023-05-03T13:37:43Z</time>
      </trkpt>
      <trkpt lat="49.87191" lon="1.97675">
        <ele>73.4</ele>
        <time>2023-05-03T13:37:44Z</time>
      </trkpt>
      <trkpt lat="49.87191" lon="1.97677">
        <ele>73.4</ele>
        <time>2023-05-03T13:37:45Z</time>
      </trkpt>
      <trkpt lat="49.87191" lon="1.97678">
        <ele>73.4</ele>
        <time>2023-05-03T13:37:46Z</time>
      </trkpt>
      <trkpt lat="49.87191" lon="1.97681">
        <ele>73.4</ele>
        <time>2023-05-03T13:37:47Z</time>
      </trkpt>
      <trkpt lat="49.87192" lon="1.97682">
        <ele>73.4</ele>
        <time>2023-05-03T13:37:48Z</time>
      </trkpt>
      <trkpt lat="49.87192" lon="1.97683">
        <ele>73.4</ele>
        <time>2023-05-03T13:37:49Z</time>
      </trkpt>
      <trkpt lat="49.87192" lon="1.97684">
        <ele>73.4</ele>
        <time>2023-05-03T13:37:50Z</time>
      </trkpt>
      <trkpt lat="49.87193" lon="1.97686">
        <ele>73.3</ele>
        <time>2023-05-03T13:37:52Z</time>
      </trkpt>
      <trkpt lat="49.87193" lon="1.97689">
        <ele>73.3</ele>
        <time>2023-05-03T13:37:53Z</time>
      </trkpt>
      <trkpt lat="49.87194" lon="1.97691">
        <ele>73.3</ele>
        <time>2023-05-03T13:37:54Z</time>
      </trkpt>
      <trkpt lat="49.87194" lon="1.97694">
        <ele>73.3</ele>
        <time>2023-05-03T13:37:55Z</time>
      </trkpt>
      <trkpt lat="49.87195" lon="1.97696">
        <ele>73.2</ele>
        <time>2023-05-03T13:37:56Z</time>
      </trkpt>
      <trkpt lat="49.87195" lon="1.97698">
        <ele>73.2</ele>
        <time>2023-05-03T13:37:57Z</time>
      </trkpt>
      <trkpt lat="49.87196" lon="1.977">
        <ele>73.2</ele>
        <time>2023-05-03T13:37:58Z</time>
      </trkpt>
      <trkpt lat="49.87197" lon="1.97703">
        <ele>73.2</ele>
        <time>2023-05-03T13:37:59Z</time>
      </trkpt>
      <trkpt lat="49.87197" lon="1.97705">
        <ele>73.2</ele>
        <time>2023-05-03T13:38:01Z</time>
      </trkpt>
      <trkpt lat="49.87198" lon="1.97707">
        <ele>73.1</ele>
        <time>2023-05-03T13:38:02Z</time>
      </trkpt>
      <trkpt lat="49.87199" lon="1.97709">
        <ele>73.1</ele>
        <time>2023-05-03T13:38:03Z</time>
      </trkpt>
      <trkpt lat="49.872" lon="1.97711">
        <ele>73.1</ele>
        <time>2023-05-03T13:38:04Z</time>
      </trkpt>
      <trkpt lat="49.87201" lon="1.97715">
        <ele>73.1</ele>
        <time>2023-05-03T13:38:06Z</time>
      </trkpt>
      <trkpt lat="49.87202" lon="1.97716">
        <ele>73.1</ele>
        <time>2023-05-03T13:38:07Z</time>
      </trkpt>
      <trkpt lat="49.87202" lon="1.97717">
        <ele>73.1</ele>
        <time>2023-05-03T13:38:08Z</time>
      </trkpt>
      <trkpt lat="49.87203" lon="1.9772">
        <ele>73</ele>
        <time>2023-05-03T13:38:09Z</time>
      </trkpt>
      <trkpt lat="49.87204" lon="1.97723">
        <ele>73</ele>
        <time>2023-05-03T13:38:10Z</time>
      </trkpt>
      <trkpt lat="49.87205" lon="1.97724">
        <ele>73</ele>
        <time>2023-05-03T13:38:12Z</time>
      </trkpt>
      <trkpt lat="49.87206" lon="1.97726">
        <ele>73</ele>
        <time>2023-05-03T13:38:13Z</time>
      </trkpt>
      <trkpt lat="49.87206" lon="1.97727">
        <ele>73</ele>
        <time>2023-05-03T13:38:14Z</time>
      </trkpt>
      <trkpt lat="49.87207" lon="1.97728">
        <ele>73</ele>
        <time>2023-05-03T13:38:15Z</time>
      </trkpt>
      <trkpt lat="49.87208" lon="1.9773">
        <ele>73</ele>
        <time>2023-05-03T13:38:16Z</time>
      </trkpt>
      <trkpt lat="49.87208" lon="1.97731">
        <ele>73</ele>
        <time>2023-05-03T13:38:17Z</time>
      </trkpt>
      <trkpt lat="49.87209" lon="1.97733">
        <ele>73</ele>
        <time>2023-05-03T13:38:18Z</time>
      </trkpt>
      <trkpt lat="49.8721" lon="1.97734">
        <ele>73</ele>
        <time>2023-05-03T13:38:19Z</time>
      </trkpt>
      <trkpt lat="49.87211" lon="1.97737">
        <ele>72.9</ele>
        <time>2023-05-03T13:38:21Z</time>
      </trkpt>
      <trkpt lat="49.87212" lon="1.97738">
        <ele>72.9</ele>
        <time>2023-05-03T13:38:22Z</time>
      </trkpt>
      <trkpt lat="49.87212" lon="1.9774">
        <ele>72.9</ele>
        <time>2023-05-03T13:38:23Z</time>
      </trkpt>
      <trkpt lat="49.87213" lon="1.97742">
        <ele>72.9</ele>
        <time>2023-05-03T13:38:25Z</time>
      </trkpt>
      <trkpt lat="49.87214" lon="1.97745">
        <ele>72.9</ele>
        <time>2023-05-03T13:38:26Z</time>
      </trkpt>
      <trkpt lat="49.87215" lon="1.97746">
        <ele>72.9</ele>
        <time>2023-05-03T13:38:27Z</time>
      </trkpt>
      <trkpt lat="49.87215" lon="1.97747">
        <ele>72.9</ele>
        <time>2023-05-03T13:38:28Z</time>
      </trkpt>
      <trkpt lat="49.87215" lon="1.97749">
        <ele>72.9</ele>
        <time>2023-05-03T13:38:29Z</time>
      </trkpt>
      <trkpt lat="49.87216" lon="1.9775">
        <ele>72.9</ele>
        <time>2023-05-03T13:38:30Z</time>
      </trkpt>
      <trkpt lat="49.87216" lon="1.97752">
        <ele>72.9</ele>
        <time>2023-05-03T13:38:31Z</time>
      </trkpt>
      <trkpt lat="49.87217" lon="1.97755">
        <ele>72.9</ele>
        <time>2023-05-03T13:38:33Z</time>
      </trkpt>
      <trkpt lat="49.87218" lon="1.97756">
        <ele>72.9</ele>
        <time>2023-05-03T13:38:34Z</time>
      </trkpt>
      <trkpt lat="49.87219" lon="1.97758">
        <ele>72.9</ele>
        <time>2023-05-03T13:38:35Z</time>
      </trkpt>
      <trkpt lat="49.8722" lon="1.9776">
        <ele>72.9</ele>
        <time>2023-05-03T13:38:36Z</time>
      </trkpt>
      <trkpt lat="49.87221" lon="1.97762">
        <ele>72.9</ele>
        <time>2023-05-03T13:38:38Z</time>
      </trkpt>
      <trkpt lat="49.87221" lon="1.97763">
        <ele>72.9</ele>
        <time>2023-05-03T13:38:39Z</time>
      </trkpt>
      <trkpt lat="49.87222" lon="1.97764">
        <ele>72.9</ele>
        <time>2023-05-03T13:38:40Z</time>
      </trkpt>
      <trkpt lat="49.87223" lon="1.97767">
        <ele>72.9</ele>
        <time>2023-05-03T13:38:41Z</time>
      </trkpt>
      <trkpt lat="49.87224" lon="1.97769">
        <ele>72.8</ele>
        <time>2023-05-03T13:38:43Z</time>
      </trkpt>
      <trkpt lat="49.87224" lon="1.9777">
        <ele>72.8</ele>
        <time>2023-05-03T13:38:44Z</time>
      </trkpt>
      <trkpt lat="49.87225" lon="1.97772">
        <ele>72.8</ele>
        <time>2023-05-03T13:38:45Z</time>
      </trkpt>
      <trkpt lat="49.87225" lon="1.97773">
        <ele>72.8</ele>
        <time>2023-05-03T13:38:46Z</time>
      </trkpt>
      <trkpt lat="49.87226" lon="1.97775">
        <ele>72.8</ele>
        <time>2023-05-03T13:38:47Z</time>
      </trkpt>
      <trkpt lat="49.87227" lon="1.97777">
        <ele>72.8</ele>
        <time>2023-05-03T13:38:48Z</time>
      </trkpt>
      <trkpt lat="49.87228" lon="1.9778">
        <ele>72.8</ele>
        <time>2023-05-03T13:38:50Z</time>
      </trkpt>
      <trkpt lat="49.87228" lon="1.97781">
        <ele>72.8</ele>
        <time>2023-05-03T13:38:51Z</time>
      </trkpt>
      <trkpt lat="49.87229" lon="1.97782">
        <ele>72.8</ele>
        <time>2023-05-03T13:38:52Z</time>
      </trkpt>
      <trkpt lat="49.87229" lon="1.97784">
        <ele>72.8</ele>
        <time>2023-05-03T13:38:53Z</time>
      </trkpt>
      <trkpt lat="49.8723" lon="1.97785">
        <ele>72.8</ele>
        <time>2023-05-03T13:38:54Z</time>
      </trkpt>
      <trkpt lat="49.87231" lon="1.97787">
        <ele>72.8</ele>
        <time>2023-05-03T13:38:55Z</time>
      </trkpt>
      <trkpt lat="49.87232" lon="1.97789">
        <ele>72.8</ele>
        <time>2023-05-03T13:38:56Z</time>
      </trkpt>
      <trkpt lat="49.87232" lon="1.97791">
        <ele>72.7</ele>
        <time>2023-05-03T13:38:57Z</time>
      </trkpt>
      <trkpt lat="49.87233" lon="1.97792">
        <ele>72.7</ele>
        <time>2023-05-03T13:38:58Z</time>
      </trkpt>
      <trkpt lat="49.87234" lon="1.97794">
        <ele>72.7</ele>
        <time>2023-05-03T13:38:59Z</time>
      </trkpt>
      <trkpt lat="49.87234" lon="1.97796">
        <ele>72.7</ele>
        <time>2023-05-03T13:39:00Z</time>
      </trkpt>
      <trkpt lat="49.87235" lon="1.97798">
        <ele>72.7</ele>
        <time>2023-05-03T13:39:02Z</time>
      </trkpt>
      <trkpt lat="49.87235" lon="1.978">
        <ele>72.7</ele>
        <time>2023-05-03T13:39:03Z</time>
      </trkpt>
      <trkpt lat="49.87236" lon="1.97803">
        <ele>72.7</ele>
        <time>2023-05-03T13:39:04Z</time>
      </trkpt>
      <trkpt lat="49.87236" lon="1.97804">
        <ele>72.7</ele>
        <time>2023-05-03T13:39:05Z</time>
      </trkpt>
      <trkpt lat="49.87237" lon="1.97805">
        <ele>72.7</ele>
        <time>2023-05-03T13:39:06Z</time>
      </trkpt>
      <trkpt lat="49.87238" lon="1.97808">
        <ele>72.7</ele>
        <time>2023-05-03T13:39:08Z</time>
      </trkpt>
      <trkpt lat="49.87238" lon="1.9781">
        <ele>72.7</ele>
        <time>2023-05-03T13:39:09Z</time>
      </trkpt>
      <trkpt lat="49.87238" lon="1.97812">
        <ele>72.7</ele>
        <time>2023-05-03T13:39:10Z</time>
      </trkpt>
      <trkpt lat="49.87239" lon="1.97815">
        <ele>72.7</ele>
        <time>2023-05-03T13:39:11Z</time>
      </trkpt>
      <trkpt lat="49.87239" lon="1.97817">
        <ele>72.7</ele>
        <time>2023-05-03T13:39:12Z</time>
      </trkpt>
      <trkpt lat="49.8724" lon="1.9782">
        <ele>72.7</ele>
        <time>2023-05-03T13:39:14Z</time>
      </trkpt>
      <trkpt lat="49.87241" lon="1.97823">
        <ele>72.6</ele>
        <time>2023-05-03T13:39:16Z</time>
      </trkpt>
      <trkpt lat="49.87242" lon="1.97825">
        <ele>72.6</ele>
        <time>2023-05-03T13:39:17Z</time>
      </trkpt>
      <trkpt lat="49.87243" lon="1.97827">
        <ele>72.6</ele>
        <time>2023-05-03T13:39:18Z</time>
      </trkpt>
      <trkpt lat="49.87243" lon="1.97829">
        <ele>72.6</ele>
        <time>2023-05-03T13:39:19Z</time>
      </trkpt>
      <trkpt lat="49.87244" lon="1.9783">
        <ele>72.6</ele>
        <time>2023-05-03T13:39:20Z</time>
      </trkpt>
      <trkpt lat="49.87244" lon="1.97832">
        <ele>72.6</ele>
        <time>2023-05-03T13:39:21Z</time>
      </trkpt>
      <trkpt lat="49.87245" lon="1.97833">
        <ele>72.6</ele>
        <time>2023-05-03T13:39:22Z</time>
      </trkpt>
      <trkpt lat="49.87246" lon="1.97836">
        <ele>72.6</ele>
        <time>2023-05-03T13:39:24Z</time>
      </trkpt>
      <trkpt lat="49.87246" lon="1.97838">
        <ele>72.6</ele>
        <time>2023-05-03T13:39:25Z</time>
      </trkpt>
      <trkpt lat="49.87247" lon="1.9784">
        <ele>72.5</ele>
        <time>2023-05-03T13:39:26Z</time>
      </trkpt>
      <trkpt lat="49.87248" lon="1.97842">
        <ele>72.5</ele>
        <time>2023-05-03T13:39:28Z</time>
      </trkpt>
      <trkpt lat="49.87249" lon="1.97844">
        <ele>72.5</ele>
        <time>2023-05-03T13:39:29Z</time>
      </trkpt>
      <trkpt lat="49.87249" lon="1.97846">
        <ele>72.5</ele>
        <time>2023-05-03T13:39:30Z</time>
      </trkpt>
      <trkpt lat="49.8725" lon="1.97847">
        <ele>72.4</ele>
        <time>2023-05-03T13:39:31Z</time>
      </trkpt>
      <trkpt lat="49.8725" lon="1.97849">
        <ele>72.4</ele>
        <time>2023-05-03T13:39:32Z</time>
      </trkpt>
      <trkpt lat="49.87251" lon="1.97851">
        <ele>72.4</ele>
        <time>2023-05-03T13:39:33Z</time>
      </trkpt>
      <trkpt lat="49.87251" lon="1.97853">
        <ele>72.4</ele>
        <time>2023-05-03T13:39:34Z</time>
      </trkpt>
      <trkpt lat="49.87252" lon="1.97855">
        <ele>72.4</ele>
        <time>2023-05-03T13:39:36Z</time>
      </trkpt>
      <trkpt lat="49.87253" lon="1.97857">
        <ele>72.3</ele>
        <time>2023-05-03T13:39:37Z</time>
      </trkpt>
      <trkpt lat="49.87253" lon="1.97859">
        <ele>72.3</ele>
        <time>2023-05-03T13:39:38Z</time>
      </trkpt>
      <trkpt lat="49.87254" lon="1.97862">
        <ele>72.3</ele>
        <time>2023-05-03T13:39:39Z</time>
      </trkpt>
      <trkpt lat="49.87255" lon="1.97864">
        <ele>72.3</ele>
        <time>2023-05-03T13:39:41Z</time>
      </trkpt>
      <trkpt lat="49.87255" lon="1.97866">
        <ele>72.2</ele>
        <time>2023-05-03T13:39:42Z</time>
      </trkpt>
      <trkpt lat="49.87256" lon="1.97868">
        <ele>72.2</ele>
        <time>2023-05-03T13:39:43Z</time>
      </trkpt>
      <trkpt lat="49.87257" lon="1.9787">
        <ele>72.2</ele>
        <time>2023-05-03T13:39:44Z</time>
      </trkpt>
      <trkpt lat="49.87258" lon="1.97871">
        <ele>72.2</ele>
        <time>2023-05-03T13:39:45Z</time>
      </trkpt>
      <trkpt lat="49.87259" lon="1.97874">
        <ele>72.2</ele>
        <time>2023-05-03T13:39:46Z</time>
      </trkpt>
      <trkpt lat="49.8726" lon="1.97876">
        <ele>72.2</ele>
        <time>2023-05-03T13:39:48Z</time>
      </trkpt>
      <trkpt lat="49.8726" lon="1.97877">
        <ele>72.2</ele>
        <time>2023-05-03T13:39:49Z</time>
      </trkpt>
      <trkpt lat="49.87261" lon="1.97879">
        <ele>72.2</ele>
        <time>2023-05-03T13:39:50Z</time>
      </trkpt>
      <trkpt lat="49.87261" lon="1.9788">
        <ele>72.2</ele>
        <time>2023-05-03T13:39:51Z</time>
      </trkpt>
      <trkpt lat="49.87263" lon="1.97883">
        <ele>72.1</ele>
        <time>2023-05-03T13:39:52Z</time>
      </trkpt>
      <trkpt lat="49.87263" lon="1.97884">
        <ele>72.1</ele>
        <time>2023-05-03T13:39:53Z</time>
      </trkpt>
      <trkpt lat="49.87264" lon="1.97885">
        <ele>72.1</ele>
        <time>2023-05-03T13:39:54Z</time>
      </trkpt>
      <trkpt lat="49.87264" lon="1.97888">
        <ele>72.1</ele>
        <time>2023-05-03T13:39:56Z</time>
      </trkpt>
      <trkpt lat="49.87265" lon="1.97889">
        <ele>72.1</ele>
        <time>2023-05-03T13:39:57Z</time>
      </trkpt>
      <trkpt lat="49.87265" lon="1.97891">
        <ele>72.1</ele>
        <time>2023-05-03T13:39:58Z</time>
      </trkpt>
      <trkpt lat="49.87266" lon="1.97894">
        <ele>72.1</ele>
        <time>2023-05-03T13:40:00Z</time>
      </trkpt>
      <trkpt lat="49.87267" lon="1.97896">
        <ele>72.1</ele>
        <time>2023-05-03T13:40:01Z</time>
      </trkpt>
      <trkpt lat="49.87268" lon="1.97897">
        <ele>72.1</ele>
        <time>2023-05-03T13:40:02Z</time>
      </trkpt>
      <trkpt lat="49.87268" lon="1.97899">
        <ele>72.1</ele>
        <time>2023-05-03T13:40:04Z</time>
      </trkpt>
      <trkpt lat="49.87269" lon="1.97901">
        <ele>72.1</ele>
        <time>2023-05-03T13:40:05Z</time>
      </trkpt>
      <trkpt lat="49.8727" lon="1.97903">
        <ele>72.1</ele>
        <time>2023-05-03T13:40:06Z</time>
      </trkpt>
      <trkpt lat="49.87271" lon="1.97906">
        <ele>72</ele>
        <time>2023-05-03T13:40:07Z</time>
      </trkpt>
      <trkpt lat="49.87271" lon="1.97907">
        <ele>72</ele>
        <time>2023-05-03T13:40:08Z</time>
      </trkpt>
      <trkpt lat="49.87272" lon="1.97908">
        <ele>72</ele>
        <time>2023-05-03T13:40:09Z</time>
      </trkpt>
      <trkpt lat="49.87272" lon="1.9791">
        <ele>72</ele>
        <time>2023-05-03T13:40:10Z</time>
      </trkpt>
      <trkpt lat="49.87273" lon="1.97912">
        <ele>72</ele>
        <time>2023-05-03T13:40:11Z</time>
      </trkpt>
      <trkpt lat="49.87274" lon="1.97914">
        <ele>72</ele>
        <time>2023-05-03T13:40:13Z</time>
      </trkpt>
      <trkpt lat="49.87275" lon="1.97916">
        <ele>72</ele>
        <time>2023-05-03T13:40:14Z</time>
      </trkpt>
      <trkpt lat="49.87275" lon="1.97918">
        <ele>72</ele>
        <time>2023-05-03T13:40:15Z</time>
      </trkpt>
      <trkpt lat="49.87276" lon="1.9792">
        <ele>72</ele>
        <time>2023-05-03T13:40:16Z</time>
      </trkpt>
      <trkpt lat="49.87276" lon="1.97921">
        <ele>71.9</ele>
        <time>2023-05-03T13:40:17Z</time>
      </trkpt>
      <trkpt lat="49.87277" lon="1.97923">
        <ele>71.9</ele>
        <time>2023-05-03T13:40:18Z</time>
      </trkpt>
      <trkpt lat="49.87277" lon="1.97925">
        <ele>71.9</ele>
        <time>2023-05-03T13:40:19Z</time>
      </trkpt>
      <trkpt lat="49.87278" lon="1.97926">
        <ele>71.9</ele>
        <time>2023-05-03T13:40:20Z</time>
      </trkpt>
      <trkpt lat="49.87279" lon="1.97929">
        <ele>71.9</ele>
        <time>2023-05-03T13:40:22Z</time>
      </trkpt>
      <trkpt lat="49.8728" lon="1.97931">
        <ele>71.9</ele>
        <time>2023-05-03T13:40:23Z</time>
      </trkpt>
      <trkpt lat="49.8728" lon="1.97933">
        <ele>71.9</ele>
        <time>2023-05-03T13:40:25Z</time>
      </trkpt>
      <trkpt lat="49.87281" lon="1.97935">
        <ele>71.9</ele>
        <time>2023-05-03T13:40:26Z</time>
      </trkpt>
      <trkpt lat="49.87282" lon="1.97937">
        <ele>71.8</ele>
        <time>2023-05-03T13:40:27Z</time>
      </trkpt>
      <trkpt lat="49.87282" lon="1.9794">
        <ele>71.8</ele>
        <time>2023-05-03T13:40:28Z</time>
      </trkpt>
      <trkpt lat="49.87282" lon="1.97941">
        <ele>71.8</ele>
        <time>2023-05-03T13:40:29Z</time>
      </trkpt>
      <trkpt lat="49.87282" lon="1.97943">
        <ele>71.8</ele>
        <time>2023-05-03T13:40:30Z</time>
      </trkpt>
      <trkpt lat="49.87282" lon="1.97945">
        <ele>71.8</ele>
        <time>2023-05-03T13:40:31Z</time>
      </trkpt>
      <trkpt lat="49.87283" lon="1.97947">
        <ele>71.8</ele>
        <time>2023-05-03T13:40:32Z</time>
      </trkpt>
      <trkpt lat="49.87283" lon="1.97949">
        <ele>71.8</ele>
        <time>2023-05-03T13:40:34Z</time>
      </trkpt>
      <trkpt lat="49.87283" lon="1.97952">
        <ele>71.8</ele>
        <time>2023-05-03T13:40:35Z</time>
      </trkpt>
      <trkpt lat="49.87284" lon="1.97954">
        <ele>71.8</ele>
        <time>2023-05-03T13:40:36Z</time>
      </trkpt>
      <trkpt lat="49.87284" lon="1.97955">
        <ele>71.8</ele>
        <time>2023-05-03T13:40:37Z</time>
      </trkpt>
      <trkpt lat="49.87285" lon="1.97958">
        <ele>71.8</ele>
        <time>2023-05-03T13:40:38Z</time>
      </trkpt>
      <trkpt lat="49.87285" lon="1.97959">
        <ele>71.8</ele>
        <time>2023-05-03T13:40:39Z</time>
      </trkpt>
      <trkpt lat="49.87285" lon="1.9796">
        <ele>71.8</ele>
        <time>2023-05-03T13:40:40Z</time>
      </trkpt>
      <trkpt lat="49.87286" lon="1.97962">
        <ele>71.7</ele>
        <time>2023-05-03T13:40:41Z</time>
      </trkpt>
      <trkpt lat="49.87286" lon="1.97964">
        <ele>71.7</ele>
        <time>2023-05-03T13:40:42Z</time>
      </trkpt>
      <trkpt lat="49.87287" lon="1.97966">
        <ele>71.7</ele>
        <time>2023-05-03T13:40:44Z</time>
      </trkpt>
      <trkpt lat="49.87287" lon="1.97969">
        <ele>71.7</ele>
        <time>2023-05-03T13:40:45Z</time>
      </trkpt>
      <trkpt lat="49.87288" lon="1.97971">
        <ele>71.7</ele>
        <time>2023-05-03T13:40:46Z</time>
      </trkpt>
      <trkpt lat="49.87288" lon="1.97972">
        <ele>71.7</ele>
        <time>2023-05-03T13:40:47Z</time>
      </trkpt>
      <trkpt lat="49.87288" lon="1.97975">
        <ele>71.7</ele>
        <time>2023-05-03T13:40:48Z</time>
      </trkpt>
      <trkpt lat="49.87289" lon="1.97976">
        <ele>71.7</ele>
        <time>2023-05-03T13:40:49Z</time>
      </trkpt>
      <trkpt lat="49.87289" lon="1.97978">
        <ele>71.7</ele>
        <time>2023-05-03T13:40:50Z</time>
      </trkpt>
      <trkpt lat="49.87289" lon="1.97981">
        <ele>71.7</ele>
        <time>2023-05-03T13:40:51Z</time>
      </trkpt>
      <trkpt lat="49.87289" lon="1.97982">
        <ele>71.7</ele>
        <time>2023-05-03T13:40:52Z</time>
      </trkpt>
      <trkpt lat="49.8729" lon="1.97983">
        <ele>71.7</ele>
        <time>2023-05-03T13:40:53Z</time>
      </trkpt>
      <trkpt lat="49.8729" lon="1.97985">
        <ele>71.7</ele>
        <time>2023-05-03T13:40:54Z</time>
      </trkpt>
      <trkpt lat="49.87291" lon="1.97987">
        <ele>71.7</ele>
        <time>2023-05-03T13:40:55Z</time>
      </trkpt>
      <trkpt lat="49.87291" lon="1.9799">
        <ele>71.6</ele>
        <time>2023-05-03T13:40:56Z</time>
      </trkpt>
      <trkpt lat="49.87291" lon="1.97992">
        <ele>71.6</ele>
        <time>2023-05-03T13:40:58Z</time>
      </trkpt>
      <trkpt lat="49.87292" lon="1.97994">
        <ele>71.6</ele>
        <time>2023-05-03T13:40:59Z</time>
      </trkpt>
      <trkpt lat="49.87292" lon="1.97996">
        <ele>71.6</ele>
        <time>2023-05-03T13:41:00Z</time>
      </trkpt>
      <trkpt lat="49.87293" lon="1.97997">
        <ele>71.6</ele>
        <time>2023-05-03T13:41:01Z</time>
      </trkpt>
      <trkpt lat="49.87293" lon="1.97999">
        <ele>71.6</ele>
        <time>2023-05-03T13:41:02Z</time>
      </trkpt>
      <trkpt lat="49.87294" lon="1.98">
        <ele>71.6</ele>
        <time>2023-05-03T13:41:03Z</time>
      </trkpt>
      <trkpt lat="49.87294" lon="1.98002">
        <ele>71.6</ele>
        <time>2023-05-03T13:41:04Z</time>
      </trkpt>
      <trkpt lat="49.87295" lon="1.98003">
        <ele>71.6</ele>
        <time>2023-05-03T13:41:05Z</time>
      </trkpt>
      <trkpt lat="49.87296" lon="1.98006">
        <ele>71.6</ele>
        <time>2023-05-03T13:41:07Z</time>
      </trkpt>
      <trkpt lat="49.87297" lon="1.98008">
        <ele>71.6</ele>
        <time>2023-05-03T13:41:08Z</time>
      </trkpt>
      <trkpt lat="49.87297" lon="1.9801">
        <ele>71.5</ele>
        <time>2023-05-03T13:41:09Z</time>
      </trkpt>
      <trkpt lat="49.87298" lon="1.98012">
        <ele>71.5</ele>
        <time>2023-05-03T13:41:10Z</time>
      </trkpt>
      <trkpt lat="49.87298" lon="1.98014">
        <ele>71.5</ele>
        <time>2023-05-03T13:41:12Z</time>
      </trkpt>
      <trkpt lat="49.87299" lon="1.98017">
        <ele>71.5</ele>
        <time>2023-05-03T13:41:13Z</time>
      </trkpt>
      <trkpt lat="49.87299" lon="1.98019">
        <ele>71.5</ele>
        <time>2023-05-03T13:41:14Z</time>
      </trkpt>
      <trkpt lat="49.873" lon="1.98022">
        <ele>71.5</ele>
        <time>2023-05-03T13:41:15Z</time>
      </trkpt>
      <trkpt lat="49.873" lon="1.98023">
        <ele>71.5</ele>
        <time>2023-05-03T13:41:16Z</time>
      </trkpt>
      <trkpt lat="49.873" lon="1.98025">
        <ele>71.5</ele>
        <time>2023-05-03T13:41:17Z</time>
      </trkpt>
      <trkpt lat="49.87301" lon="1.98027">
        <ele>71.4</ele>
        <time>2023-05-03T13:41:18Z</time>
      </trkpt>
      <trkpt lat="49.87301" lon="1.98029">
        <ele>71.4</ele>
        <time>2023-05-03T13:41:19Z</time>
      </trkpt>
      <trkpt lat="49.87303" lon="1.98033">
        <ele>71.4</ele>
        <time>2023-05-03T13:41:21Z</time>
      </trkpt>
      <trkpt lat="49.87303" lon="1.98034">
        <ele>71.4</ele>
        <time>2023-05-03T13:41:22Z</time>
      </trkpt>
      <trkpt lat="49.87304" lon="1.98036">
        <ele>71.4</ele>
        <time>2023-05-03T13:41:23Z</time>
      </trkpt>
      <trkpt lat="49.87304" lon="1.98038">
        <ele>71.4</ele>
        <time>2023-05-03T13:41:24Z</time>
      </trkpt>
      <trkpt lat="49.87304" lon="1.9804">
        <ele>71.3</ele>
        <time>2023-05-03T13:41:25Z</time>
      </trkpt>
      <trkpt lat="49.87305" lon="1.98043">
        <ele>71.3</ele>
        <time>2023-05-03T13:41:27Z</time>
      </trkpt>
      <trkpt lat="49.87306" lon="1.98045">
        <ele>71.3</ele>
        <time>2023-05-03T13:41:28Z</time>
      </trkpt>
      <trkpt lat="49.87306" lon="1.98047">
        <ele>71.3</ele>
        <time>2023-05-03T13:41:29Z</time>
      </trkpt>
      <trkpt lat="49.87306" lon="1.98049">
        <ele>71.3</ele>
        <time>2023-05-03T13:41:30Z</time>
      </trkpt>
      <trkpt lat="49.87307" lon="1.98052">
        <ele>71.3</ele>
        <time>2023-05-03T13:41:32Z</time>
      </trkpt>
      <trkpt lat="49.87307" lon="1.98053">
        <ele>71.2</ele>
        <time>2023-05-03T13:41:33Z</time>
      </trkpt>
      <trkpt lat="49.87307" lon="1.98056">
        <ele>71.2</ele>
        <time>2023-05-03T13:41:34Z</time>
      </trkpt>
      <trkpt lat="49.87308" lon="1.98058">
        <ele>71.2</ele>
        <time>2023-05-03T13:41:35Z</time>
      </trkpt>
      <trkpt lat="49.87308" lon="1.9806">
        <ele>71.2</ele>
        <time>2023-05-03T13:41:36Z</time>
      </trkpt>
      <trkpt lat="49.87309" lon="1.98063">
        <ele>71.2</ele>
        <time>2023-05-03T13:41:37Z</time>
      </trkpt>
      <trkpt lat="49.87309" lon="1.98064">
        <ele>71.2</ele>
        <time>2023-05-03T13:41:38Z</time>
      </trkpt>
      <trkpt lat="49.87309" lon="1.98066">
        <ele>71.2</ele>
        <time>2023-05-03T13:41:39Z</time>
      </trkpt>
      <trkpt lat="49.8731" lon="1.98069">
        <ele>71.1</ele>
        <time>2023-05-03T13:41:41Z</time>
      </trkpt>
      <trkpt lat="49.87311" lon="1.9807">
        <ele>71.1</ele>
        <time>2023-05-03T13:41:42Z</time>
      </trkpt>
      <trkpt lat="49.87311" lon="1.98072">
        <ele>71.1</ele>
        <time>2023-05-03T13:41:43Z</time>
      </trkpt>
      <trkpt lat="49.87312" lon="1.98074">
        <ele>71.1</ele>
        <time>2023-05-03T13:41:44Z</time>
      </trkpt>
      <trkpt lat="49.87312" lon="1.98076">
        <ele>71.1</ele>
        <time>2023-05-03T13:41:46Z</time>
      </trkpt>
      <trkpt lat="49.87313" lon="1.98078">
        <ele>71.1</ele>
        <time>2023-05-03T13:41:47Z</time>
      </trkpt>
      <trkpt lat="49.87313" lon="1.9808">
        <ele>71.1</ele>
        <time>2023-05-03T13:41:48Z</time>
      </trkpt>
      <trkpt lat="49.87313" lon="1.98081">
        <ele>71.1</ele>
        <time>2023-05-03T13:41:49Z</time>
      </trkpt>
      <trkpt lat="49.87314" lon="1.98085">
        <ele>71</ele>
        <time>2023-05-03T13:41:50Z</time>
      </trkpt>
      <trkpt lat="49.87315" lon="1.98086">
        <ele>71</ele>
        <time>2023-05-03T13:41:52Z</time>
      </trkpt>
      <trkpt lat="49.87315" lon="1.98088">
        <ele>71</ele>
        <time>2023-05-03T13:41:53Z</time>
      </trkpt>
      <trkpt lat="49.87316" lon="1.98089">
        <ele>71</ele>
        <time>2023-05-03T13:41:54Z</time>
      </trkpt>
      <trkpt lat="49.87316" lon="1.9809">
        <ele>71</ele>
        <time>2023-05-03T13:41:55Z</time>
      </trkpt>
      <trkpt lat="49.87317" lon="1.98092">
        <ele>71</ele>
        <time>2023-05-03T13:41:56Z</time>
      </trkpt>
      <trkpt lat="49.87317" lon="1.98093">
        <ele>71</ele>
        <time>2023-05-03T13:41:57Z</time>
      </trkpt>
      <trkpt lat="49.87318" lon="1.98095">
        <ele>71</ele>
        <time>2023-05-03T13:41:58Z</time>
      </trkpt>
      <trkpt lat="49.87319" lon="1.98098">
        <ele>71</ele>
        <time>2023-05-03T13:42:00Z</time>
      </trkpt>
      <trkpt lat="49.87319" lon="1.981">
        <ele>71</ele>
        <time>2023-05-03T13:42:01Z</time>
      </trkpt>
      <trkpt lat="49.8732" lon="1.98102">
        <ele>70.9</ele>
        <time>2023-05-03T13:42:02Z</time>
      </trkpt>
      <trkpt lat="49.8732" lon="1.98104">
        <ele>70.9</ele>
        <time>2023-05-03T13:42:03Z</time>
      </trkpt>
      <trkpt lat="49.87321" lon="1.98106">
        <ele>70.9</ele>
        <time>2023-05-03T13:42:05Z</time>
      </trkpt>
      <trkpt lat="49.87321" lon="1.98108">
        <ele>70.9</ele>
        <time>2023-05-03T13:42:06Z</time>
      </trkpt>
      <trkpt lat="49.87322" lon="1.98111">
        <ele>70.8</ele>
        <time>2023-05-03T13:42:07Z</time>
      </trkpt>
      <trkpt lat="49.87322" lon="1.98112">
        <ele>70.8</ele>
        <time>2023-05-03T13:42:08Z</time>
      </trkpt>
      <trkpt lat="49.87322" lon="1.98113">
        <ele>70.8</ele>
        <time>2023-05-03T13:42:09Z</time>
      </trkpt>
      <trkpt lat="49.87322" lon="1.98115">
        <ele>70.8</ele>
        <time>2023-05-03T13:42:10Z</time>
      </trkpt>
      <trkpt lat="49.87323" lon="1.98117">
        <ele>70.8</ele>
        <time>2023-05-03T13:42:11Z</time>
      </trkpt>
      <trkpt lat="49.87323" lon="1.98118">
        <ele>70.7</ele>
        <time>2023-05-03T13:42:12Z</time>
      </trkpt>
      <trkpt lat="49.87323" lon="1.9812">
        <ele>70.7</ele>
        <time>2023-05-03T13:42:13Z</time>
      </trkpt>
      <trkpt lat="49.87324" lon="1.98122">
        <ele>70.7</ele>
        <time>2023-05-03T13:42:14Z</time>
      </trkpt>
      <trkpt lat="49.87324" lon="1.98125">
        <ele>70.6</ele>
        <time>2023-05-03T13:42:16Z</time>
      </trkpt>
      <trkpt lat="49.87325" lon="1.98128">
        <ele>70.6</ele>
        <time>2023-05-03T13:42:17Z</time>
      </trkpt>
      <trkpt lat="49.87325" lon="1.98129">
        <ele>70.6</ele>
        <time>2023-05-03T13:42:18Z</time>
      </trkpt>
      <trkpt lat="49.87325" lon="1.9813">
        <ele>70.5</ele>
        <time>2023-05-03T13:42:19Z</time>
      </trkpt>
      <trkpt lat="49.87326" lon="1.98132">
        <ele>70.5</ele>
        <time>2023-05-03T13:42:20Z</time>
      </trkpt>
      <trkpt lat="49.87327" lon="1.98135">
        <ele>70.5</ele>
        <time>2023-05-03T13:42:22Z</time>
      </trkpt>
      <trkpt lat="49.87327" lon="1.98136">
        <ele>70.4</ele>
        <time>2023-05-03T13:42:23Z</time>
      </trkpt>
      <trkpt lat="49.87328" lon="1.98138">
        <ele>70.4</ele>
        <time>2023-05-03T13:42:24Z</time>
      </trkpt>
      <trkpt lat="49.87328" lon="1.98139">
        <ele>70.4</ele>
        <time>2023-05-03T13:42:25Z</time>
      </trkpt>
      <trkpt lat="49.87329" lon="1.98142">
        <ele>70.3</ele>
        <time>2023-05-03T13:42:27Z</time>
      </trkpt>
      <trkpt lat="49.87329" lon="1.98144">
        <ele>70.3</ele>
        <time>2023-05-03T13:42:28Z</time>
      </trkpt>
      <trkpt lat="49.8733" lon="1.98146">
        <ele>70.2</ele>
        <time>2023-05-03T13:42:29Z</time>
      </trkpt>
      <trkpt lat="49.87331" lon="1.98148">
        <ele>70.2</ele>
        <time>2023-05-03T13:42:31Z</time>
      </trkpt>
      <trkpt lat="49.87331" lon="1.9815">
        <ele>70.2</ele>
        <time>2023-05-03T13:42:32Z</time>
      </trkpt>
      <trkpt lat="49.87332" lon="1.98152">
        <ele>70.1</ele>
        <time>2023-05-03T13:42:33Z</time>
      </trkpt>
      <trkpt lat="49.87333" lon="1.98154">
        <ele>70.1</ele>
        <time>2023-05-03T13:42:34Z</time>
      </trkpt>
      <trkpt lat="49.87333" lon="1.98156">
        <ele>70</ele>
        <time>2023-05-03T13:42:35Z</time>
      </trkpt>
      <trkpt lat="49.87334" lon="1.98157">
        <ele>70</ele>
        <time>2023-05-03T13:42:36Z</time>
      </trkpt>
      <trkpt lat="49.87334" lon="1.98159">
        <ele>70</ele>
        <time>2023-05-03T13:42:37Z</time>
      </trkpt>
      <trkpt lat="49.87335" lon="1.98161">
        <ele>70</ele>
        <time>2023-05-03T13:42:38Z</time>
      </trkpt>
      <trkpt lat="49.87335" lon="1.98163">
        <ele>69.9</ele>
        <time>2023-05-03T13:42:39Z</time>
      </trkpt>
      <trkpt lat="49.87336" lon="1.98164">
        <ele>69.9</ele>
        <time>2023-05-03T13:42:40Z</time>
      </trkpt>
      <trkpt lat="49.87337" lon="1.98166">
        <ele>69.9</ele>
        <time>2023-05-03T13:42:41Z</time>
      </trkpt>
      <trkpt lat="49.87337" lon="1.98168">
        <ele>69.8</ele>
        <time>2023-05-03T13:42:42Z</time>
      </trkpt>
      <trkpt lat="49.87338" lon="1.9817">
        <ele>69.8</ele>
        <time>2023-05-03T13:42:44Z</time>
      </trkpt>
      <trkpt lat="49.87339" lon="1.98172">
        <ele>69.7</ele>
        <time>2023-05-03T13:42:45Z</time>
      </trkpt>
      <trkpt lat="49.87339" lon="1.98174">
        <ele>69.7</ele>
        <time>2023-05-03T13:42:46Z</time>
      </trkpt>
      <trkpt lat="49.8734" lon="1.98176">
        <ele>69.7</ele>
        <time>2023-05-03T13:42:47Z</time>
      </trkpt>
      <trkpt lat="49.8734" lon="1.98178">
        <ele>69.6</ele>
        <time>2023-05-03T13:42:48Z</time>
      </trkpt>
      <trkpt lat="49.87341" lon="1.9818">
        <ele>69.6</ele>
        <time>2023-05-03T13:42:49Z</time>
      </trkpt>
      <trkpt lat="49.87341" lon="1.98182">
        <ele>69.6</ele>
        <time>2023-05-03T13:42:51Z</time>
      </trkpt>
      <trkpt lat="49.87342" lon="1.98185">
        <ele>69.5</ele>
        <time>2023-05-03T13:42:52Z</time>
      </trkpt>
      <trkpt lat="49.87343" lon="1.98187">
        <ele>69.5</ele>
        <time>2023-05-03T13:42:53Z</time>
      </trkpt>
      <trkpt lat="49.87343" lon="1.98189">
        <ele>69.4</ele>
        <time>2023-05-03T13:42:54Z</time>
      </trkpt>
      <trkpt lat="49.87343" lon="1.98191">
        <ele>69.4</ele>
        <time>2023-05-03T13:42:55Z</time>
      </trkpt>
      <trkpt lat="49.87344" lon="1.98194">
        <ele>69.3</ele>
        <time>2023-05-03T13:42:57Z</time>
      </trkpt>
      <trkpt lat="49.87344" lon="1.98196">
        <ele>69.3</ele>
        <time>2023-05-03T13:42:58Z</time>
      </trkpt>
      <trkpt lat="49.87344" lon="1.98198">
        <ele>69.3</ele>
        <time>2023-05-03T13:42:59Z</time>
      </trkpt>
      <trkpt lat="49.87344" lon="1.982">
        <ele>69.2</ele>
        <time>2023-05-03T13:43:00Z</time>
      </trkpt>
      <trkpt lat="49.87344" lon="1.98203">
        <ele>69.2</ele>
        <time>2023-05-03T13:43:01Z</time>
      </trkpt>
      <trkpt lat="49.87344" lon="1.98205">
        <ele>69.2</ele>
        <time>2023-05-03T13:43:02Z</time>
      </trkpt>
      <trkpt lat="49.87344" lon="1.98206">
        <ele>69.1</ele>
        <time>2023-05-03T13:43:03Z</time>
      </trkpt>
      <trkpt lat="49.87345" lon="1.98209">
        <ele>69.1</ele>
        <time>2023-05-03T13:43:04Z</time>
      </trkpt>
      <trkpt lat="49.87345" lon="1.98211">
        <ele>69.1</ele>
        <time>2023-05-03T13:43:06Z</time>
      </trkpt>
      <trkpt lat="49.87346" lon="1.98213">
        <ele>69</ele>
        <time>2023-05-03T13:43:07Z</time>
      </trkpt>
      <trkpt lat="49.87346" lon="1.98215">
        <ele>69</ele>
        <time>2023-05-03T13:43:08Z</time>
      </trkpt>
      <trkpt lat="49.87346" lon="1.98216">
        <ele>69</ele>
        <time>2023-05-03T13:43:09Z</time>
      </trkpt>
      <trkpt lat="49.87346" lon="1.98219">
        <ele>68.9</ele>
        <time>2023-05-03T13:43:11Z</time>
      </trkpt>
      <trkpt lat="49.87346" lon="1.98222">
        <ele>68.9</ele>
        <time>2023-05-03T13:43:12Z</time>
      </trkpt>
      <trkpt lat="49.87345" lon="1.98225">
        <ele>68.9</ele>
        <time>2023-05-03T13:43:13Z</time>
      </trkpt>
      <trkpt lat="49.87345" lon="1.98226">
        <ele>68.9</ele>
        <time>2023-05-03T13:43:14Z</time>
      </trkpt>
      <trkpt lat="49.87344" lon="1.98227">
        <ele>68.8</ele>
        <time>2023-05-03T13:43:15Z</time>
      </trkpt>
      <trkpt lat="49.87342" lon="1.98229">
        <ele>68.8</ele>
        <time>2023-05-03T13:43:16Z</time>
      </trkpt>
      <trkpt lat="49.87341" lon="1.98229">
        <ele>68.8</ele>
        <time>2023-05-03T13:43:18Z</time>
      </trkpt>
      <trkpt lat="49.8734" lon="1.9823">
        <ele>68.8</ele>
        <time>2023-05-03T13:43:19Z</time>
      </trkpt>
      <trkpt lat="49.87339" lon="1.9823">
        <ele>68.6</ele>
        <time>2023-05-03T13:43:20Z</time>
      </trkpt>
      <trkpt lat="49.87338" lon="1.98231">
        <ele>68.6</ele>
        <time>2023-05-03T13:43:21Z</time>
      </trkpt>
      <trkpt lat="49.87336" lon="1.98232">
        <ele>68.6</ele>
        <time>2023-05-03T13:43:22Z</time>
      </trkpt>
      <trkpt lat="49.87335" lon="1.98232">
        <ele>68.6</ele>
        <time>2023-05-03T13:43:23Z</time>
      </trkpt>
      <trkpt lat="49.87334" lon="1.98233">
        <ele>68.6</ele>
        <time>2023-05-03T13:43:24Z</time>
      </trkpt>
      <trkpt lat="49.87332" lon="1.98234">
        <ele>68.6</ele>
        <time>2023-05-03T13:43:25Z</time>
      </trkpt>
      <trkpt lat="49.87332" lon="1.98235">
        <ele>68.5</ele>
        <time>2023-05-03T13:43:26Z</time>
      </trkpt>
      <trkpt lat="49.87331" lon="1.98236">
        <ele>68.4</ele>
        <time>2023-05-03T13:43:27Z</time>
      </trkpt>
      <trkpt lat="49.87328" lon="1.98238">
        <ele>68.4</ele>
        <time>2023-05-03T13:43:29Z</time>
      </trkpt>
      <trkpt lat="49.87328" lon="1.98239">
        <ele>68.4</ele>
        <time>2023-05-03T13:43:30Z</time>
      </trkpt>
      <trkpt lat="49.87326" lon="1.9824">
        <ele>68.3</ele>
        <time>2023-05-03T13:43:31Z</time>
      </trkpt>
      <trkpt lat="49.87325" lon="1.98242">
        <ele>68.2</ele>
        <time>2023-05-03T13:43:32Z</time>
      </trkpt>
      <trkpt lat="49.87324" lon="1.98243">
        <ele>68.2</ele>
        <time>2023-05-03T13:43:33Z</time>
      </trkpt>
      <trkpt lat="49.87323" lon="1.98245">
        <ele>68</ele>
        <time>2023-05-03T13:43:34Z</time>
      </trkpt>
      <trkpt lat="49.87322" lon="1.98246">
        <ele>68</ele>
        <time>2023-05-03T13:43:36Z</time>
      </trkpt>
      <trkpt lat="49.8732" lon="1.98248">
        <ele>67.9</ele>
        <time>2023-05-03T13:43:37Z</time>
      </trkpt>
      <trkpt lat="49.87319" lon="1.98249">
        <ele>67.9</ele>
        <time>2023-05-03T13:43:38Z</time>
      </trkpt>
      <trkpt lat="49.87318" lon="1.98251">
        <ele>67.9</ele>
        <time>2023-05-03T13:43:39Z</time>
      </trkpt>
      <trkpt lat="49.87317" lon="1.98253">
        <ele>67.7</ele>
        <time>2023-05-03T13:43:40Z</time>
      </trkpt>
      <trkpt lat="49.87316" lon="1.98254">
        <ele>67.7</ele>
        <time>2023-05-03T13:43:41Z</time>
      </trkpt>
      <trkpt lat="49.87314" lon="1.98258">
        <ele>67.5</ele>
        <time>2023-05-03T13:43:43Z</time>
      </trkpt>
      <trkpt lat="49.87313" lon="1.98258">
        <ele>67.5</ele>
        <time>2023-05-03T13:43:44Z</time>
      </trkpt>
      <trkpt lat="49.87312" lon="1.9826">
        <ele>67.5</ele>
        <time>2023-05-03T13:43:45Z</time>
      </trkpt>
      <trkpt lat="49.8731" lon="1.98263">
        <ele>67.4</ele>
        <time>2023-05-03T13:43:47Z</time>
      </trkpt>
      <trkpt lat="49.87309" lon="1.98265">
        <ele>67.2</ele>
        <time>2023-05-03T13:43:48Z</time>
      </trkpt>
      <trkpt lat="49.87308" lon="1.98266">
        <ele>67.2</ele>
        <time>2023-05-03T13:43:49Z</time>
      </trkpt>
      <trkpt lat="49.87308" lon="1.98267">
        <ele>67.2</ele>
        <time>2023-05-03T13:43:50Z</time>
      </trkpt>
      <trkpt lat="49.87306" lon="1.9827">
        <ele>67.1</ele>
        <time>2023-05-03T13:43:51Z</time>
      </trkpt>
      <trkpt lat="49.87306" lon="1.98271">
        <ele>67.1</ele>
        <time>2023-05-03T13:43:53Z</time>
      </trkpt>
      <trkpt lat="49.87305" lon="1.98272">
        <ele>67.1</ele>
        <time>2023-05-03T13:43:54Z</time>
      </trkpt>
      <trkpt lat="49.87304" lon="1.98273">
        <ele>67.1</ele>
        <time>2023-05-03T13:43:55Z</time>
      </trkpt>
      <trkpt lat="49.87304" lon="1.98274">
        <ele>67</ele>
        <time>2023-05-03T13:43:56Z</time>
      </trkpt>
      <trkpt lat="49.87303" lon="1.98275">
        <ele>67</ele>
        <time>2023-05-03T13:43:57Z</time>
      </trkpt>
      <trkpt lat="49.87302" lon="1.98276">
        <ele>67</ele>
        <time>2023-05-03T13:43:58Z</time>
      </trkpt>
      <trkpt lat="49.87301" lon="1.98277">
        <ele>67</ele>
        <time>2023-05-03T13:43:59Z</time>
      </trkpt>
      <trkpt lat="49.873" lon="1.98278">
        <ele>66.9</ele>
        <time>2023-05-03T13:44:00Z</time>
      </trkpt>
      <trkpt lat="49.87299" lon="1.98279">
        <ele>66.9</ele>
        <time>2023-05-03T13:44:01Z</time>
      </trkpt>
      <trkpt lat="49.87298" lon="1.9828">
        <ele>66.9</ele>
        <time>2023-05-03T13:44:03Z</time>
      </trkpt>
      <trkpt lat="49.87297" lon="1.98281">
        <ele>66.9</ele>
        <time>2023-05-03T13:44:04Z</time>
      </trkpt>
      <trkpt lat="49.87296" lon="1.98282">
        <ele>66.8</ele>
        <time>2023-05-03T13:44:05Z</time>
      </trkpt>
      <trkpt lat="49.87295" lon="1.98283">
        <ele>66.8</ele>
        <time>2023-05-03T13:44:06Z</time>
      </trkpt>
      <trkpt lat="49.87294" lon="1.98283">
        <ele>66.8</ele>
        <time>2023-05-03T13:44:07Z</time>
      </trkpt>
      <trkpt lat="49.87293" lon="1.98283">
        <ele>66.8</ele>
        <time>2023-05-03T13:44:08Z</time>
      </trkpt>
      <trkpt lat="49.87292" lon="1.98283">
        <ele>66.8</ele>
        <time>2023-05-03T13:44:09Z</time>
      </trkpt>
      <trkpt lat="49.87291" lon="1.98283">
        <ele>66.8</ele>
        <time>2023-05-03T13:44:11Z</time>
      </trkpt>
      <trkpt lat="49.87289" lon="1.98284">
        <ele>66.8</ele>
        <time>2023-05-03T13:44:12Z</time>
      </trkpt>
      <trkpt lat="49.87288" lon="1.98284">
        <ele>66.8</ele>
        <time>2023-05-03T13:44:13Z</time>
      </trkpt>
      <trkpt lat="49.87287" lon="1.98285">
        <ele>66.8</ele>
        <time>2023-05-03T13:44:14Z</time>
      </trkpt>
      <trkpt lat="49.87286" lon="1.98285">
        <ele>66.8</ele>
        <time>2023-05-03T13:44:15Z</time>
      </trkpt>
      <trkpt lat="49.87285" lon="1.98285">
        <ele>66.8</ele>
        <time>2023-05-03T13:44:16Z</time>
      </trkpt>
      <trkpt lat="49.87283" lon="1.98285">
        <ele>66.8</ele>
        <time>2023-05-03T13:44:17Z</time>
      </trkpt>
      <trkpt lat="49.87282" lon="1.98285">
        <ele>66.8</ele>
        <time>2023-05-03T13:44:19Z</time>
      </trkpt>
      <trkpt lat="49.87281" lon="1.98285">
        <ele>66.7</ele>
        <time>2023-05-03T13:44:20Z</time>
      </trkpt>
      <trkpt lat="49.87279" lon="1.98284">
        <ele>66.7</ele>
        <time>2023-05-03T13:44:21Z</time>
      </trkpt>
      <trkpt lat="49.87278" lon="1.98284">
        <ele>66.7</ele>
        <time>2023-05-03T13:44:22Z</time>
      </trkpt>
      <trkpt lat="49.87277" lon="1.98284">
        <ele>66.7</ele>
        <time>2023-05-03T13:44:23Z</time>
      </trkpt>
      <trkpt lat="49.87275" lon="1.98285">
        <ele>66.7</ele>
        <time>2023-05-03T13:44:24Z</time>
      </trkpt>
      <trkpt lat="49.87275" lon="1.98285">
        <ele>66.7</ele>
        <time>2023-05-03T13:44:25Z</time>
      </trkpt>
      <trkpt lat="49.87274" lon="1.98286">
        <ele>66.7</ele>
        <time>2023-05-03T13:44:26Z</time>
      </trkpt>
      <trkpt lat="49.87272" lon="1.98287">
        <ele>66.7</ele>
        <time>2023-05-03T13:44:28Z</time>
      </trkpt>
      <trkpt lat="49.8727" lon="1.98289">
        <ele>66.7</ele>
        <time>2023-05-03T13:44:30Z</time>
      </trkpt>
      <trkpt lat="49.87269" lon="1.9829">
        <ele>66.7</ele>
        <time>2023-05-03T13:44:31Z</time>
      </trkpt>
      <trkpt lat="49.87268" lon="1.98291">
        <ele>66.8</ele>
        <time>2023-05-03T13:44:32Z</time>
      </trkpt>
      <trkpt lat="49.87266" lon="1.98292">
        <ele>66.8</ele>
        <time>2023-05-03T13:44:33Z</time>
      </trkpt>
      <trkpt lat="49.87265" lon="1.98293">
        <ele>66.8</ele>
        <time>2023-05-03T13:44:34Z</time>
      </trkpt>
      <trkpt lat="49.87263" lon="1.98295">
        <ele>66.9</ele>
        <time>2023-05-03T13:44:35Z</time>
      </trkpt>
      <trkpt lat="49.87262" lon="1.98296">
        <ele>66.9</ele>
        <time>2023-05-03T13:44:37Z</time>
      </trkpt>
      <trkpt lat="49.87261" lon="1.98297">
        <ele>66.9</ele>
        <time>2023-05-03T13:44:38Z</time>
      </trkpt>
      <trkpt lat="49.8726" lon="1.98298">
        <ele>66.9</ele>
        <time>2023-05-03T13:44:39Z</time>
      </trkpt>
      <trkpt lat="49.8726" lon="1.98299">
        <ele>66.9</ele>
        <time>2023-05-03T13:44:40Z</time>
      </trkpt>
      <trkpt lat="49.87258" lon="1.98301">
        <ele>67</ele>
        <time>2023-05-03T13:44:41Z</time>
      </trkpt>
      <trkpt lat="49.87257" lon="1.98301">
        <ele>67</ele>
        <time>2023-05-03T13:44:42Z</time>
      </trkpt>
      <trkpt lat="49.87256" lon="1.98302">
        <ele>67.1</ele>
        <time>2023-05-03T13:44:43Z</time>
      </trkpt>
      <trkpt lat="49.87255" lon="1.98304">
        <ele>67.2</ele>
        <time>2023-05-03T13:44:44Z</time>
      </trkpt>
      <trkpt lat="49.87254" lon="1.98304">
        <ele>67.3</ele>
        <time>2023-05-03T13:44:46Z</time>
      </trkpt>
      <trkpt lat="49.87253" lon="1.98305">
        <ele>67.3</ele>
        <time>2023-05-03T13:44:47Z</time>
      </trkpt>
      <trkpt lat="49.87252" lon="1.98305">
        <ele>67.3</ele>
        <time>2023-05-03T13:44:48Z</time>
      </trkpt>
      <trkpt lat="49.87251" lon="1.98306">
        <ele>67.4</ele>
        <time>2023-05-03T13:44:49Z</time>
      </trkpt>
      <trkpt lat="49.8725" lon="1.98307">
        <ele>67.4</ele>
        <time>2023-05-03T13:44:50Z</time>
      </trkpt>
      <trkpt lat="49.87249" lon="1.98307">
        <ele>67.4</ele>
        <time>2023-05-03T13:44:51Z</time>
      </trkpt>
      <trkpt lat="49.87248" lon="1.98308">
        <ele>67.7</ele>
        <time>2023-05-03T13:44:53Z</time>
      </trkpt>
      <trkpt lat="49.87247" lon="1.98309">
        <ele>67.7</ele>
        <time>2023-05-03T13:44:54Z</time>
      </trkpt>
      <trkpt lat="49.87246" lon="1.9831">
        <ele>67.7</ele>
        <time>2023-05-03T13:44:55Z</time>
      </trkpt>
      <trkpt lat="49.87245" lon="1.9831">
        <ele>67.8</ele>
        <time>2023-05-03T13:44:56Z</time>
      </trkpt>
      <trkpt lat="49.87244" lon="1.98311">
        <ele>67.8</ele>
        <time>2023-05-03T13:44:57Z</time>
      </trkpt>
      <trkpt lat="49.87243" lon="1.98312">
        <ele>68</ele>
        <time>2023-05-03T13:44:58Z</time>
      </trkpt>
      <trkpt lat="49.87242" lon="1.98314">
        <ele>68.2</ele>
        <time>2023-05-03T13:44:59Z</time>
      </trkpt>
      <trkpt lat="49.87241" lon="1.98315">
        <ele>68.2</ele>
        <time>2023-05-03T13:45:01Z</time>
      </trkpt>
      <trkpt lat="49.8724" lon="1.98316">
        <ele>68.2</ele>
        <time>2023-05-03T13:45:02Z</time>
      </trkpt>
      <trkpt lat="49.87239" lon="1.98317">
        <ele>68.7</ele>
        <time>2023-05-03T13:45:03Z</time>
      </trkpt>
      <trkpt lat="49.87238" lon="1.98318">
        <ele>68.7</ele>
        <time>2023-05-03T13:45:04Z</time>
      </trkpt>
      <trkpt lat="49.87237" lon="1.9832">
        <ele>69</ele>
        <time>2023-05-03T13:45:06Z</time>
      </trkpt>
      <trkpt lat="49.87236" lon="1.9832">
        <ele>69</ele>
        <time>2023-05-03T13:45:07Z</time>
      </trkpt>
      <trkpt lat="49.87235" lon="1.98321">
        <ele>69.2</ele>
        <time>2023-05-03T13:45:08Z</time>
      </trkpt>
      <trkpt lat="49.87233" lon="1.98322">
        <ele>69.5</ele>
        <time>2023-05-03T13:45:10Z</time>
      </trkpt>
      <trkpt lat="49.87233" lon="1.98322">
        <ele>69.5</ele>
        <time>2023-05-03T13:45:11Z</time>
      </trkpt>
      <trkpt lat="49.87232" lon="1.98323">
        <ele>69.9</ele>
        <time>2023-05-03T13:45:12Z</time>
      </trkpt>
      <trkpt lat="49.87231" lon="1.98323">
        <ele>69.9</ele>
        <time>2023-05-03T13:45:13Z</time>
      </trkpt>
      <trkpt lat="49.87229" lon="1.98323">
        <ele>69.9</ele>
        <time>2023-05-03T13:45:15Z</time>
      </trkpt>
      <trkpt lat="49.87229" lon="1.98323">
        <ele>70.4</ele>
        <time>2023-05-03T13:45:16Z</time>
      </trkpt>
      <trkpt lat="49.87228" lon="1.98324">
        <ele>70.4</ele>
        <time>2023-05-03T13:45:17Z</time>
      </trkpt>
      <trkpt lat="49.87227" lon="1.98325">
        <ele>70.6</ele>
        <time>2023-05-03T13:45:19Z</time>
      </trkpt>
      <trkpt lat="49.87226" lon="1.98326">
        <ele>71.1</ele>
        <time>2023-05-03T13:45:20Z</time>
      </trkpt>
      <trkpt lat="49.87226" lon="1.98327">
        <ele>71.1</ele>
        <time>2023-05-03T13:45:21Z</time>
      </trkpt>
      <trkpt lat="49.87226" lon="1.98328">
        <ele>71.1</ele>
        <time>2023-05-03T13:45:23Z</time>
      </trkpt>
      <trkpt lat="49.87226" lon="1.98329">
        <ele>71.1</ele>
        <time>2023-05-03T13:45:24Z</time>
      </trkpt>
      <trkpt lat="49.87226" lon="1.9833">
        <ele>71.3</ele>
        <time>2023-05-03T13:45:25Z</time>
      </trkpt>
      <trkpt lat="49.87226" lon="1.98332">
        <ele>71.3</ele>
        <time>2023-05-03T13:45:27Z</time>
      </trkpt>
      <trkpt lat="49.87226" lon="1.98332">
        <ele>71.3</ele>
        <time>2023-05-03T13:45:28Z</time>
      </trkpt>
      <trkpt lat="49.87226" lon="1.98333">
        <ele>71.5</ele>
        <time>2023-05-03T13:45:29Z</time>
      </trkpt>
      <trkpt lat="49.87226" lon="1.98334">
        <ele>71.5</ele>
        <time>2023-05-03T13:45:30Z</time>
      </trkpt>
      <trkpt lat="49.87226" lon="1.98335">
        <ele>71.5</ele>
        <time>2023-05-03T13:45:31Z</time>
      </trkpt>
      <trkpt lat="49.87226" lon="1.98336">
        <ele>71.5</ele>
        <time>2023-05-03T13:45:32Z</time>
      </trkpt>
      <trkpt lat="49.87226" lon="1.98337">
        <ele>71.5</ele>
        <time>2023-05-03T13:45:33Z</time>
      </trkpt>
      <trkpt lat="49.87226" lon="1.98338">
        <ele>71</ele>
        <time>2023-05-03T13:45:35Z</time>
      </trkpt>
      <trkpt lat="49.87227" lon="1.98338">
        <ele>71.2</ele>
        <time>2023-05-03T13:45:36Z</time>
      </trkpt>
      <trkpt lat="49.87227" lon="1.98339">
        <ele>71.2</ele>
        <time>2023-05-03T13:45:37Z</time>
      </trkpt>
      <trkpt lat="49.87227" lon="1.9834">
        <ele>71.2</ele>
        <time>2023-05-03T13:45:38Z</time>
      </trkpt>
      <trkpt lat="49.87226" lon="1.98341">
        <ele>71.7</ele>
        <time>2023-05-03T13:45:39Z</time>
      </trkpt>
      <trkpt lat="49.87226" lon="1.98342">
        <ele>71.7</ele>
        <time>2023-05-03T13:45:41Z</time>
      </trkpt>
      <trkpt lat="49.87226" lon="1.98343">
        <ele>71.9</ele>
        <time>2023-05-03T13:45:42Z</time>
      </trkpt>
      <trkpt lat="49.87225" lon="1.98343">
        <ele>71.9</ele>
        <time>2023-05-03T13:45:43Z</time>
      </trkpt>
      <trkpt lat="49.87225" lon="1.98344">
        <ele>71.9</ele>
        <time>2023-05-03T13:45:44Z</time>
      </trkpt>
      <trkpt lat="49.87224" lon="1.98345">
        <ele>71.9</ele>
        <time>2023-05-03T13:45:45Z</time>
      </trkpt>
      <trkpt lat="49.87224" lon="1.98346">
        <ele>72.2</ele>
        <time>2023-05-03T13:45:46Z</time>
      </trkpt>
      <trkpt lat="49.87223" lon="1.98348">
        <ele>72.7</ele>
        <time>2023-05-03T13:45:47Z</time>
      </trkpt>
      <trkpt lat="49.87223" lon="1.98349">
        <ele>72.7</ele>
        <time>2023-05-03T13:45:49Z</time>
      </trkpt>
      <trkpt lat="49.87222" lon="1.98351">
        <ele>72.9</ele>
        <time>2023-05-03T13:45:50Z</time>
      </trkpt>
      <trkpt lat="49.87222" lon="1.98352">
        <ele>72.9</ele>
        <time>2023-05-03T13:45:51Z</time>
      </trkpt>
      <trkpt lat="49.87222" lon="1.98353">
        <ele>72.9</ele>
        <time>2023-05-03T13:45:52Z</time>
      </trkpt>
      <trkpt lat="49.87221" lon="1.98355">
        <ele>73.1</ele>
        <time>2023-05-03T13:45:53Z</time>
      </trkpt>
      <trkpt lat="49.87221" lon="1.98356">
        <ele>73.1</ele>
        <time>2023-05-03T13:45:54Z</time>
      </trkpt>
      <trkpt lat="49.87221" lon="1.98357">
        <ele>73.7</ele>
        <time>2023-05-03T13:45:55Z</time>
      </trkpt>
      <trkpt lat="49.87221" lon="1.98359">
        <ele>73.7</ele>
        <time>2023-05-03T13:45:56Z</time>
      </trkpt>
      <trkpt lat="49.87221" lon="1.98361">
        <ele>73.9</ele>
        <time>2023-05-03T13:45:58Z</time>
      </trkpt>
      <trkpt lat="49.87221" lon="1.98364">
        <ele>74.1</ele>
        <time>2023-05-03T13:46:00Z</time>
      </trkpt>
      <trkpt lat="49.8722" lon="1.98366">
        <ele>74.1</ele>
        <time>2023-05-03T13:46:02Z</time>
      </trkpt>
      <trkpt lat="49.8722" lon="1.98368">
        <ele>74.3</ele>
        <time>2023-05-03T13:46:03Z</time>
      </trkpt>
      <trkpt lat="49.8722" lon="1.98369">
        <ele>74.3</ele>
        <time>2023-05-03T13:46:04Z</time>
      </trkpt>
      <trkpt lat="49.87219" lon="1.9837">
        <ele>74.3</ele>
        <time>2023-05-03T13:46:05Z</time>
      </trkpt>
      <trkpt lat="49.87219" lon="1.98371">
        <ele>74.3</ele>
        <time>2023-05-03T13:46:06Z</time>
      </trkpt>
      <trkpt lat="49.87219" lon="1.98373">
        <ele>74.5</ele>
        <time>2023-05-03T13:46:07Z</time>
      </trkpt>
      <trkpt lat="49.87218" lon="1.98374">
        <ele>74.5</ele>
        <time>2023-05-03T13:46:09Z</time>
      </trkpt>
      <trkpt lat="49.87218" lon="1.98375">
        <ele>75.1</ele>
        <time>2023-05-03T13:46:10Z</time>
      </trkpt>
      <trkpt lat="49.87218" lon="1.98376">
        <ele>75.3</ele>
        <time>2023-05-03T13:46:11Z</time>
      </trkpt>
      <trkpt lat="49.87217" lon="1.98378">
        <ele>75.3</ele>
        <time>2023-05-03T13:46:13Z</time>
      </trkpt>
      <trkpt lat="49.87217" lon="1.98379">
        <ele>75.3</ele>
        <time>2023-05-03T13:46:14Z</time>
      </trkpt>
      <trkpt lat="49.87217" lon="1.98381">
        <ele>75.5</ele>
        <time>2023-05-03T13:46:15Z</time>
      </trkpt>
      <trkpt lat="49.87217" lon="1.98382">
        <ele>75.5</ele>
        <time>2023-05-03T13:46:17Z</time>
      </trkpt>
      <trkpt lat="49.87217" lon="1.98384">
        <ele>75.5</ele>
        <time>2023-05-03T13:46:18Z</time>
      </trkpt>
      <trkpt lat="49.87216" lon="1.98384">
        <ele>75.5</ele>
        <time>2023-05-03T13:46:19Z</time>
      </trkpt>
      <trkpt lat="49.87216" lon="1.98386">
        <ele>75.7</ele>
        <time>2023-05-03T13:46:20Z</time>
      </trkpt>
      <trkpt lat="49.87216" lon="1.98387">
        <ele>75.7</ele>
        <time>2023-05-03T13:46:21Z</time>
      </trkpt>
      <trkpt lat="49.87216" lon="1.98388">
        <ele>75.7</ele>
        <time>2023-05-03T13:46:22Z</time>
      </trkpt>
      <trkpt lat="49.87215" lon="1.9839">
        <ele>75.9</ele>
        <time>2023-05-03T13:46:23Z</time>
      </trkpt>
      <trkpt lat="49.87215" lon="1.98392">
        <ele>76.5</ele>
        <time>2023-05-03T13:46:25Z</time>
      </trkpt>
      <trkpt lat="49.87215" lon="1.98393">
        <ele>76.5</ele>
        <time>2023-05-03T13:46:26Z</time>
      </trkpt>
      <trkpt lat="49.87215" lon="1.98394">
        <ele>76.7</ele>
        <time>2023-05-03T13:46:27Z</time>
      </trkpt>
      <trkpt lat="49.87215" lon="1.98395">
        <ele>76.7</ele>
        <time>2023-05-03T13:46:28Z</time>
      </trkpt>
      <trkpt lat="49.87215" lon="1.98395">
        <ele>76.7</ele>
        <time>2023-05-03T13:46:29Z</time>
      </trkpt>
      <trkpt lat="49.87214" lon="1.98397">
        <ele>76.7</ele>
        <time>2023-05-03T13:46:30Z</time>
      </trkpt>
      <trkpt lat="49.87214" lon="1.98399">
        <ele>76.9</ele>
        <time>2023-05-03T13:46:32Z</time>
      </trkpt>
      <trkpt lat="49.87214" lon="1.984">
        <ele>76.9</ele>
        <time>2023-05-03T13:46:34Z</time>
      </trkpt>
      <trkpt lat="49.87213" lon="1.98401">
        <ele>76.9</ele>
        <time>2023-05-03T13:46:35Z</time>
      </trkpt>
      <trkpt lat="49.87213" lon="1.98402">
        <ele>77.1</ele>
        <time>2023-05-03T13:46:36Z</time>
      </trkpt>
      <trkpt lat="49.87213" lon="1.98403">
        <ele>77.1</ele>
        <time>2023-05-03T13:46:37Z</time>
      </trkpt>
      <trkpt lat="49.87213" lon="1.98404">
        <ele>77.1</ele>
        <time>2023-05-03T13:46:38Z</time>
      </trkpt>
      <trkpt lat="49.87213" lon="1.98405">
        <ele>77.1</ele>
        <time>2023-05-03T13:46:39Z</time>
      </trkpt>
      <trkpt lat="49.87212" lon="1.98407">
        <ele>77.9</ele>
        <time>2023-05-03T13:46:41Z</time>
      </trkpt>
      <trkpt lat="49.87212" lon="1.98407">
        <ele>77.9</ele>
        <time>2023-05-03T13:46:42Z</time>
      </trkpt>
      <trkpt lat="49.87212" lon="1.98408">
        <ele>77.9</ele>
        <time>2023-05-03T13:46:43Z</time>
      </trkpt>
      <trkpt lat="49.87212" lon="1.98408">
        <ele>77.9</ele>
        <time>2023-05-03T13:46:44Z</time>
      </trkpt>
      <trkpt lat="49.87212" lon="1.98409">
        <ele>77.9</ele>
        <time>2023-05-03T13:46:46Z</time>
      </trkpt>
      <trkpt lat="49.87212" lon="1.9841">
        <ele>77.9</ele>
        <time>2023-05-03T13:46:47Z</time>
      </trkpt>
      <trkpt lat="49.87212" lon="1.9841">
        <ele>77.9</ele>
        <time>2023-05-03T13:46:48Z</time>
      </trkpt>
      <trkpt lat="49.87213" lon="1.98411">
        <ele>78.2</ele>
        <time>2023-05-03T13:46:49Z</time>
      </trkpt>
      <trkpt lat="49.87213" lon="1.98412">
        <ele>77.6</ele>
        <time>2023-05-03T13:46:50Z</time>
      </trkpt>
      <trkpt lat="49.87213" lon="1.98412">
        <ele>77.6</ele>
        <time>2023-05-03T13:46:51Z</time>
      </trkpt>
      <trkpt lat="49.87213" lon="1.98414">
        <ele>77.6</ele>
        <time>2023-05-03T13:46:53Z</time>
      </trkpt>
      <trkpt lat="49.87213" lon="1.98414">
        <ele>77.6</ele>
        <time>2023-05-03T13:46:54Z</time>
      </trkpt>
      <trkpt lat="49.87213" lon="1.98415">
        <ele>77.8</ele>
        <time>2023-05-03T13:46:56Z</time>
      </trkpt>
      <trkpt lat="49.87213" lon="1.98416">
        <ele>77.8</ele>
        <time>2023-05-03T13:46:58Z</time>
      </trkpt>
      <trkpt lat="49.87213" lon="1.98416">
        <ele>77.8</ele>
        <time>2023-05-03T13:46:59Z</time>
      </trkpt>
      <trkpt lat="49.87213" lon="1.98417">
        <ele>77.8</ele>
        <time>2023-05-03T13:47:00Z</time>
      </trkpt>
      <trkpt lat="49.87213" lon="1.98417">
        <ele>77.8</ele>
        <time>2023-05-03T13:47:01Z</time>
      </trkpt>
      <trkpt lat="49.87213" lon="1.98418">
        <ele>77.8</ele>
        <time>2023-05-03T13:47:02Z</time>
      </trkpt>
      <trkpt lat="49.87213" lon="1.98418">
        <ele>78.4</ele>
        <time>2023-05-03T13:47:03Z</time>
      </trkpt>
      <trkpt lat="49.87212" lon="1.98419">
        <ele>78.4</ele>
        <time>2023-05-03T13:47:05Z</time>
      </trkpt>
      <trkpt lat="49.87212" lon="1.98419">
        <ele>78.4</ele>
        <time>2023-05-03T13:47:06Z</time>
      </trkpt>
      <trkpt lat="49.87212" lon="1.98419">
        <ele>78.6</ele>
        <time>2023-05-03T13:47:07Z</time>
      </trkpt>
      <trkpt lat="49.87212" lon="1.98419">
        <ele>78.6</ele>
        <time>2023-05-03T13:47:08Z</time>
      </trkpt>
      <trkpt lat="49.87211" lon="1.9842">
        <ele>78.6</ele>
        <time>2023-05-03T13:47:10Z</time>
      </trkpt>
      <trkpt lat="49.87211" lon="1.98421">
        <ele>78.6</ele>
        <time>2023-05-03T13:47:11Z</time>
      </trkpt>
      <trkpt lat="49.87211" lon="1.98422">
        <ele>78.6</ele>
        <time>2023-05-03T13:47:13Z</time>
      </trkpt>
      <trkpt lat="49.87211" lon="1.98423">
        <ele>78.6</ele>
        <time>2023-05-03T13:47:15Z</time>
      </trkpt>
      <trkpt lat="49.8721" lon="1.98424">
        <ele>78.8</ele>
        <time>2023-05-03T13:47:17Z</time>
      </trkpt>
      <trkpt lat="49.8721" lon="1.98425">
        <ele>78.8</ele>
        <time>2023-05-03T13:47:18Z</time>
      </trkpt>
      <trkpt lat="49.8721" lon="1.98425">
        <ele>79.4</ele>
        <time>2023-05-03T13:47:19Z</time>
      </trkpt>
      <trkpt lat="49.87209" lon="1.98426">
        <ele>79.4</ele>
        <time>2023-05-03T13:47:21Z</time>
      </trkpt>
      <trkpt lat="49.87209" lon="1.98426">
        <ele>79.4</ele>
        <time>2023-05-03T13:47:22Z</time>
      </trkpt>
      <trkpt lat="49.87209" lon="1.98426">
        <ele>79.4</ele>
        <time>2023-05-03T13:47:23Z</time>
      </trkpt>
      <trkpt lat="49.87209" lon="1.98426">
        <ele>79.4</ele>
        <time>2023-05-03T13:47:25Z</time>
      </trkpt>
      <trkpt lat="49.87209" lon="1.98426">
        <ele>79.4</ele>
        <time>2023-05-03T13:47:26Z</time>
      </trkpt>
      <trkpt lat="49.87209" lon="1.98427">
        <ele>79.4</ele>
        <time>2023-05-03T13:47:27Z</time>
      </trkpt>
      <trkpt lat="49.87209" lon="1.98427">
        <ele>79.4</ele>
        <time>2023-05-03T13:47:29Z</time>
      </trkpt>
      <trkpt lat="49.87209" lon="1.98427">
        <ele>79.4</ele>
        <time>2023-05-03T13:47:30Z</time>
      </trkpt>
      <trkpt lat="49.87209" lon="1.98427">
        <ele>79.4</ele>
        <time>2023-05-03T13:47:31Z</time>
      </trkpt>
      <trkpt lat="49.87209" lon="1.98427">
        <ele>79.4</ele>
        <time>2023-05-03T13:47:33Z</time>
      </trkpt>
      <trkpt lat="49.87209" lon="1.98427">
        <ele>79.4</ele>
        <time>2023-05-03T13:47:34Z</time>
      </trkpt>
      <trkpt lat="49.87209" lon="1.98427">
        <ele>79.4</ele>
        <time>2023-05-03T13:47:35Z</time>
      </trkpt>
      <trkpt lat="49.87209" lon="1.98427">
        <ele>79.4</ele>
        <time>2023-05-03T13:47:36Z</time>
      </trkpt>
      <trkpt lat="49.87209" lon="1.98427">
        <ele>79.4</ele>
        <time>2023-05-03T13:47:37Z</time>
      </trkpt>
      <trkpt lat="49.87209" lon="1.98427">
        <ele>79.4</ele>
        <time>2023-05-03T13:47:38Z</time>
      </trkpt>
      <trkpt lat="49.87209" lon="1.98427">
        <ele>79.4</ele>
        <time>2023-05-03T13:47:39Z</time>
      </trkpt>
      <trkpt lat="49.87209" lon="1.98427">
        <ele>79.4</ele>
        <time>2023-05-03T13:47:40Z</time>
      </trkpt>
      <trkpt lat="49.87209" lon="1.98427">
        <ele>79.4</ele>
        <time>2023-05-03T13:47:41Z</time>
      </trkpt>
      <trkpt lat="49.87209" lon="1.98427">
        <ele>79.4</ele>
        <time>2023-05-03T13:47:42Z</time>
      </trkpt>
      <trkpt lat="49.87209" lon="1.98427">
        <ele>79.4</ele>
        <time>2023-05-03T13:47:43Z</time>
      </trkpt>
      <trkpt lat="49.87209" lon="1.98426">
        <ele>79.4</ele>
        <time>2023-05-03T13:47:44Z</time>
      </trkpt>
      <trkpt lat="49.87209" lon="1.98426">
        <ele>79.4</ele>
        <time>2023-05-03T13:47:45Z</time>
      </trkpt>
      <trkpt lat="49.87209" lon="1.98426">
        <ele>79.4</ele>
        <time>2023-05-03T13:47:46Z</time>
      </trkpt>
      <trkpt lat="49.87209" lon="1.98426">
        <ele>79.4</ele>
        <time>2023-05-03T13:47:47Z</time>
      </trkpt>
      <trkpt lat="49.87209" lon="1.98426">
        <ele>79.4</ele>
        <time>2023-05-03T13:47:48Z</time>
      </trkpt>
      <trkpt lat="49.87209" lon="1.98426">
        <ele>79.4</ele>
        <time>2023-05-03T13:47:49Z</time>
      </trkpt>
      <trkpt lat="49.87209" lon="1.98426">
        <ele>79.4</ele>
        <time>2023-05-03T13:47:50Z</time>
      </trkpt>
      <trkpt lat="49.87209" lon="1.98426">
        <ele>79.4</ele>
        <time>2023-05-03T13:47:51Z</time>
      </trkpt>
      <trkpt lat="49.87209" lon="1.98426">
        <ele>79.4</ele>
        <time>2023-05-03T13:47:52Z</time>
      </trkpt>
      <trkpt lat="49.87209" lon="1.98426">
        <ele>79.4</ele>
        <time>2023-05-03T13:47:53Z</time>
      </trkpt>
      <trkpt lat="49.87209" lon="1.98426">
        <ele>79.4</ele>
        <time>2023-05-03T13:47:54Z</time>
      </trkpt>
      <trkpt lat="49.87209" lon="1.98426">
        <ele>79.4</ele>
        <time>2023-05-03T13:47:55Z</time>
      </trkpt>
      <trkpt lat="49.87209" lon="1.98426">
        <ele>79.4</ele>
        <time>2023-05-03T13:47:56Z</time>
      </trkpt>
      <trkpt lat="49.87209" lon="1.98426">
        <ele>79.4</ele>
        <time>2023-05-03T13:47:57Z</time>
      </trkpt>
      <trkpt lat="49.87209" lon="1.98426">
        <ele>79.4</ele>
        <time>2023-05-03T13:47:58Z</time>
      </trkpt>
      <trkpt lat="49.87209" lon="1.98426">
        <ele>79.4</ele>
        <time>2023-05-03T13:47:59Z</time>
      </trkpt>
      <trkpt lat="49.87209" lon="1.98426">
        <ele>79.4</ele>
        <time>2023-05-03T13:48:00Z</time>
      </trkpt>
      <trkpt lat="49.87209" lon="1.98426">
        <ele>79.4</ele>
        <time>2023-05-03T13:48:01Z</time>
      </trkpt>
      <trkpt lat="49.87209" lon="1.98426">
        <ele>79.4</ele>
        <time>2023-05-03T13:48:02Z</time>
      </trkpt>
      <trkpt lat="49.87209" lon="1.98426">
        <ele>79.4</ele>
        <time>2023-05-03T13:48:03Z</time>
      </trkpt>
      <trkpt lat="49.87209" lon="1.98426">
        <ele>79.4</ele>
        <time>2023-05-03T13:48:04Z</time>
      </trkpt>
      <trkpt lat="49.87209" lon="1.98426">
        <ele>79.4</ele>
        <time>2023-05-03T13:48:05Z</time>
      </trkpt>
      <trkpt lat="49.87209" lon="1.98426">
        <ele>79.4</ele>
        <time>2023-05-03T13:48:06Z</time>
      </trkpt>
      <trkpt lat="49.87209" lon="1.98426">
        <ele>79.4</ele>
        <time>2023-05-03T13:48:07Z</time>
      </trkpt>
      <trkpt lat="49.87209" lon="1.98426">
        <ele>79.4</ele>
        <time>2023-05-03T13:48:08Z</time>
      </trkpt>
      <trkpt lat="49.87209" lon="1.98426">
        <ele>79.4</ele>
        <time>2023-05-03T13:48:09Z</time>
      </trkpt>
      <trkpt lat="49.87209" lon="1.98426">
        <ele>79.4</ele>
        <time>2023-05-03T13:48:10Z</time>
      </trkpt>
      <trkpt lat="49.87209" lon="1.98426">
        <ele>79.4</ele>
        <time>2023-05-03T13:48:11Z</time>
      </trkpt>
      <trkpt lat="49.87209" lon="1.98426">
        <ele>79.4</ele>
        <time>2023-05-03T13:48:12Z</time>
      </trkpt>
      <trkpt lat="49.87209" lon="1.98426">
        <ele>79.4</ele>
        <time>2023-05-03T13:48:13Z</time>
      </trkpt>
      <trkpt lat="49.87209" lon="1.98426">
        <ele>79.4</ele>
        <time>2023-05-03T13:48:14Z</time>
      </trkpt>
      <trkpt lat="49.87209" lon="1.98426">
        <ele>79.4</ele>
        <time>2023-05-03T13:48:15Z</time>
      </trkpt>
      <trkpt lat="49.87209" lon="1.98426">
        <ele>79.4</ele>
        <time>2023-05-03T13:48:16Z</time>
      </trkpt>
      <trkpt lat="49.87209" lon="1.98426">
        <ele>79.4</ele>
        <time>2023-05-03T13:48:17Z</time>
      </trkpt>
      <trkpt lat="49.87209" lon="1.98426">
        <ele>79.4</ele>
        <time>2023-05-03T13:48:18Z</time>
      </trkpt>
      <trkpt lat="49.87209" lon="1.98426">
        <ele>79.4</ele>
        <time>2023-05-03T13:48:19Z</time>
      </trkpt>
      <trkpt lat="49.87209" lon="1.98426">
        <ele>79.4</ele>
        <time>2023-05-03T13:48:20Z</time>
      </trkpt>
      <trkpt lat="49.87209" lon="1.98426">
        <ele>79.4</ele>
        <time>2023-05-03T13:48:21Z</time>
      </trkpt>
      <trkpt lat="49.87209" lon="1.98426">
        <ele>79.4</ele>
        <time>2023-05-03T13:48:22Z</time>
      </trkpt>
      <trkpt lat="49.87209" lon="1.98426">
        <ele>79.4</ele>
        <time>2023-05-03T13:48:23Z</time>
      </trkpt>
      <trkpt lat="49.87209" lon="1.98426">
        <ele>79.4</ele>
        <time>2023-05-03T13:48:24Z</time>
      </trkpt>
      <trkpt lat="49.87209" lon="1.98426">
        <ele>79.4</ele>
        <time>2023-05-03T13:48:25Z</time>
      </trkpt>
      <trkpt lat="49.87209" lon="1.98426">
        <ele>79.4</ele>
        <time>2023-05-03T13:48:26Z</time>
      </trkpt>
      <trkpt lat="49.87209" lon="1.98426">
        <ele>79.4</ele>
        <time>2023-05-03T13:48:27Z</time>
      </trkpt>
      <trkpt lat="49.87209" lon="1.98426">
        <ele>79.4</ele>
        <time>2023-05-03T13:48:28Z</time>
      </trkpt>
      <trkpt lat="49.87209" lon="1.98426">
        <ele>79.4</ele>
        <time>2023-05-03T13:48:29Z</time>
      </trkpt>
      <trkpt lat="49.87209" lon="1.98426">
        <ele>79.4</ele>
        <time>2023-05-03T13:48:30Z</time>
      </trkpt>
      <trkpt lat="49.87209" lon="1.98426">
        <ele>79.4</ele>
        <time>2023-05-03T13:48:31Z</time>
      </trkpt>
      <trkpt lat="49.87209" lon="1.98426">
        <ele>79.4</ele>
        <time>2023-05-03T13:48:32Z</time>
      </trkpt>
      <trkpt lat="49.87209" lon="1.98426">
        <ele>79.4</ele>
        <time>2023-05-03T13:48:33Z</time>
      </trkpt>
      <trkpt lat="49.87209" lon="1.98426">
        <ele>79.4</ele>
        <time>2023-05-03T13:48:34Z</time>
      </trkpt>
      <trkpt lat="49.87209" lon="1.98426">
        <ele>79.4</ele>
        <time>2023-05-03T13:48:35Z</time>
      </trkpt>
      <trkpt lat="49.87209" lon="1.98426">
        <ele>79.4</ele>
        <time>2023-05-03T13:48:36Z</time>
      </trkpt>
      <trkpt lat="49.87209" lon="1.98426">
        <ele>79.4</ele>
        <time>2023-05-03T13:48:37Z</time>
      </trkpt>
      <trkpt lat="49.87209" lon="1.98426">
        <ele>79.4</ele>
        <time>2023-05-03T13:48:38Z</time>
      </trkpt>
      <trkpt lat="49.87209" lon="1.98426">
        <ele>79.4</ele>
        <time>2023-05-03T13:48:39Z</time>
      </trkpt>
      <trkpt lat="49.87209" lon="1.98426">
        <ele>79.4</ele>
        <time>2023-05-03T13:48:40Z</time>
      </trkpt>
      <trkpt lat="49.87209" lon="1.98426">
        <ele>79.4</ele>
        <time>2023-05-03T13:48:41Z</time>
      </trkpt>
      <trkpt lat="49.87209" lon="1.98426">
        <ele>79.4</ele>
        <time>2023-05-03T13:48:42Z</time>
      </trkpt>
      <trkpt lat="49.87209" lon="1.98426">
        <ele>79.4</ele>
        <time>2023-05-03T13:48:43Z</time>
      </trkpt>
      <trkpt lat="49.87209" lon="1.98426">
        <ele>79.4</ele>
        <time>2023-05-03T13:48:44Z</time>
      </trkpt>
      <trkpt lat="49.87209" lon="1.98426">
        <ele>79.4</ele>
        <time>2023-05-03T13:48:45Z</time>
      </trkpt>
      <trkpt lat="49.87209" lon="1.98426">
        <ele>79.4</ele>
        <time>2023-05-03T13:48:46Z</time>
      </trkpt>
      <trkpt lat="49.87209" lon="1.98426">
        <ele>79.4</ele>
        <time>2023-05-03T13:48:47Z</time>
      </trkpt>
      <trkpt lat="49.87209" lon="1.98426">
        <ele>79.4</ele>
        <time>2023-05-03T13:48:48Z</time>
      </trkpt>
      <trkpt lat="49.87209" lon="1.98426">
        <ele>79.4</ele>
        <time>2023-05-03T13:48:49Z</time>
      </trkpt>
      <trkpt lat="49.87209" lon="1.98426">
        <ele>79.4</ele>
        <time>2023-05-03T13:48:50Z</time>
      </trkpt>
      <trkpt lat="49.87209" lon="1.98426">
        <ele>79.4</ele>
        <time>2023-05-03T13:48:51Z</time>
      </trkpt>
      <trkpt lat="49.87209" lon="1.98426">
        <ele>79.4</ele>
        <time>2023-05-03T13:48:52Z</time>
      </trkpt>
      <trkpt lat="49.87209" lon="1.98426">
        <ele>79.4</ele>
        <time>2023-05-03T13:48:53Z</time>
      </trkpt>
      <trkpt lat="49.87209" lon="1.98426">
        <ele>79.4</ele>
        <time>2023-05-03T13:48:54Z</time>
      </trkpt>
      <trkpt lat="49.87209" lon="1.98426">
        <ele>79.4</ele>
        <time>2023-05-03T13:48:55Z</time>
      </trkpt>
      <trkpt lat="49.87209" lon="1.98426">
        <ele>79.4</ele>
        <time>2023-05-03T13:48:56Z</time>
      </trkpt>
      <trkpt lat="49.87209" lon="1.98426">
        <ele>79.4</ele>
        <time>2023-05-03T13:48:57Z</time>
      </trkpt>
      <trkpt lat="49.87209" lon="1.98426">
        <ele>79.4</ele>
        <time>2023-05-03T13:48:58Z</time>
      </trkpt>
      <trkpt lat="49.87209" lon="1.98426">
        <ele>79.4</ele>
        <time>2023-05-03T13:48:59Z</time>
      </trkpt>
      <trkpt lat="49.87209" lon="1.98426">
        <ele>79.4</ele>
        <time>2023-05-03T13:49:00Z</time>
      </trkpt>
      <trkpt lat="49.87209" lon="1.98426">
        <ele>79.4</ele>
        <time>2023-05-03T13:49:01Z</time>
      </trkpt>
      <trkpt lat="49.87209" lon="1.98426">
        <ele>79.4</ele>
        <time>2023-05-03T13:49:02Z</time>
      </trkpt>
      <trkpt lat="49.87209" lon="1.98426">
        <ele>79.4</ele>
        <time>2023-05-03T13:49:03Z</time>
      </trkpt>
      <trkpt lat="49.87209" lon="1.98426">
        <ele>79.4</ele>
        <time>2023-05-03T13:49:04Z</time>
      </trkpt>
      <trkpt lat="49.87209" lon="1.98426">
        <ele>79.4</ele>
        <time>2023-05-03T13:49:05Z</time>
      </trkpt>
      <trkpt lat="49.87209" lon="1.98426">
        <ele>79.4</ele>
        <time>2023-05-03T13:49:06Z</time>
      </trkpt>
      <trkpt lat="49.87209" lon="1.98426">
        <ele>79.4</ele>
        <time>2023-05-03T13:49:07Z</time>
      </trkpt>
      <trkpt lat="49.87209" lon="1.98426">
        <ele>79.4</ele>
        <time>2023-05-03T13:49:08Z</time>
      </trkpt>
      <trkpt lat="49.87209" lon="1.98426">
        <ele>79.4</ele>
        <time>2023-05-03T13:49:09Z</time>
      </trkpt>
      <trkpt lat="49.87209" lon="1.98426">
        <ele>79.4</ele>
        <time>2023-05-03T13:49:10Z</time>
      </trkpt>
      <trkpt lat="49.87209" lon="1.98426">
        <ele>79.4</ele>
        <time>2023-05-03T13:49:11Z</time>
      </trkpt>
      <trkpt lat="49.87209" lon="1.98426">
        <ele>79.4</ele>
        <time>2023-05-03T13:49:12Z</time>
      </trkpt>
      <trkpt lat="49.87209" lon="1.98426">
        <ele>79.4</ele>
        <time>2023-05-03T13:49:13Z</time>
      </trkpt>
      <trkpt lat="49.87209" lon="1.98426">
        <ele>79.4</ele>
        <time>2023-05-03T13:49:14Z</time>
      </trkpt>
      <trkpt lat="49.87209" lon="1.98426">
        <ele>79.4</ele>
        <time>2023-05-03T13:49:15Z</time>
      </trkpt>
      <trkpt lat="49.87209" lon="1.98426">
        <ele>79.4</ele>
        <time>2023-05-03T13:49:16Z</time>
      </trkpt>
      <trkpt lat="49.87209" lon="1.98426">
        <ele>79.4</ele>
        <time>2023-05-03T13:49:17Z</time>
      </trkpt>
      <trkpt lat="49.87209" lon="1.98426">
        <ele>79.4</ele>
        <time>2023-05-03T13:49:18Z</time>
      </trkpt>
      <trkpt lat="49.87209" lon="1.98426">
        <ele>79.4</ele>
        <time>2023-05-03T13:49:19Z</time>
      </trkpt>
      <trkpt lat="49.87209" lon="1.98426">
        <ele>79.4</ele>
        <time>2023-05-03T13:49:20Z</time>
      </trkpt>
      <trkpt lat="49.87209" lon="1.98426">
        <ele>79.4</ele>
        <time>2023-05-03T13:49:21Z</time>
      </trkpt>
      <trkpt lat="49.87209" lon="1.98426">
        <ele>79.4</ele>
        <time>2023-05-03T13:49:22Z</time>
      </trkpt>
      <trkpt lat="49.87209" lon="1.98426">
        <ele>79.4</ele>
        <time>2023-05-03T13:49:23Z</time>
      </trkpt>
      <trkpt lat="49.87209" lon="1.98426">
        <ele>79.4</ele>
        <time>2023-05-03T13:49:24Z</time>
      </trkpt>
      <trkpt lat="49.87209" lon="1.98426">
        <ele>79.4</ele>
        <time>2023-05-03T13:49:25Z</time>
      </trkpt>
      <trkpt lat="49.87209" lon="1.98426">
        <ele>79.4</ele>
        <time>2023-05-03T13:49:26Z</time>
      </trkpt>
      <trkpt lat="49.87209" lon="1.98426">
        <ele>79.4</ele>
        <time>2023-05-03T13:49:27Z</time>
      </trkpt>
      <trkpt lat="49.87209" lon="1.98426">
        <ele>79.4</ele>
        <time>2023-05-03T13:49:28Z</time>
      </trkpt>
      <trkpt lat="49.87209" lon="1.98426">
        <ele>79.4</ele>
        <time>2023-05-03T13:49:29Z</time>
      </trkpt>
      <trkpt lat="49.87209" lon="1.98426">
        <ele>79.4</ele>
        <time>2023-05-03T13:49:30Z</time>
      </trkpt>
      <trkpt lat="49.87209" lon="1.98426">
        <ele>79.4</ele>
        <time>2023-05-03T13:49:31Z</time>
      </trkpt>
      <trkpt lat="49.87209" lon="1.98426">
        <ele>79.4</ele>
        <time>2023-05-03T13:49:32Z</time>
      </trkpt>
      <trkpt lat="49.87209" lon="1.98426">
        <ele>79.4</ele>
        <time>2023-05-03T13:49:33Z</time>
      </trkpt>
      <trkpt lat="49.87209" lon="1.98426">
        <ele>79.4</ele>
        <time>2023-05-03T13:49:34Z</time>
      </trkpt>
      <trkpt lat="49.87209" lon="1.98426">
        <ele>79.4</ele>
        <time>2023-05-03T13:49:35Z</time>
      </trkpt>
      <trkpt lat="49.87209" lon="1.98426">
        <ele>79.4</ele>
        <time>2023-05-03T13:49:36Z</time>
      </trkpt>
      <trkpt lat="49.87209" lon="1.98426">
        <ele>79.4</ele>
        <time>2023-05-03T13:49:37Z</time>
      </trkpt>
      <trkpt lat="49.87209" lon="1.98426">
        <ele>79.4</ele>
        <time>2023-05-03T13:49:38Z</time>
      </trkpt>
      <trkpt lat="49.87209" lon="1.98426">
        <ele>79.4</ele>
        <time>2023-05-03T13:49:39Z</time>
      </trkpt>
      <trkpt lat="49.87209" lon="1.98426">
        <ele>79.4</ele>
        <time>2023-05-03T13:49:40Z</time>
      </trkpt>
      <trkpt lat="49.87209" lon="1.98426">
        <ele>79.4</ele>
        <time>2023-05-03T13:49:41Z</time>
      </trkpt>
      <trkpt lat="49.87209" lon="1.98426">
        <ele>79.4</ele>
        <time>2023-05-03T13:49:42Z</time>
      </trkpt>
      <trkpt lat="49.87209" lon="1.98426">
        <ele>79.4</ele>
        <time>2023-05-03T13:49:43Z</time>
      </trkpt>
      <trkpt lat="49.87209" lon="1.98426">
        <ele>79.4</ele>
        <time>2023-05-03T13:49:44Z</time>
      </trkpt>
      <trkpt lat="49.87209" lon="1.98426">
        <ele>79.4</ele>
        <time>2023-05-03T13:49:45Z</time>
      </trkpt>
      <trkpt lat="49.87209" lon="1.98426">
        <ele>79.4</ele>
        <time>2023-05-03T13:49:46Z</time>
      </trkpt>
      <trkpt lat="49.87209" lon="1.98426">
        <ele>79.4</ele>
        <time>2023-05-03T13:49:47Z</time>
      </trkpt>
      <trkpt lat="49.87209" lon="1.98426">
        <ele>79.4</ele>
        <time>2023-05-03T13:49:48Z</time>
      </trkpt>
      <trkpt lat="49.87209" lon="1.98426">
        <ele>79.4</ele>
        <time>2023-05-03T13:49:49Z</time>
      </trkpt>
      <trkpt lat="49.87209" lon="1.98426">
        <ele>79.4</ele>
        <time>2023-05-03T13:49:50Z</time>
      </trkpt>
      <trkpt lat="49.87209" lon="1.98426">
        <ele>79.4</ele>
        <time>2023-05-03T13:49:51Z</time>
      </trkpt>
      <trkpt lat="49.87209" lon="1.98426">
        <ele>79.4</ele>
        <time>2023-05-03T13:49:52Z</time>
      </trkpt>
      <trkpt lat="49.87209" lon="1.98426">
        <ele>79.4</ele>
        <time>2023-05-03T13:49:53Z</time>
      </trkpt>
      <trkpt lat="49.87209" lon="1.98426">
        <ele>79.4</ele>
        <time>2023-05-03T13:49:54Z</time>
      </trkpt>
      <trkpt lat="49.87209" lon="1.98426">
        <ele>79.4</ele>
        <time>2023-05-03T13:49:55Z</time>
      </trkpt>
      <trkpt lat="49.87209" lon="1.98426">
        <ele>79.4</ele>
        <time>2023-05-03T13:49:56Z</time>
      </trkpt>
      <trkpt lat="49.8721" lon="1.98427">
        <ele>78.8</ele>
        <time>2023-05-03T13:49:57Z</time>
      </trkpt>
      <trkpt lat="49.87211" lon="1.98428">
        <ele>79</ele>
        <time>2023-05-03T13:49:58Z</time>
      </trkpt>
      <trkpt lat="49.87211" lon="1.98428">
        <ele>79</ele>
        <time>2023-05-03T13:49:59Z</time>
      </trkpt>
      <trkpt lat="49.87211" lon="1.98429">
        <ele>79</ele>
        <time>2023-05-03T13:50:00Z</time>
      </trkpt>
      <trkpt lat="49.87211" lon="1.9843">
        <ele>79</ele>
        <time>2023-05-03T13:50:01Z</time>
      </trkpt>
      <trkpt lat="49.87211" lon="1.98431">
        <ele>79</ele>
        <time>2023-05-03T13:50:02Z</time>
      </trkpt>
      <trkpt lat="49.87212" lon="1.98431">
        <ele>79</ele>
        <time>2023-05-03T13:50:04Z</time>
      </trkpt>
      <trkpt lat="49.87211" lon="1.98432">
        <ele>79</ele>
        <time>2023-05-03T13:50:05Z</time>
      </trkpt>
      <trkpt lat="49.87211" lon="1.98433">
        <ele>79.2</ele>
        <time>2023-05-03T13:50:06Z</time>
      </trkpt>
      <trkpt lat="49.87211" lon="1.98434">
        <ele>79.2</ele>
        <time>2023-05-03T13:50:07Z</time>
      </trkpt>
      <trkpt lat="49.87211" lon="1.98435">
        <ele>79.2</ele>
        <time>2023-05-03T13:50:08Z</time>
      </trkpt>
      <trkpt lat="49.87211" lon="1.98436">
        <ele>79.2</ele>
        <time>2023-05-03T13:50:09Z</time>
      </trkpt>
      <trkpt lat="49.87211" lon="1.98438">
        <ele>79.4</ele>
        <time>2023-05-03T13:50:10Z</time>
      </trkpt>
      <trkpt lat="49.87212" lon="1.9844">
        <ele>79.4</ele>
        <time>2023-05-03T13:50:12Z</time>
      </trkpt>
      <trkpt lat="49.87212" lon="1.98441">
        <ele>79.6</ele>
        <time>2023-05-03T13:50:13Z</time>
      </trkpt>
      <trkpt lat="49.87212" lon="1.98443">
        <ele>79.6</ele>
        <time>2023-05-03T13:50:14Z</time>
      </trkpt>
      <trkpt lat="49.87212" lon="1.98444">
        <ele>79.6</ele>
        <time>2023-05-03T13:50:15Z</time>
      </trkpt>
      <trkpt lat="49.87212" lon="1.98446">
        <ele>79.8</ele>
        <time>2023-05-03T13:50:16Z</time>
      </trkpt>
      <trkpt lat="49.87212" lon="1.98448">
        <ele>79.8</ele>
        <time>2023-05-03T13:50:18Z</time>
      </trkpt>
      <trkpt lat="49.87212" lon="1.98449">
        <ele>79.8</ele>
        <time>2023-05-03T13:50:20Z</time>
      </trkpt>
      <trkpt lat="49.87212" lon="1.98449">
        <ele>80</ele>
        <time>2023-05-03T13:50:21Z</time>
      </trkpt>
      <trkpt lat="49.87212" lon="1.9845">
        <ele>80</ele>
        <time>2023-05-03T13:50:22Z</time>
      </trkpt>
      <trkpt lat="49.87212" lon="1.98451">
        <ele>80</ele>
        <time>2023-05-03T13:50:23Z</time>
      </trkpt>
      <trkpt lat="49.87212" lon="1.98451">
        <ele>80</ele>
        <time>2023-05-03T13:50:24Z</time>
      </trkpt>
      <trkpt lat="49.87211" lon="1.98452">
        <ele>80</ele>
        <time>2023-05-03T13:50:26Z</time>
      </trkpt>
      <trkpt lat="49.87211" lon="1.98453">
        <ele>80</ele>
        <time>2023-05-03T13:50:27Z</time>
      </trkpt>
      <trkpt lat="49.87211" lon="1.98454">
        <ele>80.2</ele>
        <time>2023-05-03T13:50:28Z</time>
      </trkpt>
      <trkpt lat="49.87211" lon="1.98455">
        <ele>80.2</ele>
        <time>2023-05-03T13:50:29Z</time>
      </trkpt>
      <trkpt lat="49.87211" lon="1.98456">
        <ele>80.2</ele>
        <time>2023-05-03T13:50:30Z</time>
      </trkpt>
      <trkpt lat="49.87211" lon="1.98457">
        <ele>80.2</ele>
        <time>2023-05-03T13:50:31Z</time>
      </trkpt>
      <trkpt lat="49.87211" lon="1.98458">
        <ele>80.4</ele>
        <time>2023-05-03T13:50:32Z</time>
      </trkpt>
      <trkpt lat="49.8721" lon="1.98459">
        <ele>80.4</ele>
        <time>2023-05-03T13:50:33Z</time>
      </trkpt>
      <trkpt lat="49.8721" lon="1.98461">
        <ele>81</ele>
        <time>2023-05-03T13:50:35Z</time>
      </trkpt>
      <trkpt lat="49.87209" lon="1.98462">
        <ele>81.2</ele>
        <time>2023-05-03T13:50:36Z</time>
      </trkpt>
      <trkpt lat="49.87209" lon="1.98464">
        <ele>81.2</ele>
        <time>2023-05-03T13:50:37Z</time>
      </trkpt>
      <trkpt lat="49.87209" lon="1.98466">
        <ele>81.2</ele>
        <time>2023-05-03T13:50:39Z</time>
      </trkpt>
      <trkpt lat="49.87208" lon="1.98468">
        <ele>81.4</ele>
        <time>2023-05-03T13:50:40Z</time>
      </trkpt>
      <trkpt lat="49.87208" lon="1.98469">
        <ele>81.4</ele>
        <time>2023-05-03T13:50:41Z</time>
      </trkpt>
      <trkpt lat="49.87208" lon="1.9847">
        <ele>81.4</ele>
        <time>2023-05-03T13:50:42Z</time>
      </trkpt>
      <trkpt lat="49.87207" lon="1.98472">
        <ele>81.6</ele>
        <time>2023-05-03T13:50:43Z</time>
      </trkpt>
      <trkpt lat="49.87207" lon="1.98473">
        <ele>82.2</ele>
        <time>2023-05-03T13:50:44Z</time>
      </trkpt>
      <trkpt lat="49.87207" lon="1.98475">
        <ele>82.4</ele>
        <time>2023-05-03T13:50:45Z</time>
      </trkpt>
      <trkpt lat="49.87206" lon="1.98478">
        <ele>82.4</ele>
        <time>2023-05-03T13:50:47Z</time>
      </trkpt>
      <trkpt lat="49.87206" lon="1.9848">
        <ele>82.7</ele>
        <time>2023-05-03T13:50:49Z</time>
      </trkpt>
      <trkpt lat="49.87206" lon="1.98482">
        <ele>82.7</ele>
        <time>2023-05-03T13:50:50Z</time>
      </trkpt>
      <trkpt lat="49.87206" lon="1.98483">
        <ele>82.7</ele>
        <time>2023-05-03T13:50:51Z</time>
      </trkpt>
      <trkpt lat="49.87206" lon="1.98485">
        <ele>82.9</ele>
        <time>2023-05-03T13:50:52Z</time>
      </trkpt>
      <trkpt lat="49.87206" lon="1.98488">
        <ele>82.9</ele>
        <time>2023-05-03T13:50:53Z</time>
      </trkpt>
      <trkpt lat="49.87207" lon="1.98489">
        <ele>83.1</ele>
        <time>2023-05-03T13:50:54Z</time>
      </trkpt>
      <trkpt lat="49.87207" lon="1.9849">
        <ele>83.1</ele>
        <time>2023-05-03T13:50:55Z</time>
      </trkpt>
      <trkpt lat="49.87207" lon="1.98492">
        <ele>82.5</ele>
        <time>2023-05-03T13:50:57Z</time>
      </trkpt>
      <trkpt lat="49.87208" lon="1.98494">
        <ele>82.7</ele>
        <time>2023-05-03T13:50:58Z</time>
      </trkpt>
      <trkpt lat="49.87208" lon="1.98495">
        <ele>82.7</ele>
        <time>2023-05-03T13:50:59Z</time>
      </trkpt>
      <trkpt lat="49.87209" lon="1.98497">
        <ele>82.9</ele>
        <time>2023-05-03T13:51:00Z</time>
      </trkpt>
      <trkpt lat="49.87209" lon="1.98498">
        <ele>82.9</ele>
        <time>2023-05-03T13:51:01Z</time>
      </trkpt>
      <trkpt lat="49.8721" lon="1.985">
        <ele>82.9</ele>
        <time>2023-05-03T13:51:02Z</time>
      </trkpt>
      <trkpt lat="49.8721" lon="1.98502">
        <ele>82.5</ele>
        <time>2023-05-03T13:51:04Z</time>
      </trkpt>
      <trkpt lat="49.87211" lon="1.98504">
        <ele>82.5</ele>
        <time>2023-05-03T13:51:05Z</time>
      </trkpt>
      <trkpt lat="49.87211" lon="1.98505">
        <ele>82.5</ele>
        <time>2023-05-03T13:51:06Z</time>
      </trkpt>
      <trkpt lat="49.87211" lon="1.98506">
        <ele>82.7</ele>
        <time>2023-05-03T13:51:07Z</time>
      </trkpt>
      <trkpt lat="49.87212" lon="1.98508">
        <ele>82.7</ele>
        <time>2023-05-03T13:51:08Z</time>
      </trkpt>
      <trkpt lat="49.87212" lon="1.98509">
        <ele>82.7</ele>
        <time>2023-05-03T13:51:09Z</time>
      </trkpt>
      <trkpt lat="49.87212" lon="1.9851">
        <ele>83</ele>
        <time>2023-05-03T13:51:10Z</time>
      </trkpt>
      <trkpt lat="49.87212" lon="1.98512">
        <ele>83</ele>
        <time>2023-05-03T13:51:11Z</time>
      </trkpt>
      <trkpt lat="49.87213" lon="1.98514">
        <ele>83.2</ele>
        <time>2023-05-03T13:51:12Z</time>
      </trkpt>
      <trkpt lat="49.87212" lon="1.98516">
        <ele>83.2</ele>
        <time>2023-05-03T13:51:14Z</time>
      </trkpt>
      <trkpt lat="49.87211" lon="1.98518">
        <ele>83.2</ele>
        <time>2023-05-03T13:51:15Z</time>
      </trkpt>
      <trkpt lat="49.87211" lon="1.98519">
        <ele>83.4</ele>
        <time>2023-05-03T13:51:16Z</time>
      </trkpt>
      <trkpt lat="49.87211" lon="1.98521">
        <ele>83.4</ele>
        <time>2023-05-03T13:51:17Z</time>
      </trkpt>
      <trkpt lat="49.87211" lon="1.98522">
        <ele>83.6</ele>
        <time>2023-05-03T13:51:18Z</time>
      </trkpt>
      <trkpt lat="49.8721" lon="1.98524">
        <ele>83.6</ele>
        <time>2023-05-03T13:51:19Z</time>
      </trkpt>
      <trkpt lat="49.8721" lon="1.98526">
        <ele>83.6</ele>
        <time>2023-05-03T13:51:20Z</time>
      </trkpt>
      <trkpt lat="49.8721" lon="1.98527">
        <ele>84.5</ele>
        <time>2023-05-03T13:51:21Z</time>
      </trkpt>
      <trkpt lat="49.87209" lon="1.98529">
        <ele>84.5</ele>
        <time>2023-05-03T13:51:23Z</time>
      </trkpt>
      <trkpt lat="49.87209" lon="1.98531">
        <ele>84.7</ele>
        <time>2023-05-03T13:51:24Z</time>
      </trkpt>
      <trkpt lat="49.87209" lon="1.98533">
        <ele>84.7</ele>
        <time>2023-05-03T13:51:25Z</time>
      </trkpt>
      <trkpt lat="49.87209" lon="1.98534">
        <ele>84.7</ele>
        <time>2023-05-03T13:51:26Z</time>
      </trkpt>
      <trkpt lat="49.87209" lon="1.98536">
        <ele>84.9</ele>
        <time>2023-05-03T13:51:27Z</time>
      </trkpt>
      <trkpt lat="49.87209" lon="1.98537">
        <ele>84.9</ele>
        <time>2023-05-03T13:51:28Z</time>
      </trkpt>
      <trkpt lat="49.87208" lon="1.98539">
        <ele>84.9</ele>
        <time>2023-05-03T13:51:29Z</time>
      </trkpt>
      <trkpt lat="49.87208" lon="1.98541">
        <ele>85.2</ele>
        <time>2023-05-03T13:51:31Z</time>
      </trkpt>
      <trkpt lat="49.87208" lon="1.98543">
        <ele>85.2</ele>
        <time>2023-05-03T13:51:32Z</time>
      </trkpt>
      <trkpt lat="49.87208" lon="1.98545">
        <ele>85.4</ele>
        <time>2023-05-03T13:51:33Z</time>
      </trkpt>
      <trkpt lat="49.87208" lon="1.98546">
        <ele>85.4</ele>
        <time>2023-05-03T13:51:34Z</time>
      </trkpt>
      <trkpt lat="49.87208" lon="1.98548">
        <ele>85.4</ele>
        <time>2023-05-03T13:51:35Z</time>
      </trkpt>
      <trkpt lat="49.87208" lon="1.9855">
        <ele>85.6</ele>
        <time>2023-05-03T13:51:36Z</time>
      </trkpt>
      <trkpt lat="49.87209" lon="1.98551">
        <ele>85.6</ele>
        <time>2023-05-03T13:51:37Z</time>
      </trkpt>
      <trkpt lat="49.87209" lon="1.98553">
        <ele>85.9</ele>
        <time>2023-05-03T13:51:39Z</time>
      </trkpt>
      <trkpt lat="49.8721" lon="1.98554">
        <ele>85.9</ele>
        <time>2023-05-03T13:51:40Z</time>
      </trkpt>
      <trkpt lat="49.8721" lon="1.98555">
        <ele>85.2</ele>
        <time>2023-05-03T13:51:41Z</time>
      </trkpt>
      <trkpt lat="49.87211" lon="1.98557">
        <ele>85.5</ele>
        <time>2023-05-03T13:51:42Z</time>
      </trkpt>
      <trkpt lat="49.87211" lon="1.98559">
        <ele>85.5</ele>
        <time>2023-05-03T13:51:43Z</time>
      </trkpt>
      <trkpt lat="49.87212" lon="1.9856">
        <ele>85.5</ele>
        <time>2023-05-03T13:51:44Z</time>
      </trkpt>
      <trkpt lat="49.87213" lon="1.98562">
        <ele>85.1</ele>
        <time>2023-05-03T13:51:45Z</time>
      </trkpt>
      <trkpt lat="49.87213" lon="1.98563">
        <ele>85.1</ele>
        <time>2023-05-03T13:51:47Z</time>
      </trkpt>
      <trkpt lat="49.87214" lon="1.98564">
        <ele>85.1</ele>
        <time>2023-05-03T13:51:48Z</time>
      </trkpt>
      <trkpt lat="49.87215" lon="1.98566">
        <ele>85.3</ele>
        <time>2023-05-03T13:51:49Z</time>
      </trkpt>
      <trkpt lat="49.87215" lon="1.98567">
        <ele>84.7</ele>
        <time>2023-05-03T13:51:50Z</time>
      </trkpt>
      <trkpt lat="49.87216" lon="1.98568">
        <ele>84.7</ele>
        <time>2023-05-03T13:51:51Z</time>
      </trkpt>
      <trkpt lat="49.87217" lon="1.9857">
        <ele>84.9</ele>
        <time>2023-05-03T13:51:52Z</time>
      </trkpt>
      <trkpt lat="49.87218" lon="1.98571">
        <ele>84.9</ele>
        <time>2023-05-03T13:51:53Z</time>
      </trkpt>
      <trkpt lat="49.87218" lon="1.98572">
        <ele>84.3</ele>
        <time>2023-05-03T13:51:55Z</time>
      </trkpt>
      <trkpt lat="49.87219" lon="1.98574">
        <ele>84.5</ele>
        <time>2023-05-03T13:51:56Z</time>
      </trkpt>
      <trkpt lat="49.87219" lon="1.98575">
        <ele>84.5</ele>
        <time>2023-05-03T13:51:57Z</time>
      </trkpt>
      <trkpt lat="49.8722" lon="1.98576">
        <ele>84.5</ele>
        <time>2023-05-03T13:51:58Z</time>
      </trkpt>
      <trkpt lat="49.8722" lon="1.98577">
        <ele>84.5</ele>
        <time>2023-05-03T13:51:59Z</time>
      </trkpt>
      <trkpt lat="49.87221" lon="1.98579">
        <ele>84.7</ele>
        <time>2023-05-03T13:52:00Z</time>
      </trkpt>
      <trkpt lat="49.87221" lon="1.9858">
        <ele>84.1</ele>
        <time>2023-05-03T13:52:02Z</time>
      </trkpt>
      <trkpt lat="49.87222" lon="1.98581">
        <ele>84.1</ele>
        <time>2023-05-03T13:52:03Z</time>
      </trkpt>
      <trkpt lat="49.87222" lon="1.98582">
        <ele>84.3</ele>
        <time>2023-05-03T13:52:04Z</time>
      </trkpt>
      <trkpt lat="49.87222" lon="1.98584">
        <ele>84.3</ele>
        <time>2023-05-03T13:52:05Z</time>
      </trkpt>
      <trkpt lat="49.87222" lon="1.98586">
        <ele>84.3</ele>
        <time>2023-05-03T13:52:07Z</time>
      </trkpt>
      <trkpt lat="49.87223" lon="1.98587">
        <ele>84.5</ele>
        <time>2023-05-03T13:52:09Z</time>
      </trkpt>
      <trkpt lat="49.87223" lon="1.98589">
        <ele>84.5</ele>
        <time>2023-05-03T13:52:10Z</time>
      </trkpt>
      <trkpt lat="49.87223" lon="1.9859">
        <ele>84.5</ele>
        <time>2023-05-03T13:52:11Z</time>
      </trkpt>
      <trkpt lat="49.87224" lon="1.98591">
        <ele>84</ele>
        <time>2023-05-03T13:52:12Z</time>
      </trkpt>
      <trkpt lat="49.87224" lon="1.98592">
        <ele>84</ele>
        <time>2023-05-03T13:52:13Z</time>
      </trkpt>
      <trkpt lat="49.87225" lon="1.98594">
        <ele>84</ele>
        <time>2023-05-03T13:52:15Z</time>
      </trkpt>
      <trkpt lat="49.87225" lon="1.98595">
        <ele>84.2</ele>
        <time>2023-05-03T13:52:16Z</time>
      </trkpt>
      <trkpt lat="49.87225" lon="1.98596">
        <ele>84.2</ele>
        <time>2023-05-03T13:52:17Z</time>
      </trkpt>
      <trkpt lat="49.87226" lon="1.98598">
        <ele>84.2</ele>
        <time>2023-05-03T13:52:18Z</time>
      </trkpt>
      <trkpt lat="49.87226" lon="1.98599">
        <ele>84.2</ele>
        <time>2023-05-03T13:52:19Z</time>
      </trkpt>
      <trkpt lat="49.87226" lon="1.986">
        <ele>84.3</ele>
        <time>2023-05-03T13:52:20Z</time>
      </trkpt>
      <trkpt lat="49.87226" lon="1.98601">
        <ele>84.3</ele>
        <time>2023-05-03T13:52:21Z</time>
      </trkpt>
      <trkpt lat="49.87227" lon="1.98603">
        <ele>83.7</ele>
        <time>2023-05-03T13:52:23Z</time>
      </trkpt>
      <trkpt lat="49.87227" lon="1.98605">
        <ele>83.8</ele>
        <time>2023-05-03T13:52:24Z</time>
      </trkpt>
      <trkpt lat="49.87227" lon="1.98607">
        <ele>83.8</ele>
        <time>2023-05-03T13:52:25Z</time>
      </trkpt>
      <trkpt lat="49.87227" lon="1.98609">
        <ele>84</ele>
        <time>2023-05-03T13:52:26Z</time>
      </trkpt>
      <trkpt lat="49.87227" lon="1.98611">
        <ele>84</ele>
        <time>2023-05-03T13:52:27Z</time>
      </trkpt>
      <trkpt lat="49.87227" lon="1.98613">
        <ele>84.1</ele>
        <time>2023-05-03T13:52:28Z</time>
      </trkpt>
      <trkpt lat="49.87228" lon="1.98616">
        <ele>84.1</ele>
        <time>2023-05-03T13:52:30Z</time>
      </trkpt>
      <trkpt lat="49.87228" lon="1.98618">
        <ele>84.1</ele>
        <time>2023-05-03T13:52:31Z</time>
      </trkpt>
      <trkpt lat="49.87229" lon="1.9862">
        <ele>84.1</ele>
        <time>2023-05-03T13:52:32Z</time>
      </trkpt>
      <trkpt lat="49.87229" lon="1.98622">
        <ele>84.2</ele>
        <time>2023-05-03T13:52:34Z</time>
      </trkpt>
      <trkpt lat="49.8723" lon="1.98624">
        <ele>83.6</ele>
        <time>2023-05-03T13:52:35Z</time>
      </trkpt>
      <trkpt lat="49.8723" lon="1.98626">
        <ele>83.7</ele>
        <time>2023-05-03T13:52:36Z</time>
      </trkpt>
      <trkpt lat="49.87231" lon="1.98629">
        <ele>83.7</ele>
        <time>2023-05-03T13:52:37Z</time>
      </trkpt>
      <trkpt lat="49.87231" lon="1.9863">
        <ele>83.8</ele>
        <time>2023-05-03T13:52:39Z</time>
      </trkpt>
      <trkpt lat="49.87232" lon="1.98632">
        <ele>83.8</ele>
        <time>2023-05-03T13:52:40Z</time>
      </trkpt>
      <trkpt lat="49.87232" lon="1.98633">
        <ele>83.2</ele>
        <time>2023-05-03T13:52:41Z</time>
      </trkpt>
      <trkpt lat="49.87233" lon="1.98635">
        <ele>83.2</ele>
        <time>2023-05-03T13:52:42Z</time>
      </trkpt>
      <trkpt lat="49.87233" lon="1.98636">
        <ele>83.2</ele>
        <time>2023-05-03T13:52:43Z</time>
      </trkpt>
      <trkpt lat="49.87234" lon="1.98638">
        <ele>83.3</ele>
        <time>2023-05-03T13:52:44Z</time>
      </trkpt>
      <trkpt lat="49.87234" lon="1.9864">
        <ele>83.3</ele>
        <time>2023-05-03T13:52:45Z</time>
      </trkpt>
      <trkpt lat="49.87235" lon="1.98642">
        <ele>82.8</ele>
        <time>2023-05-03T13:52:47Z</time>
      </trkpt>
      <trkpt lat="49.87236" lon="1.98644">
        <ele>82.8</ele>
        <time>2023-05-03T13:52:48Z</time>
      </trkpt>
      <trkpt lat="49.87236" lon="1.98646">
        <ele>82.8</ele>
        <time>2023-05-03T13:52:49Z</time>
      </trkpt>
      <trkpt lat="49.87236" lon="1.98647">
        <ele>82.9</ele>
        <time>2023-05-03T13:52:50Z</time>
      </trkpt>
      <trkpt lat="49.87238" lon="1.9865">
        <ele>82.3</ele>
        <time>2023-05-03T13:52:52Z</time>
      </trkpt>
      <trkpt lat="49.87238" lon="1.98651">
        <ele>82.4</ele>
        <time>2023-05-03T13:52:53Z</time>
      </trkpt>
      <trkpt lat="49.87238" lon="1.98652">
        <ele>82.4</ele>
        <time>2023-05-03T13:52:54Z</time>
      </trkpt>
      <trkpt lat="49.87239" lon="1.98654">
        <ele>82.4</ele>
        <time>2023-05-03T13:52:55Z</time>
      </trkpt>
      <trkpt lat="49.87239" lon="1.98655">
        <ele>82.4</ele>
        <time>2023-05-03T13:52:56Z</time>
      </trkpt>
      <trkpt lat="49.8724" lon="1.98657">
        <ele>82.4</ele>
        <time>2023-05-03T13:52:58Z</time>
      </trkpt>
      <trkpt lat="49.8724" lon="1.98659">
        <ele>82.4</ele>
        <time>2023-05-03T13:52:59Z</time>
      </trkpt>
      <trkpt lat="49.87241" lon="1.9866">
        <ele>82</ele>
        <time>2023-05-03T13:53:00Z</time>
      </trkpt>
      <trkpt lat="49.87241" lon="1.98662">
        <ele>82</ele>
        <time>2023-05-03T13:53:01Z</time>
      </trkpt>
      <trkpt lat="49.87241" lon="1.98664">
        <ele>82</ele>
        <time>2023-05-03T13:53:02Z</time>
      </trkpt>
      <trkpt lat="49.87241" lon="1.98665">
        <ele>82</ele>
        <time>2023-05-03T13:53:03Z</time>
      </trkpt>
      <trkpt lat="49.87241" lon="1.98666">
        <ele>82</ele>
        <time>2023-05-03T13:53:04Z</time>
      </trkpt>
      <trkpt lat="49.87242" lon="1.98667">
        <ele>82</ele>
        <time>2023-05-03T13:53:05Z</time>
      </trkpt>
      <trkpt lat="49.87242" lon="1.9867">
        <ele>82.2</ele>
        <time>2023-05-03T13:53:07Z</time>
      </trkpt>
      <trkpt lat="49.87243" lon="1.98672">
        <ele>82.2</ele>
        <time>2023-05-03T13:53:08Z</time>
      </trkpt>
      <trkpt lat="49.87243" lon="1.98673">
        <ele>82.3</ele>
        <time>2023-05-03T13:53:09Z</time>
      </trkpt>
      <trkpt lat="49.87243" lon="1.98675">
        <ele>81.8</ele>
        <time>2023-05-03T13:53:10Z</time>
      </trkpt>
      <trkpt lat="49.87243" lon="1.98677">
        <ele>82</ele>
        <time>2023-05-03T13:53:11Z</time>
      </trkpt>
      <trkpt lat="49.87244" lon="1.98679">
        <ele>82</ele>
        <time>2023-05-03T13:53:13Z</time>
      </trkpt>
      <trkpt lat="49.87243" lon="1.98681">
        <ele>82.7</ele>
        <time>2023-05-03T13:53:14Z</time>
      </trkpt>
      <trkpt lat="49.87242" lon="1.98682">
        <ele>82.7</ele>
        <time>2023-05-03T13:53:15Z</time>
      </trkpt>
      <trkpt lat="49.87242" lon="1.98683">
        <ele>82.7</ele>
        <time>2023-05-03T13:53:16Z</time>
      </trkpt>
      <trkpt lat="49.87241" lon="1.98684">
        <ele>82.7</ele>
        <time>2023-05-03T13:53:17Z</time>
      </trkpt>
      <trkpt lat="49.87241" lon="1.98685">
        <ele>83</ele>
        <time>2023-05-03T13:53:19Z</time>
      </trkpt>
      <trkpt lat="49.87242" lon="1.98687">
        <ele>83</ele>
        <time>2023-05-03T13:53:20Z</time>
      </trkpt>
      <trkpt lat="49.87242" lon="1.98688">
        <ele>83</ele>
        <time>2023-05-03T13:53:21Z</time>
      </trkpt>
      <trkpt lat="49.87243" lon="1.98689">
        <ele>83</ele>
        <time>2023-05-03T13:53:22Z</time>
      </trkpt>
      <trkpt lat="49.87243" lon="1.9869">
        <ele>82.9</ele>
        <time>2023-05-03T13:53:23Z</time>
      </trkpt>
      <trkpt lat="49.87244" lon="1.98691">
        <ele>82.9</ele>
        <time>2023-05-03T13:53:24Z</time>
      </trkpt>
      <trkpt lat="49.87245" lon="1.98692">
        <ele>82.9</ele>
        <time>2023-05-03T13:53:25Z</time>
      </trkpt>
      <trkpt lat="49.87245" lon="1.98694">
        <ele>82.9</ele>
        <time>2023-05-03T13:53:26Z</time>
      </trkpt>
      <trkpt lat="49.87246" lon="1.98695">
        <ele>82.8</ele>
        <time>2023-05-03T13:53:27Z</time>
      </trkpt>
      <trkpt lat="49.87247" lon="1.98697">
        <ele>82.8</ele>
        <time>2023-05-03T13:53:29Z</time>
      </trkpt>
      <trkpt lat="49.87247" lon="1.98698">
        <ele>83.2</ele>
        <time>2023-05-03T13:53:30Z</time>
      </trkpt>
      <trkpt lat="49.87248" lon="1.987">
        <ele>83.2</ele>
        <time>2023-05-03T13:53:31Z</time>
      </trkpt>
      <trkpt lat="49.87249" lon="1.98701">
        <ele>82.7</ele>
        <time>2023-05-03T13:53:32Z</time>
      </trkpt>
      <trkpt lat="49.87249" lon="1.98702">
        <ele>82.7</ele>
        <time>2023-05-03T13:53:33Z</time>
      </trkpt>
      <trkpt lat="49.8725" lon="1.98704">
        <ele>83.2</ele>
        <time>2023-05-03T13:53:34Z</time>
      </trkpt>
      <trkpt lat="49.8725" lon="1.98705">
        <ele>83.2</ele>
        <time>2023-05-03T13:53:36Z</time>
      </trkpt>
      <trkpt lat="49.87251" lon="1.98707">
        <ele>83.6</ele>
        <time>2023-05-03T13:53:37Z</time>
      </trkpt>
      <trkpt lat="49.87252" lon="1.98708">
        <ele>83.2</ele>
        <time>2023-05-03T13:53:38Z</time>
      </trkpt>
      <trkpt lat="49.87253" lon="1.98709">
        <ele>83.2</ele>
        <time>2023-05-03T13:53:39Z</time>
      </trkpt>
      <trkpt lat="49.87253" lon="1.9871">
        <ele>83.2</ele>
        <time>2023-05-03T13:53:40Z</time>
      </trkpt>
      <trkpt lat="49.87254" lon="1.98712">
        <ele>83.6</ele>
        <time>2023-05-03T13:53:41Z</time>
      </trkpt>
      <trkpt lat="49.87254" lon="1.98713">
        <ele>83.6</ele>
        <time>2023-05-03T13:53:42Z</time>
      </trkpt>
      <trkpt lat="49.87255" lon="1.98715">
        <ele>83.2</ele>
        <time>2023-05-03T13:53:44Z</time>
      </trkpt>
      <trkpt lat="49.87255" lon="1.98716">
        <ele>83.6</ele>
        <time>2023-05-03T13:53:45Z</time>
      </trkpt>
      <trkpt lat="49.87256" lon="1.98718">
        <ele>83.6</ele>
        <time>2023-05-03T13:53:46Z</time>
      </trkpt>
      <trkpt lat="49.87256" lon="1.98719">
        <ele>83.6</ele>
        <time>2023-05-03T13:53:48Z</time>
      </trkpt>
      <trkpt lat="49.87257" lon="1.98721">
        <ele>83.7</ele>
        <time>2023-05-03T13:53:49Z</time>
      </trkpt>
      <trkpt lat="49.87257" lon="1.98722">
        <ele>83.7</ele>
        <time>2023-05-03T13:53:50Z</time>
      </trkpt>
      <trkpt lat="49.87258" lon="1.98724">
        <ele>84.1</ele>
        <time>2023-05-03T13:53:51Z</time>
      </trkpt>
      <trkpt lat="49.87258" lon="1.98726">
        <ele>84.1</ele>
        <time>2023-05-03T13:53:52Z</time>
      </trkpt>
      <trkpt lat="49.87259" lon="1.98727">
        <ele>84.1</ele>
        <time>2023-05-03T13:53:53Z</time>
      </trkpt>
      <trkpt lat="49.87259" lon="1.98729">
        <ele>84.6</ele>
        <time>2023-05-03T13:53:55Z</time>
      </trkpt>
      <trkpt lat="49.8726" lon="1.98731">
        <ele>84.1</ele>
        <time>2023-05-03T13:53:56Z</time>
      </trkpt>
      <trkpt lat="49.8726" lon="1.98732">
        <ele>84.6</ele>
        <time>2023-05-03T13:53:57Z</time>
      </trkpt>
      <trkpt lat="49.8726" lon="1.98734">
        <ele>84.6</ele>
        <time>2023-05-03T13:53:58Z</time>
      </trkpt>
      <trkpt lat="49.87261" lon="1.98735">
        <ele>84.6</ele>
        <time>2023-05-03T13:53:59Z</time>
      </trkpt>
      <trkpt lat="49.87261" lon="1.98737">
        <ele>84.6</ele>
        <time>2023-05-03T13:54:00Z</time>
      </trkpt>
      <trkpt lat="49.87262" lon="1.98738">
        <ele>85</ele>
        <time>2023-05-03T13:54:01Z</time>
      </trkpt>
      <trkpt lat="49.87262" lon="1.9874">
        <ele>85</ele>
        <time>2023-05-03T13:54:02Z</time>
      </trkpt>
      <trkpt lat="49.87263" lon="1.98741">
        <ele>85.1</ele>
        <time>2023-05-03T13:54:04Z</time>
      </trkpt>
      <trkpt lat="49.87263" lon="1.98743">
        <ele>85.1</ele>
        <time>2023-05-03T13:54:05Z</time>
      </trkpt>
      <trkpt lat="49.87264" lon="1.98744">
        <ele>85.1</ele>
        <time>2023-05-03T13:54:06Z</time>
      </trkpt>
      <trkpt lat="49.87264" lon="1.98746">
        <ele>85.5</ele>
        <time>2023-05-03T13:54:07Z</time>
      </trkpt>
      <trkpt lat="49.87264" lon="1.98748">
        <ele>85.5</ele>
        <time>2023-05-03T13:54:08Z</time>
      </trkpt>
      <trkpt lat="49.87264" lon="1.9875">
        <ele>85.5</ele>
        <time>2023-05-03T13:54:09Z</time>
      </trkpt>
      <trkpt lat="49.87263" lon="1.98752">
        <ele>86</ele>
        <time>2023-05-03T13:54:11Z</time>
      </trkpt>
      <trkpt lat="49.87261" lon="1.98753">
        <ele>86.4</ele>
        <time>2023-05-03T13:54:12Z</time>
      </trkpt>
      <trkpt lat="49.8726" lon="1.98755">
        <ele>86.9</ele>
        <time>2023-05-03T13:54:13Z</time>
      </trkpt>
      <trkpt lat="49.87259" lon="1.98756">
        <ele>87.3</ele>
        <time>2023-05-03T13:54:14Z</time>
      </trkpt>
      <trkpt lat="49.87258" lon="1.98758">
        <ele>87.3</ele>
        <time>2023-05-03T13:54:15Z</time>
      </trkpt>
      <trkpt lat="49.87257" lon="1.9876">
        <ele>87.8</ele>
        <time>2023-05-03T13:54:17Z</time>
      </trkpt>
      <trkpt lat="49.87256" lon="1.9876">
        <ele>88.2</ele>
        <time>2023-05-03T13:54:18Z</time>
      </trkpt>
      <trkpt lat="49.87256" lon="1.98761">
        <ele>88.2</ele>
        <time>2023-05-03T13:54:19Z</time>
      </trkpt>
      <trkpt lat="49.87255" lon="1.98763">
        <ele>88.7</ele>
        <time>2023-05-03T13:54:21Z</time>
      </trkpt>
      <trkpt lat="49.87254" lon="1.98764">
        <ele>88.7</ele>
        <time>2023-05-03T13:54:22Z</time>
      </trkpt>
      <trkpt lat="49.87254" lon="1.98765">
        <ele>89.1</ele>
        <time>2023-05-03T13:54:23Z</time>
      </trkpt>
      <trkpt lat="49.87253" lon="1.98768">
        <ele>89.5</ele>
        <time>2023-05-03T13:54:25Z</time>
      </trkpt>
      <trkpt lat="49.87252" lon="1.98769">
        <ele>89.5</ele>
        <time>2023-05-03T13:54:27Z</time>
      </trkpt>
      <trkpt lat="49.87252" lon="1.98771">
        <ele>89.5</ele>
        <time>2023-05-03T13:54:28Z</time>
      </trkpt>
      <trkpt lat="49.87252" lon="1.98772">
        <ele>90</ele>
        <time>2023-05-03T13:54:29Z</time>
      </trkpt>
      <trkpt lat="49.87251" lon="1.98773">
        <ele>90</ele>
        <time>2023-05-03T13:54:30Z</time>
      </trkpt>
      <trkpt lat="49.87251" lon="1.98775">
        <ele>90</ele>
        <time>2023-05-03T13:54:31Z</time>
      </trkpt>
      <trkpt lat="49.87251" lon="1.98776">
        <ele>90.9</ele>
        <time>2023-05-03T13:54:32Z</time>
      </trkpt>
      <trkpt lat="49.87251" lon="1.98778">
        <ele>90.4</ele>
        <time>2023-05-03T13:54:34Z</time>
      </trkpt>
      <trkpt lat="49.87252" lon="1.98781">
        <ele>90.8</ele>
        <time>2023-05-03T13:54:35Z</time>
      </trkpt>
      <trkpt lat="49.87252" lon="1.98784">
        <ele>91.3</ele>
        <time>2023-05-03T13:54:36Z</time>
      </trkpt>
      <trkpt lat="49.87252" lon="1.98786">
        <ele>91.3</ele>
        <time>2023-05-03T13:54:38Z</time>
      </trkpt>
      <trkpt lat="49.87252" lon="1.98788">
        <ele>91.3</ele>
        <time>2023-05-03T13:54:39Z</time>
      </trkpt>
      <trkpt lat="49.87252" lon="1.98789">
        <ele>91.7</ele>
        <time>2023-05-03T13:54:40Z</time>
      </trkpt>
      <trkpt lat="49.87251" lon="1.98791">
        <ele>92.1</ele>
        <time>2023-05-03T13:54:42Z</time>
      </trkpt>
      <trkpt lat="49.87251" lon="1.98793">
        <ele>92.6</ele>
        <time>2023-05-03T13:54:44Z</time>
      </trkpt>
      <trkpt lat="49.87251" lon="1.98794">
        <ele>92.6</ele>
        <time>2023-05-03T13:54:45Z</time>
      </trkpt>
      <trkpt lat="49.87251" lon="1.98795">
        <ele>92.6</ele>
        <time>2023-05-03T13:54:46Z</time>
      </trkpt>
      <trkpt lat="49.87251" lon="1.98796">
        <ele>92.6</ele>
        <time>2023-05-03T13:54:47Z</time>
      </trkpt>
      <trkpt lat="49.87251" lon="1.98796">
        <ele>92.1</ele>
        <time>2023-05-03T13:54:48Z</time>
      </trkpt>
      <trkpt lat="49.87251" lon="1.98798">
        <ele>92.5</ele>
        <time>2023-05-03T13:54:49Z</time>
      </trkpt>
      <trkpt lat="49.87251" lon="1.98798">
        <ele>92.5</ele>
        <time>2023-05-03T13:54:50Z</time>
      </trkpt>
      <trkpt lat="49.87251" lon="1.98799">
        <ele>93</ele>
        <time>2023-05-03T13:54:52Z</time>
      </trkpt>
      <trkpt lat="49.87251" lon="1.988">
        <ele>93</ele>
        <time>2023-05-03T13:54:53Z</time>
      </trkpt>
      <trkpt lat="49.87251" lon="1.98801">
        <ele>93.4</ele>
        <time>2023-05-03T13:54:54Z</time>
      </trkpt>
      <trkpt lat="49.8725" lon="1.98802">
        <ele>93.4</ele>
        <time>2023-05-03T13:54:55Z</time>
      </trkpt>
      <trkpt lat="49.8725" lon="1.98803">
        <ele>93.4</ele>
        <time>2023-05-03T13:54:56Z</time>
      </trkpt>
      <trkpt lat="49.8725" lon="1.98803">
        <ele>93.4</ele>
        <time>2023-05-03T13:54:57Z</time>
      </trkpt>
      <trkpt lat="49.8725" lon="1.98805">
        <ele>93.4</ele>
        <time>2023-05-03T13:54:59Z</time>
      </trkpt>
      <trkpt lat="49.87249" lon="1.98806">
        <ele>93.8</ele>
        <time>2023-05-03T13:55:01Z</time>
      </trkpt>
      <trkpt lat="49.87249" lon="1.98807">
        <ele>93.8</ele>
        <time>2023-05-03T13:55:02Z</time>
      </trkpt>
      <trkpt lat="49.87248" lon="1.98808">
        <ele>94.3</ele>
        <time>2023-05-03T13:55:03Z</time>
      </trkpt>
      <trkpt lat="49.87248" lon="1.98809">
        <ele>94.3</ele>
        <time>2023-05-03T13:55:04Z</time>
      </trkpt>
      <trkpt lat="49.87247" lon="1.98811">
        <ele>94.7</ele>
        <time>2023-05-03T13:55:05Z</time>
      </trkpt>
      <trkpt lat="49.87246" lon="1.98814">
        <ele>95.1</ele>
        <time>2023-05-03T13:55:07Z</time>
      </trkpt>
      <trkpt lat="49.87245" lon="1.98815">
        <ele>95.5</ele>
        <time>2023-05-03T13:55:09Z</time>
      </trkpt>
      <trkpt lat="49.87244" lon="1.98816">
        <ele>95.5</ele>
        <time>2023-05-03T13:55:10Z</time>
      </trkpt>
      <trkpt lat="49.87243" lon="1.98817">
        <ele>95.5</ele>
        <time>2023-05-03T13:55:11Z</time>
      </trkpt>
      <trkpt lat="49.87243" lon="1.98818">
        <ele>96</ele>
        <time>2023-05-03T13:55:12Z</time>
      </trkpt>
      <trkpt lat="49.87242" lon="1.98819">
        <ele>96.3</ele>
        <time>2023-05-03T13:55:13Z</time>
      </trkpt>
      <trkpt lat="49.87242" lon="1.9882">
        <ele>96.3</ele>
        <time>2023-05-03T13:55:14Z</time>
      </trkpt>
      <trkpt lat="49.87241" lon="1.98821">
        <ele>96.3</ele>
        <time>2023-05-03T13:55:16Z</time>
      </trkpt>
      <trkpt lat="49.8724" lon="1.98822">
        <ele>96.3</ele>
        <time>2023-05-03T13:55:17Z</time>
      </trkpt>
      <trkpt lat="49.8724" lon="1.98823">
        <ele>97.2</ele>
        <time>2023-05-03T13:55:18Z</time>
      </trkpt>
      <trkpt lat="49.87239" lon="1.98824">
        <ele>97.2</ele>
        <time>2023-05-03T13:55:19Z</time>
      </trkpt>
      <trkpt lat="49.87239" lon="1.98824">
        <ele>97.2</ele>
        <time>2023-05-03T13:55:20Z</time>
      </trkpt>
      <trkpt lat="49.87238" lon="1.98825">
        <ele>97.2</ele>
        <time>2023-05-03T13:55:22Z</time>
      </trkpt>
      <trkpt lat="49.87237" lon="1.98826">
        <ele>97.6</ele>
        <time>2023-05-03T13:55:24Z</time>
      </trkpt>
      <trkpt lat="49.87237" lon="1.98827">
        <ele>98</ele>
        <time>2023-05-03T13:55:25Z</time>
      </trkpt>
      <trkpt lat="49.87236" lon="1.98828">
        <ele>98</ele>
        <time>2023-05-03T13:55:26Z</time>
      </trkpt>
      <trkpt lat="49.87236" lon="1.98828">
        <ele>98</ele>
        <time>2023-05-03T13:55:27Z</time>
      </trkpt>
      <trkpt lat="49.87235" lon="1.98829">
        <ele>98</ele>
        <time>2023-05-03T13:55:28Z</time>
      </trkpt>
      <trkpt lat="49.87234" lon="1.9883">
        <ele>98.4</ele>
        <time>2023-05-03T13:55:30Z</time>
      </trkpt>
      <trkpt lat="49.87234" lon="1.9883">
        <ele>98.4</ele>
        <time>2023-05-03T13:55:31Z</time>
      </trkpt>
      <trkpt lat="49.87233" lon="1.98831">
        <ele>98.4</ele>
        <time>2023-05-03T13:55:32Z</time>
      </trkpt>
      <trkpt lat="49.87232" lon="1.98832">
        <ele>98.8</ele>
        <time>2023-05-03T13:55:33Z</time>
      </trkpt>
      <trkpt lat="49.87232" lon="1.98832">
        <ele>99.2</ele>
        <time>2023-05-03T13:55:35Z</time>
      </trkpt>
      <trkpt lat="49.87231" lon="1.98833">
        <ele>99.2</ele>
        <time>2023-05-03T13:55:36Z</time>
      </trkpt>
      <trkpt lat="49.87231" lon="1.98833">
        <ele>99.2</ele>
        <time>2023-05-03T13:55:37Z</time>
      </trkpt>
      <trkpt lat="49.8723" lon="1.98834">
        <ele>99.2</ele>
        <time>2023-05-03T13:55:39Z</time>
      </trkpt>
      <trkpt lat="49.87229" lon="1.98834">
        <ele>99.2</ele>
        <time>2023-05-03T13:55:40Z</time>
      </trkpt>
      <trkpt lat="49.87229" lon="1.98834">
        <ele>99.7</ele>
        <time>2023-05-03T13:55:42Z</time>
      </trkpt>
      <trkpt lat="49.87228" lon="1.98835">
        <ele>99.7</ele>
        <time>2023-05-03T13:55:43Z</time>
      </trkpt>
      <trkpt lat="49.87228" lon="1.98835">
        <ele>99.7</ele>
        <time>2023-05-03T13:55:45Z</time>
      </trkpt>
      <trkpt lat="49.87227" lon="1.98836">
        <ele>100</ele>
        <time>2023-05-03T13:55:47Z</time>
      </trkpt>
      <trkpt lat="49.87227" lon="1.98836">
        <ele>100</ele>
        <time>2023-05-03T13:55:48Z</time>
      </trkpt>
      <trkpt lat="49.87227" lon="1.98836">
        <ele>100</ele>
        <time>2023-05-03T13:55:49Z</time>
      </trkpt>
      <trkpt lat="49.87227" lon="1.98837">
        <ele>100</ele>
        <time>2023-05-03T13:55:50Z</time>
      </trkpt>
      <trkpt lat="49.87227" lon="1.98838">
        <ele>100</ele>
        <time>2023-05-03T13:55:51Z</time>
      </trkpt>
      <trkpt lat="49.87226" lon="1.98839">
        <ele>100.5</ele>
        <time>2023-05-03T13:55:52Z</time>
      </trkpt>
      <trkpt lat="49.87225" lon="1.9884">
        <ele>100.8</ele>
        <time>2023-05-03T13:55:54Z</time>
      </trkpt>
      <trkpt lat="49.87225" lon="1.98841">
        <ele>100.8</ele>
        <time>2023-05-03T13:55:55Z</time>
      </trkpt>
      <trkpt lat="49.87225" lon="1.98841">
        <ele>100.8</ele>
        <time>2023-05-03T13:55:56Z</time>
      </trkpt>
      <trkpt lat="49.87226" lon="1.98841">
        <ele>100.8</ele>
        <time>2023-05-03T13:55:57Z</time>
      </trkpt>
      <trkpt lat="49.87226" lon="1.98841">
        <ele>100.8</ele>
        <time>2023-05-03T13:55:58Z</time>
      </trkpt>
      <trkpt lat="49.87226" lon="1.98842">
        <ele>100.8</ele>
        <time>2023-05-03T13:56:00Z</time>
      </trkpt>
      <trkpt lat="49.87226" lon="1.98843">
        <ele>100.8</ele>
        <time>2023-05-03T13:56:02Z</time>
      </trkpt>
      <trkpt lat="49.87226" lon="1.98843">
        <ele>100.8</ele>
        <time>2023-05-03T13:56:03Z</time>
      </trkpt>
      <trkpt lat="49.87226" lon="1.98844">
        <ele>100.8</ele>
        <time>2023-05-03T13:56:04Z</time>
      </trkpt>
      <trkpt lat="49.87225" lon="1.98845">
        <ele>101.1</ele>
        <time>2023-05-03T13:56:05Z</time>
      </trkpt>
      <trkpt lat="49.87224" lon="1.98845">
        <ele>101.1</ele>
        <time>2023-05-03T13:56:06Z</time>
      </trkpt>
      <trkpt lat="49.87224" lon="1.98846">
        <ele>101.1</ele>
        <time>2023-05-03T13:56:07Z</time>
      </trkpt>
      <trkpt lat="49.87223" lon="1.98847">
        <ele>101.6</ele>
        <time>2023-05-03T13:56:08Z</time>
      </trkpt>
      <trkpt lat="49.87223" lon="1.98848">
        <ele>101.6</ele>
        <time>2023-05-03T13:56:10Z</time>
      </trkpt>
      <trkpt lat="49.87222" lon="1.98849">
        <ele>101.9</ele>
        <time>2023-05-03T13:56:11Z</time>
      </trkpt>
      <trkpt lat="49.87221" lon="1.9885">
        <ele>101.9</ele>
        <time>2023-05-03T13:56:13Z</time>
      </trkpt>
      <trkpt lat="49.87221" lon="1.9885">
        <ele>102.3</ele>
        <time>2023-05-03T13:56:14Z</time>
      </trkpt>
      <trkpt lat="49.8722" lon="1.9885">
        <ele>102.3</ele>
        <time>2023-05-03T13:56:15Z</time>
      </trkpt>
      <trkpt lat="49.87219" lon="1.98851">
        <ele>102.3</ele>
        <time>2023-05-03T13:56:17Z</time>
      </trkpt>
      <trkpt lat="49.87219" lon="1.98852">
        <ele>102.3</ele>
        <time>2023-05-03T13:56:18Z</time>
      </trkpt>
      <trkpt lat="49.87218" lon="1.98852">
        <ele>102.8</ele>
        <time>2023-05-03T13:56:19Z</time>
      </trkpt>
      <trkpt lat="49.87217" lon="1.98853">
        <ele>102.8</ele>
        <time>2023-05-03T13:56:20Z</time>
      </trkpt>
      <trkpt lat="49.87217" lon="1.98853">
        <ele>103.2</ele>
        <time>2023-05-03T13:56:21Z</time>
      </trkpt>
      <trkpt lat="49.87216" lon="1.98854">
        <ele>103.2</ele>
        <time>2023-05-03T13:56:23Z</time>
      </trkpt>
      <trkpt lat="49.87215" lon="1.98855">
        <ele>103.6</ele>
        <time>2023-05-03T13:56:24Z</time>
      </trkpt>
      <trkpt lat="49.87214" lon="1.98856">
        <ele>103.6</ele>
        <time>2023-05-03T13:56:25Z</time>
      </trkpt>
      <trkpt lat="49.87214" lon="1.98856">
        <ele>103.6</ele>
        <time>2023-05-03T13:56:26Z</time>
      </trkpt>
      <trkpt lat="49.87213" lon="1.98857">
        <ele>103.9</ele>
        <time>2023-05-03T13:56:27Z</time>
      </trkpt>
      <trkpt lat="49.87211" lon="1.98859">
        <ele>104.3</ele>
        <time>2023-05-03T13:56:28Z</time>
      </trkpt>
      <trkpt lat="49.87211" lon="1.9886">
        <ele>104.3</ele>
        <time>2023-05-03T13:56:30Z</time>
      </trkpt>
      <trkpt lat="49.8721" lon="1.9886">
        <ele>104.3</ele>
        <time>2023-05-03T13:56:31Z</time>
      </trkpt>
      <trkpt lat="49.87209" lon="1.98862">
        <ele>105</ele>
        <time>2023-05-03T13:56:32Z</time>
      </trkpt>
      <trkpt lat="49.87208" lon="1.98863">
        <ele>105</ele>
        <time>2023-05-03T13:56:34Z</time>
      </trkpt>
      <trkpt lat="49.87207" lon="1.98865">
        <ele>105.4</ele>
        <time>2023-05-03T13:56:35Z</time>
      </trkpt>
      <trkpt lat="49.87205" lon="1.98867">
        <ele>105.6</ele>
        <time>2023-05-03T13:56:36Z</time>
      </trkpt>
      <trkpt lat="49.87202" lon="1.98871">
        <ele>106.3</ele>
        <time>2023-05-03T13:56:38Z</time>
      </trkpt>
      <trkpt lat="49.87201" lon="1.98873">
        <ele>106.7</ele>
        <time>2023-05-03T13:56:39Z</time>
      </trkpt>
      <trkpt lat="49.87199" lon="1.98876">
        <ele>106.9</ele>
        <time>2023-05-03T13:56:40Z</time>
      </trkpt>
      <trkpt lat="49.87197" lon="1.98879">
        <ele>107.5</ele>
        <time>2023-05-03T13:56:42Z</time>
      </trkpt>
      <trkpt lat="49.87196" lon="1.9888">
        <ele>107.9</ele>
        <time>2023-05-03T13:56:43Z</time>
      </trkpt>
      <trkpt lat="49.87194" lon="1.98882">
        <ele>107.9</ele>
        <time>2023-05-03T13:56:44Z</time>
      </trkpt>
      <trkpt lat="49.87193" lon="1.98883">
        <ele>108.4</ele>
        <time>2023-05-03T13:56:46Z</time>
      </trkpt>
      <trkpt lat="49.87192" lon="1.98884">
        <ele>108.4</ele>
        <time>2023-05-03T13:56:47Z</time>
      </trkpt>
      <trkpt lat="49.87191" lon="1.98885">
        <ele>108.4</ele>
        <time>2023-05-03T13:56:48Z</time>
      </trkpt>
      <trkpt lat="49.8719" lon="1.98886">
        <ele>108.8</ele>
        <time>2023-05-03T13:56:49Z</time>
      </trkpt>
      <trkpt lat="49.8719" lon="1.98888">
        <ele>109</ele>
        <time>2023-05-03T13:56:50Z</time>
      </trkpt>
      <trkpt lat="49.87189" lon="1.98889">
        <ele>109</ele>
        <time>2023-05-03T13:56:52Z</time>
      </trkpt>
      <trkpt lat="49.87188" lon="1.9889">
        <ele>109</ele>
        <time>2023-05-03T13:56:53Z</time>
      </trkpt>
      <trkpt lat="49.87187" lon="1.98891">
        <ele>109.4</ele>
        <time>2023-05-03T13:56:54Z</time>
      </trkpt>
      <trkpt lat="49.87187" lon="1.98892">
        <ele>109.5</ele>
        <time>2023-05-03T13:56:55Z</time>
      </trkpt>
      <trkpt lat="49.87186" lon="1.98892">
        <ele>109.5</ele>
        <time>2023-05-03T13:56:56Z</time>
      </trkpt>
      <trkpt lat="49.87185" lon="1.98893">
        <ele>109.9</ele>
        <time>2023-05-03T13:56:58Z</time>
      </trkpt>
      <trkpt lat="49.87184" lon="1.98894">
        <ele>109.9</ele>
        <time>2023-05-03T13:57:00Z</time>
      </trkpt>
      <trkpt lat="49.87184" lon="1.98895">
        <ele>109.9</ele>
        <time>2023-05-03T13:57:01Z</time>
      </trkpt>
      <trkpt lat="49.87183" lon="1.98895">
        <ele>109.9</ele>
        <time>2023-05-03T13:57:02Z</time>
      </trkpt>
      <trkpt lat="49.87183" lon="1.98896">
        <ele>110</ele>
        <time>2023-05-03T13:57:03Z</time>
      </trkpt>
      <trkpt lat="49.87182" lon="1.98897">
        <ele>110.4</ele>
        <time>2023-05-03T13:57:04Z</time>
      </trkpt>
      <trkpt lat="49.87181" lon="1.98898">
        <ele>110.4</ele>
        <time>2023-05-03T13:57:06Z</time>
      </trkpt>
      <trkpt lat="49.8718" lon="1.98899">
        <ele>110.4</ele>
        <time>2023-05-03T13:57:08Z</time>
      </trkpt>
      <trkpt lat="49.87179" lon="1.98899">
        <ele>110.7</ele>
        <time>2023-05-03T13:57:09Z</time>
      </trkpt>
      <trkpt lat="49.87178" lon="1.989">
        <ele>110.8</ele>
        <time>2023-05-03T13:57:10Z</time>
      </trkpt>
      <trkpt lat="49.87178" lon="1.98901">
        <ele>110.8</ele>
        <time>2023-05-03T13:57:11Z</time>
      </trkpt>
      <trkpt lat="49.87177" lon="1.98902">
        <ele>110.8</ele>
        <time>2023-05-03T13:57:12Z</time>
      </trkpt>
      <trkpt lat="49.87177" lon="1.98902">
        <ele>110.8</ele>
        <time>2023-05-03T13:57:13Z</time>
      </trkpt>
      <trkpt lat="49.87176" lon="1.98904">
        <ele>111.1</ele>
        <time>2023-05-03T13:57:15Z</time>
      </trkpt>
      <trkpt lat="49.87175" lon="1.98905">
        <ele>111.3</ele>
        <time>2023-05-03T13:57:16Z</time>
      </trkpt>
      <trkpt lat="49.87174" lon="1.98906">
        <ele>111.3</ele>
        <time>2023-05-03T13:57:17Z</time>
      </trkpt>
      <trkpt lat="49.87173" lon="1.98907">
        <ele>111.6</ele>
        <time>2023-05-03T13:57:19Z</time>
      </trkpt>
      <trkpt lat="49.87172" lon="1.98908">
        <ele>111.6</ele>
        <time>2023-05-03T13:57:20Z</time>
      </trkpt>
      <trkpt lat="49.87172" lon="1.98908">
        <ele>111.6</ele>
        <time>2023-05-03T13:57:21Z</time>
      </trkpt>
      <trkpt lat="49.87172" lon="1.98909">
        <ele>111.7</ele>
        <time>2023-05-03T13:57:22Z</time>
      </trkpt>
      <trkpt lat="49.87171" lon="1.9891">
        <ele>112</ele>
        <time>2023-05-03T13:57:24Z</time>
      </trkpt>
      <trkpt lat="49.8717" lon="1.98911">
        <ele>112</ele>
        <time>2023-05-03T13:57:25Z</time>
      </trkpt>
      <trkpt lat="49.8717" lon="1.98911">
        <ele>112</ele>
        <time>2023-05-03T13:57:26Z</time>
      </trkpt>
      <trkpt lat="49.87169" lon="1.98912">
        <ele>112</ele>
        <time>2023-05-03T13:57:27Z</time>
      </trkpt>
      <trkpt lat="49.87168" lon="1.98913">
        <ele>112.4</ele>
        <time>2023-05-03T13:57:28Z</time>
      </trkpt>
      <trkpt lat="49.87168" lon="1.98913">
        <ele>112.4</ele>
        <time>2023-05-03T13:57:29Z</time>
      </trkpt>
      <trkpt lat="49.87167" lon="1.98914">
        <ele>112.4</ele>
        <time>2023-05-03T13:57:30Z</time>
      </trkpt>
      <trkpt lat="49.87166" lon="1.98915">
        <ele>112.4</ele>
        <time>2023-05-03T13:57:32Z</time>
      </trkpt>
      <trkpt lat="49.87166" lon="1.98917">
        <ele>112.8</ele>
        <time>2023-05-03T13:57:33Z</time>
      </trkpt>
      <trkpt lat="49.87165" lon="1.98919">
        <ele>112.8</ele>
        <time>2023-05-03T13:57:34Z</time>
      </trkpt>
      <trkpt lat="49.87165" lon="1.98923">
        <ele>112.9</ele>
        <time>2023-05-03T13:57:36Z</time>
      </trkpt>
      <trkpt lat="49.87164" lon="1.98924">
        <ele>112.9</ele>
        <time>2023-05-03T13:57:38Z</time>
      </trkpt>
      <trkpt lat="49.87164" lon="1.98926">
        <ele>113</ele>
        <time>2023-05-03T13:57:39Z</time>
      </trkpt>
      <trkpt lat="49.87163" lon="1.98927">
        <ele>113</ele>
        <time>2023-05-03T13:57:40Z</time>
      </trkpt>
      <trkpt lat="49.87163" lon="1.98928">
        <ele>113.3</ele>
        <time>2023-05-03T13:57:41Z</time>
      </trkpt>
      <trkpt lat="49.87162" lon="1.98929">
        <ele>113.3</ele>
        <time>2023-05-03T13:57:42Z</time>
      </trkpt>
      <trkpt lat="49.87161" lon="1.98931">
        <ele>113.4</ele>
        <time>2023-05-03T13:57:44Z</time>
      </trkpt>
      <trkpt lat="49.8716" lon="1.98932">
        <ele>113.6</ele>
        <time>2023-05-03T13:57:45Z</time>
      </trkpt>
      <trkpt lat="49.87159" lon="1.98933">
        <ele>113.6</ele>
        <time>2023-05-03T13:57:46Z</time>
      </trkpt>
      <trkpt lat="49.87158" lon="1.98934">
        <ele>113.6</ele>
        <time>2023-05-03T13:57:47Z</time>
      </trkpt>
      <trkpt lat="49.87157" lon="1.98935">
        <ele>114</ele>
        <time>2023-05-03T13:57:48Z</time>
      </trkpt>
      <trkpt lat="49.87156" lon="1.98936">
        <ele>114</ele>
        <time>2023-05-03T13:57:50Z</time>
      </trkpt>
      <trkpt lat="49.87156" lon="1.98937">
        <ele>114</ele>
        <time>2023-05-03T13:57:51Z</time>
      </trkpt>
      <trkpt lat="49.87155" lon="1.98938">
        <ele>114</ele>
        <time>2023-05-03T13:57:52Z</time>
      </trkpt>
      <trkpt lat="49.87154" lon="1.98939">
        <ele>114.3</ele>
        <time>2023-05-03T13:57:53Z</time>
      </trkpt>
      <trkpt lat="49.87154" lon="1.9894">
        <ele>114.3</ele>
        <time>2023-05-03T13:57:54Z</time>
      </trkpt>
      <trkpt lat="49.87153" lon="1.98941">
        <ele>114.3</ele>
        <time>2023-05-03T13:57:55Z</time>
      </trkpt>
      <trkpt lat="49.87152" lon="1.98942">
        <ele>114.3</ele>
        <time>2023-05-03T13:57:57Z</time>
      </trkpt>
      <trkpt lat="49.87152" lon="1.98943">
        <ele>114.6</ele>
        <time>2023-05-03T13:57:58Z</time>
      </trkpt>
      <trkpt lat="49.87151" lon="1.98944">
        <ele>114.6</ele>
        <time>2023-05-03T13:57:59Z</time>
      </trkpt>
      <trkpt lat="49.87151" lon="1.98945">
        <ele>114.6</ele>
        <time>2023-05-03T13:58:00Z</time>
      </trkpt>
      <trkpt lat="49.8715" lon="1.98946">
        <ele>114.6</ele>
        <time>2023-05-03T13:58:01Z</time>
      </trkpt>
      <trkpt lat="49.87149" lon="1.98947">
        <ele>114.9</ele>
        <time>2023-05-03T13:58:02Z</time>
      </trkpt>
      <trkpt lat="49.87148" lon="1.98948">
        <ele>114.9</ele>
        <time>2023-05-03T13:58:03Z</time>
      </trkpt>
      <trkpt lat="49.87148" lon="1.98949">
        <ele>114.9</ele>
        <time>2023-05-03T13:58:05Z</time>
      </trkpt>
      <trkpt lat="49.87147" lon="1.9895">
        <ele>114.9</ele>
        <time>2023-05-03T13:58:06Z</time>
      </trkpt>
      <trkpt lat="49.87146" lon="1.98951">
        <ele>114.9</ele>
        <time>2023-05-03T13:58:07Z</time>
      </trkpt>
      <trkpt lat="49.87145" lon="1.98952">
        <ele>115.2</ele>
        <time>2023-05-03T13:58:09Z</time>
      </trkpt>
      <trkpt lat="49.87144" lon="1.98952">
        <ele>115.2</ele>
        <time>2023-05-03T13:58:11Z</time>
      </trkpt>
      <trkpt lat="49.87144" lon="1.98953">
        <ele>115.2</ele>
        <time>2023-05-03T13:58:12Z</time>
      </trkpt>
      <trkpt lat="49.87143" lon="1.98954">
        <ele>115.4</ele>
        <time>2023-05-03T13:58:13Z</time>
      </trkpt>
      <trkpt lat="49.87143" lon="1.98955">
        <ele>115.4</ele>
        <time>2023-05-03T13:58:14Z</time>
      </trkpt>
      <trkpt lat="49.87142" lon="1.98956">
        <ele>115.5</ele>
        <time>2023-05-03T13:58:15Z</time>
      </trkpt>
      <trkpt lat="49.87142" lon="1.98957">
        <ele>115.5</ele>
        <time>2023-05-03T13:58:16Z</time>
      </trkpt>
      <trkpt lat="49.87141" lon="1.98957">
        <ele>115.5</ele>
        <time>2023-05-03T13:58:18Z</time>
      </trkpt>
      <trkpt lat="49.8714" lon="1.98957">
        <ele>115.7</ele>
        <time>2023-05-03T13:58:19Z</time>
      </trkpt>
      <trkpt lat="49.87139" lon="1.98956">
        <ele>115.7</ele>
        <time>2023-05-03T13:58:21Z</time>
      </trkpt>
      <trkpt lat="49.87138" lon="1.98956">
        <ele>115.9</ele>
        <time>2023-05-03T13:58:23Z</time>
      </trkpt>
      <trkpt lat="49.87137" lon="1.98957">
        <ele>115.9</ele>
        <time>2023-05-03T13:58:25Z</time>
      </trkpt>
      <trkpt lat="49.87136" lon="1.98957">
        <ele>115.9</ele>
        <time>2023-05-03T13:58:26Z</time>
      </trkpt>
      <trkpt lat="49.87136" lon="1.98956">
        <ele>115.9</ele>
        <time>2023-05-03T13:58:27Z</time>
      </trkpt>
      <trkpt lat="49.87135" lon="1.98956">
        <ele>115.9</ele>
        <time>2023-05-03T13:58:29Z</time>
      </trkpt>
      <trkpt lat="49.87135" lon="1.98956">
        <ele>115.9</ele>
        <time>2023-05-03T13:58:30Z</time>
      </trkpt>
      <trkpt lat="49.87135" lon="1.98956">
        <ele>115.9</ele>
        <time>2023-05-03T13:58:31Z</time>
      </trkpt>
      <trkpt lat="49.87135" lon="1.98956">
        <ele>115.9</ele>
        <time>2023-05-03T13:58:32Z</time>
      </trkpt>
      <trkpt lat="49.87135" lon="1.98956">
        <ele>115.9</ele>
        <time>2023-05-03T13:58:33Z</time>
      </trkpt>
      <trkpt lat="49.87135" lon="1.98956">
        <ele>116.1</ele>
        <time>2023-05-03T13:58:34Z</time>
      </trkpt>
      <trkpt lat="49.87135" lon="1.98956">
        <ele>116.1</ele>
        <time>2023-05-03T13:58:36Z</time>
      </trkpt>
      <trkpt lat="49.87135" lon="1.98956">
        <ele>116</ele>
        <time>2023-05-03T13:58:38Z</time>
      </trkpt>
      <trkpt lat="49.87135" lon="1.98956">
        <ele>116</ele>
        <time>2023-05-03T13:58:40Z</time>
      </trkpt>
      <trkpt lat="49.87135" lon="1.98955">
        <ele>116</ele>
        <time>2023-05-03T13:58:41Z</time>
      </trkpt>
      <trkpt lat="49.87135" lon="1.98955">
        <ele>116</ele>
        <time>2023-05-03T13:58:42Z</time>
      </trkpt>
      <trkpt lat="49.87135" lon="1.98955">
        <ele>116</ele>
        <time>2023-05-03T13:58:44Z</time>
      </trkpt>
      <trkpt lat="49.87135" lon="1.98955">
        <ele>116</ele>
        <time>2023-05-03T13:58:45Z</time>
      </trkpt>
      <trkpt lat="49.87135" lon="1.98955">
        <ele>116</ele>
        <time>2023-05-03T13:58:46Z</time>
      </trkpt>
      <trkpt lat="49.87135" lon="1.98955">
        <ele>116</ele>
        <time>2023-05-03T13:58:48Z</time>
      </trkpt>
      <trkpt lat="49.87135" lon="1.98955">
        <ele>116</ele>
        <time>2023-05-03T13:58:49Z</time>
      </trkpt>
      <trkpt lat="49.87135" lon="1.98955">
        <ele>116</ele>
        <time>2023-05-03T13:58:51Z</time>
      </trkpt>
      <trkpt lat="49.87135" lon="1.98955">
        <ele>116</ele>
        <time>2023-05-03T13:58:52Z</time>
      </trkpt>
      <trkpt lat="49.87135" lon="1.98955">
        <ele>116</ele>
        <time>2023-05-03T13:58:53Z</time>
      </trkpt>
      <trkpt lat="49.87135" lon="1.98955">
        <ele>116</ele>
        <time>2023-05-03T13:58:55Z</time>
      </trkpt>
      <trkpt lat="49.87135" lon="1.98955">
        <ele>116</ele>
        <time>2023-05-03T13:58:56Z</time>
      </trkpt>
      <trkpt lat="49.87135" lon="1.98955">
        <ele>116</ele>
        <time>2023-05-03T13:58:57Z</time>
      </trkpt>
      <trkpt lat="49.87135" lon="1.98955">
        <ele>116</ele>
        <time>2023-05-03T13:58:58Z</time>
      </trkpt>
      <trkpt lat="49.87135" lon="1.98955">
        <ele>116</ele>
        <time>2023-05-03T13:58:59Z</time>
      </trkpt>
      <trkpt lat="49.87134" lon="1.98955">
        <ele>116</ele>
        <time>2023-05-03T13:59:00Z</time>
      </trkpt>
      <trkpt lat="49.87134" lon="1.98955">
        <ele>116</ele>
        <time>2023-05-03T13:59:01Z</time>
      </trkpt>
      <trkpt lat="49.87134" lon="1.98955">
        <ele>116</ele>
        <time>2023-05-03T13:59:02Z</time>
      </trkpt>
      <trkpt lat="49.87134" lon="1.98955">
        <ele>116</ele>
        <time>2023-05-03T13:59:03Z</time>
      </trkpt>
      <trkpt lat="49.87134" lon="1.98955">
        <ele>116</ele>
        <time>2023-05-03T13:59:04Z</time>
      </trkpt>
      <trkpt lat="49.87134" lon="1.98955">
        <ele>116</ele>
        <time>2023-05-03T13:59:05Z</time>
      </trkpt>
      <trkpt lat="49.87134" lon="1.98955">
        <ele>116</ele>
        <time>2023-05-03T13:59:06Z</time>
      </trkpt>
      <trkpt lat="49.87134" lon="1.98954">
        <ele>116</ele>
        <time>2023-05-03T13:59:07Z</time>
      </trkpt>
      <trkpt lat="49.87134" lon="1.98954">
        <ele>116</ele>
        <time>2023-05-03T13:59:08Z</time>
      </trkpt>
      <trkpt lat="49.87134" lon="1.98954">
        <ele>116</ele>
        <time>2023-05-03T13:59:09Z</time>
      </trkpt>
      <trkpt lat="49.87134" lon="1.98954">
        <ele>116</ele>
        <time>2023-05-03T13:59:10Z</time>
      </trkpt>
      <trkpt lat="49.87134" lon="1.98954">
        <ele>116</ele>
        <time>2023-05-03T13:59:11Z</time>
      </trkpt>
      <trkpt lat="49.87134" lon="1.98954">
        <ele>116</ele>
        <time>2023-05-03T13:59:12Z</time>
      </trkpt>
      <trkpt lat="49.87134" lon="1.98954">
        <ele>116</ele>
        <time>2023-05-03T13:59:13Z</time>
      </trkpt>
      <trkpt lat="49.87134" lon="1.98954">
        <ele>116</ele>
        <time>2023-05-03T13:59:14Z</time>
      </trkpt>
      <trkpt lat="49.87134" lon="1.98954">
        <ele>115.9</ele>
        <time>2023-05-03T13:59:15Z</time>
      </trkpt>
      <trkpt lat="49.87134" lon="1.98954">
        <ele>115.9</ele>
        <time>2023-05-03T13:59:16Z</time>
      </trkpt>
      <trkpt lat="49.87134" lon="1.98954">
        <ele>115.9</ele>
        <time>2023-05-03T13:59:17Z</time>
      </trkpt>
      <trkpt lat="49.87134" lon="1.98954">
        <ele>115.9</ele>
        <time>2023-05-03T13:59:18Z</time>
      </trkpt>
      <trkpt lat="49.87134" lon="1.98954">
        <ele>115.9</ele>
        <time>2023-05-03T13:59:19Z</time>
      </trkpt>
      <trkpt lat="49.87134" lon="1.98954">
        <ele>115.9</ele>
        <time>2023-05-03T13:59:20Z</time>
      </trkpt>
      <trkpt lat="49.87134" lon="1.98954">
        <ele>115.9</ele>
        <time>2023-05-03T13:59:21Z</time>
      </trkpt>
      <trkpt lat="49.87134" lon="1.98954">
        <ele>115.9</ele>
        <time>2023-05-03T13:59:22Z</time>
      </trkpt>
      <trkpt lat="49.87134" lon="1.98954">
        <ele>115.9</ele>
        <time>2023-05-03T13:59:23Z</time>
      </trkpt>
      <trkpt lat="49.87134" lon="1.98954">
        <ele>115.9</ele>
        <time>2023-05-03T13:59:24Z</time>
      </trkpt>
      <trkpt lat="49.87134" lon="1.98954">
        <ele>115.9</ele>
        <time>2023-05-03T13:59:25Z</time>
      </trkpt>
      <trkpt lat="49.87134" lon="1.98954">
        <ele>115.9</ele>
        <time>2023-05-03T13:59:26Z</time>
      </trkpt>
      <trkpt lat="49.87134" lon="1.98954">
        <ele>115.9</ele>
        <time>2023-05-03T13:59:27Z</time>
      </trkpt>
      <trkpt lat="49.87134" lon="1.98954">
        <ele>115.9</ele>
        <time>2023-05-03T13:59:28Z</time>
      </trkpt>
      <trkpt lat="49.87134" lon="1.98953">
        <ele>115.9</ele>
        <time>2023-05-03T13:59:29Z</time>
      </trkpt>
      <trkpt lat="49.87134" lon="1.98953">
        <ele>115.9</ele>
        <time>2023-05-03T13:59:30Z</time>
      </trkpt>
      <trkpt lat="49.87133" lon="1.98953">
        <ele>115.9</ele>
        <time>2023-05-03T13:59:31Z</time>
      </trkpt>
      <trkpt lat="49.87133" lon="1.98953">
        <ele>115.8</ele>
        <time>2023-05-03T13:59:32Z</time>
      </trkpt>
      <trkpt lat="49.87133" lon="1.98953">
        <ele>115.8</ele>
        <time>2023-05-03T13:59:33Z</time>
      </trkpt>
      <trkpt lat="49.87133" lon="1.98953">
        <ele>115.8</ele>
        <time>2023-05-03T13:59:34Z</time>
      </trkpt>
      <trkpt lat="49.87133" lon="1.98953">
        <ele>115.8</ele>
        <time>2023-05-03T13:59:35Z</time>
      </trkpt>
      <trkpt lat="49.87133" lon="1.98953">
        <ele>115.8</ele>
        <time>2023-05-03T13:59:36Z</time>
      </trkpt>
      <trkpt lat="49.87133" lon="1.98953">
        <ele>115.8</ele>
        <time>2023-05-03T13:59:37Z</time>
      </trkpt>
      <trkpt lat="49.87133" lon="1.98953">
        <ele>115.8</ele>
        <time>2023-05-03T13:59:38Z</time>
      </trkpt>
      <trkpt lat="49.87133" lon="1.98953">
        <ele>115.8</ele>
        <time>2023-05-03T13:59:39Z</time>
      </trkpt>
      <trkpt lat="49.87133" lon="1.98953">
        <ele>115.8</ele>
        <time>2023-05-03T13:59:40Z</time>
      </trkpt>
      <trkpt lat="49.87133" lon="1.98953">
        <ele>115.8</ele>
        <time>2023-05-03T13:59:41Z</time>
      </trkpt>
      <trkpt lat="49.87133" lon="1.98953">
        <ele>115.8</ele>
        <time>2023-05-03T13:59:42Z</time>
      </trkpt>
      <trkpt lat="49.87133" lon="1.98953">
        <ele>115.8</ele>
        <time>2023-05-03T13:59:43Z</time>
      </trkpt>
      <trkpt lat="49.87133" lon="1.98953">
        <ele>115.8</ele>
        <time>2023-05-03T13:59:44Z</time>
      </trkpt>
      <trkpt lat="49.87133" lon="1.98953">
        <ele>115.8</ele>
        <time>2023-05-03T13:59:45Z</time>
      </trkpt>
      <trkpt lat="49.87133" lon="1.98953">
        <ele>115.8</ele>
        <time>2023-05-03T13:59:46Z</time>
      </trkpt>
      <trkpt lat="49.87133" lon="1.98953">
        <ele>115.8</ele>
        <time>2023-05-03T13:59:47Z</time>
      </trkpt>
      <trkpt lat="49.87133" lon="1.98953">
        <ele>115.7</ele>
        <time>2023-05-03T13:59:48Z</time>
      </trkpt>
      <trkpt lat="49.87133" lon="1.98953">
        <ele>115.7</ele>
        <time>2023-05-03T13:59:49Z</time>
      </trkpt>
      <trkpt lat="49.87133" lon="1.98953">
        <ele>115.7</ele>
        <time>2023-05-03T13:59:50Z</time>
      </trkpt>
      <trkpt lat="49.87133" lon="1.98953">
        <ele>115.7</ele>
        <time>2023-05-03T13:59:51Z</time>
      </trkpt>
      <trkpt lat="49.87133" lon="1.98952">
        <ele>115.7</ele>
        <time>2023-05-03T13:59:52Z</time>
      </trkpt>
      <trkpt lat="49.87133" lon="1.98952">
        <ele>115.7</ele>
        <time>2023-05-03T13:59:53Z</time>
      </trkpt>
      <trkpt lat="49.87133" lon="1.98952">
        <ele>115.7</ele>
        <time>2023-05-03T13:59:54Z</time>
      </trkpt>
      <trkpt lat="49.87133" lon="1.98952">
        <ele>115.7</ele>
        <time>2023-05-03T13:59:55Z</time>
      </trkpt>
      <trkpt lat="49.87133" lon="1.98952">
        <ele>115.7</ele>
        <time>2023-05-03T13:59:56Z</time>
      </trkpt>
      <trkpt lat="49.87133" lon="1.98952">
        <ele>115.7</ele>
        <time>2023-05-03T13:59:57Z</time>
      </trkpt>
      <trkpt lat="49.87133" lon="1.98952">
        <ele>115.7</ele>
        <time>2023-05-03T13:59:58Z</time>
      </trkpt>
      <trkpt lat="49.87133" lon="1.98952">
        <ele>115.7</ele>
        <time>2023-05-03T13:59:59Z</time>
      </trkpt>
      <trkpt lat="49.87133" lon="1.98952">
        <ele>115.7</ele>
        <time>2023-05-03T14:00:00Z</time>
      </trkpt>
      <trkpt lat="49.87133" lon="1.98952">
        <ele>115.7</ele>
        <time>2023-05-03T14:00:01Z</time>
      </trkpt>
      <trkpt lat="49.87132" lon="1.98952">
        <ele>115.7</ele>
        <time>2023-05-03T14:00:02Z</time>
      </trkpt>
      <trkpt lat="49.87132" lon="1.98952">
        <ele>115.7</ele>
        <time>2023-05-03T14:00:03Z</time>
      </trkpt>
      <trkpt lat="49.87132" lon="1.98952">
        <ele>115.7</ele>
        <time>2023-05-03T14:00:04Z</time>
      </trkpt>
      <trkpt lat="49.87132" lon="1.98952">
        <ele>115.6</ele>
        <time>2023-05-03T14:00:05Z</time>
      </trkpt>
      <trkpt lat="49.87132" lon="1.98952">
        <ele>115.7</ele>
        <time>2023-05-03T14:00:06Z</time>
      </trkpt>
      <trkpt lat="49.87132" lon="1.98952">
        <ele>115.7</ele>
        <time>2023-05-03T14:00:07Z</time>
      </trkpt>
      <trkpt lat="49.87132" lon="1.98952">
        <ele>115.7</ele>
        <time>2023-05-03T14:00:08Z</time>
      </trkpt>
      <trkpt lat="49.87132" lon="1.98952">
        <ele>115.7</ele>
        <time>2023-05-03T14:00:09Z</time>
      </trkpt>
      <trkpt lat="49.87132" lon="1.98952">
        <ele>115.7</ele>
        <time>2023-05-03T14:00:10Z</time>
      </trkpt>
      <trkpt lat="49.87132" lon="1.98952">
        <ele>115.7</ele>
        <time>2023-05-03T14:00:11Z</time>
      </trkpt>
      <trkpt lat="49.87132" lon="1.98952">
        <ele>115.7</ele>
        <time>2023-05-03T14:00:12Z</time>
      </trkpt>
      <trkpt lat="49.87132" lon="1.98952">
        <ele>115.7</ele>
        <time>2023-05-03T14:00:13Z</time>
      </trkpt>
      <trkpt lat="49.87132" lon="1.98951">
        <ele>115.7</ele>
        <time>2023-05-03T14:00:14Z</time>
      </trkpt>
      <trkpt lat="49.87132" lon="1.98951">
        <ele>115.7</ele>
        <time>2023-05-03T14:00:15Z</time>
      </trkpt>
      <trkpt lat="49.87132" lon="1.98951">
        <ele>115.7</ele>
        <time>2023-05-03T14:00:16Z</time>
      </trkpt>
      <trkpt lat="49.87132" lon="1.98951">
        <ele>115.7</ele>
        <time>2023-05-03T14:00:17Z</time>
      </trkpt>
      <trkpt lat="49.87132" lon="1.98951">
        <ele>115.6</ele>
        <time>2023-05-03T14:00:18Z</time>
      </trkpt>
      <trkpt lat="49.87132" lon="1.98951">
        <ele>115.6</ele>
        <time>2023-05-03T14:00:19Z</time>
      </trkpt>
      <trkpt lat="49.87132" lon="1.98951">
        <ele>115.6</ele>
        <time>2023-05-03T14:00:20Z</time>
      </trkpt>
      <trkpt lat="49.87132" lon="1.98951">
        <ele>115.6</ele>
        <time>2023-05-03T14:00:21Z</time>
      </trkpt>
      <trkpt lat="49.87132" lon="1.98951">
        <ele>115.5</ele>
        <time>2023-05-03T14:00:22Z</time>
      </trkpt>
      <trkpt lat="49.87132" lon="1.98951">
        <ele>115.5</ele>
        <time>2023-05-03T14:00:23Z</time>
      </trkpt>
      <trkpt lat="49.87132" lon="1.98951">
        <ele>115.5</ele>
        <time>2023-05-03T14:00:24Z</time>
      </trkpt>
      <trkpt lat="49.87132" lon="1.98951">
        <ele>115.5</ele>
        <time>2023-05-03T14:00:25Z</time>
      </trkpt>
      <trkpt lat="49.87132" lon="1.98951">
        <ele>115.5</ele>
        <time>2023-05-03T14:00:26Z</time>
      </trkpt>
      <trkpt lat="49.87132" lon="1.98951">
        <ele>115.5</ele>
        <time>2023-05-03T14:00:27Z</time>
      </trkpt>
      <trkpt lat="49.87132" lon="1.98951">
        <ele>115.5</ele>
        <time>2023-05-03T14:00:28Z</time>
      </trkpt>
      <trkpt lat="49.87132" lon="1.98951">
        <ele>115.5</ele>
        <time>2023-05-03T14:00:29Z</time>
      </trkpt>
      <trkpt lat="49.87132" lon="1.98951">
        <ele>115.5</ele>
        <time>2023-05-03T14:00:30Z</time>
      </trkpt>
      <trkpt lat="49.87132" lon="1.98951">
        <ele>115.5</ele>
        <time>2023-05-03T14:00:31Z</time>
      </trkpt>
      <trkpt lat="49.87132" lon="1.98951">
        <ele>115.5</ele>
        <time>2023-05-03T14:00:32Z</time>
      </trkpt>
      <trkpt lat="49.87132" lon="1.98951">
        <ele>115.5</ele>
        <time>2023-05-03T14:00:33Z</time>
      </trkpt>
      <trkpt lat="49.87131" lon="1.98951">
        <ele>115.5</ele>
        <time>2023-05-03T14:00:34Z</time>
      </trkpt>
      <trkpt lat="49.87131" lon="1.98951">
        <ele>115.5</ele>
        <time>2023-05-03T14:00:35Z</time>
      </trkpt>
      <trkpt lat="49.87131" lon="1.9895">
        <ele>115.5</ele>
        <time>2023-05-03T14:00:36Z</time>
      </trkpt>
      <trkpt lat="49.87131" lon="1.9895">
        <ele>115.5</ele>
        <time>2023-05-03T14:00:37Z</time>
      </trkpt>
      <trkpt lat="49.87131" lon="1.9895">
        <ele>115.4</ele>
        <time>2023-05-03T14:00:38Z</time>
      </trkpt>
      <trkpt lat="49.87131" lon="1.9895">
        <ele>115.4</ele>
        <time>2023-05-03T14:00:39Z</time>
      </trkpt>
      <trkpt lat="49.87131" lon="1.9895">
        <ele>115.4</ele>
        <time>2023-05-03T14:00:40Z</time>
      </trkpt>
      <trkpt lat="49.87131" lon="1.9895">
        <ele>115.4</ele>
        <time>2023-05-03T14:00:41Z</time>
      </trkpt>
      <trkpt lat="49.87131" lon="1.9895">
        <ele>115.4</ele>
        <time>2023-05-03T14:00:42Z</time>
      </trkpt>
      <trkpt lat="49.87131" lon="1.9895">
        <ele>115.4</ele>
        <time>2023-05-03T14:00:43Z</time>
      </trkpt>
      <trkpt lat="49.87131" lon="1.9895">
        <ele>115.4</ele>
        <time>2023-05-03T14:00:44Z</time>
      </trkpt>
      <trkpt lat="49.87131" lon="1.9895">
        <ele>115.4</ele>
        <time>2023-05-03T14:00:45Z</time>
      </trkpt>
      <trkpt lat="49.87131" lon="1.9895">
        <ele>115.4</ele>
        <time>2023-05-03T14:00:46Z</time>
      </trkpt>
      <trkpt lat="49.87131" lon="1.9895">
        <ele>115.4</ele>
        <time>2023-05-03T14:00:47Z</time>
      </trkpt>
      <trkpt lat="49.87131" lon="1.9895">
        <ele>115.4</ele>
        <time>2023-05-03T14:00:48Z</time>
      </trkpt>
      <trkpt lat="49.87131" lon="1.9895">
        <ele>115.4</ele>
        <time>2023-05-03T14:00:49Z</time>
      </trkpt>
      <trkpt lat="49.87131" lon="1.9895">
        <ele>115.4</ele>
        <time>2023-05-03T14:00:50Z</time>
      </trkpt>
      <trkpt lat="49.87131" lon="1.9895">
        <ele>115.4</ele>
        <time>2023-05-03T14:00:51Z</time>
      </trkpt>
      <trkpt lat="49.87131" lon="1.9895">
        <ele>115.4</ele>
        <time>2023-05-03T14:00:52Z</time>
      </trkpt>
      <trkpt lat="49.87131" lon="1.9895">
        <ele>115.4</ele>
        <time>2023-05-03T14:00:53Z</time>
      </trkpt>
      <trkpt lat="49.87131" lon="1.9895">
        <ele>115.4</ele>
        <time>2023-05-03T14:00:54Z</time>
      </trkpt>
      <trkpt lat="49.87131" lon="1.9895">
        <ele>115.4</ele>
        <time>2023-05-03T14:00:55Z</time>
      </trkpt>
      <trkpt lat="49.8713" lon="1.98949">
        <ele>115.4</ele>
        <time>2023-05-03T14:00:56Z</time>
      </trkpt>
      <trkpt lat="49.87128" lon="1.98952">
        <ele>115.7</ele>
        <time>2023-05-03T14:00:57Z</time>
      </trkpt>
      <trkpt lat="49.87127" lon="1.98954">
        <ele>115.7</ele>
        <time>2023-05-03T14:00:58Z</time>
      </trkpt>
      <trkpt lat="49.87126" lon="1.98956">
        <ele>116</ele>
        <time>2023-05-03T14:00:59Z</time>
      </trkpt>
      <trkpt lat="49.87124" lon="1.98958">
        <ele>116</ele>
        <time>2023-05-03T14:01:01Z</time>
      </trkpt>
      <trkpt lat="49.87123" lon="1.98959">
        <ele>116.1</ele>
        <time>2023-05-03T14:01:02Z</time>
      </trkpt>
      <trkpt lat="49.87122" lon="1.9896">
        <ele>116.2</ele>
        <time>2023-05-03T14:01:03Z</time>
      </trkpt>
      <trkpt lat="49.87121" lon="1.98961">
        <ele>116.4</ele>
        <time>2023-05-03T14:01:04Z</time>
      </trkpt>
      <trkpt lat="49.8712" lon="1.98963">
        <ele>116.4</ele>
        <time>2023-05-03T14:01:06Z</time>
      </trkpt>
      <trkpt lat="49.87119" lon="1.98964">
        <ele>116.4</ele>
        <time>2023-05-03T14:01:07Z</time>
      </trkpt>
      <trkpt lat="49.87118" lon="1.98965">
        <ele>116.6</ele>
        <time>2023-05-03T14:01:08Z</time>
      </trkpt>
      <trkpt lat="49.87117" lon="1.98965">
        <ele>116.6</ele>
        <time>2023-05-03T14:01:09Z</time>
      </trkpt>
      <trkpt lat="49.87116" lon="1.98966">
        <ele>116.6</ele>
        <time>2023-05-03T14:01:10Z</time>
      </trkpt>
      <trkpt lat="49.87116" lon="1.98967">
        <ele>116.7</ele>
        <time>2023-05-03T14:01:11Z</time>
      </trkpt>
      <trkpt lat="49.87115" lon="1.98968">
        <ele>116.7</ele>
        <time>2023-05-03T14:01:12Z</time>
      </trkpt>
      <trkpt lat="49.87115" lon="1.98969">
        <ele>116.8</ele>
        <time>2023-05-03T14:01:13Z</time>
      </trkpt>
      <trkpt lat="49.87114" lon="1.9897">
        <ele>116.8</ele>
        <time>2023-05-03T14:01:15Z</time>
      </trkpt>
      <trkpt lat="49.87113" lon="1.98971">
        <ele>117</ele>
        <time>2023-05-03T14:01:16Z</time>
      </trkpt>
      <trkpt lat="49.87113" lon="1.98972">
        <ele>117</ele>
        <time>2023-05-03T14:01:17Z</time>
      </trkpt>
      <trkpt lat="49.87112" lon="1.98973">
        <ele>117.1</ele>
        <time>2023-05-03T14:01:18Z</time>
      </trkpt>
      <trkpt lat="49.87111" lon="1.98974">
        <ele>117.1</ele>
        <time>2023-05-03T14:01:19Z</time>
      </trkpt>
      <trkpt lat="49.87112" lon="1.98976">
        <ele>117.1</ele>
        <time>2023-05-03T14:01:20Z</time>
      </trkpt>
      <trkpt lat="49.87111" lon="1.98977">
        <ele>117.2</ele>
        <time>2023-05-03T14:01:22Z</time>
      </trkpt>
      <trkpt lat="49.87111" lon="1.98978">
        <ele>117.2</ele>
        <time>2023-05-03T14:01:23Z</time>
      </trkpt>
      <trkpt lat="49.8711" lon="1.98979">
        <ele>117.2</ele>
        <time>2023-05-03T14:01:24Z</time>
      </trkpt>
      <trkpt lat="49.8711" lon="1.9898">
        <ele>117.3</ele>
        <time>2023-05-03T14:01:25Z</time>
      </trkpt>
      <trkpt lat="49.87109" lon="1.9898">
        <ele>117.3</ele>
        <time>2023-05-03T14:01:26Z</time>
      </trkpt>
      <trkpt lat="49.87108" lon="1.98981">
        <ele>117.3</ele>
        <time>2023-05-03T14:01:28Z</time>
      </trkpt>
      <trkpt lat="49.87108" lon="1.98981">
        <ele>117.4</ele>
        <time>2023-05-03T14:01:29Z</time>
      </trkpt>
      <trkpt lat="49.87107" lon="1.98981">
        <ele>117.5</ele>
        <time>2023-05-03T14:01:30Z</time>
      </trkpt>
      <trkpt lat="49.87107" lon="1.98982">
        <ele>117.5</ele>
        <time>2023-05-03T14:01:32Z</time>
      </trkpt>
      <trkpt lat="49.87107" lon="1.98982">
        <ele>117.5</ele>
        <time>2023-05-03T14:01:33Z</time>
      </trkpt>
      <trkpt lat="49.87107" lon="1.98983">
        <ele>117.5</ele>
        <time>2023-05-03T14:01:35Z</time>
      </trkpt>
      <trkpt lat="49.87107" lon="1.98984">
        <ele>117.5</ele>
        <time>2023-05-03T14:01:36Z</time>
      </trkpt>
      <trkpt lat="49.87107" lon="1.98984">
        <ele>117.5</ele>
        <time>2023-05-03T14:01:38Z</time>
      </trkpt>
      <trkpt lat="49.87106" lon="1.98984">
        <ele>117.5</ele>
        <time>2023-05-03T14:01:39Z</time>
      </trkpt>
      <trkpt lat="49.87106" lon="1.98985">
        <ele>117.5</ele>
        <time>2023-05-03T14:01:41Z</time>
      </trkpt>
      <trkpt lat="49.87105" lon="1.98985">
        <ele>117.5</ele>
        <time>2023-05-03T14:01:42Z</time>
      </trkpt>
      <trkpt lat="49.87105" lon="1.98986">
        <ele>117.5</ele>
        <time>2023-05-03T14:01:43Z</time>
      </trkpt>
      <trkpt lat="49.87104" lon="1.98986">
        <ele>117.7</ele>
        <time>2023-05-03T14:01:44Z</time>
      </trkpt>
      <trkpt lat="49.87103" lon="1.98987">
        <ele>117.7</ele>
        <time>2023-05-03T14:01:46Z</time>
      </trkpt>
      <trkpt lat="49.87102" lon="1.98989">
        <ele>117.9</ele>
        <time>2023-05-03T14:01:47Z</time>
      </trkpt>
      <trkpt lat="49.87101" lon="1.9899">
        <ele>118</ele>
        <time>2023-05-03T14:01:49Z</time>
      </trkpt>
      <trkpt lat="49.871" lon="1.98991">
        <ele>118</ele>
        <time>2023-05-03T14:01:50Z</time>
      </trkpt>
      <trkpt lat="49.87099" lon="1.98992">
        <ele>118</ele>
        <time>2023-05-03T14:01:51Z</time>
      </trkpt>
      <trkpt lat="49.87098" lon="1.98994">
        <ele>118.1</ele>
        <time>2023-05-03T14:01:52Z</time>
      </trkpt>
      <trkpt lat="49.87097" lon="1.98995">
        <ele>118.2</ele>
        <time>2023-05-03T14:01:53Z</time>
      </trkpt>
      <trkpt lat="49.87097" lon="1.98996">
        <ele>118.2</ele>
        <time>2023-05-03T14:01:55Z</time>
      </trkpt>
      <trkpt lat="49.87096" lon="1.98997">
        <ele>118.3</ele>
        <time>2023-05-03T14:01:56Z</time>
      </trkpt>
      <trkpt lat="49.87096" lon="1.98998">
        <ele>118.3</ele>
        <time>2023-05-03T14:01:57Z</time>
      </trkpt>
      <trkpt lat="49.87095" lon="1.99">
        <ele>118.4</ele>
        <time>2023-05-03T14:01:58Z</time>
      </trkpt>
      <trkpt lat="49.87095" lon="1.99001">
        <ele>118.4</ele>
        <time>2023-05-03T14:01:59Z</time>
      </trkpt>
      <trkpt lat="49.87093" lon="1.99003">
        <ele>118.5</ele>
        <time>2023-05-03T14:02:00Z</time>
      </trkpt>
      <trkpt lat="49.87093" lon="1.99004">
        <ele>118.5</ele>
        <time>2023-05-03T14:02:02Z</time>
      </trkpt>
      <trkpt lat="49.87092" lon="1.99005">
        <ele>118.5</ele>
        <time>2023-05-03T14:02:03Z</time>
      </trkpt>
      <trkpt lat="49.87091" lon="1.99006">
        <ele>118.5</ele>
        <time>2023-05-03T14:02:04Z</time>
      </trkpt>
      <trkpt lat="49.87091" lon="1.99007">
        <ele>118.7</ele>
        <time>2023-05-03T14:02:05Z</time>
      </trkpt>
      <trkpt lat="49.87089" lon="1.99008">
        <ele>118.7</ele>
        <time>2023-05-03T14:02:06Z</time>
      </trkpt>
      <trkpt lat="49.87088" lon="1.9901">
        <ele>118.8</ele>
        <time>2023-05-03T14:02:07Z</time>
      </trkpt>
      <trkpt lat="49.87087" lon="1.99011">
        <ele>118.8</ele>
        <time>2023-05-03T14:02:08Z</time>
      </trkpt>
      <trkpt lat="49.87087" lon="1.99011">
        <ele>118.8</ele>
        <time>2023-05-03T14:02:09Z</time>
      </trkpt>
      <trkpt lat="49.87085" lon="1.99014">
        <ele>119</ele>
        <time>2023-05-03T14:02:10Z</time>
      </trkpt>
      <trkpt lat="49.87085" lon="1.99015">
        <ele>119</ele>
        <time>2023-05-03T14:02:12Z</time>
      </trkpt>
      <trkpt lat="49.87084" lon="1.99016">
        <ele>119</ele>
        <time>2023-05-03T14:02:13Z</time>
      </trkpt>
      <trkpt lat="49.87083" lon="1.99017">
        <ele>119.1</ele>
        <time>2023-05-03T14:02:14Z</time>
      </trkpt>
      <trkpt lat="49.87083" lon="1.99019">
        <ele>119.2</ele>
        <time>2023-05-03T14:02:15Z</time>
      </trkpt>
      <trkpt lat="49.87082" lon="1.9902">
        <ele>119.2</ele>
        <time>2023-05-03T14:02:16Z</time>
      </trkpt>
      <trkpt lat="49.87082" lon="1.99021">
        <ele>119.2</ele>
        <time>2023-05-03T14:02:18Z</time>
      </trkpt>
      <trkpt lat="49.87082" lon="1.99022">
        <ele>119.2</ele>
        <time>2023-05-03T14:02:19Z</time>
      </trkpt>
      <trkpt lat="49.87081" lon="1.99023">
        <ele>119.2</ele>
        <time>2023-05-03T14:02:20Z</time>
      </trkpt>
      <trkpt lat="49.8708" lon="1.99024">
        <ele>119.2</ele>
        <time>2023-05-03T14:02:21Z</time>
      </trkpt>
      <trkpt lat="49.87079" lon="1.99025">
        <ele>119.3</ele>
        <time>2023-05-03T14:02:23Z</time>
      </trkpt>
      <trkpt lat="49.87079" lon="1.99026">
        <ele>119.3</ele>
        <time>2023-05-03T14:02:24Z</time>
      </trkpt>
      <trkpt lat="49.87078" lon="1.99027">
        <ele>119.3</ele>
        <time>2023-05-03T14:02:25Z</time>
      </trkpt>
      <trkpt lat="49.87077" lon="1.99029">
        <ele>119.4</ele>
        <time>2023-05-03T14:02:26Z</time>
      </trkpt>
      <trkpt lat="49.87077" lon="1.9903">
        <ele>119.4</ele>
        <time>2023-05-03T14:02:27Z</time>
      </trkpt>
      <trkpt lat="49.87076" lon="1.99031">
        <ele>119.4</ele>
        <time>2023-05-03T14:02:28Z</time>
      </trkpt>
      <trkpt lat="49.87075" lon="1.99033">
        <ele>119.5</ele>
        <time>2023-05-03T14:02:29Z</time>
      </trkpt>
      <trkpt lat="49.87075" lon="1.99034">
        <ele>119.5</ele>
        <time>2023-05-03T14:02:31Z</time>
      </trkpt>
      <trkpt lat="49.87074" lon="1.99035">
        <ele>119.6</ele>
        <time>2023-05-03T14:02:32Z</time>
      </trkpt>
      <trkpt lat="49.87073" lon="1.99037">
        <ele>119.6</ele>
        <time>2023-05-03T14:02:33Z</time>
      </trkpt>
      <trkpt lat="49.87073" lon="1.99038">
        <ele>119.6</ele>
        <time>2023-05-03T14:02:34Z</time>
      </trkpt>
      <trkpt lat="49.87073" lon="1.99038">
        <ele>119.6</ele>
        <time>2023-05-03T14:02:35Z</time>
      </trkpt>
      <trkpt lat="49.87072" lon="1.99039">
        <ele>119.6</ele>
        <time>2023-05-03T14:02:36Z</time>
      </trkpt>
      <trkpt lat="49.87071" lon="1.99041">
        <ele>119.7</ele>
        <time>2023-05-03T14:02:38Z</time>
      </trkpt>
      <trkpt lat="49.87071" lon="1.99041">
        <ele>119.7</ele>
        <time>2023-05-03T14:02:39Z</time>
      </trkpt>
      <trkpt lat="49.8707" lon="1.99042">
        <ele>119.7</ele>
        <time>2023-05-03T14:02:40Z</time>
      </trkpt>
      <trkpt lat="49.87069" lon="1.99043">
        <ele>119.7</ele>
        <time>2023-05-03T14:02:41Z</time>
      </trkpt>
      <trkpt lat="49.87069" lon="1.99043">
        <ele>119.7</ele>
        <time>2023-05-03T14:02:42Z</time>
      </trkpt>
      <trkpt lat="49.87068" lon="1.99044">
        <ele>119.7</ele>
        <time>2023-05-03T14:02:43Z</time>
      </trkpt>
      <trkpt lat="49.87068" lon="1.99044">
        <ele>119.7</ele>
        <time>2023-05-03T14:02:44Z</time>
      </trkpt>
      <trkpt lat="49.87067" lon="1.99046">
        <ele>119.7</ele>
        <time>2023-05-03T14:02:46Z</time>
      </trkpt>
      <trkpt lat="49.87066" lon="1.99047">
        <ele>119.7</ele>
        <time>2023-05-03T14:02:47Z</time>
      </trkpt>
      <trkpt lat="49.87065" lon="1.99048">
        <ele>119.8</ele>
        <time>2023-05-03T14:02:48Z</time>
      </trkpt>
      <trkpt lat="49.87064" lon="1.99049">
        <ele>119.8</ele>
        <time>2023-05-03T14:02:49Z</time>
      </trkpt>
      <trkpt lat="49.87063" lon="1.99051">
        <ele>119.9</ele>
        <time>2023-05-03T14:02:50Z</time>
      </trkpt>
      <trkpt lat="49.87062" lon="1.99052">
        <ele>119.9</ele>
        <time>2023-05-03T14:02:52Z</time>
      </trkpt>
      <trkpt lat="49.87062" lon="1.99053">
        <ele>119.9</ele>
        <time>2023-05-03T14:02:53Z</time>
      </trkpt>
      <trkpt lat="49.8706" lon="1.99055">
        <ele>119.9</ele>
        <time>2023-05-03T14:02:54Z</time>
      </trkpt>
      <trkpt lat="49.87059" lon="1.99056">
        <ele>119.9</ele>
        <time>2023-05-03T14:02:55Z</time>
      </trkpt>
      <trkpt lat="49.87058" lon="1.99056">
        <ele>119.9</ele>
        <time>2023-05-03T14:02:56Z</time>
      </trkpt>
      <trkpt lat="49.87057" lon="1.99057">
        <ele>120</ele>
        <time>2023-05-03T14:02:57Z</time>
      </trkpt>
      <trkpt lat="49.87056" lon="1.99058">
        <ele>120</ele>
        <time>2023-05-03T14:02:58Z</time>
      </trkpt>
      <trkpt lat="49.87054" lon="1.99059">
        <ele>120</ele>
        <time>2023-05-03T14:03:00Z</time>
      </trkpt>
      <trkpt lat="49.87053" lon="1.9906">
        <ele>120</ele>
        <time>2023-05-03T14:03:01Z</time>
      </trkpt>
      <trkpt lat="49.87052" lon="1.99061">
        <ele>120</ele>
        <time>2023-05-03T14:03:02Z</time>
      </trkpt>
      <trkpt lat="49.8705" lon="1.99063">
        <ele>120</ele>
        <time>2023-05-03T14:03:03Z</time>
      </trkpt>
      <trkpt lat="49.87049" lon="1.99064">
        <ele>120</ele>
        <time>2023-05-03T14:03:04Z</time>
      </trkpt>
      <trkpt lat="49.87048" lon="1.99065">
        <ele>120</ele>
        <time>2023-05-03T14:03:05Z</time>
      </trkpt>
      <trkpt lat="49.87046" lon="1.99067">
        <ele>120.1</ele>
        <time>2023-05-03T14:03:07Z</time>
      </trkpt>
      <trkpt lat="49.87045" lon="1.99069">
        <ele>120</ele>
        <time>2023-05-03T14:03:08Z</time>
      </trkpt>
      <trkpt lat="49.87044" lon="1.9907">
        <ele>120</ele>
        <time>2023-05-03T14:03:09Z</time>
      </trkpt>
      <trkpt lat="49.87042" lon="1.99072">
        <ele>120</ele>
        <time>2023-05-03T14:03:10Z</time>
      </trkpt>
      <trkpt lat="49.8704" lon="1.99074">
        <ele>120</ele>
        <time>2023-05-03T14:03:11Z</time>
      </trkpt>
      <trkpt lat="49.87039" lon="1.99075">
        <ele>120</ele>
        <time>2023-05-03T14:03:12Z</time>
      </trkpt>
      <trkpt lat="49.87037" lon="1.99076">
        <ele>119.9</ele>
        <time>2023-05-03T14:03:14Z</time>
      </trkpt>
      <trkpt lat="49.87036" lon="1.99078">
        <ele>119.9</ele>
        <time>2023-05-03T14:03:15Z</time>
      </trkpt>
      <trkpt lat="49.87034" lon="1.99079">
        <ele>119.9</ele>
        <time>2023-05-03T14:03:16Z</time>
      </trkpt>
      <trkpt lat="49.87033" lon="1.9908">
        <ele>119.8</ele>
        <time>2023-05-03T14:03:17Z</time>
      </trkpt>
      <trkpt lat="49.87032" lon="1.99081">
        <ele>119.8</ele>
        <time>2023-05-03T14:03:18Z</time>
      </trkpt>
      <trkpt lat="49.87031" lon="1.99083">
        <ele>119.8</ele>
        <time>2023-05-03T14:03:19Z</time>
      </trkpt>
      <trkpt lat="49.87029" lon="1.99086">
        <ele>119.7</ele>
        <time>2023-05-03T14:03:21Z</time>
      </trkpt>
      <trkpt lat="49.87028" lon="1.99086">
        <ele>119.7</ele>
        <time>2023-05-03T14:03:22Z</time>
      </trkpt>
      <trkpt lat="49.87027" lon="1.99088">
        <ele>119.7</ele>
        <time>2023-05-03T14:03:23Z</time>
      </trkpt>
      <trkpt lat="49.87025" lon="1.99091">
        <ele>119.6</ele>
        <time>2023-05-03T14:03:25Z</time>
      </trkpt>
      <trkpt lat="49.87025" lon="1.99093">
        <ele>119.4</ele>
        <time>2023-05-03T14:03:26Z</time>
      </trkpt>
      <trkpt lat="49.87024" lon="1.99095">
        <ele>119.4</ele>
        <time>2023-05-03T14:03:27Z</time>
      </trkpt>
      <trkpt lat="49.87022" lon="1.99098">
        <ele>119.2</ele>
        <time>2023-05-03T14:03:28Z</time>
      </trkpt>
      <trkpt lat="49.87022" lon="1.991">
        <ele>119.2</ele>
        <time>2023-05-03T14:03:30Z</time>
      </trkpt>
      <trkpt lat="49.87021" lon="1.99101">
        <ele>119.2</ele>
        <time>2023-05-03T14:03:31Z</time>
      </trkpt>
      <trkpt lat="49.87021" lon="1.99103">
        <ele>119</ele>
        <time>2023-05-03T14:03:32Z</time>
      </trkpt>
      <trkpt lat="49.8702" lon="1.99104">
        <ele>119</ele>
        <time>2023-05-03T14:03:33Z</time>
      </trkpt>
      <trkpt lat="49.87019" lon="1.99105">
        <ele>119</ele>
        <time>2023-05-03T14:03:34Z</time>
      </trkpt>
      <trkpt lat="49.87019" lon="1.99107">
        <ele>118.7</ele>
        <time>2023-05-03T14:03:35Z</time>
      </trkpt>
      <trkpt lat="49.87018" lon="1.99108">
        <ele>118.7</ele>
        <time>2023-05-03T14:03:37Z</time>
      </trkpt>
      <trkpt lat="49.87016" lon="1.99111">
        <ele>118.5</ele>
        <time>2023-05-03T14:03:38Z</time>
      </trkpt>
      <trkpt lat="49.87016" lon="1.99112">
        <ele>118.5</ele>
        <time>2023-05-03T14:03:39Z</time>
      </trkpt>
      <trkpt lat="49.87015" lon="1.99113">
        <ele>118.5</ele>
        <time>2023-05-03T14:03:40Z</time>
      </trkpt>
      <trkpt lat="49.87014" lon="1.99114">
        <ele>118.5</ele>
        <time>2023-05-03T14:03:41Z</time>
      </trkpt>
      <trkpt lat="49.87014" lon="1.99115">
        <ele>118.2</ele>
        <time>2023-05-03T14:03:42Z</time>
      </trkpt>
      <trkpt lat="49.87012" lon="1.99117">
        <ele>118.1</ele>
        <time>2023-05-03T14:03:44Z</time>
      </trkpt>
      <trkpt lat="49.87011" lon="1.99118">
        <ele>118.1</ele>
        <time>2023-05-03T14:03:45Z</time>
      </trkpt>
      <trkpt lat="49.8701" lon="1.99118">
        <ele>118.1</ele>
        <time>2023-05-03T14:03:46Z</time>
      </trkpt>
      <trkpt lat="49.87009" lon="1.99119">
        <ele>118.1</ele>
        <time>2023-05-03T14:03:47Z</time>
      </trkpt>
      <trkpt lat="49.87007" lon="1.9912">
        <ele>117.8</ele>
        <time>2023-05-03T14:03:48Z</time>
      </trkpt>
      <trkpt lat="49.87006" lon="1.9912">
        <ele>117.8</ele>
        <time>2023-05-03T14:03:49Z</time>
      </trkpt>
      <trkpt lat="49.87005" lon="1.9912">
        <ele>117.8</ele>
        <time>2023-05-03T14:03:50Z</time>
      </trkpt>
      <trkpt lat="49.87004" lon="1.99122">
        <ele>117.7</ele>
        <time>2023-05-03T14:03:52Z</time>
      </trkpt>
      <trkpt lat="49.87002" lon="1.99123">
        <ele>117.7</ele>
        <time>2023-05-03T14:03:53Z</time>
      </trkpt>
      <trkpt lat="49.87001" lon="1.99124">
        <ele>117.3</ele>
        <time>2023-05-03T14:03:54Z</time>
      </trkpt>
      <trkpt lat="49.87" lon="1.99125">
        <ele>117.3</ele>
        <time>2023-05-03T14:03:56Z</time>
      </trkpt>
      <trkpt lat="49.86999" lon="1.99126">
        <ele>117.3</ele>
        <time>2023-05-03T14:03:57Z</time>
      </trkpt>
      <trkpt lat="49.86998" lon="1.99126">
        <ele>117.3</ele>
        <time>2023-05-03T14:03:58Z</time>
      </trkpt>
      <trkpt lat="49.86997" lon="1.99127">
        <ele>117.3</ele>
        <time>2023-05-03T14:03:59Z</time>
      </trkpt>
      <trkpt lat="49.86996" lon="1.99127">
        <ele>116.9</ele>
        <time>2023-05-03T14:04:00Z</time>
      </trkpt>
      <trkpt lat="49.86994" lon="1.99129">
        <ele>116.9</ele>
        <time>2023-05-03T14:04:01Z</time>
      </trkpt>
      <trkpt lat="49.86994" lon="1.99129">
        <ele>116.8</ele>
        <time>2023-05-03T14:04:02Z</time>
      </trkpt>
      <trkpt lat="49.86993" lon="1.9913">
        <ele>116.8</ele>
        <time>2023-05-03T14:04:03Z</time>
      </trkpt>
      <trkpt lat="49.86991" lon="1.99131">
        <ele>116.8</ele>
        <time>2023-05-03T14:04:05Z</time>
      </trkpt>
      <trkpt lat="49.8699" lon="1.99133">
        <ele>116.3</ele>
        <time>2023-05-03T14:04:06Z</time>
      </trkpt>
      <trkpt lat="49.86988" lon="1.99134">
        <ele>116.2</ele>
        <time>2023-05-03T14:04:07Z</time>
      </trkpt>
      <trkpt lat="49.86987" lon="1.99136">
        <ele>116.2</ele>
        <time>2023-05-03T14:04:09Z</time>
      </trkpt>
      <trkpt lat="49.86986" lon="1.99137">
        <ele>115.8</ele>
        <time>2023-05-03T14:04:10Z</time>
      </trkpt>
      <trkpt lat="49.86984" lon="1.99138">
        <ele>115.8</ele>
        <time>2023-05-03T14:04:11Z</time>
      </trkpt>
      <trkpt lat="49.86983" lon="1.99139">
        <ele>115.8</ele>
        <time>2023-05-03T14:04:12Z</time>
      </trkpt>
      <trkpt lat="49.86982" lon="1.9914">
        <ele>115.6</ele>
        <time>2023-05-03T14:04:13Z</time>
      </trkpt>
      <trkpt lat="49.86981" lon="1.99141">
        <ele>115.3</ele>
        <time>2023-05-03T14:04:15Z</time>
      </trkpt>
      <trkpt lat="49.8698" lon="1.99142">
        <ele>115.1</ele>
        <time>2023-05-03T14:04:16Z</time>
      </trkpt>
      <trkpt lat="49.86979" lon="1.99143">
        <ele>115.1</ele>
        <time>2023-05-03T14:04:17Z</time>
      </trkpt>
      <trkpt lat="49.86979" lon="1.99143">
        <ele>115.1</ele>
        <time>2023-05-03T14:04:18Z</time>
      </trkpt>
      <trkpt lat="49.86977" lon="1.99145">
        <ele>114.6</ele>
        <time>2023-05-03T14:04:19Z</time>
      </trkpt>
      <trkpt lat="49.86977" lon="1.99145">
        <ele>114.6</ele>
        <time>2023-05-03T14:04:20Z</time>
      </trkpt>
      <trkpt lat="49.86975" lon="1.99146">
        <ele>114.6</ele>
        <time>2023-05-03T14:04:21Z</time>
      </trkpt>
      <trkpt lat="49.86974" lon="1.99147">
        <ele>114.4</ele>
        <time>2023-05-03T14:04:22Z</time>
      </trkpt>
      <trkpt lat="49.86973" lon="1.99148">
        <ele>114.4</ele>
        <time>2023-05-03T14:04:24Z</time>
      </trkpt>
      <trkpt lat="49.86973" lon="1.99149">
        <ele>114.1</ele>
        <time>2023-05-03T14:04:25Z</time>
      </trkpt>
      <trkpt lat="49.86972" lon="1.99151">
        <ele>113.9</ele>
        <time>2023-05-03T14:04:26Z</time>
      </trkpt>
      <trkpt lat="49.86971" lon="1.99152">
        <ele>113.9</ele>
        <time>2023-05-03T14:04:27Z</time>
      </trkpt>
      <trkpt lat="49.86971" lon="1.99153">
        <ele>113.5</ele>
        <time>2023-05-03T14:04:29Z</time>
      </trkpt>
      <trkpt lat="49.86971" lon="1.99155">
        <ele>113.5</ele>
        <time>2023-05-03T14:04:30Z</time>
      </trkpt>
      <trkpt lat="49.86971" lon="1.99156">
        <ele>113.5</ele>
        <time>2023-05-03T14:04:31Z</time>
      </trkpt>
      <trkpt lat="49.86971" lon="1.99157">
        <ele>113.5</ele>
        <time>2023-05-03T14:04:32Z</time>
      </trkpt>
      <trkpt lat="49.86971" lon="1.99158">
        <ele>113.2</ele>
        <time>2023-05-03T14:04:33Z</time>
      </trkpt>
      <trkpt lat="49.8697" lon="1.9916">
        <ele>113.2</ele>
        <time>2023-05-03T14:04:35Z</time>
      </trkpt>
      <trkpt lat="49.8697" lon="1.99161">
        <ele>113.2</ele>
        <time>2023-05-03T14:04:36Z</time>
      </trkpt>
      <trkpt lat="49.86969" lon="1.99162">
        <ele>112.6</ele>
        <time>2023-05-03T14:04:37Z</time>
      </trkpt>
      <trkpt lat="49.86968" lon="1.99163">
        <ele>112.6</ele>
        <time>2023-05-03T14:04:38Z</time>
      </trkpt>
      <trkpt lat="49.86967" lon="1.99164">
        <ele>112.6</ele>
        <time>2023-05-03T14:04:39Z</time>
      </trkpt>
      <trkpt lat="49.86966" lon="1.99165">
        <ele>112.4</ele>
        <time>2023-05-03T14:04:40Z</time>
      </trkpt>
      <trkpt lat="49.86965" lon="1.99166">
        <ele>112.4</ele>
        <time>2023-05-03T14:04:41Z</time>
      </trkpt>
      <trkpt lat="49.86964" lon="1.99167">
        <ele>112.1</ele>
        <time>2023-05-03T14:04:43Z</time>
      </trkpt>
      <trkpt lat="49.86962" lon="1.99169">
        <ele>111.9</ele>
        <time>2023-05-03T14:04:44Z</time>
      </trkpt>
      <trkpt lat="49.86962" lon="1.9917">
        <ele>111.9</ele>
        <time>2023-05-03T14:04:45Z</time>
      </trkpt>
      <trkpt lat="49.86961" lon="1.9917">
        <ele>111.6</ele>
        <time>2023-05-03T14:04:46Z</time>
      </trkpt>
      <trkpt lat="49.8696" lon="1.99171">
        <ele>111.3</ele>
        <time>2023-05-03T14:04:47Z</time>
      </trkpt>
      <trkpt lat="49.86959" lon="1.99172">
        <ele>111.3</ele>
        <time>2023-05-03T14:04:48Z</time>
      </trkpt>
      <trkpt lat="49.86958" lon="1.99173">
        <ele>111.3</ele>
        <time>2023-05-03T14:04:49Z</time>
      </trkpt>
      <trkpt lat="49.86957" lon="1.99174">
        <ele>111.1</ele>
        <time>2023-05-03T14:04:50Z</time>
      </trkpt>
      <trkpt lat="49.86956" lon="1.99174">
        <ele>111.1</ele>
        <time>2023-05-03T14:04:51Z</time>
      </trkpt>
      <trkpt lat="49.86955" lon="1.99175">
        <ele>110.5</ele>
        <time>2023-05-03T14:04:53Z</time>
      </trkpt>
      <trkpt lat="49.86955" lon="1.99176">
        <ele>110.5</ele>
        <time>2023-05-03T14:04:54Z</time>
      </trkpt>
      <trkpt lat="49.86954" lon="1.99177">
        <ele>110.5</ele>
        <time>2023-05-03T14:04:55Z</time>
      </trkpt>
      <trkpt lat="49.86953" lon="1.99178">
        <ele>110.5</ele>
        <time>2023-05-03T14:04:56Z</time>
      </trkpt>
      <trkpt lat="49.86952" lon="1.99179">
        <ele>110</ele>
        <time>2023-05-03T14:04:57Z</time>
      </trkpt>
      <trkpt lat="49.86951" lon="1.9918">
        <ele>110</ele>
        <time>2023-05-03T14:04:58Z</time>
      </trkpt>
      <trkpt lat="49.86951" lon="1.9918">
        <ele>110</ele>
        <time>2023-05-03T14:04:59Z</time>
      </trkpt>
      <trkpt lat="49.8695" lon="1.99181">
        <ele>110</ele>
        <time>2023-05-03T14:05:01Z</time>
      </trkpt>
      <trkpt lat="49.8695" lon="1.99182">
        <ele>110</ele>
        <time>2023-05-03T14:05:02Z</time>
      </trkpt>
      <trkpt lat="49.8695" lon="1.99183">
        <ele>109.7</ele>
        <time>2023-05-03T14:05:03Z</time>
      </trkpt>
      <trkpt lat="49.86949" lon="1.99184">
        <ele>109.4</ele>
        <time>2023-05-03T14:05:04Z</time>
      </trkpt>
      <trkpt lat="49.86949" lon="1.99185">
        <ele>109.4</ele>
        <time>2023-05-03T14:05:05Z</time>
      </trkpt>
      <trkpt lat="49.86949" lon="1.99185">
        <ele>109.4</ele>
        <time>2023-05-03T14:05:06Z</time>
      </trkpt>
      <trkpt lat="49.86949" lon="1.99186">
        <ele>109.4</ele>
        <time>2023-05-03T14:05:07Z</time>
      </trkpt>
      <trkpt lat="49.86948" lon="1.99187">
        <ele>109.4</ele>
        <time>2023-05-03T14:05:09Z</time>
      </trkpt>
      <trkpt lat="49.86948" lon="1.99188">
        <ele>109.1</ele>
        <time>2023-05-03T14:05:10Z</time>
      </trkpt>
      <trkpt lat="49.86947" lon="1.99188">
        <ele>109.1</ele>
        <time>2023-05-03T14:05:11Z</time>
      </trkpt>
      <trkpt lat="49.86947" lon="1.99188">
        <ele>108.9</ele>
        <time>2023-05-03T14:05:12Z</time>
      </trkpt>
      <trkpt lat="49.86946" lon="1.99189">
        <ele>108.9</ele>
        <time>2023-05-03T14:05:13Z</time>
      </trkpt>
      <trkpt lat="49.86945" lon="1.9919">
        <ele>108.9</ele>
        <time>2023-05-03T14:05:15Z</time>
      </trkpt>
      <trkpt lat="49.86944" lon="1.9919">
        <ele>108.6</ele>
        <time>2023-05-03T14:05:16Z</time>
      </trkpt>
      <trkpt lat="49.86944" lon="1.99191">
        <ele>108.6</ele>
        <time>2023-05-03T14:05:17Z</time>
      </trkpt>
      <trkpt lat="49.86943" lon="1.99192">
        <ele>108.3</ele>
        <time>2023-05-03T14:05:18Z</time>
      </trkpt>
      <trkpt lat="49.86942" lon="1.99194">
        <ele>108.3</ele>
        <time>2023-05-03T14:05:19Z</time>
      </trkpt>
      <trkpt lat="49.86942" lon="1.99195">
        <ele>108.3</ele>
        <time>2023-05-03T14:05:20Z</time>
      </trkpt>
      <trkpt lat="49.86942" lon="1.99196">
        <ele>108</ele>
        <time>2023-05-03T14:05:21Z</time>
      </trkpt>
      <trkpt lat="49.86942" lon="1.99197">
        <ele>108</ele>
        <time>2023-05-03T14:05:23Z</time>
      </trkpt>
      <trkpt lat="49.86942" lon="1.99198">
        <ele>108</ele>
        <time>2023-05-03T14:05:24Z</time>
      </trkpt>
      <trkpt lat="49.86941" lon="1.99199">
        <ele>107.8</ele>
        <time>2023-05-03T14:05:25Z</time>
      </trkpt>
      <trkpt lat="49.8694" lon="1.992">
        <ele>107.8</ele>
        <time>2023-05-03T14:05:26Z</time>
      </trkpt>
      <trkpt lat="49.8694" lon="1.99201">
        <ele>107.5</ele>
        <time>2023-05-03T14:05:27Z</time>
      </trkpt>
      <trkpt lat="49.86939" lon="1.99203">
        <ele>107.5</ele>
        <time>2023-05-03T14:05:28Z</time>
      </trkpt>
      <trkpt lat="49.86938" lon="1.99204">
        <ele>107.2</ele>
        <time>2023-05-03T14:05:29Z</time>
      </trkpt>
      <trkpt lat="49.86937" lon="1.99205">
        <ele>107</ele>
        <time>2023-05-03T14:05:31Z</time>
      </trkpt>
      <trkpt lat="49.86936" lon="1.99208">
        <ele>106.7</ele>
        <time>2023-05-03T14:05:32Z</time>
      </trkpt>
      <trkpt lat="49.86935" lon="1.99209">
        <ele>106.4</ele>
        <time>2023-05-03T14:05:33Z</time>
      </trkpt>
      <trkpt lat="49.86935" lon="1.9921">
        <ele>106.4</ele>
        <time>2023-05-03T14:05:34Z</time>
      </trkpt>
      <trkpt lat="49.86934" lon="1.99212">
        <ele>106.4</ele>
        <time>2023-05-03T14:05:35Z</time>
      </trkpt>
      <trkpt lat="49.86933" lon="1.99214">
        <ele>105.9</ele>
        <time>2023-05-03T14:05:36Z</time>
      </trkpt>
      <trkpt lat="49.86932" lon="1.99215">
        <ele>105.9</ele>
        <time>2023-05-03T14:05:37Z</time>
      </trkpt>
      <trkpt lat="49.86931" lon="1.99217">
        <ele>105.9</ele>
        <time>2023-05-03T14:05:39Z</time>
      </trkpt>
      <trkpt lat="49.86931" lon="1.99219">
        <ele>105.6</ele>
        <time>2023-05-03T14:05:40Z</time>
      </trkpt>
      <trkpt lat="49.8693" lon="1.9922">
        <ele>105.4</ele>
        <time>2023-05-03T14:05:41Z</time>
      </trkpt>
      <trkpt lat="49.86929" lon="1.99221">
        <ele>105.4</ele>
        <time>2023-05-03T14:05:43Z</time>
      </trkpt>
      <trkpt lat="49.86928" lon="1.99222">
        <ele>105.1</ele>
        <time>2023-05-03T14:05:44Z</time>
      </trkpt>
      <trkpt lat="49.86927" lon="1.99223">
        <ele>104.8</ele>
        <time>2023-05-03T14:05:45Z</time>
      </trkpt>
      <trkpt lat="49.86927" lon="1.99224">
        <ele>104.8</ele>
        <time>2023-05-03T14:05:46Z</time>
      </trkpt>
      <trkpt lat="49.86926" lon="1.99224">
        <ele>104.8</ele>
        <time>2023-05-03T14:05:47Z</time>
      </trkpt>
      <trkpt lat="49.86925" lon="1.99225">
        <ele>104.8</ele>
        <time>2023-05-03T14:05:48Z</time>
      </trkpt>
      <trkpt lat="49.86924" lon="1.99225">
        <ele>104.5</ele>
        <time>2023-05-03T14:05:49Z</time>
      </trkpt>
      <trkpt lat="49.86924" lon="1.99226">
        <ele>104.5</ele>
        <time>2023-05-03T14:05:51Z</time>
      </trkpt>
      <trkpt lat="49.86923" lon="1.99226">
        <ele>104.3</ele>
        <time>2023-05-03T14:05:52Z</time>
      </trkpt>
      <trkpt lat="49.86923" lon="1.99226">
        <ele>104.3</ele>
        <time>2023-05-03T14:05:53Z</time>
      </trkpt>
      <trkpt lat="49.86922" lon="1.99227">
        <ele>104</ele>
        <time>2023-05-03T14:05:54Z</time>
      </trkpt>
      <trkpt lat="49.86922" lon="1.99227">
        <ele>104</ele>
        <time>2023-05-03T14:05:55Z</time>
      </trkpt>
      <trkpt lat="49.86921" lon="1.99228">
        <ele>104</ele>
        <time>2023-05-03T14:05:56Z</time>
      </trkpt>
      <trkpt lat="49.8692" lon="1.99229">
        <ele>104</ele>
        <time>2023-05-03T14:05:57Z</time>
      </trkpt>
      <trkpt lat="49.86919" lon="1.99231">
        <ele>103.5</ele>
        <time>2023-05-03T14:05:58Z</time>
      </trkpt>
      <trkpt lat="49.86918" lon="1.99232">
        <ele>103.5</ele>
        <time>2023-05-03T14:05:59Z</time>
      </trkpt>
      <trkpt lat="49.86918" lon="1.99233">
        <ele>103.5</ele>
        <time>2023-05-03T14:06:01Z</time>
      </trkpt>
      <trkpt lat="49.86917" lon="1.99235">
        <ele>103.2</ele>
        <time>2023-05-03T14:06:02Z</time>
      </trkpt>
      <trkpt lat="49.86916" lon="1.99236">
        <ele>102.9</ele>
        <time>2023-05-03T14:06:03Z</time>
      </trkpt>
      <trkpt lat="49.86915" lon="1.99237">
        <ele>102.9</ele>
        <time>2023-05-03T14:06:04Z</time>
      </trkpt>
      <trkpt lat="49.86915" lon="1.99238">
        <ele>102.9</ele>
        <time>2023-05-03T14:06:06Z</time>
      </trkpt>
      <trkpt lat="49.86915" lon="1.9924">
        <ele>102.7</ele>
        <time>2023-05-03T14:06:07Z</time>
      </trkpt>
      <trkpt lat="49.86914" lon="1.99242">
        <ele>102.7</ele>
        <time>2023-05-03T14:06:08Z</time>
      </trkpt>
      <trkpt lat="49.86914" lon="1.99243">
        <ele>102.1</ele>
        <time>2023-05-03T14:06:09Z</time>
      </trkpt>
      <trkpt lat="49.86913" lon="1.99245">
        <ele>102.1</ele>
        <time>2023-05-03T14:06:10Z</time>
      </trkpt>
      <trkpt lat="49.86912" lon="1.99247">
        <ele>102.1</ele>
        <time>2023-05-03T14:06:12Z</time>
      </trkpt>
      <trkpt lat="49.86911" lon="1.9925">
        <ele>101.9</ele>
        <time>2023-05-03T14:06:13Z</time>
      </trkpt>
      <trkpt lat="49.86911" lon="1.99251">
        <ele>101.9</ele>
        <time>2023-05-03T14:06:14Z</time>
      </trkpt>
      <trkpt lat="49.86911" lon="1.99252">
        <ele>101.3</ele>
        <time>2023-05-03T14:06:15Z</time>
      </trkpt>
      <trkpt lat="49.8691" lon="1.99254">
        <ele>101.3</ele>
        <time>2023-05-03T14:06:16Z</time>
      </trkpt>
      <trkpt lat="49.86909" lon="1.99255">
        <ele>101.3</ele>
        <time>2023-05-03T14:06:17Z</time>
      </trkpt>
      <trkpt lat="49.86909" lon="1.99257">
        <ele>101.1</ele>
        <time>2023-05-03T14:06:19Z</time>
      </trkpt>
      <trkpt lat="49.86908" lon="1.99258">
        <ele>100.8</ele>
        <time>2023-05-03T14:06:20Z</time>
      </trkpt>
      <trkpt lat="49.86907" lon="1.9926">
        <ele>100.8</ele>
        <time>2023-05-03T14:06:22Z</time>
      </trkpt>
      <trkpt lat="49.86905" lon="1.9926">
        <ele>100.5</ele>
        <time>2023-05-03T14:06:24Z</time>
      </trkpt>
      <trkpt lat="49.86904" lon="1.9926">
        <ele>100.3</ele>
        <time>2023-05-03T14:06:25Z</time>
      </trkpt>
      <trkpt lat="49.86903" lon="1.99261">
        <ele>100.3</ele>
        <time>2023-05-03T14:06:27Z</time>
      </trkpt>
      <trkpt lat="49.86902" lon="1.99262">
        <ele>100</ele>
        <time>2023-05-03T14:06:28Z</time>
      </trkpt>
      <trkpt lat="49.86901" lon="1.99263">
        <ele>100</ele>
        <time>2023-05-03T14:06:29Z</time>
      </trkpt>
      <trkpt lat="49.86899" lon="1.99265">
        <ele>99.4</ele>
        <time>2023-05-03T14:06:30Z</time>
      </trkpt>
      <trkpt lat="49.86899" lon="1.99266">
        <ele>99.4</ele>
        <time>2023-05-03T14:06:31Z</time>
      </trkpt>
      <trkpt lat="49.86898" lon="1.99267">
        <ele>99.4</ele>
        <time>2023-05-03T14:06:32Z</time>
      </trkpt>
      <trkpt lat="49.86896" lon="1.99269">
        <ele>98.9</ele>
        <time>2023-05-03T14:06:33Z</time>
      </trkpt>
      <trkpt lat="49.86896" lon="1.9927">
        <ele>98.9</ele>
        <time>2023-05-03T14:06:35Z</time>
      </trkpt>
      <trkpt lat="49.86895" lon="1.99271">
        <ele>98.9</ele>
        <time>2023-05-03T14:06:36Z</time>
      </trkpt>
      <trkpt lat="49.86894" lon="1.99272">
        <ele>98.6</ele>
        <time>2023-05-03T14:06:37Z</time>
      </trkpt>
      <trkpt lat="49.86893" lon="1.99274">
        <ele>98.3</ele>
        <time>2023-05-03T14:06:38Z</time>
      </trkpt>
      <trkpt lat="49.86891" lon="1.99275">
        <ele>98.1</ele>
        <time>2023-05-03T14:06:39Z</time>
      </trkpt>
      <trkpt lat="49.8689" lon="1.99276">
        <ele>98.1</ele>
        <time>2023-05-03T14:06:40Z</time>
      </trkpt>
      <trkpt lat="49.86888" lon="1.99278">
        <ele>97.5</ele>
        <time>2023-05-03T14:06:41Z</time>
      </trkpt>
      <trkpt lat="49.86887" lon="1.99278">
        <ele>97.5</ele>
        <time>2023-05-03T14:06:42Z</time>
      </trkpt>
      <trkpt lat="49.86886" lon="1.99279">
        <ele>97.5</ele>
        <time>2023-05-03T14:06:43Z</time>
      </trkpt>
      <trkpt lat="49.86885" lon="1.9928">
        <ele>97.3</ele>
        <time>2023-05-03T14:06:45Z</time>
      </trkpt>
      <trkpt lat="49.86884" lon="1.9928">
        <ele>97.3</ele>
        <time>2023-05-03T14:06:46Z</time>
      </trkpt>
      <trkpt lat="49.86883" lon="1.99281">
        <ele>97</ele>
        <time>2023-05-03T14:06:47Z</time>
      </trkpt>
      <trkpt lat="49.86882" lon="1.99281">
        <ele>97</ele>
        <time>2023-05-03T14:06:48Z</time>
      </trkpt>
      <trkpt lat="49.86881" lon="1.99281">
        <ele>97</ele>
        <time>2023-05-03T14:06:49Z</time>
      </trkpt>
      <trkpt lat="49.8688" lon="1.99281">
        <ele>96.7</ele>
        <time>2023-05-03T14:06:50Z</time>
      </trkpt>
      <trkpt lat="49.86879" lon="1.99281">
        <ele>96.7</ele>
        <time>2023-05-03T14:06:51Z</time>
      </trkpt>
      <trkpt lat="49.86878" lon="1.99281">
        <ele>96.7</ele>
        <time>2023-05-03T14:06:52Z</time>
      </trkpt>
      <trkpt lat="49.86877" lon="1.99281">
        <ele>96.4</ele>
        <time>2023-05-03T14:06:54Z</time>
      </trkpt>
      <trkpt lat="49.86876" lon="1.9928">
        <ele>96.4</ele>
        <time>2023-05-03T14:06:56Z</time>
      </trkpt>
      <trkpt lat="49.86875" lon="1.99279">
        <ele>96.2</ele>
        <time>2023-05-03T14:06:57Z</time>
      </trkpt>
      <trkpt lat="49.86874" lon="1.99279">
        <ele>96.2</ele>
        <time>2023-05-03T14:06:58Z</time>
      </trkpt>
      <trkpt lat="49.86873" lon="1.99279">
        <ele>96.2</ele>
        <time>2023-05-03T14:06:59Z</time>
      </trkpt>
      <trkpt lat="49.86872" lon="1.99279">
        <ele>95.9</ele>
        <time>2023-05-03T14:07:01Z</time>
      </trkpt>
      <trkpt lat="49.86871" lon="1.99279">
        <ele>95.9</ele>
        <time>2023-05-03T14:07:02Z</time>
      </trkpt>
      <trkpt lat="49.8687" lon="1.9928">
        <ele>95.9</ele>
        <time>2023-05-03T14:07:03Z</time>
      </trkpt>
      <trkpt lat="49.8687" lon="1.9928">
        <ele>95.9</ele>
        <time>2023-05-03T14:07:05Z</time>
      </trkpt>
      <trkpt lat="49.86869" lon="1.99281">
        <ele>95.6</ele>
        <time>2023-05-03T14:07:06Z</time>
      </trkpt>
      <trkpt lat="49.86869" lon="1.99282">
        <ele>95.3</ele>
        <time>2023-05-03T14:07:07Z</time>
      </trkpt>
      <trkpt lat="49.86869" lon="1.99283">
        <ele>95.3</ele>
        <time>2023-05-03T14:07:08Z</time>
      </trkpt>
      <trkpt lat="49.86869" lon="1.99284">
        <ele>95.3</ele>
        <time>2023-05-03T14:07:09Z</time>
      </trkpt>
      <trkpt lat="49.86868" lon="1.99285">
        <ele>95.3</ele>
        <time>2023-05-03T14:07:11Z</time>
      </trkpt>
      <trkpt lat="49.86868" lon="1.99286">
        <ele>95.1</ele>
        <time>2023-05-03T14:07:12Z</time>
      </trkpt>
      <trkpt lat="49.86867" lon="1.99287">
        <ele>95.1</ele>
        <time>2023-05-03T14:07:13Z</time>
      </trkpt>
      <trkpt lat="49.86867" lon="1.99288">
        <ele>94.8</ele>
        <time>2023-05-03T14:07:14Z</time>
      </trkpt>
      <trkpt lat="49.86866" lon="1.99289">
        <ele>94.8</ele>
        <time>2023-05-03T14:07:15Z</time>
      </trkpt>
      <trkpt lat="49.86864" lon="1.9929">
        <ele>94.8</ele>
        <time>2023-05-03T14:07:17Z</time>
      </trkpt>
      <trkpt lat="49.86863" lon="1.99291">
        <ele>94.2</ele>
        <time>2023-05-03T14:07:18Z</time>
      </trkpt>
      <trkpt lat="49.86863" lon="1.99292">
        <ele>94.2</ele>
        <time>2023-05-03T14:07:19Z</time>
      </trkpt>
      <trkpt lat="49.86862" lon="1.99293">
        <ele>94.2</ele>
        <time>2023-05-03T14:07:20Z</time>
      </trkpt>
      <trkpt lat="49.86861" lon="1.99294">
        <ele>93.9</ele>
        <time>2023-05-03T14:07:22Z</time>
      </trkpt>
      <trkpt lat="49.86861" lon="1.99295">
        <ele>93.7</ele>
        <time>2023-05-03T14:07:23Z</time>
      </trkpt>
      <trkpt lat="49.86862" lon="1.99295">
        <ele>93.9</ele>
        <time>2023-05-03T14:07:24Z</time>
      </trkpt>
      <trkpt lat="49.86862" lon="1.99295">
        <ele>93.9</ele>
        <time>2023-05-03T14:07:25Z</time>
      </trkpt>
      <trkpt lat="49.86862" lon="1.99295">
        <ele>93.9</ele>
        <time>2023-05-03T14:07:26Z</time>
      </trkpt>
      <trkpt lat="49.86861" lon="1.99296">
        <ele>93.7</ele>
        <time>2023-05-03T14:07:27Z</time>
      </trkpt>
      <trkpt lat="49.86861" lon="1.99296">
        <ele>93.7</ele>
        <time>2023-05-03T14:07:28Z</time>
      </trkpt>
      <trkpt lat="49.8686" lon="1.99297">
        <ele>93.7</ele>
        <time>2023-05-03T14:07:29Z</time>
      </trkpt>
      <trkpt lat="49.86859" lon="1.99297">
        <ele>93.7</ele>
        <time>2023-05-03T14:07:30Z</time>
      </trkpt>
      <trkpt lat="49.86858" lon="1.99298">
        <ele>93.4</ele>
        <time>2023-05-03T14:07:32Z</time>
      </trkpt>
      <trkpt lat="49.86858" lon="1.99298">
        <ele>93.4</ele>
        <time>2023-05-03T14:07:33Z</time>
      </trkpt>
      <trkpt lat="49.86857" lon="1.99299">
        <ele>93.4</ele>
        <time>2023-05-03T14:07:34Z</time>
      </trkpt>
      <trkpt lat="49.86856" lon="1.99299">
        <ele>93.4</ele>
        <time>2023-05-03T14:07:35Z</time>
      </trkpt>
      <trkpt lat="49.86855" lon="1.99299">
        <ele>93.1</ele>
        <time>2023-05-03T14:07:36Z</time>
      </trkpt>
      <trkpt lat="49.86854" lon="1.99299">
        <ele>92.8</ele>
        <time>2023-05-03T14:07:37Z</time>
      </trkpt>
      <trkpt lat="49.86852" lon="1.99299">
        <ele>92.8</ele>
        <time>2023-05-03T14:07:39Z</time>
      </trkpt>
      <trkpt lat="49.8685" lon="1.99299">
        <ele>92.5</ele>
        <time>2023-05-03T14:07:40Z</time>
      </trkpt>
      <trkpt lat="49.86849" lon="1.993">
        <ele>92.2</ele>
        <time>2023-05-03T14:07:41Z</time>
      </trkpt>
      <trkpt lat="49.86849" lon="1.99302">
        <ele>92.2</ele>
        <time>2023-05-03T14:07:43Z</time>
      </trkpt>
      <trkpt lat="49.86849" lon="1.99303">
        <ele>92.2</ele>
        <time>2023-05-03T14:07:44Z</time>
      </trkpt>
      <trkpt lat="49.86848" lon="1.99304">
        <ele>92</ele>
        <time>2023-05-03T14:07:45Z</time>
      </trkpt>
      <trkpt lat="49.86848" lon="1.99304">
        <ele>92</ele>
        <time>2023-05-03T14:07:47Z</time>
      </trkpt>
      <trkpt lat="49.86848" lon="1.99305">
        <ele>92</ele>
        <time>2023-05-03T14:07:48Z</time>
      </trkpt>
      <trkpt lat="49.86848" lon="1.99305">
        <ele>92</ele>
        <time>2023-05-03T14:07:50Z</time>
      </trkpt>
      <trkpt lat="49.86848" lon="1.99305">
        <ele>92</ele>
        <time>2023-05-03T14:07:51Z</time>
      </trkpt>
      <trkpt lat="49.86848" lon="1.99305">
        <ele>92</ele>
        <time>2023-05-03T14:07:52Z</time>
      </trkpt>
      <trkpt lat="49.86848" lon="1.99305">
        <ele>92</ele>
        <time>2023-05-03T14:07:54Z</time>
      </trkpt>
      <trkpt lat="49.86848" lon="1.99305">
        <ele>92</ele>
        <time>2023-05-03T14:07:55Z</time>
      </trkpt>
      <trkpt lat="49.86848" lon="1.99305">
        <ele>92</ele>
        <time>2023-05-03T14:07:56Z</time>
      </trkpt>
      <trkpt lat="49.86848" lon="1.99305">
        <ele>92</ele>
        <time>2023-05-03T14:07:58Z</time>
      </trkpt>
      <trkpt lat="49.86848" lon="1.99305">
        <ele>92</ele>
        <time>2023-05-03T14:07:59Z</time>
      </trkpt>
      <trkpt lat="49.86848" lon="1.99305">
        <ele>92</ele>
        <time>2023-05-03T14:08:00Z</time>
      </trkpt>
      <trkpt lat="49.86848" lon="1.99304">
        <ele>92</ele>
        <time>2023-05-03T14:08:01Z</time>
      </trkpt>
      <trkpt lat="49.86848" lon="1.99304">
        <ele>92</ele>
        <time>2023-05-03T14:08:02Z</time>
      </trkpt>
      <trkpt lat="49.86848" lon="1.99304">
        <ele>92</ele>
        <time>2023-05-03T14:08:03Z</time>
      </trkpt>
      <trkpt lat="49.86848" lon="1.99304">
        <ele>92</ele>
        <time>2023-05-03T14:08:04Z</time>
      </trkpt>
      <trkpt lat="49.86848" lon="1.99304">
        <ele>92</ele>
        <time>2023-05-03T14:08:05Z</time>
      </trkpt>
      <trkpt lat="49.86848" lon="1.99304">
        <ele>92</ele>
        <time>2023-05-03T14:08:06Z</time>
      </trkpt>
      <trkpt lat="49.86848" lon="1.99304">
        <ele>92</ele>
        <time>2023-05-03T14:08:07Z</time>
      </trkpt>
      <trkpt lat="49.86848" lon="1.99304">
        <ele>92</ele>
        <time>2023-05-03T14:08:08Z</time>
      </trkpt>
      <trkpt lat="49.86848" lon="1.99304">
        <ele>92</ele>
        <time>2023-05-03T14:08:09Z</time>
      </trkpt>
      <trkpt lat="49.86848" lon="1.99304">
        <ele>92</ele>
        <time>2023-05-03T14:08:10Z</time>
      </trkpt>
      <trkpt lat="49.86847" lon="1.99304">
        <ele>91.7</ele>
        <time>2023-05-03T14:08:11Z</time>
      </trkpt>
      <trkpt lat="49.86847" lon="1.99304">
        <ele>91.7</ele>
        <time>2023-05-03T14:08:12Z</time>
      </trkpt>
      <trkpt lat="49.86847" lon="1.99304">
        <ele>91.7</ele>
        <time>2023-05-03T14:08:13Z</time>
      </trkpt>
      <trkpt lat="49.86847" lon="1.99304">
        <ele>91.7</ele>
        <time>2023-05-03T14:08:14Z</time>
      </trkpt>
      <trkpt lat="49.86847" lon="1.99304">
        <ele>91.7</ele>
        <time>2023-05-03T14:08:15Z</time>
      </trkpt>
      <trkpt lat="49.86847" lon="1.99304">
        <ele>91.7</ele>
        <time>2023-05-03T14:08:16Z</time>
      </trkpt>
      <trkpt lat="49.86847" lon="1.99304">
        <ele>91.7</ele>
        <time>2023-05-03T14:08:17Z</time>
      </trkpt>
      <trkpt lat="49.86847" lon="1.99304">
        <ele>91.7</ele>
        <time>2023-05-03T14:08:18Z</time>
      </trkpt>
      <trkpt lat="49.86847" lon="1.99304">
        <ele>91.7</ele>
        <time>2023-05-03T14:08:19Z</time>
      </trkpt>
      <trkpt lat="49.86847" lon="1.99304">
        <ele>91.7</ele>
        <time>2023-05-03T14:08:20Z</time>
      </trkpt>
      <trkpt lat="49.86847" lon="1.99304">
        <ele>91.7</ele>
        <time>2023-05-03T14:08:21Z</time>
      </trkpt>
      <trkpt lat="49.86847" lon="1.99304">
        <ele>91.7</ele>
        <time>2023-05-03T14:08:22Z</time>
      </trkpt>
      <trkpt lat="49.86847" lon="1.99303">
        <ele>91.7</ele>
        <time>2023-05-03T14:08:23Z</time>
      </trkpt>
      <trkpt lat="49.86847" lon="1.99303">
        <ele>91.7</ele>
        <time>2023-05-03T14:08:24Z</time>
      </trkpt>
      <trkpt lat="49.86847" lon="1.99303">
        <ele>91.7</ele>
        <time>2023-05-03T14:08:25Z</time>
      </trkpt>
      <trkpt lat="49.86847" lon="1.99303">
        <ele>91.7</ele>
        <time>2023-05-03T14:08:26Z</time>
      </trkpt>
      <trkpt lat="49.86847" lon="1.99303">
        <ele>91.7</ele>
        <time>2023-05-03T14:08:27Z</time>
      </trkpt>
      <trkpt lat="49.86847" lon="1.99303">
        <ele>91.7</ele>
        <time>2023-05-03T14:08:28Z</time>
      </trkpt>
      <trkpt lat="49.86847" lon="1.99303">
        <ele>92</ele>
        <time>2023-05-03T14:08:29Z</time>
      </trkpt>
      <trkpt lat="49.86847" lon="1.99303">
        <ele>92</ele>
        <time>2023-05-03T14:08:30Z</time>
      </trkpt>
      <trkpt lat="49.86847" lon="1.99303">
        <ele>92</ele>
        <time>2023-05-03T14:08:31Z</time>
      </trkpt>
      <trkpt lat="49.86847" lon="1.99303">
        <ele>92</ele>
        <time>2023-05-03T14:08:32Z</time>
      </trkpt>
      <trkpt lat="49.86846" lon="1.99303">
        <ele>92</ele>
        <time>2023-05-03T14:08:33Z</time>
      </trkpt>
      <trkpt lat="49.86846" lon="1.99303">
        <ele>92</ele>
        <time>2023-05-03T14:08:34Z</time>
      </trkpt>
      <trkpt lat="49.86846" lon="1.99303">
        <ele>92</ele>
        <time>2023-05-03T14:08:35Z</time>
      </trkpt>
      <trkpt lat="49.86846" lon="1.99303">
        <ele>92</ele>
        <time>2023-05-03T14:08:36Z</time>
      </trkpt>
      <trkpt lat="49.86846" lon="1.99303">
        <ele>92</ele>
        <time>2023-05-03T14:08:37Z</time>
      </trkpt>
      <trkpt lat="49.86846" lon="1.99303">
        <ele>92</ele>
        <time>2023-05-03T14:08:38Z</time>
      </trkpt>
      <trkpt lat="49.86846" lon="1.99303">
        <ele>92</ele>
        <time>2023-05-03T14:08:39Z</time>
      </trkpt>
      <trkpt lat="49.86846" lon="1.99303">
        <ele>92</ele>
        <time>2023-05-03T14:08:40Z</time>
      </trkpt>
      <trkpt lat="49.86846" lon="1.99303">
        <ele>92</ele>
        <time>2023-05-03T14:08:41Z</time>
      </trkpt>
      <trkpt lat="49.86846" lon="1.99303">
        <ele>92</ele>
        <time>2023-05-03T14:08:42Z</time>
      </trkpt>
      <trkpt lat="49.86846" lon="1.99303">
        <ele>92</ele>
        <time>2023-05-03T14:08:43Z</time>
      </trkpt>
      <trkpt lat="49.86846" lon="1.99303">
        <ele>92</ele>
        <time>2023-05-03T14:08:44Z</time>
      </trkpt>
      <trkpt lat="49.86846" lon="1.99302">
        <ele>92</ele>
        <time>2023-05-03T14:08:45Z</time>
      </trkpt>
      <trkpt lat="49.86846" lon="1.99302">
        <ele>92</ele>
        <time>2023-05-03T14:08:46Z</time>
      </trkpt>
      <trkpt lat="49.86846" lon="1.99302">
        <ele>92</ele>
        <time>2023-05-03T14:08:47Z</time>
      </trkpt>
      <trkpt lat="49.86846" lon="1.99302">
        <ele>92</ele>
        <time>2023-05-03T14:08:48Z</time>
      </trkpt>
      <trkpt lat="49.86846" lon="1.99302">
        <ele>92</ele>
        <time>2023-05-03T14:08:49Z</time>
      </trkpt>
      <trkpt lat="49.86846" lon="1.99302">
        <ele>92</ele>
        <time>2023-05-03T14:08:50Z</time>
      </trkpt>
      <trkpt lat="49.86846" lon="1.99302">
        <ele>92</ele>
        <time>2023-05-03T14:08:51Z</time>
      </trkpt>
      <trkpt lat="49.86846" lon="1.99302">
        <ele>92</ele>
        <time>2023-05-03T14:08:52Z</time>
      </trkpt>
      <trkpt lat="49.86846" lon="1.99302">
        <ele>92</ele>
        <time>2023-05-03T14:08:53Z</time>
      </trkpt>
      <trkpt lat="49.86845" lon="1.99302">
        <ele>92</ele>
        <time>2023-05-03T14:08:54Z</time>
      </trkpt>
      <trkpt lat="49.86845" lon="1.99302">
        <ele>92</ele>
        <time>2023-05-03T14:08:55Z</time>
      </trkpt>
      <trkpt lat="49.86845" lon="1.99302">
        <ele>92</ele>
        <time>2023-05-03T14:08:56Z</time>
      </trkpt>
      <trkpt lat="49.86845" lon="1.99302">
        <ele>92</ele>
        <time>2023-05-03T14:08:57Z</time>
      </trkpt>
      <trkpt lat="49.86845" lon="1.99302">
        <ele>92</ele>
        <time>2023-05-03T14:08:58Z</time>
      </trkpt>
      <trkpt lat="49.86845" lon="1.99302">
        <ele>92</ele>
        <time>2023-05-03T14:08:59Z</time>
      </trkpt>
      <trkpt lat="49.86845" lon="1.99302">
        <ele>92</ele>
        <time>2023-05-03T14:09:00Z</time>
      </trkpt>
      <trkpt lat="49.86845" lon="1.99303">
        <ele>92</ele>
        <time>2023-05-03T14:09:01Z</time>
      </trkpt>
      <trkpt lat="49.86845" lon="1.99303">
        <ele>92</ele>
        <time>2023-05-03T14:09:02Z</time>
      </trkpt>
      <trkpt lat="49.86846" lon="1.99304">
        <ele>91.7</ele>
        <time>2023-05-03T14:09:03Z</time>
      </trkpt>
      <trkpt lat="49.86846" lon="1.99305">
        <ele>91.7</ele>
        <time>2023-05-03T14:09:04Z</time>
      </trkpt>
      <trkpt lat="49.86846" lon="1.99305">
        <ele>91.7</ele>
        <time>2023-05-03T14:09:05Z</time>
      </trkpt>
      <trkpt lat="49.86846" lon="1.99305">
        <ele>91.7</ele>
        <time>2023-05-03T14:09:06Z</time>
      </trkpt>
      <trkpt lat="49.86846" lon="1.99306">
        <ele>91.7</ele>
        <time>2023-05-03T14:09:08Z</time>
      </trkpt>
      <trkpt lat="49.86847" lon="1.99306">
        <ele>91.7</ele>
        <time>2023-05-03T14:09:10Z</time>
      </trkpt>
      <trkpt lat="49.86847" lon="1.99306">
        <ele>91.7</ele>
        <time>2023-05-03T14:09:11Z</time>
      </trkpt>
      <trkpt lat="49.86847" lon="1.99306">
        <ele>91.7</ele>
        <time>2023-05-03T14:09:12Z</time>
      </trkpt>
      <trkpt lat="49.86847" lon="1.99305">
        <ele>91.7</ele>
        <time>2023-05-03T14:09:14Z</time>
      </trkpt>
      <trkpt lat="49.86847" lon="1.99305">
        <ele>91.7</ele>
        <time>2023-05-03T14:09:15Z</time>
      </trkpt>
      <trkpt lat="49.86847" lon="1.99305">
        <ele>91.7</ele>
        <time>2023-05-03T14:09:17Z</time>
      </trkpt>
      <trkpt lat="49.86847" lon="1.99305">
        <ele>91.7</ele>
        <time>2023-05-03T14:09:18Z</time>
      </trkpt>
      <trkpt lat="49.86847" lon="1.99305">
        <ele>91.7</ele>
        <time>2023-05-03T14:09:19Z</time>
      </trkpt>
      <trkpt lat="49.86847" lon="1.99306">
        <ele>91.7</ele>
        <time>2023-05-03T14:09:21Z</time>
      </trkpt>
      <trkpt lat="49.86847" lon="1.99306">
        <ele>91.7</ele>
        <time>2023-05-03T14:09:22Z</time>
      </trkpt>
      <trkpt lat="49.86847" lon="1.99306">
        <ele>91.7</ele>
        <time>2023-05-03T14:09:23Z</time>
      </trkpt>
      <trkpt lat="49.86846" lon="1.99304">
        <ele>91.7</ele>
        <time>2023-05-03T14:09:24Z</time>
      </trkpt>
      <trkpt lat="49.86846" lon="1.99304">
        <ele>91.7</ele>
        <time>2023-05-03T14:09:25Z</time>
      </trkpt>
      <trkpt lat="49.86846" lon="1.99304">
        <ele>91.7</ele>
        <time>2023-05-03T14:09:26Z</time>
      </trkpt>
      <trkpt lat="49.86846" lon="1.99305">
        <ele>91.7</ele>
        <time>2023-05-03T14:09:27Z</time>
      </trkpt>
      <trkpt lat="49.86846" lon="1.99305">
        <ele>91.7</ele>
        <time>2023-05-03T14:09:28Z</time>
      </trkpt>
      <trkpt lat="49.86846" lon="1.99305">
        <ele>91.7</ele>
        <time>2023-05-03T14:09:29Z</time>
      </trkpt>
      <trkpt lat="49.86846" lon="1.99306">
        <ele>91.7</ele>
        <time>2023-05-03T14:09:30Z</time>
      </trkpt>
      <trkpt lat="49.86846" lon="1.99306">
        <ele>91.7</ele>
        <time>2023-05-03T14:09:31Z</time>
      </trkpt>
      <trkpt lat="49.86846" lon="1.99307">
        <ele>91.7</ele>
        <time>2023-05-03T14:09:32Z</time>
      </trkpt>
      <trkpt lat="49.86846" lon="1.99308">
        <ele>91.4</ele>
        <time>2023-05-03T14:09:33Z</time>
      </trkpt>
      <trkpt lat="49.86846" lon="1.99308">
        <ele>91.4</ele>
        <time>2023-05-03T14:09:34Z</time>
      </trkpt>
      <trkpt lat="49.86846" lon="1.99308">
        <ele>91.4</ele>
        <time>2023-05-03T14:09:35Z</time>
      </trkpt>
      <trkpt lat="49.86846" lon="1.99309">
        <ele>91.4</ele>
        <time>2023-05-03T14:09:37Z</time>
      </trkpt>
      <trkpt lat="49.86846" lon="1.9931">
        <ele>91.4</ele>
        <time>2023-05-03T14:09:39Z</time>
      </trkpt>
      <trkpt lat="49.86846" lon="1.99311">
        <ele>91.4</ele>
        <time>2023-05-03T14:09:40Z</time>
      </trkpt>
      <trkpt lat="49.86847" lon="1.99312">
        <ele>91.1</ele>
        <time>2023-05-03T14:09:41Z</time>
      </trkpt>
      <trkpt lat="49.86847" lon="1.99313">
        <ele>91.1</ele>
        <time>2023-05-03T14:09:42Z</time>
      </trkpt>
      <trkpt lat="49.86847" lon="1.99314">
        <ele>91.1</ele>
        <time>2023-05-03T14:09:43Z</time>
      </trkpt>
      <trkpt lat="49.86848" lon="1.99316">
        <ele>91.4</ele>
        <time>2023-05-03T14:09:44Z</time>
      </trkpt>
      <trkpt lat="49.86848" lon="1.99317">
        <ele>91.1</ele>
        <time>2023-05-03T14:09:46Z</time>
      </trkpt>
      <trkpt lat="49.86849" lon="1.99318">
        <ele>91.1</ele>
        <time>2023-05-03T14:09:47Z</time>
      </trkpt>
      <trkpt lat="49.86849" lon="1.99319">
        <ele>91.1</ele>
        <time>2023-05-03T14:09:48Z</time>
      </trkpt>
      <trkpt lat="49.86849" lon="1.99321">
        <ele>90.8</ele>
        <time>2023-05-03T14:09:49Z</time>
      </trkpt>
      <trkpt lat="49.8685" lon="1.99322">
        <ele>90.8</ele>
        <time>2023-05-03T14:09:50Z</time>
      </trkpt>
      <trkpt lat="49.8685" lon="1.99324">
        <ele>91.1</ele>
        <time>2023-05-03T14:09:51Z</time>
      </trkpt>
      <trkpt lat="49.86851" lon="1.99325">
        <ele>90.8</ele>
        <time>2023-05-03T14:09:52Z</time>
      </trkpt>
      <trkpt lat="49.86851" lon="1.99328">
        <ele>90.8</ele>
        <time>2023-05-03T14:09:54Z</time>
      </trkpt>
      <trkpt lat="49.8685" lon="1.9933">
        <ele>90.4</ele>
        <time>2023-05-03T14:09:55Z</time>
      </trkpt>
      <trkpt lat="49.86851" lon="1.99332">
        <ele>90.4</ele>
        <time>2023-05-03T14:09:56Z</time>
      </trkpt>
      <trkpt lat="49.86851" lon="1.99334">
        <ele>90.1</ele>
        <time>2023-05-03T14:09:57Z</time>
      </trkpt>
      <trkpt lat="49.86851" lon="1.99335">
        <ele>90.1</ele>
        <time>2023-05-03T14:09:58Z</time>
      </trkpt>
      <trkpt lat="49.86851" lon="1.99337">
        <ele>90.1</ele>
        <time>2023-05-03T14:09:59Z</time>
      </trkpt>
      <trkpt lat="49.86851" lon="1.99339">
        <ele>89.8</ele>
        <time>2023-05-03T14:10:00Z</time>
      </trkpt>
      <trkpt lat="49.86852" lon="1.9934">
        <ele>89.8</ele>
        <time>2023-05-03T14:10:01Z</time>
      </trkpt>
      <trkpt lat="49.86852" lon="1.99342">
        <ele>89.5</ele>
        <time>2023-05-03T14:10:02Z</time>
      </trkpt>
      <trkpt lat="49.86852" lon="1.99346">
        <ele>89.5</ele>
        <time>2023-05-03T14:10:03Z</time>
      </trkpt>
      <trkpt lat="49.86852" lon="1.99347">
        <ele>89.2</ele>
        <time>2023-05-03T14:10:05Z</time>
      </trkpt>
      <trkpt lat="49.86852" lon="1.99349">
        <ele>89.2</ele>
        <time>2023-05-03T14:10:06Z</time>
      </trkpt>
      <trkpt lat="49.86852" lon="1.9935">
        <ele>88.8</ele>
        <time>2023-05-03T14:10:07Z</time>
      </trkpt>
      <trkpt lat="49.86851" lon="1.99352">
        <ele>88.8</ele>
        <time>2023-05-03T14:10:08Z</time>
      </trkpt>
      <trkpt lat="49.86852" lon="1.99354">
        <ele>88.8</ele>
        <time>2023-05-03T14:10:10Z</time>
      </trkpt>
      <trkpt lat="49.86852" lon="1.99356">
        <ele>88.5</ele>
        <time>2023-05-03T14:10:11Z</time>
      </trkpt>
      <trkpt lat="49.86853" lon="1.99358">
        <ele>88.5</ele>
        <time>2023-05-03T14:10:12Z</time>
      </trkpt>
      <trkpt lat="49.86853" lon="1.99359">
        <ele>88.5</ele>
        <time>2023-05-03T14:10:13Z</time>
      </trkpt>
      <trkpt lat="49.86854" lon="1.99361">
        <ele>88.5</ele>
        <time>2023-05-03T14:10:15Z</time>
      </trkpt>
      <trkpt lat="49.86854" lon="1.99363">
        <ele>88.5</ele>
        <time>2023-05-03T14:10:16Z</time>
      </trkpt>
      <trkpt lat="49.86855" lon="1.99365">
        <ele>88.1</ele>
        <time>2023-05-03T14:10:17Z</time>
      </trkpt>
      <trkpt lat="49.86855" lon="1.99366">
        <ele>88.1</ele>
        <time>2023-05-03T14:10:18Z</time>
      </trkpt>
      <trkpt lat="49.86855" lon="1.99367">
        <ele>88.1</ele>
        <time>2023-05-03T14:10:19Z</time>
      </trkpt>
      <trkpt lat="49.86856" lon="1.99369">
        <ele>88.1</ele>
        <time>2023-05-03T14:10:20Z</time>
      </trkpt>
      <trkpt lat="49.86856" lon="1.9937">
        <ele>88.1</ele>
        <time>2023-05-03T14:10:21Z</time>
      </trkpt>
      <trkpt lat="49.86857" lon="1.99372">
        <ele>88.1</ele>
        <time>2023-05-03T14:10:23Z</time>
      </trkpt>
      <trkpt lat="49.86857" lon="1.99373">
        <ele>87.7</ele>
        <time>2023-05-03T14:10:24Z</time>
      </trkpt>
      <trkpt lat="49.86858" lon="1.99375">
        <ele>87.7</ele>
        <time>2023-05-03T14:10:25Z</time>
      </trkpt>
      <trkpt lat="49.86858" lon="1.99377">
        <ele>87.4</ele>
        <time>2023-05-03T14:10:26Z</time>
      </trkpt>
      <trkpt lat="49.86858" lon="1.99378">
        <ele>87.4</ele>
        <time>2023-05-03T14:10:27Z</time>
      </trkpt>
      <trkpt lat="49.86859" lon="1.9938">
        <ele>87.7</ele>
        <time>2023-05-03T14:10:28Z</time>
      </trkpt>
      <trkpt lat="49.86859" lon="1.99383">
        <ele>87.3</ele>
        <time>2023-05-03T14:10:30Z</time>
      </trkpt>
      <trkpt lat="49.8686" lon="1.99384">
        <ele>87.3</ele>
        <time>2023-05-03T14:10:31Z</time>
      </trkpt>
      <trkpt lat="49.8686" lon="1.99388">
        <ele>87</ele>
        <time>2023-05-03T14:10:32Z</time>
      </trkpt>
      <trkpt lat="49.86861" lon="1.99389">
        <ele>86.6</ele>
        <time>2023-05-03T14:10:33Z</time>
      </trkpt>
      <trkpt lat="49.86861" lon="1.9939">
        <ele>86.6</ele>
        <time>2023-05-03T14:10:34Z</time>
      </trkpt>
      <trkpt lat="49.86862" lon="1.99394">
        <ele>86.6</ele>
        <time>2023-05-03T14:10:36Z</time>
      </trkpt>
      <trkpt lat="49.86862" lon="1.99395">
        <ele>86.6</ele>
        <time>2023-05-03T14:10:37Z</time>
      </trkpt>
      <trkpt lat="49.86863" lon="1.99396">
        <ele>86.6</ele>
        <time>2023-05-03T14:10:38Z</time>
      </trkpt>
      <trkpt lat="49.86864" lon="1.99399">
        <ele>86.2</ele>
        <time>2023-05-03T14:10:39Z</time>
      </trkpt>
      <trkpt lat="49.86864" lon="1.994">
        <ele>86.2</ele>
        <time>2023-05-03T14:10:40Z</time>
      </trkpt>
      <trkpt lat="49.86864" lon="1.99402">
        <ele>86.5</ele>
        <time>2023-05-03T14:10:41Z</time>
      </trkpt>
      <trkpt lat="49.86865" lon="1.99404">
        <ele>86.2</ele>
        <time>2023-05-03T14:10:43Z</time>
      </trkpt>
      <trkpt lat="49.86865" lon="1.99405">
        <ele>86.2</ele>
        <time>2023-05-03T14:10:44Z</time>
      </trkpt>
      <trkpt lat="49.86865" lon="1.99407">
        <ele>85.8</ele>
        <time>2023-05-03T14:10:45Z</time>
      </trkpt>
      <trkpt lat="49.86866" lon="1.9941">
        <ele>85.8</ele>
        <time>2023-05-03T14:10:46Z</time>
      </trkpt>
      <trkpt lat="49.86867" lon="1.99411">
        <ele>85.4</ele>
        <time>2023-05-03T14:10:47Z</time>
      </trkpt>
      <trkpt lat="49.86867" lon="1.99412">
        <ele>85.7</ele>
        <time>2023-05-03T14:10:48Z</time>
      </trkpt>
      <trkpt lat="49.86867" lon="1.99414">
        <ele>85.7</ele>
        <time>2023-05-03T14:10:49Z</time>
      </trkpt>
      <trkpt lat="49.86868" lon="1.99416">
        <ele>85.4</ele>
        <time>2023-05-03T14:10:50Z</time>
      </trkpt>
      <trkpt lat="49.86869" lon="1.99418">
        <ele>85.4</ele>
        <time>2023-05-03T14:10:52Z</time>
      </trkpt>
      <trkpt lat="49.86869" lon="1.9942">
        <ele>85</ele>
        <time>2023-05-03T14:10:53Z</time>
      </trkpt>
      <trkpt lat="49.8687" lon="1.99422">
        <ele>85.3</ele>
        <time>2023-05-03T14:10:54Z</time>
      </trkpt>
      <trkpt lat="49.8687" lon="1.99424">
        <ele>84.9</ele>
        <time>2023-05-03T14:10:56Z</time>
      </trkpt>
      <trkpt lat="49.86871" lon="1.99425">
        <ele>84.9</ele>
        <time>2023-05-03T14:10:57Z</time>
      </trkpt>
      <trkpt lat="49.86871" lon="1.99426">
        <ele>84.9</ele>
        <time>2023-05-03T14:10:58Z</time>
      </trkpt>
      <trkpt lat="49.86872" lon="1.99428">
        <ele>84.9</ele>
        <time>2023-05-03T14:10:59Z</time>
      </trkpt>
      <trkpt lat="49.86872" lon="1.99429">
        <ele>84.6</ele>
        <time>2023-05-03T14:11:00Z</time>
      </trkpt>
      <trkpt lat="49.86872" lon="1.99432">
        <ele>84.9</ele>
        <time>2023-05-03T14:11:02Z</time>
      </trkpt>
      <trkpt lat="49.86873" lon="1.99434">
        <ele>84.5</ele>
        <time>2023-05-03T14:11:03Z</time>
      </trkpt>
      <trkpt lat="49.86872" lon="1.99435">
        <ele>84.5</ele>
        <time>2023-05-03T14:11:05Z</time>
      </trkpt>
      <trkpt lat="49.86872" lon="1.99437">
        <ele>83.8</ele>
        <time>2023-05-03T14:11:06Z</time>
      </trkpt>
      <trkpt lat="49.86872" lon="1.99438">
        <ele>83.8</ele>
        <time>2023-05-03T14:11:07Z</time>
      </trkpt>
      <trkpt lat="49.86872" lon="1.9944">
        <ele>83.8</ele>
        <time>2023-05-03T14:11:08Z</time>
      </trkpt>
      <trkpt lat="49.86872" lon="1.99441">
        <ele>83.4</ele>
        <time>2023-05-03T14:11:09Z</time>
      </trkpt>
      <trkpt lat="49.86872" lon="1.99443">
        <ele>83.4</ele>
        <time>2023-05-03T14:11:10Z</time>
      </trkpt>
      <trkpt lat="49.86872" lon="1.99445">
        <ele>83.4</ele>
        <time>2023-05-03T14:11:11Z</time>
      </trkpt>
      <trkpt lat="49.86872" lon="1.99447">
        <ele>83</ele>
        <time>2023-05-03T14:11:13Z</time>
      </trkpt>
      <trkpt lat="49.86872" lon="1.99448">
        <ele>83</ele>
        <time>2023-05-03T14:11:14Z</time>
      </trkpt>
      <trkpt lat="49.86871" lon="1.9945">
        <ele>82.6</ele>
        <time>2023-05-03T14:11:15Z</time>
      </trkpt>
      <trkpt lat="49.86871" lon="1.99452">
        <ele>82.6</ele>
        <time>2023-05-03T14:11:16Z</time>
      </trkpt>
      <trkpt lat="49.86871" lon="1.99453">
        <ele>82.6</ele>
        <time>2023-05-03T14:11:17Z</time>
      </trkpt>
      <trkpt lat="49.86871" lon="1.99455">
        <ele>82.2</ele>
        <time>2023-05-03T14:11:18Z</time>
      </trkpt>
      <trkpt lat="49.86871" lon="1.99456">
        <ele>82.2</ele>
        <time>2023-05-03T14:11:19Z</time>
      </trkpt>
      <trkpt lat="49.86871" lon="1.99459">
        <ele>81.7</ele>
        <time>2023-05-03T14:11:20Z</time>
      </trkpt>
      <trkpt lat="49.86871" lon="1.9946">
        <ele>81.7</ele>
        <time>2023-05-03T14:11:21Z</time>
      </trkpt>
      <trkpt lat="49.86871" lon="1.99462">
        <ele>81.7</ele>
        <time>2023-05-03T14:11:23Z</time>
      </trkpt>
      <trkpt lat="49.86872" lon="1.99463">
        <ele>81.3</ele>
        <time>2023-05-03T14:11:24Z</time>
      </trkpt>
      <trkpt lat="49.86872" lon="1.99464">
        <ele>81.3</ele>
        <time>2023-05-03T14:11:25Z</time>
      </trkpt>
      <trkpt lat="49.86872" lon="1.99466">
        <ele>81.3</ele>
        <time>2023-05-03T14:11:26Z</time>
      </trkpt>
      <trkpt lat="49.86872" lon="1.99467">
        <ele>80.9</ele>
        <time>2023-05-03T14:11:27Z</time>
      </trkpt>
      <trkpt lat="49.86872" lon="1.99468">
        <ele>80.9</ele>
        <time>2023-05-03T14:11:28Z</time>
      </trkpt>
      <trkpt lat="49.86872" lon="1.99469">
        <ele>80.9</ele>
        <time>2023-05-03T14:11:29Z</time>
      </trkpt>
      <trkpt lat="49.86872" lon="1.99471">
        <ele>80.5</ele>
        <time>2023-05-03T14:11:30Z</time>
      </trkpt>
      <trkpt lat="49.86872" lon="1.99472">
        <ele>80.5</ele>
        <time>2023-05-03T14:11:32Z</time>
      </trkpt>
      <trkpt lat="49.86872" lon="1.99473">
        <ele>80.5</ele>
        <time>2023-05-03T14:11:34Z</time>
      </trkpt>
      <trkpt lat="49.86872" lon="1.99473">
        <ele>80.5</ele>
        <time>2023-05-03T14:11:35Z</time>
      </trkpt>
      <trkpt lat="49.86872" lon="1.99473">
        <ele>80.5</ele>
        <time>2023-05-03T14:11:36Z</time>
      </trkpt>
      <trkpt lat="49.86872" lon="1.99473">
        <ele>80.5</ele>
        <time>2023-05-03T14:11:38Z</time>
      </trkpt>
      <trkpt lat="49.86872" lon="1.99473">
        <ele>80.5</ele>
        <time>2023-05-03T14:11:39Z</time>
      </trkpt>
      <trkpt lat="49.86872" lon="1.99473">
        <ele>80.5</ele>
        <time>2023-05-03T14:11:40Z</time>
      </trkpt>
      <trkpt lat="49.86872" lon="1.99473">
        <ele>80.5</ele>
        <time>2023-05-03T14:11:42Z</time>
      </trkpt>
      <trkpt lat="49.86872" lon="1.99473">
        <ele>80.5</ele>
        <time>2023-05-03T14:11:43Z</time>
      </trkpt>
      <trkpt lat="49.86872" lon="1.99473">
        <ele>80.5</ele>
        <time>2023-05-03T14:11:44Z</time>
      </trkpt>
      <trkpt lat="49.86872" lon="1.99473">
        <ele>80.5</ele>
        <time>2023-05-03T14:11:46Z</time>
      </trkpt>
      <trkpt lat="49.86872" lon="1.99473">
        <ele>80.5</ele>
        <time>2023-05-03T14:11:47Z</time>
      </trkpt>
      <trkpt lat="49.86872" lon="1.99473">
        <ele>80.5</ele>
        <time>2023-05-03T14:11:48Z</time>
      </trkpt>
      <trkpt lat="49.86872" lon="1.99473">
        <ele>80.5</ele>
        <time>2023-05-03T14:11:49Z</time>
      </trkpt>
      <trkpt lat="49.86871" lon="1.99473">
        <ele>80.5</ele>
        <time>2023-05-03T14:11:51Z</time>
      </trkpt>
      <trkpt lat="49.86871" lon="1.99473">
        <ele>80.5</ele>
        <time>2023-05-03T14:11:52Z</time>
      </trkpt>
      <trkpt lat="49.86871" lon="1.99473">
        <ele>80.5</ele>
        <time>2023-05-03T14:11:53Z</time>
      </trkpt>
      <trkpt lat="49.86871" lon="1.99474">
        <ele>80.5</ele>
        <time>2023-05-03T14:11:55Z</time>
      </trkpt>
      <trkpt lat="49.8687" lon="1.99474">
        <ele>80.5</ele>
        <time>2023-05-03T14:11:56Z</time>
      </trkpt>
      <trkpt lat="49.8687" lon="1.99474">
        <ele>80.5</ele>
        <time>2023-05-03T14:11:58Z</time>
      </trkpt>
      <trkpt lat="49.86869" lon="1.99475">
        <ele>80.2</ele>
        <time>2023-05-03T14:11:59Z</time>
      </trkpt>
      <trkpt lat="49.86869" lon="1.99475">
        <ele>79.8</ele>
        <time>2023-05-03T14:12:00Z</time>
      </trkpt>
      <trkpt lat="49.86868" lon="1.99475">
        <ele>79.8</ele>
        <time>2023-05-03T14:12:01Z</time>
      </trkpt>
      <trkpt lat="49.86868" lon="1.99476">
        <ele>79.8</ele>
        <time>2023-05-03T14:12:02Z</time>
      </trkpt>
      <trkpt lat="49.86868" lon="1.99476">
        <ele>79.8</ele>
        <time>2023-05-03T14:12:04Z</time>
      </trkpt>
      <trkpt lat="49.86867" lon="1.99477">
        <ele>79.8</ele>
        <time>2023-05-03T14:12:05Z</time>
      </trkpt>
      <trkpt lat="49.86867" lon="1.99477">
        <ele>79.8</ele>
        <time>2023-05-03T14:12:06Z</time>
      </trkpt>
      <trkpt lat="49.86867" lon="1.99478">
        <ele>79.8</ele>
        <time>2023-05-03T14:12:07Z</time>
      </trkpt>
      <trkpt lat="49.86868" lon="1.99479">
        <ele>79.8</ele>
        <time>2023-05-03T14:12:08Z</time>
      </trkpt>
      <trkpt lat="49.86869" lon="1.99479">
        <ele>79.7</ele>
        <time>2023-05-03T14:12:09Z</time>
      </trkpt>
      <trkpt lat="49.8687" lon="1.99479">
        <ele>79.7</ele>
        <time>2023-05-03T14:12:11Z</time>
      </trkpt>
      <trkpt lat="49.8687" lon="1.99479">
        <ele>79.7</ele>
        <time>2023-05-03T14:12:12Z</time>
      </trkpt>
      <trkpt lat="49.86871" lon="1.99479">
        <ele>79.7</ele>
        <time>2023-05-03T14:12:13Z</time>
      </trkpt>
      <trkpt lat="49.86872" lon="1.9948">
        <ele>79.7</ele>
        <time>2023-05-03T14:12:14Z</time>
      </trkpt>
      <trkpt lat="49.86872" lon="1.9948">
        <ele>79.7</ele>
        <time>2023-05-03T14:12:16Z</time>
      </trkpt>
      <trkpt lat="49.86872" lon="1.99481">
        <ele>79.7</ele>
        <time>2023-05-03T14:12:17Z</time>
      </trkpt>
      <trkpt lat="49.86872" lon="1.99481">
        <ele>79.7</ele>
        <time>2023-05-03T14:12:19Z</time>
      </trkpt>
      <trkpt lat="49.86872" lon="1.99481">
        <ele>79.7</ele>
        <time>2023-05-03T14:12:20Z</time>
      </trkpt>
      <trkpt lat="49.86872" lon="1.99481">
        <ele>79.7</ele>
        <time>2023-05-03T14:12:21Z</time>
      </trkpt>
      <trkpt lat="49.86872" lon="1.99481">
        <ele>79.7</ele>
        <time>2023-05-03T14:12:23Z</time>
      </trkpt>
      <trkpt lat="49.86872" lon="1.99481">
        <ele>79.7</ele>
        <time>2023-05-03T14:12:24Z</time>
      </trkpt>
      <trkpt lat="49.86872" lon="1.99481">
        <ele>79.7</ele>
        <time>2023-05-03T14:12:25Z</time>
      </trkpt>
      <trkpt lat="49.86872" lon="1.99481">
        <ele>79.7</ele>
        <time>2023-05-03T14:12:27Z</time>
      </trkpt>
      <trkpt lat="49.86872" lon="1.99481">
        <ele>79.7</ele>
        <time>2023-05-03T14:12:28Z</time>
      </trkpt>
      <trkpt lat="49.86872" lon="1.99481">
        <ele>79.7</ele>
        <time>2023-05-03T14:12:29Z</time>
      </trkpt>
      <trkpt lat="49.86872" lon="1.99481">
        <ele>79.7</ele>
        <time>2023-05-03T14:12:31Z</time>
      </trkpt>
      <trkpt lat="49.86872" lon="1.99481">
        <ele>79.7</ele>
        <time>2023-05-03T14:12:32Z</time>
      </trkpt>
      <trkpt lat="49.86872" lon="1.9948">
        <ele>79.6</ele>
        <time>2023-05-03T14:12:33Z</time>
      </trkpt>
      <trkpt lat="49.86872" lon="1.9948">
        <ele>79.6</ele>
        <time>2023-05-03T14:12:34Z</time>
      </trkpt>
      <trkpt lat="49.86872" lon="1.9948">
        <ele>79.6</ele>
        <time>2023-05-03T14:12:35Z</time>
      </trkpt>
      <trkpt lat="49.86872" lon="1.9948">
        <ele>79.6</ele>
        <time>2023-05-03T14:12:36Z</time>
      </trkpt>
      <trkpt lat="49.86872" lon="1.9948">
        <ele>79.6</ele>
        <time>2023-05-03T14:12:37Z</time>
      </trkpt>
      <trkpt lat="49.86872" lon="1.9948">
        <ele>79.6</ele>
        <time>2023-05-03T14:12:38Z</time>
      </trkpt>
      <trkpt lat="49.86872" lon="1.9948">
        <ele>79.6</ele>
        <time>2023-05-03T14:12:39Z</time>
      </trkpt>
      <trkpt lat="49.86872" lon="1.9948">
        <ele>79.6</ele>
        <time>2023-05-03T14:12:40Z</time>
      </trkpt>
      <trkpt lat="49.86872" lon="1.9948">
        <ele>79.6</ele>
        <time>2023-05-03T14:12:41Z</time>
      </trkpt>
      <trkpt lat="49.86872" lon="1.9948">
        <ele>79.6</ele>
        <time>2023-05-03T14:12:42Z</time>
      </trkpt>
      <trkpt lat="49.86872" lon="1.9948">
        <ele>79.6</ele>
        <time>2023-05-03T14:12:43Z</time>
      </trkpt>
      <trkpt lat="49.86872" lon="1.9948">
        <ele>79.6</ele>
        <time>2023-05-03T14:12:44Z</time>
      </trkpt>
      <trkpt lat="49.86872" lon="1.9948">
        <ele>79.6</ele>
        <time>2023-05-03T14:12:45Z</time>
      </trkpt>
      <trkpt lat="49.86872" lon="1.9948">
        <ele>79.6</ele>
        <time>2023-05-03T14:12:46Z</time>
      </trkpt>
      <trkpt lat="49.86872" lon="1.9948">
        <ele>79.6</ele>
        <time>2023-05-03T14:12:47Z</time>
      </trkpt>
      <trkpt lat="49.86872" lon="1.9948">
        <ele>79.6</ele>
        <time>2023-05-03T14:12:48Z</time>
      </trkpt>
      <trkpt lat="49.86872" lon="1.9948">
        <ele>79.6</ele>
        <time>2023-05-03T14:12:49Z</time>
      </trkpt>
      <trkpt lat="49.86872" lon="1.9948">
        <ele>79.6</ele>
        <time>2023-05-03T14:12:50Z</time>
      </trkpt>
      <trkpt lat="49.86872" lon="1.9948">
        <ele>79.6</ele>
        <time>2023-05-03T14:12:51Z</time>
      </trkpt>
      <trkpt lat="49.86872" lon="1.9948">
        <ele>79.6</ele>
        <time>2023-05-03T14:12:52Z</time>
      </trkpt>
      <trkpt lat="49.86872" lon="1.9948">
        <ele>79.6</ele>
        <time>2023-05-03T14:12:53Z</time>
      </trkpt>
      <trkpt lat="49.86872" lon="1.9948">
        <ele>79.6</ele>
        <time>2023-05-03T14:12:54Z</time>
      </trkpt>
      <trkpt lat="49.86872" lon="1.9948">
        <ele>79.6</ele>
        <time>2023-05-03T14:12:55Z</time>
      </trkpt>
      <trkpt lat="49.86872" lon="1.9948">
        <ele>79.6</ele>
        <time>2023-05-03T14:12:56Z</time>
      </trkpt>
      <trkpt lat="49.86872" lon="1.9948">
        <ele>79.6</ele>
        <time>2023-05-03T14:12:57Z</time>
      </trkpt>
      <trkpt lat="49.86872" lon="1.9948">
        <ele>79.6</ele>
        <time>2023-05-03T14:12:58Z</time>
      </trkpt>
      <trkpt lat="49.86872" lon="1.9948">
        <ele>79.6</ele>
        <time>2023-05-03T14:12:59Z</time>
      </trkpt>
      <trkpt lat="49.86872" lon="1.9948">
        <ele>79.6</ele>
        <time>2023-05-03T14:13:00Z</time>
      </trkpt>
      <trkpt lat="49.86872" lon="1.9948">
        <ele>79.6</ele>
        <time>2023-05-03T14:13:01Z</time>
      </trkpt>
      <trkpt lat="49.86872" lon="1.9948">
        <ele>79.6</ele>
        <time>2023-05-03T14:13:02Z</time>
      </trkpt>
      <trkpt lat="49.86872" lon="1.9948">
        <ele>79.6</ele>
        <time>2023-05-03T14:13:03Z</time>
      </trkpt>
      <trkpt lat="49.86872" lon="1.9948">
        <ele>79.6</ele>
        <time>2023-05-03T14:13:04Z</time>
      </trkpt>
      <trkpt lat="49.86872" lon="1.9948">
        <ele>79.6</ele>
        <time>2023-05-03T14:13:05Z</time>
      </trkpt>
      <trkpt lat="49.86872" lon="1.9948">
        <ele>79.6</ele>
        <time>2023-05-03T14:13:06Z</time>
      </trkpt>
      <trkpt lat="49.86872" lon="1.9948">
        <ele>79.6</ele>
        <time>2023-05-03T14:13:07Z</time>
      </trkpt>
      <trkpt lat="49.86872" lon="1.9948">
        <ele>79.6</ele>
        <time>2023-05-03T14:13:08Z</time>
      </trkpt>
      <trkpt lat="49.86872" lon="1.9948">
        <ele>79.6</ele>
        <time>2023-05-03T14:13:09Z</time>
      </trkpt>
      <trkpt lat="49.86872" lon="1.9948">
        <ele>79.6</ele>
        <time>2023-05-03T14:13:10Z</time>
      </trkpt>
      <trkpt lat="49.86872" lon="1.9948">
        <ele>79.6</ele>
        <time>2023-05-03T14:13:11Z</time>
      </trkpt>
      <trkpt lat="49.86872" lon="1.9948">
        <ele>79.6</ele>
        <time>2023-05-03T14:13:12Z</time>
      </trkpt>
      <trkpt lat="49.86872" lon="1.9948">
        <ele>79.6</ele>
        <time>2023-05-03T14:13:13Z</time>
      </trkpt>
      <trkpt lat="49.86872" lon="1.9948">
        <ele>79.6</ele>
        <time>2023-05-03T14:13:14Z</time>
      </trkpt>
      <trkpt lat="49.86872" lon="1.9948">
        <ele>79.6</ele>
        <time>2023-05-03T14:13:15Z</time>
      </trkpt>
      <trkpt lat="49.86872" lon="1.9948">
        <ele>79.6</ele>
        <time>2023-05-03T14:13:16Z</time>
      </trkpt>
      <trkpt lat="49.86872" lon="1.9948">
        <ele>79.6</ele>
        <time>2023-05-03T14:13:17Z</time>
      </trkpt>
      <trkpt lat="49.86872" lon="1.9948">
        <ele>79.6</ele>
        <time>2023-05-03T14:13:18Z</time>
      </trkpt>
      <trkpt lat="49.86872" lon="1.9948">
        <ele>79.6</ele>
        <time>2023-05-03T14:13:19Z</time>
      </trkpt>
      <trkpt lat="49.86872" lon="1.9948">
        <ele>79.6</ele>
        <time>2023-05-03T14:13:20Z</time>
      </trkpt>
      <trkpt lat="49.86872" lon="1.9948">
        <ele>79.6</ele>
        <time>2023-05-03T14:13:21Z</time>
      </trkpt>
      <trkpt lat="49.86872" lon="1.9948">
        <ele>79.6</ele>
        <time>2023-05-03T14:13:22Z</time>
      </trkpt>
      <trkpt lat="49.86872" lon="1.9948">
        <ele>79.6</ele>
        <time>2023-05-03T14:13:23Z</time>
      </trkpt>
      <trkpt lat="49.86872" lon="1.9948">
        <ele>79.6</ele>
        <time>2023-05-03T14:13:24Z</time>
      </trkpt>
      <trkpt lat="49.86868" lon="1.99478">
        <ele>79.6</ele>
        <time>2023-05-03T14:13:25Z</time>
      </trkpt>
      <trkpt lat="49.86867" lon="1.99478">
        <ele>79.6</ele>
        <time>2023-05-03T14:13:26Z</time>
      </trkpt>
      <trkpt lat="49.86868" lon="1.99478">
        <ele>79.6</ele>
        <time>2023-05-03T14:13:27Z</time>
      </trkpt>
      <trkpt lat="49.86868" lon="1.99478">
        <ele>79.5</ele>
        <time>2023-05-03T14:13:28Z</time>
      </trkpt>
      <trkpt lat="49.86869" lon="1.99479">
        <ele>79.5</ele>
        <time>2023-05-03T14:13:29Z</time>
      </trkpt>
      <trkpt lat="49.8687" lon="1.99479">
        <ele>79.5</ele>
        <time>2023-05-03T14:13:31Z</time>
      </trkpt>
      <trkpt lat="49.8687" lon="1.99479">
        <ele>79.5</ele>
        <time>2023-05-03T14:13:32Z</time>
      </trkpt>
      <trkpt lat="49.86871" lon="1.9948">
        <ele>79.5</ele>
        <time>2023-05-03T14:13:33Z</time>
      </trkpt>
      <trkpt lat="49.86873" lon="1.99481">
        <ele>79.4</ele>
        <time>2023-05-03T14:13:34Z</time>
      </trkpt>
      <trkpt lat="49.86875" lon="1.99481">
        <ele>79.4</ele>
        <time>2023-05-03T14:13:35Z</time>
      </trkpt>
      <trkpt lat="49.86876" lon="1.99482">
        <ele>79.3</ele>
        <time>2023-05-03T14:13:37Z</time>
      </trkpt>
      <trkpt lat="49.86878" lon="1.99483">
        <ele>79.3</ele>
        <time>2023-05-03T14:13:38Z</time>
      </trkpt>
      <trkpt lat="49.86879" lon="1.99484">
        <ele>79.2</ele>
        <time>2023-05-03T14:13:39Z</time>
      </trkpt>
      <trkpt lat="49.86881" lon="1.99486">
        <ele>79.2</ele>
        <time>2023-05-03T14:13:40Z</time>
      </trkpt>
      <trkpt lat="49.86881" lon="1.99487">
        <ele>79.2</ele>
        <time>2023-05-03T14:13:41Z</time>
      </trkpt>
      <trkpt lat="49.86882" lon="1.99487">
        <ele>79.1</ele>
        <time>2023-05-03T14:13:42Z</time>
      </trkpt>
      <trkpt lat="49.86882" lon="1.99489">
        <ele>79.1</ele>
        <time>2023-05-03T14:13:43Z</time>
      </trkpt>
      <trkpt lat="49.86883" lon="1.9949">
        <ele>79.1</ele>
        <time>2023-05-03T14:13:44Z</time>
      </trkpt>
      <trkpt lat="49.86884" lon="1.99491">
        <ele>79</ele>
        <time>2023-05-03T14:13:46Z</time>
      </trkpt>
      <trkpt lat="49.86885" lon="1.99492">
        <ele>79</ele>
        <time>2023-05-03T14:13:47Z</time>
      </trkpt>
      <trkpt lat="49.86886" lon="1.99492">
        <ele>79</ele>
        <time>2023-05-03T14:13:48Z</time>
      </trkpt>
      <trkpt lat="49.86887" lon="1.99493">
        <ele>78.9</ele>
        <time>2023-05-03T14:13:49Z</time>
      </trkpt>
      <trkpt lat="49.86888" lon="1.99495">
        <ele>78.9</ele>
        <time>2023-05-03T14:13:50Z</time>
      </trkpt>
      <trkpt lat="49.86888" lon="1.99496">
        <ele>78.9</ele>
        <time>2023-05-03T14:13:51Z</time>
      </trkpt>
      <trkpt lat="49.86889" lon="1.99497">
        <ele>78.8</ele>
        <time>2023-05-03T14:13:52Z</time>
      </trkpt>
      <trkpt lat="49.86889" lon="1.99498">
        <ele>78.8</ele>
        <time>2023-05-03T14:13:53Z</time>
      </trkpt>
      <trkpt lat="49.8689" lon="1.995">
        <ele>78.8</ele>
        <time>2023-05-03T14:13:55Z</time>
      </trkpt>
      <trkpt lat="49.86891" lon="1.99501">
        <ele>78.7</ele>
        <time>2023-05-03T14:13:57Z</time>
      </trkpt>
      <trkpt lat="49.86892" lon="1.99502">
        <ele>78.7</ele>
        <time>2023-05-03T14:13:58Z</time>
      </trkpt>
      <trkpt lat="49.86893" lon="1.99503">
        <ele>78.7</ele>
        <time>2023-05-03T14:13:59Z</time>
      </trkpt>
      <trkpt lat="49.86893" lon="1.99504">
        <ele>78.6</ele>
        <time>2023-05-03T14:14:00Z</time>
      </trkpt>
      <trkpt lat="49.86894" lon="1.99505">
        <ele>78.6</ele>
        <time>2023-05-03T14:14:01Z</time>
      </trkpt>
      <trkpt lat="49.86895" lon="1.99506">
        <ele>78.6</ele>
        <time>2023-05-03T14:14:02Z</time>
      </trkpt>
      <trkpt lat="49.86896" lon="1.99507">
        <ele>78.6</ele>
        <time>2023-05-03T14:14:03Z</time>
      </trkpt>
      <trkpt lat="49.86896" lon="1.99509">
        <ele>78.5</ele>
        <time>2023-05-03T14:14:04Z</time>
      </trkpt>
      <trkpt lat="49.86897" lon="1.9951">
        <ele>78.5</ele>
        <time>2023-05-03T14:14:05Z</time>
      </trkpt>
      <trkpt lat="49.86898" lon="1.99511">
        <ele>78.5</ele>
        <time>2023-05-03T14:14:06Z</time>
      </trkpt>
      <trkpt lat="49.86899" lon="1.99512">
        <ele>78.4</ele>
        <time>2023-05-03T14:14:08Z</time>
      </trkpt>
      <trkpt lat="49.869" lon="1.99513">
        <ele>78.4</ele>
        <time>2023-05-03T14:14:09Z</time>
      </trkpt>
      <trkpt lat="49.86901" lon="1.99514">
        <ele>78.4</ele>
        <time>2023-05-03T14:14:10Z</time>
      </trkpt>
      <trkpt lat="49.86902" lon="1.99515">
        <ele>78.3</ele>
        <time>2023-05-03T14:14:11Z</time>
      </trkpt>
      <trkpt lat="49.86903" lon="1.99516">
        <ele>78.3</ele>
        <time>2023-05-03T14:14:12Z</time>
      </trkpt>
      <trkpt lat="49.86903" lon="1.99517">
        <ele>78.3</ele>
        <time>2023-05-03T14:14:13Z</time>
      </trkpt>
      <trkpt lat="49.86904" lon="1.99518">
        <ele>78.2</ele>
        <time>2023-05-03T14:14:14Z</time>
      </trkpt>
      <trkpt lat="49.86905" lon="1.99519">
        <ele>78.2</ele>
        <time>2023-05-03T14:14:15Z</time>
      </trkpt>
      <trkpt lat="49.86907" lon="1.99521">
        <ele>78.2</ele>
        <time>2023-05-03T14:14:17Z</time>
      </trkpt>
      <trkpt lat="49.86908" lon="1.99522">
        <ele>78.1</ele>
        <time>2023-05-03T14:14:18Z</time>
      </trkpt>
      <trkpt lat="49.86909" lon="1.99523">
        <ele>78.1</ele>
        <time>2023-05-03T14:14:19Z</time>
      </trkpt>
      <trkpt lat="49.8691" lon="1.99525">
        <ele>78</ele>
        <time>2023-05-03T14:14:21Z</time>
      </trkpt>
      <trkpt lat="49.86912" lon="1.99527">
        <ele>78</ele>
        <time>2023-05-03T14:14:22Z</time>
      </trkpt>
      <trkpt lat="49.86913" lon="1.99528">
        <ele>77.9</ele>
        <time>2023-05-03T14:14:23Z</time>
      </trkpt>
      <trkpt lat="49.86913" lon="1.99529">
        <ele>77.9</ele>
        <time>2023-05-03T14:14:24Z</time>
      </trkpt>
      <trkpt lat="49.86914" lon="1.99531">
        <ele>77.9</ele>
        <time>2023-05-03T14:14:25Z</time>
      </trkpt>
      <trkpt lat="49.86915" lon="1.99533">
        <ele>77.8</ele>
        <time>2023-05-03T14:14:26Z</time>
      </trkpt>
      <trkpt lat="49.86915" lon="1.99535">
        <ele>77.8</ele>
        <time>2023-05-03T14:14:28Z</time>
      </trkpt>
      <trkpt lat="49.86916" lon="1.99537">
        <ele>77.8</ele>
        <time>2023-05-03T14:14:29Z</time>
      </trkpt>
      <trkpt lat="49.86916" lon="1.99539">
        <ele>77.7</ele>
        <time>2023-05-03T14:14:30Z</time>
      </trkpt>
      <trkpt lat="49.86917" lon="1.9954">
        <ele>77.7</ele>
        <time>2023-05-03T14:14:31Z</time>
      </trkpt>
      <trkpt lat="49.86918" lon="1.99541">
        <ele>77.7</ele>
        <time>2023-05-03T14:14:32Z</time>
      </trkpt>
      <trkpt lat="49.8692" lon="1.99542">
        <ele>77.6</ele>
        <time>2023-05-03T14:14:33Z</time>
      </trkpt>
      <trkpt lat="49.86921" lon="1.99542">
        <ele>77.6</ele>
        <time>2023-05-03T14:14:35Z</time>
      </trkpt>
      <trkpt lat="49.86922" lon="1.99543">
        <ele>77.6</ele>
        <time>2023-05-03T14:14:36Z</time>
      </trkpt>
      <trkpt lat="49.86923" lon="1.99543">
        <ele>77.6</ele>
        <time>2023-05-03T14:14:37Z</time>
      </trkpt>
      <trkpt lat="49.86924" lon="1.99544">
        <ele>77.6</ele>
        <time>2023-05-03T14:14:38Z</time>
      </trkpt>
      <trkpt lat="49.86924" lon="1.99544">
        <ele>77.6</ele>
        <time>2023-05-03T14:14:39Z</time>
      </trkpt>
      <trkpt lat="49.86926" lon="1.99545">
        <ele>77.5</ele>
        <time>2023-05-03T14:14:40Z</time>
      </trkpt>
      <trkpt lat="49.86927" lon="1.99545">
        <ele>77.5</ele>
        <time>2023-05-03T14:14:41Z</time>
      </trkpt>
      <trkpt lat="49.86928" lon="1.99545">
        <ele>77.5</ele>
        <time>2023-05-03T14:14:43Z</time>
      </trkpt>
      <trkpt lat="49.86929" lon="1.99546">
        <ele>77.5</ele>
        <time>2023-05-03T14:14:44Z</time>
      </trkpt>
      <trkpt lat="49.8693" lon="1.99546">
        <ele>77.5</ele>
        <time>2023-05-03T14:14:45Z</time>
      </trkpt>
      <trkpt lat="49.86931" lon="1.99546">
        <ele>77.5</ele>
        <time>2023-05-03T14:14:46Z</time>
      </trkpt>
      <trkpt lat="49.86932" lon="1.99546">
        <ele>77.5</ele>
        <time>2023-05-03T14:14:47Z</time>
      </trkpt>
      <trkpt lat="49.86934" lon="1.99546">
        <ele>77.5</ele>
        <time>2023-05-03T14:14:48Z</time>
      </trkpt>
      <trkpt lat="49.86935" lon="1.99546">
        <ele>77.5</ele>
        <time>2023-05-03T14:14:49Z</time>
      </trkpt>
      <trkpt lat="49.86936" lon="1.99547">
        <ele>77.4</ele>
        <time>2023-05-03T14:14:50Z</time>
      </trkpt>
      <trkpt lat="49.86937" lon="1.99547">
        <ele>77.4</ele>
        <time>2023-05-03T14:14:51Z</time>
      </trkpt>
      <trkpt lat="49.86938" lon="1.99547">
        <ele>77.4</ele>
        <time>2023-05-03T14:14:53Z</time>
      </trkpt>
      <trkpt lat="49.86939" lon="1.99547">
        <ele>77.4</ele>
        <time>2023-05-03T14:14:54Z</time>
      </trkpt>
      <trkpt lat="49.8694" lon="1.99547">
        <ele>77.4</ele>
        <time>2023-05-03T14:14:55Z</time>
      </trkpt>
      <trkpt lat="49.86941" lon="1.99548">
        <ele>77.4</ele>
        <time>2023-05-03T14:14:56Z</time>
      </trkpt>
      <trkpt lat="49.86942" lon="1.99548">
        <ele>77.4</ele>
        <time>2023-05-03T14:14:57Z</time>
      </trkpt>
      <trkpt lat="49.86943" lon="1.99548">
        <ele>77.4</ele>
        <time>2023-05-03T14:14:58Z</time>
      </trkpt>
      <trkpt lat="49.86944" lon="1.99548">
        <ele>77.4</ele>
        <time>2023-05-03T14:14:59Z</time>
      </trkpt>
      <trkpt lat="49.86945" lon="1.99548">
        <ele>77.4</ele>
        <time>2023-05-03T14:15:00Z</time>
      </trkpt>
      <trkpt lat="49.86946" lon="1.99548">
        <ele>77.4</ele>
        <time>2023-05-03T14:15:01Z</time>
      </trkpt>
      <trkpt lat="49.86948" lon="1.99548">
        <ele>77.4</ele>
        <time>2023-05-03T14:15:03Z</time>
      </trkpt>
      <trkpt lat="49.86949" lon="1.99549">
        <ele>77.4</ele>
        <time>2023-05-03T14:15:04Z</time>
      </trkpt>
      <trkpt lat="49.86951" lon="1.9955">
        <ele>77.4</ele>
        <time>2023-05-03T14:15:05Z</time>
      </trkpt>
      <trkpt lat="49.86953" lon="1.9955">
        <ele>77.3</ele>
        <time>2023-05-03T14:15:06Z</time>
      </trkpt>
      <trkpt lat="49.86954" lon="1.9955">
        <ele>77.3</ele>
        <time>2023-05-03T14:15:07Z</time>
      </trkpt>
      <trkpt lat="49.86955" lon="1.99549">
        <ele>77.3</ele>
        <time>2023-05-03T14:15:08Z</time>
      </trkpt>
      <trkpt lat="49.86957" lon="1.99548">
        <ele>77.3</ele>
        <time>2023-05-03T14:15:09Z</time>
      </trkpt>
      <trkpt lat="49.86958" lon="1.99548">
        <ele>77.3</ele>
        <time>2023-05-03T14:15:11Z</time>
      </trkpt>
      <trkpt lat="49.86959" lon="1.99547">
        <ele>77.3</ele>
        <time>2023-05-03T14:15:12Z</time>
      </trkpt>
      <trkpt lat="49.8696" lon="1.99546">
        <ele>77.3</ele>
        <time>2023-05-03T14:15:13Z</time>
      </trkpt>
      <trkpt lat="49.86962" lon="1.99546">
        <ele>77.3</ele>
        <time>2023-05-03T14:15:14Z</time>
      </trkpt>
      <trkpt lat="49.86963" lon="1.99545">
        <ele>77.3</ele>
        <time>2023-05-03T14:15:16Z</time>
      </trkpt>
      <trkpt lat="49.86964" lon="1.99544">
        <ele>77.3</ele>
        <time>2023-05-03T14:15:17Z</time>
      </trkpt>
      <trkpt lat="49.86965" lon="1.99543">
        <ele>77.3</ele>
        <time>2023-05-03T14:15:18Z</time>
      </trkpt>
      <trkpt lat="49.86966" lon="1.99542">
        <ele>77.2</ele>
        <time>2023-05-03T14:15:19Z</time>
      </trkpt>
      <trkpt lat="49.86967" lon="1.99541">
        <ele>77.2</ele>
        <time>2023-05-03T14:15:21Z</time>
      </trkpt>
      <trkpt lat="49.86968" lon="1.99541">
        <ele>77.2</ele>
        <time>2023-05-03T14:15:22Z</time>
      </trkpt>
      <trkpt lat="49.86969" lon="1.9954">
        <ele>77.2</ele>
        <time>2023-05-03T14:15:23Z</time>
      </trkpt>
      <trkpt lat="49.86969" lon="1.9954">
        <ele>77.2</ele>
        <time>2023-05-03T14:15:24Z</time>
      </trkpt>
      <trkpt lat="49.8697" lon="1.99539">
        <ele>77.2</ele>
        <time>2023-05-03T14:15:25Z</time>
      </trkpt>
      <trkpt lat="49.86972" lon="1.99537">
        <ele>77.2</ele>
        <time>2023-05-03T14:15:26Z</time>
      </trkpt>
      <trkpt lat="49.86972" lon="1.99536">
        <ele>77.2</ele>
        <time>2023-05-03T14:15:27Z</time>
      </trkpt>
      <trkpt lat="49.86973" lon="1.99535">
        <ele>77.2</ele>
        <time>2023-05-03T14:15:28Z</time>
      </trkpt>
      <trkpt lat="49.86975" lon="1.99533">
        <ele>77.2</ele>
        <time>2023-05-03T14:15:30Z</time>
      </trkpt>
      <trkpt lat="49.86975" lon="1.99532">
        <ele>77.2</ele>
        <time>2023-05-03T14:15:31Z</time>
      </trkpt>
      <trkpt lat="49.86976" lon="1.99531">
        <ele>77.2</ele>
        <time>2023-05-03T14:15:32Z</time>
      </trkpt>
      <trkpt lat="49.86977" lon="1.9953">
        <ele>77.3</ele>
        <time>2023-05-03T14:15:33Z</time>
      </trkpt>
      <trkpt lat="49.86978" lon="1.9953">
        <ele>77.3</ele>
        <time>2023-05-03T14:15:34Z</time>
      </trkpt>
      <trkpt lat="49.86978" lon="1.99529">
        <ele>77.3</ele>
        <time>2023-05-03T14:15:35Z</time>
      </trkpt>
      <trkpt lat="49.86979" lon="1.99528">
        <ele>77.3</ele>
        <time>2023-05-03T14:15:36Z</time>
      </trkpt>
      <trkpt lat="49.8698" lon="1.99527">
        <ele>77.3</ele>
        <time>2023-05-03T14:15:38Z</time>
      </trkpt>
      <trkpt lat="49.86981" lon="1.99525">
        <ele>77.3</ele>
        <time>2023-05-03T14:15:39Z</time>
      </trkpt>
      <trkpt lat="49.86982" lon="1.99524">
        <ele>77.3</ele>
        <time>2023-05-03T14:15:40Z</time>
      </trkpt>
      <trkpt lat="49.86984" lon="1.99523">
        <ele>77.4</ele>
        <time>2023-05-03T14:15:42Z</time>
      </trkpt>
      <trkpt lat="49.86984" lon="1.99522">
        <ele>77.4</ele>
        <time>2023-05-03T14:15:43Z</time>
      </trkpt>
      <trkpt lat="49.86985" lon="1.99521">
        <ele>77.4</ele>
        <time>2023-05-03T14:15:44Z</time>
      </trkpt>
      <trkpt lat="49.86986" lon="1.9952">
        <ele>77.4</ele>
        <time>2023-05-03T14:15:45Z</time>
      </trkpt>
      <trkpt lat="49.86987" lon="1.9952">
        <ele>77.4</ele>
        <time>2023-05-03T14:15:46Z</time>
      </trkpt>
      <trkpt lat="49.86987" lon="1.9952">
        <ele>77.4</ele>
        <time>2023-05-03T14:15:48Z</time>
      </trkpt>
      <trkpt lat="49.86987" lon="1.99519">
        <ele>77.4</ele>
        <time>2023-05-03T14:15:49Z</time>
      </trkpt>
      <trkpt lat="49.86988" lon="1.99518">
        <ele>77.4</ele>
        <time>2023-05-03T14:15:50Z</time>
      </trkpt>
      <trkpt lat="49.86989" lon="1.99518">
        <ele>77.4</ele>
        <time>2023-05-03T14:15:51Z</time>
      </trkpt>
      <trkpt lat="49.8699" lon="1.99517">
        <ele>77.3</ele>
        <time>2023-05-03T14:15:52Z</time>
      </trkpt>
      <trkpt lat="49.86991" lon="1.99516">
        <ele>77.3</ele>
        <time>2023-05-03T14:15:53Z</time>
      </trkpt>
      <trkpt lat="49.86991" lon="1.99515">
        <ele>77.3</ele>
        <time>2023-05-03T14:15:54Z</time>
      </trkpt>
      <trkpt lat="49.86992" lon="1.99515">
        <ele>77.3</ele>
        <time>2023-05-03T14:15:55Z</time>
      </trkpt>
      <trkpt lat="49.86994" lon="1.99513">
        <ele>77.3</ele>
        <time>2023-05-03T14:15:57Z</time>
      </trkpt>
      <trkpt lat="49.86995" lon="1.99513">
        <ele>77.3</ele>
        <time>2023-05-03T14:15:58Z</time>
      </trkpt>
      <trkpt lat="49.86995" lon="1.99512">
        <ele>77.2</ele>
        <time>2023-05-03T14:15:59Z</time>
      </trkpt>
      <trkpt lat="49.86997" lon="1.99511">
        <ele>77.2</ele>
        <time>2023-05-03T14:16:00Z</time>
      </trkpt>
      <trkpt lat="49.86998" lon="1.99511">
        <ele>77.2</ele>
        <time>2023-05-03T14:16:02Z</time>
      </trkpt>
      <trkpt lat="49.86999" lon="1.9951">
        <ele>77.2</ele>
        <time>2023-05-03T14:16:03Z</time>
      </trkpt>
      <trkpt lat="49.87" lon="1.99509">
        <ele>77.2</ele>
        <time>2023-05-03T14:16:04Z</time>
      </trkpt>
      <trkpt lat="49.87" lon="1.99508">
        <ele>77.2</ele>
        <time>2023-05-03T14:16:05Z</time>
      </trkpt>
      <trkpt lat="49.87001" lon="1.99508">
        <ele>77.2</ele>
        <time>2023-05-03T14:16:06Z</time>
      </trkpt>
      <trkpt lat="49.87002" lon="1.99507">
        <ele>77.1</ele>
        <time>2023-05-03T14:16:07Z</time>
      </trkpt>
      <trkpt lat="49.87004" lon="1.99506">
        <ele>77.1</ele>
        <time>2023-05-03T14:16:08Z</time>
      </trkpt>
      <trkpt lat="49.87005" lon="1.99505">
        <ele>77.1</ele>
        <time>2023-05-03T14:16:09Z</time>
      </trkpt>
      <trkpt lat="49.87005" lon="1.99505">
        <ele>77.1</ele>
        <time>2023-05-03T14:16:10Z</time>
      </trkpt>
      <trkpt lat="49.87007" lon="1.99504">
        <ele>77</ele>
        <time>2023-05-03T14:16:12Z</time>
      </trkpt>
      <trkpt lat="49.87008" lon="1.99503">
        <ele>77</ele>
        <time>2023-05-03T14:16:13Z</time>
      </trkpt>
      <trkpt lat="49.87009" lon="1.99503">
        <ele>77</ele>
        <time>2023-05-03T14:16:14Z</time>
      </trkpt>
      <trkpt lat="49.8701" lon="1.99503">
        <ele>77</ele>
        <time>2023-05-03T14:16:15Z</time>
      </trkpt>
      <trkpt lat="49.87012" lon="1.99502">
        <ele>76.9</ele>
        <time>2023-05-03T14:16:16Z</time>
      </trkpt>
      <trkpt lat="49.87013" lon="1.99502">
        <ele>76.9</ele>
        <time>2023-05-03T14:16:17Z</time>
      </trkpt>
      <trkpt lat="49.87014" lon="1.99501">
        <ele>76.9</ele>
        <time>2023-05-03T14:16:18Z</time>
      </trkpt>
      <trkpt lat="49.87016" lon="1.99501">
        <ele>76.8</ele>
        <time>2023-05-03T14:16:20Z</time>
      </trkpt>
      <trkpt lat="49.87017" lon="1.995">
        <ele>76.8</ele>
        <time>2023-05-03T14:16:21Z</time>
      </trkpt>
      <trkpt lat="49.87019" lon="1.995">
        <ele>76.7</ele>
        <time>2023-05-03T14:16:22Z</time>
      </trkpt>
      <trkpt lat="49.8702" lon="1.995">
        <ele>76.7</ele>
        <time>2023-05-03T14:16:23Z</time>
      </trkpt>
      <trkpt lat="49.87021" lon="1.995">
        <ele>76.7</ele>
        <time>2023-05-03T14:16:24Z</time>
      </trkpt>
      <trkpt lat="49.87023" lon="1.99499">
        <ele>76.6</ele>
        <time>2023-05-03T14:16:25Z</time>
      </trkpt>
      <trkpt lat="49.87024" lon="1.99499">
        <ele>76.6</ele>
        <time>2023-05-03T14:16:26Z</time>
      </trkpt>
      <trkpt lat="49.87026" lon="1.99499">
        <ele>76.5</ele>
        <time>2023-05-03T14:16:27Z</time>
      </trkpt>
      <trkpt lat="49.87027" lon="1.99499">
        <ele>76.5</ele>
        <time>2023-05-03T14:16:28Z</time>
      </trkpt>
      <trkpt lat="49.87029" lon="1.99499">
        <ele>76.4</ele>
        <time>2023-05-03T14:16:29Z</time>
      </trkpt>
      <trkpt lat="49.8703" lon="1.99499">
        <ele>76.4</ele>
        <time>2023-05-03T14:16:31Z</time>
      </trkpt>
      <trkpt lat="49.87032" lon="1.995">
        <ele>76.3</ele>
        <time>2023-05-03T14:16:32Z</time>
      </trkpt>
      <trkpt lat="49.87034" lon="1.995">
        <ele>76.2</ele>
        <time>2023-05-03T14:16:33Z</time>
      </trkpt>
      <trkpt lat="49.87035" lon="1.995">
        <ele>76.2</ele>
        <time>2023-05-03T14:16:34Z</time>
      </trkpt>
      <trkpt lat="49.87037" lon="1.995">
        <ele>76.1</ele>
        <time>2023-05-03T14:16:36Z</time>
      </trkpt>
      <trkpt lat="49.87038" lon="1.995">
        <ele>76.1</ele>
        <time>2023-05-03T14:16:37Z</time>
      </trkpt>
      <trkpt lat="49.8704" lon="1.99501">
        <ele>76</ele>
        <time>2023-05-03T14:16:38Z</time>
      </trkpt>
      <trkpt lat="49.87041" lon="1.99501">
        <ele>76</ele>
        <time>2023-05-03T14:16:39Z</time>
      </trkpt>
      <trkpt lat="49.87043" lon="1.99501">
        <ele>75.9</ele>
        <time>2023-05-03T14:16:40Z</time>
      </trkpt>
      <trkpt lat="49.87044" lon="1.99501">
        <ele>75.9</ele>
        <time>2023-05-03T14:16:41Z</time>
      </trkpt>
      <trkpt lat="49.87047" lon="1.99501">
        <ele>75.8</ele>
        <time>2023-05-03T14:16:42Z</time>
      </trkpt>
      <trkpt lat="49.87048" lon="1.99501">
        <ele>75.8</ele>
        <time>2023-05-03T14:16:44Z</time>
      </trkpt>
      <trkpt lat="49.87049" lon="1.99501">
        <ele>75.7</ele>
        <time>2023-05-03T14:16:45Z</time>
      </trkpt>
      <trkpt lat="49.8705" lon="1.99501">
        <ele>75.7</ele>
        <time>2023-05-03T14:16:46Z</time>
      </trkpt>
      <trkpt lat="49.87052" lon="1.99501">
        <ele>75.7</ele>
        <time>2023-05-03T14:16:47Z</time>
      </trkpt>
      <trkpt lat="49.87053" lon="1.99501">
        <ele>75.6</ele>
        <time>2023-05-03T14:16:48Z</time>
      </trkpt>
      <trkpt lat="49.87055" lon="1.99502">
        <ele>75.6</ele>
        <time>2023-05-03T14:16:50Z</time>
      </trkpt>
      <trkpt lat="49.87056" lon="1.99502">
        <ele>75.5</ele>
        <time>2023-05-03T14:16:51Z</time>
      </trkpt>
      <trkpt lat="49.87058" lon="1.99503">
        <ele>75.5</ele>
        <time>2023-05-03T14:16:52Z</time>
      </trkpt>
      <trkpt lat="49.8706" lon="1.99506">
        <ele>75.4</ele>
        <time>2023-05-03T14:16:54Z</time>
      </trkpt>
      <trkpt lat="49.8706" lon="1.99508">
        <ele>75.4</ele>
        <time>2023-05-03T14:16:55Z</time>
      </trkpt>
      <trkpt lat="49.87062" lon="1.99509">
        <ele>75.4</ele>
        <time>2023-05-03T14:16:56Z</time>
      </trkpt>
      <trkpt lat="49.87063" lon="1.9951">
        <ele>75.3</ele>
        <time>2023-05-03T14:16:57Z</time>
      </trkpt>
      <trkpt lat="49.87065" lon="1.9951">
        <ele>75.3</ele>
        <time>2023-05-03T14:16:58Z</time>
      </trkpt>
      <trkpt lat="49.87066" lon="1.9951">
        <ele>75.3</ele>
        <time>2023-05-03T14:16:59Z</time>
      </trkpt>
      <trkpt lat="49.87067" lon="1.9951">
        <ele>75.3</ele>
        <time>2023-05-03T14:17:00Z</time>
      </trkpt>
      <trkpt lat="49.87068" lon="1.9951">
        <ele>75.2</ele>
        <time>2023-05-03T14:17:01Z</time>
      </trkpt>
      <trkpt lat="49.87069" lon="1.99511">
        <ele>75.2</ele>
        <time>2023-05-03T14:17:02Z</time>
      </trkpt>
      <trkpt lat="49.87071" lon="1.99511">
        <ele>75.2</ele>
        <time>2023-05-03T14:17:04Z</time>
      </trkpt>
      <trkpt lat="49.87073" lon="1.99511">
        <ele>75.2</ele>
        <time>2023-05-03T14:17:05Z</time>
      </trkpt>
      <trkpt lat="49.87074" lon="1.99511">
        <ele>75.1</ele>
        <time>2023-05-03T14:17:06Z</time>
      </trkpt>
      <trkpt lat="49.87076" lon="1.99512">
        <ele>75.1</ele>
        <time>2023-05-03T14:17:08Z</time>
      </trkpt>
      <trkpt lat="49.87077" lon="1.99512">
        <ele>75.1</ele>
        <time>2023-05-03T14:17:09Z</time>
      </trkpt>
      <trkpt lat="49.87078" lon="1.99513">
        <ele>75.1</ele>
        <time>2023-05-03T14:17:10Z</time>
      </trkpt>
      <trkpt lat="49.87079" lon="1.99513">
        <ele>75.1</ele>
        <time>2023-05-03T14:17:11Z</time>
      </trkpt>
      <trkpt lat="49.8708" lon="1.99514">
        <ele>75.1</ele>
        <time>2023-05-03T14:17:12Z</time>
      </trkpt>
      <trkpt lat="49.87081" lon="1.99515">
        <ele>75</ele>
        <time>2023-05-03T14:17:13Z</time>
      </trkpt>
      <trkpt lat="49.87082" lon="1.99515">
        <ele>75</ele>
        <time>2023-05-03T14:17:14Z</time>
      </trkpt>
      <trkpt lat="49.87085" lon="1.99516">
        <ele>75</ele>
        <time>2023-05-03T14:17:15Z</time>
      </trkpt>
      <trkpt lat="49.87086" lon="1.99517">
        <ele>75</ele>
        <time>2023-05-03T14:17:17Z</time>
      </trkpt>
      <trkpt lat="49.87087" lon="1.99517">
        <ele>75</ele>
        <time>2023-05-03T14:17:18Z</time>
      </trkpt>
      <trkpt lat="49.87088" lon="1.99517">
        <ele>75</ele>
        <time>2023-05-03T14:17:19Z</time>
      </trkpt>
      <trkpt lat="49.87089" lon="1.99517">
        <ele>75</ele>
        <time>2023-05-03T14:17:20Z</time>
      </trkpt>
      <trkpt lat="49.87091" lon="1.99518">
        <ele>75</ele>
        <time>2023-05-03T14:17:21Z</time>
      </trkpt>
      <trkpt lat="49.87092" lon="1.99519">
        <ele>75</ele>
        <time>2023-05-03T14:17:23Z</time>
      </trkpt>
      <trkpt lat="49.87093" lon="1.99519">
        <ele>75</ele>
        <time>2023-05-03T14:17:24Z</time>
      </trkpt>
      <trkpt lat="49.87095" lon="1.9952">
        <ele>74.9</ele>
        <time>2023-05-03T14:17:25Z</time>
      </trkpt>
      <trkpt lat="49.87096" lon="1.99521">
        <ele>74.9</ele>
        <time>2023-05-03T14:17:26Z</time>
      </trkpt>
      <trkpt lat="49.87096" lon="1.99522">
        <ele>74.9</ele>
        <time>2023-05-03T14:17:27Z</time>
      </trkpt>
      <trkpt lat="49.87098" lon="1.99522">
        <ele>74.9</ele>
        <time>2023-05-03T14:17:29Z</time>
      </trkpt>
      <trkpt lat="49.87099" lon="1.99522">
        <ele>74.9</ele>
        <time>2023-05-03T14:17:30Z</time>
      </trkpt>
      <trkpt lat="49.871" lon="1.99523">
        <ele>74.9</ele>
        <time>2023-05-03T14:17:31Z</time>
      </trkpt>
      <trkpt lat="49.87102" lon="1.99523">
        <ele>74.9</ele>
        <time>2023-05-03T14:17:32Z</time>
      </trkpt>
      <trkpt lat="49.87103" lon="1.99524">
        <ele>74.9</ele>
        <time>2023-05-03T14:17:33Z</time>
      </trkpt>
      <trkpt lat="49.87104" lon="1.99525">
        <ele>74.9</ele>
        <time>2023-05-03T14:17:34Z</time>
      </trkpt>
      <trkpt lat="49.87105" lon="1.99526">
        <ele>74.9</ele>
        <time>2023-05-03T14:17:35Z</time>
      </trkpt>
      <trkpt lat="49.87106" lon="1.99528">
        <ele>74.9</ele>
        <time>2023-05-03T14:17:36Z</time>
      </trkpt>
      <trkpt lat="49.87107" lon="1.99528">
        <ele>74.9</ele>
        <time>2023-05-03T14:17:38Z</time>
      </trkpt>
      <trkpt lat="49.87108" lon="1.99529">
        <ele>75</ele>
        <time>2023-05-03T14:17:39Z</time>
      </trkpt>
      <trkpt lat="49.87109" lon="1.9953">
        <ele>75</ele>
        <time>2023-05-03T14:17:40Z</time>
      </trkpt>
      <trkpt lat="49.8711" lon="1.9953">
        <ele>75</ele>
        <time>2023-05-03T14:17:41Z</time>
      </trkpt>
      <trkpt lat="49.87111" lon="1.99531">
        <ele>75</ele>
        <time>2023-05-03T14:17:42Z</time>
      </trkpt>
      <trkpt lat="49.87113" lon="1.99532">
        <ele>75</ele>
        <time>2023-05-03T14:17:43Z</time>
      </trkpt>
      <trkpt lat="49.87114" lon="1.99532">
        <ele>75</ele>
        <time>2023-05-03T14:17:45Z</time>
      </trkpt>
      <trkpt lat="49.87116" lon="1.99533">
        <ele>75</ele>
        <time>2023-05-03T14:17:46Z</time>
      </trkpt>
      <trkpt lat="49.87117" lon="1.99534">
        <ele>75</ele>
        <time>2023-05-03T14:17:47Z</time>
      </trkpt>
      <trkpt lat="49.87118" lon="1.99534">
        <ele>75</ele>
        <time>2023-05-03T14:17:48Z</time>
      </trkpt>
      <trkpt lat="49.87119" lon="1.99535">
        <ele>75</ele>
        <time>2023-05-03T14:17:49Z</time>
      </trkpt>
      <trkpt lat="49.87121" lon="1.99536">
        <ele>75.1</ele>
        <time>2023-05-03T14:17:51Z</time>
      </trkpt>
      <trkpt lat="49.87122" lon="1.99536">
        <ele>75.1</ele>
        <time>2023-05-03T14:17:52Z</time>
      </trkpt>
      <trkpt lat="49.87124" lon="1.99537">
        <ele>75.1</ele>
        <time>2023-05-03T14:17:53Z</time>
      </trkpt>
      <trkpt lat="49.87126" lon="1.99537">
        <ele>75.1</ele>
        <time>2023-05-03T14:17:54Z</time>
      </trkpt>
      <trkpt lat="49.87127" lon="1.99538">
        <ele>75.1</ele>
        <time>2023-05-03T14:17:56Z</time>
      </trkpt>
      <trkpt lat="49.87128" lon="1.99538">
        <ele>75.2</ele>
        <time>2023-05-03T14:17:57Z</time>
      </trkpt>
      <trkpt lat="49.87129" lon="1.99538">
        <ele>75.2</ele>
        <time>2023-05-03T14:17:58Z</time>
      </trkpt>
      <trkpt lat="49.8713" lon="1.99538">
        <ele>75.2</ele>
        <time>2023-05-03T14:17:59Z</time>
      </trkpt>
      <trkpt lat="49.87132" lon="1.99539">
        <ele>75.2</ele>
        <time>2023-05-03T14:18:00Z</time>
      </trkpt>
      <trkpt lat="49.87133" lon="1.99539">
        <ele>75.2</ele>
        <time>2023-05-03T14:18:01Z</time>
      </trkpt>
      <trkpt lat="49.87134" lon="1.99539">
        <ele>75.2</ele>
        <time>2023-05-03T14:18:02Z</time>
      </trkpt>
      <trkpt lat="49.87135" lon="1.9954">
        <ele>75.2</ele>
        <time>2023-05-03T14:18:03Z</time>
      </trkpt>
      <trkpt lat="49.87136" lon="1.9954">
        <ele>75.2</ele>
        <time>2023-05-03T14:18:04Z</time>
      </trkpt>
      <trkpt lat="49.87138" lon="1.9954">
        <ele>75.3</ele>
        <time>2023-05-03T14:18:05Z</time>
      </trkpt>
      <trkpt lat="49.87139" lon="1.99541">
        <ele>75.3</ele>
        <time>2023-05-03T14:18:06Z</time>
      </trkpt>
      <trkpt lat="49.87141" lon="1.99541">
        <ele>75.3</ele>
        <time>2023-05-03T14:18:08Z</time>
      </trkpt>
      <trkpt lat="49.87142" lon="1.99542">
        <ele>75.3</ele>
        <time>2023-05-03T14:18:09Z</time>
      </trkpt>
      <trkpt lat="49.87143" lon="1.99542">
        <ele>75.3</ele>
        <time>2023-05-03T14:18:10Z</time>
      </trkpt>
      <trkpt lat="49.87145" lon="1.99543">
        <ele>75.3</ele>
        <time>2023-05-03T14:18:11Z</time>
      </trkpt>
      <trkpt lat="49.87146" lon="1.99543">
        <ele>75.3</ele>
        <time>2023-05-03T14:18:12Z</time>
      </trkpt>
      <trkpt lat="49.87147" lon="1.99544">
        <ele>75.3</ele>
        <time>2023-05-03T14:18:13Z</time>
      </trkpt>
      <trkpt lat="49.87149" lon="1.99544">
        <ele>75.3</ele>
        <time>2023-05-03T14:18:14Z</time>
      </trkpt>
      <trkpt lat="49.8715" lon="1.99545">
        <ele>75.3</ele>
        <time>2023-05-03T14:18:15Z</time>
      </trkpt>
      <trkpt lat="49.87151" lon="1.99545">
        <ele>75.3</ele>
        <time>2023-05-03T14:18:16Z</time>
      </trkpt>
      <trkpt lat="49.87153" lon="1.99546">
        <ele>75.3</ele>
        <time>2023-05-03T14:18:18Z</time>
      </trkpt>
      <trkpt lat="49.87154" lon="1.99546">
        <ele>75.3</ele>
        <time>2023-05-03T14:18:19Z</time>
      </trkpt>
      <trkpt lat="49.87154" lon="1.99546">
        <ele>75.3</ele>
        <time>2023-05-03T14:18:20Z</time>
      </trkpt>
      <trkpt lat="49.87156" lon="1.99547">
        <ele>75.3</ele>
        <time>2023-05-03T14:18:21Z</time>
      </trkpt>
      <trkpt lat="49.87156" lon="1.99548">
        <ele>75.3</ele>
        <time>2023-05-03T14:18:22Z</time>
      </trkpt>
      <trkpt lat="49.87157" lon="1.9955">
        <ele>75.3</ele>
        <time>2023-05-03T14:18:24Z</time>
      </trkpt>
      <trkpt lat="49.87158" lon="1.99552">
        <ele>75.3</ele>
        <time>2023-05-03T14:18:25Z</time>
      </trkpt>
      <trkpt lat="49.87159" lon="1.99553">
        <ele>75.3</ele>
        <time>2023-05-03T14:18:26Z</time>
      </trkpt>
      <trkpt lat="49.8716" lon="1.99554">
        <ele>75.3</ele>
        <time>2023-05-03T14:18:27Z</time>
      </trkpt>
      <trkpt lat="49.87161" lon="1.99554">
        <ele>75.3</ele>
        <time>2023-05-03T14:18:28Z</time>
      </trkpt>
      <trkpt lat="49.87162" lon="1.99554">
        <ele>75.2</ele>
        <time>2023-05-03T14:18:29Z</time>
      </trkpt>
      <trkpt lat="49.87164" lon="1.99554">
        <ele>75.2</ele>
        <time>2023-05-03T14:18:31Z</time>
      </trkpt>
      <trkpt lat="49.87166" lon="1.99555">
        <ele>75.2</ele>
        <time>2023-05-03T14:18:32Z</time>
      </trkpt>
      <trkpt lat="49.87166" lon="1.99556">
        <ele>75.2</ele>
        <time>2023-05-03T14:18:33Z</time>
      </trkpt>
      <trkpt lat="49.87167" lon="1.99557">
        <ele>75.2</ele>
        <time>2023-05-03T14:18:34Z</time>
      </trkpt>
      <trkpt lat="49.87169" lon="1.99557">
        <ele>75.2</ele>
        <time>2023-05-03T14:18:36Z</time>
      </trkpt>
      <trkpt lat="49.8717" lon="1.99557">
        <ele>75.2</ele>
        <time>2023-05-03T14:18:37Z</time>
      </trkpt>
      <trkpt lat="49.87171" lon="1.99557">
        <ele>75.2</ele>
        <time>2023-05-03T14:18:38Z</time>
      </trkpt>
      <trkpt lat="49.87173" lon="1.99557">
        <ele>75.2</ele>
        <time>2023-05-03T14:18:39Z</time>
      </trkpt>
      <trkpt lat="49.87174" lon="1.99557">
        <ele>75.1</ele>
        <time>2023-05-03T14:18:40Z</time>
      </trkpt>
      <trkpt lat="49.87175" lon="1.99557">
        <ele>75.1</ele>
        <time>2023-05-03T14:18:41Z</time>
      </trkpt>
      <trkpt lat="49.87176" lon="1.99557">
        <ele>75.1</ele>
        <time>2023-05-03T14:18:42Z</time>
      </trkpt>
      <trkpt lat="49.87176" lon="1.99557">
        <ele>75.1</ele>
        <time>2023-05-03T14:18:43Z</time>
      </trkpt>
      <trkpt lat="49.87177" lon="1.99557">
        <ele>75.1</ele>
        <time>2023-05-03T14:18:44Z</time>
      </trkpt>
      <trkpt lat="49.87179" lon="1.99557">
        <ele>75.1</ele>
        <time>2023-05-03T14:18:45Z</time>
      </trkpt>
      <trkpt lat="49.8718" lon="1.99557">
        <ele>75.1</ele>
        <time>2023-05-03T14:18:46Z</time>
      </trkpt>
      <trkpt lat="49.87181" lon="1.99559">
        <ele>75</ele>
        <time>2023-05-03T14:18:48Z</time>
      </trkpt>
      <trkpt lat="49.87182" lon="1.99559">
        <ele>75</ele>
        <time>2023-05-03T14:18:49Z</time>
      </trkpt>
      <trkpt lat="49.87183" lon="1.9956">
        <ele>75</ele>
        <time>2023-05-03T14:18:50Z</time>
      </trkpt>
      <trkpt lat="49.87183" lon="1.99562">
        <ele>75</ele>
        <time>2023-05-03T14:18:51Z</time>
      </trkpt>
      <trkpt lat="49.87185" lon="1.99563">
        <ele>74.9</ele>
        <time>2023-05-03T14:18:52Z</time>
      </trkpt>
      <trkpt lat="49.87186" lon="1.99563">
        <ele>74.9</ele>
        <time>2023-05-03T14:18:54Z</time>
      </trkpt>
      <trkpt lat="49.87187" lon="1.99563">
        <ele>74.9</ele>
        <time>2023-05-03T14:18:55Z</time>
      </trkpt>
      <trkpt lat="49.87189" lon="1.99564">
        <ele>74.8</ele>
        <time>2023-05-03T14:18:56Z</time>
      </trkpt>
      <trkpt lat="49.8719" lon="1.99564">
        <ele>74.8</ele>
        <time>2023-05-03T14:18:57Z</time>
      </trkpt>
      <trkpt lat="49.87191" lon="1.99564">
        <ele>74.8</ele>
        <time>2023-05-03T14:18:58Z</time>
      </trkpt>
      <trkpt lat="49.87192" lon="1.99564">
        <ele>74.7</ele>
        <time>2023-05-03T14:18:59Z</time>
      </trkpt>
      <trkpt lat="49.87193" lon="1.99564">
        <ele>74.7</ele>
        <time>2023-05-03T14:19:00Z</time>
      </trkpt>
      <trkpt lat="49.87195" lon="1.99564">
        <ele>74.7</ele>
        <time>2023-05-03T14:19:02Z</time>
      </trkpt>
      <trkpt lat="49.87197" lon="1.99564">
        <ele>74.6</ele>
        <time>2023-05-03T14:19:03Z</time>
      </trkpt>
      <trkpt lat="49.87198" lon="1.99564">
        <ele>74.6</ele>
        <time>2023-05-03T14:19:04Z</time>
      </trkpt>
      <trkpt lat="49.87199" lon="1.99564">
        <ele>74.6</ele>
        <time>2023-05-03T14:19:05Z</time>
      </trkpt>
      <trkpt lat="49.872" lon="1.99566">
        <ele>74.6</ele>
        <time>2023-05-03T14:19:06Z</time>
      </trkpt>
      <trkpt lat="49.87201" lon="1.99567">
        <ele>74.5</ele>
        <time>2023-05-03T14:19:07Z</time>
      </trkpt>
      <trkpt lat="49.87202" lon="1.99567">
        <ele>74.5</ele>
        <time>2023-05-03T14:19:08Z</time>
      </trkpt>
      <trkpt lat="49.87203" lon="1.99567">
        <ele>74.5</ele>
        <time>2023-05-03T14:19:09Z</time>
      </trkpt>
      <trkpt lat="49.87204" lon="1.99568">
        <ele>74.5</ele>
        <time>2023-05-03T14:19:10Z</time>
      </trkpt>
      <trkpt lat="49.87206" lon="1.99568">
        <ele>74.4</ele>
        <time>2023-05-03T14:19:12Z</time>
      </trkpt>
      <trkpt lat="49.87208" lon="1.99568">
        <ele>74.4</ele>
        <time>2023-05-03T14:19:13Z</time>
      </trkpt>
      <trkpt lat="49.87209" lon="1.99568">
        <ele>74.4</ele>
        <time>2023-05-03T14:19:14Z</time>
      </trkpt>
      <trkpt lat="49.8721" lon="1.99568">
        <ele>74.4</ele>
        <time>2023-05-03T14:19:15Z</time>
      </trkpt>
      <trkpt lat="49.87211" lon="1.99569">
        <ele>74.4</ele>
        <time>2023-05-03T14:19:17Z</time>
      </trkpt>
      <trkpt lat="49.87213" lon="1.99569">
        <ele>74.3</ele>
        <time>2023-05-03T14:19:18Z</time>
      </trkpt>
      <trkpt lat="49.87214" lon="1.9957">
        <ele>74.3</ele>
        <time>2023-05-03T14:19:19Z</time>
      </trkpt>
      <trkpt lat="49.87215" lon="1.9957">
        <ele>74.3</ele>
        <time>2023-05-03T14:19:20Z</time>
      </trkpt>
      <trkpt lat="49.87217" lon="1.9957">
        <ele>74.3</ele>
        <time>2023-05-03T14:19:21Z</time>
      </trkpt>
      <trkpt lat="49.87218" lon="1.9957">
        <ele>74.3</ele>
        <time>2023-05-03T14:19:22Z</time>
      </trkpt>
      <trkpt lat="49.8722" lon="1.9957">
        <ele>74.2</ele>
        <time>2023-05-03T14:19:23Z</time>
      </trkpt>
      <trkpt lat="49.87221" lon="1.99571">
        <ele>74.2</ele>
        <time>2023-05-03T14:19:24Z</time>
      </trkpt>
      <trkpt lat="49.87223" lon="1.99572">
        <ele>74.2</ele>
        <time>2023-05-03T14:19:25Z</time>
      </trkpt>
      <trkpt lat="49.87225" lon="1.99572">
        <ele>74.1</ele>
        <time>2023-05-03T14:19:27Z</time>
      </trkpt>
      <trkpt lat="49.87226" lon="1.99572">
        <ele>74.1</ele>
        <time>2023-05-03T14:19:28Z</time>
      </trkpt>
      <trkpt lat="49.87227" lon="1.99573">
        <ele>74.1</ele>
        <time>2023-05-03T14:19:29Z</time>
      </trkpt>
      <trkpt lat="49.87228" lon="1.99573">
        <ele>74</ele>
        <time>2023-05-03T14:19:30Z</time>
      </trkpt>
      <trkpt lat="49.87229" lon="1.99573">
        <ele>74</ele>
        <time>2023-05-03T14:19:31Z</time>
      </trkpt>
      <trkpt lat="49.87231" lon="1.99573">
        <ele>74</ele>
        <time>2023-05-03T14:19:32Z</time>
      </trkpt>
      <trkpt lat="49.87232" lon="1.99573">
        <ele>73.9</ele>
        <time>2023-05-03T14:19:33Z</time>
      </trkpt>
      <trkpt lat="49.87234" lon="1.99573">
        <ele>73.8</ele>
        <time>2023-05-03T14:19:35Z</time>
      </trkpt>
      <trkpt lat="49.87236" lon="1.99573">
        <ele>73.8</ele>
        <time>2023-05-03T14:19:36Z</time>
      </trkpt>
      <trkpt lat="49.87237" lon="1.99573">
        <ele>73.8</ele>
        <time>2023-05-03T14:19:37Z</time>
      </trkpt>
      <trkpt lat="49.87238" lon="1.99573">
        <ele>73.7</ele>
        <time>2023-05-03T14:19:38Z</time>
      </trkpt>
      <trkpt lat="49.8724" lon="1.99573">
        <ele>73.7</ele>
        <time>2023-05-03T14:19:39Z</time>
      </trkpt>
      <trkpt lat="49.87241" lon="1.99574">
        <ele>73.7</ele>
        <time>2023-05-03T14:19:40Z</time>
      </trkpt>
      <trkpt lat="49.87243" lon="1.99574">
        <ele>73.6</ele>
        <time>2023-05-03T14:19:42Z</time>
      </trkpt>
      <trkpt lat="49.87244" lon="1.99574">
        <ele>73.6</ele>
        <time>2023-05-03T14:19:44Z</time>
      </trkpt>
      <trkpt lat="49.87246" lon="1.99574">
        <ele>73.5</ele>
        <time>2023-05-03T14:19:45Z</time>
      </trkpt>
      <trkpt lat="49.87247" lon="1.99574">
        <ele>73.5</ele>
        <time>2023-05-03T14:19:46Z</time>
      </trkpt>
      <trkpt lat="49.87249" lon="1.99573">
        <ele>73.4</ele>
        <time>2023-05-03T14:19:47Z</time>
      </trkpt>
      <trkpt lat="49.8725" lon="1.99573">
        <ele>73.4</ele>
        <time>2023-05-03T14:19:48Z</time>
      </trkpt>
      <trkpt lat="49.87251" lon="1.99572">
        <ele>73.3</ele>
        <time>2023-05-03T14:19:49Z</time>
      </trkpt>
      <trkpt lat="49.87253" lon="1.99572">
        <ele>73.3</ele>
        <time>2023-05-03T14:19:50Z</time>
      </trkpt>
      <trkpt lat="49.87255" lon="1.99572">
        <ele>73.2</ele>
        <time>2023-05-03T14:19:52Z</time>
      </trkpt>
      <trkpt lat="49.87256" lon="1.99572">
        <ele>73.2</ele>
        <time>2023-05-03T14:19:53Z</time>
      </trkpt>
      <trkpt lat="49.87258" lon="1.99572">
        <ele>73.1</ele>
        <time>2023-05-03T14:19:54Z</time>
      </trkpt>
      <trkpt lat="49.87259" lon="1.99573">
        <ele>73.1</ele>
        <time>2023-05-03T14:19:55Z</time>
      </trkpt>
      <trkpt lat="49.87261" lon="1.99574">
        <ele>73</ele>
        <time>2023-05-03T14:19:57Z</time>
      </trkpt>
      <trkpt lat="49.87262" lon="1.99574">
        <ele>73</ele>
        <time>2023-05-03T14:19:58Z</time>
      </trkpt>
      <trkpt lat="49.87264" lon="1.99574">
        <ele>72.9</ele>
        <time>2023-05-03T14:20:00Z</time>
      </trkpt>
      <trkpt lat="49.87266" lon="1.99575">
        <ele>72.9</ele>
        <time>2023-05-03T14:20:01Z</time>
      </trkpt>
      <trkpt lat="49.87267" lon="1.99576">
        <ele>72.8</ele>
        <time>2023-05-03T14:20:02Z</time>
      </trkpt>
      <trkpt lat="49.87268" lon="1.99577">
        <ele>72.8</ele>
        <time>2023-05-03T14:20:03Z</time>
      </trkpt>
      <trkpt lat="49.8727" lon="1.99578">
        <ele>72.8</ele>
        <time>2023-05-03T14:20:04Z</time>
      </trkpt>
      <trkpt lat="49.87271" lon="1.99579">
        <ele>72.7</ele>
        <time>2023-05-03T14:20:05Z</time>
      </trkpt>
      <trkpt lat="49.87272" lon="1.9958">
        <ele>72.7</ele>
        <time>2023-05-03T14:20:06Z</time>
      </trkpt>
      <trkpt lat="49.87274" lon="1.99581">
        <ele>72.6</ele>
        <time>2023-05-03T14:20:07Z</time>
      </trkpt>
      <trkpt lat="49.87275" lon="1.99582">
        <ele>72.6</ele>
        <time>2023-05-03T14:20:08Z</time>
      </trkpt>
      <trkpt lat="49.87276" lon="1.99583">
        <ele>72.6</ele>
        <time>2023-05-03T14:20:09Z</time>
      </trkpt>
      <trkpt lat="49.87278" lon="1.99583">
        <ele>72.5</ele>
        <time>2023-05-03T14:20:11Z</time>
      </trkpt>
      <trkpt lat="49.87279" lon="1.99584">
        <ele>72.5</ele>
        <time>2023-05-03T14:20:12Z</time>
      </trkpt>
      <trkpt lat="49.87281" lon="1.99584">
        <ele>72.5</ele>
        <time>2023-05-03T14:20:13Z</time>
      </trkpt>
      <trkpt lat="49.87282" lon="1.99584">
        <ele>72.5</ele>
        <time>2023-05-03T14:20:14Z</time>
      </trkpt>
      <trkpt lat="49.87283" lon="1.99585">
        <ele>72.5</ele>
        <time>2023-05-03T14:20:15Z</time>
      </trkpt>
      <trkpt lat="49.87285" lon="1.99585">
        <ele>72.4</ele>
        <time>2023-05-03T14:20:17Z</time>
      </trkpt>
      <trkpt lat="49.87287" lon="1.99585">
        <ele>72.4</ele>
        <time>2023-05-03T14:20:18Z</time>
      </trkpt>
      <trkpt lat="49.87288" lon="1.99585">
        <ele>72.4</ele>
        <time>2023-05-03T14:20:19Z</time>
      </trkpt>
      <trkpt lat="49.87289" lon="1.99586">
        <ele>72.3</ele>
        <time>2023-05-03T14:20:20Z</time>
      </trkpt>
      <trkpt lat="49.87291" lon="1.99586">
        <ele>72.3</ele>
        <time>2023-05-03T14:20:21Z</time>
      </trkpt>
      <trkpt lat="49.87292" lon="1.99587">
        <ele>72.3</ele>
        <time>2023-05-03T14:20:23Z</time>
      </trkpt>
      <trkpt lat="49.87294" lon="1.99587">
        <ele>72.3</ele>
        <time>2023-05-03T14:20:24Z</time>
      </trkpt>
      <trkpt lat="49.87295" lon="1.9959">
        <ele>72.2</ele>
        <time>2023-05-03T14:20:25Z</time>
      </trkpt>
      <trkpt lat="49.87295" lon="1.99592">
        <ele>72.2</ele>
        <time>2023-05-03T14:20:26Z</time>
      </trkpt>
      <trkpt lat="49.87298" lon="1.99594">
        <ele>72.1</ele>
        <time>2023-05-03T14:20:28Z</time>
      </trkpt>
      <trkpt lat="49.873" lon="1.99595">
        <ele>72.1</ele>
        <time>2023-05-03T14:20:29Z</time>
      </trkpt>
      <trkpt lat="49.87301" lon="1.99595">
        <ele>72.1</ele>
        <time>2023-05-03T14:20:30Z</time>
      </trkpt>
      <trkpt lat="49.87301" lon="1.99595">
        <ele>72</ele>
        <time>2023-05-03T14:20:31Z</time>
      </trkpt>
      <trkpt lat="49.87303" lon="1.99595">
        <ele>72</ele>
        <time>2023-05-03T14:20:32Z</time>
      </trkpt>
      <trkpt lat="49.87304" lon="1.99596">
        <ele>72</ele>
        <time>2023-05-03T14:20:33Z</time>
      </trkpt>
      <trkpt lat="49.87305" lon="1.99597">
        <ele>71.9</ele>
        <time>2023-05-03T14:20:35Z</time>
      </trkpt>
      <trkpt lat="49.87307" lon="1.99598">
        <ele>71.9</ele>
        <time>2023-05-03T14:20:36Z</time>
      </trkpt>
      <trkpt lat="49.87308" lon="1.996">
        <ele>71.9</ele>
        <time>2023-05-03T14:20:37Z</time>
      </trkpt>
      <trkpt lat="49.87309" lon="1.99601">
        <ele>71.8</ele>
        <time>2023-05-03T14:20:38Z</time>
      </trkpt>
      <trkpt lat="49.87311" lon="1.99602">
        <ele>71.8</ele>
        <time>2023-05-03T14:20:39Z</time>
      </trkpt>
      <trkpt lat="49.87313" lon="1.99603">
        <ele>71.7</ele>
        <time>2023-05-03T14:20:41Z</time>
      </trkpt>
      <trkpt lat="49.87314" lon="1.99603">
        <ele>71.7</ele>
        <time>2023-05-03T14:20:42Z</time>
      </trkpt>
      <trkpt lat="49.87315" lon="1.99603">
        <ele>71.7</ele>
        <time>2023-05-03T14:20:43Z</time>
      </trkpt>
      <trkpt lat="49.87316" lon="1.99604">
        <ele>71.6</ele>
        <time>2023-05-03T14:20:44Z</time>
      </trkpt>
      <trkpt lat="49.87318" lon="1.99604">
        <ele>71.6</ele>
        <time>2023-05-03T14:20:45Z</time>
      </trkpt>
      <trkpt lat="49.87319" lon="1.99605">
        <ele>71.6</ele>
        <time>2023-05-03T14:20:46Z</time>
      </trkpt>
      <trkpt lat="49.8732" lon="1.99606">
        <ele>71.5</ele>
        <time>2023-05-03T14:20:47Z</time>
      </trkpt>
      <trkpt lat="49.87322" lon="1.99607">
        <ele>71.5</ele>
        <time>2023-05-03T14:20:49Z</time>
      </trkpt>
      <trkpt lat="49.87322" lon="1.99607">
        <ele>71.5</ele>
        <time>2023-05-03T14:20:50Z</time>
      </trkpt>
      <trkpt lat="49.87323" lon="1.99607">
        <ele>71.5</ele>
        <time>2023-05-03T14:20:51Z</time>
      </trkpt>
      <trkpt lat="49.87325" lon="1.99608">
        <ele>71.4</ele>
        <time>2023-05-03T14:20:52Z</time>
      </trkpt>
      <trkpt lat="49.87326" lon="1.99608">
        <ele>71.4</ele>
        <time>2023-05-03T14:20:53Z</time>
      </trkpt>
      <trkpt lat="49.87327" lon="1.99609">
        <ele>71.4</ele>
        <time>2023-05-03T14:20:54Z</time>
      </trkpt>
      <trkpt lat="49.87328" lon="1.99609">
        <ele>71.3</ele>
        <time>2023-05-03T14:20:55Z</time>
      </trkpt>
      <trkpt lat="49.87329" lon="1.9961">
        <ele>71.3</ele>
        <time>2023-05-03T14:20:56Z</time>
      </trkpt>
      <trkpt lat="49.87331" lon="1.9961">
        <ele>71.3</ele>
        <time>2023-05-03T14:20:58Z</time>
      </trkpt>
      <trkpt lat="49.87333" lon="1.99611">
        <ele>71.2</ele>
        <time>2023-05-03T14:20:59Z</time>
      </trkpt>
      <trkpt lat="49.87334" lon="1.99611">
        <ele>71.2</ele>
        <time>2023-05-03T14:21:01Z</time>
      </trkpt>
      <trkpt lat="49.87335" lon="1.99612">
        <ele>71.1</ele>
        <time>2023-05-03T14:21:02Z</time>
      </trkpt>
      <trkpt lat="49.87336" lon="1.99612">
        <ele>71.1</ele>
        <time>2023-05-03T14:21:03Z</time>
      </trkpt>
      <trkpt lat="49.87338" lon="1.99612">
        <ele>71.1</ele>
        <time>2023-05-03T14:21:04Z</time>
      </trkpt>
      <trkpt lat="49.87339" lon="1.99613">
        <ele>71</ele>
        <time>2023-05-03T14:21:05Z</time>
      </trkpt>
      <trkpt lat="49.8734" lon="1.99613">
        <ele>71</ele>
        <time>2023-05-03T14:21:06Z</time>
      </trkpt>
      <trkpt lat="49.87341" lon="1.99614">
        <ele>71</ele>
        <time>2023-05-03T14:21:07Z</time>
      </trkpt>
      <trkpt lat="49.87342" lon="1.99614">
        <ele>71</ele>
        <time>2023-05-03T14:21:08Z</time>
      </trkpt>
      <trkpt lat="49.87343" lon="1.99614">
        <ele>70.9</ele>
        <time>2023-05-03T14:21:09Z</time>
      </trkpt>
      <trkpt lat="49.87345" lon="1.99615">
        <ele>70.9</ele>
        <time>2023-05-03T14:21:11Z</time>
      </trkpt>
      <trkpt lat="49.87346" lon="1.99617">
        <ele>70.8</ele>
        <time>2023-05-03T14:21:12Z</time>
      </trkpt>
      <trkpt lat="49.87347" lon="1.99618">
        <ele>70.8</ele>
        <time>2023-05-03T14:21:13Z</time>
      </trkpt>
      <trkpt lat="49.87348" lon="1.9962">
        <ele>70.8</ele>
        <time>2023-05-03T14:21:14Z</time>
      </trkpt>
      <trkpt lat="49.8735" lon="1.99622">
        <ele>70.7</ele>
        <time>2023-05-03T14:21:16Z</time>
      </trkpt>
      <trkpt lat="49.8735" lon="1.99623">
        <ele>70.7</ele>
        <time>2023-05-03T14:21:17Z</time>
      </trkpt>
      <trkpt lat="49.87352" lon="1.99624">
        <ele>70.6</ele>
        <time>2023-05-03T14:21:18Z</time>
      </trkpt>
      <trkpt lat="49.87353" lon="1.99625">
        <ele>70.6</ele>
        <time>2023-05-03T14:21:19Z</time>
      </trkpt>
      <trkpt lat="49.87354" lon="1.99625">
        <ele>70.5</ele>
        <time>2023-05-03T14:21:20Z</time>
      </trkpt>
      <trkpt lat="49.87356" lon="1.99626">
        <ele>70.5</ele>
        <time>2023-05-03T14:21:21Z</time>
      </trkpt>
      <trkpt lat="49.87358" lon="1.99627">
        <ele>70.5</ele>
        <time>2023-05-03T14:21:23Z</time>
      </trkpt>
      <trkpt lat="49.87359" lon="1.99627">
        <ele>70.4</ele>
        <time>2023-05-03T14:21:24Z</time>
      </trkpt>
      <trkpt lat="49.87359" lon="1.99627">
        <ele>70.4</ele>
        <time>2023-05-03T14:21:25Z</time>
      </trkpt>
      <trkpt lat="49.87361" lon="1.99628">
        <ele>70.4</ele>
        <time>2023-05-03T14:21:26Z</time>
      </trkpt>
      <trkpt lat="49.87362" lon="1.99628">
        <ele>70.3</ele>
        <time>2023-05-03T14:21:27Z</time>
      </trkpt>
      <trkpt lat="49.87363" lon="1.99629">
        <ele>70.3</ele>
        <time>2023-05-03T14:21:28Z</time>
      </trkpt>
      <trkpt lat="49.87364" lon="1.99629">
        <ele>70.3</ele>
        <time>2023-05-03T14:21:29Z</time>
      </trkpt>
      <trkpt lat="49.87365" lon="1.9963">
        <ele>70.3</ele>
        <time>2023-05-03T14:21:30Z</time>
      </trkpt>
      <trkpt lat="49.87366" lon="1.9963">
        <ele>70.2</ele>
        <time>2023-05-03T14:21:31Z</time>
      </trkpt>
      <trkpt lat="49.87367" lon="1.99631">
        <ele>70.2</ele>
        <time>2023-05-03T14:21:32Z</time>
      </trkpt>
      <trkpt lat="49.87368" lon="1.99632">
        <ele>70.2</ele>
        <time>2023-05-03T14:21:33Z</time>
      </trkpt>
      <trkpt lat="49.8737" lon="1.99634">
        <ele>70.1</ele>
        <time>2023-05-03T14:21:35Z</time>
      </trkpt>
      <trkpt lat="49.8737" lon="1.99636">
        <ele>70.1</ele>
        <time>2023-05-03T14:21:37Z</time>
      </trkpt>
      <trkpt lat="49.87372" lon="1.99637">
        <ele>70</ele>
        <time>2023-05-03T14:21:38Z</time>
      </trkpt>
      <trkpt lat="49.87373" lon="1.99637">
        <ele>70</ele>
        <time>2023-05-03T14:21:39Z</time>
      </trkpt>
      <trkpt lat="49.87374" lon="1.99638">
        <ele>70</ele>
        <time>2023-05-03T14:21:40Z</time>
      </trkpt>
      <trkpt lat="49.87376" lon="1.99638">
        <ele>69.9</ele>
        <time>2023-05-03T14:21:41Z</time>
      </trkpt>
      <trkpt lat="49.87377" lon="1.99638">
        <ele>69.9</ele>
        <time>2023-05-03T14:21:42Z</time>
      </trkpt>
      <trkpt lat="49.87378" lon="1.99639">
        <ele>69.9</ele>
        <time>2023-05-03T14:21:43Z</time>
      </trkpt>
      <trkpt lat="49.8738" lon="1.99639">
        <ele>69.9</ele>
        <time>2023-05-03T14:21:44Z</time>
      </trkpt>
      <trkpt lat="49.87382" lon="1.9964">
        <ele>69.8</ele>
        <time>2023-05-03T14:21:46Z</time>
      </trkpt>
      <trkpt lat="49.87383" lon="1.9964">
        <ele>69.8</ele>
        <time>2023-05-03T14:21:47Z</time>
      </trkpt>
      <trkpt lat="49.87384" lon="1.99641">
        <ele>69.8</ele>
        <time>2023-05-03T14:21:48Z</time>
      </trkpt>
      <trkpt lat="49.87385" lon="1.99642">
        <ele>69.7</ele>
        <time>2023-05-03T14:21:49Z</time>
      </trkpt>
      <trkpt lat="49.87387" lon="1.99643">
        <ele>69.7</ele>
        <time>2023-05-03T14:21:50Z</time>
      </trkpt>
      <trkpt lat="49.87388" lon="1.99643">
        <ele>69.7</ele>
        <time>2023-05-03T14:21:52Z</time>
      </trkpt>
      <trkpt lat="49.8739" lon="1.99644">
        <ele>69.7</ele>
        <time>2023-05-03T14:21:53Z</time>
      </trkpt>
      <trkpt lat="49.87391" lon="1.99645">
        <ele>69.6</ele>
        <time>2023-05-03T14:21:54Z</time>
      </trkpt>
      <trkpt lat="49.87392" lon="1.99646">
        <ele>69.6</ele>
        <time>2023-05-03T14:21:55Z</time>
      </trkpt>
      <trkpt lat="49.87394" lon="1.99647">
        <ele>69.6</ele>
        <time>2023-05-03T14:21:56Z</time>
      </trkpt>
      <trkpt lat="49.87395" lon="1.99648">
        <ele>69.5</ele>
        <time>2023-05-03T14:21:57Z</time>
      </trkpt>
      <trkpt lat="49.87397" lon="1.99649">
        <ele>69.5</ele>
        <time>2023-05-03T14:21:58Z</time>
      </trkpt>
      <trkpt lat="49.87398" lon="1.9965">
        <ele>69.5</ele>
        <time>2023-05-03T14:21:59Z</time>
      </trkpt>
      <trkpt lat="49.87399" lon="1.9965">
        <ele>69.5</ele>
        <time>2023-05-03T14:22:00Z</time>
      </trkpt>
      <trkpt lat="49.87401" lon="1.99651">
        <ele>69.4</ele>
        <time>2023-05-03T14:22:01Z</time>
      </trkpt>
      <trkpt lat="49.87402" lon="1.99652">
        <ele>69.4</ele>
        <time>2023-05-03T14:22:03Z</time>
      </trkpt>
      <trkpt lat="49.87403" lon="1.99653">
        <ele>69.4</ele>
        <time>2023-05-03T14:22:04Z</time>
      </trkpt>
      <trkpt lat="49.87404" lon="1.99653">
        <ele>69.3</ele>
        <time>2023-05-03T14:22:05Z</time>
      </trkpt>
      <trkpt lat="49.87405" lon="1.99654">
        <ele>69.3</ele>
        <time>2023-05-03T14:22:06Z</time>
      </trkpt>
      <trkpt lat="49.87406" lon="1.99655">
        <ele>69.3</ele>
        <time>2023-05-03T14:22:07Z</time>
      </trkpt>
      <trkpt lat="49.87409" lon="1.99656">
        <ele>69.2</ele>
        <time>2023-05-03T14:22:09Z</time>
      </trkpt>
      <trkpt lat="49.8741" lon="1.99657">
        <ele>69.2</ele>
        <time>2023-05-03T14:22:10Z</time>
      </trkpt>
      <trkpt lat="49.87411" lon="1.99658">
        <ele>69.1</ele>
        <time>2023-05-03T14:22:11Z</time>
      </trkpt>
      <trkpt lat="49.87413" lon="1.99659">
        <ele>69</ele>
        <time>2023-05-03T14:22:12Z</time>
      </trkpt>
      <trkpt lat="49.87414" lon="1.9966">
        <ele>69</ele>
        <time>2023-05-03T14:22:13Z</time>
      </trkpt>
      <trkpt lat="49.87415" lon="1.99661">
        <ele>69</ele>
        <time>2023-05-03T14:22:14Z</time>
      </trkpt>
      <trkpt lat="49.87416" lon="1.99662">
        <ele>69</ele>
        <time>2023-05-03T14:22:15Z</time>
      </trkpt>
      <trkpt lat="49.87417" lon="1.99663">
        <ele>68.9</ele>
        <time>2023-05-03T14:22:17Z</time>
      </trkpt>
      <trkpt lat="49.87419" lon="1.99664">
        <ele>68.9</ele>
        <time>2023-05-03T14:22:18Z</time>
      </trkpt>
      <trkpt lat="49.8742" lon="1.99665">
        <ele>68.8</ele>
        <time>2023-05-03T14:22:19Z</time>
      </trkpt>
      <trkpt lat="49.87421" lon="1.99667">
        <ele>68.8</ele>
        <time>2023-05-03T14:22:20Z</time>
      </trkpt>
      <trkpt lat="49.87422" lon="1.99668">
        <ele>68.7</ele>
        <time>2023-05-03T14:22:21Z</time>
      </trkpt>
      <trkpt lat="49.87424" lon="1.99671">
        <ele>68.6</ele>
        <time>2023-05-03T14:22:23Z</time>
      </trkpt>
      <trkpt lat="49.87425" lon="1.99673">
        <ele>68.6</ele>
        <time>2023-05-03T14:22:24Z</time>
      </trkpt>
      <trkpt lat="49.87425" lon="1.99676">
        <ele>68.5</ele>
        <time>2023-05-03T14:22:25Z</time>
      </trkpt>
      <trkpt lat="49.87426" lon="1.99678">
        <ele>68.5</ele>
        <time>2023-05-03T14:22:26Z</time>
      </trkpt>
      <trkpt lat="49.87427" lon="1.99679">
        <ele>68.4</ele>
        <time>2023-05-03T14:22:27Z</time>
      </trkpt>
      <trkpt lat="49.87428" lon="1.9968">
        <ele>68.4</ele>
        <time>2023-05-03T14:22:28Z</time>
      </trkpt>
      <trkpt lat="49.8743" lon="1.99681">
        <ele>68.3</ele>
        <time>2023-05-03T14:22:30Z</time>
      </trkpt>
      <trkpt lat="49.87431" lon="1.99682">
        <ele>68.3</ele>
        <time>2023-05-03T14:22:31Z</time>
      </trkpt>
      <trkpt lat="49.87432" lon="1.99682">
        <ele>68.3</ele>
        <time>2023-05-03T14:22:32Z</time>
      </trkpt>
      <trkpt lat="49.87434" lon="1.99683">
        <ele>68.2</ele>
        <time>2023-05-03T14:22:33Z</time>
      </trkpt>
      <trkpt lat="49.87435" lon="1.99684">
        <ele>68.2</ele>
        <time>2023-05-03T14:22:34Z</time>
      </trkpt>
      <trkpt lat="49.87435" lon="1.99684">
        <ele>68.2</ele>
        <time>2023-05-03T14:22:35Z</time>
      </trkpt>
      <trkpt lat="49.87438" lon="1.99685">
        <ele>68.1</ele>
        <time>2023-05-03T14:22:36Z</time>
      </trkpt>
      <trkpt lat="49.87439" lon="1.99686">
        <ele>68.1</ele>
        <time>2023-05-03T14:22:38Z</time>
      </trkpt>
      <trkpt lat="49.8744" lon="1.99687">
        <ele>68.1</ele>
        <time>2023-05-03T14:22:39Z</time>
      </trkpt>
      <trkpt lat="49.87441" lon="1.99688">
        <ele>68.1</ele>
        <time>2023-05-03T14:22:40Z</time>
      </trkpt>
      <trkpt lat="49.87442" lon="1.99688">
        <ele>68</ele>
        <time>2023-05-03T14:22:41Z</time>
      </trkpt>
      <trkpt lat="49.87444" lon="1.99689">
        <ele>68</ele>
        <time>2023-05-03T14:22:42Z</time>
      </trkpt>
      <trkpt lat="49.87445" lon="1.99691">
        <ele>68</ele>
        <time>2023-05-03T14:22:44Z</time>
      </trkpt>
      <trkpt lat="49.87446" lon="1.99692">
        <ele>68</ele>
        <time>2023-05-03T14:22:45Z</time>
      </trkpt>
      <trkpt lat="49.87448" lon="1.99692">
        <ele>67.9</ele>
        <time>2023-05-03T14:22:46Z</time>
      </trkpt>
      <trkpt lat="49.87449" lon="1.99693">
        <ele>67.9</ele>
        <time>2023-05-03T14:22:47Z</time>
      </trkpt>
      <trkpt lat="49.8745" lon="1.99694">
        <ele>67.9</ele>
        <time>2023-05-03T14:22:48Z</time>
      </trkpt>
      <trkpt lat="49.87451" lon="1.99696">
        <ele>67.9</ele>
        <time>2023-05-03T14:22:49Z</time>
      </trkpt>
      <trkpt lat="49.87453" lon="1.99697">
        <ele>67.9</ele>
        <time>2023-05-03T14:22:50Z</time>
      </trkpt>
      <trkpt lat="49.87454" lon="1.99698">
        <ele>67.9</ele>
        <time>2023-05-03T14:22:51Z</time>
      </trkpt>
      <trkpt lat="49.87455" lon="1.99699">
        <ele>67.8</ele>
        <time>2023-05-03T14:22:53Z</time>
      </trkpt>
      <trkpt lat="49.87456" lon="1.997">
        <ele>67.8</ele>
        <time>2023-05-03T14:22:54Z</time>
      </trkpt>
      <trkpt lat="49.87458" lon="1.99701">
        <ele>67.8</ele>
        <time>2023-05-03T14:22:55Z</time>
      </trkpt>
      <trkpt lat="49.87459" lon="1.99702">
        <ele>67.8</ele>
        <time>2023-05-03T14:22:56Z</time>
      </trkpt>
      <trkpt lat="49.8746" lon="1.99703">
        <ele>67.8</ele>
        <time>2023-05-03T14:22:57Z</time>
      </trkpt>
      <trkpt lat="49.8746" lon="1.99708">
        <ele>67.7</ele>
        <time>2023-05-03T14:22:58Z</time>
      </trkpt>
      <trkpt lat="49.8746" lon="1.9971">
        <ele>67.7</ele>
        <time>2023-05-03T14:22:59Z</time>
      </trkpt>
      <trkpt lat="49.87461" lon="1.99713">
        <ele>67.7</ele>
        <time>2023-05-03T14:23:00Z</time>
      </trkpt>
      <trkpt lat="49.87462" lon="1.99715">
        <ele>67.6</ele>
        <time>2023-05-03T14:23:02Z</time>
      </trkpt>
      <trkpt lat="49.87463" lon="1.99716">
        <ele>67.6</ele>
        <time>2023-05-03T14:23:03Z</time>
      </trkpt>
      <trkpt lat="49.87465" lon="1.99718">
        <ele>67.6</ele>
        <time>2023-05-03T14:23:04Z</time>
      </trkpt>
      <trkpt lat="49.87466" lon="1.99719">
        <ele>67.5</ele>
        <time>2023-05-03T14:23:06Z</time>
      </trkpt>
      <trkpt lat="49.87467" lon="1.9972">
        <ele>67.5</ele>
        <time>2023-05-03T14:23:07Z</time>
      </trkpt>
      <trkpt lat="49.87468" lon="1.99721">
        <ele>67.5</ele>
        <time>2023-05-03T14:23:08Z</time>
      </trkpt>
      <trkpt lat="49.87469" lon="1.99722">
        <ele>67.5</ele>
        <time>2023-05-03T14:23:09Z</time>
      </trkpt>
      <trkpt lat="49.8747" lon="1.99723">
        <ele>67.4</ele>
        <time>2023-05-03T14:23:10Z</time>
      </trkpt>
      <trkpt lat="49.87472" lon="1.99724">
        <ele>67.4</ele>
        <time>2023-05-03T14:23:12Z</time>
      </trkpt>
      <trkpt lat="49.87471" lon="1.99726">
        <ele>67.4</ele>
        <time>2023-05-03T14:23:13Z</time>
      </trkpt>
      <trkpt lat="49.87471" lon="1.99729">
        <ele>67.3</ele>
        <time>2023-05-03T14:23:15Z</time>
      </trkpt>
      <trkpt lat="49.87471" lon="1.9973">
        <ele>67.3</ele>
        <time>2023-05-03T14:23:16Z</time>
      </trkpt>
      <trkpt lat="49.87472" lon="1.99731">
        <ele>67.3</ele>
        <time>2023-05-03T14:23:17Z</time>
      </trkpt>
      <trkpt lat="49.87473" lon="1.99732">
        <ele>67.3</ele>
        <time>2023-05-03T14:23:18Z</time>
      </trkpt>
      <trkpt lat="49.87474" lon="1.99733">
        <ele>67.3</ele>
        <time>2023-05-03T14:23:19Z</time>
      </trkpt>
      <trkpt lat="49.87475" lon="1.99733">
        <ele>67.2</ele>
        <time>2023-05-03T14:23:20Z</time>
      </trkpt>
      <trkpt lat="49.87476" lon="1.99734">
        <ele>67.2</ele>
        <time>2023-05-03T14:23:22Z</time>
      </trkpt>
      <trkpt lat="49.87477" lon="1.99735">
        <ele>67.2</ele>
        <time>2023-05-03T14:23:23Z</time>
      </trkpt>
      <trkpt lat="49.87478" lon="1.99735">
        <ele>67.2</ele>
        <time>2023-05-03T14:23:24Z</time>
      </trkpt>
      <trkpt lat="49.87479" lon="1.99736">
        <ele>67.1</ele>
        <time>2023-05-03T14:23:25Z</time>
      </trkpt>
      <trkpt lat="49.8748" lon="1.99736">
        <ele>67.1</ele>
        <time>2023-05-03T14:23:26Z</time>
      </trkpt>
      <trkpt lat="49.87481" lon="1.99737">
        <ele>67.1</ele>
        <time>2023-05-03T14:23:27Z</time>
      </trkpt>
      <trkpt lat="49.87482" lon="1.99737">
        <ele>67.1</ele>
        <time>2023-05-03T14:23:28Z</time>
      </trkpt>
      <trkpt lat="49.87484" lon="1.99738">
        <ele>67</ele>
        <time>2023-05-03T14:23:30Z</time>
      </trkpt>
      <trkpt lat="49.87486" lon="1.9974">
        <ele>67</ele>
        <time>2023-05-03T14:23:31Z</time>
      </trkpt>
      <trkpt lat="49.87486" lon="1.9974">
        <ele>67</ele>
        <time>2023-05-03T14:23:33Z</time>
      </trkpt>
      <trkpt lat="49.87487" lon="1.99741">
        <ele>67</ele>
        <time>2023-05-03T14:23:34Z</time>
      </trkpt>
      <trkpt lat="49.87489" lon="1.99742">
        <ele>66.9</ele>
        <time>2023-05-03T14:23:35Z</time>
      </trkpt>
      <trkpt lat="49.8749" lon="1.99742">
        <ele>66.9</ele>
        <time>2023-05-03T14:23:36Z</time>
      </trkpt>
      <trkpt lat="49.87491" lon="1.99743">
        <ele>66.9</ele>
        <time>2023-05-03T14:23:37Z</time>
      </trkpt>
      <trkpt lat="49.87493" lon="1.99743">
        <ele>66.8</ele>
        <time>2023-05-03T14:23:38Z</time>
      </trkpt>
      <trkpt lat="49.87494" lon="1.99744">
        <ele>66.8</ele>
        <time>2023-05-03T14:23:39Z</time>
      </trkpt>
      <trkpt lat="49.87494" lon="1.99744">
        <ele>66.8</ele>
        <time>2023-05-03T14:23:40Z</time>
      </trkpt>
      <trkpt lat="49.87495" lon="1.99745">
        <ele>66.8</ele>
        <time>2023-05-03T14:23:41Z</time>
      </trkpt>
      <trkpt lat="49.87495" lon="1.99747">
        <ele>66.8</ele>
        <time>2023-05-03T14:23:43Z</time>
      </trkpt>
      <trkpt lat="49.87495" lon="1.99748">
        <ele>66.8</ele>
        <time>2023-05-03T14:23:44Z</time>
      </trkpt>
      <trkpt lat="49.87496" lon="1.99748">
        <ele>66.7</ele>
        <time>2023-05-03T14:23:45Z</time>
      </trkpt>
      <trkpt lat="49.87497" lon="1.99749">
        <ele>66.7</ele>
        <time>2023-05-03T14:23:47Z</time>
      </trkpt>
      <trkpt lat="49.87498" lon="1.9975">
        <ele>66.7</ele>
        <time>2023-05-03T14:23:48Z</time>
      </trkpt>
      <trkpt lat="49.875" lon="1.9975">
        <ele>66.7</ele>
        <time>2023-05-03T14:23:50Z</time>
      </trkpt>
      <trkpt lat="49.87501" lon="1.99751">
        <ele>66.6</ele>
        <time>2023-05-03T14:23:51Z</time>
      </trkpt>
      <trkpt lat="49.87502" lon="1.99752">
        <ele>66.6</ele>
        <time>2023-05-03T14:23:52Z</time>
      </trkpt>
      <trkpt lat="49.87503" lon="1.99753">
        <ele>66.6</ele>
        <time>2023-05-03T14:23:53Z</time>
      </trkpt>
      <trkpt lat="49.87504" lon="1.99753">
        <ele>66.6</ele>
        <time>2023-05-03T14:23:54Z</time>
      </trkpt>
      <trkpt lat="49.87506" lon="1.99754">
        <ele>66.5</ele>
        <time>2023-05-03T14:23:55Z</time>
      </trkpt>
      <trkpt lat="49.87507" lon="1.99755">
        <ele>66.5</ele>
        <time>2023-05-03T14:23:57Z</time>
      </trkpt>
      <trkpt lat="49.87507" lon="1.99755">
        <ele>66.5</ele>
        <time>2023-05-03T14:23:58Z</time>
      </trkpt>
      <trkpt lat="49.87509" lon="1.99756">
        <ele>66.5</ele>
        <time>2023-05-03T14:23:59Z</time>
      </trkpt>
      <trkpt lat="49.8751" lon="1.99757">
        <ele>66.5</ele>
        <time>2023-05-03T14:24:00Z</time>
      </trkpt>
      <trkpt lat="49.87511" lon="1.99758">
        <ele>66.5</ele>
        <time>2023-05-03T14:24:02Z</time>
      </trkpt>
      <trkpt lat="49.87512" lon="1.99759">
        <ele>66.4</ele>
        <time>2023-05-03T14:24:03Z</time>
      </trkpt>
      <trkpt lat="49.87513" lon="1.99759">
        <ele>66.4</ele>
        <time>2023-05-03T14:24:04Z</time>
      </trkpt>
      <trkpt lat="49.87514" lon="1.9976">
        <ele>66.4</ele>
        <time>2023-05-03T14:24:05Z</time>
      </trkpt>
      <trkpt lat="49.87515" lon="1.99761">
        <ele>66.4</ele>
        <time>2023-05-03T14:24:06Z</time>
      </trkpt>
      <trkpt lat="49.87516" lon="1.99761">
        <ele>66.3</ele>
        <time>2023-05-03T14:24:07Z</time>
      </trkpt>
      <trkpt lat="49.87518" lon="1.99761">
        <ele>66.3</ele>
        <time>2023-05-03T14:24:09Z</time>
      </trkpt>
      <trkpt lat="49.8752" lon="1.99762">
        <ele>66.3</ele>
        <time>2023-05-03T14:24:10Z</time>
      </trkpt>
      <trkpt lat="49.87521" lon="1.99763">
        <ele>66.2</ele>
        <time>2023-05-03T14:24:11Z</time>
      </trkpt>
      <trkpt lat="49.87522" lon="1.99763">
        <ele>66.2</ele>
        <time>2023-05-03T14:24:12Z</time>
      </trkpt>
      <trkpt lat="49.87524" lon="1.99764">
        <ele>66.2</ele>
        <time>2023-05-03T14:24:14Z</time>
      </trkpt>
      <trkpt lat="49.87525" lon="1.99764">
        <ele>66.2</ele>
        <time>2023-05-03T14:24:15Z</time>
      </trkpt>
      <trkpt lat="49.87527" lon="1.99765">
        <ele>66.1</ele>
        <time>2023-05-03T14:24:16Z</time>
      </trkpt>
      <trkpt lat="49.87528" lon="1.99766">
        <ele>66.1</ele>
        <time>2023-05-03T14:24:17Z</time>
      </trkpt>
      <trkpt lat="49.87529" lon="1.99766">
        <ele>66.1</ele>
        <time>2023-05-03T14:24:18Z</time>
      </trkpt>
      <trkpt lat="49.8753" lon="1.99767">
        <ele>66.1</ele>
        <time>2023-05-03T14:24:19Z</time>
      </trkpt>
      <trkpt lat="49.87531" lon="1.99767">
        <ele>66.1</ele>
        <time>2023-05-03T14:24:20Z</time>
      </trkpt>
      <trkpt lat="49.87532" lon="1.99768">
        <ele>66</ele>
        <time>2023-05-03T14:24:22Z</time>
      </trkpt>
      <trkpt lat="49.87533" lon="1.99769">
        <ele>66</ele>
        <time>2023-05-03T14:24:23Z</time>
      </trkpt>
      <trkpt lat="49.87534" lon="1.9977">
        <ele>66</ele>
        <time>2023-05-03T14:24:24Z</time>
      </trkpt>
      <trkpt lat="49.87536" lon="1.99771">
        <ele>66</ele>
        <time>2023-05-03T14:24:25Z</time>
      </trkpt>
      <trkpt lat="49.87538" lon="1.99772">
        <ele>65.9</ele>
        <time>2023-05-03T14:24:26Z</time>
      </trkpt>
      <trkpt lat="49.87538" lon="1.99773">
        <ele>65.9</ele>
        <time>2023-05-03T14:24:27Z</time>
      </trkpt>
      <trkpt lat="49.87539" lon="1.99774">
        <ele>65.9</ele>
        <time>2023-05-03T14:24:28Z</time>
      </trkpt>
      <trkpt lat="49.87541" lon="1.99775">
        <ele>65.9</ele>
        <time>2023-05-03T14:24:30Z</time>
      </trkpt>
      <trkpt lat="49.87542" lon="1.99776">
        <ele>65.8</ele>
        <time>2023-05-03T14:24:31Z</time>
      </trkpt>
      <trkpt lat="49.87543" lon="1.99777">
        <ele>65.8</ele>
        <time>2023-05-03T14:24:32Z</time>
      </trkpt>
      <trkpt lat="49.87545" lon="1.99778">
        <ele>65.8</ele>
        <time>2023-05-03T14:24:33Z</time>
      </trkpt>
      <trkpt lat="49.87546" lon="1.99779">
        <ele>65.8</ele>
        <time>2023-05-03T14:24:34Z</time>
      </trkpt>
      <trkpt lat="49.87547" lon="1.9978">
        <ele>65.7</ele>
        <time>2023-05-03T14:24:35Z</time>
      </trkpt>
      <trkpt lat="49.87548" lon="1.99781">
        <ele>65.7</ele>
        <time>2023-05-03T14:24:37Z</time>
      </trkpt>
      <trkpt lat="49.8755" lon="1.99783">
        <ele>65.7</ele>
        <time>2023-05-03T14:24:38Z</time>
      </trkpt>
      <trkpt lat="49.87551" lon="1.99785">
        <ele>65.6</ele>
        <time>2023-05-03T14:24:39Z</time>
      </trkpt>
      <trkpt lat="49.87551" lon="1.99786">
        <ele>65.6</ele>
        <time>2023-05-03T14:24:40Z</time>
      </trkpt>
      <trkpt lat="49.8755" lon="1.99792">
        <ele>65.5</ele>
        <time>2023-05-03T14:24:41Z</time>
      </trkpt>
      <trkpt lat="49.87551" lon="1.99794">
        <ele>65.5</ele>
        <time>2023-05-03T14:24:43Z</time>
      </trkpt>
      <trkpt lat="49.87552" lon="1.99796">
        <ele>65.5</ele>
        <time>2023-05-03T14:24:44Z</time>
      </trkpt>
      <trkpt lat="49.87553" lon="1.99798">
        <ele>65.5</ele>
        <time>2023-05-03T14:24:45Z</time>
      </trkpt>
      <trkpt lat="49.87554" lon="1.99799">
        <ele>65.4</ele>
        <time>2023-05-03T14:24:46Z</time>
      </trkpt>
      <trkpt lat="49.87555" lon="1.998">
        <ele>65.4</ele>
        <time>2023-05-03T14:24:48Z</time>
      </trkpt>
      <trkpt lat="49.87555" lon="1.99801">
        <ele>65.4</ele>
        <time>2023-05-03T14:24:49Z</time>
      </trkpt>
      <trkpt lat="49.87556" lon="1.99802">
        <ele>65.4</ele>
        <time>2023-05-03T14:24:50Z</time>
      </trkpt>
      <trkpt lat="49.87557" lon="1.99803">
        <ele>65.4</ele>
        <time>2023-05-03T14:24:51Z</time>
      </trkpt>
      <trkpt lat="49.87558" lon="1.99804">
        <ele>65.3</ele>
        <time>2023-05-03T14:24:52Z</time>
      </trkpt>
      <trkpt lat="49.8756" lon="1.99805">
        <ele>65.3</ele>
        <time>2023-05-03T14:24:53Z</time>
      </trkpt>
      <trkpt lat="49.87562" lon="1.99806">
        <ele>65.3</ele>
        <time>2023-05-03T14:24:54Z</time>
      </trkpt>
      <trkpt lat="49.87562" lon="1.99807">
        <ele>65.3</ele>
        <time>2023-05-03T14:24:55Z</time>
      </trkpt>
      <trkpt lat="49.87563" lon="1.99807">
        <ele>65.2</ele>
        <time>2023-05-03T14:24:56Z</time>
      </trkpt>
      <trkpt lat="49.87564" lon="1.99808">
        <ele>65.2</ele>
        <time>2023-05-03T14:24:57Z</time>
      </trkpt>
      <trkpt lat="49.87566" lon="1.99809">
        <ele>65.2</ele>
        <time>2023-05-03T14:24:58Z</time>
      </trkpt>
      <trkpt lat="49.87568" lon="1.9981">
        <ele>65.2</ele>
        <time>2023-05-03T14:25:00Z</time>
      </trkpt>
      <trkpt lat="49.87568" lon="1.99811">
        <ele>65.1</ele>
        <time>2023-05-03T14:25:01Z</time>
      </trkpt>
      <trkpt lat="49.87569" lon="1.99811">
        <ele>65.1</ele>
        <time>2023-05-03T14:25:02Z</time>
      </trkpt>
      <trkpt lat="49.87571" lon="1.99814">
        <ele>65.1</ele>
        <time>2023-05-03T14:25:03Z</time>
      </trkpt>
      <trkpt lat="49.87571" lon="1.99817">
        <ele>65.1</ele>
        <time>2023-05-03T14:25:04Z</time>
      </trkpt>
      <trkpt lat="49.87571" lon="1.99819">
        <ele>65</ele>
        <time>2023-05-03T14:25:05Z</time>
      </trkpt>
      <trkpt lat="49.87571" lon="1.99823">
        <ele>65</ele>
        <time>2023-05-03T14:25:06Z</time>
      </trkpt>
      <trkpt lat="49.87572" lon="1.99825">
        <ele>65</ele>
        <time>2023-05-03T14:25:07Z</time>
      </trkpt>
      <trkpt lat="49.87573" lon="1.99826">
        <ele>64.9</ele>
        <time>2023-05-03T14:25:08Z</time>
      </trkpt>
      <trkpt lat="49.87574" lon="1.99828">
        <ele>64.9</ele>
        <time>2023-05-03T14:25:09Z</time>
      </trkpt>
      <trkpt lat="49.87576" lon="1.9983">
        <ele>64.9</ele>
        <time>2023-05-03T14:25:10Z</time>
      </trkpt>
      <trkpt lat="49.87577" lon="1.99831">
        <ele>64.8</ele>
        <time>2023-05-03T14:25:12Z</time>
      </trkpt>
      <trkpt lat="49.87578" lon="1.99832">
        <ele>64.8</ele>
        <time>2023-05-03T14:25:13Z</time>
      </trkpt>
      <trkpt lat="49.87579" lon="1.99833">
        <ele>64.8</ele>
        <time>2023-05-03T14:25:14Z</time>
      </trkpt>
      <trkpt lat="49.87579" lon="1.99834">
        <ele>64.8</ele>
        <time>2023-05-03T14:25:15Z</time>
      </trkpt>
      <trkpt lat="49.8758" lon="1.99835">
        <ele>64.7</ele>
        <time>2023-05-03T14:25:16Z</time>
      </trkpt>
      <trkpt lat="49.87582" lon="1.99838">
        <ele>64.7</ele>
        <time>2023-05-03T14:25:18Z</time>
      </trkpt>
      <trkpt lat="49.87583" lon="1.99839">
        <ele>64.7</ele>
        <time>2023-05-03T14:25:19Z</time>
      </trkpt>
      <trkpt lat="49.87584" lon="1.99841">
        <ele>64.6</ele>
        <time>2023-05-03T14:25:20Z</time>
      </trkpt>
      <trkpt lat="49.87586" lon="1.99843">
        <ele>64.6</ele>
        <time>2023-05-03T14:25:21Z</time>
      </trkpt>
      <trkpt lat="49.87587" lon="1.99845">
        <ele>64.5</ele>
        <time>2023-05-03T14:25:22Z</time>
      </trkpt>
      <trkpt lat="49.87589" lon="1.99848">
        <ele>64.5</ele>
        <time>2023-05-03T14:25:24Z</time>
      </trkpt>
      <trkpt lat="49.87589" lon="1.99849">
        <ele>64.5</ele>
        <time>2023-05-03T14:25:25Z</time>
      </trkpt>
      <trkpt lat="49.87591" lon="1.99853">
        <ele>64.4</ele>
        <time>2023-05-03T14:25:27Z</time>
      </trkpt>
      <trkpt lat="49.87592" lon="1.99854">
        <ele>64.4</ele>
        <time>2023-05-03T14:25:28Z</time>
      </trkpt>
      <trkpt lat="49.87593" lon="1.99856">
        <ele>64.3</ele>
        <time>2023-05-03T14:25:29Z</time>
      </trkpt>
      <trkpt lat="49.87594" lon="1.99858">
        <ele>64.3</ele>
        <time>2023-05-03T14:25:30Z</time>
      </trkpt>
      <trkpt lat="49.87596" lon="1.99861">
        <ele>64.3</ele>
        <time>2023-05-03T14:25:32Z</time>
      </trkpt>
      <trkpt lat="49.87596" lon="1.99862">
        <ele>64.3</ele>
        <time>2023-05-03T14:25:33Z</time>
      </trkpt>
      <trkpt lat="49.87597" lon="1.99864">
        <ele>64.3</ele>
        <time>2023-05-03T14:25:34Z</time>
      </trkpt>
      <trkpt lat="49.87598" lon="1.99865">
        <ele>64.2</ele>
        <time>2023-05-03T14:25:35Z</time>
      </trkpt>
      <trkpt lat="49.876" lon="1.99868">
        <ele>64.2</ele>
        <time>2023-05-03T14:25:36Z</time>
      </trkpt>
      <trkpt lat="49.87601" lon="1.99869">
        <ele>64.2</ele>
        <time>2023-05-03T14:25:38Z</time>
      </trkpt>
      <trkpt lat="49.87602" lon="1.99871">
        <ele>64.2</ele>
        <time>2023-05-03T14:25:39Z</time>
      </trkpt>
      <trkpt lat="49.87603" lon="1.99872">
        <ele>64.1</ele>
        <time>2023-05-03T14:25:40Z</time>
      </trkpt>
      <trkpt lat="49.87604" lon="1.99874">
        <ele>64.1</ele>
        <time>2023-05-03T14:25:41Z</time>
      </trkpt>
      <trkpt lat="49.87605" lon="1.99875">
        <ele>64.1</ele>
        <time>2023-05-03T14:25:42Z</time>
      </trkpt>
      <trkpt lat="49.87606" lon="1.99877">
        <ele>64.1</ele>
        <time>2023-05-03T14:25:43Z</time>
      </trkpt>
      <trkpt lat="49.87607" lon="1.99878">
        <ele>64.1</ele>
        <time>2023-05-03T14:25:44Z</time>
      </trkpt>
      <trkpt lat="49.87608" lon="1.9988">
        <ele>64</ele>
        <time>2023-05-03T14:25:45Z</time>
      </trkpt>
      <trkpt lat="49.87609" lon="1.99882">
        <ele>64</ele>
        <time>2023-05-03T14:25:46Z</time>
      </trkpt>
      <trkpt lat="49.87609" lon="1.99886">
        <ele>64</ele>
        <time>2023-05-03T14:25:48Z</time>
      </trkpt>
      <trkpt lat="49.87609" lon="1.99887">
        <ele>64</ele>
        <time>2023-05-03T14:25:49Z</time>
      </trkpt>
      <trkpt lat="49.8761" lon="1.9989">
        <ele>63.9</ele>
        <time>2023-05-03T14:25:51Z</time>
      </trkpt>
      <trkpt lat="49.87611" lon="1.99892">
        <ele>63.9</ele>
        <time>2023-05-03T14:25:52Z</time>
      </trkpt>
      <trkpt lat="49.87612" lon="1.99893">
        <ele>63.9</ele>
        <time>2023-05-03T14:25:53Z</time>
      </trkpt>
      <trkpt lat="49.87613" lon="1.99895">
        <ele>63.9</ele>
        <time>2023-05-03T14:25:54Z</time>
      </trkpt>
      <trkpt lat="49.87614" lon="1.99897">
        <ele>63.8</ele>
        <time>2023-05-03T14:25:56Z</time>
      </trkpt>
      <trkpt lat="49.87615" lon="1.999">
        <ele>63.8</ele>
        <time>2023-05-03T14:25:57Z</time>
      </trkpt>
      <trkpt lat="49.87616" lon="1.99901">
        <ele>63.8</ele>
        <time>2023-05-03T14:25:58Z</time>
      </trkpt>
      <trkpt lat="49.87616" lon="1.99902">
        <ele>63.8</ele>
        <time>2023-05-03T14:25:59Z</time>
      </trkpt>
      <trkpt lat="49.87617" lon="1.99903">
        <ele>63.7</ele>
        <time>2023-05-03T14:26:01Z</time>
      </trkpt>
      <trkpt lat="49.87618" lon="1.99904">
        <ele>63.7</ele>
        <time>2023-05-03T14:26:02Z</time>
      </trkpt>
      <trkpt lat="49.87619" lon="1.99905">
        <ele>63.7</ele>
        <time>2023-05-03T14:26:03Z</time>
      </trkpt>
      <trkpt lat="49.8762" lon="1.99907">
        <ele>63.7</ele>
        <time>2023-05-03T14:26:04Z</time>
      </trkpt>
      <trkpt lat="49.87621" lon="1.99908">
        <ele>63.6</ele>
        <time>2023-05-03T14:26:05Z</time>
      </trkpt>
      <trkpt lat="49.87622" lon="1.99909">
        <ele>63.6</ele>
        <time>2023-05-03T14:26:06Z</time>
      </trkpt>
      <trkpt lat="49.87623" lon="1.99911">
        <ele>63.6</ele>
        <time>2023-05-03T14:26:07Z</time>
      </trkpt>
      <trkpt lat="49.87624" lon="1.99912">
        <ele>63.6</ele>
        <time>2023-05-03T14:26:08Z</time>
      </trkpt>
      <trkpt lat="49.87625" lon="1.99913">
        <ele>63.6</ele>
        <time>2023-05-03T14:26:10Z</time>
      </trkpt>
      <trkpt lat="49.87626" lon="1.99915">
        <ele>63.5</ele>
        <time>2023-05-03T14:26:11Z</time>
      </trkpt>
      <trkpt lat="49.87627" lon="1.99916">
        <ele>63.5</ele>
        <time>2023-05-03T14:26:12Z</time>
      </trkpt>
      <trkpt lat="49.87627" lon="1.99917">
        <ele>63.5</ele>
        <time>2023-05-03T14:26:13Z</time>
      </trkpt>
      <trkpt lat="49.87628" lon="1.99921">
        <ele>63.4</ele>
        <time>2023-05-03T14:26:14Z</time>
      </trkpt>
      <trkpt lat="49.87628" lon="1.99922">
        <ele>63.4</ele>
        <time>2023-05-03T14:26:15Z</time>
      </trkpt>
      <trkpt lat="49.87628" lon="1.99923">
        <ele>63.4</ele>
        <time>2023-05-03T14:26:16Z</time>
      </trkpt>
      <trkpt lat="49.87629" lon="1.99925">
        <ele>63.4</ele>
        <time>2023-05-03T14:26:18Z</time>
      </trkpt>
      <trkpt lat="49.8763" lon="1.99927">
        <ele>63.4</ele>
        <time>2023-05-03T14:26:20Z</time>
      </trkpt>
      <trkpt lat="49.8763" lon="1.99928">
        <ele>63.4</ele>
        <time>2023-05-03T14:26:21Z</time>
      </trkpt>
      <trkpt lat="49.87631" lon="1.9993">
        <ele>63.3</ele>
        <time>2023-05-03T14:26:22Z</time>
      </trkpt>
      <trkpt lat="49.87632" lon="1.99931">
        <ele>63.3</ele>
        <time>2023-05-03T14:26:23Z</time>
      </trkpt>
      <trkpt lat="49.87632" lon="1.99932">
        <ele>63.3</ele>
        <time>2023-05-03T14:26:24Z</time>
      </trkpt>
      <trkpt lat="49.87633" lon="1.99934">
        <ele>63.3</ele>
        <time>2023-05-03T14:26:25Z</time>
      </trkpt>
      <trkpt lat="49.87633" lon="1.99935">
        <ele>63.3</ele>
        <time>2023-05-03T14:26:26Z</time>
      </trkpt>
      <trkpt lat="49.87633" lon="1.99936">
        <ele>63.3</ele>
        <time>2023-05-03T14:26:27Z</time>
      </trkpt>
      <trkpt lat="49.87633" lon="1.99937">
        <ele>63.2</ele>
        <time>2023-05-03T14:26:28Z</time>
      </trkpt>
      <trkpt lat="49.87634" lon="1.99939">
        <ele>63.2</ele>
        <time>2023-05-03T14:26:30Z</time>
      </trkpt>
      <trkpt lat="49.87634" lon="1.99941">
        <ele>63.2</ele>
        <time>2023-05-03T14:26:31Z</time>
      </trkpt>
      <trkpt lat="49.87635" lon="1.99942">
        <ele>63.2</ele>
        <time>2023-05-03T14:26:32Z</time>
      </trkpt>
      <trkpt lat="49.87636" lon="1.99943">
        <ele>63.2</ele>
        <time>2023-05-03T14:26:33Z</time>
      </trkpt>
      <trkpt lat="49.87636" lon="1.99944">
        <ele>63.2</ele>
        <time>2023-05-03T14:26:34Z</time>
      </trkpt>
      <trkpt lat="49.87637" lon="1.99945">
        <ele>63.1</ele>
        <time>2023-05-03T14:26:35Z</time>
      </trkpt>
      <trkpt lat="49.87638" lon="1.99946">
        <ele>63.1</ele>
        <time>2023-05-03T14:26:36Z</time>
      </trkpt>
      <trkpt lat="49.87638" lon="1.99947">
        <ele>63.1</ele>
        <time>2023-05-03T14:26:38Z</time>
      </trkpt>
      <trkpt lat="49.87639" lon="1.99948">
        <ele>63.1</ele>
        <time>2023-05-03T14:26:39Z</time>
      </trkpt>
      <trkpt lat="49.8764" lon="1.99949">
        <ele>63.1</ele>
        <time>2023-05-03T14:26:40Z</time>
      </trkpt>
      <trkpt lat="49.8764" lon="1.9995">
        <ele>63.1</ele>
        <time>2023-05-03T14:26:41Z</time>
      </trkpt>
      <trkpt lat="49.87641" lon="1.99951">
        <ele>63.1</ele>
        <time>2023-05-03T14:26:42Z</time>
      </trkpt>
      <trkpt lat="49.87642" lon="1.99952">
        <ele>63</ele>
        <time>2023-05-03T14:26:43Z</time>
      </trkpt>
      <trkpt lat="49.87643" lon="1.99953">
        <ele>63</ele>
        <time>2023-05-03T14:26:44Z</time>
      </trkpt>
      <trkpt lat="49.87644" lon="1.99954">
        <ele>63</ele>
        <time>2023-05-03T14:26:45Z</time>
      </trkpt>
      <trkpt lat="49.87644" lon="1.99954">
        <ele>63</ele>
        <time>2023-05-03T14:26:47Z</time>
      </trkpt>
      <trkpt lat="49.87645" lon="1.99956">
        <ele>63</ele>
        <time>2023-05-03T14:26:48Z</time>
      </trkpt>
      <trkpt lat="49.87646" lon="1.99957">
        <ele>62.9</ele>
        <time>2023-05-03T14:26:49Z</time>
      </trkpt>
      <trkpt lat="49.87647" lon="1.99958">
        <ele>62.9</ele>
        <time>2023-05-03T14:26:50Z</time>
      </trkpt>
      <trkpt lat="49.87647" lon="1.99959">
        <ele>62.9</ele>
        <time>2023-05-03T14:26:51Z</time>
      </trkpt>
      <trkpt lat="49.87647" lon="1.9996">
        <ele>62.9</ele>
        <time>2023-05-03T14:26:52Z</time>
      </trkpt>
      <trkpt lat="49.87648" lon="1.99962">
        <ele>62.9</ele>
        <time>2023-05-03T14:26:54Z</time>
      </trkpt>
      <trkpt lat="49.87649" lon="1.99963">
        <ele>62.9</ele>
        <time>2023-05-03T14:26:55Z</time>
      </trkpt>
      <trkpt lat="49.87649" lon="1.99964">
        <ele>62.8</ele>
        <time>2023-05-03T14:26:56Z</time>
      </trkpt>
      <trkpt lat="49.8765" lon="1.99965">
        <ele>62.8</ele>
        <time>2023-05-03T14:26:57Z</time>
      </trkpt>
      <trkpt lat="49.8765" lon="1.99966">
        <ele>62.8</ele>
        <time>2023-05-03T14:26:58Z</time>
      </trkpt>
      <trkpt lat="49.87651" lon="1.99968">
        <ele>62.8</ele>
        <time>2023-05-03T14:26:59Z</time>
      </trkpt>
      <trkpt lat="49.87651" lon="1.99969">
        <ele>62.8</ele>
        <time>2023-05-03T14:27:01Z</time>
      </trkpt>
      <trkpt lat="49.87652" lon="1.9997">
        <ele>62.8</ele>
        <time>2023-05-03T14:27:02Z</time>
      </trkpt>
      <trkpt lat="49.87653" lon="1.99971">
        <ele>62.8</ele>
        <time>2023-05-03T14:27:03Z</time>
      </trkpt>
      <trkpt lat="49.87653" lon="1.99971">
        <ele>62.7</ele>
        <time>2023-05-03T14:27:04Z</time>
      </trkpt>
      <trkpt lat="49.87654" lon="1.99972">
        <ele>62.7</ele>
        <time>2023-05-03T14:27:05Z</time>
      </trkpt>
      <trkpt lat="49.87654" lon="1.99973">
        <ele>62.7</ele>
        <time>2023-05-03T14:27:06Z</time>
      </trkpt>
      <trkpt lat="49.87656" lon="1.99975">
        <ele>62.7</ele>
        <time>2023-05-03T14:27:08Z</time>
      </trkpt>
      <trkpt lat="49.87656" lon="1.99975">
        <ele>62.7</ele>
        <time>2023-05-03T14:27:09Z</time>
      </trkpt>
      <trkpt lat="49.87657" lon="1.99976">
        <ele>62.7</ele>
        <time>2023-05-03T14:27:11Z</time>
      </trkpt>
      <trkpt lat="49.87657" lon="1.99976">
        <ele>62.7</ele>
        <time>2023-05-03T14:27:12Z</time>
      </trkpt>
      <trkpt lat="49.87658" lon="1.99977">
        <ele>62.7</ele>
        <time>2023-05-03T14:27:13Z</time>
      </trkpt>
      <trkpt lat="49.87658" lon="1.99978">
        <ele>62.7</ele>
        <time>2023-05-03T14:27:14Z</time>
      </trkpt>
      <trkpt lat="49.87658" lon="1.99978">
        <ele>62.6</ele>
        <time>2023-05-03T14:27:15Z</time>
      </trkpt>
      <trkpt lat="49.87659" lon="1.99979">
        <ele>62.6</ele>
        <time>2023-05-03T14:27:17Z</time>
      </trkpt>
      <trkpt lat="49.87659" lon="1.99979">
        <ele>62.6</ele>
        <time>2023-05-03T14:27:18Z</time>
      </trkpt>
      <trkpt lat="49.8766" lon="1.9998">
        <ele>62.6</ele>
        <time>2023-05-03T14:27:19Z</time>
      </trkpt>
      <trkpt lat="49.87661" lon="1.99981">
        <ele>62.6</ele>
        <time>2023-05-03T14:27:21Z</time>
      </trkpt>
      <trkpt lat="49.87662" lon="1.99982">
        <ele>62.6</ele>
        <time>2023-05-03T14:27:22Z</time>
      </trkpt>
      <trkpt lat="49.87662" lon="1.99983">
        <ele>62.6</ele>
        <time>2023-05-03T14:27:23Z</time>
      </trkpt>
      <trkpt lat="49.87663" lon="1.99983">
        <ele>62.6</ele>
        <time>2023-05-03T14:27:25Z</time>
      </trkpt>
      <trkpt lat="49.87664" lon="1.99984">
        <ele>62.6</ele>
        <time>2023-05-03T14:27:26Z</time>
      </trkpt>
      <trkpt lat="49.87665" lon="1.99984">
        <ele>62.6</ele>
        <time>2023-05-03T14:27:27Z</time>
      </trkpt>
      <trkpt lat="49.87666" lon="1.99985">
        <ele>62.6</ele>
        <time>2023-05-03T14:27:28Z</time>
      </trkpt>
      <trkpt lat="49.87666" lon="1.99986">
        <ele>62.5</ele>
        <time>2023-05-03T14:27:29Z</time>
      </trkpt>
      <trkpt lat="49.87666" lon="1.99987">
        <ele>62.5</ele>
        <time>2023-05-03T14:27:30Z</time>
      </trkpt>
      <trkpt lat="49.87666" lon="1.99989">
        <ele>62.5</ele>
        <time>2023-05-03T14:27:31Z</time>
      </trkpt>
      <trkpt lat="49.87668" lon="1.99991">
        <ele>62.5</ele>
        <time>2023-05-03T14:27:32Z</time>
      </trkpt>
      <trkpt lat="49.87668" lon="1.99992">
        <ele>62.5</ele>
        <time>2023-05-03T14:27:34Z</time>
      </trkpt>
      <trkpt lat="49.87669" lon="1.99992">
        <ele>62.5</ele>
        <time>2023-05-03T14:27:35Z</time>
      </trkpt>
      <trkpt lat="49.87671" lon="1.99994">
        <ele>62.5</ele>
        <time>2023-05-03T14:27:36Z</time>
      </trkpt>
      <trkpt lat="49.87671" lon="1.99995">
        <ele>62.5</ele>
        <time>2023-05-03T14:27:37Z</time>
      </trkpt>
      <trkpt lat="49.87672" lon="1.99995">
        <ele>62.4</ele>
        <time>2023-05-03T14:27:38Z</time>
      </trkpt>
      <trkpt lat="49.87673" lon="1.99996">
        <ele>62.4</ele>
        <time>2023-05-03T14:27:39Z</time>
      </trkpt>
      <trkpt lat="49.87674" lon="1.99998">
        <ele>62.4</ele>
        <time>2023-05-03T14:27:40Z</time>
      </trkpt>
      <trkpt lat="49.87675" lon="1.99999">
        <ele>62.4</ele>
        <time>2023-05-03T14:27:42Z</time>
      </trkpt>
      <trkpt lat="49.87677" lon="2.00001">
        <ele>62.4</ele>
        <time>2023-05-03T14:27:43Z</time>
      </trkpt>
      <trkpt lat="49.87678" lon="2.00002">
        <ele>62.3</ele>
        <time>2023-05-03T14:27:44Z</time>
      </trkpt>
      <trkpt lat="49.87678" lon="2.00003">
        <ele>62.3</ele>
        <time>2023-05-03T14:27:45Z</time>
      </trkpt>
      <trkpt lat="49.8768" lon="2.00004">
        <ele>62.3</ele>
        <time>2023-05-03T14:27:46Z</time>
      </trkpt>
      <trkpt lat="49.87681" lon="2.00006">
        <ele>62.3</ele>
        <time>2023-05-03T14:27:47Z</time>
      </trkpt>
      <trkpt lat="49.87682" lon="2.00007">
        <ele>62.3</ele>
        <time>2023-05-03T14:27:49Z</time>
      </trkpt>
      <trkpt lat="49.87683" lon="2.00009">
        <ele>62.2</ele>
        <time>2023-05-03T14:27:50Z</time>
      </trkpt>
      <trkpt lat="49.87684" lon="2.0001">
        <ele>62.2</ele>
        <time>2023-05-03T14:27:51Z</time>
      </trkpt>
      <trkpt lat="49.87685" lon="2.00012">
        <ele>62.2</ele>
        <time>2023-05-03T14:27:52Z</time>
      </trkpt>
      <trkpt lat="49.87686" lon="2.00013">
        <ele>62.2</ele>
        <time>2023-05-03T14:27:53Z</time>
      </trkpt>
      <trkpt lat="49.87687" lon="2.00015">
        <ele>62.1</ele>
        <time>2023-05-03T14:27:54Z</time>
      </trkpt>
      <trkpt lat="49.87688" lon="2.00017">
        <ele>62.1</ele>
        <time>2023-05-03T14:27:55Z</time>
      </trkpt>
      <trkpt lat="49.87689" lon="2.00019">
        <ele>62.1</ele>
        <time>2023-05-03T14:27:56Z</time>
      </trkpt>
      <trkpt lat="49.8769" lon="2.00021">
        <ele>62.1</ele>
        <time>2023-05-03T14:27:57Z</time>
      </trkpt>
      <trkpt lat="49.87691" lon="2.00023">
        <ele>62</ele>
        <time>2023-05-03T14:27:59Z</time>
      </trkpt>
      <trkpt lat="49.87693" lon="2.00026">
        <ele>62</ele>
        <time>2023-05-03T14:28:00Z</time>
      </trkpt>
      <trkpt lat="49.87693" lon="2.00027">
        <ele>62</ele>
        <time>2023-05-03T14:28:01Z</time>
      </trkpt>
      <trkpt lat="49.87694" lon="2.0003">
        <ele>62</ele>
        <time>2023-05-03T14:28:02Z</time>
      </trkpt>
      <trkpt lat="49.87696" lon="2.00034">
        <ele>61.9</ele>
        <time>2023-05-03T14:28:04Z</time>
      </trkpt>
      <trkpt lat="49.87696" lon="2.00043">
        <ele>61.8</ele>
        <time>2023-05-03T14:28:05Z</time>
      </trkpt>
      <trkpt lat="49.87697" lon="2.00048">
        <ele>61.8</ele>
        <time>2023-05-03T14:28:06Z</time>
      </trkpt>
      <trkpt lat="49.87698" lon="2.00052">
        <ele>61.8</ele>
        <time>2023-05-03T14:28:07Z</time>
      </trkpt>
      <trkpt lat="49.87699" lon="2.00055">
        <ele>61.7</ele>
        <time>2023-05-03T14:28:08Z</time>
      </trkpt>
      <trkpt lat="49.877" lon="2.00059">
        <ele>61.7</ele>
        <time>2023-05-03T14:28:10Z</time>
      </trkpt>
      <trkpt lat="49.877" lon="2.00063">
        <ele>61.7</ele>
        <time>2023-05-03T14:28:11Z</time>
      </trkpt>
      <trkpt lat="49.87701" lon="2.00066">
        <ele>61.7</ele>
        <time>2023-05-03T14:28:12Z</time>
      </trkpt>
      <trkpt lat="49.87701" lon="2.00069">
        <ele>61.6</ele>
        <time>2023-05-03T14:28:13Z</time>
      </trkpt>
      <trkpt lat="49.87702" lon="2.0007">
        <ele>61.6</ele>
        <time>2023-05-03T14:28:14Z</time>
      </trkpt>
      <trkpt lat="49.87703" lon="2.00073">
        <ele>61.6</ele>
        <time>2023-05-03T14:28:16Z</time>
      </trkpt>
      <trkpt lat="49.87704" lon="2.00075">
        <ele>61.6</ele>
        <time>2023-05-03T14:28:17Z</time>
      </trkpt>
      <trkpt lat="49.87705" lon="2.00076">
        <ele>61.6</ele>
        <time>2023-05-03T14:28:18Z</time>
      </trkpt>
      <trkpt lat="49.87706" lon="2.00078">
        <ele>61.6</ele>
        <time>2023-05-03T14:28:19Z</time>
      </trkpt>
      <trkpt lat="49.87707" lon="2.00079">
        <ele>61.5</ele>
        <time>2023-05-03T14:28:20Z</time>
      </trkpt>
      <trkpt lat="49.87709" lon="2.00081">
        <ele>61.5</ele>
        <time>2023-05-03T14:28:22Z</time>
      </trkpt>
      <trkpt lat="49.8771" lon="2.00082">
        <ele>61.5</ele>
        <time>2023-05-03T14:28:23Z</time>
      </trkpt>
      <trkpt lat="49.87711" lon="2.00083">
        <ele>61.5</ele>
        <time>2023-05-03T14:28:24Z</time>
      </trkpt>
      <trkpt lat="49.87712" lon="2.00085">
        <ele>61.5</ele>
        <time>2023-05-03T14:28:25Z</time>
      </trkpt>
      <trkpt lat="49.87713" lon="2.00086">
        <ele>61.5</ele>
        <time>2023-05-03T14:28:26Z</time>
      </trkpt>
      <trkpt lat="49.87715" lon="2.00089">
        <ele>61.5</ele>
        <time>2023-05-03T14:28:28Z</time>
      </trkpt>
      <trkpt lat="49.87716" lon="2.0009">
        <ele>61.5</ele>
        <time>2023-05-03T14:28:29Z</time>
      </trkpt>
      <trkpt lat="49.87717" lon="2.00092">
        <ele>61.5</ele>
        <time>2023-05-03T14:28:30Z</time>
      </trkpt>
      <trkpt lat="49.87718" lon="2.00093">
        <ele>61.5</ele>
        <time>2023-05-03T14:28:31Z</time>
      </trkpt>
      <trkpt lat="49.8772" lon="2.00095">
        <ele>61.5</ele>
        <time>2023-05-03T14:28:33Z</time>
      </trkpt>
      <trkpt lat="49.87721" lon="2.00097">
        <ele>61.5</ele>
        <time>2023-05-03T14:28:35Z</time>
      </trkpt>
      <trkpt lat="49.87722" lon="2.00098">
        <ele>61.4</ele>
        <time>2023-05-03T14:28:36Z</time>
      </trkpt>
      <trkpt lat="49.87724" lon="2.00099">
        <ele>61.4</ele>
        <time>2023-05-03T14:28:37Z</time>
      </trkpt>
      <trkpt lat="49.87725" lon="2.001">
        <ele>61.4</ele>
        <time>2023-05-03T14:28:38Z</time>
      </trkpt>
      <trkpt lat="49.87726" lon="2.00101">
        <ele>61.4</ele>
        <time>2023-05-03T14:28:39Z</time>
      </trkpt>
      <trkpt lat="49.87727" lon="2.00103">
        <ele>61.4</ele>
        <time>2023-05-03T14:28:40Z</time>
      </trkpt>
      <trkpt lat="49.87728" lon="2.00104">
        <ele>61.4</ele>
        <time>2023-05-03T14:28:41Z</time>
      </trkpt>
      <trkpt lat="49.87729" lon="2.00105">
        <ele>61.4</ele>
        <time>2023-05-03T14:28:42Z</time>
      </trkpt>
      <trkpt lat="49.8773" lon="2.00107">
        <ele>61.4</ele>
        <time>2023-05-03T14:28:44Z</time>
      </trkpt>
      <trkpt lat="49.87731" lon="2.00108">
        <ele>61.4</ele>
        <time>2023-05-03T14:28:45Z</time>
      </trkpt>
      <trkpt lat="49.87733" lon="2.0011">
        <ele>61.4</ele>
        <time>2023-05-03T14:28:46Z</time>
      </trkpt>
      <trkpt lat="49.87733" lon="2.00111">
        <ele>61.4</ele>
        <time>2023-05-03T14:28:47Z</time>
      </trkpt>
      <trkpt lat="49.87734" lon="2.00113">
        <ele>61.4</ele>
        <time>2023-05-03T14:28:48Z</time>
      </trkpt>
      <trkpt lat="49.87734" lon="2.00115">
        <ele>61.4</ele>
        <time>2023-05-03T14:28:49Z</time>
      </trkpt>
      <trkpt lat="49.87735" lon="2.00117">
        <ele>61.3</ele>
        <time>2023-05-03T14:28:50Z</time>
      </trkpt>
      <trkpt lat="49.87735" lon="2.00119">
        <ele>61.3</ele>
        <time>2023-05-03T14:28:52Z</time>
      </trkpt>
      <trkpt lat="49.87736" lon="2.00121">
        <ele>61.3</ele>
        <time>2023-05-03T14:28:53Z</time>
      </trkpt>
      <trkpt lat="49.87736" lon="2.00125">
        <ele>61.3</ele>
        <time>2023-05-03T14:28:54Z</time>
      </trkpt>
      <trkpt lat="49.87736" lon="2.00127">
        <ele>61.3</ele>
        <time>2023-05-03T14:28:55Z</time>
      </trkpt>
      <trkpt lat="49.87736" lon="2.00129">
        <ele>61.2</ele>
        <time>2023-05-03T14:28:56Z</time>
      </trkpt>
      <trkpt lat="49.87736" lon="2.00132">
        <ele>61.2</ele>
        <time>2023-05-03T14:28:57Z</time>
      </trkpt>
      <trkpt lat="49.87737" lon="2.00134">
        <ele>61.2</ele>
        <time>2023-05-03T14:28:58Z</time>
      </trkpt>
      <trkpt lat="49.87738" lon="2.00136">
        <ele>61.2</ele>
        <time>2023-05-03T14:29:00Z</time>
      </trkpt>
      <trkpt lat="49.87739" lon="2.00138">
        <ele>61.2</ele>
        <time>2023-05-03T14:29:01Z</time>
      </trkpt>
      <trkpt lat="49.8774" lon="2.0014">
        <ele>61.2</ele>
        <time>2023-05-03T14:29:02Z</time>
      </trkpt>
      <trkpt lat="49.87741" lon="2.00142">
        <ele>61.1</ele>
        <time>2023-05-03T14:29:04Z</time>
      </trkpt>
      <trkpt lat="49.87741" lon="2.00144">
        <ele>61.1</ele>
        <time>2023-05-03T14:29:05Z</time>
      </trkpt>
      <trkpt lat="49.87742" lon="2.00146">
        <ele>61.1</ele>
        <time>2023-05-03T14:29:06Z</time>
      </trkpt>
      <trkpt lat="49.87743" lon="2.00148">
        <ele>61.1</ele>
        <time>2023-05-03T14:29:07Z</time>
      </trkpt>
      <trkpt lat="49.87743" lon="2.00151">
        <ele>61</ele>
        <time>2023-05-03T14:29:08Z</time>
      </trkpt>
      <trkpt lat="49.87743" lon="2.00153">
        <ele>61</ele>
        <time>2023-05-03T14:29:09Z</time>
      </trkpt>
      <trkpt lat="49.87743" lon="2.00158">
        <ele>60.9</ele>
        <time>2023-05-03T14:29:10Z</time>
      </trkpt>
      <trkpt lat="49.87743" lon="2.00159">
        <ele>60.9</ele>
        <time>2023-05-03T14:29:11Z</time>
      </trkpt>
      <trkpt lat="49.87743" lon="2.00163">
        <ele>60.9</ele>
        <time>2023-05-03T14:29:13Z</time>
      </trkpt>
      <trkpt lat="49.87743" lon="2.00167">
        <ele>60.8</ele>
        <time>2023-05-03T14:29:15Z</time>
      </trkpt>
      <trkpt lat="49.87743" lon="2.00169">
        <ele>60.8</ele>
        <time>2023-05-03T14:29:16Z</time>
      </trkpt>
      <trkpt lat="49.87743" lon="2.00172">
        <ele>60.8</ele>
        <time>2023-05-03T14:29:17Z</time>
      </trkpt>
      <trkpt lat="49.87743" lon="2.00174">
        <ele>60.8</ele>
        <time>2023-05-03T14:29:18Z</time>
      </trkpt>
      <trkpt lat="49.87743" lon="2.00177">
        <ele>60.8</ele>
        <time>2023-05-03T14:29:19Z</time>
      </trkpt>
      <trkpt lat="49.87743" lon="2.00179">
        <ele>60.7</ele>
        <time>2023-05-03T14:29:20Z</time>
      </trkpt>
      <trkpt lat="49.87743" lon="2.00182">
        <ele>60.7</ele>
        <time>2023-05-03T14:29:21Z</time>
      </trkpt>
      <trkpt lat="49.87743" lon="2.00186">
        <ele>60.7</ele>
        <time>2023-05-03T14:29:22Z</time>
      </trkpt>
      <trkpt lat="49.87743" lon="2.00187">
        <ele>60.7</ele>
        <time>2023-05-03T14:29:23Z</time>
      </trkpt>
      <trkpt lat="49.87743" lon="2.0019">
        <ele>60.7</ele>
        <time>2023-05-03T14:29:24Z</time>
      </trkpt>
      <trkpt lat="49.87743" lon="2.00192">
        <ele>60.6</ele>
        <time>2023-05-03T14:29:26Z</time>
      </trkpt>
      <trkpt lat="49.87743" lon="2.00195">
        <ele>60.6</ele>
        <time>2023-05-03T14:29:27Z</time>
      </trkpt>
      <trkpt lat="49.87743" lon="2.00197">
        <ele>60.6</ele>
        <time>2023-05-03T14:29:28Z</time>
      </trkpt>
      <trkpt lat="49.87743" lon="2.00199">
        <ele>60.6</ele>
        <time>2023-05-03T14:29:29Z</time>
      </trkpt>
      <trkpt lat="49.87744" lon="2.00202">
        <ele>60.6</ele>
        <time>2023-05-03T14:29:30Z</time>
      </trkpt>
      <trkpt lat="49.87745" lon="2.00206">
        <ele>60.6</ele>
        <time>2023-05-03T14:29:32Z</time>
      </trkpt>
      <trkpt lat="49.87746" lon="2.00207">
        <ele>60.5</ele>
        <time>2023-05-03T14:29:33Z</time>
      </trkpt>
      <trkpt lat="49.87746" lon="2.0021">
        <ele>60.5</ele>
        <time>2023-05-03T14:29:34Z</time>
      </trkpt>
      <trkpt lat="49.87747" lon="2.00212">
        <ele>60.5</ele>
        <time>2023-05-03T14:29:36Z</time>
      </trkpt>
      <trkpt lat="49.87747" lon="2.00213">
        <ele>60.5</ele>
        <time>2023-05-03T14:29:37Z</time>
      </trkpt>
      <trkpt lat="49.87747" lon="2.00215">
        <ele>60.5</ele>
        <time>2023-05-03T14:29:38Z</time>
      </trkpt>
      <trkpt lat="49.87748" lon="2.00216">
        <ele>60.5</ele>
        <time>2023-05-03T14:29:39Z</time>
      </trkpt>
      <trkpt lat="49.87748" lon="2.00219">
        <ele>60.5</ele>
        <time>2023-05-03T14:29:41Z</time>
      </trkpt>
      <trkpt lat="49.87748" lon="2.0022">
        <ele>60.5</ele>
        <time>2023-05-03T14:29:42Z</time>
      </trkpt>
      <trkpt lat="49.87747" lon="2.00221">
        <ele>60.5</ele>
        <time>2023-05-03T14:29:43Z</time>
      </trkpt>
      <trkpt lat="49.87747" lon="2.00222">
        <ele>60.4</ele>
        <time>2023-05-03T14:29:44Z</time>
      </trkpt>
      <trkpt lat="49.87745" lon="2.00223">
        <ele>60.4</ele>
        <time>2023-05-03T14:29:45Z</time>
      </trkpt>
      <trkpt lat="49.87743" lon="2.00225">
        <ele>60.4</ele>
        <time>2023-05-03T14:29:47Z</time>
      </trkpt>
      <trkpt lat="49.87743" lon="2.00225">
        <ele>60.4</ele>
        <time>2023-05-03T14:29:48Z</time>
      </trkpt>
      <trkpt lat="49.87742" lon="2.00225">
        <ele>60.4</ele>
        <time>2023-05-03T14:29:49Z</time>
      </trkpt>
      <trkpt lat="49.87742" lon="2.00225">
        <ele>60.4</ele>
        <time>2023-05-03T14:29:51Z</time>
      </trkpt>
      <trkpt lat="49.87742" lon="2.00225">
        <ele>60.4</ele>
        <time>2023-05-03T14:29:52Z</time>
      </trkpt>
      <trkpt lat="49.87742" lon="2.00225">
        <ele>60.4</ele>
        <time>2023-05-03T14:29:53Z</time>
      </trkpt>
      <trkpt lat="49.87742" lon="2.00226">
        <ele>60.4</ele>
        <time>2023-05-03T14:29:55Z</time>
      </trkpt>
      <trkpt lat="49.87741" lon="2.00225">
        <ele>60.4</ele>
        <time>2023-05-03T14:29:56Z</time>
      </trkpt>
      <trkpt lat="49.87741" lon="2.00225">
        <ele>60.4</ele>
        <time>2023-05-03T14:29:57Z</time>
      </trkpt>
      <trkpt lat="49.87741" lon="2.00225">
        <ele>60.4</ele>
        <time>2023-05-03T14:29:59Z</time>
      </trkpt>
      <trkpt lat="49.87741" lon="2.00225">
        <ele>60.4</ele>
        <time>2023-05-03T14:30:00Z</time>
      </trkpt>
      <trkpt lat="49.87741" lon="2.00225">
        <ele>60.4</ele>
        <time>2023-05-03T14:30:01Z</time>
      </trkpt>
      <trkpt lat="49.87741" lon="2.00225">
        <ele>60.4</ele>
        <time>2023-05-03T14:30:02Z</time>
      </trkpt>
      <trkpt lat="49.87742" lon="2.00224">
        <ele>60.4</ele>
        <time>2023-05-03T14:30:03Z</time>
      </trkpt>
      <trkpt lat="49.87742" lon="2.00224">
        <ele>60.4</ele>
        <time>2023-05-03T14:30:04Z</time>
      </trkpt>
      <trkpt lat="49.87742" lon="2.00224">
        <ele>60.4</ele>
        <time>2023-05-03T14:30:05Z</time>
      </trkpt>
      <trkpt lat="49.87742" lon="2.00224">
        <ele>60.4</ele>
        <time>2023-05-03T14:30:06Z</time>
      </trkpt>
      <trkpt lat="49.87742" lon="2.00224">
        <ele>60.4</ele>
        <time>2023-05-03T14:30:07Z</time>
      </trkpt>
      <trkpt lat="49.87742" lon="2.00224">
        <ele>60.4</ele>
        <time>2023-05-03T14:30:08Z</time>
      </trkpt>
      <trkpt lat="49.87742" lon="2.00224">
        <ele>60.4</ele>
        <time>2023-05-03T14:30:09Z</time>
      </trkpt>
      <trkpt lat="49.87742" lon="2.00224">
        <ele>60.4</ele>
        <time>2023-05-03T14:30:10Z</time>
      </trkpt>
      <trkpt lat="49.87742" lon="2.00224">
        <ele>60.4</ele>
        <time>2023-05-03T14:30:11Z</time>
      </trkpt>
      <trkpt lat="49.87742" lon="2.00224">
        <ele>60.4</ele>
        <time>2023-05-03T14:30:12Z</time>
      </trkpt>
      <trkpt lat="49.87742" lon="2.00224">
        <ele>60.4</ele>
        <time>2023-05-03T14:30:13Z</time>
      </trkpt>
      <trkpt lat="49.87742" lon="2.00224">
        <ele>60.4</ele>
        <time>2023-05-03T14:30:14Z</time>
      </trkpt>
      <trkpt lat="49.87742" lon="2.00224">
        <ele>60.4</ele>
        <time>2023-05-03T14:30:15Z</time>
      </trkpt>
      <trkpt lat="49.87742" lon="2.00224">
        <ele>60.4</ele>
        <time>2023-05-03T14:30:16Z</time>
      </trkpt>
      <trkpt lat="49.87742" lon="2.00224">
        <ele>60.4</ele>
        <time>2023-05-03T14:30:17Z</time>
      </trkpt>
      <trkpt lat="49.87742" lon="2.00224">
        <ele>60.4</ele>
        <time>2023-05-03T14:30:18Z</time>
      </trkpt>
      <trkpt lat="49.87742" lon="2.00224">
        <ele>60.4</ele>
        <time>2023-05-03T14:30:19Z</time>
      </trkpt>
      <trkpt lat="49.87742" lon="2.00224">
        <ele>60.4</ele>
        <time>2023-05-03T14:30:20Z</time>
      </trkpt>
      <trkpt lat="49.87742" lon="2.00224">
        <ele>60.4</ele>
        <time>2023-05-03T14:30:21Z</time>
      </trkpt>
      <trkpt lat="49.87742" lon="2.00224">
        <ele>60.4</ele>
        <time>2023-05-03T14:30:22Z</time>
      </trkpt>
      <trkpt lat="49.87742" lon="2.00224">
        <ele>60.4</ele>
        <time>2023-05-03T14:30:23Z</time>
      </trkpt>
      <trkpt lat="49.87742" lon="2.00224">
        <ele>60.4</ele>
        <time>2023-05-03T14:30:24Z</time>
      </trkpt>
      <trkpt lat="49.87742" lon="2.00224">
        <ele>60.4</ele>
        <time>2023-05-03T14:30:25Z</time>
      </trkpt>
      <trkpt lat="49.87742" lon="2.00224">
        <ele>60.4</ele>
        <time>2023-05-03T14:30:26Z</time>
      </trkpt>
      <trkpt lat="49.87742" lon="2.00224">
        <ele>60.4</ele>
        <time>2023-05-03T14:30:27Z</time>
      </trkpt>
      <trkpt lat="49.87742" lon="2.00224">
        <ele>60.4</ele>
        <time>2023-05-03T14:30:28Z</time>
      </trkpt>
      <trkpt lat="49.87742" lon="2.00224">
        <ele>60.4</ele>
        <time>2023-05-03T14:30:29Z</time>
      </trkpt>
      <trkpt lat="49.87742" lon="2.00224">
        <ele>60.4</ele>
        <time>2023-05-03T14:30:30Z</time>
      </trkpt>
      <trkpt lat="49.87742" lon="2.00224">
        <ele>60.4</ele>
        <time>2023-05-03T14:30:31Z</time>
      </trkpt>
      <trkpt lat="49.87742" lon="2.00224">
        <ele>60.4</ele>
        <time>2023-05-03T14:30:32Z</time>
      </trkpt>
      <trkpt lat="49.87742" lon="2.00224">
        <ele>60.4</ele>
        <time>2023-05-03T14:30:33Z</time>
      </trkpt>
      <trkpt lat="49.87742" lon="2.00224">
        <ele>60.4</ele>
        <time>2023-05-03T14:30:34Z</time>
      </trkpt>
      <trkpt lat="49.87742" lon="2.00224">
        <ele>60.4</ele>
        <time>2023-05-03T14:30:35Z</time>
      </trkpt>
      <trkpt lat="49.87742" lon="2.00224">
        <ele>60.4</ele>
        <time>2023-05-03T14:30:36Z</time>
      </trkpt>
      <trkpt lat="49.87742" lon="2.00224">
        <ele>60.4</ele>
        <time>2023-05-03T14:30:37Z</time>
      </trkpt>
      <trkpt lat="49.87742" lon="2.00224">
        <ele>60.4</ele>
        <time>2023-05-03T14:30:38Z</time>
      </trkpt>
      <trkpt lat="49.87742" lon="2.00224">
        <ele>60.4</ele>
        <time>2023-05-03T14:30:39Z</time>
      </trkpt>
      <trkpt lat="49.87742" lon="2.00224">
        <ele>60.4</ele>
        <time>2023-05-03T14:30:40Z</time>
      </trkpt>
      <trkpt lat="49.87742" lon="2.00224">
        <ele>60.4</ele>
        <time>2023-05-03T14:30:41Z</time>
      </trkpt>
      <trkpt lat="49.87742" lon="2.00224">
        <ele>60.4</ele>
        <time>2023-05-03T14:30:42Z</time>
      </trkpt>
      <trkpt lat="49.87742" lon="2.00224">
        <ele>60.4</ele>
        <time>2023-05-03T14:30:43Z</time>
      </trkpt>
      <trkpt lat="49.87742" lon="2.00224">
        <ele>60.4</ele>
        <time>2023-05-03T14:30:44Z</time>
      </trkpt>
      <trkpt lat="49.87742" lon="2.00224">
        <ele>60.4</ele>
        <time>2023-05-03T14:30:45Z</time>
      </trkpt>
      <trkpt lat="49.87742" lon="2.00224">
        <ele>60.4</ele>
        <time>2023-05-03T14:30:46Z</time>
      </trkpt>
      <trkpt lat="49.87742" lon="2.00224">
        <ele>60.4</ele>
        <time>2023-05-03T14:30:47Z</time>
      </trkpt>
      <trkpt lat="49.87742" lon="2.00224">
        <ele>60.4</ele>
        <time>2023-05-03T14:30:48Z</time>
      </trkpt>
      <trkpt lat="49.87742" lon="2.00224">
        <ele>60.4</ele>
        <time>2023-05-03T14:30:49Z</time>
      </trkpt>
      <trkpt lat="49.87742" lon="2.00224">
        <ele>60.4</ele>
        <time>2023-05-03T14:30:50Z</time>
      </trkpt>
      <trkpt lat="49.87742" lon="2.00224">
        <ele>60.4</ele>
        <time>2023-05-03T14:30:51Z</time>
      </trkpt>
      <trkpt lat="49.87742" lon="2.00224">
        <ele>60.4</ele>
        <time>2023-05-03T14:30:52Z</time>
      </trkpt>
      <trkpt lat="49.87742" lon="2.00224">
        <ele>60.4</ele>
        <time>2023-05-03T14:30:53Z</time>
      </trkpt>
      <trkpt lat="49.87742" lon="2.00224">
        <ele>60.4</ele>
        <time>2023-05-03T14:30:54Z</time>
      </trkpt>
      <trkpt lat="49.87742" lon="2.00224">
        <ele>60.4</ele>
        <time>2023-05-03T14:30:55Z</time>
      </trkpt>
      <trkpt lat="49.87742" lon="2.00224">
        <ele>60.4</ele>
        <time>2023-05-03T14:30:56Z</time>
      </trkpt>
      <trkpt lat="49.87742" lon="2.00224">
        <ele>60.4</ele>
        <time>2023-05-03T14:30:57Z</time>
      </trkpt>
      <trkpt lat="49.87742" lon="2.00224">
        <ele>60.4</ele>
        <time>2023-05-03T14:30:58Z</time>
      </trkpt>
      <trkpt lat="49.87742" lon="2.00224">
        <ele>60.4</ele>
        <time>2023-05-03T14:30:59Z</time>
      </trkpt>
      <trkpt lat="49.87742" lon="2.00224">
        <ele>60.4</ele>
        <time>2023-05-03T14:31:00Z</time>
      </trkpt>
      <trkpt lat="49.87742" lon="2.00224">
        <ele>60.4</ele>
        <time>2023-05-03T14:31:01Z</time>
      </trkpt>
      <trkpt lat="49.87742" lon="2.00224">
        <ele>60.4</ele>
        <time>2023-05-03T14:31:02Z</time>
      </trkpt>
      <trkpt lat="49.87742" lon="2.00224">
        <ele>60.4</ele>
        <time>2023-05-03T14:31:03Z</time>
      </trkpt>
      <trkpt lat="49.87742" lon="2.00224">
        <ele>60.4</ele>
        <time>2023-05-03T14:31:04Z</time>
      </trkpt>
      <trkpt lat="49.87742" lon="2.00224">
        <ele>60.4</ele>
        <time>2023-05-03T14:31:05Z</time>
      </trkpt>
      <trkpt lat="49.87742" lon="2.00224">
        <ele>60.4</ele>
        <time>2023-05-03T14:31:06Z</time>
      </trkpt>
      <trkpt lat="49.87742" lon="2.00224">
        <ele>60.4</ele>
        <time>2023-05-03T14:31:07Z</time>
      </trkpt>
      <trkpt lat="49.87742" lon="2.00224">
        <ele>60.4</ele>
        <time>2023-05-03T14:31:08Z</time>
      </trkpt>
      <trkpt lat="49.87742" lon="2.00224">
        <ele>60.4</ele>
        <time>2023-05-03T14:31:09Z</time>
      </trkpt>
      <trkpt lat="49.87742" lon="2.00224">
        <ele>60.4</ele>
        <time>2023-05-03T14:31:10Z</time>
      </trkpt>
      <trkpt lat="49.87742" lon="2.00224">
        <ele>60.4</ele>
        <time>2023-05-03T14:31:11Z</time>
      </trkpt>
      <trkpt lat="49.87742" lon="2.00224">
        <ele>60.4</ele>
        <time>2023-05-03T14:31:12Z</time>
      </trkpt>
      <trkpt lat="49.87742" lon="2.00224">
        <ele>60.4</ele>
        <time>2023-05-03T14:31:13Z</time>
      </trkpt>
      <trkpt lat="49.87742" lon="2.00224">
        <ele>60.4</ele>
        <time>2023-05-03T14:31:14Z</time>
      </trkpt>
      <trkpt lat="49.87742" lon="2.00224">
        <ele>60.4</ele>
        <time>2023-05-03T14:31:15Z</time>
      </trkpt>
      <trkpt lat="49.87742" lon="2.00224">
        <ele>60.4</ele>
        <time>2023-05-03T14:31:16Z</time>
      </trkpt>
      <trkpt lat="49.87742" lon="2.00224">
        <ele>60.4</ele>
        <time>2023-05-03T14:31:17Z</time>
      </trkpt>
      <trkpt lat="49.87742" lon="2.00224">
        <ele>60.4</ele>
        <time>2023-05-03T14:31:18Z</time>
      </trkpt>
      <trkpt lat="49.87742" lon="2.00224">
        <ele>60.4</ele>
        <time>2023-05-03T14:31:19Z</time>
      </trkpt>
      <trkpt lat="49.87742" lon="2.00224">
        <ele>60.4</ele>
        <time>2023-05-03T14:31:20Z</time>
      </trkpt>
      <trkpt lat="49.87742" lon="2.00224">
        <ele>60.4</ele>
        <time>2023-05-03T14:31:21Z</time>
      </trkpt>
      <trkpt lat="49.87742" lon="2.00224">
        <ele>60.4</ele>
        <time>2023-05-03T14:31:22Z</time>
      </trkpt>
      <trkpt lat="49.87742" lon="2.00224">
        <ele>60.4</ele>
        <time>2023-05-03T14:31:23Z</time>
      </trkpt>
      <trkpt lat="49.87742" lon="2.00224">
        <ele>60.4</ele>
        <time>2023-05-03T14:31:24Z</time>
      </trkpt>
      <trkpt lat="49.87742" lon="2.00224">
        <ele>60.4</ele>
        <time>2023-05-03T14:31:25Z</time>
      </trkpt>
      <trkpt lat="49.87742" lon="2.00224">
        <ele>60.4</ele>
        <time>2023-05-03T14:31:26Z</time>
      </trkpt>
      <trkpt lat="49.87742" lon="2.00224">
        <ele>60.4</ele>
        <time>2023-05-03T14:31:27Z</time>
      </trkpt>
      <trkpt lat="49.87742" lon="2.00224">
        <ele>60.4</ele>
        <time>2023-05-03T14:31:28Z</time>
      </trkpt>
      <trkpt lat="49.87742" lon="2.00224">
        <ele>60.4</ele>
        <time>2023-05-03T14:31:29Z</time>
      </trkpt>
      <trkpt lat="49.87742" lon="2.00224">
        <ele>60.4</ele>
        <time>2023-05-03T14:31:30Z</time>
      </trkpt>
      <trkpt lat="49.87742" lon="2.00224">
        <ele>60.4</ele>
        <time>2023-05-03T14:31:31Z</time>
      </trkpt>
      <trkpt lat="49.87742" lon="2.00224">
        <ele>60.4</ele>
        <time>2023-05-03T14:31:32Z</time>
      </trkpt>
      <trkpt lat="49.87742" lon="2.00224">
        <ele>60.4</ele>
        <time>2023-05-03T14:31:33Z</time>
      </trkpt>
      <trkpt lat="49.87741" lon="2.00225">
        <ele>60.4</ele>
        <time>2023-05-03T14:31:34Z</time>
      </trkpt>
      <trkpt lat="49.8774" lon="2.00225">
        <ele>60.4</ele>
        <time>2023-05-03T14:31:35Z</time>
      </trkpt>
      <trkpt lat="49.87739" lon="2.00227">
        <ele>60.3</ele>
        <time>2023-05-03T14:31:36Z</time>
      </trkpt>
      <trkpt lat="49.87739" lon="2.00228">
        <ele>60.3</ele>
        <time>2023-05-03T14:31:37Z</time>
      </trkpt>
      <trkpt lat="49.87739" lon="2.00228">
        <ele>60.3</ele>
        <time>2023-05-03T14:31:38Z</time>
      </trkpt>
      <trkpt lat="49.87739" lon="2.00228">
        <ele>60.3</ele>
        <time>2023-05-03T14:31:40Z</time>
      </trkpt>
      <trkpt lat="49.8774" lon="2.00229">
        <ele>60.3</ele>
        <time>2023-05-03T14:31:41Z</time>
      </trkpt>
      <trkpt lat="49.87741" lon="2.0023">
        <ele>60.3</ele>
        <time>2023-05-03T14:31:42Z</time>
      </trkpt>
      <trkpt lat="49.87742" lon="2.00231">
        <ele>60.3</ele>
        <time>2023-05-03T14:31:43Z</time>
      </trkpt>
      <trkpt lat="49.87743" lon="2.00232">
        <ele>60.3</ele>
        <time>2023-05-03T14:31:45Z</time>
      </trkpt>
      <trkpt lat="49.87745" lon="2.00233">
        <ele>60.3</ele>
        <time>2023-05-03T14:31:46Z</time>
      </trkpt>
      <trkpt lat="49.87746" lon="2.00234">
        <ele>60.3</ele>
        <time>2023-05-03T14:31:47Z</time>
      </trkpt>
      <trkpt lat="49.87747" lon="2.00236">
        <ele>60.2</ele>
        <time>2023-05-03T14:31:48Z</time>
      </trkpt>
      <trkpt lat="49.87748" lon="2.00237">
        <ele>60.2</ele>
        <time>2023-05-03T14:31:49Z</time>
      </trkpt>
      <trkpt lat="49.87749" lon="2.00238">
        <ele>60.2</ele>
        <time>2023-05-03T14:31:50Z</time>
      </trkpt>
      <trkpt lat="49.8775" lon="2.0024">
        <ele>60.2</ele>
        <time>2023-05-03T14:31:51Z</time>
      </trkpt>
      <trkpt lat="49.87752" lon="2.00242">
        <ele>60.2</ele>
        <time>2023-05-03T14:31:52Z</time>
      </trkpt>
      <trkpt lat="49.87752" lon="2.00243">
        <ele>60.2</ele>
        <time>2023-05-03T14:31:54Z</time>
      </trkpt>
      <trkpt lat="49.87753" lon="2.00244">
        <ele>60.2</ele>
        <time>2023-05-03T14:31:55Z</time>
      </trkpt>
      <trkpt lat="49.87754" lon="2.00245">
        <ele>60.1</ele>
        <time>2023-05-03T14:31:56Z</time>
      </trkpt>
      <trkpt lat="49.87755" lon="2.00246">
        <ele>60.1</ele>
        <time>2023-05-03T14:31:57Z</time>
      </trkpt>
      <trkpt lat="49.87755" lon="2.00247">
        <ele>60.1</ele>
        <time>2023-05-03T14:31:58Z</time>
      </trkpt>
      <trkpt lat="49.87756" lon="2.00248">
        <ele>60.1</ele>
        <time>2023-05-03T14:31:59Z</time>
      </trkpt>
      <trkpt lat="49.87757" lon="2.00249">
        <ele>60.1</ele>
        <time>2023-05-03T14:32:00Z</time>
      </trkpt>
      <trkpt lat="49.87758" lon="2.00251">
        <ele>60.1</ele>
        <time>2023-05-03T14:32:01Z</time>
      </trkpt>
      <trkpt lat="49.87759" lon="2.00252">
        <ele>60.1</ele>
        <time>2023-05-03T14:32:03Z</time>
      </trkpt>
      <trkpt lat="49.87759" lon="2.00253">
        <ele>60.1</ele>
        <time>2023-05-03T14:32:04Z</time>
      </trkpt>
      <trkpt lat="49.8776" lon="2.00253">
        <ele>60.1</ele>
        <time>2023-05-03T14:32:05Z</time>
      </trkpt>
      <trkpt lat="49.87761" lon="2.00254">
        <ele>60</ele>
        <time>2023-05-03T14:32:06Z</time>
      </trkpt>
      <trkpt lat="49.87762" lon="2.00255">
        <ele>60</ele>
        <time>2023-05-03T14:32:07Z</time>
      </trkpt>
      <trkpt lat="49.87763" lon="2.00256">
        <ele>60</ele>
        <time>2023-05-03T14:32:08Z</time>
      </trkpt>
      <trkpt lat="49.87765" lon="2.00258">
        <ele>60</ele>
        <time>2023-05-03T14:32:09Z</time>
      </trkpt>
      <trkpt lat="49.87766" lon="2.00259">
        <ele>60</ele>
        <time>2023-05-03T14:32:11Z</time>
      </trkpt>
      <trkpt lat="49.87766" lon="2.0026">
        <ele>60</ele>
        <time>2023-05-03T14:32:12Z</time>
      </trkpt>
      <trkpt lat="49.87767" lon="2.00261">
        <ele>60</ele>
        <time>2023-05-03T14:32:13Z</time>
      </trkpt>
      <trkpt lat="49.87768" lon="2.00262">
        <ele>60</ele>
        <time>2023-05-03T14:32:14Z</time>
      </trkpt>
      <trkpt lat="49.87769" lon="2.00263">
        <ele>60</ele>
        <time>2023-05-03T14:32:15Z</time>
      </trkpt>
      <trkpt lat="49.8777" lon="2.00266">
        <ele>60</ele>
        <time>2023-05-03T14:32:16Z</time>
      </trkpt>
      <trkpt lat="49.87771" lon="2.00267">
        <ele>59.9</ele>
        <time>2023-05-03T14:32:17Z</time>
      </trkpt>
      <trkpt lat="49.87772" lon="2.00268">
        <ele>59.9</ele>
        <time>2023-05-03T14:32:18Z</time>
      </trkpt>
      <trkpt lat="49.87774" lon="2.0027">
        <ele>59.9</ele>
        <time>2023-05-03T14:32:20Z</time>
      </trkpt>
      <trkpt lat="49.87774" lon="2.00271">
        <ele>59.9</ele>
        <time>2023-05-03T14:32:21Z</time>
      </trkpt>
      <trkpt lat="49.87775" lon="2.00271">
        <ele>59.9</ele>
        <time>2023-05-03T14:32:22Z</time>
      </trkpt>
      <trkpt lat="49.87776" lon="2.00273">
        <ele>59.9</ele>
        <time>2023-05-03T14:32:23Z</time>
      </trkpt>
      <trkpt lat="49.87777" lon="2.00274">
        <ele>59.9</ele>
        <time>2023-05-03T14:32:24Z</time>
      </trkpt>
      <trkpt lat="49.87778" lon="2.00275">
        <ele>59.8</ele>
        <time>2023-05-03T14:32:25Z</time>
      </trkpt>
      <trkpt lat="49.87779" lon="2.00277">
        <ele>59.8</ele>
        <time>2023-05-03T14:32:26Z</time>
      </trkpt>
      <trkpt lat="49.87781" lon="2.00279">
        <ele>59.8</ele>
        <time>2023-05-03T14:32:28Z</time>
      </trkpt>
      <trkpt lat="49.87782" lon="2.0028">
        <ele>59.8</ele>
        <time>2023-05-03T14:32:29Z</time>
      </trkpt>
      <trkpt lat="49.87782" lon="2.00281">
        <ele>59.8</ele>
        <time>2023-05-03T14:32:30Z</time>
      </trkpt>
      <trkpt lat="49.87783" lon="2.00282">
        <ele>59.8</ele>
        <time>2023-05-03T14:32:31Z</time>
      </trkpt>
      <trkpt lat="49.87784" lon="2.00284">
        <ele>59.7</ele>
        <time>2023-05-03T14:32:32Z</time>
      </trkpt>
      <trkpt lat="49.87786" lon="2.00286">
        <ele>59.7</ele>
        <time>2023-05-03T14:32:34Z</time>
      </trkpt>
      <trkpt lat="49.87787" lon="2.00288">
        <ele>59.7</ele>
        <time>2023-05-03T14:32:35Z</time>
      </trkpt>
      <trkpt lat="49.87788" lon="2.0029">
        <ele>59.7</ele>
        <time>2023-05-03T14:32:36Z</time>
      </trkpt>
      <trkpt lat="49.8779" lon="2.00292">
        <ele>59.7</ele>
        <time>2023-05-03T14:32:37Z</time>
      </trkpt>
      <trkpt lat="49.8779" lon="2.00294">
        <ele>59.7</ele>
        <time>2023-05-03T14:32:39Z</time>
      </trkpt>
      <trkpt lat="49.87791" lon="2.00295">
        <ele>59.7</ele>
        <time>2023-05-03T14:32:40Z</time>
      </trkpt>
      <trkpt lat="49.87792" lon="2.00296">
        <ele>59.7</ele>
        <time>2023-05-03T14:32:41Z</time>
      </trkpt>
      <trkpt lat="49.87793" lon="2.00298">
        <ele>59.7</ele>
        <time>2023-05-03T14:32:42Z</time>
      </trkpt>
      <trkpt lat="49.87794" lon="2.00299">
        <ele>59.7</ele>
        <time>2023-05-03T14:32:43Z</time>
      </trkpt>
      <trkpt lat="49.87795" lon="2.00301">
        <ele>59.6</ele>
        <time>2023-05-03T14:32:44Z</time>
      </trkpt>
      <trkpt lat="49.87796" lon="2.00302">
        <ele>59.6</ele>
        <time>2023-05-03T14:32:46Z</time>
      </trkpt>
      <trkpt lat="49.87797" lon="2.00304">
        <ele>59.6</ele>
        <time>2023-05-03T14:32:47Z</time>
      </trkpt>
      <trkpt lat="49.87798" lon="2.00305">
        <ele>59.6</ele>
        <time>2023-05-03T14:32:48Z</time>
      </trkpt>
      <trkpt lat="49.87798" lon="2.00306">
        <ele>59.6</ele>
        <time>2023-05-03T14:32:49Z</time>
      </trkpt>
      <trkpt lat="49.87799" lon="2.00307">
        <ele>59.6</ele>
        <time>2023-05-03T14:32:50Z</time>
      </trkpt>
      <trkpt lat="49.878" lon="2.00309">
        <ele>59.6</ele>
        <time>2023-05-03T14:32:51Z</time>
      </trkpt>
      <trkpt lat="49.87801" lon="2.0031">
        <ele>59.6</ele>
        <time>2023-05-03T14:32:52Z</time>
      </trkpt>
      <trkpt lat="49.87802" lon="2.00311">
        <ele>59.6</ele>
        <time>2023-05-03T14:32:54Z</time>
      </trkpt>
      <trkpt lat="49.87803" lon="2.00312">
        <ele>59.6</ele>
        <time>2023-05-03T14:32:55Z</time>
      </trkpt>
      <trkpt lat="49.87804" lon="2.00313">
        <ele>59.6</ele>
        <time>2023-05-03T14:32:56Z</time>
      </trkpt>
      <trkpt lat="49.87804" lon="2.00314">
        <ele>59.6</ele>
        <time>2023-05-03T14:32:57Z</time>
      </trkpt>
      <trkpt lat="49.87805" lon="2.00316">
        <ele>59.6</ele>
        <time>2023-05-03T14:32:58Z</time>
      </trkpt>
      <trkpt lat="49.87806" lon="2.00317">
        <ele>59.6</ele>
        <time>2023-05-03T14:32:59Z</time>
      </trkpt>
      <trkpt lat="49.87807" lon="2.00319">
        <ele>59.6</ele>
        <time>2023-05-03T14:33:01Z</time>
      </trkpt>
      <trkpt lat="49.87807" lon="2.0032">
        <ele>59.6</ele>
        <time>2023-05-03T14:33:02Z</time>
      </trkpt>
      <trkpt lat="49.87808" lon="2.00322">
        <ele>59.6</ele>
        <time>2023-05-03T14:33:03Z</time>
      </trkpt>
      <trkpt lat="49.87809" lon="2.00323">
        <ele>59.5</ele>
        <time>2023-05-03T14:33:04Z</time>
      </trkpt>
      <trkpt lat="49.87809" lon="2.00325">
        <ele>59.5</ele>
        <time>2023-05-03T14:33:05Z</time>
      </trkpt>
      <trkpt lat="49.8781" lon="2.00326">
        <ele>59.5</ele>
        <time>2023-05-03T14:33:06Z</time>
      </trkpt>
      <trkpt lat="49.87811" lon="2.00328">
        <ele>59.5</ele>
        <time>2023-05-03T14:33:08Z</time>
      </trkpt>
      <trkpt lat="49.87811" lon="2.00329">
        <ele>59.5</ele>
        <time>2023-05-03T14:33:09Z</time>
      </trkpt>
      <trkpt lat="49.87812" lon="2.00331">
        <ele>59.5</ele>
        <time>2023-05-03T14:33:10Z</time>
      </trkpt>
      <trkpt lat="49.87812" lon="2.00332">
        <ele>59.5</ele>
        <time>2023-05-03T14:33:11Z</time>
      </trkpt>
      <trkpt lat="49.87813" lon="2.00333">
        <ele>59.5</ele>
        <time>2023-05-03T14:33:12Z</time>
      </trkpt>
      <trkpt lat="49.87814" lon="2.00334">
        <ele>59.5</ele>
        <time>2023-05-03T14:33:13Z</time>
      </trkpt>
      <trkpt lat="49.87815" lon="2.00335">
        <ele>59.4</ele>
        <time>2023-05-03T14:33:14Z</time>
      </trkpt>
      <trkpt lat="49.87816" lon="2.00338">
        <ele>59.4</ele>
        <time>2023-05-03T14:33:16Z</time>
      </trkpt>
      <trkpt lat="49.87817" lon="2.00339">
        <ele>59.4</ele>
        <time>2023-05-03T14:33:17Z</time>
      </trkpt>
      <trkpt lat="49.87817" lon="2.00339">
        <ele>59.4</ele>
        <time>2023-05-03T14:33:18Z</time>
      </trkpt>
      <trkpt lat="49.87818" lon="2.00341">
        <ele>59.4</ele>
        <time>2023-05-03T14:33:19Z</time>
      </trkpt>
      <trkpt lat="49.87819" lon="2.00342">
        <ele>59.4</ele>
        <time>2023-05-03T14:33:20Z</time>
      </trkpt>
      <trkpt lat="49.8782" lon="2.00343">
        <ele>59.4</ele>
        <time>2023-05-03T14:33:21Z</time>
      </trkpt>
      <trkpt lat="49.8782" lon="2.00345">
        <ele>59.4</ele>
        <time>2023-05-03T14:33:22Z</time>
      </trkpt>
      <trkpt lat="49.87821" lon="2.00346">
        <ele>59.3</ele>
        <time>2023-05-03T14:33:24Z</time>
      </trkpt>
      <trkpt lat="49.87822" lon="2.00347">
        <ele>59.3</ele>
        <time>2023-05-03T14:33:25Z</time>
      </trkpt>
      <trkpt lat="49.87823" lon="2.00349">
        <ele>59.3</ele>
        <time>2023-05-03T14:33:26Z</time>
      </trkpt>
      <trkpt lat="49.87824" lon="2.0035">
        <ele>59.3</ele>
        <time>2023-05-03T14:33:27Z</time>
      </trkpt>
      <trkpt lat="49.87825" lon="2.00351">
        <ele>59.3</ele>
        <time>2023-05-03T14:33:28Z</time>
      </trkpt>
      <trkpt lat="49.87825" lon="2.00353">
        <ele>59.3</ele>
        <time>2023-05-03T14:33:29Z</time>
      </trkpt>
      <trkpt lat="49.87826" lon="2.00355">
        <ele>59.3</ele>
        <time>2023-05-03T14:33:30Z</time>
      </trkpt>
      <trkpt lat="49.87827" lon="2.00356">
        <ele>59.2</ele>
        <time>2023-05-03T14:33:31Z</time>
      </trkpt>
      <trkpt lat="49.87828" lon="2.00358">
        <ele>59.2</ele>
        <time>2023-05-03T14:33:32Z</time>
      </trkpt>
      <trkpt lat="49.8783" lon="2.0036">
        <ele>59.2</ele>
        <time>2023-05-03T14:33:34Z</time>
      </trkpt>
      <trkpt lat="49.87831" lon="2.00361">
        <ele>59.2</ele>
        <time>2023-05-03T14:33:35Z</time>
      </trkpt>
      <trkpt lat="49.87831" lon="2.00362">
        <ele>59.2</ele>
        <time>2023-05-03T14:33:36Z</time>
      </trkpt>
      <trkpt lat="49.87832" lon="2.00363">
        <ele>59.1</ele>
        <time>2023-05-03T14:33:37Z</time>
      </trkpt>
      <trkpt lat="49.87833" lon="2.00365">
        <ele>59.1</ele>
        <time>2023-05-03T14:33:38Z</time>
      </trkpt>
      <trkpt lat="49.87834" lon="2.00367">
        <ele>59.1</ele>
        <time>2023-05-03T14:33:39Z</time>
      </trkpt>
      <trkpt lat="49.87835" lon="2.00369">
        <ele>59</ele>
        <time>2023-05-03T14:33:40Z</time>
      </trkpt>
      <trkpt lat="49.87836" lon="2.00371">
        <ele>59</ele>
        <time>2023-05-03T14:33:41Z</time>
      </trkpt>
      <trkpt lat="49.87837" lon="2.00373">
        <ele>59</ele>
        <time>2023-05-03T14:33:43Z</time>
      </trkpt>
      <trkpt lat="49.87838" lon="2.00374">
        <ele>58.9</ele>
        <time>2023-05-03T14:33:44Z</time>
      </trkpt>
      <trkpt lat="49.87839" lon="2.00375">
        <ele>58.9</ele>
        <time>2023-05-03T14:33:45Z</time>
      </trkpt>
      <trkpt lat="49.8784" lon="2.00376">
        <ele>58.9</ele>
        <time>2023-05-03T14:33:46Z</time>
      </trkpt>
      <trkpt lat="49.8784" lon="2.00379">
        <ele>58.8</ele>
        <time>2023-05-03T14:33:47Z</time>
      </trkpt>
      <trkpt lat="49.87841" lon="2.0038">
        <ele>58.8</ele>
        <time>2023-05-03T14:33:48Z</time>
      </trkpt>
      <trkpt lat="49.87842" lon="2.00382">
        <ele>58.8</ele>
        <time>2023-05-03T14:33:49Z</time>
      </trkpt>
      <trkpt lat="49.87843" lon="2.00384">
        <ele>58.7</ele>
        <time>2023-05-03T14:33:50Z</time>
      </trkpt>
      <trkpt lat="49.87845" lon="2.00386">
        <ele>58.7</ele>
        <time>2023-05-03T14:33:51Z</time>
      </trkpt>
      <trkpt lat="49.87846" lon="2.00388">
        <ele>58.6</ele>
        <time>2023-05-03T14:33:53Z</time>
      </trkpt>
      <trkpt lat="49.87847" lon="2.00389">
        <ele>58.6</ele>
        <time>2023-05-03T14:33:54Z</time>
      </trkpt>
      <trkpt lat="49.87848" lon="2.0039">
        <ele>58.6</ele>
        <time>2023-05-03T14:33:55Z</time>
      </trkpt>
      <trkpt lat="49.87848" lon="2.00391">
        <ele>58.5</ele>
        <time>2023-05-03T14:33:56Z</time>
      </trkpt>
      <trkpt lat="49.87849" lon="2.00392">
        <ele>58.5</ele>
        <time>2023-05-03T14:33:57Z</time>
      </trkpt>
      <trkpt lat="49.87851" lon="2.00394">
        <ele>58.5</ele>
        <time>2023-05-03T14:33:59Z</time>
      </trkpt>
      <trkpt lat="49.87852" lon="2.00395">
        <ele>58.4</ele>
        <time>2023-05-03T14:34:00Z</time>
      </trkpt>
      <trkpt lat="49.87853" lon="2.00397">
        <ele>58.4</ele>
        <time>2023-05-03T14:34:01Z</time>
      </trkpt>
      <trkpt lat="49.87854" lon="2.00399">
        <ele>58.3</ele>
        <time>2023-05-03T14:34:02Z</time>
      </trkpt>
      <trkpt lat="49.87855" lon="2.004">
        <ele>58.3</ele>
        <time>2023-05-03T14:34:03Z</time>
      </trkpt>
      <trkpt lat="49.87855" lon="2.00401">
        <ele>58.3</ele>
        <time>2023-05-03T14:34:04Z</time>
      </trkpt>
      <trkpt lat="49.87856" lon="2.00403">
        <ele>58.3</ele>
        <time>2023-05-03T14:34:06Z</time>
      </trkpt>
      <trkpt lat="49.87857" lon="2.00405">
        <ele>58.3</ele>
        <time>2023-05-03T14:34:07Z</time>
      </trkpt>
      <trkpt lat="49.87859" lon="2.00407">
        <ele>58.2</ele>
        <time>2023-05-03T14:34:08Z</time>
      </trkpt>
      <trkpt lat="49.87859" lon="2.00408">
        <ele>58.2</ele>
        <time>2023-05-03T14:34:09Z</time>
      </trkpt>
      <trkpt lat="49.8786" lon="2.00409">
        <ele>58.2</ele>
        <time>2023-05-03T14:34:10Z</time>
      </trkpt>
      <trkpt lat="49.87861" lon="2.0041">
        <ele>58.2</ele>
        <time>2023-05-03T14:34:11Z</time>
      </trkpt>
      <trkpt lat="49.87862" lon="2.00412">
        <ele>58.1</ele>
        <time>2023-05-03T14:34:12Z</time>
      </trkpt>
      <trkpt lat="49.87863" lon="2.00413">
        <ele>58.1</ele>
        <time>2023-05-03T14:34:13Z</time>
      </trkpt>
      <trkpt lat="49.87864" lon="2.00414">
        <ele>58.1</ele>
        <time>2023-05-03T14:34:14Z</time>
      </trkpt>
      <trkpt lat="49.87865" lon="2.00415">
        <ele>58.1</ele>
        <time>2023-05-03T14:34:16Z</time>
      </trkpt>
      <trkpt lat="49.87866" lon="2.00415">
        <ele>58.1</ele>
        <time>2023-05-03T14:34:17Z</time>
      </trkpt>
      <trkpt lat="49.87867" lon="2.00416">
        <ele>58</ele>
        <time>2023-05-03T14:34:18Z</time>
      </trkpt>
      <trkpt lat="49.87868" lon="2.00417">
        <ele>58</ele>
        <time>2023-05-03T14:34:19Z</time>
      </trkpt>
      <trkpt lat="49.87869" lon="2.00417">
        <ele>58</ele>
        <time>2023-05-03T14:34:20Z</time>
      </trkpt>
      <trkpt lat="49.8787" lon="2.00418">
        <ele>58</ele>
        <time>2023-05-03T14:34:21Z</time>
      </trkpt>
      <trkpt lat="49.87872" lon="2.00418">
        <ele>58</ele>
        <time>2023-05-03T14:34:22Z</time>
      </trkpt>
      <trkpt lat="49.87873" lon="2.00419">
        <ele>57.9</ele>
        <time>2023-05-03T14:34:23Z</time>
      </trkpt>
      <trkpt lat="49.87874" lon="2.00419">
        <ele>57.9</ele>
        <time>2023-05-03T14:34:25Z</time>
      </trkpt>
      <trkpt lat="49.87875" lon="2.00419">
        <ele>57.9</ele>
        <time>2023-05-03T14:34:26Z</time>
      </trkpt>
      <trkpt lat="49.87876" lon="2.00419">
        <ele>57.9</ele>
        <time>2023-05-03T14:34:27Z</time>
      </trkpt>
      <trkpt lat="49.87877" lon="2.00419">
        <ele>57.9</ele>
        <time>2023-05-03T14:34:28Z</time>
      </trkpt>
      <trkpt lat="49.87878" lon="2.00419">
        <ele>57.9</ele>
        <time>2023-05-03T14:34:29Z</time>
      </trkpt>
      <trkpt lat="49.87879" lon="2.00419">
        <ele>57.8</ele>
        <time>2023-05-03T14:34:30Z</time>
      </trkpt>
      <trkpt lat="49.8788" lon="2.0042">
        <ele>57.8</ele>
        <time>2023-05-03T14:34:31Z</time>
      </trkpt>
      <trkpt lat="49.87882" lon="2.0042">
        <ele>57.8</ele>
        <time>2023-05-03T14:34:33Z</time>
      </trkpt>
      <trkpt lat="49.87884" lon="2.0042">
        <ele>57.8</ele>
        <time>2023-05-03T14:34:34Z</time>
      </trkpt>
      <trkpt lat="49.87885" lon="2.0042">
        <ele>57.7</ele>
        <time>2023-05-03T14:34:35Z</time>
      </trkpt>
      <trkpt lat="49.87886" lon="2.0042">
        <ele>57.7</ele>
        <time>2023-05-03T14:34:36Z</time>
      </trkpt>
      <trkpt lat="49.87888" lon="2.00419">
        <ele>57.7</ele>
        <time>2023-05-03T14:34:38Z</time>
      </trkpt>
      <trkpt lat="49.87889" lon="2.00419">
        <ele>57.7</ele>
        <time>2023-05-03T14:34:39Z</time>
      </trkpt>
      <trkpt lat="49.8789" lon="2.00419">
        <ele>57.7</ele>
        <time>2023-05-03T14:34:40Z</time>
      </trkpt>
      <trkpt lat="49.87892" lon="2.00419">
        <ele>57.6</ele>
        <time>2023-05-03T14:34:41Z</time>
      </trkpt>
      <trkpt lat="49.87893" lon="2.00419">
        <ele>57.6</ele>
        <time>2023-05-03T14:34:42Z</time>
      </trkpt>
      <trkpt lat="49.87894" lon="2.00419">
        <ele>57.6</ele>
        <time>2023-05-03T14:34:43Z</time>
      </trkpt>
      <trkpt lat="49.87896" lon="2.00419">
        <ele>57.6</ele>
        <time>2023-05-03T14:34:44Z</time>
      </trkpt>
      <trkpt lat="49.87897" lon="2.00419">
        <ele>57.5</ele>
        <time>2023-05-03T14:34:45Z</time>
      </trkpt>
      <trkpt lat="49.87898" lon="2.00419">
        <ele>57.5</ele>
        <time>2023-05-03T14:34:46Z</time>
      </trkpt>
      <trkpt lat="49.87899" lon="2.0042">
        <ele>57.5</ele>
        <time>2023-05-03T14:34:47Z</time>
      </trkpt>
      <trkpt lat="49.879" lon="2.0042">
        <ele>57.5</ele>
        <time>2023-05-03T14:34:49Z</time>
      </trkpt>
      <trkpt lat="49.87901" lon="2.0042">
        <ele>57.5</ele>
        <time>2023-05-03T14:34:50Z</time>
      </trkpt>
      <trkpt lat="49.87902" lon="2.00421">
        <ele>57.5</ele>
        <time>2023-05-03T14:34:51Z</time>
      </trkpt>
      <trkpt lat="49.87904" lon="2.00421">
        <ele>57.4</ele>
        <time>2023-05-03T14:34:52Z</time>
      </trkpt>
      <trkpt lat="49.87905" lon="2.00421">
        <ele>57.4</ele>
        <time>2023-05-03T14:34:53Z</time>
      </trkpt>
      <trkpt lat="49.87906" lon="2.00422">
        <ele>57.4</ele>
        <time>2023-05-03T14:34:54Z</time>
      </trkpt>
      <trkpt lat="49.87908" lon="2.00422">
        <ele>57.4</ele>
        <time>2023-05-03T14:34:55Z</time>
      </trkpt>
      <trkpt lat="49.87909" lon="2.00423">
        <ele>57.3</ele>
        <time>2023-05-03T14:34:56Z</time>
      </trkpt>
      <trkpt lat="49.87911" lon="2.00423">
        <ele>57.3</ele>
        <time>2023-05-03T14:34:58Z</time>
      </trkpt>
      <trkpt lat="49.87912" lon="2.00424">
        <ele>57.3</ele>
        <time>2023-05-03T14:35:00Z</time>
      </trkpt>
      <trkpt lat="49.87914" lon="2.00424">
        <ele>57.3</ele>
        <time>2023-05-03T14:35:01Z</time>
      </trkpt>
      <trkpt lat="49.87915" lon="2.00424">
        <ele>57.2</ele>
        <time>2023-05-03T14:35:02Z</time>
      </trkpt>
      <trkpt lat="49.87916" lon="2.00424">
        <ele>57.2</ele>
        <time>2023-05-03T14:35:03Z</time>
      </trkpt>
      <trkpt lat="49.87918" lon="2.00425">
        <ele>57.2</ele>
        <time>2023-05-03T14:35:04Z</time>
      </trkpt>
      <trkpt lat="49.87919" lon="2.00425">
        <ele>57.2</ele>
        <time>2023-05-03T14:35:05Z</time>
      </trkpt>
      <trkpt lat="49.87921" lon="2.00425">
        <ele>57.2</ele>
        <time>2023-05-03T14:35:06Z</time>
      </trkpt>
      <trkpt lat="49.87922" lon="2.00425">
        <ele>57.2</ele>
        <time>2023-05-03T14:35:07Z</time>
      </trkpt>
      <trkpt lat="49.87924" lon="2.00425">
        <ele>57.1</ele>
        <time>2023-05-03T14:35:09Z</time>
      </trkpt>
      <trkpt lat="49.87926" lon="2.00425">
        <ele>57.1</ele>
        <time>2023-05-03T14:35:10Z</time>
      </trkpt>
      <trkpt lat="49.87927" lon="2.00425">
        <ele>57.1</ele>
        <time>2023-05-03T14:35:12Z</time>
      </trkpt>
      <trkpt lat="49.87929" lon="2.00425">
        <ele>57.1</ele>
        <time>2023-05-03T14:35:13Z</time>
      </trkpt>
      <trkpt lat="49.8793" lon="2.00425">
        <ele>57.1</ele>
        <time>2023-05-03T14:35:14Z</time>
      </trkpt>
      <trkpt lat="49.87932" lon="2.00425">
        <ele>57.1</ele>
        <time>2023-05-03T14:35:15Z</time>
      </trkpt>
      <trkpt lat="49.87933" lon="2.00426">
        <ele>57.1</ele>
        <time>2023-05-03T14:35:16Z</time>
      </trkpt>
      <trkpt lat="49.87934" lon="2.00426">
        <ele>57.1</ele>
        <time>2023-05-03T14:35:17Z</time>
      </trkpt>
      <trkpt lat="49.87936" lon="2.00426">
        <ele>57.1</ele>
        <time>2023-05-03T14:35:18Z</time>
      </trkpt>
      <trkpt lat="49.87937" lon="2.00426">
        <ele>57.1</ele>
        <time>2023-05-03T14:35:19Z</time>
      </trkpt>
      <trkpt lat="49.87938" lon="2.00426">
        <ele>57.1</ele>
        <time>2023-05-03T14:35:20Z</time>
      </trkpt>
      <trkpt lat="49.8794" lon="2.00426">
        <ele>57.1</ele>
        <time>2023-05-03T14:35:21Z</time>
      </trkpt>
      <trkpt lat="49.87942" lon="2.00426">
        <ele>57.1</ele>
        <time>2023-05-03T14:35:23Z</time>
      </trkpt>
      <trkpt lat="49.87943" lon="2.00426">
        <ele>57.1</ele>
        <time>2023-05-03T14:35:24Z</time>
      </trkpt>
      <trkpt lat="49.87944" lon="2.00426">
        <ele>57.1</ele>
        <time>2023-05-03T14:35:26Z</time>
      </trkpt>
      <trkpt lat="49.87946" lon="2.00426">
        <ele>57.1</ele>
        <time>2023-05-03T14:35:27Z</time>
      </trkpt>
      <trkpt lat="49.87947" lon="2.00426">
        <ele>57.1</ele>
        <time>2023-05-03T14:35:28Z</time>
      </trkpt>
      <trkpt lat="49.87949" lon="2.00427">
        <ele>57.1</ele>
        <time>2023-05-03T14:35:30Z</time>
      </trkpt>
      <trkpt lat="49.8795" lon="2.00427">
        <ele>57.1</ele>
        <time>2023-05-03T14:35:31Z</time>
      </trkpt>
      <trkpt lat="49.87951" lon="2.00427">
        <ele>57.1</ele>
        <time>2023-05-03T14:35:32Z</time>
      </trkpt>
      <trkpt lat="49.87953" lon="2.00427">
        <ele>57.1</ele>
        <time>2023-05-03T14:35:33Z</time>
      </trkpt>
      <trkpt lat="49.87954" lon="2.00427">
        <ele>57.1</ele>
        <time>2023-05-03T14:35:34Z</time>
      </trkpt>
      <trkpt lat="49.87955" lon="2.00427">
        <ele>57.1</ele>
        <time>2023-05-03T14:35:36Z</time>
      </trkpt>
      <trkpt lat="49.87956" lon="2.00427">
        <ele>57.1</ele>
        <time>2023-05-03T14:35:37Z</time>
      </trkpt>
      <trkpt lat="49.87957" lon="2.00426">
        <ele>57.1</ele>
        <time>2023-05-03T14:35:38Z</time>
      </trkpt>
      <trkpt lat="49.87958" lon="2.00426">
        <ele>57.1</ele>
        <time>2023-05-03T14:35:39Z</time>
      </trkpt>
      <trkpt lat="49.8796" lon="2.00427">
        <ele>57.1</ele>
        <time>2023-05-03T14:35:40Z</time>
      </trkpt>
      <trkpt lat="49.87961" lon="2.00427">
        <ele>57.1</ele>
        <time>2023-05-03T14:35:41Z</time>
      </trkpt>
      <trkpt lat="49.87962" lon="2.00427">
        <ele>57.1</ele>
        <time>2023-05-03T14:35:42Z</time>
      </trkpt>
      <trkpt lat="49.87964" lon="2.00428">
        <ele>57.1</ele>
        <time>2023-05-03T14:35:43Z</time>
      </trkpt>
      <trkpt lat="49.87965" lon="2.00428">
        <ele>57.1</ele>
        <time>2023-05-03T14:35:44Z</time>
      </trkpt>
      <trkpt lat="49.87966" lon="2.00428">
        <ele>57.1</ele>
        <time>2023-05-03T14:35:46Z</time>
      </trkpt>
      <trkpt lat="49.87968" lon="2.00428">
        <ele>57.1</ele>
        <time>2023-05-03T14:35:47Z</time>
      </trkpt>
      <trkpt lat="49.87969" lon="2.00428">
        <ele>57</ele>
        <time>2023-05-03T14:35:48Z</time>
      </trkpt>
      <trkpt lat="49.87971" lon="2.00428">
        <ele>57</ele>
        <time>2023-05-03T14:35:49Z</time>
      </trkpt>
      <trkpt lat="49.87972" lon="2.00428">
        <ele>57</ele>
        <time>2023-05-03T14:35:50Z</time>
      </trkpt>
      <trkpt lat="49.87972" lon="2.00428">
        <ele>57</ele>
        <time>2023-05-03T14:35:51Z</time>
      </trkpt>
      <trkpt lat="49.87974" lon="2.00428">
        <ele>57</ele>
        <time>2023-05-03T14:35:52Z</time>
      </trkpt>
      <trkpt lat="49.87975" lon="2.00428">
        <ele>57</ele>
        <time>2023-05-03T14:35:53Z</time>
      </trkpt>
      <trkpt lat="49.87976" lon="2.00428">
        <ele>57</ele>
        <time>2023-05-03T14:35:55Z</time>
      </trkpt>
      <trkpt lat="49.87978" lon="2.00428">
        <ele>57</ele>
        <time>2023-05-03T14:35:56Z</time>
      </trkpt>
      <trkpt lat="49.87979" lon="2.00428">
        <ele>57</ele>
        <time>2023-05-03T14:35:57Z</time>
      </trkpt>
      <trkpt lat="49.8798" lon="2.00428">
        <ele>57</ele>
        <time>2023-05-03T14:35:58Z</time>
      </trkpt>
      <trkpt lat="49.87982" lon="2.00429">
        <ele>57</ele>
        <time>2023-05-03T14:35:59Z</time>
      </trkpt>
      <trkpt lat="49.87983" lon="2.0043">
        <ele>57</ele>
        <time>2023-05-03T14:36:00Z</time>
      </trkpt>
      <trkpt lat="49.87984" lon="2.0043">
        <ele>57</ele>
        <time>2023-05-03T14:36:01Z</time>
      </trkpt>
      <trkpt lat="49.87986" lon="2.00431">
        <ele>57</ele>
        <time>2023-05-03T14:36:03Z</time>
      </trkpt>
      <trkpt lat="49.87987" lon="2.00431">
        <ele>57</ele>
        <time>2023-05-03T14:36:04Z</time>
      </trkpt>
      <trkpt lat="49.87987" lon="2.00432">
        <ele>57</ele>
        <time>2023-05-03T14:36:05Z</time>
      </trkpt>
      <trkpt lat="49.87989" lon="2.00433">
        <ele>57</ele>
        <time>2023-05-03T14:36:06Z</time>
      </trkpt>
      <trkpt lat="49.8799" lon="2.00433">
        <ele>57</ele>
        <time>2023-05-03T14:36:07Z</time>
      </trkpt>
      <trkpt lat="49.87991" lon="2.00433">
        <ele>57</ele>
        <time>2023-05-03T14:36:08Z</time>
      </trkpt>
      <trkpt lat="49.87992" lon="2.00434">
        <ele>57</ele>
        <time>2023-05-03T14:36:09Z</time>
      </trkpt>
      <trkpt lat="49.87993" lon="2.00435">
        <ele>57</ele>
        <time>2023-05-03T14:36:10Z</time>
      </trkpt>
      <trkpt lat="49.87994" lon="2.00436">
        <ele>57</ele>
        <time>2023-05-03T14:36:12Z</time>
      </trkpt>
      <trkpt lat="49.87995" lon="2.00436">
        <ele>57</ele>
        <time>2023-05-03T14:36:13Z</time>
      </trkpt>
      <trkpt lat="49.87996" lon="2.00437">
        <ele>57</ele>
        <time>2023-05-03T14:36:14Z</time>
      </trkpt>
      <trkpt lat="49.87995" lon="2.00439">
        <ele>57</ele>
        <time>2023-05-03T14:36:15Z</time>
      </trkpt>
      <trkpt lat="49.87995" lon="2.0044">
        <ele>57</ele>
        <time>2023-05-03T14:36:17Z</time>
      </trkpt>
      <trkpt lat="49.87994" lon="2.00441">
        <ele>57</ele>
        <time>2023-05-03T14:36:18Z</time>
      </trkpt>
      <trkpt lat="49.87994" lon="2.00441">
        <ele>57</ele>
        <time>2023-05-03T14:36:19Z</time>
      </trkpt>
      <trkpt lat="49.87994" lon="2.00441">
        <ele>57</ele>
        <time>2023-05-03T14:36:20Z</time>
      </trkpt>
      <trkpt lat="49.87994" lon="2.00441">
        <ele>57</ele>
        <time>2023-05-03T14:36:21Z</time>
      </trkpt>
      <trkpt lat="49.87994" lon="2.00442">
        <ele>57</ele>
        <time>2023-05-03T14:36:23Z</time>
      </trkpt>
      <trkpt lat="49.87994" lon="2.00441">
        <ele>57</ele>
        <time>2023-05-03T14:36:24Z</time>
      </trkpt>
      <trkpt lat="49.87994" lon="2.00442">
        <ele>57</ele>
        <time>2023-05-03T14:36:26Z</time>
      </trkpt>
      <trkpt lat="49.87994" lon="2.00442">
        <ele>57</ele>
        <time>2023-05-03T14:36:27Z</time>
      </trkpt>
      <trkpt lat="49.87995" lon="2.00442">
        <ele>57</ele>
        <time>2023-05-03T14:36:29Z</time>
      </trkpt>
      <trkpt lat="49.87995" lon="2.00442">
        <ele>57</ele>
        <time>2023-05-03T14:36:31Z</time>
      </trkpt>
      <trkpt lat="49.87995" lon="2.00443">
        <ele>57</ele>
        <time>2023-05-03T14:36:32Z</time>
      </trkpt>
      <trkpt lat="49.87995" lon="2.00443">
        <ele>57</ele>
        <time>2023-05-03T14:36:33Z</time>
      </trkpt>
      <trkpt lat="49.87996" lon="2.00443">
        <ele>57</ele>
        <time>2023-05-03T14:36:34Z</time>
      </trkpt>
      <trkpt lat="49.87997" lon="2.00444">
        <ele>57</ele>
        <time>2023-05-03T14:36:35Z</time>
      </trkpt>
      <trkpt lat="49.87997" lon="2.00444">
        <ele>57</ele>
        <time>2023-05-03T14:36:37Z</time>
      </trkpt>
      <trkpt lat="49.87998" lon="2.00445">
        <ele>57</ele>
        <time>2023-05-03T14:36:38Z</time>
      </trkpt>
      <trkpt lat="49.87999" lon="2.00446">
        <ele>57</ele>
        <time>2023-05-03T14:36:39Z</time>
      </trkpt>
      <trkpt lat="49.88" lon="2.00447">
        <ele>57</ele>
        <time>2023-05-03T14:36:40Z</time>
      </trkpt>
      <trkpt lat="49.88001" lon="2.00448">
        <ele>57</ele>
        <time>2023-05-03T14:36:42Z</time>
      </trkpt>
      <trkpt lat="49.88002" lon="2.00449">
        <ele>57</ele>
        <time>2023-05-03T14:36:43Z</time>
      </trkpt>
      <trkpt lat="49.88003" lon="2.0045">
        <ele>57</ele>
        <time>2023-05-03T14:36:44Z</time>
      </trkpt>
      <trkpt lat="49.88004" lon="2.0045">
        <ele>57.1</ele>
        <time>2023-05-03T14:36:45Z</time>
      </trkpt>
      <trkpt lat="49.88006" lon="2.00452">
        <ele>57.1</ele>
        <time>2023-05-03T14:36:47Z</time>
      </trkpt>
      <trkpt lat="49.88007" lon="2.00453">
        <ele>57.1</ele>
        <time>2023-05-03T14:36:48Z</time>
      </trkpt>
      <trkpt lat="49.88008" lon="2.00453">
        <ele>57.1</ele>
        <time>2023-05-03T14:36:49Z</time>
      </trkpt>
      <trkpt lat="49.88009" lon="2.00455">
        <ele>57.1</ele>
        <time>2023-05-03T14:36:50Z</time>
      </trkpt>
      <trkpt lat="49.8801" lon="2.00455">
        <ele>57.1</ele>
        <time>2023-05-03T14:36:51Z</time>
      </trkpt>
      <trkpt lat="49.88011" lon="2.00456">
        <ele>57.1</ele>
        <time>2023-05-03T14:36:52Z</time>
      </trkpt>
      <trkpt lat="49.88012" lon="2.00458">
        <ele>57.1</ele>
        <time>2023-05-03T14:36:54Z</time>
      </trkpt>
      <trkpt lat="49.88013" lon="2.00458">
        <ele>57.1</ele>
        <time>2023-05-03T14:36:55Z</time>
      </trkpt>
      <trkpt lat="49.88014" lon="2.00459">
        <ele>57.1</ele>
        <time>2023-05-03T14:36:56Z</time>
      </trkpt>
      <trkpt lat="49.88015" lon="2.0046">
        <ele>57.3</ele>
        <time>2023-05-03T14:36:57Z</time>
      </trkpt>
      <trkpt lat="49.88016" lon="2.00461">
        <ele>57.3</ele>
        <time>2023-05-03T14:36:58Z</time>
      </trkpt>
      <trkpt lat="49.88016" lon="2.00462">
        <ele>57.3</ele>
        <time>2023-05-03T14:36:59Z</time>
      </trkpt>
      <trkpt lat="49.88017" lon="2.00463">
        <ele>57.4</ele>
        <time>2023-05-03T14:37:00Z</time>
      </trkpt>
      <trkpt lat="49.88019" lon="2.00464">
        <ele>57.4</ele>
        <time>2023-05-03T14:37:02Z</time>
      </trkpt>
      <trkpt lat="49.8802" lon="2.00465">
        <ele>57.4</ele>
        <time>2023-05-03T14:37:03Z</time>
      </trkpt>
      <trkpt lat="49.88021" lon="2.00466">
        <ele>57.6</ele>
        <time>2023-05-03T14:37:05Z</time>
      </trkpt>
      <trkpt lat="49.88022" lon="2.00467">
        <ele>57.5</ele>
        <time>2023-05-03T14:37:06Z</time>
      </trkpt>
      <trkpt lat="49.88022" lon="2.00467">
        <ele>57.5</ele>
        <time>2023-05-03T14:37:07Z</time>
      </trkpt>
      <trkpt lat="49.88023" lon="2.00469">
        <ele>57.7</ele>
        <time>2023-05-03T14:37:09Z</time>
      </trkpt>
      <trkpt lat="49.88024" lon="2.00469">
        <ele>57.7</ele>
        <time>2023-05-03T14:37:10Z</time>
      </trkpt>
      <trkpt lat="49.88024" lon="2.0047">
        <ele>57.7</ele>
        <time>2023-05-03T14:37:11Z</time>
      </trkpt>
      <trkpt lat="49.88024" lon="2.0047">
        <ele>57.7</ele>
        <time>2023-05-03T14:37:13Z</time>
      </trkpt>
      <trkpt lat="49.88024" lon="2.0047">
        <ele>57.7</ele>
        <time>2023-05-03T14:37:14Z</time>
      </trkpt>
      <trkpt lat="49.88024" lon="2.0047">
        <ele>57.7</ele>
        <time>2023-05-03T14:37:15Z</time>
      </trkpt>
      <trkpt lat="49.88024" lon="2.0047">
        <ele>57.7</ele>
        <time>2023-05-03T14:37:16Z</time>
      </trkpt>
      <trkpt lat="49.88024" lon="2.0047">
        <ele>57.7</ele>
        <time>2023-05-03T14:37:18Z</time>
      </trkpt>
      <trkpt lat="49.88024" lon="2.0047">
        <ele>57.7</ele>
        <time>2023-05-03T14:37:19Z</time>
      </trkpt>
      <trkpt lat="49.88024" lon="2.0047">
        <ele>57.7</ele>
        <time>2023-05-03T14:37:20Z</time>
      </trkpt>
      <trkpt lat="49.88025" lon="2.00469">
        <ele>57.7</ele>
        <time>2023-05-03T14:37:21Z</time>
      </trkpt>
      <trkpt lat="49.88025" lon="2.00469">
        <ele>57.7</ele>
        <time>2023-05-03T14:37:22Z</time>
      </trkpt>
      <trkpt lat="49.88026" lon="2.00469">
        <ele>57.9</ele>
        <time>2023-05-03T14:37:24Z</time>
      </trkpt>
      <trkpt lat="49.88026" lon="2.00468">
        <ele>57.9</ele>
        <time>2023-05-03T14:37:25Z</time>
      </trkpt>
      <trkpt lat="49.88026" lon="2.00468">
        <ele>57.9</ele>
        <time>2023-05-03T14:37:26Z</time>
      </trkpt>
      <trkpt lat="49.88026" lon="2.00467">
        <ele>57.9</ele>
        <time>2023-05-03T14:37:28Z</time>
      </trkpt>
      <trkpt lat="49.88026" lon="2.00466">
        <ele>57.9</ele>
        <time>2023-05-03T14:37:29Z</time>
      </trkpt>
      <trkpt lat="49.88026" lon="2.00466">
        <ele>58</ele>
        <time>2023-05-03T14:37:30Z</time>
      </trkpt>
      <trkpt lat="49.88026" lon="2.00466">
        <ele>58</ele>
        <time>2023-05-03T14:37:31Z</time>
      </trkpt>
      <trkpt lat="49.88026" lon="2.00465">
        <ele>58</ele>
        <time>2023-05-03T14:37:32Z</time>
      </trkpt>
      <trkpt lat="49.88026" lon="2.00464">
        <ele>58</ele>
        <time>2023-05-03T14:37:33Z</time>
      </trkpt>
      <trkpt lat="49.88026" lon="2.00462">
        <ele>58</ele>
        <time>2023-05-03T14:37:35Z</time>
      </trkpt>
      <trkpt lat="49.88026" lon="2.00461">
        <ele>58.1</ele>
        <time>2023-05-03T14:37:36Z</time>
      </trkpt>
      <trkpt lat="49.88025" lon="2.00459">
        <ele>57.9</ele>
        <time>2023-05-03T14:37:38Z</time>
      </trkpt>
      <trkpt lat="49.88025" lon="2.00458">
        <ele>58</ele>
        <time>2023-05-03T14:37:39Z</time>
      </trkpt>
      <trkpt lat="49.88025" lon="2.00456">
        <ele>58</ele>
        <time>2023-05-03T14:37:40Z</time>
      </trkpt>
      <trkpt lat="49.88024" lon="2.00455">
        <ele>58</ele>
        <time>2023-05-03T14:37:41Z</time>
      </trkpt>
      <trkpt lat="49.88024" lon="2.00453">
        <ele>58.1</ele>
        <time>2023-05-03T14:37:42Z</time>
      </trkpt>
      <trkpt lat="49.88023" lon="2.0045">
        <ele>58.1</ele>
        <time>2023-05-03T14:37:43Z</time>
      </trkpt>
      <trkpt lat="49.88023" lon="2.00449">
        <ele>58.1</ele>
        <time>2023-05-03T14:37:45Z</time>
      </trkpt>
      <trkpt lat="49.88022" lon="2.00448">
        <ele>58.1</ele>
        <time>2023-05-03T14:37:46Z</time>
      </trkpt>
      <trkpt lat="49.88022" lon="2.00445">
        <ele>58.1</ele>
        <time>2023-05-03T14:37:47Z</time>
      </trkpt>
      <trkpt lat="49.88021" lon="2.00444">
        <ele>58.1</ele>
        <time>2023-05-03T14:37:48Z</time>
      </trkpt>
      <trkpt lat="49.88021" lon="2.00443">
        <ele>58.1</ele>
        <time>2023-05-03T14:37:49Z</time>
      </trkpt>
      <trkpt lat="49.8802" lon="2.00439">
        <ele>58.2</ele>
        <time>2023-05-03T14:37:50Z</time>
      </trkpt>
      <trkpt lat="49.88019" lon="2.00438">
        <ele>58.2</ele>
        <time>2023-05-03T14:37:51Z</time>
      </trkpt>
      <trkpt lat="49.88019" lon="2.00437">
        <ele>58.2</ele>
        <time>2023-05-03T14:37:52Z</time>
      </trkpt>
      <trkpt lat="49.88018" lon="2.00434">
        <ele>58.2</ele>
        <time>2023-05-03T14:37:54Z</time>
      </trkpt>
      <trkpt lat="49.88018" lon="2.00433">
        <ele>58.2</ele>
        <time>2023-05-03T14:37:55Z</time>
      </trkpt>
      <trkpt lat="49.88017" lon="2.00431">
        <ele>58.2</ele>
        <time>2023-05-03T14:37:56Z</time>
      </trkpt>
      <trkpt lat="49.88016" lon="2.00428">
        <ele>58.3</ele>
        <time>2023-05-03T14:37:57Z</time>
      </trkpt>
      <trkpt lat="49.88016" lon="2.00427">
        <ele>58.3</ele>
        <time>2023-05-03T14:37:58Z</time>
      </trkpt>
      <trkpt lat="49.88015" lon="2.00426">
        <ele>58.3</ele>
        <time>2023-05-03T14:37:59Z</time>
      </trkpt>
      <trkpt lat="49.88014" lon="2.00423">
        <ele>58.3</ele>
        <time>2023-05-03T14:38:00Z</time>
      </trkpt>
      <trkpt lat="49.88014" lon="2.00422">
        <ele>58.3</ele>
        <time>2023-05-03T14:38:01Z</time>
      </trkpt>
      <trkpt lat="49.88013" lon="2.0042">
        <ele>58.3</ele>
        <time>2023-05-03T14:38:02Z</time>
      </trkpt>
      <trkpt lat="49.88012" lon="2.00417">
        <ele>58.4</ele>
        <time>2023-05-03T14:38:04Z</time>
      </trkpt>
      <trkpt lat="49.88012" lon="2.00416">
        <ele>58.4</ele>
        <time>2023-05-03T14:38:05Z</time>
      </trkpt>
      <trkpt lat="49.88012" lon="2.00415">
        <ele>58.4</ele>
        <time>2023-05-03T14:38:06Z</time>
      </trkpt>
      <trkpt lat="49.88011" lon="2.00412">
        <ele>58.4</ele>
        <time>2023-05-03T14:38:07Z</time>
      </trkpt>
      <trkpt lat="49.8801" lon="2.00411">
        <ele>58.4</ele>
        <time>2023-05-03T14:38:08Z</time>
      </trkpt>
      <trkpt lat="49.8801" lon="2.0041">
        <ele>58.4</ele>
        <time>2023-05-03T14:38:09Z</time>
      </trkpt>
      <trkpt lat="49.88009" lon="2.00408">
        <ele>58.5</ele>
        <time>2023-05-03T14:38:10Z</time>
      </trkpt>
      <trkpt lat="49.88008" lon="2.00406">
        <ele>58.5</ele>
        <time>2023-05-03T14:38:11Z</time>
      </trkpt>
      <trkpt lat="49.88007" lon="2.00403">
        <ele>58.5</ele>
        <time>2023-05-03T14:38:13Z</time>
      </trkpt>
      <trkpt lat="49.88006" lon="2.004">
        <ele>58.6</ele>
        <time>2023-05-03T14:38:14Z</time>
      </trkpt>
      <trkpt lat="49.88005" lon="2.00399">
        <ele>58.6</ele>
        <time>2023-05-03T14:38:16Z</time>
      </trkpt>
      <trkpt lat="49.88005" lon="2.00397">
        <ele>58.6</ele>
        <time>2023-05-03T14:38:17Z</time>
      </trkpt>
      <trkpt lat="49.88004" lon="2.00396">
        <ele>58.6</ele>
        <time>2023-05-03T14:38:18Z</time>
      </trkpt>
      <trkpt lat="49.88003" lon="2.00394">
        <ele>58.6</ele>
        <time>2023-05-03T14:38:19Z</time>
      </trkpt>
      <trkpt lat="49.88002" lon="2.00392">
        <ele>58.7</ele>
        <time>2023-05-03T14:38:20Z</time>
      </trkpt>
      <trkpt lat="49.88002" lon="2.0039">
        <ele>58.7</ele>
        <time>2023-05-03T14:38:21Z</time>
      </trkpt>
      <trkpt lat="49.88001" lon="2.00389">
        <ele>58.7</ele>
        <time>2023-05-03T14:38:22Z</time>
      </trkpt>
      <trkpt lat="49.88" lon="2.00387">
        <ele>58.7</ele>
        <time>2023-05-03T14:38:23Z</time>
      </trkpt>
      <trkpt lat="49.88" lon="2.00386">
        <ele>58.7</ele>
        <time>2023-05-03T14:38:24Z</time>
      </trkpt>
      <trkpt lat="49.87999" lon="2.00384">
        <ele>58.8</ele>
        <time>2023-05-03T14:38:26Z</time>
      </trkpt>
      <trkpt lat="49.87998" lon="2.00381">
        <ele>58.8</ele>
        <time>2023-05-03T14:38:27Z</time>
      </trkpt>
      <trkpt lat="49.87997" lon="2.0038">
        <ele>58.8</ele>
        <time>2023-05-03T14:38:28Z</time>
      </trkpt>
      <trkpt lat="49.87997" lon="2.00379">
        <ele>58.8</ele>
        <time>2023-05-03T14:38:29Z</time>
      </trkpt>
      <trkpt lat="49.87996" lon="2.00377">
        <ele>58.8</ele>
        <time>2023-05-03T14:38:30Z</time>
      </trkpt>
      <trkpt lat="49.87996" lon="2.00376">
        <ele>58.9</ele>
        <time>2023-05-03T14:38:31Z</time>
      </trkpt>
      <trkpt lat="49.87995" lon="2.00373">
        <ele>58.9</ele>
        <time>2023-05-03T14:38:33Z</time>
      </trkpt>
      <trkpt lat="49.87994" lon="2.00372">
        <ele>58.9</ele>
        <time>2023-05-03T14:38:34Z</time>
      </trkpt>
      <trkpt lat="49.87994" lon="2.00371">
        <ele>58.9</ele>
        <time>2023-05-03T14:38:35Z</time>
      </trkpt>
      <trkpt lat="49.87993" lon="2.0037">
        <ele>58.9</ele>
        <time>2023-05-03T14:38:36Z</time>
      </trkpt>
      <trkpt lat="49.87993" lon="2.00369">
        <ele>59</ele>
        <time>2023-05-03T14:38:38Z</time>
      </trkpt>
      <trkpt lat="49.87992" lon="2.00367">
        <ele>59</ele>
        <time>2023-05-03T14:38:39Z</time>
      </trkpt>
      <trkpt lat="49.87992" lon="2.00366">
        <ele>59</ele>
        <time>2023-05-03T14:38:40Z</time>
      </trkpt>
      <trkpt lat="49.87991" lon="2.00364">
        <ele>59</ele>
        <time>2023-05-03T14:38:41Z</time>
      </trkpt>
      <trkpt lat="49.87991" lon="2.00363">
        <ele>59.1</ele>
        <time>2023-05-03T14:38:42Z</time>
      </trkpt>
      <trkpt lat="49.87991" lon="2.00361">
        <ele>59.1</ele>
        <time>2023-05-03T14:38:43Z</time>
      </trkpt>
      <trkpt lat="49.8799" lon="2.00359">
        <ele>59.1</ele>
        <time>2023-05-03T14:38:44Z</time>
      </trkpt>
      <trkpt lat="49.8799" lon="2.00358">
        <ele>59.1</ele>
        <time>2023-05-03T14:38:45Z</time>
      </trkpt>
      <trkpt lat="49.8799" lon="2.00356">
        <ele>59.2</ele>
        <time>2023-05-03T14:38:46Z</time>
      </trkpt>
      <trkpt lat="49.87989" lon="2.00354">
        <ele>59.2</ele>
        <time>2023-05-03T14:38:47Z</time>
      </trkpt>
      <trkpt lat="49.87989" lon="2.00352">
        <ele>59.3</ele>
        <time>2023-05-03T14:38:49Z</time>
      </trkpt>
      <trkpt lat="49.87988" lon="2.0035">
        <ele>59.3</ele>
        <time>2023-05-03T14:38:50Z</time>
      </trkpt>
      <trkpt lat="49.87988" lon="2.00348">
        <ele>59.3</ele>
        <time>2023-05-03T14:38:52Z</time>
      </trkpt>
      <trkpt lat="49.87987" lon="2.00346">
        <ele>59.4</ele>
        <time>2023-05-03T14:38:53Z</time>
      </trkpt>
      <trkpt lat="49.87987" lon="2.00344">
        <ele>59.4</ele>
        <time>2023-05-03T14:38:54Z</time>
      </trkpt>
      <trkpt lat="49.87986" lon="2.00343">
        <ele>59.4</ele>
        <time>2023-05-03T14:38:55Z</time>
      </trkpt>
      <trkpt lat="49.87986" lon="2.00341">
        <ele>59.5</ele>
        <time>2023-05-03T14:38:56Z</time>
      </trkpt>
      <trkpt lat="49.87985" lon="2.00338">
        <ele>59.5</ele>
        <time>2023-05-03T14:38:58Z</time>
      </trkpt>
      <trkpt lat="49.87984" lon="2.00337">
        <ele>59.5</ele>
        <time>2023-05-03T14:38:59Z</time>
      </trkpt>
      <trkpt lat="49.87984" lon="2.00336">
        <ele>59.6</ele>
        <time>2023-05-03T14:39:00Z</time>
      </trkpt>
      <trkpt lat="49.87983" lon="2.00334">
        <ele>59.6</ele>
        <time>2023-05-03T14:39:02Z</time>
      </trkpt>
      <trkpt lat="49.87982" lon="2.00333">
        <ele>59.6</ele>
        <time>2023-05-03T14:39:03Z</time>
      </trkpt>
      <trkpt lat="49.87982" lon="2.00331">
        <ele>59.7</ele>
        <time>2023-05-03T14:39:04Z</time>
      </trkpt>
      <trkpt lat="49.87981" lon="2.0033">
        <ele>59.7</ele>
        <time>2023-05-03T14:39:05Z</time>
      </trkpt>
      <trkpt lat="49.8798" lon="2.00327">
        <ele>59.7</ele>
        <time>2023-05-03T14:39:06Z</time>
      </trkpt>
      <trkpt lat="49.87979" lon="2.00326">
        <ele>59.8</ele>
        <time>2023-05-03T14:39:07Z</time>
      </trkpt>
      <trkpt lat="49.87979" lon="2.00325">
        <ele>59.8</ele>
        <time>2023-05-03T14:39:08Z</time>
      </trkpt>
      <trkpt lat="49.87978" lon="2.00323">
        <ele>59.8</ele>
        <time>2023-05-03T14:39:09Z</time>
      </trkpt>
      <trkpt lat="49.87977" lon="2.00321">
        <ele>59.9</ele>
        <time>2023-05-03T14:39:11Z</time>
      </trkpt>
      <trkpt lat="49.87977" lon="2.00319">
        <ele>59.9</ele>
        <time>2023-05-03T14:39:12Z</time>
      </trkpt>
      <trkpt lat="49.87976" lon="2.00318">
        <ele>59.9</ele>
        <time>2023-05-03T14:39:13Z</time>
      </trkpt>
      <trkpt lat="49.87975" lon="2.00316">
        <ele>59.9</ele>
        <time>2023-05-03T14:39:14Z</time>
      </trkpt>
      <trkpt lat="49.87975" lon="2.00313">
        <ele>60</ele>
        <time>2023-05-03T14:39:15Z</time>
      </trkpt>
      <trkpt lat="49.87974" lon="2.00312">
        <ele>60</ele>
        <time>2023-05-03T14:39:17Z</time>
      </trkpt>
      <trkpt lat="49.87974" lon="2.00311">
        <ele>60</ele>
        <time>2023-05-03T14:39:18Z</time>
      </trkpt>
      <trkpt lat="49.87973" lon="2.00309">
        <ele>60.1</ele>
        <time>2023-05-03T14:39:19Z</time>
      </trkpt>
      <trkpt lat="49.87973" lon="2.00307">
        <ele>60.1</ele>
        <time>2023-05-03T14:39:20Z</time>
      </trkpt>
      <trkpt lat="49.87972" lon="2.00304">
        <ele>60.2</ele>
        <time>2023-05-03T14:39:21Z</time>
      </trkpt>
      <trkpt lat="49.87972" lon="2.00302">
        <ele>60.2</ele>
        <time>2023-05-03T14:39:22Z</time>
      </trkpt>
      <trkpt lat="49.87971" lon="2.00301">
        <ele>60.2</ele>
        <time>2023-05-03T14:39:23Z</time>
      </trkpt>
      <trkpt lat="49.87971" lon="2.00299">
        <ele>60.2</ele>
        <time>2023-05-03T14:39:25Z</time>
      </trkpt>
      <trkpt lat="49.8797" lon="2.00297">
        <ele>60.3</ele>
        <time>2023-05-03T14:39:26Z</time>
      </trkpt>
      <trkpt lat="49.87969" lon="2.00294">
        <ele>60.3</ele>
        <time>2023-05-03T14:39:27Z</time>
      </trkpt>
      <trkpt lat="49.87969" lon="2.00293">
        <ele>60.4</ele>
        <time>2023-05-03T14:39:28Z</time>
      </trkpt>
      <trkpt lat="49.87968" lon="2.00291">
        <ele>60.4</ele>
        <time>2023-05-03T14:39:29Z</time>
      </trkpt>
      <trkpt lat="49.87968" lon="2.00289">
        <ele>60.4</ele>
        <time>2023-05-03T14:39:30Z</time>
      </trkpt>
      <trkpt lat="49.87967" lon="2.00287">
        <ele>60.5</ele>
        <time>2023-05-03T14:39:31Z</time>
      </trkpt>
      <trkpt lat="49.87966" lon="2.00284">
        <ele>60.5</ele>
        <time>2023-05-03T14:39:33Z</time>
      </trkpt>
      <trkpt lat="49.87966" lon="2.00282">
        <ele>60.6</ele>
        <time>2023-05-03T14:39:34Z</time>
      </trkpt>
      <trkpt lat="49.87966" lon="2.0028">
        <ele>60.6</ele>
        <time>2023-05-03T14:39:35Z</time>
      </trkpt>
      <trkpt lat="49.87965" lon="2.00278">
        <ele>60.7</ele>
        <time>2023-05-03T14:39:36Z</time>
      </trkpt>
      <trkpt lat="49.87965" lon="2.00276">
        <ele>60.7</ele>
        <time>2023-05-03T14:39:37Z</time>
      </trkpt>
      <trkpt lat="49.87964" lon="2.00274">
        <ele>60.8</ele>
        <time>2023-05-03T14:39:38Z</time>
      </trkpt>
      <trkpt lat="49.87964" lon="2.00271">
        <ele>60.8</ele>
        <time>2023-05-03T14:39:39Z</time>
      </trkpt>
      <trkpt lat="49.87963" lon="2.00269">
        <ele>60.9</ele>
        <time>2023-05-03T14:39:40Z</time>
      </trkpt>
      <trkpt lat="49.87962" lon="2.00266">
        <ele>60.9</ele>
        <time>2023-05-03T14:39:41Z</time>
      </trkpt>
      <trkpt lat="49.87962" lon="2.00264">
        <ele>61</ele>
        <time>2023-05-03T14:39:43Z</time>
      </trkpt>
      <trkpt lat="49.87962" lon="2.00262">
        <ele>61</ele>
        <time>2023-05-03T14:39:44Z</time>
      </trkpt>
      <trkpt lat="49.87961" lon="2.00261">
        <ele>61</ele>
        <time>2023-05-03T14:39:45Z</time>
      </trkpt>
      <trkpt lat="49.87961" lon="2.00259">
        <ele>61.1</ele>
        <time>2023-05-03T14:39:46Z</time>
      </trkpt>
      <trkpt lat="49.8796" lon="2.00257">
        <ele>61.1</ele>
        <time>2023-05-03T14:39:47Z</time>
      </trkpt>
      <trkpt lat="49.8796" lon="2.00255">
        <ele>61.2</ele>
        <time>2023-05-03T14:39:48Z</time>
      </trkpt>
      <trkpt lat="49.87959" lon="2.00253">
        <ele>61.2</ele>
        <time>2023-05-03T14:39:49Z</time>
      </trkpt>
      <trkpt lat="49.87959" lon="2.00251">
        <ele>61.3</ele>
        <time>2023-05-03T14:39:50Z</time>
      </trkpt>
      <trkpt lat="49.87958" lon="2.00249">
        <ele>61.3</ele>
        <time>2023-05-03T14:39:52Z</time>
      </trkpt>
      <trkpt lat="49.87957" lon="2.00246">
        <ele>61.4</ele>
        <time>2023-05-03T14:39:53Z</time>
      </trkpt>
      <trkpt lat="49.87957" lon="2.00245">
        <ele>61.4</ele>
        <time>2023-05-03T14:39:54Z</time>
      </trkpt>
      <trkpt lat="49.87957" lon="2.00244">
        <ele>61.4</ele>
        <time>2023-05-03T14:39:55Z</time>
      </trkpt>
      <trkpt lat="49.87956" lon="2.00241">
        <ele>61.5</ele>
        <time>2023-05-03T14:39:56Z</time>
      </trkpt>
      <trkpt lat="49.87955" lon="2.0024">
        <ele>61.5</ele>
        <time>2023-05-03T14:39:57Z</time>
      </trkpt>
      <trkpt lat="49.87955" lon="2.00239">
        <ele>61.5</ele>
        <time>2023-05-03T14:39:58Z</time>
      </trkpt>
      <trkpt lat="49.87955" lon="2.00237">
        <ele>61.5</ele>
        <time>2023-05-03T14:39:59Z</time>
      </trkpt>
      <trkpt lat="49.87954" lon="2.00235">
        <ele>61.5</ele>
        <time>2023-05-03T14:40:00Z</time>
      </trkpt>
      <trkpt lat="49.87954" lon="2.00233">
        <ele>61.5</ele>
        <time>2023-05-03T14:40:02Z</time>
      </trkpt>
      <trkpt lat="49.87953" lon="2.00232">
        <ele>61.6</ele>
        <time>2023-05-03T14:40:03Z</time>
      </trkpt>
      <trkpt lat="49.87953" lon="2.0023">
        <ele>61.6</ele>
        <time>2023-05-03T14:40:04Z</time>
      </trkpt>
      <trkpt lat="49.87952" lon="2.00229">
        <ele>61.6</ele>
        <time>2023-05-03T14:40:05Z</time>
      </trkpt>
      <trkpt lat="49.87952" lon="2.00227">
        <ele>61.6</ele>
        <time>2023-05-03T14:40:06Z</time>
      </trkpt>
      <trkpt lat="49.87952" lon="2.00226">
        <ele>61.6</ele>
        <time>2023-05-03T14:40:07Z</time>
      </trkpt>
      <trkpt lat="49.87951" lon="2.00223">
        <ele>61.6</ele>
        <time>2023-05-03T14:40:09Z</time>
      </trkpt>
      <trkpt lat="49.87951" lon="2.00221">
        <ele>61.6</ele>
        <time>2023-05-03T14:40:10Z</time>
      </trkpt>
      <trkpt lat="49.8795" lon="2.00219">
        <ele>61.6</ele>
        <time>2023-05-03T14:40:11Z</time>
      </trkpt>
      <trkpt lat="49.87949" lon="2.00215">
        <ele>61.5</ele>
        <time>2023-05-03T14:40:12Z</time>
      </trkpt>
      <trkpt lat="49.87949" lon="2.00214">
        <ele>61.5</ele>
        <time>2023-05-03T14:40:14Z</time>
      </trkpt>
      <trkpt lat="49.87948" lon="2.00212">
        <ele>61.5</ele>
        <time>2023-05-03T14:40:15Z</time>
      </trkpt>
      <trkpt lat="49.87948" lon="2.00211">
        <ele>61.5</ele>
        <time>2023-05-03T14:40:16Z</time>
      </trkpt>
      <trkpt lat="49.87948" lon="2.00209">
        <ele>61.5</ele>
        <time>2023-05-03T14:40:17Z</time>
      </trkpt>
      <trkpt lat="49.87947" lon="2.00207">
        <ele>61.5</ele>
        <time>2023-05-03T14:40:18Z</time>
      </trkpt>
      <trkpt lat="49.87947" lon="2.00205">
        <ele>61.5</ele>
        <time>2023-05-03T14:40:19Z</time>
      </trkpt>
      <trkpt lat="49.87946" lon="2.00203">
        <ele>61.5</ele>
        <time>2023-05-03T14:40:20Z</time>
      </trkpt>
      <trkpt lat="49.87945" lon="2.00201">
        <ele>61.5</ele>
        <time>2023-05-03T14:40:21Z</time>
      </trkpt>
      <trkpt lat="49.87944" lon="2.00198">
        <ele>61.5</ele>
        <time>2023-05-03T14:40:22Z</time>
      </trkpt>
      <trkpt lat="49.87943" lon="2.00196">
        <ele>61.5</ele>
        <time>2023-05-03T14:40:24Z</time>
      </trkpt>
      <trkpt lat="49.87943" lon="2.00194">
        <ele>61.5</ele>
        <time>2023-05-03T14:40:25Z</time>
      </trkpt>
      <trkpt lat="49.87942" lon="2.00193">
        <ele>61.5</ele>
        <time>2023-05-03T14:40:27Z</time>
      </trkpt>
      <trkpt lat="49.87942" lon="2.00191">
        <ele>61.5</ele>
        <time>2023-05-03T14:40:28Z</time>
      </trkpt>
      <trkpt lat="49.87941" lon="2.00189">
        <ele>61.5</ele>
        <time>2023-05-03T14:40:29Z</time>
      </trkpt>
      <trkpt lat="49.8794" lon="2.00187">
        <ele>61.5</ele>
        <time>2023-05-03T14:40:30Z</time>
      </trkpt>
      <trkpt lat="49.87939" lon="2.00185">
        <ele>61.5</ele>
        <time>2023-05-03T14:40:31Z</time>
      </trkpt>
      <trkpt lat="49.87939" lon="2.00184">
        <ele>61.5</ele>
        <time>2023-05-03T14:40:32Z</time>
      </trkpt>
      <trkpt lat="49.87938" lon="2.00183">
        <ele>61.5</ele>
        <time>2023-05-03T14:40:33Z</time>
      </trkpt>
      <trkpt lat="49.87937" lon="2.0018">
        <ele>61.5</ele>
        <time>2023-05-03T14:40:34Z</time>
      </trkpt>
      <trkpt lat="49.87937" lon="2.00179">
        <ele>61.5</ele>
        <time>2023-05-03T14:40:35Z</time>
      </trkpt>
      <trkpt lat="49.87936" lon="2.00177">
        <ele>61.5</ele>
        <time>2023-05-03T14:40:36Z</time>
      </trkpt>
      <trkpt lat="49.87935" lon="2.00174">
        <ele>61.5</ele>
        <time>2023-05-03T14:40:37Z</time>
      </trkpt>
      <trkpt lat="49.87934" lon="2.00173">
        <ele>61.5</ele>
        <time>2023-05-03T14:40:39Z</time>
      </trkpt>
      <trkpt lat="49.87934" lon="2.00172">
        <ele>61.5</ele>
        <time>2023-05-03T14:40:40Z</time>
      </trkpt>
      <trkpt lat="49.87933" lon="2.00171">
        <ele>61.5</ele>
        <time>2023-05-03T14:40:41Z</time>
      </trkpt>
      <trkpt lat="49.87933" lon="2.00169">
        <ele>61.5</ele>
        <time>2023-05-03T14:40:42Z</time>
      </trkpt>
      <trkpt lat="49.87932" lon="2.00166">
        <ele>61.5</ele>
        <time>2023-05-03T14:40:43Z</time>
      </trkpt>
      <trkpt lat="49.87931" lon="2.00165">
        <ele>61.5</ele>
        <time>2023-05-03T14:40:44Z</time>
      </trkpt>
      <trkpt lat="49.87931" lon="2.00164">
        <ele>61.5</ele>
        <time>2023-05-03T14:40:45Z</time>
      </trkpt>
      <trkpt lat="49.8793" lon="2.00162">
        <ele>61.5</ele>
        <time>2023-05-03T14:40:46Z</time>
      </trkpt>
      <trkpt lat="49.8793" lon="2.0016">
        <ele>61.5</ele>
        <time>2023-05-03T14:40:47Z</time>
      </trkpt>
      <trkpt lat="49.87929" lon="2.00157">
        <ele>61.5</ele>
        <time>2023-05-03T14:40:49Z</time>
      </trkpt>
      <trkpt lat="49.87929" lon="2.00155">
        <ele>61.5</ele>
        <time>2023-05-03T14:40:50Z</time>
      </trkpt>
      <trkpt lat="49.87928" lon="2.00152">
        <ele>61.5</ele>
        <time>2023-05-03T14:40:51Z</time>
      </trkpt>
      <trkpt lat="49.87928" lon="2.0015">
        <ele>61.4</ele>
        <time>2023-05-03T14:40:52Z</time>
      </trkpt>
      <trkpt lat="49.87927" lon="2.00148">
        <ele>61.4</ele>
        <time>2023-05-03T14:40:54Z</time>
      </trkpt>
      <trkpt lat="49.87927" lon="2.00146">
        <ele>61.4</ele>
        <time>2023-05-03T14:40:55Z</time>
      </trkpt>
      <trkpt lat="49.87926" lon="2.00143">
        <ele>61.4</ele>
        <time>2023-05-03T14:40:56Z</time>
      </trkpt>
      <trkpt lat="49.87926" lon="2.00141">
        <ele>61.4</ele>
        <time>2023-05-03T14:40:57Z</time>
      </trkpt>
      <trkpt lat="49.87926" lon="2.00139">
        <ele>61.4</ele>
        <time>2023-05-03T14:40:58Z</time>
      </trkpt>
      <trkpt lat="49.87925" lon="2.00136">
        <ele>61.4</ele>
        <time>2023-05-03T14:41:00Z</time>
      </trkpt>
      <trkpt lat="49.87925" lon="2.00134">
        <ele>61.4</ele>
        <time>2023-05-03T14:41:01Z</time>
      </trkpt>
      <trkpt lat="49.87924" lon="2.00132">
        <ele>61.4</ele>
        <time>2023-05-03T14:41:02Z</time>
      </trkpt>
      <trkpt lat="49.87924" lon="2.0013">
        <ele>61.4</ele>
        <time>2023-05-03T14:41:03Z</time>
      </trkpt>
      <trkpt lat="49.87923" lon="2.00128">
        <ele>61.4</ele>
        <time>2023-05-03T14:41:04Z</time>
      </trkpt>
      <trkpt lat="49.87923" lon="2.00126">
        <ele>61.4</ele>
        <time>2023-05-03T14:41:05Z</time>
      </trkpt>
      <trkpt lat="49.87922" lon="2.00123">
        <ele>61.4</ele>
        <time>2023-05-03T14:41:06Z</time>
      </trkpt>
      <trkpt lat="49.87922" lon="2.00122">
        <ele>61.4</ele>
        <time>2023-05-03T14:41:07Z</time>
      </trkpt>
      <trkpt lat="49.87922" lon="2.00121">
        <ele>61.4</ele>
        <time>2023-05-03T14:41:08Z</time>
      </trkpt>
      <trkpt lat="49.87921" lon="2.00118">
        <ele>61.4</ele>
        <time>2023-05-03T14:41:10Z</time>
      </trkpt>
      <trkpt lat="49.87921" lon="2.00116">
        <ele>61.4</ele>
        <time>2023-05-03T14:41:11Z</time>
      </trkpt>
      <trkpt lat="49.8792" lon="2.00114">
        <ele>61.4</ele>
        <time>2023-05-03T14:41:12Z</time>
      </trkpt>
      <trkpt lat="49.8792" lon="2.00112">
        <ele>61.4</ele>
        <time>2023-05-03T14:41:13Z</time>
      </trkpt>
      <trkpt lat="49.87919" lon="2.0011">
        <ele>61.4</ele>
        <time>2023-05-03T14:41:15Z</time>
      </trkpt>
      <trkpt lat="49.87919" lon="2.00108">
        <ele>61.4</ele>
        <time>2023-05-03T14:41:16Z</time>
      </trkpt>
      <trkpt lat="49.87918" lon="2.00106">
        <ele>61.4</ele>
        <time>2023-05-03T14:41:17Z</time>
      </trkpt>
      <trkpt lat="49.87917" lon="2.00103">
        <ele>61.4</ele>
        <time>2023-05-03T14:41:18Z</time>
      </trkpt>
      <trkpt lat="49.87917" lon="2.00102">
        <ele>61.4</ele>
        <time>2023-05-03T14:41:19Z</time>
      </trkpt>
      <trkpt lat="49.87917" lon="2.00101">
        <ele>61.4</ele>
        <time>2023-05-03T14:41:20Z</time>
      </trkpt>
      <trkpt lat="49.87916" lon="2.00099">
        <ele>61.4</ele>
        <time>2023-05-03T14:41:21Z</time>
      </trkpt>
      <trkpt lat="49.87916" lon="2.00097">
        <ele>61.4</ele>
        <time>2023-05-03T14:41:22Z</time>
      </trkpt>
      <trkpt lat="49.87915" lon="2.00094">
        <ele>61.4</ele>
        <time>2023-05-03T14:41:24Z</time>
      </trkpt>
      <trkpt lat="49.87914" lon="2.00092">
        <ele>61.4</ele>
        <time>2023-05-03T14:41:26Z</time>
      </trkpt>
      <trkpt lat="49.87914" lon="2.0009">
        <ele>61.4</ele>
        <time>2023-05-03T14:41:27Z</time>
      </trkpt>
      <trkpt lat="49.87913" lon="2.00087">
        <ele>61.5</ele>
        <time>2023-05-03T14:41:28Z</time>
      </trkpt>
      <trkpt lat="49.87913" lon="2.00086">
        <ele>61.5</ele>
        <time>2023-05-03T14:41:29Z</time>
      </trkpt>
      <trkpt lat="49.87913" lon="2.00085">
        <ele>61.5</ele>
        <time>2023-05-03T14:41:30Z</time>
      </trkpt>
      <trkpt lat="49.87913" lon="2.00082">
        <ele>61.5</ele>
        <time>2023-05-03T14:41:31Z</time>
      </trkpt>
      <trkpt lat="49.87912" lon="2.0008">
        <ele>61.5</ele>
        <time>2023-05-03T14:41:32Z</time>
      </trkpt>
      <trkpt lat="49.87912" lon="2.00078">
        <ele>61.5</ele>
        <time>2023-05-03T14:41:33Z</time>
      </trkpt>
      <trkpt lat="49.87912" lon="2.00076">
        <ele>61.5</ele>
        <time>2023-05-03T14:41:35Z</time>
      </trkpt>
      <trkpt lat="49.87911" lon="2.00073">
        <ele>61.5</ele>
        <time>2023-05-03T14:41:36Z</time>
      </trkpt>
      <trkpt lat="49.87911" lon="2.00071">
        <ele>61.5</ele>
        <time>2023-05-03T14:41:37Z</time>
      </trkpt>
      <trkpt lat="49.87911" lon="2.00069">
        <ele>61.5</ele>
        <time>2023-05-03T14:41:38Z</time>
      </trkpt>
      <trkpt lat="49.8791" lon="2.00066">
        <ele>61.5</ele>
        <time>2023-05-03T14:41:40Z</time>
      </trkpt>
      <trkpt lat="49.8791" lon="2.00064">
        <ele>61.5</ele>
        <time>2023-05-03T14:41:41Z</time>
      </trkpt>
      <trkpt lat="49.87909" lon="2.00062">
        <ele>61.6</ele>
        <time>2023-05-03T14:41:42Z</time>
      </trkpt>
      <trkpt lat="49.87909" lon="2.0006">
        <ele>61.6</ele>
        <time>2023-05-03T14:41:44Z</time>
      </trkpt>
      <trkpt lat="49.87908" lon="2.00058">
        <ele>61.6</ele>
        <time>2023-05-03T14:41:45Z</time>
      </trkpt>
      <trkpt lat="49.87907" lon="2.00055">
        <ele>61.6</ele>
        <time>2023-05-03T14:41:46Z</time>
      </trkpt>
      <trkpt lat="49.87907" lon="2.00053">
        <ele>61.6</ele>
        <time>2023-05-03T14:41:48Z</time>
      </trkpt>
      <trkpt lat="49.87906" lon="2.00051">
        <ele>61.7</ele>
        <time>2023-05-03T14:41:49Z</time>
      </trkpt>
      <trkpt lat="49.87906" lon="2.00049">
        <ele>61.7</ele>
        <time>2023-05-03T14:41:50Z</time>
      </trkpt>
      <trkpt lat="49.87905" lon="2.00047">
        <ele>61.7</ele>
        <time>2023-05-03T14:41:51Z</time>
      </trkpt>
      <trkpt lat="49.87904" lon="2.00044">
        <ele>61.7</ele>
        <time>2023-05-03T14:41:52Z</time>
      </trkpt>
      <trkpt lat="49.87904" lon="2.00043">
        <ele>61.7</ele>
        <time>2023-05-03T14:41:53Z</time>
      </trkpt>
      <trkpt lat="49.87904" lon="2.00042">
        <ele>61.8</ele>
        <time>2023-05-03T14:41:54Z</time>
      </trkpt>
      <trkpt lat="49.87903" lon="2.00038">
        <ele>61.8</ele>
        <time>2023-05-03T14:41:55Z</time>
      </trkpt>
      <trkpt lat="49.87902" lon="2.00036">
        <ele>61.8</ele>
        <time>2023-05-03T14:41:57Z</time>
      </trkpt>
      <trkpt lat="49.87902" lon="2.00034">
        <ele>61.8</ele>
        <time>2023-05-03T14:41:58Z</time>
      </trkpt>
      <trkpt lat="49.87901" lon="2.00033">
        <ele>61.9</ele>
        <time>2023-05-03T14:42:00Z</time>
      </trkpt>
      <trkpt lat="49.87901" lon="2.00031">
        <ele>61.9</ele>
        <time>2023-05-03T14:42:01Z</time>
      </trkpt>
      <trkpt lat="49.879" lon="2.00029">
        <ele>61.9</ele>
        <time>2023-05-03T14:42:02Z</time>
      </trkpt>
      <trkpt lat="49.879" lon="2.00027">
        <ele>61.9</ele>
        <time>2023-05-03T14:42:03Z</time>
      </trkpt>
      <trkpt lat="49.879" lon="2.00025">
        <ele>61.9</ele>
        <time>2023-05-03T14:42:04Z</time>
      </trkpt>
      <trkpt lat="49.87899" lon="2.00023">
        <ele>62</ele>
        <time>2023-05-03T14:42:05Z</time>
      </trkpt>
      <trkpt lat="49.87899" lon="2.0002">
        <ele>62</ele>
        <time>2023-05-03T14:42:07Z</time>
      </trkpt>
      <trkpt lat="49.87898" lon="2.00017">
        <ele>62</ele>
        <time>2023-05-03T14:42:08Z</time>
      </trkpt>
      <trkpt lat="49.87898" lon="2.00015">
        <ele>62.1</ele>
        <time>2023-05-03T14:42:10Z</time>
      </trkpt>
      <trkpt lat="49.87898" lon="2.00013">
        <ele>62.1</ele>
        <time>2023-05-03T14:42:11Z</time>
      </trkpt>
      <trkpt lat="49.87897" lon="2.00012">
        <ele>62.1</ele>
        <time>2023-05-03T14:42:12Z</time>
      </trkpt>
      <trkpt lat="49.87897" lon="2.0001">
        <ele>62.1</ele>
        <time>2023-05-03T14:42:13Z</time>
      </trkpt>
      <trkpt lat="49.87896" lon="2.00006">
        <ele>62.1</ele>
        <time>2023-05-03T14:42:15Z</time>
      </trkpt>
      <trkpt lat="49.87895" lon="2.00005">
        <ele>62.2</ele>
        <time>2023-05-03T14:42:16Z</time>
      </trkpt>
      <trkpt lat="49.87894" lon="2.00002">
        <ele>62.2</ele>
        <time>2023-05-03T14:42:17Z</time>
      </trkpt>
      <trkpt lat="49.87894" lon="2">
        <ele>62.2</ele>
        <time>2023-05-03T14:42:19Z</time>
      </trkpt>
      <trkpt lat="49.87893" lon="1.99998">
        <ele>62.2</ele>
        <time>2023-05-03T14:42:20Z</time>
      </trkpt>
      <trkpt lat="49.87893" lon="1.99997">
        <ele>62.2</ele>
        <time>2023-05-03T14:42:21Z</time>
      </trkpt>
      <trkpt lat="49.87892" lon="1.99993">
        <ele>62.2</ele>
        <time>2023-05-03T14:42:22Z</time>
      </trkpt>
      <trkpt lat="49.87892" lon="1.99992">
        <ele>62.2</ele>
        <time>2023-05-03T14:42:23Z</time>
      </trkpt>
      <trkpt lat="49.87892" lon="1.99991">
        <ele>62.2</ele>
        <time>2023-05-03T14:42:24Z</time>
      </trkpt>
      <trkpt lat="49.87891" lon="1.99988">
        <ele>62.2</ele>
        <time>2023-05-03T14:42:25Z</time>
      </trkpt>
      <trkpt lat="49.87891" lon="1.99986">
        <ele>62.2</ele>
        <time>2023-05-03T14:42:26Z</time>
      </trkpt>
      <trkpt lat="49.87891" lon="1.99984">
        <ele>62.2</ele>
        <time>2023-05-03T14:42:27Z</time>
      </trkpt>
      <trkpt lat="49.8789" lon="1.99982">
        <ele>62.2</ele>
        <time>2023-05-03T14:42:28Z</time>
      </trkpt>
      <trkpt lat="49.8789" lon="1.99979">
        <ele>62.2</ele>
        <time>2023-05-03T14:42:30Z</time>
      </trkpt>
      <trkpt lat="49.87889" lon="1.99978">
        <ele>62.2</ele>
        <time>2023-05-03T14:42:31Z</time>
      </trkpt>
      <trkpt lat="49.87889" lon="1.99976">
        <ele>62.2</ele>
        <time>2023-05-03T14:42:32Z</time>
      </trkpt>
      <trkpt lat="49.87889" lon="1.99973">
        <ele>62.2</ele>
        <time>2023-05-03T14:42:33Z</time>
      </trkpt>
      <trkpt lat="49.87889" lon="1.99972">
        <ele>62.2</ele>
        <time>2023-05-03T14:42:34Z</time>
      </trkpt>
      <trkpt lat="49.87889" lon="1.9997">
        <ele>62.1</ele>
        <time>2023-05-03T14:42:35Z</time>
      </trkpt>
      <trkpt lat="49.87888" lon="1.99968">
        <ele>62.1</ele>
        <time>2023-05-03T14:42:36Z</time>
      </trkpt>
      <trkpt lat="49.87888" lon="1.99966">
        <ele>62.1</ele>
        <time>2023-05-03T14:42:37Z</time>
      </trkpt>
      <trkpt lat="49.87888" lon="1.99964">
        <ele>62.1</ele>
        <time>2023-05-03T14:42:38Z</time>
      </trkpt>
      <trkpt lat="49.87888" lon="1.99962">
        <ele>62.1</ele>
        <time>2023-05-03T14:42:39Z</time>
      </trkpt>
      <trkpt lat="49.87888" lon="1.99959">
        <ele>62.1</ele>
        <time>2023-05-03T14:42:40Z</time>
      </trkpt>
      <trkpt lat="49.87888" lon="1.99957">
        <ele>62.1</ele>
        <time>2023-05-03T14:42:42Z</time>
      </trkpt>
      <trkpt lat="49.87888" lon="1.99956">
        <ele>62</ele>
        <time>2023-05-03T14:42:43Z</time>
      </trkpt>
      <trkpt lat="49.87887" lon="1.99954">
        <ele>62</ele>
        <time>2023-05-03T14:42:44Z</time>
      </trkpt>
      <trkpt lat="49.87887" lon="1.99952">
        <ele>62</ele>
        <time>2023-05-03T14:42:45Z</time>
      </trkpt>
      <trkpt lat="49.87887" lon="1.99951">
        <ele>62</ele>
        <time>2023-05-03T14:42:46Z</time>
      </trkpt>
      <trkpt lat="49.87887" lon="1.99948">
        <ele>62</ele>
        <time>2023-05-03T14:42:48Z</time>
      </trkpt>
      <trkpt lat="49.87887" lon="1.99946">
        <ele>62</ele>
        <time>2023-05-03T14:42:49Z</time>
      </trkpt>
      <trkpt lat="49.87887" lon="1.99944">
        <ele>62</ele>
        <time>2023-05-03T14:42:50Z</time>
      </trkpt>
      <trkpt lat="49.87887" lon="1.99942">
        <ele>61.9</ele>
        <time>2023-05-03T14:42:51Z</time>
      </trkpt>
      <trkpt lat="49.87887" lon="1.99939">
        <ele>61.9</ele>
        <time>2023-05-03T14:42:53Z</time>
      </trkpt>
      <trkpt lat="49.87887" lon="1.99937">
        <ele>61.9</ele>
        <time>2023-05-03T14:42:54Z</time>
      </trkpt>
      <trkpt lat="49.87887" lon="1.99935">
        <ele>62</ele>
        <time>2023-05-03T14:42:56Z</time>
      </trkpt>
      <trkpt lat="49.87887" lon="1.99933">
        <ele>62.1</ele>
        <time>2023-05-03T14:42:57Z</time>
      </trkpt>
      <trkpt lat="49.87887" lon="1.99931">
        <ele>62.2</ele>
        <time>2023-05-03T14:42:58Z</time>
      </trkpt>
      <trkpt lat="49.87888" lon="1.9993">
        <ele>62.3</ele>
        <time>2023-05-03T14:43:00Z</time>
      </trkpt>
      <trkpt lat="49.87888" lon="1.99928">
        <ele>62.4</ele>
        <time>2023-05-03T14:43:01Z</time>
      </trkpt>
      <trkpt lat="49.87888" lon="1.99926">
        <ele>62.4</ele>
        <time>2023-05-03T14:43:02Z</time>
      </trkpt>
      <trkpt lat="49.87888" lon="1.99924">
        <ele>62.5</ele>
        <time>2023-05-03T14:43:03Z</time>
      </trkpt>
      <trkpt lat="49.87888" lon="1.99923">
        <ele>62.6</ele>
        <time>2023-05-03T14:43:04Z</time>
      </trkpt>
      <trkpt lat="49.87888" lon="1.99921">
        <ele>62.7</ele>
        <time>2023-05-03T14:43:05Z</time>
      </trkpt>
      <trkpt lat="49.87888" lon="1.99919">
        <ele>62.8</ele>
        <time>2023-05-03T14:43:06Z</time>
      </trkpt>
      <trkpt lat="49.87888" lon="1.99917">
        <ele>62.9</ele>
        <time>2023-05-03T14:43:07Z</time>
      </trkpt>
      <trkpt lat="49.87888" lon="1.99915">
        <ele>63</ele>
        <time>2023-05-03T14:43:08Z</time>
      </trkpt>
      <trkpt lat="49.87888" lon="1.99913">
        <ele>63.1</ele>
        <time>2023-05-03T14:43:10Z</time>
      </trkpt>
      <trkpt lat="49.87888" lon="1.99911">
        <ele>63.2</ele>
        <time>2023-05-03T14:43:11Z</time>
      </trkpt>
      <trkpt lat="49.87888" lon="1.99909">
        <ele>63.3</ele>
        <time>2023-05-03T14:43:12Z</time>
      </trkpt>
      <trkpt lat="49.87888" lon="1.99907">
        <ele>63.3</ele>
        <time>2023-05-03T14:43:13Z</time>
      </trkpt>
      <trkpt lat="49.87888" lon="1.99906">
        <ele>63.4</ele>
        <time>2023-05-03T14:43:14Z</time>
      </trkpt>
      <trkpt lat="49.87888" lon="1.99904">
        <ele>63.5</ele>
        <time>2023-05-03T14:43:15Z</time>
      </trkpt>
      <trkpt lat="49.87889" lon="1.99902">
        <ele>63.6</ele>
        <time>2023-05-03T14:43:17Z</time>
      </trkpt>
      <trkpt lat="49.87889" lon="1.999">
        <ele>63.7</ele>
        <time>2023-05-03T14:43:19Z</time>
      </trkpt>
      <trkpt lat="49.87889" lon="1.99899">
        <ele>63.8</ele>
        <time>2023-05-03T14:43:20Z</time>
      </trkpt>
      <trkpt lat="49.87889" lon="1.99897">
        <ele>63.8</ele>
        <time>2023-05-03T14:43:21Z</time>
      </trkpt>
      <trkpt lat="49.87889" lon="1.99896">
        <ele>63.9</ele>
        <time>2023-05-03T14:43:22Z</time>
      </trkpt>
      <trkpt lat="49.87889" lon="1.99894">
        <ele>64</ele>
        <time>2023-05-03T14:43:24Z</time>
      </trkpt>
      <trkpt lat="49.87889" lon="1.99893">
        <ele>64</ele>
        <time>2023-05-03T14:43:25Z</time>
      </trkpt>
      <trkpt lat="49.8789" lon="1.99892">
        <ele>64.1</ele>
        <time>2023-05-03T14:43:26Z</time>
      </trkpt>
      <trkpt lat="49.8789" lon="1.9989">
        <ele>64.2</ele>
        <time>2023-05-03T14:43:27Z</time>
      </trkpt>
      <trkpt lat="49.8789" lon="1.99889">
        <ele>64.2</ele>
        <time>2023-05-03T14:43:29Z</time>
      </trkpt>
      <trkpt lat="49.8789" lon="1.99888">
        <ele>64.3</ele>
        <time>2023-05-03T14:43:30Z</time>
      </trkpt>
      <trkpt lat="49.87891" lon="1.99886">
        <ele>64.4</ele>
        <time>2023-05-03T14:43:32Z</time>
      </trkpt>
      <trkpt lat="49.87892" lon="1.99886">
        <ele>64.4</ele>
        <time>2023-05-03T14:43:33Z</time>
      </trkpt>
      <trkpt lat="49.87892" lon="1.99886">
        <ele>64.5</ele>
        <time>2023-05-03T14:43:34Z</time>
      </trkpt>
      <trkpt lat="49.87893" lon="1.99886">
        <ele>64.5</ele>
        <time>2023-05-03T14:43:35Z</time>
      </trkpt>
      <trkpt lat="49.87895" lon="1.99886">
        <ele>64.6</ele>
        <time>2023-05-03T14:43:37Z</time>
      </trkpt>
      <trkpt lat="49.87896" lon="1.99887">
        <ele>64.7</ele>
        <time>2023-05-03T14:43:38Z</time>
      </trkpt>
      <trkpt lat="49.87897" lon="1.99889">
        <ele>64.9</ele>
        <time>2023-05-03T14:43:40Z</time>
      </trkpt>
      <trkpt lat="49.87898" lon="1.9989">
        <ele>65</ele>
        <time>2023-05-03T14:43:42Z</time>
      </trkpt>
      <trkpt lat="49.87899" lon="1.99892">
        <ele>65</ele>
        <time>2023-05-03T14:43:43Z</time>
      </trkpt>
      <trkpt lat="49.87899" lon="1.99893">
        <ele>65</ele>
        <time>2023-05-03T14:43:44Z</time>
      </trkpt>
      <trkpt lat="49.879" lon="1.99894">
        <ele>65</ele>
        <time>2023-05-03T14:43:45Z</time>
      </trkpt>
      <trkpt lat="49.87901" lon="1.99897">
        <ele>65.1</ele>
        <time>2023-05-03T14:43:46Z</time>
      </trkpt>
      <trkpt lat="49.87901" lon="1.99898">
        <ele>65.1</ele>
        <time>2023-05-03T14:43:48Z</time>
      </trkpt>
      <trkpt lat="49.87902" lon="1.99901">
        <ele>65.1</ele>
        <time>2023-05-03T14:43:49Z</time>
      </trkpt>
      <trkpt lat="49.87902" lon="1.99903">
        <ele>65.1</ele>
        <time>2023-05-03T14:43:51Z</time>
      </trkpt>
      <trkpt lat="49.87903" lon="1.99904">
        <ele>65.1</ele>
        <time>2023-05-03T14:43:52Z</time>
      </trkpt>
      <trkpt lat="49.87904" lon="1.99908">
        <ele>65.1</ele>
        <time>2023-05-03T14:43:53Z</time>
      </trkpt>
      <trkpt lat="49.87904" lon="1.99909">
        <ele>65.1</ele>
        <time>2023-05-03T14:43:54Z</time>
      </trkpt>
      <trkpt lat="49.87905" lon="1.9991">
        <ele>65.1</ele>
        <time>2023-05-03T14:43:55Z</time>
      </trkpt>
      <trkpt lat="49.87905" lon="1.99912">
        <ele>65.1</ele>
        <time>2023-05-03T14:43:56Z</time>
      </trkpt>
      <trkpt lat="49.87906" lon="1.99913">
        <ele>65.1</ele>
        <time>2023-05-03T14:43:58Z</time>
      </trkpt>
      <trkpt lat="49.87907" lon="1.99915">
        <ele>65.1</ele>
        <time>2023-05-03T14:43:59Z</time>
      </trkpt>
      <trkpt lat="49.87907" lon="1.99917">
        <ele>65.1</ele>
        <time>2023-05-03T14:44:00Z</time>
      </trkpt>
      <trkpt lat="49.87908" lon="1.99918">
        <ele>65.1</ele>
        <time>2023-05-03T14:44:01Z</time>
      </trkpt>
      <trkpt lat="49.87909" lon="1.99921">
        <ele>65.1</ele>
        <time>2023-05-03T14:44:02Z</time>
      </trkpt>
      <trkpt lat="49.87909" lon="1.99922">
        <ele>65.1</ele>
        <time>2023-05-03T14:44:03Z</time>
      </trkpt>
      <trkpt lat="49.8791" lon="1.99923">
        <ele>65.1</ele>
        <time>2023-05-03T14:44:04Z</time>
      </trkpt>
      <trkpt lat="49.87911" lon="1.99926">
        <ele>65.1</ele>
        <time>2023-05-03T14:44:05Z</time>
      </trkpt>
      <trkpt lat="49.87911" lon="1.99928">
        <ele>65.1</ele>
        <time>2023-05-03T14:44:07Z</time>
      </trkpt>
      <trkpt lat="49.87912" lon="1.99929">
        <ele>65.1</ele>
        <time>2023-05-03T14:44:08Z</time>
      </trkpt>
      <trkpt lat="49.87912" lon="1.9993">
        <ele>65.1</ele>
        <time>2023-05-03T14:44:09Z</time>
      </trkpt>
      <trkpt lat="49.87913" lon="1.99932">
        <ele>65.1</ele>
        <time>2023-05-03T14:44:10Z</time>
      </trkpt>
      <trkpt lat="49.87913" lon="1.99934">
        <ele>65.1</ele>
        <time>2023-05-03T14:44:11Z</time>
      </trkpt>
      <trkpt lat="49.87914" lon="1.99937">
        <ele>65.1</ele>
        <time>2023-05-03T14:44:12Z</time>
      </trkpt>
      <trkpt lat="49.87915" lon="1.99938">
        <ele>65.1</ele>
        <time>2023-05-03T14:44:14Z</time>
      </trkpt>
      <trkpt lat="49.87915" lon="1.99939">
        <ele>65.1</ele>
        <time>2023-05-03T14:44:15Z</time>
      </trkpt>
      <trkpt lat="49.87916" lon="1.99942">
        <ele>65.1</ele>
        <time>2023-05-03T14:44:16Z</time>
      </trkpt>
      <trkpt lat="49.87917" lon="1.99943">
        <ele>65.1</ele>
        <time>2023-05-03T14:44:17Z</time>
      </trkpt>
      <trkpt lat="49.87917" lon="1.99944">
        <ele>65.1</ele>
        <time>2023-05-03T14:44:18Z</time>
      </trkpt>
      <trkpt lat="49.87918" lon="1.99947">
        <ele>65.1</ele>
        <time>2023-05-03T14:44:20Z</time>
      </trkpt>
      <trkpt lat="49.87918" lon="1.99949">
        <ele>65.1</ele>
        <time>2023-05-03T14:44:21Z</time>
      </trkpt>
      <trkpt lat="49.87919" lon="1.99951">
        <ele>65.1</ele>
        <time>2023-05-03T14:44:22Z</time>
      </trkpt>
      <trkpt lat="49.87919" lon="1.99953">
        <ele>65.1</ele>
        <time>2023-05-03T14:44:23Z</time>
      </trkpt>
      <trkpt lat="49.8792" lon="1.99955">
        <ele>65.1</ele>
        <time>2023-05-03T14:44:25Z</time>
      </trkpt>
      <trkpt lat="49.87921" lon="1.99958">
        <ele>65.1</ele>
        <time>2023-05-03T14:44:26Z</time>
      </trkpt>
      <trkpt lat="49.87921" lon="1.99959">
        <ele>65.1</ele>
        <time>2023-05-03T14:44:27Z</time>
      </trkpt>
      <trkpt lat="49.87922" lon="1.9996">
        <ele>65.1</ele>
        <time>2023-05-03T14:44:28Z</time>
      </trkpt>
      <trkpt lat="49.87923" lon="1.99963">
        <ele>65.1</ele>
        <time>2023-05-03T14:44:29Z</time>
      </trkpt>
      <trkpt lat="49.87923" lon="1.99964">
        <ele>65.1</ele>
        <time>2023-05-03T14:44:30Z</time>
      </trkpt>
      <trkpt lat="49.87924" lon="1.99965">
        <ele>65.1</ele>
        <time>2023-05-03T14:44:31Z</time>
      </trkpt>
      <trkpt lat="49.87925" lon="1.99967">
        <ele>65.1</ele>
        <time>2023-05-03T14:44:33Z</time>
      </trkpt>
      <trkpt lat="49.87925" lon="1.99969">
        <ele>65.1</ele>
        <time>2023-05-03T14:44:34Z</time>
      </trkpt>
      <trkpt lat="49.87926" lon="1.99971">
        <ele>65.1</ele>
        <time>2023-05-03T14:44:35Z</time>
      </trkpt>
      <trkpt lat="49.87927" lon="1.99973">
        <ele>65.1</ele>
        <time>2023-05-03T14:44:36Z</time>
      </trkpt>
      <trkpt lat="49.87927" lon="1.99974">
        <ele>65.1</ele>
        <time>2023-05-03T14:44:37Z</time>
      </trkpt>
      <trkpt lat="49.87928" lon="1.99976">
        <ele>65.2</ele>
        <time>2023-05-03T14:44:38Z</time>
      </trkpt>
      <trkpt lat="49.87929" lon="1.9998">
        <ele>65.2</ele>
        <time>2023-05-03T14:44:39Z</time>
      </trkpt>
      <trkpt lat="49.8793" lon="1.99981">
        <ele>65.2</ele>
        <time>2023-05-03T14:44:41Z</time>
      </trkpt>
      <trkpt lat="49.8793" lon="1.99982">
        <ele>65.2</ele>
        <time>2023-05-03T14:44:42Z</time>
      </trkpt>
      <trkpt lat="49.87931" lon="1.99984">
        <ele>65.2</ele>
        <time>2023-05-03T14:44:43Z</time>
      </trkpt>
      <trkpt lat="49.87931" lon="1.99985">
        <ele>65.2</ele>
        <time>2023-05-03T14:44:44Z</time>
      </trkpt>
      <trkpt lat="49.87931" lon="1.99987">
        <ele>65.2</ele>
        <time>2023-05-03T14:44:45Z</time>
      </trkpt>
      <trkpt lat="49.87932" lon="1.99989">
        <ele>65.2</ele>
        <time>2023-05-03T14:44:46Z</time>
      </trkpt>
      <trkpt lat="49.87932" lon="1.99991">
        <ele>65.2</ele>
        <time>2023-05-03T14:44:48Z</time>
      </trkpt>
      <trkpt lat="49.87933" lon="1.99994">
        <ele>65.2</ele>
        <time>2023-05-03T14:44:49Z</time>
      </trkpt>
      <trkpt lat="49.87933" lon="1.99995">
        <ele>65.2</ele>
        <time>2023-05-03T14:44:50Z</time>
      </trkpt>
      <trkpt lat="49.87934" lon="1.99996">
        <ele>65.2</ele>
        <time>2023-05-03T14:44:51Z</time>
      </trkpt>
      <trkpt lat="49.87934" lon="2">
        <ele>65.2</ele>
        <time>2023-05-03T14:44:52Z</time>
      </trkpt>
      <trkpt lat="49.87934" lon="2.00001">
        <ele>65.2</ele>
        <time>2023-05-03T14:44:53Z</time>
      </trkpt>
      <trkpt lat="49.87935" lon="2.00003">
        <ele>65.2</ele>
        <time>2023-05-03T14:44:54Z</time>
      </trkpt>
      <trkpt lat="49.87935" lon="2.00005">
        <ele>65.2</ele>
        <time>2023-05-03T14:44:56Z</time>
      </trkpt>
      <trkpt lat="49.87935" lon="2.00007">
        <ele>65.2</ele>
        <time>2023-05-03T14:44:57Z</time>
      </trkpt>
      <trkpt lat="49.87936" lon="2.0001">
        <ele>65.2</ele>
        <time>2023-05-03T14:44:58Z</time>
      </trkpt>
      <trkpt lat="49.87936" lon="2.00011">
        <ele>65.2</ele>
        <time>2023-05-03T14:44:59Z</time>
      </trkpt>
      <trkpt lat="49.87937" lon="2.00012">
        <ele>65.2</ele>
        <time>2023-05-03T14:45:00Z</time>
      </trkpt>
      <trkpt lat="49.87937" lon="2.00015">
        <ele>65.2</ele>
        <time>2023-05-03T14:45:01Z</time>
      </trkpt>
      <trkpt lat="49.87938" lon="2.00017">
        <ele>65.2</ele>
        <time>2023-05-03T14:45:02Z</time>
      </trkpt>
      <trkpt lat="49.87938" lon="2.00018">
        <ele>65.2</ele>
        <time>2023-05-03T14:45:03Z</time>
      </trkpt>
      <trkpt lat="49.87939" lon="2.0002">
        <ele>65.2</ele>
        <time>2023-05-03T14:45:05Z</time>
      </trkpt>
      <trkpt lat="49.87939" lon="2.00021">
        <ele>65.2</ele>
        <time>2023-05-03T14:45:06Z</time>
      </trkpt>
      <trkpt lat="49.87939" lon="2.00023">
        <ele>65.2</ele>
        <time>2023-05-03T14:45:07Z</time>
      </trkpt>
      <trkpt lat="49.8794" lon="2.00025">
        <ele>65.2</ele>
        <time>2023-05-03T14:45:08Z</time>
      </trkpt>
      <trkpt lat="49.87941" lon="2.00027">
        <ele>65.2</ele>
        <time>2023-05-03T14:45:09Z</time>
      </trkpt>
      <trkpt lat="49.87941" lon="2.00028">
        <ele>65.2</ele>
        <time>2023-05-03T14:45:10Z</time>
      </trkpt>
      <trkpt lat="49.87941" lon="2.00029">
        <ele>65.2</ele>
        <time>2023-05-03T14:45:12Z</time>
      </trkpt>
      <trkpt lat="49.87942" lon="2.00031">
        <ele>65.2</ele>
        <time>2023-05-03T14:45:13Z</time>
      </trkpt>
      <trkpt lat="49.87942" lon="2.00033">
        <ele>65.2</ele>
        <time>2023-05-03T14:45:14Z</time>
      </trkpt>
      <trkpt lat="49.87943" lon="2.00036">
        <ele>65.2</ele>
        <time>2023-05-03T14:45:15Z</time>
      </trkpt>
      <trkpt lat="49.87943" lon="2.00037">
        <ele>65.2</ele>
        <time>2023-05-03T14:45:16Z</time>
      </trkpt>
      <trkpt lat="49.87943" lon="2.00038">
        <ele>65.2</ele>
        <time>2023-05-03T14:45:17Z</time>
      </trkpt>
      <trkpt lat="49.87944" lon="2.0004">
        <ele>65.2</ele>
        <time>2023-05-03T14:45:18Z</time>
      </trkpt>
      <trkpt lat="49.87944" lon="2.00042">
        <ele>65.2</ele>
        <time>2023-05-03T14:45:20Z</time>
      </trkpt>
      <trkpt lat="49.87944" lon="2.00043">
        <ele>65.2</ele>
        <time>2023-05-03T14:45:21Z</time>
      </trkpt>
      <trkpt lat="49.87945" lon="2.00044">
        <ele>65.2</ele>
        <time>2023-05-03T14:45:22Z</time>
      </trkpt>
      <trkpt lat="49.87945" lon="2.00046">
        <ele>65.2</ele>
        <time>2023-05-03T14:45:23Z</time>
      </trkpt>
      <trkpt lat="49.87946" lon="2.00048">
        <ele>65.2</ele>
        <time>2023-05-03T14:45:24Z</time>
      </trkpt>
      <trkpt lat="49.87946" lon="2.0005">
        <ele>65.2</ele>
        <time>2023-05-03T14:45:25Z</time>
      </trkpt>
      <trkpt lat="49.87947" lon="2.00052">
        <ele>65.2</ele>
        <time>2023-05-03T14:45:26Z</time>
      </trkpt>
      <trkpt lat="49.87947" lon="2.00054">
        <ele>65.2</ele>
        <time>2023-05-03T14:45:28Z</time>
      </trkpt>
      <trkpt lat="49.87948" lon="2.00056">
        <ele>65.2</ele>
        <time>2023-05-03T14:45:29Z</time>
      </trkpt>
      <trkpt lat="49.87948" lon="2.00057">
        <ele>65.2</ele>
        <time>2023-05-03T14:45:30Z</time>
      </trkpt>
      <trkpt lat="49.87949" lon="2.00059">
        <ele>65.3</ele>
        <time>2023-05-03T14:45:31Z</time>
      </trkpt>
      <trkpt lat="49.87949" lon="2.00061">
        <ele>65.3</ele>
        <time>2023-05-03T14:45:32Z</time>
      </trkpt>
      <trkpt lat="49.8795" lon="2.00064">
        <ele>65.3</ele>
        <time>2023-05-03T14:45:34Z</time>
      </trkpt>
      <trkpt lat="49.87951" lon="2.00067">
        <ele>65.3</ele>
        <time>2023-05-03T14:45:36Z</time>
      </trkpt>
      <trkpt lat="49.87952" lon="2.00068">
        <ele>65.3</ele>
        <time>2023-05-03T14:45:37Z</time>
      </trkpt>
      <trkpt lat="49.87952" lon="2.0007">
        <ele>65.3</ele>
        <time>2023-05-03T14:45:38Z</time>
      </trkpt>
      <trkpt lat="49.87953" lon="2.00071">
        <ele>65.3</ele>
        <time>2023-05-03T14:45:40Z</time>
      </trkpt>
      <trkpt lat="49.87954" lon="2.00073">
        <ele>65.3</ele>
        <time>2023-05-03T14:45:41Z</time>
      </trkpt>
      <trkpt lat="49.87954" lon="2.00074">
        <ele>65.3</ele>
        <time>2023-05-03T14:45:42Z</time>
      </trkpt>
      <trkpt lat="49.87955" lon="2.00076">
        <ele>65.3</ele>
        <time>2023-05-03T14:45:43Z</time>
      </trkpt>
      <trkpt lat="49.87956" lon="2.00079">
        <ele>65.3</ele>
        <time>2023-05-03T14:45:44Z</time>
      </trkpt>
      <trkpt lat="49.87956" lon="2.0008">
        <ele>65.3</ele>
        <time>2023-05-03T14:45:45Z</time>
      </trkpt>
      <trkpt lat="49.87957" lon="2.00081">
        <ele>65.3</ele>
        <time>2023-05-03T14:45:46Z</time>
      </trkpt>
      <trkpt lat="49.87957" lon="2.00083">
        <ele>65.3</ele>
        <time>2023-05-03T14:45:48Z</time>
      </trkpt>
      <trkpt lat="49.87957" lon="2.00084">
        <ele>65.3</ele>
        <time>2023-05-03T14:45:49Z</time>
      </trkpt>
      <trkpt lat="49.87958" lon="2.00086">
        <ele>65.3</ele>
        <time>2023-05-03T14:45:50Z</time>
      </trkpt>
      <trkpt lat="49.87959" lon="2.00089">
        <ele>65.3</ele>
        <time>2023-05-03T14:45:51Z</time>
      </trkpt>
      <trkpt lat="49.87959" lon="2.0009">
        <ele>65.3</ele>
        <time>2023-05-03T14:45:52Z</time>
      </trkpt>
      <trkpt lat="49.8796" lon="2.00091">
        <ele>65.3</ele>
        <time>2023-05-03T14:45:53Z</time>
      </trkpt>
      <trkpt lat="49.87961" lon="2.00094">
        <ele>65.3</ele>
        <time>2023-05-03T14:45:54Z</time>
      </trkpt>
      <trkpt lat="49.87961" lon="2.00095">
        <ele>65.3</ele>
        <time>2023-05-03T14:45:56Z</time>
      </trkpt>
      <trkpt lat="49.87961" lon="2.00097">
        <ele>65.3</ele>
        <time>2023-05-03T14:45:57Z</time>
      </trkpt>
      <trkpt lat="49.87962" lon="2.00099">
        <ele>65.3</ele>
        <time>2023-05-03T14:45:58Z</time>
      </trkpt>
      <trkpt lat="49.87962" lon="2.00101">
        <ele>65.3</ele>
        <time>2023-05-03T14:45:59Z</time>
      </trkpt>
      <trkpt lat="49.87963" lon="2.00102">
        <ele>65.3</ele>
        <time>2023-05-03T14:46:00Z</time>
      </trkpt>
      <trkpt lat="49.87963" lon="2.00104">
        <ele>65.3</ele>
        <time>2023-05-03T14:46:01Z</time>
      </trkpt>
      <trkpt lat="49.87964" lon="2.00106">
        <ele>65.3</ele>
        <time>2023-05-03T14:46:02Z</time>
      </trkpt>
      <trkpt lat="49.87964" lon="2.00107">
        <ele>65.3</ele>
        <time>2023-05-03T14:46:04Z</time>
      </trkpt>
      <trkpt lat="49.87964" lon="2.00109">
        <ele>65.3</ele>
        <time>2023-05-03T14:46:05Z</time>
      </trkpt>
      <trkpt lat="49.87965" lon="2.0011">
        <ele>65.3</ele>
        <time>2023-05-03T14:46:06Z</time>
      </trkpt>
      <trkpt lat="49.87966" lon="2.00113">
        <ele>65.3</ele>
        <time>2023-05-03T14:46:07Z</time>
      </trkpt>
      <trkpt lat="49.87966" lon="2.00114">
        <ele>65.3</ele>
        <time>2023-05-03T14:46:08Z</time>
      </trkpt>
      <trkpt lat="49.87966" lon="2.00116">
        <ele>65.3</ele>
        <time>2023-05-03T14:46:09Z</time>
      </trkpt>
      <trkpt lat="49.87967" lon="2.00118">
        <ele>65.3</ele>
        <time>2023-05-03T14:46:11Z</time>
      </trkpt>
      <trkpt lat="49.87967" lon="2.00119">
        <ele>65.3</ele>
        <time>2023-05-03T14:46:12Z</time>
      </trkpt>
      <trkpt lat="49.87967" lon="2.00121">
        <ele>65.3</ele>
        <time>2023-05-03T14:46:13Z</time>
      </trkpt>
      <trkpt lat="49.87968" lon="2.00124">
        <ele>65.3</ele>
        <time>2023-05-03T14:46:14Z</time>
      </trkpt>
      <trkpt lat="49.87969" lon="2.00125">
        <ele>65.3</ele>
        <time>2023-05-03T14:46:15Z</time>
      </trkpt>
      <trkpt lat="49.87969" lon="2.00126">
        <ele>65.3</ele>
        <time>2023-05-03T14:46:16Z</time>
      </trkpt>
      <trkpt lat="49.8797" lon="2.00129">
        <ele>65.3</ele>
        <time>2023-05-03T14:46:17Z</time>
      </trkpt>
      <trkpt lat="49.87971" lon="2.0013">
        <ele>65.3</ele>
        <time>2023-05-03T14:46:19Z</time>
      </trkpt>
      <trkpt lat="49.87971" lon="2.00131">
        <ele>65.3</ele>
        <time>2023-05-03T14:46:20Z</time>
      </trkpt>
      <trkpt lat="49.87972" lon="2.00134">
        <ele>65.3</ele>
        <time>2023-05-03T14:46:21Z</time>
      </trkpt>
      <trkpt lat="49.87972" lon="2.00135">
        <ele>65.3</ele>
        <time>2023-05-03T14:46:22Z</time>
      </trkpt>
      <trkpt lat="49.87973" lon="2.00136">
        <ele>65.3</ele>
        <time>2023-05-03T14:46:23Z</time>
      </trkpt>
      <trkpt lat="49.87974" lon="2.00138">
        <ele>65.3</ele>
        <time>2023-05-03T14:46:25Z</time>
      </trkpt>
      <trkpt lat="49.87974" lon="2.00139">
        <ele>65.3</ele>
        <time>2023-05-03T14:46:26Z</time>
      </trkpt>
      <trkpt lat="49.87975" lon="2.0014">
        <ele>65.3</ele>
        <time>2023-05-03T14:46:27Z</time>
      </trkpt>
      <trkpt lat="49.87975" lon="2.00142">
        <ele>65.4</ele>
        <time>2023-05-03T14:46:28Z</time>
      </trkpt>
      <trkpt lat="49.87976" lon="2.00143">
        <ele>65.4</ele>
        <time>2023-05-03T14:46:29Z</time>
      </trkpt>
      <trkpt lat="49.87977" lon="2.00145">
        <ele>65.4</ele>
        <time>2023-05-03T14:46:30Z</time>
      </trkpt>
      <trkpt lat="49.87978" lon="2.00148">
        <ele>65.4</ele>
        <time>2023-05-03T14:46:31Z</time>
      </trkpt>
      <trkpt lat="49.87978" lon="2.00149">
        <ele>65.4</ele>
        <time>2023-05-03T14:46:32Z</time>
      </trkpt>
      <trkpt lat="49.87979" lon="2.0015">
        <ele>65.4</ele>
        <time>2023-05-03T14:46:33Z</time>
      </trkpt>
      <trkpt lat="49.87979" lon="2.00152">
        <ele>65.4</ele>
        <time>2023-05-03T14:46:34Z</time>
      </trkpt>
      <trkpt lat="49.8798" lon="2.00154">
        <ele>65.4</ele>
        <time>2023-05-03T14:46:36Z</time>
      </trkpt>
      <trkpt lat="49.87981" lon="2.00156">
        <ele>65.4</ele>
        <time>2023-05-03T14:46:37Z</time>
      </trkpt>
      <trkpt lat="49.87982" lon="2.00158">
        <ele>65.4</ele>
        <time>2023-05-03T14:46:38Z</time>
      </trkpt>
      <trkpt lat="49.87982" lon="2.0016">
        <ele>65.4</ele>
        <time>2023-05-03T14:46:40Z</time>
      </trkpt>
      <trkpt lat="49.87983" lon="2.00162">
        <ele>65.4</ele>
        <time>2023-05-03T14:46:41Z</time>
      </trkpt>
      <trkpt lat="49.87984" lon="2.00165">
        <ele>65.4</ele>
        <time>2023-05-03T14:46:42Z</time>
      </trkpt>
      <trkpt lat="49.87985" lon="2.00166">
        <ele>65.4</ele>
        <time>2023-05-03T14:46:43Z</time>
      </trkpt>
      <trkpt lat="49.87985" lon="2.00167">
        <ele>65.4</ele>
        <time>2023-05-03T14:46:44Z</time>
      </trkpt>
      <trkpt lat="49.87986" lon="2.00168">
        <ele>65.4</ele>
        <time>2023-05-03T14:46:45Z</time>
      </trkpt>
      <trkpt lat="49.87987" lon="2.0017">
        <ele>65.4</ele>
        <time>2023-05-03T14:46:47Z</time>
      </trkpt>
      <trkpt lat="49.87987" lon="2.00172">
        <ele>65.4</ele>
        <time>2023-05-03T14:46:48Z</time>
      </trkpt>
      <trkpt lat="49.87988" lon="2.00174">
        <ele>65.4</ele>
        <time>2023-05-03T14:46:49Z</time>
      </trkpt>
      <trkpt lat="49.87988" lon="2.00175">
        <ele>65.4</ele>
        <time>2023-05-03T14:46:50Z</time>
      </trkpt>
      <trkpt lat="49.87989" lon="2.00177">
        <ele>65.4</ele>
        <time>2023-05-03T14:46:51Z</time>
      </trkpt>
      <trkpt lat="49.87989" lon="2.00178">
        <ele>65.4</ele>
        <time>2023-05-03T14:46:52Z</time>
      </trkpt>
      <trkpt lat="49.8799" lon="2.00181">
        <ele>65.4</ele>
        <time>2023-05-03T14:46:54Z</time>
      </trkpt>
      <trkpt lat="49.87991" lon="2.00183">
        <ele>65.4</ele>
        <time>2023-05-03T14:46:55Z</time>
      </trkpt>
      <trkpt lat="49.87991" lon="2.00184">
        <ele>65.4</ele>
        <time>2023-05-03T14:46:56Z</time>
      </trkpt>
      <trkpt lat="49.87992" lon="2.00185">
        <ele>65.4</ele>
        <time>2023-05-03T14:46:57Z</time>
      </trkpt>
      <trkpt lat="49.87993" lon="2.00188">
        <ele>65.4</ele>
        <time>2023-05-03T14:46:58Z</time>
      </trkpt>
      <trkpt lat="49.87993" lon="2.0019">
        <ele>65.4</ele>
        <time>2023-05-03T14:46:59Z</time>
      </trkpt>
      <trkpt lat="49.87993" lon="2.00191">
        <ele>65.4</ele>
        <time>2023-05-03T14:47:00Z</time>
      </trkpt>
      <trkpt lat="49.87994" lon="2.00195">
        <ele>65.4</ele>
        <time>2023-05-03T14:47:01Z</time>
      </trkpt>
      <trkpt lat="49.87995" lon="2.00196">
        <ele>65.4</ele>
        <time>2023-05-03T14:47:03Z</time>
      </trkpt>
      <trkpt lat="49.87995" lon="2.00198">
        <ele>65.4</ele>
        <time>2023-05-03T14:47:04Z</time>
      </trkpt>
      <trkpt lat="49.87996" lon="2.002">
        <ele>65.4</ele>
        <time>2023-05-03T14:47:06Z</time>
      </trkpt>
      <trkpt lat="49.87996" lon="2.00201">
        <ele>65.4</ele>
        <time>2023-05-03T14:47:07Z</time>
      </trkpt>
      <trkpt lat="49.87997" lon="2.00203">
        <ele>65.4</ele>
        <time>2023-05-03T14:47:08Z</time>
      </trkpt>
      <trkpt lat="49.87997" lon="2.00205">
        <ele>65.4</ele>
        <time>2023-05-03T14:47:09Z</time>
      </trkpt>
      <trkpt lat="49.87998" lon="2.00208">
        <ele>65.4</ele>
        <time>2023-05-03T14:47:10Z</time>
      </trkpt>
      <trkpt lat="49.87998" lon="2.00209">
        <ele>65.4</ele>
        <time>2023-05-03T14:47:12Z</time>
      </trkpt>
      <trkpt lat="49.87999" lon="2.0021">
        <ele>65.4</ele>
        <time>2023-05-03T14:47:13Z</time>
      </trkpt>
      <trkpt lat="49.88" lon="2.00213">
        <ele>65.4</ele>
        <time>2023-05-03T14:47:14Z</time>
      </trkpt>
      <trkpt lat="49.88" lon="2.00214">
        <ele>65.4</ele>
        <time>2023-05-03T14:47:15Z</time>
      </trkpt>
      <trkpt lat="49.88001" lon="2.00215">
        <ele>65.4</ele>
        <time>2023-05-03T14:47:16Z</time>
      </trkpt>
      <trkpt lat="49.88001" lon="2.00216">
        <ele>65.4</ele>
        <time>2023-05-03T14:47:17Z</time>
      </trkpt>
      <trkpt lat="49.88002" lon="2.00219">
        <ele>65.4</ele>
        <time>2023-05-03T14:47:19Z</time>
      </trkpt>
      <trkpt lat="49.88003" lon="2.00221">
        <ele>65.4</ele>
        <time>2023-05-03T14:47:20Z</time>
      </trkpt>
      <trkpt lat="49.88003" lon="2.00223">
        <ele>65.5</ele>
        <time>2023-05-03T14:47:21Z</time>
      </trkpt>
      <trkpt lat="49.88004" lon="2.00224">
        <ele>65.5</ele>
        <time>2023-05-03T14:47:22Z</time>
      </trkpt>
      <trkpt lat="49.88005" lon="2.00226">
        <ele>65.5</ele>
        <time>2023-05-03T14:47:23Z</time>
      </trkpt>
      <trkpt lat="49.88005" lon="2.00227">
        <ele>65.5</ele>
        <time>2023-05-03T14:47:24Z</time>
      </trkpt>
      <trkpt lat="49.88006" lon="2.00229">
        <ele>65.5</ele>
        <time>2023-05-03T14:47:26Z</time>
      </trkpt>
      <trkpt lat="49.88006" lon="2.0023">
        <ele>65.5</ele>
        <time>2023-05-03T14:47:27Z</time>
      </trkpt>
      <trkpt lat="49.88007" lon="2.00232">
        <ele>65.5</ele>
        <time>2023-05-03T14:47:28Z</time>
      </trkpt>
      <trkpt lat="49.88007" lon="2.00234">
        <ele>65.5</ele>
        <time>2023-05-03T14:47:30Z</time>
      </trkpt>
      <trkpt lat="49.88007" lon="2.00236">
        <ele>65.5</ele>
        <time>2023-05-03T14:47:31Z</time>
      </trkpt>
      <trkpt lat="49.88008" lon="2.00237">
        <ele>65.5</ele>
        <time>2023-05-03T14:47:32Z</time>
      </trkpt>
      <trkpt lat="49.88008" lon="2.00238">
        <ele>65.5</ele>
        <time>2023-05-03T14:47:33Z</time>
      </trkpt>
      <trkpt lat="49.88008" lon="2.0024">
        <ele>65.5</ele>
        <time>2023-05-03T14:47:34Z</time>
      </trkpt>
      <trkpt lat="49.88009" lon="2.00241">
        <ele>65.5</ele>
        <time>2023-05-03T14:47:35Z</time>
      </trkpt>
      <trkpt lat="49.88009" lon="2.00243">
        <ele>65.5</ele>
        <time>2023-05-03T14:47:36Z</time>
      </trkpt>
      <trkpt lat="49.8801" lon="2.00244">
        <ele>65.5</ele>
        <time>2023-05-03T14:47:37Z</time>
      </trkpt>
      <trkpt lat="49.8801" lon="2.00245">
        <ele>65.5</ele>
        <time>2023-05-03T14:47:38Z</time>
      </trkpt>
      <trkpt lat="49.88011" lon="2.00247">
        <ele>65.5</ele>
        <time>2023-05-03T14:47:40Z</time>
      </trkpt>
      <trkpt lat="49.88012" lon="2.00249">
        <ele>65.5</ele>
        <time>2023-05-03T14:47:41Z</time>
      </trkpt>
      <trkpt lat="49.88012" lon="2.0025">
        <ele>65.5</ele>
        <time>2023-05-03T14:47:42Z</time>
      </trkpt>
      <trkpt lat="49.88013" lon="2.00252">
        <ele>65.5</ele>
        <time>2023-05-03T14:47:43Z</time>
      </trkpt>
      <trkpt lat="49.88014" lon="2.00254">
        <ele>65.5</ele>
        <time>2023-05-03T14:47:44Z</time>
      </trkpt>
      <trkpt lat="49.88015" lon="2.00256">
        <ele>65.5</ele>
        <time>2023-05-03T14:47:46Z</time>
      </trkpt>
      <trkpt lat="49.88015" lon="2.00257">
        <ele>65.5</ele>
        <time>2023-05-03T14:47:47Z</time>
      </trkpt>
      <trkpt lat="49.88016" lon="2.00258">
        <ele>65.5</ele>
        <time>2023-05-03T14:47:48Z</time>
      </trkpt>
      <trkpt lat="49.88017" lon="2.0026">
        <ele>65.5</ele>
        <time>2023-05-03T14:47:49Z</time>
      </trkpt>
      <trkpt lat="49.88018" lon="2.00261">
        <ele>65.5</ele>
        <time>2023-05-03T14:47:50Z</time>
      </trkpt>
      <trkpt lat="49.88018" lon="2.00262">
        <ele>65.5</ele>
        <time>2023-05-03T14:47:52Z</time>
      </trkpt>
      <trkpt lat="49.88019" lon="2.00264">
        <ele>65.5</ele>
        <time>2023-05-03T14:47:53Z</time>
      </trkpt>
      <trkpt lat="49.8802" lon="2.00265">
        <ele>65.5</ele>
        <time>2023-05-03T14:47:54Z</time>
      </trkpt>
      <trkpt lat="49.88021" lon="2.00266">
        <ele>65.5</ele>
        <time>2023-05-03T14:47:55Z</time>
      </trkpt>
      <trkpt lat="49.88021" lon="2.00267">
        <ele>65.5</ele>
        <time>2023-05-03T14:47:56Z</time>
      </trkpt>
      <trkpt lat="49.88023" lon="2.0027">
        <ele>65.5</ele>
        <time>2023-05-03T14:47:57Z</time>
      </trkpt>
      <trkpt lat="49.88023" lon="2.00271">
        <ele>65.5</ele>
        <time>2023-05-03T14:47:59Z</time>
      </trkpt>
      <trkpt lat="49.88024" lon="2.00272">
        <ele>65.5</ele>
        <time>2023-05-03T14:48:00Z</time>
      </trkpt>
      <trkpt lat="49.88024" lon="2.00273">
        <ele>65.5</ele>
        <time>2023-05-03T14:48:01Z</time>
      </trkpt>
      <trkpt lat="49.88025" lon="2.00275">
        <ele>65.5</ele>
        <time>2023-05-03T14:48:02Z</time>
      </trkpt>
      <trkpt lat="49.88025" lon="2.00276">
        <ele>65.5</ele>
        <time>2023-05-03T14:48:03Z</time>
      </trkpt>
      <trkpt lat="49.88026" lon="2.00279">
        <ele>65.5</ele>
        <time>2023-05-03T14:48:04Z</time>
      </trkpt>
      <trkpt lat="49.88027" lon="2.0028">
        <ele>65.5</ele>
        <time>2023-05-03T14:48:06Z</time>
      </trkpt>
      <trkpt lat="49.88027" lon="2.00281">
        <ele>65.5</ele>
        <time>2023-05-03T14:48:07Z</time>
      </trkpt>
      <trkpt lat="49.88028" lon="2.00283">
        <ele>65.5</ele>
        <time>2023-05-03T14:48:08Z</time>
      </trkpt>
      <trkpt lat="49.88028" lon="2.00284">
        <ele>65.5</ele>
        <time>2023-05-03T14:48:09Z</time>
      </trkpt>
      <trkpt lat="49.88029" lon="2.00286">
        <ele>65.5</ele>
        <time>2023-05-03T14:48:10Z</time>
      </trkpt>
      <trkpt lat="49.8803" lon="2.00287">
        <ele>65.5</ele>
        <time>2023-05-03T14:48:11Z</time>
      </trkpt>
      <trkpt lat="49.88031" lon="2.00289">
        <ele>65.5</ele>
        <time>2023-05-03T14:48:12Z</time>
      </trkpt>
      <trkpt lat="49.88032" lon="2.0029">
        <ele>65.5</ele>
        <time>2023-05-03T14:48:14Z</time>
      </trkpt>
      <trkpt lat="49.88033" lon="2.00292">
        <ele>65.5</ele>
        <time>2023-05-03T14:48:15Z</time>
      </trkpt>
      <trkpt lat="49.88033" lon="2.00293">
        <ele>65.5</ele>
        <time>2023-05-03T14:48:16Z</time>
      </trkpt>
      <trkpt lat="49.88034" lon="2.00294">
        <ele>65.5</ele>
        <time>2023-05-03T14:48:17Z</time>
      </trkpt>
      <trkpt lat="49.88035" lon="2.00297">
        <ele>65.6</ele>
        <time>2023-05-03T14:48:18Z</time>
      </trkpt>
      <trkpt lat="49.88036" lon="2.00298">
        <ele>65.6</ele>
        <time>2023-05-03T14:48:19Z</time>
      </trkpt>
      <trkpt lat="49.88037" lon="2.00299">
        <ele>65.6</ele>
        <time>2023-05-03T14:48:20Z</time>
      </trkpt>
      <trkpt lat="49.88037" lon="2.003">
        <ele>65.6</ele>
        <time>2023-05-03T14:48:22Z</time>
      </trkpt>
      <trkpt lat="49.88038" lon="2.00301">
        <ele>65.6</ele>
        <time>2023-05-03T14:48:23Z</time>
      </trkpt>
      <trkpt lat="49.88039" lon="2.00303">
        <ele>65.6</ele>
        <time>2023-05-03T14:48:24Z</time>
      </trkpt>
      <trkpt lat="49.8804" lon="2.00304">
        <ele>65.6</ele>
        <time>2023-05-03T14:48:25Z</time>
      </trkpt>
      <trkpt lat="49.8804" lon="2.00306">
        <ele>65.6</ele>
        <time>2023-05-03T14:48:26Z</time>
      </trkpt>
      <trkpt lat="49.88041" lon="2.00307">
        <ele>65.6</ele>
        <time>2023-05-03T14:48:27Z</time>
      </trkpt>
      <trkpt lat="49.88043" lon="2.00309">
        <ele>65.6</ele>
        <time>2023-05-03T14:48:28Z</time>
      </trkpt>
      <trkpt lat="49.88043" lon="2.0031">
        <ele>65.6</ele>
        <time>2023-05-03T14:48:30Z</time>
      </trkpt>
      <trkpt lat="49.88044" lon="2.00311">
        <ele>65.6</ele>
        <time>2023-05-03T14:48:31Z</time>
      </trkpt>
      <trkpt lat="49.88045" lon="2.00314">
        <ele>65.6</ele>
        <time>2023-05-03T14:48:32Z</time>
      </trkpt>
      <trkpt lat="49.88046" lon="2.00315">
        <ele>65.6</ele>
        <time>2023-05-03T14:48:33Z</time>
      </trkpt>
      <trkpt lat="49.88046" lon="2.00316">
        <ele>65.6</ele>
        <time>2023-05-03T14:48:34Z</time>
      </trkpt>
      <trkpt lat="49.88047" lon="2.00318">
        <ele>65.6</ele>
        <time>2023-05-03T14:48:35Z</time>
      </trkpt>
      <trkpt lat="49.88048" lon="2.00319">
        <ele>65.6</ele>
        <time>2023-05-03T14:48:36Z</time>
      </trkpt>
      <trkpt lat="49.88049" lon="2.00322">
        <ele>65.6</ele>
        <time>2023-05-03T14:48:37Z</time>
      </trkpt>
      <trkpt lat="49.8805" lon="2.00323">
        <ele>65.6</ele>
        <time>2023-05-03T14:48:39Z</time>
      </trkpt>
      <trkpt lat="49.8805" lon="2.00324">
        <ele>65.6</ele>
        <time>2023-05-03T14:48:40Z</time>
      </trkpt>
      <trkpt lat="49.88052" lon="2.00326">
        <ele>65.6</ele>
        <time>2023-05-03T14:48:41Z</time>
      </trkpt>
      <trkpt lat="49.88052" lon="2.00327">
        <ele>65.6</ele>
        <time>2023-05-03T14:48:42Z</time>
      </trkpt>
      <trkpt lat="49.88053" lon="2.00328">
        <ele>65.6</ele>
        <time>2023-05-03T14:48:43Z</time>
      </trkpt>
      <trkpt lat="49.88054" lon="2.0033">
        <ele>65.6</ele>
        <time>2023-05-03T14:48:44Z</time>
      </trkpt>
      <trkpt lat="49.88055" lon="2.00331">
        <ele>65.6</ele>
        <time>2023-05-03T14:48:46Z</time>
      </trkpt>
      <trkpt lat="49.88055" lon="2.00332">
        <ele>65.6</ele>
        <time>2023-05-03T14:48:47Z</time>
      </trkpt>
      <trkpt lat="49.88056" lon="2.00333">
        <ele>65.6</ele>
        <time>2023-05-03T14:48:48Z</time>
      </trkpt>
      <trkpt lat="49.88057" lon="2.00335">
        <ele>65.6</ele>
        <time>2023-05-03T14:48:49Z</time>
      </trkpt>
      <trkpt lat="49.88057" lon="2.00336">
        <ele>65.6</ele>
        <time>2023-05-03T14:48:50Z</time>
      </trkpt>
      <trkpt lat="49.88059" lon="2.00338">
        <ele>65.6</ele>
        <time>2023-05-03T14:48:51Z</time>
      </trkpt>
      <trkpt lat="49.88059" lon="2.0034">
        <ele>65.6</ele>
        <time>2023-05-03T14:48:52Z</time>
      </trkpt>
      <trkpt lat="49.8806" lon="2.00341">
        <ele>65.6</ele>
        <time>2023-05-03T14:48:53Z</time>
      </trkpt>
      <trkpt lat="49.88061" lon="2.00343">
        <ele>65.6</ele>
        <time>2023-05-03T14:48:55Z</time>
      </trkpt>
      <trkpt lat="49.88062" lon="2.00344">
        <ele>65.6</ele>
        <time>2023-05-03T14:48:56Z</time>
      </trkpt>
      <trkpt lat="49.88062" lon="2.00345">
        <ele>65.6</ele>
        <time>2023-05-03T14:48:57Z</time>
      </trkpt>
      <trkpt lat="49.88063" lon="2.00348">
        <ele>65.6</ele>
        <time>2023-05-03T14:48:58Z</time>
      </trkpt>
      <trkpt lat="49.88064" lon="2.00349">
        <ele>65.6</ele>
        <time>2023-05-03T14:48:59Z</time>
      </trkpt>
      <trkpt lat="49.88065" lon="2.0035">
        <ele>65.6</ele>
        <time>2023-05-03T14:49:00Z</time>
      </trkpt>
      <trkpt lat="49.88066" lon="2.00351">
        <ele>65.6</ele>
        <time>2023-05-03T14:49:02Z</time>
      </trkpt>
      <trkpt lat="49.88066" lon="2.00353">
        <ele>65.6</ele>
        <time>2023-05-03T14:49:03Z</time>
      </trkpt>
      <trkpt lat="49.88067" lon="2.00354">
        <ele>65.6</ele>
        <time>2023-05-03T14:49:04Z</time>
      </trkpt>
      <trkpt lat="49.88068" lon="2.00356">
        <ele>65.6</ele>
        <time>2023-05-03T14:49:05Z</time>
      </trkpt>
      <trkpt lat="49.88069" lon="2.00357">
        <ele>65.6</ele>
        <time>2023-05-03T14:49:06Z</time>
      </trkpt>
      <trkpt lat="49.8807" lon="2.00358">
        <ele>65.6</ele>
        <time>2023-05-03T14:49:07Z</time>
      </trkpt>
      <trkpt lat="49.88071" lon="2.0036">
        <ele>65.6</ele>
        <time>2023-05-03T14:49:08Z</time>
      </trkpt>
      <trkpt lat="49.88072" lon="2.00361">
        <ele>65.6</ele>
        <time>2023-05-03T14:49:10Z</time>
      </trkpt>
      <trkpt lat="49.88073" lon="2.00364">
        <ele>65.6</ele>
        <time>2023-05-03T14:49:11Z</time>
      </trkpt>
      <trkpt lat="49.88073" lon="2.00365">
        <ele>65.6</ele>
        <time>2023-05-03T14:49:12Z</time>
      </trkpt>
      <trkpt lat="49.88074" lon="2.00366">
        <ele>65.7</ele>
        <time>2023-05-03T14:49:13Z</time>
      </trkpt>
      <trkpt lat="49.88075" lon="2.00369">
        <ele>65.7</ele>
        <time>2023-05-03T14:49:14Z</time>
      </trkpt>
      <trkpt lat="49.88076" lon="2.0037">
        <ele>65.7</ele>
        <time>2023-05-03T14:49:15Z</time>
      </trkpt>
      <trkpt lat="49.88076" lon="2.00371">
        <ele>65.7</ele>
        <time>2023-05-03T14:49:16Z</time>
      </trkpt>
      <trkpt lat="49.88078" lon="2.00373">
        <ele>65.7</ele>
        <time>2023-05-03T14:49:18Z</time>
      </trkpt>
      <trkpt lat="49.88078" lon="2.00374">
        <ele>65.7</ele>
        <time>2023-05-03T14:49:19Z</time>
      </trkpt>
      <trkpt lat="49.88079" lon="2.00375">
        <ele>65.7</ele>
        <time>2023-05-03T14:49:20Z</time>
      </trkpt>
      <trkpt lat="49.8808" lon="2.00378">
        <ele>65.7</ele>
        <time>2023-05-03T14:49:21Z</time>
      </trkpt>
      <trkpt lat="49.88081" lon="2.00379">
        <ele>65.7</ele>
        <time>2023-05-03T14:49:22Z</time>
      </trkpt>
      <trkpt lat="49.88082" lon="2.0038">
        <ele>65.7</ele>
        <time>2023-05-03T14:49:23Z</time>
      </trkpt>
      <trkpt lat="49.88082" lon="2.00381">
        <ele>65.7</ele>
        <time>2023-05-03T14:49:25Z</time>
      </trkpt>
      <trkpt lat="49.88083" lon="2.00382">
        <ele>65.7</ele>
        <time>2023-05-03T14:49:26Z</time>
      </trkpt>
      <trkpt lat="49.88084" lon="2.00384">
        <ele>65.7</ele>
        <time>2023-05-03T14:49:27Z</time>
      </trkpt>
      <trkpt lat="49.88085" lon="2.00386">
        <ele>65.7</ele>
        <time>2023-05-03T14:49:28Z</time>
      </trkpt>
      <trkpt lat="49.88086" lon="2.00387">
        <ele>65.7</ele>
        <time>2023-05-03T14:49:29Z</time>
      </trkpt>
      <trkpt lat="49.88086" lon="2.00388">
        <ele>65.7</ele>
        <time>2023-05-03T14:49:30Z</time>
      </trkpt>
      <trkpt lat="49.88087" lon="2.00389">
        <ele>65.7</ele>
        <time>2023-05-03T14:49:32Z</time>
      </trkpt>
      <trkpt lat="49.88088" lon="2.00391">
        <ele>65.7</ele>
        <time>2023-05-03T14:49:33Z</time>
      </trkpt>
      <trkpt lat="49.88089" lon="2.00392">
        <ele>65.7</ele>
        <time>2023-05-03T14:49:34Z</time>
      </trkpt>
      <trkpt lat="49.8809" lon="2.00393">
        <ele>65.7</ele>
        <time>2023-05-03T14:49:35Z</time>
      </trkpt>
      <trkpt lat="49.8809" lon="2.00395">
        <ele>65.7</ele>
        <time>2023-05-03T14:49:36Z</time>
      </trkpt>
      <trkpt lat="49.88091" lon="2.00396">
        <ele>65.7</ele>
        <time>2023-05-03T14:49:37Z</time>
      </trkpt>
      <trkpt lat="49.88092" lon="2.00397">
        <ele>65.7</ele>
        <time>2023-05-03T14:49:38Z</time>
      </trkpt>
      <trkpt lat="49.88093" lon="2.00399">
        <ele>65.7</ele>
        <time>2023-05-03T14:49:39Z</time>
      </trkpt>
      <trkpt lat="49.88094" lon="2.004">
        <ele>65.7</ele>
        <time>2023-05-03T14:49:41Z</time>
      </trkpt>
      <trkpt lat="49.88094" lon="2.00401">
        <ele>65.7</ele>
        <time>2023-05-03T14:49:42Z</time>
      </trkpt>
      <trkpt lat="49.88095" lon="2.00403">
        <ele>65.7</ele>
        <time>2023-05-03T14:49:43Z</time>
      </trkpt>
      <trkpt lat="49.88096" lon="2.00405">
        <ele>65.7</ele>
        <time>2023-05-03T14:49:44Z</time>
      </trkpt>
      <trkpt lat="49.88097" lon="2.00406">
        <ele>65.7</ele>
        <time>2023-05-03T14:49:45Z</time>
      </trkpt>
      <trkpt lat="49.88098" lon="2.00407">
        <ele>65.7</ele>
        <time>2023-05-03T14:49:46Z</time>
      </trkpt>
      <trkpt lat="49.88099" lon="2.00409">
        <ele>65.7</ele>
        <time>2023-05-03T14:49:48Z</time>
      </trkpt>
      <trkpt lat="49.881" lon="2.0041">
        <ele>65.7</ele>
        <time>2023-05-03T14:49:49Z</time>
      </trkpt>
      <trkpt lat="49.881" lon="2.0041">
        <ele>65.7</ele>
        <time>2023-05-03T14:49:50Z</time>
      </trkpt>
      <trkpt lat="49.88102" lon="2.00412">
        <ele>65.7</ele>
        <time>2023-05-03T14:49:51Z</time>
      </trkpt>
      <trkpt lat="49.88103" lon="2.00413">
        <ele>65.7</ele>
        <time>2023-05-03T14:49:52Z</time>
      </trkpt>
      <trkpt lat="49.88103" lon="2.00414">
        <ele>65.7</ele>
        <time>2023-05-03T14:49:53Z</time>
      </trkpt>
      <trkpt lat="49.88104" lon="2.00416">
        <ele>65.7</ele>
        <time>2023-05-03T14:49:55Z</time>
      </trkpt>
      <trkpt lat="49.88105" lon="2.00417">
        <ele>65.7</ele>
        <time>2023-05-03T14:49:56Z</time>
      </trkpt>
      <trkpt lat="49.88106" lon="2.00418">
        <ele>65.7</ele>
        <time>2023-05-03T14:49:57Z</time>
      </trkpt>
      <trkpt lat="49.88106" lon="2.00419">
        <ele>65.7</ele>
        <time>2023-05-03T14:49:58Z</time>
      </trkpt>
      <trkpt lat="49.88107" lon="2.00421">
        <ele>65.7</ele>
        <time>2023-05-03T14:49:59Z</time>
      </trkpt>
      <trkpt lat="49.88108" lon="2.00423">
        <ele>65.7</ele>
        <time>2023-05-03T14:50:01Z</time>
      </trkpt>
      <trkpt lat="49.88109" lon="2.00424">
        <ele>65.7</ele>
        <time>2023-05-03T14:50:02Z</time>
      </trkpt>
      <trkpt lat="49.88109" lon="2.00425">
        <ele>65.7</ele>
        <time>2023-05-03T14:50:04Z</time>
      </trkpt>
      <trkpt lat="49.8811" lon="2.00426">
        <ele>65.7</ele>
        <time>2023-05-03T14:50:05Z</time>
      </trkpt>
      <trkpt lat="49.88111" lon="2.00427">
        <ele>65.7</ele>
        <time>2023-05-03T14:50:06Z</time>
      </trkpt>
      <trkpt lat="49.88112" lon="2.00429">
        <ele>65.7</ele>
        <time>2023-05-03T14:50:08Z</time>
      </trkpt>
      <trkpt lat="49.88112" lon="2.0043">
        <ele>65.7</ele>
        <time>2023-05-03T14:50:10Z</time>
      </trkpt>
      <trkpt lat="49.88113" lon="2.0043">
        <ele>65.7</ele>
        <time>2023-05-03T14:50:11Z</time>
      </trkpt>
      <trkpt lat="49.88113" lon="2.00431">
        <ele>65.7</ele>
        <time>2023-05-03T14:50:12Z</time>
      </trkpt>
      <trkpt lat="49.88113" lon="2.00431">
        <ele>65.7</ele>
        <time>2023-05-03T14:50:13Z</time>
      </trkpt>
      <trkpt lat="49.88114" lon="2.00431">
        <ele>65.7</ele>
        <time>2023-05-03T14:50:15Z</time>
      </trkpt>
      <trkpt lat="49.88114" lon="2.00431">
        <ele>65.7</ele>
        <time>2023-05-03T14:50:16Z</time>
      </trkpt>
      <trkpt lat="49.88114" lon="2.00431">
        <ele>65.8</ele>
        <time>2023-05-03T14:50:17Z</time>
      </trkpt>
      <trkpt lat="49.88114" lon="2.00432">
        <ele>65.8</ele>
        <time>2023-05-03T14:50:19Z</time>
      </trkpt>
      <trkpt lat="49.88114" lon="2.00432">
        <ele>65.8</ele>
        <time>2023-05-03T14:50:20Z</time>
      </trkpt>
      <trkpt lat="49.88114" lon="2.00432">
        <ele>65.8</ele>
        <time>2023-05-03T14:50:22Z</time>
      </trkpt>
      <trkpt lat="49.88114" lon="2.00432">
        <ele>65.8</ele>
        <time>2023-05-03T14:50:23Z</time>
      </trkpt>
      <trkpt lat="49.88114" lon="2.00432">
        <ele>65.8</ele>
        <time>2023-05-03T14:50:24Z</time>
      </trkpt>
      <trkpt lat="49.88114" lon="2.00432">
        <ele>65.8</ele>
        <time>2023-05-03T14:50:26Z</time>
      </trkpt>
      <trkpt lat="49.88114" lon="2.00433">
        <ele>65.8</ele>
        <time>2023-05-03T14:50:27Z</time>
      </trkpt>
      <trkpt lat="49.88114" lon="2.00433">
        <ele>65.8</ele>
        <time>2023-05-03T14:50:28Z</time>
      </trkpt>
      <trkpt lat="49.88114" lon="2.00432">
        <ele>65.8</ele>
        <time>2023-05-03T14:50:30Z</time>
      </trkpt>
      <trkpt lat="49.88113" lon="2.00432">
        <ele>65.8</ele>
        <time>2023-05-03T14:50:31Z</time>
      </trkpt>
      <trkpt lat="49.88113" lon="2.00433">
        <ele>65.8</ele>
        <time>2023-05-03T14:50:32Z</time>
      </trkpt>
      <trkpt lat="49.88113" lon="2.00433">
        <ele>65.8</ele>
        <time>2023-05-03T14:50:33Z</time>
      </trkpt>
      <trkpt lat="49.88113" lon="2.00433">
        <ele>65.8</ele>
        <time>2023-05-03T14:50:34Z</time>
      </trkpt>
      <trkpt lat="49.88113" lon="2.00433">
        <ele>65.8</ele>
        <time>2023-05-03T14:50:35Z</time>
      </trkpt>
      <trkpt lat="49.88114" lon="2.00434">
        <ele>65.8</ele>
        <time>2023-05-03T14:50:36Z</time>
      </trkpt>
      <trkpt lat="49.88114" lon="2.00434">
        <ele>65.8</ele>
        <time>2023-05-03T14:50:37Z</time>
      </trkpt>
      <trkpt lat="49.88114" lon="2.00434">
        <ele>65.8</ele>
        <time>2023-05-03T14:50:38Z</time>
      </trkpt>
      <trkpt lat="49.88114" lon="2.00434">
        <ele>65.8</ele>
        <time>2023-05-03T14:50:39Z</time>
      </trkpt>
      <trkpt lat="49.88114" lon="2.00434">
        <ele>65.8</ele>
        <time>2023-05-03T14:50:40Z</time>
      </trkpt>
      <trkpt lat="49.88114" lon="2.00434">
        <ele>65.8</ele>
        <time>2023-05-03T14:50:41Z</time>
      </trkpt>
      <trkpt lat="49.88114" lon="2.00434">
        <ele>65.8</ele>
        <time>2023-05-03T14:50:42Z</time>
      </trkpt>
      <trkpt lat="49.88114" lon="2.00434">
        <ele>65.8</ele>
        <time>2023-05-03T14:50:43Z</time>
      </trkpt>
      <trkpt lat="49.88114" lon="2.00434">
        <ele>65.8</ele>
        <time>2023-05-03T14:50:44Z</time>
      </trkpt>
      <trkpt lat="49.88114" lon="2.00434">
        <ele>65.8</ele>
        <time>2023-05-03T14:50:45Z</time>
      </trkpt>
      <trkpt lat="49.88114" lon="2.00434">
        <ele>65.8</ele>
        <time>2023-05-03T14:50:46Z</time>
      </trkpt>
      <trkpt lat="49.88114" lon="2.00434">
        <ele>65.8</ele>
        <time>2023-05-03T14:50:47Z</time>
      </trkpt>
      <trkpt lat="49.88114" lon="2.00434">
        <ele>65.8</ele>
        <time>2023-05-03T14:50:48Z</time>
      </trkpt>
      <trkpt lat="49.88114" lon="2.00434">
        <ele>65.8</ele>
        <time>2023-05-03T14:50:49Z</time>
      </trkpt>
      <trkpt lat="49.88114" lon="2.00434">
        <ele>65.8</ele>
        <time>2023-05-03T14:50:50Z</time>
      </trkpt>
      <trkpt lat="49.88114" lon="2.00434">
        <ele>65.8</ele>
        <time>2023-05-03T14:50:51Z</time>
      </trkpt>
      <trkpt lat="49.88114" lon="2.00434">
        <ele>65.8</ele>
        <time>2023-05-03T14:50:52Z</time>
      </trkpt>
      <trkpt lat="49.88114" lon="2.00434">
        <ele>65.8</ele>
        <time>2023-05-03T14:50:53Z</time>
      </trkpt>
      <trkpt lat="49.88114" lon="2.00434">
        <ele>65.8</ele>
        <time>2023-05-03T14:50:54Z</time>
      </trkpt>
      <trkpt lat="49.88114" lon="2.00434">
        <ele>65.8</ele>
        <time>2023-05-03T14:50:55Z</time>
      </trkpt>
      <trkpt lat="49.88114" lon="2.00434">
        <ele>65.8</ele>
        <time>2023-05-03T14:50:56Z</time>
      </trkpt>
      <trkpt lat="49.88114" lon="2.00434">
        <ele>65.8</ele>
        <time>2023-05-03T14:50:57Z</time>
      </trkpt>
      <trkpt lat="49.88114" lon="2.00434">
        <ele>65.8</ele>
        <time>2023-05-03T14:50:58Z</time>
      </trkpt>
      <trkpt lat="49.88114" lon="2.00434">
        <ele>65.8</ele>
        <time>2023-05-03T14:50:59Z</time>
      </trkpt>
      <trkpt lat="49.88114" lon="2.00434">
        <ele>65.8</ele>
        <time>2023-05-03T14:51:00Z</time>
      </trkpt>
      <trkpt lat="49.88114" lon="2.00434">
        <ele>65.8</ele>
        <time>2023-05-03T14:51:01Z</time>
      </trkpt>
      <trkpt lat="49.88114" lon="2.00434">
        <ele>65.8</ele>
        <time>2023-05-03T14:51:02Z</time>
      </trkpt>
      <trkpt lat="49.88114" lon="2.00434">
        <ele>65.8</ele>
        <time>2023-05-03T14:51:03Z</time>
      </trkpt>
      <trkpt lat="49.88114" lon="2.00434">
        <ele>65.8</ele>
        <time>2023-05-03T14:51:04Z</time>
      </trkpt>
      <trkpt lat="49.88114" lon="2.00434">
        <ele>65.8</ele>
        <time>2023-05-03T14:51:05Z</time>
      </trkpt>
      <trkpt lat="49.88114" lon="2.00434">
        <ele>65.8</ele>
        <time>2023-05-03T14:51:06Z</time>
      </trkpt>
      <trkpt lat="49.88114" lon="2.00434">
        <ele>65.8</ele>
        <time>2023-05-03T14:51:07Z</time>
      </trkpt>
      <trkpt lat="49.88114" lon="2.00434">
        <ele>65.8</ele>
        <time>2023-05-03T14:51:08Z</time>
      </trkpt>
      <trkpt lat="49.88114" lon="2.00434">
        <ele>65.8</ele>
        <time>2023-05-03T14:51:09Z</time>
      </trkpt>
      <trkpt lat="49.88114" lon="2.00434">
        <ele>65.8</ele>
        <time>2023-05-03T14:51:10Z</time>
      </trkpt>
      <trkpt lat="49.88114" lon="2.00434">
        <ele>65.8</ele>
        <time>2023-05-03T14:51:11Z</time>
      </trkpt>
      <trkpt lat="49.88114" lon="2.00434">
        <ele>65.8</ele>
        <time>2023-05-03T14:51:12Z</time>
      </trkpt>
      <trkpt lat="49.88114" lon="2.00434">
        <ele>65.8</ele>
        <time>2023-05-03T14:51:13Z</time>
      </trkpt>
      <trkpt lat="49.88114" lon="2.00434">
        <ele>65.8</ele>
        <time>2023-05-03T14:51:14Z</time>
      </trkpt>
      <trkpt lat="49.88114" lon="2.00434">
        <ele>65.8</ele>
        <time>2023-05-03T14:51:15Z</time>
      </trkpt>
      <trkpt lat="49.88114" lon="2.00434">
        <ele>65.8</ele>
        <time>2023-05-03T14:51:16Z</time>
      </trkpt>
      <trkpt lat="49.88114" lon="2.00434">
        <ele>65.8</ele>
        <time>2023-05-03T14:51:17Z</time>
      </trkpt>
      <trkpt lat="49.88114" lon="2.00434">
        <ele>65.8</ele>
        <time>2023-05-03T14:51:18Z</time>
      </trkpt>
      <trkpt lat="49.88114" lon="2.00434">
        <ele>65.8</ele>
        <time>2023-05-03T14:51:19Z</time>
      </trkpt>
      <trkpt lat="49.88114" lon="2.00434">
        <ele>65.8</ele>
        <time>2023-05-03T14:51:20Z</time>
      </trkpt>
      <trkpt lat="49.88114" lon="2.00434">
        <ele>65.8</ele>
        <time>2023-05-03T14:51:21Z</time>
      </trkpt>
      <trkpt lat="49.88114" lon="2.00434">
        <ele>65.8</ele>
        <time>2023-05-03T14:51:22Z</time>
      </trkpt>
      <trkpt lat="49.88114" lon="2.00434">
        <ele>65.8</ele>
        <time>2023-05-03T14:51:23Z</time>
      </trkpt>
      <trkpt lat="49.88114" lon="2.00434">
        <ele>65.8</ele>
        <time>2023-05-03T14:51:24Z</time>
      </trkpt>
      <trkpt lat="49.88114" lon="2.00434">
        <ele>65.8</ele>
        <time>2023-05-03T14:51:25Z</time>
      </trkpt>
      <trkpt lat="49.88114" lon="2.00434">
        <ele>65.8</ele>
        <time>2023-05-03T14:51:26Z</time>
      </trkpt>
      <trkpt lat="49.88114" lon="2.00434">
        <ele>65.8</ele>
        <time>2023-05-03T14:51:27Z</time>
      </trkpt>
      <trkpt lat="49.88114" lon="2.00434">
        <ele>65.8</ele>
        <time>2023-05-03T14:51:28Z</time>
      </trkpt>
      <trkpt lat="49.88114" lon="2.00434">
        <ele>65.8</ele>
        <time>2023-05-03T14:51:29Z</time>
      </trkpt>
      <trkpt lat="49.88114" lon="2.00434">
        <ele>65.8</ele>
        <time>2023-05-03T14:51:30Z</time>
      </trkpt>
      <trkpt lat="49.88114" lon="2.00434">
        <ele>65.8</ele>
        <time>2023-05-03T14:51:31Z</time>
      </trkpt>
      <trkpt lat="49.88114" lon="2.00434">
        <ele>65.8</ele>
        <time>2023-05-03T14:51:32Z</time>
      </trkpt>
      <trkpt lat="49.88114" lon="2.00434">
        <ele>65.8</ele>
        <time>2023-05-03T14:51:33Z</time>
      </trkpt>
      <trkpt lat="49.88114" lon="2.00434">
        <ele>65.8</ele>
        <time>2023-05-03T14:51:34Z</time>
      </trkpt>
      <trkpt lat="49.88114" lon="2.00434">
        <ele>65.8</ele>
        <time>2023-05-03T14:51:35Z</time>
      </trkpt>
      <trkpt lat="49.88114" lon="2.00434">
        <ele>65.8</ele>
        <time>2023-05-03T14:51:36Z</time>
      </trkpt>
      <trkpt lat="49.88114" lon="2.00434">
        <ele>65.8</ele>
        <time>2023-05-03T14:51:37Z</time>
      </trkpt>
      <trkpt lat="49.88114" lon="2.00434">
        <ele>65.8</ele>
        <time>2023-05-03T14:51:38Z</time>
      </trkpt>
      <trkpt lat="49.88114" lon="2.00434">
        <ele>65.8</ele>
        <time>2023-05-03T14:51:39Z</time>
      </trkpt>
      <trkpt lat="49.88114" lon="2.00434">
        <ele>65.8</ele>
        <time>2023-05-03T14:51:40Z</time>
      </trkpt>
      <trkpt lat="49.88114" lon="2.00434">
        <ele>65.8</ele>
        <time>2023-05-03T14:51:41Z</time>
      </trkpt>
      <trkpt lat="49.88114" lon="2.00434">
        <ele>65.8</ele>
        <time>2023-05-03T14:51:42Z</time>
      </trkpt>
      <trkpt lat="49.88114" lon="2.00434">
        <ele>65.8</ele>
        <time>2023-05-03T14:51:43Z</time>
      </trkpt>
      <trkpt lat="49.88114" lon="2.00434">
        <ele>65.8</ele>
        <time>2023-05-03T14:51:44Z</time>
      </trkpt>
      <trkpt lat="49.88112" lon="2.00433">
        <ele>65.8</ele>
        <time>2023-05-03T14:51:45Z</time>
      </trkpt>
      <trkpt lat="49.88112" lon="2.00433">
        <ele>65.8</ele>
        <time>2023-05-03T14:51:46Z</time>
      </trkpt>
      <trkpt lat="49.88112" lon="2.00433">
        <ele>65.8</ele>
        <time>2023-05-03T14:51:47Z</time>
      </trkpt>
      <trkpt lat="49.88112" lon="2.00434">
        <ele>65.8</ele>
        <time>2023-05-03T14:51:48Z</time>
      </trkpt>
      <trkpt lat="49.88113" lon="2.00435">
        <ele>65.8</ele>
        <time>2023-05-03T14:51:49Z</time>
      </trkpt>
      <trkpt lat="49.88113" lon="2.00436">
        <ele>65.8</ele>
        <time>2023-05-03T14:51:50Z</time>
      </trkpt>
      <trkpt lat="49.88114" lon="2.00436">
        <ele>65.8</ele>
        <time>2023-05-03T14:51:51Z</time>
      </trkpt>
      <trkpt lat="49.88115" lon="2.00437">
        <ele>65.8</ele>
        <time>2023-05-03T14:51:52Z</time>
      </trkpt>
      <trkpt lat="49.88115" lon="2.00438">
        <ele>65.8</ele>
        <time>2023-05-03T14:51:54Z</time>
      </trkpt>
      <trkpt lat="49.88116" lon="2.00439">
        <ele>65.8</ele>
        <time>2023-05-03T14:51:55Z</time>
      </trkpt>
      <trkpt lat="49.88117" lon="2.00442">
        <ele>65.8</ele>
        <time>2023-05-03T14:51:56Z</time>
      </trkpt>
      <trkpt lat="49.88118" lon="2.00443">
        <ele>65.8</ele>
        <time>2023-05-03T14:51:57Z</time>
      </trkpt>
      <trkpt lat="49.88118" lon="2.00444">
        <ele>65.8</ele>
        <time>2023-05-03T14:51:58Z</time>
      </trkpt>
      <trkpt lat="49.8812" lon="2.00447">
        <ele>65.8</ele>
        <time>2023-05-03T14:51:59Z</time>
      </trkpt>
      <trkpt lat="49.8812" lon="2.00448">
        <ele>65.8</ele>
        <time>2023-05-03T14:52:00Z</time>
      </trkpt>
      <trkpt lat="49.88122" lon="2.00452">
        <ele>65.9</ele>
        <time>2023-05-03T14:52:01Z</time>
      </trkpt>
      <trkpt lat="49.88122" lon="2.00453">
        <ele>66</ele>
        <time>2023-05-03T14:52:03Z</time>
      </trkpt>
      <trkpt lat="49.88123" lon="2.00455">
        <ele>66</ele>
        <time>2023-05-03T14:52:04Z</time>
      </trkpt>
      <trkpt lat="49.88123" lon="2.00456">
        <ele>66</ele>
        <time>2023-05-03T14:52:05Z</time>
      </trkpt>
      <trkpt lat="49.88123" lon="2.00457">
        <ele>66.1</ele>
        <time>2023-05-03T14:52:06Z</time>
      </trkpt>
      <trkpt lat="49.88124" lon="2.00459">
        <ele>66.1</ele>
        <time>2023-05-03T14:52:07Z</time>
      </trkpt>
      <trkpt lat="49.88125" lon="2.00462">
        <ele>66.1</ele>
        <time>2023-05-03T14:52:09Z</time>
      </trkpt>
      <trkpt lat="49.88126" lon="2.00463">
        <ele>66.2</ele>
        <time>2023-05-03T14:52:10Z</time>
      </trkpt>
      <trkpt lat="49.88126" lon="2.00464">
        <ele>66.2</ele>
        <time>2023-05-03T14:52:12Z</time>
      </trkpt>
      <trkpt lat="49.88127" lon="2.00465">
        <ele>66.2</ele>
        <time>2023-05-03T14:52:13Z</time>
      </trkpt>
      <trkpt lat="49.88128" lon="2.00466">
        <ele>66.2</ele>
        <time>2023-05-03T14:52:14Z</time>
      </trkpt>
      <trkpt lat="49.88129" lon="2.00467">
        <ele>66.3</ele>
        <time>2023-05-03T14:52:15Z</time>
      </trkpt>
      <trkpt lat="49.88129" lon="2.00468">
        <ele>66.3</ele>
        <time>2023-05-03T14:52:16Z</time>
      </trkpt>
      <trkpt lat="49.8813" lon="2.00468">
        <ele>66.3</ele>
        <time>2023-05-03T14:52:17Z</time>
      </trkpt>
      <trkpt lat="49.88131" lon="2.00469">
        <ele>66.3</ele>
        <time>2023-05-03T14:52:19Z</time>
      </trkpt>
      <trkpt lat="49.88132" lon="2.0047">
        <ele>66.3</ele>
        <time>2023-05-03T14:52:20Z</time>
      </trkpt>
      <trkpt lat="49.88133" lon="2.00471">
        <ele>66.3</ele>
        <time>2023-05-03T14:52:21Z</time>
      </trkpt>
      <trkpt lat="49.88133" lon="2.00471">
        <ele>66.4</ele>
        <time>2023-05-03T14:52:22Z</time>
      </trkpt>
      <trkpt lat="49.88134" lon="2.00472">
        <ele>66.4</ele>
        <time>2023-05-03T14:52:23Z</time>
      </trkpt>
      <trkpt lat="49.88135" lon="2.00473">
        <ele>66.4</ele>
        <time>2023-05-03T14:52:25Z</time>
      </trkpt>
      <trkpt lat="49.88135" lon="2.00474">
        <ele>66.4</ele>
        <time>2023-05-03T14:52:26Z</time>
      </trkpt>
      <trkpt lat="49.88136" lon="2.00475">
        <ele>66.4</ele>
        <time>2023-05-03T14:52:27Z</time>
      </trkpt>
      <trkpt lat="49.88137" lon="2.00476">
        <ele>66.4</ele>
        <time>2023-05-03T14:52:28Z</time>
      </trkpt>
      <trkpt lat="49.88137" lon="2.00477">
        <ele>66.4</ele>
        <time>2023-05-03T14:52:29Z</time>
      </trkpt>
      <trkpt lat="49.88138" lon="2.00479">
        <ele>66.4</ele>
        <time>2023-05-03T14:52:30Z</time>
      </trkpt>
      <trkpt lat="49.88139" lon="2.0048">
        <ele>66.4</ele>
        <time>2023-05-03T14:52:31Z</time>
      </trkpt>
      <trkpt lat="49.8814" lon="2.00482">
        <ele>66.4</ele>
        <time>2023-05-03T14:52:32Z</time>
      </trkpt>
      <trkpt lat="49.8814" lon="2.00483">
        <ele>66.4</ele>
        <time>2023-05-03T14:52:34Z</time>
      </trkpt>
      <trkpt lat="49.88141" lon="2.00484">
        <ele>66.4</ele>
        <time>2023-05-03T14:52:35Z</time>
      </trkpt>
      <trkpt lat="49.88142" lon="2.00486">
        <ele>66.4</ele>
        <time>2023-05-03T14:52:36Z</time>
      </trkpt>
      <trkpt lat="49.88143" lon="2.00487">
        <ele>66.4</ele>
        <time>2023-05-03T14:52:37Z</time>
      </trkpt>
      <trkpt lat="49.88143" lon="2.00488">
        <ele>66.4</ele>
        <time>2023-05-03T14:52:38Z</time>
      </trkpt>
      <trkpt lat="49.88144" lon="2.0049">
        <ele>66.4</ele>
        <time>2023-05-03T14:52:40Z</time>
      </trkpt>
      <trkpt lat="49.88145" lon="2.00492">
        <ele>66.3</ele>
        <time>2023-05-03T14:52:41Z</time>
      </trkpt>
      <trkpt lat="49.88145" lon="2.00493">
        <ele>66.3</ele>
        <time>2023-05-03T14:52:42Z</time>
      </trkpt>
      <trkpt lat="49.88146" lon="2.00495">
        <ele>66.3</ele>
        <time>2023-05-03T14:52:43Z</time>
      </trkpt>
      <trkpt lat="49.88146" lon="2.00497">
        <ele>66.3</ele>
        <time>2023-05-03T14:52:45Z</time>
      </trkpt>
      <trkpt lat="49.88147" lon="2.00499">
        <ele>66.3</ele>
        <time>2023-05-03T14:52:47Z</time>
      </trkpt>
      <trkpt lat="49.88147" lon="2.005">
        <ele>66.2</ele>
        <time>2023-05-03T14:52:48Z</time>
      </trkpt>
      <trkpt lat="49.88147" lon="2.00501">
        <ele>66.2</ele>
        <time>2023-05-03T14:52:49Z</time>
      </trkpt>
      <trkpt lat="49.88147" lon="2.00502">
        <ele>66.2</ele>
        <time>2023-05-03T14:52:50Z</time>
      </trkpt>
      <trkpt lat="49.88148" lon="2.00504">
        <ele>66.2</ele>
        <time>2023-05-03T14:52:51Z</time>
      </trkpt>
      <trkpt lat="49.88148" lon="2.00505">
        <ele>66.2</ele>
        <time>2023-05-03T14:52:52Z</time>
      </trkpt>
      <trkpt lat="49.88148" lon="2.00507">
        <ele>66.1</ele>
        <time>2023-05-03T14:52:53Z</time>
      </trkpt>
      <trkpt lat="49.88149" lon="2.00509">
        <ele>66.1</ele>
        <time>2023-05-03T14:52:55Z</time>
      </trkpt>
      <trkpt lat="49.88149" lon="2.0051">
        <ele>66.1</ele>
        <time>2023-05-03T14:52:56Z</time>
      </trkpt>
      <trkpt lat="49.88149" lon="2.00514">
        <ele>66</ele>
        <time>2023-05-03T14:52:57Z</time>
      </trkpt>
      <trkpt lat="49.88148" lon="2.00515">
        <ele>66</ele>
        <time>2023-05-03T14:52:58Z</time>
      </trkpt>
      <trkpt lat="49.88148" lon="2.00516">
        <ele>66</ele>
        <time>2023-05-03T14:52:59Z</time>
      </trkpt>
      <trkpt lat="49.88148" lon="2.0052">
        <ele>66</ele>
        <time>2023-05-03T14:53:00Z</time>
      </trkpt>
      <trkpt lat="49.88148" lon="2.00521">
        <ele>65.9</ele>
        <time>2023-05-03T14:53:02Z</time>
      </trkpt>
      <trkpt lat="49.88148" lon="2.00522">
        <ele>65.9</ele>
        <time>2023-05-03T14:53:03Z</time>
      </trkpt>
      <trkpt lat="49.88149" lon="2.00526">
        <ele>65.9</ele>
        <time>2023-05-03T14:53:04Z</time>
      </trkpt>
      <trkpt lat="49.88149" lon="2.00527">
        <ele>65.9</ele>
        <time>2023-05-03T14:53:05Z</time>
      </trkpt>
      <trkpt lat="49.88149" lon="2.00528">
        <ele>65.9</ele>
        <time>2023-05-03T14:53:06Z</time>
      </trkpt>
      <trkpt lat="49.8815" lon="2.00531">
        <ele>65.9</ele>
        <time>2023-05-03T14:53:07Z</time>
      </trkpt>
      <trkpt lat="49.8815" lon="2.00533">
        <ele>65.9</ele>
        <time>2023-05-03T14:53:09Z</time>
      </trkpt>
      <trkpt lat="49.8815" lon="2.00534">
        <ele>65.9</ele>
        <time>2023-05-03T14:53:10Z</time>
      </trkpt>
      <trkpt lat="49.88151" lon="2.00535">
        <ele>65.9</ele>
        <time>2023-05-03T14:53:11Z</time>
      </trkpt>
      <trkpt lat="49.88151" lon="2.00537">
        <ele>66</ele>
        <time>2023-05-03T14:53:12Z</time>
      </trkpt>
      <trkpt lat="49.88151" lon="2.00538">
        <ele>66</ele>
        <time>2023-05-03T14:53:13Z</time>
      </trkpt>
      <trkpt lat="49.88152" lon="2.0054">
        <ele>66</ele>
        <time>2023-05-03T14:53:14Z</time>
      </trkpt>
      <trkpt lat="49.88152" lon="2.00541">
        <ele>66</ele>
        <time>2023-05-03T14:53:15Z</time>
      </trkpt>
      <trkpt lat="49.88153" lon="2.00544">
        <ele>66</ele>
        <time>2023-05-03T14:53:17Z</time>
      </trkpt>
      <trkpt lat="49.88153" lon="2.00546">
        <ele>66.1</ele>
        <time>2023-05-03T14:53:18Z</time>
      </trkpt>
      <trkpt lat="49.88154" lon="2.00548">
        <ele>66.1</ele>
        <time>2023-05-03T14:53:19Z</time>
      </trkpt>
      <trkpt lat="49.88154" lon="2.0055">
        <ele>66.1</ele>
        <time>2023-05-03T14:53:21Z</time>
      </trkpt>
      <trkpt lat="49.88155" lon="2.00553">
        <ele>66.2</ele>
        <time>2023-05-03T14:53:22Z</time>
      </trkpt>
      <trkpt lat="49.88156" lon="2.00554">
        <ele>66.2</ele>
        <time>2023-05-03T14:53:23Z</time>
      </trkpt>
      <trkpt lat="49.88156" lon="2.00555">
        <ele>66.2</ele>
        <time>2023-05-03T14:53:24Z</time>
      </trkpt>
      <trkpt lat="49.88157" lon="2.00557">
        <ele>66.3</ele>
        <time>2023-05-03T14:53:25Z</time>
      </trkpt>
      <trkpt lat="49.88157" lon="2.00559">
        <ele>66.3</ele>
        <time>2023-05-03T14:53:26Z</time>
      </trkpt>
      <trkpt lat="49.88158" lon="2.0056">
        <ele>66.3</ele>
        <time>2023-05-03T14:53:28Z</time>
      </trkpt>
      <trkpt lat="49.88159" lon="2.00562">
        <ele>66.3</ele>
        <time>2023-05-03T14:53:29Z</time>
      </trkpt>
      <trkpt lat="49.88161" lon="2.00565">
        <ele>66.4</ele>
        <time>2023-05-03T14:53:30Z</time>
      </trkpt>
      <trkpt lat="49.88161" lon="2.00566">
        <ele>66.4</ele>
        <time>2023-05-03T14:53:31Z</time>
      </trkpt>
      <trkpt lat="49.88162" lon="2.00567">
        <ele>66.4</ele>
        <time>2023-05-03T14:53:32Z</time>
      </trkpt>
      <trkpt lat="49.88163" lon="2.00569">
        <ele>66.4</ele>
        <time>2023-05-03T14:53:33Z</time>
      </trkpt>
      <trkpt lat="49.88163" lon="2.0057">
        <ele>66.4</ele>
        <time>2023-05-03T14:53:34Z</time>
      </trkpt>
      <trkpt lat="49.88165" lon="2.00573">
        <ele>66.4</ele>
        <time>2023-05-03T14:53:36Z</time>
      </trkpt>
      <trkpt lat="49.88165" lon="2.00574">
        <ele>66.4</ele>
        <time>2023-05-03T14:53:37Z</time>
      </trkpt>
      <trkpt lat="49.88166" lon="2.00575">
        <ele>66.4</ele>
        <time>2023-05-03T14:53:38Z</time>
      </trkpt>
      <trkpt lat="49.88167" lon="2.00578">
        <ele>66.4</ele>
        <time>2023-05-03T14:53:39Z</time>
      </trkpt>
      <trkpt lat="49.88168" lon="2.00579">
        <ele>66.4</ele>
        <time>2023-05-03T14:53:40Z</time>
      </trkpt>
      <trkpt lat="49.88168" lon="2.0058">
        <ele>66.3</ele>
        <time>2023-05-03T14:53:41Z</time>
      </trkpt>
      <trkpt lat="49.88169" lon="2.00583">
        <ele>66.3</ele>
        <time>2023-05-03T14:53:43Z</time>
      </trkpt>
      <trkpt lat="49.88169" lon="2.00584">
        <ele>66.3</ele>
        <time>2023-05-03T14:53:44Z</time>
      </trkpt>
      <trkpt lat="49.8817" lon="2.00585">
        <ele>66.3</ele>
        <time>2023-05-03T14:53:45Z</time>
      </trkpt>
      <trkpt lat="49.8817" lon="2.00587">
        <ele>66.3</ele>
        <time>2023-05-03T14:53:46Z</time>
      </trkpt>
      <trkpt lat="49.88171" lon="2.00588">
        <ele>66.2</ele>
        <time>2023-05-03T14:53:47Z</time>
      </trkpt>
      <trkpt lat="49.88171" lon="2.00589">
        <ele>66.2</ele>
        <time>2023-05-03T14:53:48Z</time>
      </trkpt>
      <trkpt lat="49.88172" lon="2.00592">
        <ele>66.2</ele>
        <time>2023-05-03T14:53:50Z</time>
      </trkpt>
      <trkpt lat="49.88172" lon="2.00594">
        <ele>66.1</ele>
        <time>2023-05-03T14:53:51Z</time>
      </trkpt>
      <trkpt lat="49.88173" lon="2.00595">
        <ele>66.1</ele>
        <time>2023-05-03T14:53:52Z</time>
      </trkpt>
      <trkpt lat="49.88173" lon="2.00597">
        <ele>66.1</ele>
        <time>2023-05-03T14:53:53Z</time>
      </trkpt>
      <trkpt lat="49.88174" lon="2.00598">
        <ele>66.1</ele>
        <time>2023-05-03T14:53:54Z</time>
      </trkpt>
      <trkpt lat="49.88175" lon="2.006">
        <ele>66</ele>
        <time>2023-05-03T14:53:56Z</time>
      </trkpt>
      <trkpt lat="49.88176" lon="2.00601">
        <ele>66</ele>
        <time>2023-05-03T14:53:57Z</time>
      </trkpt>
      <trkpt lat="49.88176" lon="2.00603">
        <ele>66</ele>
        <time>2023-05-03T14:53:58Z</time>
      </trkpt>
      <trkpt lat="49.88177" lon="2.00604">
        <ele>66</ele>
        <time>2023-05-03T14:53:59Z</time>
      </trkpt>
      <trkpt lat="49.88177" lon="2.00606">
        <ele>66</ele>
        <time>2023-05-03T14:54:00Z</time>
      </trkpt>
      <trkpt lat="49.88178" lon="2.00607">
        <ele>65.9</ele>
        <time>2023-05-03T14:54:01Z</time>
      </trkpt>
      <trkpt lat="49.88178" lon="2.00609">
        <ele>65.9</ele>
        <time>2023-05-03T14:54:02Z</time>
      </trkpt>
      <trkpt lat="49.88179" lon="2.00611">
        <ele>65.9</ele>
        <time>2023-05-03T14:54:03Z</time>
      </trkpt>
      <trkpt lat="49.88179" lon="2.00612">
        <ele>65.9</ele>
        <time>2023-05-03T14:54:04Z</time>
      </trkpt>
      <trkpt lat="49.88179" lon="2.00614">
        <ele>65.9</ele>
        <time>2023-05-03T14:54:06Z</time>
      </trkpt>
      <trkpt lat="49.88179" lon="2.00615">
        <ele>65.9</ele>
        <time>2023-05-03T14:54:07Z</time>
      </trkpt>
      <trkpt lat="49.8818" lon="2.00617">
        <ele>65.9</ele>
        <time>2023-05-03T14:54:08Z</time>
      </trkpt>
      <trkpt lat="49.8818" lon="2.00619">
        <ele>65.9</ele>
        <time>2023-05-03T14:54:09Z</time>
      </trkpt>
      <trkpt lat="49.8818" lon="2.0062">
        <ele>65.9</ele>
        <time>2023-05-03T14:54:10Z</time>
      </trkpt>
      <trkpt lat="49.8818" lon="2.00622">
        <ele>65.9</ele>
        <time>2023-05-03T14:54:12Z</time>
      </trkpt>
      <trkpt lat="49.88181" lon="2.00624">
        <ele>65.9</ele>
        <time>2023-05-03T14:54:13Z</time>
      </trkpt>
      <trkpt lat="49.88181" lon="2.00627">
        <ele>65.9</ele>
        <time>2023-05-03T14:54:14Z</time>
      </trkpt>
      <trkpt lat="49.88181" lon="2.00628">
        <ele>65.9</ele>
        <time>2023-05-03T14:54:15Z</time>
      </trkpt>
      <trkpt lat="49.88181" lon="2.0063">
        <ele>65.8</ele>
        <time>2023-05-03T14:54:16Z</time>
      </trkpt>
      <trkpt lat="49.88181" lon="2.00631">
        <ele>65.8</ele>
        <time>2023-05-03T14:54:17Z</time>
      </trkpt>
      <trkpt lat="49.88182" lon="2.00633">
        <ele>65.8</ele>
        <time>2023-05-03T14:54:19Z</time>
      </trkpt>
      <trkpt lat="49.88182" lon="2.00635">
        <ele>65.8</ele>
        <time>2023-05-03T14:54:20Z</time>
      </trkpt>
      <trkpt lat="49.88182" lon="2.00637">
        <ele>65.8</ele>
        <time>2023-05-03T14:54:21Z</time>
      </trkpt>
      <trkpt lat="49.88183" lon="2.00638">
        <ele>65.8</ele>
        <time>2023-05-03T14:54:22Z</time>
      </trkpt>
      <trkpt lat="49.88183" lon="2.0064">
        <ele>65.7</ele>
        <time>2023-05-03T14:54:23Z</time>
      </trkpt>
      <trkpt lat="49.88184" lon="2.00643">
        <ele>65.7</ele>
        <time>2023-05-03T14:54:24Z</time>
      </trkpt>
      <trkpt lat="49.88184" lon="2.00644">
        <ele>65.7</ele>
        <time>2023-05-03T14:54:26Z</time>
      </trkpt>
      <trkpt lat="49.88185" lon="2.00645">
        <ele>65.7</ele>
        <time>2023-05-03T14:54:27Z</time>
      </trkpt>
      <trkpt lat="49.88185" lon="2.00647">
        <ele>65.7</ele>
        <time>2023-05-03T14:54:28Z</time>
      </trkpt>
      <trkpt lat="49.88185" lon="2.00649">
        <ele>65.7</ele>
        <time>2023-05-03T14:54:29Z</time>
      </trkpt>
      <trkpt lat="49.88186" lon="2.0065">
        <ele>65.6</ele>
        <time>2023-05-03T14:54:30Z</time>
      </trkpt>
      <trkpt lat="49.88187" lon="2.00654">
        <ele>65.6</ele>
        <time>2023-05-03T14:54:31Z</time>
      </trkpt>
      <trkpt lat="49.88187" lon="2.00655">
        <ele>65.6</ele>
        <time>2023-05-03T14:54:33Z</time>
      </trkpt>
      <trkpt lat="49.88187" lon="2.00656">
        <ele>65.6</ele>
        <time>2023-05-03T14:54:34Z</time>
      </trkpt>
      <trkpt lat="49.88188" lon="2.00659">
        <ele>65.6</ele>
        <time>2023-05-03T14:54:35Z</time>
      </trkpt>
      <trkpt lat="49.88188" lon="2.0066">
        <ele>65.6</ele>
        <time>2023-05-03T14:54:36Z</time>
      </trkpt>
      <trkpt lat="49.88188" lon="2.00662">
        <ele>65.6</ele>
        <time>2023-05-03T14:54:37Z</time>
      </trkpt>
      <trkpt lat="49.88189" lon="2.00665">
        <ele>65.6</ele>
        <time>2023-05-03T14:54:38Z</time>
      </trkpt>
      <trkpt lat="49.8819" lon="2.00667">
        <ele>65.6</ele>
        <time>2023-05-03T14:54:40Z</time>
      </trkpt>
      <trkpt lat="49.8819" lon="2.00668">
        <ele>65.6</ele>
        <time>2023-05-03T14:54:41Z</time>
      </trkpt>
      <trkpt lat="49.88191" lon="2.0067">
        <ele>65.6</ele>
        <time>2023-05-03T14:54:42Z</time>
      </trkpt>
      <trkpt lat="49.88191" lon="2.00671">
        <ele>65.6</ele>
        <time>2023-05-03T14:54:43Z</time>
      </trkpt>
      <trkpt lat="49.88192" lon="2.00674">
        <ele>65.6</ele>
        <time>2023-05-03T14:54:44Z</time>
      </trkpt>
      <trkpt lat="49.88192" lon="2.00675">
        <ele>65.6</ele>
        <time>2023-05-03T14:54:45Z</time>
      </trkpt>
      <trkpt lat="49.88193" lon="2.00677">
        <ele>65.6</ele>
        <time>2023-05-03T14:54:46Z</time>
      </trkpt>
      <trkpt lat="49.88194" lon="2.00678">
        <ele>65.6</ele>
        <time>2023-05-03T14:54:48Z</time>
      </trkpt>
      <trkpt lat="49.88194" lon="2.0068">
        <ele>65.6</ele>
        <time>2023-05-03T14:54:49Z</time>
      </trkpt>
      <trkpt lat="49.88195" lon="2.00681">
        <ele>65.6</ele>
        <time>2023-05-03T14:54:50Z</time>
      </trkpt>
      <trkpt lat="49.88196" lon="2.00684">
        <ele>65.6</ele>
        <time>2023-05-03T14:54:51Z</time>
      </trkpt>
      <trkpt lat="49.88196" lon="2.00685">
        <ele>65.6</ele>
        <time>2023-05-03T14:54:52Z</time>
      </trkpt>
      <trkpt lat="49.88197" lon="2.00686">
        <ele>65.6</ele>
        <time>2023-05-03T14:54:53Z</time>
      </trkpt>
      <trkpt lat="49.88197" lon="2.00688">
        <ele>65.6</ele>
        <time>2023-05-03T14:54:55Z</time>
      </trkpt>
      <trkpt lat="49.88198" lon="2.00689">
        <ele>65.5</ele>
        <time>2023-05-03T14:54:56Z</time>
      </trkpt>
      <trkpt lat="49.88199" lon="2.00691">
        <ele>65.5</ele>
        <time>2023-05-03T14:54:57Z</time>
      </trkpt>
      <trkpt lat="49.88199" lon="2.00694">
        <ele>65.5</ele>
        <time>2023-05-03T14:54:58Z</time>
      </trkpt>
      <trkpt lat="49.882" lon="2.00695">
        <ele>65.5</ele>
        <time>2023-05-03T14:54:59Z</time>
      </trkpt>
      <trkpt lat="49.882" lon="2.00696">
        <ele>65.5</ele>
        <time>2023-05-03T14:55:00Z</time>
      </trkpt>
      <trkpt lat="49.88201" lon="2.00698">
        <ele>65.5</ele>
        <time>2023-05-03T14:55:02Z</time>
      </trkpt>
      <trkpt lat="49.88201" lon="2.00699">
        <ele>65.4</ele>
        <time>2023-05-03T14:55:03Z</time>
      </trkpt>
      <trkpt lat="49.88202" lon="2.00701">
        <ele>65.4</ele>
        <time>2023-05-03T14:55:04Z</time>
      </trkpt>
      <trkpt lat="49.88202" lon="2.00702">
        <ele>65.4</ele>
        <time>2023-05-03T14:55:05Z</time>
      </trkpt>
      <trkpt lat="49.88203" lon="2.00704">
        <ele>65.3</ele>
        <time>2023-05-03T14:55:06Z</time>
      </trkpt>
      <trkpt lat="49.88203" lon="2.00705">
        <ele>65.3</ele>
        <time>2023-05-03T14:55:07Z</time>
      </trkpt>
      <trkpt lat="49.88204" lon="2.00707">
        <ele>65.3</ele>
        <time>2023-05-03T14:55:08Z</time>
      </trkpt>
      <trkpt lat="49.88205" lon="2.00708">
        <ele>65.2</ele>
        <time>2023-05-03T14:55:10Z</time>
      </trkpt>
      <trkpt lat="49.88205" lon="2.0071">
        <ele>65.2</ele>
        <time>2023-05-03T14:55:11Z</time>
      </trkpt>
      <trkpt lat="49.88206" lon="2.00713">
        <ele>65.1</ele>
        <time>2023-05-03T14:55:12Z</time>
      </trkpt>
      <trkpt lat="49.88207" lon="2.00714">
        <ele>65.1</ele>
        <time>2023-05-03T14:55:13Z</time>
      </trkpt>
      <trkpt lat="49.88207" lon="2.00716">
        <ele>65.1</ele>
        <time>2023-05-03T14:55:14Z</time>
      </trkpt>
      <trkpt lat="49.88208" lon="2.00717">
        <ele>65</ele>
        <time>2023-05-03T14:55:15Z</time>
      </trkpt>
      <trkpt lat="49.88208" lon="2.00719">
        <ele>65</ele>
        <time>2023-05-03T14:55:16Z</time>
      </trkpt>
      <trkpt lat="49.88209" lon="2.00722">
        <ele>64.9</ele>
        <time>2023-05-03T14:55:18Z</time>
      </trkpt>
      <trkpt lat="49.8821" lon="2.00723">
        <ele>64.9</ele>
        <time>2023-05-03T14:55:19Z</time>
      </trkpt>
      <trkpt lat="49.8821" lon="2.00724">
        <ele>64.9</ele>
        <time>2023-05-03T14:55:20Z</time>
      </trkpt>
      <trkpt lat="49.88211" lon="2.00727">
        <ele>64.9</ele>
        <time>2023-05-03T14:55:21Z</time>
      </trkpt>
      <trkpt lat="49.88212" lon="2.00728">
        <ele>64.9</ele>
        <time>2023-05-03T14:55:22Z</time>
      </trkpt>
      <trkpt lat="49.88212" lon="2.00729">
        <ele>64.8</ele>
        <time>2023-05-03T14:55:23Z</time>
      </trkpt>
      <trkpt lat="49.88213" lon="2.00732">
        <ele>64.8</ele>
        <time>2023-05-03T14:55:25Z</time>
      </trkpt>
      <trkpt lat="49.88214" lon="2.00733">
        <ele>64.8</ele>
        <time>2023-05-03T14:55:26Z</time>
      </trkpt>
      <trkpt lat="49.88214" lon="2.00734">
        <ele>64.8</ele>
        <time>2023-05-03T14:55:27Z</time>
      </trkpt>
      <trkpt lat="49.88215" lon="2.00737">
        <ele>64.8</ele>
        <time>2023-05-03T14:55:28Z</time>
      </trkpt>
      <trkpt lat="49.88216" lon="2.00738">
        <ele>64.8</ele>
        <time>2023-05-03T14:55:29Z</time>
      </trkpt>
      <trkpt lat="49.88216" lon="2.00739">
        <ele>64.8</ele>
        <time>2023-05-03T14:55:30Z</time>
      </trkpt>
      <trkpt lat="49.88217" lon="2.00741">
        <ele>64.8</ele>
        <time>2023-05-03T14:55:32Z</time>
      </trkpt>
      <trkpt lat="49.88217" lon="2.00742">
        <ele>64.8</ele>
        <time>2023-05-03T14:55:33Z</time>
      </trkpt>
      <trkpt lat="49.88218" lon="2.00744">
        <ele>64.7</ele>
        <time>2023-05-03T14:55:34Z</time>
      </trkpt>
      <trkpt lat="49.88218" lon="2.00745">
        <ele>64.7</ele>
        <time>2023-05-03T14:55:35Z</time>
      </trkpt>
      <trkpt lat="49.88219" lon="2.00747">
        <ele>64.7</ele>
        <time>2023-05-03T14:55:36Z</time>
      </trkpt>
      <trkpt lat="49.88219" lon="2.00749">
        <ele>64.7</ele>
        <time>2023-05-03T14:55:37Z</time>
      </trkpt>
      <trkpt lat="49.8822" lon="2.00751">
        <ele>64.7</ele>
        <time>2023-05-03T14:55:38Z</time>
      </trkpt>
      <trkpt lat="49.8822" lon="2.00752">
        <ele>64.7</ele>
        <time>2023-05-03T14:55:40Z</time>
      </trkpt>
      <trkpt lat="49.88221" lon="2.00754">
        <ele>64.7</ele>
        <time>2023-05-03T14:55:41Z</time>
      </trkpt>
      <trkpt lat="49.88222" lon="2.00755">
        <ele>64.7</ele>
        <time>2023-05-03T14:55:42Z</time>
      </trkpt>
      <trkpt lat="49.88222" lon="2.00757">
        <ele>64.6</ele>
        <time>2023-05-03T14:55:43Z</time>
      </trkpt>
      <trkpt lat="49.88222" lon="2.00759">
        <ele>64.6</ele>
        <time>2023-05-03T14:55:44Z</time>
      </trkpt>
      <trkpt lat="49.88222" lon="2.0076">
        <ele>64.6</ele>
        <time>2023-05-03T14:55:45Z</time>
      </trkpt>
      <trkpt lat="49.88222" lon="2.00762">
        <ele>64.6</ele>
        <time>2023-05-03T14:55:47Z</time>
      </trkpt>
      <trkpt lat="49.88223" lon="2.00764">
        <ele>64.6</ele>
        <time>2023-05-03T14:55:48Z</time>
      </trkpt>
      <trkpt lat="49.88223" lon="2.00765">
        <ele>64.5</ele>
        <time>2023-05-03T14:55:49Z</time>
      </trkpt>
      <trkpt lat="49.88224" lon="2.00766">
        <ele>64.5</ele>
        <time>2023-05-03T14:55:50Z</time>
      </trkpt>
      <trkpt lat="49.88225" lon="2.00768">
        <ele>64.5</ele>
        <time>2023-05-03T14:55:51Z</time>
      </trkpt>
      <trkpt lat="49.88225" lon="2.00769">
        <ele>64.5</ele>
        <time>2023-05-03T14:55:52Z</time>
      </trkpt>
      <trkpt lat="49.88225" lon="2.00771">
        <ele>64.5</ele>
        <time>2023-05-03T14:55:53Z</time>
      </trkpt>
      <trkpt lat="49.88226" lon="2.00773">
        <ele>64.4</ele>
        <time>2023-05-03T14:55:55Z</time>
      </trkpt>
      <trkpt lat="49.88226" lon="2.00774">
        <ele>64.4</ele>
        <time>2023-05-03T14:55:56Z</time>
      </trkpt>
      <trkpt lat="49.88227" lon="2.00776">
        <ele>64.4</ele>
        <time>2023-05-03T14:55:57Z</time>
      </trkpt>
      <trkpt lat="49.88228" lon="2.00779">
        <ele>64.4</ele>
        <time>2023-05-03T14:55:58Z</time>
      </trkpt>
      <trkpt lat="49.88228" lon="2.0078">
        <ele>64.4</ele>
        <time>2023-05-03T14:55:59Z</time>
      </trkpt>
      <trkpt lat="49.88228" lon="2.00781">
        <ele>64.4</ele>
        <time>2023-05-03T14:56:00Z</time>
      </trkpt>
      <trkpt lat="49.88229" lon="2.00783">
        <ele>64.3</ele>
        <time>2023-05-03T14:56:02Z</time>
      </trkpt>
      <trkpt lat="49.88229" lon="2.00784">
        <ele>64.3</ele>
        <time>2023-05-03T14:56:03Z</time>
      </trkpt>
      <trkpt lat="49.8823" lon="2.00785">
        <ele>64.3</ele>
        <time>2023-05-03T14:56:04Z</time>
      </trkpt>
      <trkpt lat="49.8823" lon="2.00787">
        <ele>64.3</ele>
        <time>2023-05-03T14:56:05Z</time>
      </trkpt>
      <trkpt lat="49.88231" lon="2.00788">
        <ele>64.3</ele>
        <time>2023-05-03T14:56:06Z</time>
      </trkpt>
      <trkpt lat="49.88231" lon="2.0079">
        <ele>64.3</ele>
        <time>2023-05-03T14:56:08Z</time>
      </trkpt>
      <trkpt lat="49.88232" lon="2.00791">
        <ele>64.3</ele>
        <time>2023-05-03T14:56:09Z</time>
      </trkpt>
      <trkpt lat="49.88233" lon="2.00793">
        <ele>64.2</ele>
        <time>2023-05-03T14:56:10Z</time>
      </trkpt>
      <trkpt lat="49.88234" lon="2.00794">
        <ele>64.2</ele>
        <time>2023-05-03T14:56:11Z</time>
      </trkpt>
      <trkpt lat="49.88234" lon="2.00795">
        <ele>64.2</ele>
        <time>2023-05-03T14:56:12Z</time>
      </trkpt>
      <trkpt lat="49.88235" lon="2.00797">
        <ele>64.2</ele>
        <time>2023-05-03T14:56:13Z</time>
      </trkpt>
      <trkpt lat="49.88236" lon="2.00798">
        <ele>64.1</ele>
        <time>2023-05-03T14:56:14Z</time>
      </trkpt>
      <trkpt lat="49.88237" lon="2.00801">
        <ele>64.1</ele>
        <time>2023-05-03T14:56:15Z</time>
      </trkpt>
      <trkpt lat="49.88237" lon="2.00802">
        <ele>64.1</ele>
        <time>2023-05-03T14:56:17Z</time>
      </trkpt>
      <trkpt lat="49.88238" lon="2.00803">
        <ele>64</ele>
        <time>2023-05-03T14:56:18Z</time>
      </trkpt>
      <trkpt lat="49.88238" lon="2.00805">
        <ele>64</ele>
        <time>2023-05-03T14:56:19Z</time>
      </trkpt>
      <trkpt lat="49.88239" lon="2.00806">
        <ele>64</ele>
        <time>2023-05-03T14:56:20Z</time>
      </trkpt>
      <trkpt lat="49.88239" lon="2.00807">
        <ele>63.9</ele>
        <time>2023-05-03T14:56:21Z</time>
      </trkpt>
      <trkpt lat="49.8824" lon="2.00809">
        <ele>63.9</ele>
        <time>2023-05-03T14:56:22Z</time>
      </trkpt>
      <trkpt lat="49.8824" lon="2.00811">
        <ele>63.9</ele>
        <time>2023-05-03T14:56:23Z</time>
      </trkpt>
      <trkpt lat="49.88241" lon="2.00813">
        <ele>63.8</ele>
        <time>2023-05-03T14:56:25Z</time>
      </trkpt>
      <trkpt lat="49.88241" lon="2.00815">
        <ele>63.8</ele>
        <time>2023-05-03T14:56:26Z</time>
      </trkpt>
      <trkpt lat="49.88241" lon="2.00817">
        <ele>63.8</ele>
        <time>2023-05-03T14:56:27Z</time>
      </trkpt>
      <trkpt lat="49.88242" lon="2.00818">
        <ele>63.7</ele>
        <time>2023-05-03T14:56:28Z</time>
      </trkpt>
      <trkpt lat="49.88243" lon="2.00821">
        <ele>63.7</ele>
        <time>2023-05-03T14:56:29Z</time>
      </trkpt>
      <trkpt lat="49.88243" lon="2.00822">
        <ele>63.7</ele>
        <time>2023-05-03T14:56:30Z</time>
      </trkpt>
      <trkpt lat="49.88244" lon="2.00823">
        <ele>63.6</ele>
        <time>2023-05-03T14:56:31Z</time>
      </trkpt>
      <trkpt lat="49.88245" lon="2.00826">
        <ele>63.6</ele>
        <time>2023-05-03T14:56:33Z</time>
      </trkpt>
      <trkpt lat="49.88246" lon="2.00828">
        <ele>63.6</ele>
        <time>2023-05-03T14:56:34Z</time>
      </trkpt>
      <trkpt lat="49.88246" lon="2.00831">
        <ele>63.6</ele>
        <time>2023-05-03T14:56:35Z</time>
      </trkpt>
      <trkpt lat="49.88247" lon="2.00832">
        <ele>63.5</ele>
        <time>2023-05-03T14:56:36Z</time>
      </trkpt>
      <trkpt lat="49.88247" lon="2.00833">
        <ele>63.5</ele>
        <time>2023-05-03T14:56:37Z</time>
      </trkpt>
      <trkpt lat="49.88248" lon="2.00835">
        <ele>63.5</ele>
        <time>2023-05-03T14:56:38Z</time>
      </trkpt>
      <trkpt lat="49.88249" lon="2.00837">
        <ele>63.5</ele>
        <time>2023-05-03T14:56:40Z</time>
      </trkpt>
      <trkpt lat="49.88249" lon="2.00839">
        <ele>63.5</ele>
        <time>2023-05-03T14:56:41Z</time>
      </trkpt>
      <trkpt lat="49.8825" lon="2.0084">
        <ele>63.5</ele>
        <time>2023-05-03T14:56:42Z</time>
      </trkpt>
      <trkpt lat="49.8825" lon="2.00842">
        <ele>63.4</ele>
        <time>2023-05-03T14:56:43Z</time>
      </trkpt>
      <trkpt lat="49.88251" lon="2.00843">
        <ele>63.4</ele>
        <time>2023-05-03T14:56:44Z</time>
      </trkpt>
      <trkpt lat="49.88251" lon="2.00845">
        <ele>63.4</ele>
        <time>2023-05-03T14:56:45Z</time>
      </trkpt>
      <trkpt lat="49.88252" lon="2.00848">
        <ele>63.4</ele>
        <time>2023-05-03T14:56:47Z</time>
      </trkpt>
      <trkpt lat="49.88254" lon="2.0085">
        <ele>63.4</ele>
        <time>2023-05-03T14:56:48Z</time>
      </trkpt>
      <trkpt lat="49.88254" lon="2.00851">
        <ele>63.4</ele>
        <time>2023-05-03T14:56:49Z</time>
      </trkpt>
      <trkpt lat="49.88255" lon="2.00852">
        <ele>63.3</ele>
        <time>2023-05-03T14:56:50Z</time>
      </trkpt>
      <trkpt lat="49.88256" lon="2.00854">
        <ele>63.3</ele>
        <time>2023-05-03T14:56:52Z</time>
      </trkpt>
      <trkpt lat="49.88257" lon="2.00855">
        <ele>63.3</ele>
        <time>2023-05-03T14:56:53Z</time>
      </trkpt>
      <trkpt lat="49.88257" lon="2.00857">
        <ele>63.3</ele>
        <time>2023-05-03T14:56:54Z</time>
      </trkpt>
      <trkpt lat="49.88258" lon="2.00858">
        <ele>63.2</ele>
        <time>2023-05-03T14:56:55Z</time>
      </trkpt>
      <trkpt lat="49.88259" lon="2.0086">
        <ele>63.2</ele>
        <time>2023-05-03T14:56:56Z</time>
      </trkpt>
      <trkpt lat="49.88259" lon="2.00861">
        <ele>63.2</ele>
        <time>2023-05-03T14:56:57Z</time>
      </trkpt>
      <trkpt lat="49.8826" lon="2.00863">
        <ele>63.2</ele>
        <time>2023-05-03T14:56:59Z</time>
      </trkpt>
      <trkpt lat="49.8826" lon="2.00864">
        <ele>63.2</ele>
        <time>2023-05-03T14:57:00Z</time>
      </trkpt>
      <trkpt lat="49.88261" lon="2.00866">
        <ele>63.1</ele>
        <time>2023-05-03T14:57:01Z</time>
      </trkpt>
      <trkpt lat="49.88262" lon="2.00867">
        <ele>63.1</ele>
        <time>2023-05-03T14:57:02Z</time>
      </trkpt>
      <trkpt lat="49.88262" lon="2.00868">
        <ele>63.1</ele>
        <time>2023-05-03T14:57:03Z</time>
      </trkpt>
      <trkpt lat="49.88263" lon="2.0087">
        <ele>63.1</ele>
        <time>2023-05-03T14:57:04Z</time>
      </trkpt>
      <trkpt lat="49.88263" lon="2.00871">
        <ele>63.1</ele>
        <time>2023-05-03T14:57:05Z</time>
      </trkpt>
      <trkpt lat="49.88264" lon="2.00873">
        <ele>63</ele>
        <time>2023-05-03T14:57:07Z</time>
      </trkpt>
      <trkpt lat="49.88265" lon="2.00876">
        <ele>63</ele>
        <time>2023-05-03T14:57:08Z</time>
      </trkpt>
      <trkpt lat="49.88266" lon="2.00877">
        <ele>63</ele>
        <time>2023-05-03T14:57:09Z</time>
      </trkpt>
      <trkpt lat="49.88266" lon="2.00878">
        <ele>62.9</ele>
        <time>2023-05-03T14:57:10Z</time>
      </trkpt>
      <trkpt lat="49.88267" lon="2.00881">
        <ele>62.9</ele>
        <time>2023-05-03T14:57:11Z</time>
      </trkpt>
      <trkpt lat="49.88268" lon="2.00882">
        <ele>62.9</ele>
        <time>2023-05-03T14:57:12Z</time>
      </trkpt>
      <trkpt lat="49.88268" lon="2.00883">
        <ele>62.8</ele>
        <time>2023-05-03T14:57:13Z</time>
      </trkpt>
      <trkpt lat="49.8827" lon="2.00886">
        <ele>62.8</ele>
        <time>2023-05-03T14:57:15Z</time>
      </trkpt>
      <trkpt lat="49.8827" lon="2.00887">
        <ele>62.8</ele>
        <time>2023-05-03T14:57:16Z</time>
      </trkpt>
      <trkpt lat="49.88271" lon="2.00888">
        <ele>62.7</ele>
        <time>2023-05-03T14:57:17Z</time>
      </trkpt>
      <trkpt lat="49.88271" lon="2.0089">
        <ele>62.7</ele>
        <time>2023-05-03T14:57:18Z</time>
      </trkpt>
      <trkpt lat="49.88272" lon="2.00891">
        <ele>62.7</ele>
        <time>2023-05-03T14:57:19Z</time>
      </trkpt>
      <trkpt lat="49.88272" lon="2.00893">
        <ele>62.6</ele>
        <time>2023-05-03T14:57:20Z</time>
      </trkpt>
      <trkpt lat="49.88273" lon="2.00894">
        <ele>62.6</ele>
        <time>2023-05-03T14:57:22Z</time>
      </trkpt>
      <trkpt lat="49.88273" lon="2.00896">
        <ele>62.6</ele>
        <time>2023-05-03T14:57:23Z</time>
      </trkpt>
      <trkpt lat="49.88274" lon="2.00897">
        <ele>62.6</ele>
        <time>2023-05-03T14:57:24Z</time>
      </trkpt>
      <trkpt lat="49.88274" lon="2.00899">
        <ele>62.5</ele>
        <time>2023-05-03T14:57:25Z</time>
      </trkpt>
      <trkpt lat="49.88275" lon="2.009">
        <ele>62.5</ele>
        <time>2023-05-03T14:57:26Z</time>
      </trkpt>
      <trkpt lat="49.88274" lon="2.00902">
        <ele>62.5</ele>
        <time>2023-05-03T14:57:27Z</time>
      </trkpt>
      <trkpt lat="49.88275" lon="2.00904">
        <ele>62.5</ele>
        <time>2023-05-03T14:57:29Z</time>
      </trkpt>
      <trkpt lat="49.88275" lon="2.00905">
        <ele>62.4</ele>
        <time>2023-05-03T14:57:30Z</time>
      </trkpt>
      <trkpt lat="49.88276" lon="2.00907">
        <ele>62.4</ele>
        <time>2023-05-03T14:57:31Z</time>
      </trkpt>
      <trkpt lat="49.88276" lon="2.00908">
        <ele>62.4</ele>
        <time>2023-05-03T14:57:32Z</time>
      </trkpt>
      <trkpt lat="49.88277" lon="2.00909">
        <ele>62.4</ele>
        <time>2023-05-03T14:57:33Z</time>
      </trkpt>
      <trkpt lat="49.88277" lon="2.0091">
        <ele>62.4</ele>
        <time>2023-05-03T14:57:34Z</time>
      </trkpt>
      <trkpt lat="49.88277" lon="2.00911">
        <ele>62.3</ele>
        <time>2023-05-03T14:57:36Z</time>
      </trkpt>
      <trkpt lat="49.88278" lon="2.00913">
        <ele>62.3</ele>
        <time>2023-05-03T14:57:37Z</time>
      </trkpt>
      <trkpt lat="49.88279" lon="2.00914">
        <ele>62.3</ele>
        <time>2023-05-03T14:57:38Z</time>
      </trkpt>
      <trkpt lat="49.88279" lon="2.00915">
        <ele>62.3</ele>
        <time>2023-05-03T14:57:39Z</time>
      </trkpt>
      <trkpt lat="49.88279" lon="2.00917">
        <ele>62.3</ele>
        <time>2023-05-03T14:57:41Z</time>
      </trkpt>
      <trkpt lat="49.8828" lon="2.00918">
        <ele>62.2</ele>
        <time>2023-05-03T14:57:42Z</time>
      </trkpt>
      <trkpt lat="49.88281" lon="2.0092">
        <ele>62.2</ele>
        <time>2023-05-03T14:57:44Z</time>
      </trkpt>
      <trkpt lat="49.88281" lon="2.00921">
        <ele>62.2</ele>
        <time>2023-05-03T14:57:45Z</time>
      </trkpt>
      <trkpt lat="49.88282" lon="2.00923">
        <ele>62.2</ele>
        <time>2023-05-03T14:57:46Z</time>
      </trkpt>
      <trkpt lat="49.88282" lon="2.00925">
        <ele>62.1</ele>
        <time>2023-05-03T14:57:47Z</time>
      </trkpt>
      <trkpt lat="49.88283" lon="2.00927">
        <ele>62.1</ele>
        <time>2023-05-03T14:57:49Z</time>
      </trkpt>
      <trkpt lat="49.88284" lon="2.00928">
        <ele>62</ele>
        <time>2023-05-03T14:57:50Z</time>
      </trkpt>
      <trkpt lat="49.88285" lon="2.0093">
        <ele>62</ele>
        <time>2023-05-03T14:57:51Z</time>
      </trkpt>
      <trkpt lat="49.88286" lon="2.00932">
        <ele>62</ele>
        <time>2023-05-03T14:57:53Z</time>
      </trkpt>
      <trkpt lat="49.88287" lon="2.00934">
        <ele>61.9</ele>
        <time>2023-05-03T14:57:54Z</time>
      </trkpt>
      <trkpt lat="49.88287" lon="2.00936">
        <ele>61.9</ele>
        <time>2023-05-03T14:57:55Z</time>
      </trkpt>
      <trkpt lat="49.88288" lon="2.00937">
        <ele>61.8</ele>
        <time>2023-05-03T14:57:56Z</time>
      </trkpt>
      <trkpt lat="49.88288" lon="2.0094">
        <ele>61.8</ele>
        <time>2023-05-03T14:57:57Z</time>
      </trkpt>
      <trkpt lat="49.88289" lon="2.00941">
        <ele>61.7</ele>
        <time>2023-05-03T14:57:58Z</time>
      </trkpt>
      <trkpt lat="49.88289" lon="2.00943">
        <ele>61.7</ele>
        <time>2023-05-03T14:57:59Z</time>
      </trkpt>
      <trkpt lat="49.88289" lon="2.00944">
        <ele>61.7</ele>
        <time>2023-05-03T14:58:00Z</time>
      </trkpt>
      <trkpt lat="49.8829" lon="2.00947">
        <ele>61.6</ele>
        <time>2023-05-03T14:58:01Z</time>
      </trkpt>
      <trkpt lat="49.8829" lon="2.0095">
        <ele>61.6</ele>
        <time>2023-05-03T14:58:03Z</time>
      </trkpt>
      <trkpt lat="49.88291" lon="2.00951">
        <ele>61.6</ele>
        <time>2023-05-03T14:58:04Z</time>
      </trkpt>
      <trkpt lat="49.88291" lon="2.00952">
        <ele>61.5</ele>
        <time>2023-05-03T14:58:05Z</time>
      </trkpt>
      <trkpt lat="49.88291" lon="2.00954">
        <ele>61.5</ele>
        <time>2023-05-03T14:58:06Z</time>
      </trkpt>
      <trkpt lat="49.88292" lon="2.00955">
        <ele>61.5</ele>
        <time>2023-05-03T14:58:07Z</time>
      </trkpt>
      <trkpt lat="49.88292" lon="2.00957">
        <ele>61.5</ele>
        <time>2023-05-03T14:58:08Z</time>
      </trkpt>
      <trkpt lat="49.88293" lon="2.00958">
        <ele>61.4</ele>
        <time>2023-05-03T14:58:09Z</time>
      </trkpt>
      <trkpt lat="49.88293" lon="2.0096">
        <ele>61.4</ele>
        <time>2023-05-03T14:58:10Z</time>
      </trkpt>
      <trkpt lat="49.88294" lon="2.00962">
        <ele>61.4</ele>
        <time>2023-05-03T14:58:11Z</time>
      </trkpt>
      <trkpt lat="49.88295" lon="2.00963">
        <ele>61.4</ele>
        <time>2023-05-03T14:58:13Z</time>
      </trkpt>
      <trkpt lat="49.88295" lon="2.00965">
        <ele>61.3</ele>
        <time>2023-05-03T14:58:14Z</time>
      </trkpt>
      <trkpt lat="49.88296" lon="2.00968">
        <ele>61.3</ele>
        <time>2023-05-03T14:58:15Z</time>
      </trkpt>
      <trkpt lat="49.88296" lon="2.0097">
        <ele>61.3</ele>
        <time>2023-05-03T14:58:16Z</time>
      </trkpt>
      <trkpt lat="49.88297" lon="2.00971">
        <ele>61.3</ele>
        <time>2023-05-03T14:58:17Z</time>
      </trkpt>
      <trkpt lat="49.88298" lon="2.00974">
        <ele>61.2</ele>
        <time>2023-05-03T14:58:19Z</time>
      </trkpt>
      <trkpt lat="49.88299" lon="2.00976">
        <ele>61.2</ele>
        <time>2023-05-03T14:58:20Z</time>
      </trkpt>
      <trkpt lat="49.88299" lon="2.00978">
        <ele>61.2</ele>
        <time>2023-05-03T14:58:21Z</time>
      </trkpt>
      <trkpt lat="49.883" lon="2.0098">
        <ele>61.1</ele>
        <time>2023-05-03T14:58:22Z</time>
      </trkpt>
      <trkpt lat="49.88301" lon="2.00983">
        <ele>61.1</ele>
        <time>2023-05-03T14:58:23Z</time>
      </trkpt>
      <trkpt lat="49.88301" lon="2.00984">
        <ele>61.1</ele>
        <time>2023-05-03T14:58:25Z</time>
      </trkpt>
      <trkpt lat="49.88302" lon="2.00985">
        <ele>61</ele>
        <time>2023-05-03T14:58:26Z</time>
      </trkpt>
      <trkpt lat="49.88303" lon="2.00988">
        <ele>61</ele>
        <time>2023-05-03T14:58:27Z</time>
      </trkpt>
      <trkpt lat="49.88303" lon="2.00989">
        <ele>61</ele>
        <time>2023-05-03T14:58:28Z</time>
      </trkpt>
      <trkpt lat="49.88303" lon="2.0099">
        <ele>61</ele>
        <time>2023-05-03T14:58:29Z</time>
      </trkpt>
      <trkpt lat="49.88304" lon="2.00992">
        <ele>60.9</ele>
        <time>2023-05-03T14:58:30Z</time>
      </trkpt>
      <trkpt lat="49.88304" lon="2.00993">
        <ele>60.9</ele>
        <time>2023-05-03T14:58:31Z</time>
      </trkpt>
      <trkpt lat="49.88304" lon="2.00995">
        <ele>60.8</ele>
        <time>2023-05-03T14:58:32Z</time>
      </trkpt>
      <trkpt lat="49.88305" lon="2.00998">
        <ele>60.8</ele>
        <time>2023-05-03T14:58:33Z</time>
      </trkpt>
      <trkpt lat="49.88306" lon="2.00999">
        <ele>60.7</ele>
        <time>2023-05-03T14:58:35Z</time>
      </trkpt>
      <trkpt lat="49.88306" lon="2.01">
        <ele>60.7</ele>
        <time>2023-05-03T14:58:36Z</time>
      </trkpt>
      <trkpt lat="49.88307" lon="2.01003">
        <ele>60.7</ele>
        <time>2023-05-03T14:58:37Z</time>
      </trkpt>
      <trkpt lat="49.88307" lon="2.01004">
        <ele>60.6</ele>
        <time>2023-05-03T14:58:38Z</time>
      </trkpt>
      <trkpt lat="49.88307" lon="2.01005">
        <ele>60.6</ele>
        <time>2023-05-03T14:58:39Z</time>
      </trkpt>
      <trkpt lat="49.88308" lon="2.01008">
        <ele>60.6</ele>
        <time>2023-05-03T14:58:41Z</time>
      </trkpt>
      <trkpt lat="49.88309" lon="2.0101">
        <ele>60.5</ele>
        <time>2023-05-03T14:58:42Z</time>
      </trkpt>
      <trkpt lat="49.8831" lon="2.01012">
        <ele>60.5</ele>
        <time>2023-05-03T14:58:43Z</time>
      </trkpt>
      <trkpt lat="49.8831" lon="2.01014">
        <ele>60.5</ele>
        <time>2023-05-03T14:58:44Z</time>
      </trkpt>
      <trkpt lat="49.88311" lon="2.01016">
        <ele>60.4</ele>
        <time>2023-05-03T14:58:46Z</time>
      </trkpt>
      <trkpt lat="49.88312" lon="2.01018">
        <ele>60.4</ele>
        <time>2023-05-03T14:58:47Z</time>
      </trkpt>
      <trkpt lat="49.88312" lon="2.0102">
        <ele>60.4</ele>
        <time>2023-05-03T14:58:48Z</time>
      </trkpt>
      <trkpt lat="49.88313" lon="2.01021">
        <ele>60.4</ele>
        <time>2023-05-03T14:58:49Z</time>
      </trkpt>
      <trkpt lat="49.88314" lon="2.01024">
        <ele>60.3</ele>
        <time>2023-05-03T14:58:51Z</time>
      </trkpt>
      <trkpt lat="49.88315" lon="2.01026">
        <ele>60.3</ele>
        <time>2023-05-03T14:58:52Z</time>
      </trkpt>
      <trkpt lat="49.88315" lon="2.01028">
        <ele>60.3</ele>
        <time>2023-05-03T14:58:53Z</time>
      </trkpt>
      <trkpt lat="49.88315" lon="2.0103">
        <ele>60.2</ele>
        <time>2023-05-03T14:58:54Z</time>
      </trkpt>
      <trkpt lat="49.88315" lon="2.01032">
        <ele>60.2</ele>
        <time>2023-05-03T14:58:55Z</time>
      </trkpt>
      <trkpt lat="49.88316" lon="2.01034">
        <ele>60.2</ele>
        <time>2023-05-03T14:58:57Z</time>
      </trkpt>
      <trkpt lat="49.88316" lon="2.01036">
        <ele>60.1</ele>
        <time>2023-05-03T14:58:58Z</time>
      </trkpt>
      <trkpt lat="49.88316" lon="2.01038">
        <ele>60.1</ele>
        <time>2023-05-03T14:58:59Z</time>
      </trkpt>
      <trkpt lat="49.88316" lon="2.0104">
        <ele>60.1</ele>
        <time>2023-05-03T14:59:00Z</time>
      </trkpt>
      <trkpt lat="49.88317" lon="2.01043">
        <ele>60</ele>
        <time>2023-05-03T14:59:01Z</time>
      </trkpt>
      <trkpt lat="49.88317" lon="2.01044">
        <ele>60</ele>
        <time>2023-05-03T14:59:02Z</time>
      </trkpt>
      <trkpt lat="49.88317" lon="2.01045">
        <ele>60</ele>
        <time>2023-05-03T14:59:03Z</time>
      </trkpt>
      <trkpt lat="49.88317" lon="2.01047">
        <ele>60</ele>
        <time>2023-05-03T14:59:04Z</time>
      </trkpt>
      <trkpt lat="49.88318" lon="2.01049">
        <ele>60</ele>
        <time>2023-05-03T14:59:05Z</time>
      </trkpt>
      <trkpt lat="49.88318" lon="2.01052">
        <ele>59.9</ele>
        <time>2023-05-03T14:59:07Z</time>
      </trkpt>
      <trkpt lat="49.88319" lon="2.01055">
        <ele>59.8</ele>
        <time>2023-05-03T14:59:08Z</time>
      </trkpt>
      <trkpt lat="49.8832" lon="2.01056">
        <ele>59.8</ele>
        <time>2023-05-03T14:59:10Z</time>
      </trkpt>
      <trkpt lat="49.8832" lon="2.01058">
        <ele>59.8</ele>
        <time>2023-05-03T14:59:11Z</time>
      </trkpt>
      <trkpt lat="49.88321" lon="2.01059">
        <ele>59.7</ele>
        <time>2023-05-03T14:59:12Z</time>
      </trkpt>
      <trkpt lat="49.88322" lon="2.01061">
        <ele>59.7</ele>
        <time>2023-05-03T14:59:13Z</time>
      </trkpt>
      <trkpt lat="49.88323" lon="2.01063">
        <ele>59.6</ele>
        <time>2023-05-03T14:59:14Z</time>
      </trkpt>
      <trkpt lat="49.88323" lon="2.01064">
        <ele>59.6</ele>
        <time>2023-05-03T14:59:15Z</time>
      </trkpt>
      <trkpt lat="49.88324" lon="2.01065">
        <ele>59.6</ele>
        <time>2023-05-03T14:59:16Z</time>
      </trkpt>
      <trkpt lat="49.88325" lon="2.01068">
        <ele>59.5</ele>
        <time>2023-05-03T14:59:18Z</time>
      </trkpt>
      <trkpt lat="49.88325" lon="2.01069">
        <ele>59.5</ele>
        <time>2023-05-03T14:59:19Z</time>
      </trkpt>
      <trkpt lat="49.88326" lon="2.0107">
        <ele>59.5</ele>
        <time>2023-05-03T14:59:20Z</time>
      </trkpt>
      <trkpt lat="49.88326" lon="2.01072">
        <ele>59.4</ele>
        <time>2023-05-03T14:59:21Z</time>
      </trkpt>
      <trkpt lat="49.88327" lon="2.01074">
        <ele>59.4</ele>
        <time>2023-05-03T14:59:22Z</time>
      </trkpt>
      <trkpt lat="49.88328" lon="2.01077">
        <ele>59.3</ele>
        <time>2023-05-03T14:59:24Z</time>
      </trkpt>
      <trkpt lat="49.88328" lon="2.01078">
        <ele>59.3</ele>
        <time>2023-05-03T14:59:25Z</time>
      </trkpt>
      <trkpt lat="49.88329" lon="2.01081">
        <ele>59.3</ele>
        <time>2023-05-03T14:59:27Z</time>
      </trkpt>
      <trkpt lat="49.8833" lon="2.01083">
        <ele>59.3</ele>
        <time>2023-05-03T14:59:28Z</time>
      </trkpt>
      <trkpt lat="49.8833" lon="2.01084">
        <ele>59.3</ele>
        <time>2023-05-03T14:59:29Z</time>
      </trkpt>
      <trkpt lat="49.88331" lon="2.01086">
        <ele>59.2</ele>
        <time>2023-05-03T14:59:30Z</time>
      </trkpt>
      <trkpt lat="49.88332" lon="2.01088">
        <ele>59.2</ele>
        <time>2023-05-03T14:59:31Z</time>
      </trkpt>
      <trkpt lat="49.88332" lon="2.01091">
        <ele>59.2</ele>
        <time>2023-05-03T14:59:32Z</time>
      </trkpt>
      <trkpt lat="49.88333" lon="2.01093">
        <ele>59.2</ele>
        <time>2023-05-03T14:59:33Z</time>
      </trkpt>
      <trkpt lat="49.88333" lon="2.01094">
        <ele>59.2</ele>
        <time>2023-05-03T14:59:34Z</time>
      </trkpt>
      <trkpt lat="49.88334" lon="2.01098">
        <ele>59.2</ele>
        <time>2023-05-03T14:59:35Z</time>
      </trkpt>
      <trkpt lat="49.88334" lon="2.01099">
        <ele>59.2</ele>
        <time>2023-05-03T14:59:37Z</time>
      </trkpt>
      <trkpt lat="49.88334" lon="2.01101">
        <ele>59.2</ele>
        <time>2023-05-03T14:59:38Z</time>
      </trkpt>
      <trkpt lat="49.88334" lon="2.01102">
        <ele>59.2</ele>
        <time>2023-05-03T14:59:39Z</time>
      </trkpt>
      <trkpt lat="49.88335" lon="2.01104">
        <ele>59.2</ele>
        <time>2023-05-03T14:59:40Z</time>
      </trkpt>
      <trkpt lat="49.88335" lon="2.01107">
        <ele>59.1</ele>
        <time>2023-05-03T14:59:41Z</time>
      </trkpt>
      <trkpt lat="49.88336" lon="2.01109">
        <ele>59.1</ele>
        <time>2023-05-03T14:59:43Z</time>
      </trkpt>
      <trkpt lat="49.88336" lon="2.01111">
        <ele>59.1</ele>
        <time>2023-05-03T14:59:44Z</time>
      </trkpt>
      <trkpt lat="49.88336" lon="2.01112">
        <ele>59.1</ele>
        <time>2023-05-03T14:59:45Z</time>
      </trkpt>
      <trkpt lat="49.88336" lon="2.01114">
        <ele>59.1</ele>
        <time>2023-05-03T14:59:46Z</time>
      </trkpt>
      <trkpt lat="49.88336" lon="2.01116">
        <ele>59.1</ele>
        <time>2023-05-03T14:59:47Z</time>
      </trkpt>
      <trkpt lat="49.88337" lon="2.01118">
        <ele>59.1</ele>
        <time>2023-05-03T14:59:48Z</time>
      </trkpt>
      <trkpt lat="49.88338" lon="2.01121">
        <ele>59.1</ele>
        <time>2023-05-03T14:59:50Z</time>
      </trkpt>
      <trkpt lat="49.88338" lon="2.01122">
        <ele>59.1</ele>
        <time>2023-05-03T14:59:51Z</time>
      </trkpt>
      <trkpt lat="49.88338" lon="2.01124">
        <ele>59.1</ele>
        <time>2023-05-03T14:59:52Z</time>
      </trkpt>
      <trkpt lat="49.88339" lon="2.01126">
        <ele>59.1</ele>
        <time>2023-05-03T14:59:54Z</time>
      </trkpt>
      <trkpt lat="49.8834" lon="2.01127">
        <ele>59.1</ele>
        <time>2023-05-03T14:59:55Z</time>
      </trkpt>
      <trkpt lat="49.8834" lon="2.01129">
        <ele>59.1</ele>
        <time>2023-05-03T14:59:56Z</time>
      </trkpt>
      <trkpt lat="49.88341" lon="2.0113">
        <ele>59.1</ele>
        <time>2023-05-03T14:59:57Z</time>
      </trkpt>
      <trkpt lat="49.88341" lon="2.01132">
        <ele>59.1</ele>
        <time>2023-05-03T14:59:58Z</time>
      </trkpt>
      <trkpt lat="49.88341" lon="2.01133">
        <ele>59.1</ele>
        <time>2023-05-03T14:59:59Z</time>
      </trkpt>
      <trkpt lat="49.88341" lon="2.01135">
        <ele>59.1</ele>
        <time>2023-05-03T15:00:00Z</time>
      </trkpt>
      <trkpt lat="49.8834" lon="2.01136">
        <ele>59</ele>
        <time>2023-05-03T15:00:01Z</time>
      </trkpt>
      <trkpt lat="49.88339" lon="2.01137">
        <ele>59</ele>
        <time>2023-05-03T15:00:02Z</time>
      </trkpt>
      <trkpt lat="49.88339" lon="2.01139">
        <ele>59</ele>
        <time>2023-05-03T15:00:03Z</time>
      </trkpt>
      <trkpt lat="49.88338" lon="2.0114">
        <ele>59</ele>
        <time>2023-05-03T15:00:05Z</time>
      </trkpt>
      <trkpt lat="49.88337" lon="2.01142">
        <ele>58.9</ele>
        <time>2023-05-03T15:00:06Z</time>
      </trkpt>
      <trkpt lat="49.88335" lon="2.01144">
        <ele>58.9</ele>
        <time>2023-05-03T15:00:07Z</time>
      </trkpt>
      <trkpt lat="49.88334" lon="2.01145">
        <ele>58.9</ele>
        <time>2023-05-03T15:00:08Z</time>
      </trkpt>
      <trkpt lat="49.88333" lon="2.01147">
        <ele>58.9</ele>
        <time>2023-05-03T15:00:09Z</time>
      </trkpt>
      <trkpt lat="49.88332" lon="2.01148">
        <ele>58.8</ele>
        <time>2023-05-03T15:00:11Z</time>
      </trkpt>
      <trkpt lat="49.88331" lon="2.0115">
        <ele>58.8</ele>
        <time>2023-05-03T15:00:12Z</time>
      </trkpt>
      <trkpt lat="49.88329" lon="2.01152">
        <ele>58.8</ele>
        <time>2023-05-03T15:00:13Z</time>
      </trkpt>
      <trkpt lat="49.88329" lon="2.01152">
        <ele>58.8</ele>
        <time>2023-05-03T15:00:14Z</time>
      </trkpt>
      <trkpt lat="49.88328" lon="2.01153">
        <ele>58.7</ele>
        <time>2023-05-03T15:00:15Z</time>
      </trkpt>
      <trkpt lat="49.88326" lon="2.01155">
        <ele>58.7</ele>
        <time>2023-05-03T15:00:16Z</time>
      </trkpt>
      <trkpt lat="49.88326" lon="2.01156">
        <ele>58.7</ele>
        <time>2023-05-03T15:00:17Z</time>
      </trkpt>
      <trkpt lat="49.88325" lon="2.01156">
        <ele>58.7</ele>
        <time>2023-05-03T15:00:18Z</time>
      </trkpt>
      <trkpt lat="49.88324" lon="2.01158">
        <ele>58.6</ele>
        <time>2023-05-03T15:00:19Z</time>
      </trkpt>
      <trkpt lat="49.88323" lon="2.01159">
        <ele>58.6</ele>
        <time>2023-05-03T15:00:21Z</time>
      </trkpt>
      <trkpt lat="49.88322" lon="2.0116">
        <ele>58.6</ele>
        <time>2023-05-03T15:00:22Z</time>
      </trkpt>
      <trkpt lat="49.88321" lon="2.01161">
        <ele>58.6</ele>
        <time>2023-05-03T15:00:23Z</time>
      </trkpt>
      <trkpt lat="49.8832" lon="2.01162">
        <ele>58.6</ele>
        <time>2023-05-03T15:00:24Z</time>
      </trkpt>
      <trkpt lat="49.8832" lon="2.01163">
        <ele>58.5</ele>
        <time>2023-05-03T15:00:25Z</time>
      </trkpt>
      <trkpt lat="49.88319" lon="2.01164">
        <ele>58.5</ele>
        <time>2023-05-03T15:00:26Z</time>
      </trkpt>
      <trkpt lat="49.88318" lon="2.01166">
        <ele>58.5</ele>
        <time>2023-05-03T15:00:28Z</time>
      </trkpt>
      <trkpt lat="49.88317" lon="2.01167">
        <ele>58.5</ele>
        <time>2023-05-03T15:00:29Z</time>
      </trkpt>
      <trkpt lat="49.88317" lon="2.01168">
        <ele>58.5</ele>
        <time>2023-05-03T15:00:30Z</time>
      </trkpt>
      <trkpt lat="49.88316" lon="2.01169">
        <ele>58.4</ele>
        <time>2023-05-03T15:00:31Z</time>
      </trkpt>
      <trkpt lat="49.88315" lon="2.01169">
        <ele>58.4</ele>
        <time>2023-05-03T15:00:33Z</time>
      </trkpt>
      <trkpt lat="49.88314" lon="2.01169">
        <ele>58.4</ele>
        <time>2023-05-03T15:00:34Z</time>
      </trkpt>
      <trkpt lat="49.88314" lon="2.01168">
        <ele>58.4</ele>
        <time>2023-05-03T15:00:36Z</time>
      </trkpt>
      <trkpt lat="49.88314" lon="2.01168">
        <ele>58.4</ele>
        <time>2023-05-03T15:00:37Z</time>
      </trkpt>
      <trkpt lat="49.88314" lon="2.01168">
        <ele>58.4</ele>
        <time>2023-05-03T15:00:38Z</time>
      </trkpt>
      <trkpt lat="49.88315" lon="2.01168">
        <ele>58.4</ele>
        <time>2023-05-03T15:00:40Z</time>
      </trkpt>
      <trkpt lat="49.88315" lon="2.01168">
        <ele>58.4</ele>
        <time>2023-05-03T15:00:41Z</time>
      </trkpt>
      <trkpt lat="49.88314" lon="2.01168">
        <ele>58.4</ele>
        <time>2023-05-03T15:00:43Z</time>
      </trkpt>
      <trkpt lat="49.88314" lon="2.01168">
        <ele>58.4</ele>
        <time>2023-05-03T15:00:44Z</time>
      </trkpt>
      <trkpt lat="49.88314" lon="2.01169">
        <ele>58.4</ele>
        <time>2023-05-03T15:00:45Z</time>
      </trkpt>
      <trkpt lat="49.88313" lon="2.01169">
        <ele>58.3</ele>
        <time>2023-05-03T15:00:46Z</time>
      </trkpt>
      <trkpt lat="49.88313" lon="2.0117">
        <ele>58.3</ele>
        <time>2023-05-03T15:00:47Z</time>
      </trkpt>
      <trkpt lat="49.88313" lon="2.01171">
        <ele>58.3</ele>
        <time>2023-05-03T15:00:48Z</time>
      </trkpt>
      <trkpt lat="49.88312" lon="2.01173">
        <ele>58.3</ele>
        <time>2023-05-03T15:00:50Z</time>
      </trkpt>
      <trkpt lat="49.88312" lon="2.01175">
        <ele>58.3</ele>
        <time>2023-05-03T15:00:51Z</time>
      </trkpt>
      <trkpt lat="49.88312" lon="2.01177">
        <ele>58.2</ele>
        <time>2023-05-03T15:00:52Z</time>
      </trkpt>
      <trkpt lat="49.88311" lon="2.01178">
        <ele>58.2</ele>
        <time>2023-05-03T15:00:53Z</time>
      </trkpt>
      <trkpt lat="49.88311" lon="2.0118">
        <ele>58.2</ele>
        <time>2023-05-03T15:00:54Z</time>
      </trkpt>
      <trkpt lat="49.8831" lon="2.01182">
        <ele>58.1</ele>
        <time>2023-05-03T15:00:56Z</time>
      </trkpt>
      <trkpt lat="49.88309" lon="2.01183">
        <ele>58.1</ele>
        <time>2023-05-03T15:00:57Z</time>
      </trkpt>
      <trkpt lat="49.88308" lon="2.01184">
        <ele>58.1</ele>
        <time>2023-05-03T15:00:58Z</time>
      </trkpt>
      <trkpt lat="49.88308" lon="2.01186">
        <ele>58</ele>
        <time>2023-05-03T15:00:59Z</time>
      </trkpt>
      <trkpt lat="49.88307" lon="2.01187">
        <ele>58</ele>
        <time>2023-05-03T15:01:00Z</time>
      </trkpt>
      <trkpt lat="49.88306" lon="2.01188">
        <ele>58</ele>
        <time>2023-05-03T15:01:01Z</time>
      </trkpt>
      <trkpt lat="49.88305" lon="2.01189">
        <ele>57.9</ele>
        <time>2023-05-03T15:01:02Z</time>
      </trkpt>
      <trkpt lat="49.88304" lon="2.0119">
        <ele>57.9</ele>
        <time>2023-05-03T15:01:03Z</time>
      </trkpt>
      <trkpt lat="49.88303" lon="2.01191">
        <ele>57.8</ele>
        <time>2023-05-03T15:01:04Z</time>
      </trkpt>
      <trkpt lat="49.88301" lon="2.01192">
        <ele>57.8</ele>
        <time>2023-05-03T15:01:06Z</time>
      </trkpt>
      <trkpt lat="49.883" lon="2.01192">
        <ele>57.8</ele>
        <time>2023-05-03T15:01:07Z</time>
      </trkpt>
      <trkpt lat="49.88299" lon="2.01193">
        <ele>57.7</ele>
        <time>2023-05-03T15:01:08Z</time>
      </trkpt>
      <trkpt lat="49.88298" lon="2.01194">
        <ele>57.7</ele>
        <time>2023-05-03T15:01:09Z</time>
      </trkpt>
      <trkpt lat="49.88297" lon="2.01194">
        <ele>57.7</ele>
        <time>2023-05-03T15:01:11Z</time>
      </trkpt>
      <trkpt lat="49.88296" lon="2.01194">
        <ele>57.6</ele>
        <time>2023-05-03T15:01:12Z</time>
      </trkpt>
      <trkpt lat="49.88295" lon="2.01195">
        <ele>57.6</ele>
        <time>2023-05-03T15:01:13Z</time>
      </trkpt>
      <trkpt lat="49.88294" lon="2.01195">
        <ele>57.6</ele>
        <time>2023-05-03T15:01:15Z</time>
      </trkpt>
      <trkpt lat="49.88294" lon="2.01196">
        <ele>57.6</ele>
        <time>2023-05-03T15:01:16Z</time>
      </trkpt>
      <trkpt lat="49.88293" lon="2.01196">
        <ele>57.6</ele>
        <time>2023-05-03T15:01:17Z</time>
      </trkpt>
      <trkpt lat="49.88293" lon="2.01197">
        <ele>57.6</ele>
        <time>2023-05-03T15:01:18Z</time>
      </trkpt>
      <trkpt lat="49.88293" lon="2.01198">
        <ele>57.6</ele>
        <time>2023-05-03T15:01:19Z</time>
      </trkpt>
      <trkpt lat="49.88293" lon="2.01199">
        <ele>57.6</ele>
        <time>2023-05-03T15:01:20Z</time>
      </trkpt>
      <trkpt lat="49.88293" lon="2.012">
        <ele>57.6</ele>
        <time>2023-05-03T15:01:22Z</time>
      </trkpt>
      <trkpt lat="49.88293" lon="2.01201">
        <ele>57.5</ele>
        <time>2023-05-03T15:01:23Z</time>
      </trkpt>
      <trkpt lat="49.88294" lon="2.01201">
        <ele>57.5</ele>
        <time>2023-05-03T15:01:24Z</time>
      </trkpt>
      <trkpt lat="49.88295" lon="2.01202">
        <ele>57.5</ele>
        <time>2023-05-03T15:01:25Z</time>
      </trkpt>
      <trkpt lat="49.88296" lon="2.01203">
        <ele>57.5</ele>
        <time>2023-05-03T15:01:26Z</time>
      </trkpt>
      <trkpt lat="49.88297" lon="2.01203">
        <ele>57.5</ele>
        <time>2023-05-03T15:01:27Z</time>
      </trkpt>
      <trkpt lat="49.88298" lon="2.01204">
        <ele>57.6</ele>
        <time>2023-05-03T15:01:29Z</time>
      </trkpt>
      <trkpt lat="49.88299" lon="2.01205">
        <ele>57.5</ele>
        <time>2023-05-03T15:01:30Z</time>
      </trkpt>
      <trkpt lat="49.88299" lon="2.01205">
        <ele>57.5</ele>
        <time>2023-05-03T15:01:31Z</time>
      </trkpt>
      <trkpt lat="49.883" lon="2.01205">
        <ele>57.5</ele>
        <time>2023-05-03T15:01:32Z</time>
      </trkpt>
      <trkpt lat="49.883" lon="2.01205">
        <ele>57.5</ele>
        <time>2023-05-03T15:01:33Z</time>
      </trkpt>
      <trkpt lat="49.88301" lon="2.01206">
        <ele>57.5</ele>
        <time>2023-05-03T15:01:34Z</time>
      </trkpt>
      <trkpt lat="49.88302" lon="2.01207">
        <ele>57.5</ele>
        <time>2023-05-03T15:01:36Z</time>
      </trkpt>
      <trkpt lat="49.88302" lon="2.01207">
        <ele>57.5</ele>
        <time>2023-05-03T15:01:37Z</time>
      </trkpt>
      <trkpt lat="49.88302" lon="2.01208">
        <ele>57.6</ele>
        <time>2023-05-03T15:01:38Z</time>
      </trkpt>
      <trkpt lat="49.88303" lon="2.01209">
        <ele>57.5</ele>
        <time>2023-05-03T15:01:39Z</time>
      </trkpt>
      <trkpt lat="49.88304" lon="2.0121">
        <ele>57.5</ele>
        <time>2023-05-03T15:01:40Z</time>
      </trkpt>
      <trkpt lat="49.88304" lon="2.01211">
        <ele>57.5</ele>
        <time>2023-05-03T15:01:41Z</time>
      </trkpt>
      <trkpt lat="49.88305" lon="2.01213">
        <ele>57.5</ele>
        <time>2023-05-03T15:01:43Z</time>
      </trkpt>
      <trkpt lat="49.88306" lon="2.01214">
        <ele>57.4</ele>
        <time>2023-05-03T15:01:44Z</time>
      </trkpt>
      <trkpt lat="49.88306" lon="2.01216">
        <ele>57.4</ele>
        <time>2023-05-03T15:01:45Z</time>
      </trkpt>
      <trkpt lat="49.88307" lon="2.01218">
        <ele>57.3</ele>
        <time>2023-05-03T15:01:47Z</time>
      </trkpt>
      <trkpt lat="49.88308" lon="2.01219">
        <ele>57.3</ele>
        <time>2023-05-03T15:01:48Z</time>
      </trkpt>
      <trkpt lat="49.88308" lon="2.0122">
        <ele>57.4</ele>
        <time>2023-05-03T15:01:49Z</time>
      </trkpt>
      <trkpt lat="49.88308" lon="2.01221">
        <ele>57.4</ele>
        <time>2023-05-03T15:01:50Z</time>
      </trkpt>
      <trkpt lat="49.88309" lon="2.01222">
        <ele>57.3</ele>
        <time>2023-05-03T15:01:52Z</time>
      </trkpt>
      <trkpt lat="49.8831" lon="2.01223">
        <ele>57.3</ele>
        <time>2023-05-03T15:01:53Z</time>
      </trkpt>
      <trkpt lat="49.8831" lon="2.01224">
        <ele>57.3</ele>
        <time>2023-05-03T15:01:54Z</time>
      </trkpt>
      <trkpt lat="49.8831" lon="2.01224">
        <ele>57.3</ele>
        <time>2023-05-03T15:01:56Z</time>
      </trkpt>
      <trkpt lat="49.8831" lon="2.01225">
        <ele>57.3</ele>
        <time>2023-05-03T15:01:57Z</time>
      </trkpt>
      <trkpt lat="49.8831" lon="2.01225">
        <ele>57.3</ele>
        <time>2023-05-03T15:01:59Z</time>
      </trkpt>
      <trkpt lat="49.8831" lon="2.01225">
        <ele>57.3</ele>
        <time>2023-05-03T15:02:00Z</time>
      </trkpt>
      <trkpt lat="49.8831" lon="2.01225">
        <ele>57.3</ele>
        <time>2023-05-03T15:02:02Z</time>
      </trkpt>
      <trkpt lat="49.8831" lon="2.01225">
        <ele>57.3</ele>
        <time>2023-05-03T15:02:03Z</time>
      </trkpt>
      <trkpt lat="49.8831" lon="2.01225">
        <ele>57.3</ele>
        <time>2023-05-03T15:02:04Z</time>
      </trkpt>
      <trkpt lat="49.8831" lon="2.01224">
        <ele>57.3</ele>
        <time>2023-05-03T15:02:06Z</time>
      </trkpt>
      <trkpt lat="49.8831" lon="2.01225">
        <ele>57.3</ele>
        <time>2023-05-03T15:02:07Z</time>
      </trkpt>
      <trkpt lat="49.8831" lon="2.01225">
        <ele>57.3</ele>
        <time>2023-05-03T15:02:08Z</time>
      </trkpt>
      <trkpt lat="49.8831" lon="2.01225">
        <ele>57.3</ele>
        <time>2023-05-03T15:02:09Z</time>
      </trkpt>
      <trkpt lat="49.88311" lon="2.01226">
        <ele>57.3</ele>
        <time>2023-05-03T15:02:10Z</time>
      </trkpt>
      <trkpt lat="49.88311" lon="2.01226">
        <ele>57.2</ele>
        <time>2023-05-03T15:02:11Z</time>
      </trkpt>
      <trkpt lat="49.88311" lon="2.01226">
        <ele>57.2</ele>
        <time>2023-05-03T15:02:12Z</time>
      </trkpt>
      <trkpt lat="49.88311" lon="2.01226">
        <ele>57.2</ele>
        <time>2023-05-03T15:02:13Z</time>
      </trkpt>
      <trkpt lat="49.88312" lon="2.01227">
        <ele>57.2</ele>
        <time>2023-05-03T15:02:15Z</time>
      </trkpt>
      <trkpt lat="49.88312" lon="2.01227">
        <ele>57.2</ele>
        <time>2023-05-03T15:02:16Z</time>
      </trkpt>
      <trkpt lat="49.88312" lon="2.01228">
        <ele>57.2</ele>
        <time>2023-05-03T15:02:18Z</time>
      </trkpt>
      <trkpt lat="49.88313" lon="2.01228">
        <ele>57.2</ele>
        <time>2023-05-03T15:02:19Z</time>
      </trkpt>
      <trkpt lat="49.88313" lon="2.01229">
        <ele>57.2</ele>
        <time>2023-05-03T15:02:20Z</time>
      </trkpt>
      <trkpt lat="49.88314" lon="2.0123">
        <ele>57.3</ele>
        <time>2023-05-03T15:02:22Z</time>
      </trkpt>
      <trkpt lat="49.88314" lon="2.0123">
        <ele>57.2</ele>
        <time>2023-05-03T15:02:24Z</time>
      </trkpt>
      <trkpt lat="49.88314" lon="2.01231">
        <ele>57.2</ele>
        <time>2023-05-03T15:02:25Z</time>
      </trkpt>
      <trkpt lat="49.88315" lon="2.01231">
        <ele>57.2</ele>
        <time>2023-05-03T15:02:26Z</time>
      </trkpt>
      <trkpt lat="49.88315" lon="2.01231">
        <ele>57.2</ele>
        <time>2023-05-03T15:02:27Z</time>
      </trkpt>
      <trkpt lat="49.88316" lon="2.01231">
        <ele>57.2</ele>
        <time>2023-05-03T15:02:28Z</time>
      </trkpt>
      <trkpt lat="49.88316" lon="2.01231">
        <ele>57.2</ele>
        <time>2023-05-03T15:02:30Z</time>
      </trkpt>
      <trkpt lat="49.88316" lon="2.01231">
        <ele>57.2</ele>
        <time>2023-05-03T15:02:31Z</time>
      </trkpt>
      <trkpt lat="49.88317" lon="2.01231">
        <ele>57.2</ele>
        <time>2023-05-03T15:02:32Z</time>
      </trkpt>
      <trkpt lat="49.88317" lon="2.01231">
        <ele>57.2</ele>
        <time>2023-05-03T15:02:33Z</time>
      </trkpt>
      <trkpt lat="49.88318" lon="2.01231">
        <ele>57.2</ele>
        <time>2023-05-03T15:02:34Z</time>
      </trkpt>
      <trkpt lat="49.88319" lon="2.01232">
        <ele>57.2</ele>
        <time>2023-05-03T15:02:35Z</time>
      </trkpt>
      <trkpt lat="49.88319" lon="2.01232">
        <ele>57.2</ele>
        <time>2023-05-03T15:02:36Z</time>
      </trkpt>
      <trkpt lat="49.8832" lon="2.01232">
        <ele>57.2</ele>
        <time>2023-05-03T15:02:38Z</time>
      </trkpt>
      <trkpt lat="49.88321" lon="2.01232">
        <ele>57.2</ele>
        <time>2023-05-03T15:02:39Z</time>
      </trkpt>
      <trkpt lat="49.88321" lon="2.01232">
        <ele>57.2</ele>
        <time>2023-05-03T15:02:40Z</time>
      </trkpt>
      <trkpt lat="49.88323" lon="2.01233">
        <ele>57.3</ele>
        <time>2023-05-03T15:02:42Z</time>
      </trkpt>
      <trkpt lat="49.88324" lon="2.01234">
        <ele>57.3</ele>
        <time>2023-05-03T15:02:43Z</time>
      </trkpt>
      <trkpt lat="49.88325" lon="2.01234">
        <ele>57.2</ele>
        <time>2023-05-03T15:02:44Z</time>
      </trkpt>
      <trkpt lat="49.88326" lon="2.01235">
        <ele>57.2</ele>
        <time>2023-05-03T15:02:45Z</time>
      </trkpt>
      <trkpt lat="49.88327" lon="2.01237">
        <ele>57.2</ele>
        <time>2023-05-03T15:02:47Z</time>
      </trkpt>
      <trkpt lat="49.88328" lon="2.01237">
        <ele>57.2</ele>
        <time>2023-05-03T15:02:48Z</time>
      </trkpt>
      <trkpt lat="49.88329" lon="2.01238">
        <ele>57.2</ele>
        <time>2023-05-03T15:02:49Z</time>
      </trkpt>
      <trkpt lat="49.8833" lon="2.01239">
        <ele>57.2</ele>
        <time>2023-05-03T15:02:50Z</time>
      </trkpt>
      <trkpt lat="49.88331" lon="2.0124">
        <ele>57.1</ele>
        <time>2023-05-03T15:02:51Z</time>
      </trkpt>
      <trkpt lat="49.88332" lon="2.01241">
        <ele>57.1</ele>
        <time>2023-05-03T15:02:52Z</time>
      </trkpt>
      <trkpt lat="49.88333" lon="2.01242">
        <ele>57.2</ele>
        <time>2023-05-03T15:02:53Z</time>
      </trkpt>
      <trkpt lat="49.88334" lon="2.01243">
        <ele>57.2</ele>
        <time>2023-05-03T15:02:55Z</time>
      </trkpt>
      <trkpt lat="49.88335" lon="2.01244">
        <ele>57.1</ele>
        <time>2023-05-03T15:02:56Z</time>
      </trkpt>
      <trkpt lat="49.88336" lon="2.01245">
        <ele>57.1</ele>
        <time>2023-05-03T15:02:57Z</time>
      </trkpt>
      <trkpt lat="49.88337" lon="2.01246">
        <ele>57.1</ele>
        <time>2023-05-03T15:02:58Z</time>
      </trkpt>
      <trkpt lat="49.88338" lon="2.01248">
        <ele>57</ele>
        <time>2023-05-03T15:02:59Z</time>
      </trkpt>
      <trkpt lat="49.88338" lon="2.01249">
        <ele>57</ele>
        <time>2023-05-03T15:03:00Z</time>
      </trkpt>
      <trkpt lat="49.88339" lon="2.01251">
        <ele>57</ele>
        <time>2023-05-03T15:03:01Z</time>
      </trkpt>
      <trkpt lat="49.8834" lon="2.01253">
        <ele>56.9</ele>
        <time>2023-05-03T15:03:03Z</time>
      </trkpt>
      <trkpt lat="49.88341" lon="2.01256">
        <ele>56.8</ele>
        <time>2023-05-03T15:03:04Z</time>
      </trkpt>
      <trkpt lat="49.88341" lon="2.01258">
        <ele>56.8</ele>
        <time>2023-05-03T15:03:05Z</time>
      </trkpt>
      <trkpt lat="49.88341" lon="2.01259">
        <ele>56.9</ele>
        <time>2023-05-03T15:03:06Z</time>
      </trkpt>
      <trkpt lat="49.88341" lon="2.01261">
        <ele>56.8</ele>
        <time>2023-05-03T15:03:07Z</time>
      </trkpt>
      <trkpt lat="49.88342" lon="2.01262">
        <ele>56.8</ele>
        <time>2023-05-03T15:03:08Z</time>
      </trkpt>
      <trkpt lat="49.88343" lon="2.01264">
        <ele>56.8</ele>
        <time>2023-05-03T15:03:10Z</time>
      </trkpt>
      <trkpt lat="49.88343" lon="2.01265">
        <ele>56.7</ele>
        <time>2023-05-03T15:03:11Z</time>
      </trkpt>
      <trkpt lat="49.88344" lon="2.01267">
        <ele>56.7</ele>
        <time>2023-05-03T15:03:12Z</time>
      </trkpt>
      <trkpt lat="49.88344" lon="2.01268">
        <ele>56.7</ele>
        <time>2023-05-03T15:03:13Z</time>
      </trkpt>
      <trkpt lat="49.88345" lon="2.01269">
        <ele>56.6</ele>
        <time>2023-05-03T15:03:14Z</time>
      </trkpt>
      <trkpt lat="49.88346" lon="2.01271">
        <ele>56.6</ele>
        <time>2023-05-03T15:03:15Z</time>
      </trkpt>
      <trkpt lat="49.88347" lon="2.01273">
        <ele>56.7</ele>
        <time>2023-05-03T15:03:17Z</time>
      </trkpt>
      <trkpt lat="49.88347" lon="2.01274">
        <ele>56.6</ele>
        <time>2023-05-03T15:03:18Z</time>
      </trkpt>
      <trkpt lat="49.88348" lon="2.01275">
        <ele>56.6</ele>
        <time>2023-05-03T15:03:19Z</time>
      </trkpt>
      <trkpt lat="49.88349" lon="2.01276">
        <ele>56.6</ele>
        <time>2023-05-03T15:03:21Z</time>
      </trkpt>
      <trkpt lat="49.8835" lon="2.01277">
        <ele>56.6</ele>
        <time>2023-05-03T15:03:22Z</time>
      </trkpt>
      <trkpt lat="49.8835" lon="2.01278">
        <ele>56.6</ele>
        <time>2023-05-03T15:03:23Z</time>
      </trkpt>
      <trkpt lat="49.88351" lon="2.01279">
        <ele>56.6</ele>
        <time>2023-05-03T15:03:24Z</time>
      </trkpt>
      <trkpt lat="49.88352" lon="2.0128">
        <ele>56.6</ele>
        <time>2023-05-03T15:03:25Z</time>
      </trkpt>
      <trkpt lat="49.88353" lon="2.01281">
        <ele>56.6</ele>
        <time>2023-05-03T15:03:26Z</time>
      </trkpt>
      <trkpt lat="49.88354" lon="2.01282">
        <ele>56.5</ele>
        <time>2023-05-03T15:03:28Z</time>
      </trkpt>
      <trkpt lat="49.88355" lon="2.01283">
        <ele>56.5</ele>
        <time>2023-05-03T15:03:29Z</time>
      </trkpt>
      <trkpt lat="49.88355" lon="2.01284">
        <ele>56.6</ele>
        <time>2023-05-03T15:03:30Z</time>
      </trkpt>
      <trkpt lat="49.88356" lon="2.01285">
        <ele>56.6</ele>
        <time>2023-05-03T15:03:31Z</time>
      </trkpt>
      <trkpt lat="49.88357" lon="2.01286">
        <ele>56.6</ele>
        <time>2023-05-03T15:03:32Z</time>
      </trkpt>
      <trkpt lat="49.88357" lon="2.01287">
        <ele>56.5</ele>
        <time>2023-05-03T15:03:33Z</time>
      </trkpt>
      <trkpt lat="49.88358" lon="2.01288">
        <ele>56.6</ele>
        <time>2023-05-03T15:03:34Z</time>
      </trkpt>
      <trkpt lat="49.8836" lon="2.0129">
        <ele>56.6</ele>
        <time>2023-05-03T15:03:36Z</time>
      </trkpt>
      <trkpt lat="49.8836" lon="2.01291">
        <ele>56.6</ele>
        <time>2023-05-03T15:03:37Z</time>
      </trkpt>
      <trkpt lat="49.88361" lon="2.01292">
        <ele>56.6</ele>
        <time>2023-05-03T15:03:38Z</time>
      </trkpt>
      <trkpt lat="49.88362" lon="2.01293">
        <ele>56.6</ele>
        <time>2023-05-03T15:03:39Z</time>
      </trkpt>
      <trkpt lat="49.88363" lon="2.01295">
        <ele>56.5</ele>
        <time>2023-05-03T15:03:40Z</time>
      </trkpt>
      <trkpt lat="49.88364" lon="2.01297">
        <ele>56.6</ele>
        <time>2023-05-03T15:03:41Z</time>
      </trkpt>
      <trkpt lat="49.88365" lon="2.01298">
        <ele>56.6</ele>
        <time>2023-05-03T15:03:43Z</time>
      </trkpt>
      <trkpt lat="49.88366" lon="2.01298">
        <ele>56.6</ele>
        <time>2023-05-03T15:03:44Z</time>
      </trkpt>
      <trkpt lat="49.88367" lon="2.01301">
        <ele>56.6</ele>
        <time>2023-05-03T15:03:45Z</time>
      </trkpt>
      <trkpt lat="49.88367" lon="2.01302">
        <ele>56.6</ele>
        <time>2023-05-03T15:03:46Z</time>
      </trkpt>
      <trkpt lat="49.88368" lon="2.01303">
        <ele>56.6</ele>
        <time>2023-05-03T15:03:47Z</time>
      </trkpt>
      <trkpt lat="49.88369" lon="2.01306">
        <ele>56.6</ele>
        <time>2023-05-03T15:03:48Z</time>
      </trkpt>
      <trkpt lat="49.88369" lon="2.01307">
        <ele>56.6</ele>
        <time>2023-05-03T15:03:50Z</time>
      </trkpt>
      <trkpt lat="49.8837" lon="2.01308">
        <ele>56.6</ele>
        <time>2023-05-03T15:03:51Z</time>
      </trkpt>
      <trkpt lat="49.88371" lon="2.01311">
        <ele>56.6</ele>
        <time>2023-05-03T15:03:52Z</time>
      </trkpt>
      <trkpt lat="49.88371" lon="2.01312">
        <ele>56.6</ele>
        <time>2023-05-03T15:03:53Z</time>
      </trkpt>
      <trkpt lat="49.88372" lon="2.01313">
        <ele>56.7</ele>
        <time>2023-05-03T15:03:54Z</time>
      </trkpt>
      <trkpt lat="49.88372" lon="2.01316">
        <ele>56.7</ele>
        <time>2023-05-03T15:03:55Z</time>
      </trkpt>
      <trkpt lat="49.88372" lon="2.01318">
        <ele>56.6</ele>
        <time>2023-05-03T15:03:56Z</time>
      </trkpt>
      <trkpt lat="49.88373" lon="2.01321">
        <ele>56.6</ele>
        <time>2023-05-03T15:03:57Z</time>
      </trkpt>
      <trkpt lat="49.88373" lon="2.01323">
        <ele>56.6</ele>
        <time>2023-05-03T15:03:59Z</time>
      </trkpt>
      <trkpt lat="49.88374" lon="2.01325">
        <ele>56.6</ele>
        <time>2023-05-03T15:04:00Z</time>
      </trkpt>
      <trkpt lat="49.88374" lon="2.01326">
        <ele>56.6</ele>
        <time>2023-05-03T15:04:01Z</time>
      </trkpt>
      <trkpt lat="49.88374" lon="2.01328">
        <ele>56.6</ele>
        <time>2023-05-03T15:04:02Z</time>
      </trkpt>
      <trkpt lat="49.88374" lon="2.01329">
        <ele>56.7</ele>
        <time>2023-05-03T15:04:03Z</time>
      </trkpt>
      <trkpt lat="49.88375" lon="2.01331">
        <ele>56.7</ele>
        <time>2023-05-03T15:04:04Z</time>
      </trkpt>
      <trkpt lat="49.88375" lon="2.01334">
        <ele>56.7</ele>
        <time>2023-05-03T15:04:06Z</time>
      </trkpt>
      <trkpt lat="49.88376" lon="2.01337">
        <ele>56.7</ele>
        <time>2023-05-03T15:04:07Z</time>
      </trkpt>
      <trkpt lat="49.88376" lon="2.01338">
        <ele>56.7</ele>
        <time>2023-05-03T15:04:08Z</time>
      </trkpt>
      <trkpt lat="49.88377" lon="2.01339">
        <ele>56.7</ele>
        <time>2023-05-03T15:04:09Z</time>
      </trkpt>
      <trkpt lat="49.88378" lon="2.01342">
        <ele>56.8</ele>
        <time>2023-05-03T15:04:11Z</time>
      </trkpt>
      <trkpt lat="49.88378" lon="2.01343">
        <ele>56.8</ele>
        <time>2023-05-03T15:04:12Z</time>
      </trkpt>
      <trkpt lat="49.88378" lon="2.01345">
        <ele>56.8</ele>
        <time>2023-05-03T15:04:13Z</time>
      </trkpt>
      <trkpt lat="49.88379" lon="2.01346">
        <ele>56.7</ele>
        <time>2023-05-03T15:04:14Z</time>
      </trkpt>
      <trkpt lat="49.88379" lon="2.01348">
        <ele>56.7</ele>
        <time>2023-05-03T15:04:15Z</time>
      </trkpt>
      <trkpt lat="49.8838" lon="2.0135">
        <ele>56.8</ele>
        <time>2023-05-03T15:04:17Z</time>
      </trkpt>
      <trkpt lat="49.88381" lon="2.01351">
        <ele>56.8</ele>
        <time>2023-05-03T15:04:18Z</time>
      </trkpt>
      <trkpt lat="49.88381" lon="2.01353">
        <ele>56.8</ele>
        <time>2023-05-03T15:04:19Z</time>
      </trkpt>
      <trkpt lat="49.88382" lon="2.01354">
        <ele>56.8</ele>
        <time>2023-05-03T15:04:20Z</time>
      </trkpt>
      <trkpt lat="49.88382" lon="2.01356">
        <ele>56.8</ele>
        <time>2023-05-03T15:04:21Z</time>
      </trkpt>
      <trkpt lat="49.88382" lon="2.01357">
        <ele>56.8</ele>
        <time>2023-05-03T15:04:22Z</time>
      </trkpt>
      <trkpt lat="49.88383" lon="2.01359">
        <ele>56.9</ele>
        <time>2023-05-03T15:04:24Z</time>
      </trkpt>
      <trkpt lat="49.88383" lon="2.0136">
        <ele>56.9</ele>
        <time>2023-05-03T15:04:25Z</time>
      </trkpt>
      <trkpt lat="49.88384" lon="2.01361">
        <ele>56.9</ele>
        <time>2023-05-03T15:04:26Z</time>
      </trkpt>
      <trkpt lat="49.88384" lon="2.01363">
        <ele>56.9</ele>
        <time>2023-05-03T15:04:28Z</time>
      </trkpt>
      <trkpt lat="49.88384" lon="2.01364">
        <ele>56.9</ele>
        <time>2023-05-03T15:04:29Z</time>
      </trkpt>
      <trkpt lat="49.88384" lon="2.01364">
        <ele>56.9</ele>
        <time>2023-05-03T15:04:31Z</time>
      </trkpt>
      <trkpt lat="49.88383" lon="2.01364">
        <ele>56.9</ele>
        <time>2023-05-03T15:04:32Z</time>
      </trkpt>
      <trkpt lat="49.88382" lon="2.01364">
        <ele>56.8</ele>
        <time>2023-05-03T15:04:33Z</time>
      </trkpt>
      <trkpt lat="49.88381" lon="2.01364">
        <ele>56.8</ele>
        <time>2023-05-03T15:04:35Z</time>
      </trkpt>
      <trkpt lat="49.88381" lon="2.01364">
        <ele>56.8</ele>
        <time>2023-05-03T15:04:36Z</time>
      </trkpt>
      <trkpt lat="49.88381" lon="2.01364">
        <ele>56.8</ele>
        <time>2023-05-03T15:04:38Z</time>
      </trkpt>
      <trkpt lat="49.8838" lon="2.01364">
        <ele>56.8</ele>
        <time>2023-05-03T15:04:39Z</time>
      </trkpt>
      <trkpt lat="49.8838" lon="2.01364">
        <ele>56.8</ele>
        <time>2023-05-03T15:04:40Z</time>
      </trkpt>
      <trkpt lat="49.8838" lon="2.01364">
        <ele>56.8</ele>
        <time>2023-05-03T15:04:42Z</time>
      </trkpt>
      <trkpt lat="49.8838" lon="2.01363">
        <ele>56.8</ele>
        <time>2023-05-03T15:04:43Z</time>
      </trkpt>
      <trkpt lat="49.8838" lon="2.01363">
        <ele>56.8</ele>
        <time>2023-05-03T15:04:44Z</time>
      </trkpt>
      <trkpt lat="49.88381" lon="2.01363">
        <ele>56.8</ele>
        <time>2023-05-03T15:04:46Z</time>
      </trkpt>
      <trkpt lat="49.88381" lon="2.01363">
        <ele>56.8</ele>
        <time>2023-05-03T15:04:47Z</time>
      </trkpt>
      <trkpt lat="49.88381" lon="2.01363">
        <ele>56.8</ele>
        <time>2023-05-03T15:04:48Z</time>
      </trkpt>
      <trkpt lat="49.88382" lon="2.01363">
        <ele>56.8</ele>
        <time>2023-05-03T15:04:49Z</time>
      </trkpt>
      <trkpt lat="49.88382" lon="2.01364">
        <ele>56.8</ele>
        <time>2023-05-03T15:04:51Z</time>
      </trkpt>
      <trkpt lat="49.88383" lon="2.01364">
        <ele>56.9</ele>
        <time>2023-05-03T15:04:52Z</time>
      </trkpt>
      <trkpt lat="49.88383" lon="2.01365">
        <ele>56.9</ele>
        <time>2023-05-03T15:04:53Z</time>
      </trkpt>
      <trkpt lat="49.88384" lon="2.01366">
        <ele>56.9</ele>
        <time>2023-05-03T15:04:54Z</time>
      </trkpt>
      <trkpt lat="49.88386" lon="2.01367">
        <ele>57</ele>
        <time>2023-05-03T15:04:55Z</time>
      </trkpt>
      <trkpt lat="49.88387" lon="2.01368">
        <ele>57</ele>
        <time>2023-05-03T15:04:56Z</time>
      </trkpt>
      <trkpt lat="49.88387" lon="2.01369">
        <ele>57</ele>
        <time>2023-05-03T15:04:58Z</time>
      </trkpt>
      <trkpt lat="49.88388" lon="2.0137">
        <ele>57.1</ele>
        <time>2023-05-03T15:04:59Z</time>
      </trkpt>
      <trkpt lat="49.88389" lon="2.01371">
        <ele>57.1</ele>
        <time>2023-05-03T15:05:00Z</time>
      </trkpt>
      <trkpt lat="49.8839" lon="2.01372">
        <ele>57.1</ele>
        <time>2023-05-03T15:05:01Z</time>
      </trkpt>
      <trkpt lat="49.88391" lon="2.01373">
        <ele>57.2</ele>
        <time>2023-05-03T15:05:02Z</time>
      </trkpt>
      <trkpt lat="49.88392" lon="2.01374">
        <ele>57.2</ele>
        <time>2023-05-03T15:05:03Z</time>
      </trkpt>
      <trkpt lat="49.88393" lon="2.01375">
        <ele>57.2</ele>
        <time>2023-05-03T15:05:04Z</time>
      </trkpt>
      <trkpt lat="49.88395" lon="2.01377">
        <ele>57.3</ele>
        <time>2023-05-03T15:05:06Z</time>
      </trkpt>
      <trkpt lat="49.88396" lon="2.01379">
        <ele>57.3</ele>
        <time>2023-05-03T15:05:07Z</time>
      </trkpt>
      <trkpt lat="49.88396" lon="2.0138">
        <ele>57.4</ele>
        <time>2023-05-03T15:05:08Z</time>
      </trkpt>
      <trkpt lat="49.88397" lon="2.01382">
        <ele>57.4</ele>
        <time>2023-05-03T15:05:10Z</time>
      </trkpt>
      <trkpt lat="49.88398" lon="2.01384">
        <ele>57.4</ele>
        <time>2023-05-03T15:05:11Z</time>
      </trkpt>
      <trkpt lat="49.88398" lon="2.01385">
        <ele>57.4</ele>
        <time>2023-05-03T15:05:12Z</time>
      </trkpt>
      <trkpt lat="49.88399" lon="2.01386">
        <ele>57.4</ele>
        <time>2023-05-03T15:05:13Z</time>
      </trkpt>
      <trkpt lat="49.884" lon="2.01387">
        <ele>57.4</ele>
        <time>2023-05-03T15:05:14Z</time>
      </trkpt>
      <trkpt lat="49.884" lon="2.01388">
        <ele>57.4</ele>
        <time>2023-05-03T15:05:15Z</time>
      </trkpt>
      <trkpt lat="49.88401" lon="2.0139">
        <ele>57.4</ele>
        <time>2023-05-03T15:05:17Z</time>
      </trkpt>
      <trkpt lat="49.88402" lon="2.01391">
        <ele>57.4</ele>
        <time>2023-05-03T15:05:18Z</time>
      </trkpt>
      <trkpt lat="49.88402" lon="2.01392">
        <ele>57.5</ele>
        <time>2023-05-03T15:05:19Z</time>
      </trkpt>
      <trkpt lat="49.88404" lon="2.01393">
        <ele>57.5</ele>
        <time>2023-05-03T15:05:21Z</time>
      </trkpt>
      <trkpt lat="49.88404" lon="2.01393">
        <ele>57.5</ele>
        <time>2023-05-03T15:05:22Z</time>
      </trkpt>
      <trkpt lat="49.88405" lon="2.01394">
        <ele>57.6</ele>
        <time>2023-05-03T15:05:23Z</time>
      </trkpt>
      <trkpt lat="49.88407" lon="2.01395">
        <ele>57.6</ele>
        <time>2023-05-03T15:05:24Z</time>
      </trkpt>
      <trkpt lat="49.88408" lon="2.01395">
        <ele>57.7</ele>
        <time>2023-05-03T15:05:25Z</time>
      </trkpt>
      <trkpt lat="49.88409" lon="2.01396">
        <ele>57.7</ele>
        <time>2023-05-03T15:05:26Z</time>
      </trkpt>
      <trkpt lat="49.8841" lon="2.01396">
        <ele>57.7</ele>
        <time>2023-05-03T15:05:28Z</time>
      </trkpt>
      <trkpt lat="49.88411" lon="2.01397">
        <ele>57.8</ele>
        <time>2023-05-03T15:05:29Z</time>
      </trkpt>
      <trkpt lat="49.88411" lon="2.01397">
        <ele>57.8</ele>
        <time>2023-05-03T15:05:30Z</time>
      </trkpt>
      <trkpt lat="49.88411" lon="2.01398">
        <ele>57.8</ele>
        <time>2023-05-03T15:05:31Z</time>
      </trkpt>
      <trkpt lat="49.88412" lon="2.01398">
        <ele>57.8</ele>
        <time>2023-05-03T15:05:32Z</time>
      </trkpt>
      <trkpt lat="49.88411" lon="2.01398">
        <ele>57.8</ele>
        <time>2023-05-03T15:05:33Z</time>
      </trkpt>
      <trkpt lat="49.88411" lon="2.01397">
        <ele>57.8</ele>
        <time>2023-05-03T15:05:34Z</time>
      </trkpt>
      <trkpt lat="49.8841" lon="2.01397">
        <ele>57.7</ele>
        <time>2023-05-03T15:05:35Z</time>
      </trkpt>
      <trkpt lat="49.8841" lon="2.01398">
        <ele>57.7</ele>
        <time>2023-05-03T15:05:37Z</time>
      </trkpt>
      <trkpt lat="49.8841" lon="2.01398">
        <ele>57.8</ele>
        <time>2023-05-03T15:05:38Z</time>
      </trkpt>
      <trkpt lat="49.88411" lon="2.01399">
        <ele>57.8</ele>
        <time>2023-05-03T15:05:39Z</time>
      </trkpt>
      <trkpt lat="49.88412" lon="2.014">
        <ele>57.8</ele>
        <time>2023-05-03T15:05:40Z</time>
      </trkpt>
      <trkpt lat="49.88413" lon="2.01401">
        <ele>57.9</ele>
        <time>2023-05-03T15:05:41Z</time>
      </trkpt>
      <trkpt lat="49.88414" lon="2.01402">
        <ele>57.9</ele>
        <time>2023-05-03T15:05:43Z</time>
      </trkpt>
      <trkpt lat="49.88415" lon="2.01403">
        <ele>57.9</ele>
        <time>2023-05-03T15:05:44Z</time>
      </trkpt>
      <trkpt lat="49.88416" lon="2.01404">
        <ele>58</ele>
        <time>2023-05-03T15:05:45Z</time>
      </trkpt>
      <trkpt lat="49.88417" lon="2.01405">
        <ele>58</ele>
        <time>2023-05-03T15:05:46Z</time>
      </trkpt>
      <trkpt lat="49.88418" lon="2.01406">
        <ele>58</ele>
        <time>2023-05-03T15:05:47Z</time>
      </trkpt>
      <trkpt lat="49.88418" lon="2.01407">
        <ele>58.1</ele>
        <time>2023-05-03T15:05:48Z</time>
      </trkpt>
      <trkpt lat="49.8842" lon="2.01409">
        <ele>58.1</ele>
        <time>2023-05-03T15:05:50Z</time>
      </trkpt>
      <trkpt lat="49.88421" lon="2.01411">
        <ele>58.1</ele>
        <time>2023-05-03T15:05:51Z</time>
      </trkpt>
      <trkpt lat="49.88422" lon="2.01412">
        <ele>58.1</ele>
        <time>2023-05-03T15:05:52Z</time>
      </trkpt>
      <trkpt lat="49.88424" lon="2.01414">
        <ele>58.1</ele>
        <time>2023-05-03T15:05:53Z</time>
      </trkpt>
      <trkpt lat="49.88425" lon="2.01416">
        <ele>58.2</ele>
        <time>2023-05-03T15:05:54Z</time>
      </trkpt>
      <trkpt lat="49.88426" lon="2.01419">
        <ele>58.2</ele>
        <time>2023-05-03T15:05:55Z</time>
      </trkpt>
      <trkpt lat="49.88428" lon="2.01423">
        <ele>58.3</ele>
        <time>2023-05-03T15:05:57Z</time>
      </trkpt>
      <trkpt lat="49.8843" lon="2.01426">
        <ele>58.4</ele>
        <time>2023-05-03T15:05:58Z</time>
      </trkpt>
      <trkpt lat="49.8843" lon="2.01427">
        <ele>58.4</ele>
        <time>2023-05-03T15:05:59Z</time>
      </trkpt>
      <trkpt lat="49.88432" lon="2.01429">
        <ele>58.4</ele>
        <time>2023-05-03T15:06:01Z</time>
      </trkpt>
      <trkpt lat="49.88433" lon="2.0143">
        <ele>58.5</ele>
        <time>2023-05-03T15:06:02Z</time>
      </trkpt>
      <trkpt lat="49.88434" lon="2.01432">
        <ele>58.5</ele>
        <time>2023-05-03T15:06:03Z</time>
      </trkpt>
      <trkpt lat="49.88435" lon="2.01433">
        <ele>58.5</ele>
        <time>2023-05-03T15:06:04Z</time>
      </trkpt>
      <trkpt lat="49.88435" lon="2.01434">
        <ele>58.6</ele>
        <time>2023-05-03T15:06:05Z</time>
      </trkpt>
      <trkpt lat="49.88436" lon="2.01435">
        <ele>58.6</ele>
        <time>2023-05-03T15:06:06Z</time>
      </trkpt>
      <trkpt lat="49.88437" lon="2.01437">
        <ele>58.6</ele>
        <time>2023-05-03T15:06:07Z</time>
      </trkpt>
      <trkpt lat="49.88438" lon="2.01438">
        <ele>58.7</ele>
        <time>2023-05-03T15:06:08Z</time>
      </trkpt>
      <trkpt lat="49.88439" lon="2.01439">
        <ele>58.7</ele>
        <time>2023-05-03T15:06:09Z</time>
      </trkpt>
      <trkpt lat="49.8844" lon="2.01441">
        <ele>58.7</ele>
        <time>2023-05-03T15:06:11Z</time>
      </trkpt>
      <trkpt lat="49.88441" lon="2.01442">
        <ele>58.7</ele>
        <time>2023-05-03T15:06:12Z</time>
      </trkpt>
      <trkpt lat="49.88442" lon="2.01443">
        <ele>58.7</ele>
        <time>2023-05-03T15:06:13Z</time>
      </trkpt>
      <trkpt lat="49.88443" lon="2.01445">
        <ele>58.8</ele>
        <time>2023-05-03T15:06:15Z</time>
      </trkpt>
      <trkpt lat="49.88444" lon="2.01446">
        <ele>58.8</ele>
        <time>2023-05-03T15:06:16Z</time>
      </trkpt>
      <trkpt lat="49.88444" lon="2.01447">
        <ele>58.8</ele>
        <time>2023-05-03T15:06:17Z</time>
      </trkpt>
      <trkpt lat="49.88445" lon="2.01449">
        <ele>58.8</ele>
        <time>2023-05-03T15:06:19Z</time>
      </trkpt>
      <trkpt lat="49.88445" lon="2.01451">
        <ele>58.8</ele>
        <time>2023-05-03T15:06:20Z</time>
      </trkpt>
      <trkpt lat="49.88446" lon="2.01452">
        <ele>58.9</ele>
        <time>2023-05-03T15:06:21Z</time>
      </trkpt>
      <trkpt lat="49.88447" lon="2.01454">
        <ele>58.9</ele>
        <time>2023-05-03T15:06:22Z</time>
      </trkpt>
      <trkpt lat="49.88448" lon="2.01456">
        <ele>58.9</ele>
        <time>2023-05-03T15:06:23Z</time>
      </trkpt>
      <trkpt lat="49.88449" lon="2.01457">
        <ele>58.9</ele>
        <time>2023-05-03T15:06:25Z</time>
      </trkpt>
      <trkpt lat="49.88449" lon="2.01458">
        <ele>59</ele>
        <time>2023-05-03T15:06:26Z</time>
      </trkpt>
      <trkpt lat="49.8845" lon="2.0146">
        <ele>59</ele>
        <time>2023-05-03T15:06:27Z</time>
      </trkpt>
      <trkpt lat="49.88451" lon="2.01461">
        <ele>59</ele>
        <time>2023-05-03T15:06:28Z</time>
      </trkpt>
      <trkpt lat="49.88451" lon="2.01462">
        <ele>59</ele>
        <time>2023-05-03T15:06:29Z</time>
      </trkpt>
      <trkpt lat="49.88452" lon="2.01464">
        <ele>59.1</ele>
        <time>2023-05-03T15:06:30Z</time>
      </trkpt>
      <trkpt lat="49.88453" lon="2.01466">
        <ele>59.1</ele>
        <time>2023-05-03T15:06:31Z</time>
      </trkpt>
      <trkpt lat="49.88454" lon="2.01468">
        <ele>59.1</ele>
        <time>2023-05-03T15:06:32Z</time>
      </trkpt>
      <trkpt lat="49.88455" lon="2.0147">
        <ele>59.1</ele>
        <time>2023-05-03T15:06:34Z</time>
      </trkpt>
      <trkpt lat="49.88456" lon="2.01471">
        <ele>59.2</ele>
        <time>2023-05-03T15:06:35Z</time>
      </trkpt>
      <trkpt lat="49.88457" lon="2.01473">
        <ele>59.2</ele>
        <time>2023-05-03T15:06:36Z</time>
      </trkpt>
      <trkpt lat="49.88458" lon="2.01475">
        <ele>59.2</ele>
        <time>2023-05-03T15:06:37Z</time>
      </trkpt>
      <trkpt lat="49.88459" lon="2.01476">
        <ele>59.2</ele>
        <time>2023-05-03T15:06:38Z</time>
      </trkpt>
      <trkpt lat="49.8846" lon="2.01476">
        <ele>59.3</ele>
        <time>2023-05-03T15:06:39Z</time>
      </trkpt>
      <trkpt lat="49.88461" lon="2.01477">
        <ele>59.3</ele>
        <time>2023-05-03T15:06:41Z</time>
      </trkpt>
      <trkpt lat="49.88463" lon="2.01478">
        <ele>59.3</ele>
        <time>2023-05-03T15:06:42Z</time>
      </trkpt>
      <trkpt lat="49.88464" lon="2.01478">
        <ele>59.3</ele>
        <time>2023-05-03T15:06:43Z</time>
      </trkpt>
      <trkpt lat="49.88465" lon="2.01479">
        <ele>59.3</ele>
        <time>2023-05-03T15:06:44Z</time>
      </trkpt>
      <trkpt lat="49.88466" lon="2.01479">
        <ele>59.4</ele>
        <time>2023-05-03T15:06:45Z</time>
      </trkpt>
      <trkpt lat="49.88466" lon="2.01479">
        <ele>59.4</ele>
        <time>2023-05-03T15:06:46Z</time>
      </trkpt>
      <trkpt lat="49.88467" lon="2.0148">
        <ele>59.4</ele>
        <time>2023-05-03T15:06:47Z</time>
      </trkpt>
      <trkpt lat="49.88468" lon="2.01481">
        <ele>59.4</ele>
        <time>2023-05-03T15:06:49Z</time>
      </trkpt>
      <trkpt lat="49.88468" lon="2.01481">
        <ele>59.4</ele>
        <time>2023-05-03T15:06:50Z</time>
      </trkpt>
      <trkpt lat="49.88469" lon="2.01482">
        <ele>59.4</ele>
        <time>2023-05-03T15:06:51Z</time>
      </trkpt>
      <trkpt lat="49.88469" lon="2.01483">
        <ele>59.4</ele>
        <time>2023-05-03T15:06:52Z</time>
      </trkpt>
      <trkpt lat="49.88469" lon="2.01484">
        <ele>59.4</ele>
        <time>2023-05-03T15:06:53Z</time>
      </trkpt>
      <trkpt lat="49.8847" lon="2.01485">
        <ele>59.4</ele>
        <time>2023-05-03T15:06:55Z</time>
      </trkpt>
      <trkpt lat="49.8847" lon="2.01486">
        <ele>59.4</ele>
        <time>2023-05-03T15:06:56Z</time>
      </trkpt>
      <trkpt lat="49.88471" lon="2.01487">
        <ele>59.5</ele>
        <time>2023-05-03T15:06:57Z</time>
      </trkpt>
      <trkpt lat="49.88472" lon="2.01488">
        <ele>59.5</ele>
        <time>2023-05-03T15:06:58Z</time>
      </trkpt>
      <trkpt lat="49.88472" lon="2.01489">
        <ele>59.5</ele>
        <time>2023-05-03T15:06:59Z</time>
      </trkpt>
      <trkpt lat="49.88472" lon="2.01491">
        <ele>59.5</ele>
        <time>2023-05-03T15:07:00Z</time>
      </trkpt>
      <trkpt lat="49.88473" lon="2.01494">
        <ele>59.5</ele>
        <time>2023-05-03T15:07:02Z</time>
      </trkpt>
      <trkpt lat="49.88474" lon="2.01496">
        <ele>59.5</ele>
        <time>2023-05-03T15:07:03Z</time>
      </trkpt>
      <trkpt lat="49.88474" lon="2.01498">
        <ele>59.5</ele>
        <time>2023-05-03T15:07:05Z</time>
      </trkpt>
      <trkpt lat="49.88474" lon="2.01501">
        <ele>59.5</ele>
        <time>2023-05-03T15:07:06Z</time>
      </trkpt>
      <trkpt lat="49.88475" lon="2.01503">
        <ele>59.5</ele>
        <time>2023-05-03T15:07:07Z</time>
      </trkpt>
      <trkpt lat="49.88475" lon="2.01506">
        <ele>59.5</ele>
        <time>2023-05-03T15:07:08Z</time>
      </trkpt>
      <trkpt lat="49.88475" lon="2.01508">
        <ele>59.5</ele>
        <time>2023-05-03T15:07:09Z</time>
      </trkpt>
      <trkpt lat="49.88477" lon="2.0151">
        <ele>59.6</ele>
        <time>2023-05-03T15:07:10Z</time>
      </trkpt>
      <trkpt lat="49.88478" lon="2.01511">
        <ele>59.6</ele>
        <time>2023-05-03T15:07:12Z</time>
      </trkpt>
      <trkpt lat="49.88478" lon="2.01512">
        <ele>59.6</ele>
        <time>2023-05-03T15:07:13Z</time>
      </trkpt>
      <trkpt lat="49.88479" lon="2.01513">
        <ele>59.6</ele>
        <time>2023-05-03T15:07:14Z</time>
      </trkpt>
      <trkpt lat="49.8848" lon="2.01515">
        <ele>59.6</ele>
        <time>2023-05-03T15:07:15Z</time>
      </trkpt>
      <trkpt lat="49.88481" lon="2.01517">
        <ele>59.6</ele>
        <time>2023-05-03T15:07:16Z</time>
      </trkpt>
      <trkpt lat="49.88482" lon="2.01518">
        <ele>59.6</ele>
        <time>2023-05-03T15:07:17Z</time>
      </trkpt>
      <trkpt lat="49.88483" lon="2.01519">
        <ele>59.6</ele>
        <time>2023-05-03T15:07:18Z</time>
      </trkpt>
      <trkpt lat="49.88484" lon="2.01521">
        <ele>59.6</ele>
        <time>2023-05-03T15:07:20Z</time>
      </trkpt>
      <trkpt lat="49.88484" lon="2.01522">
        <ele>59.6</ele>
        <time>2023-05-03T15:07:21Z</time>
      </trkpt>
      <trkpt lat="49.88485" lon="2.01523">
        <ele>59.7</ele>
        <time>2023-05-03T15:07:22Z</time>
      </trkpt>
      <trkpt lat="49.88486" lon="2.01524">
        <ele>59.7</ele>
        <time>2023-05-03T15:07:23Z</time>
      </trkpt>
      <trkpt lat="49.88487" lon="2.01525">
        <ele>59.7</ele>
        <time>2023-05-03T15:07:24Z</time>
      </trkpt>
      <trkpt lat="49.88487" lon="2.01527">
        <ele>59.7</ele>
        <time>2023-05-03T15:07:25Z</time>
      </trkpt>
      <trkpt lat="49.88488" lon="2.01528">
        <ele>59.7</ele>
        <time>2023-05-03T15:07:27Z</time>
      </trkpt>
      <trkpt lat="49.88489" lon="2.01529">
        <ele>59.7</ele>
        <time>2023-05-03T15:07:28Z</time>
      </trkpt>
      <trkpt lat="49.88489" lon="2.01531">
        <ele>59.7</ele>
        <time>2023-05-03T15:07:29Z</time>
      </trkpt>
      <trkpt lat="49.88489" lon="2.01532">
        <ele>59.7</ele>
        <time>2023-05-03T15:07:30Z</time>
      </trkpt>
      <trkpt lat="49.8849" lon="2.01533">
        <ele>59.7</ele>
        <time>2023-05-03T15:07:32Z</time>
      </trkpt>
      <trkpt lat="49.8849" lon="2.01535">
        <ele>59.7</ele>
        <time>2023-05-03T15:07:33Z</time>
      </trkpt>
      <trkpt lat="49.8849" lon="2.01536">
        <ele>59.7</ele>
        <time>2023-05-03T15:07:34Z</time>
      </trkpt>
      <trkpt lat="49.8849" lon="2.01537">
        <ele>59.7</ele>
        <time>2023-05-03T15:07:35Z</time>
      </trkpt>
      <trkpt lat="49.8849" lon="2.01538">
        <ele>59.7</ele>
        <time>2023-05-03T15:07:36Z</time>
      </trkpt>
      <trkpt lat="49.8849" lon="2.01538">
        <ele>59.7</ele>
        <time>2023-05-03T15:07:37Z</time>
      </trkpt>
      <trkpt lat="49.8849" lon="2.01539">
        <ele>59.7</ele>
        <time>2023-05-03T15:07:38Z</time>
      </trkpt>
      <trkpt lat="49.8849" lon="2.0154">
        <ele>59.7</ele>
        <time>2023-05-03T15:07:40Z</time>
      </trkpt>
      <trkpt lat="49.8849" lon="2.0154">
        <ele>59.7</ele>
        <time>2023-05-03T15:07:41Z</time>
      </trkpt>
      <trkpt lat="49.88491" lon="2.01541">
        <ele>59.7</ele>
        <time>2023-05-03T15:07:42Z</time>
      </trkpt>
      <trkpt lat="49.8849" lon="2.01541">
        <ele>59.7</ele>
        <time>2023-05-03T15:07:43Z</time>
      </trkpt>
      <trkpt lat="49.8849" lon="2.01542">
        <ele>59.7</ele>
        <time>2023-05-03T15:07:44Z</time>
      </trkpt>
      <trkpt lat="49.88489" lon="2.01542">
        <ele>59.7</ele>
        <time>2023-05-03T15:07:46Z</time>
      </trkpt>
      <trkpt lat="49.88489" lon="2.01542">
        <ele>59.7</ele>
        <time>2023-05-03T15:07:47Z</time>
      </trkpt>
      <trkpt lat="49.88489" lon="2.01542">
        <ele>59.7</ele>
        <time>2023-05-03T15:07:48Z</time>
      </trkpt>
      <trkpt lat="49.88489" lon="2.01543">
        <ele>59.7</ele>
        <time>2023-05-03T15:07:49Z</time>
      </trkpt>
      <trkpt lat="49.88489" lon="2.01544">
        <ele>59.7</ele>
        <time>2023-05-03T15:07:50Z</time>
      </trkpt>
      <trkpt lat="49.88489" lon="2.01544">
        <ele>59.7</ele>
        <time>2023-05-03T15:07:51Z</time>
      </trkpt>
      <trkpt lat="49.88489" lon="2.01545">
        <ele>59.7</ele>
        <time>2023-05-03T15:07:52Z</time>
      </trkpt>
      <trkpt lat="49.88489" lon="2.01547">
        <ele>59.7</ele>
        <time>2023-05-03T15:07:54Z</time>
      </trkpt>
      <trkpt lat="49.88489" lon="2.01547">
        <ele>59.7</ele>
        <time>2023-05-03T15:07:55Z</time>
      </trkpt>
      <trkpt lat="49.88488" lon="2.01548">
        <ele>59.7</ele>
        <time>2023-05-03T15:07:56Z</time>
      </trkpt>
      <trkpt lat="49.88487" lon="2.01549">
        <ele>59.6</ele>
        <time>2023-05-03T15:07:58Z</time>
      </trkpt>
      <trkpt lat="49.88487" lon="2.01549">
        <ele>59.6</ele>
        <time>2023-05-03T15:07:59Z</time>
      </trkpt>
      <trkpt lat="49.88486" lon="2.0155">
        <ele>59.6</ele>
        <time>2023-05-03T15:08:00Z</time>
      </trkpt>
      <trkpt lat="49.88485" lon="2.0155">
        <ele>59.6</ele>
        <time>2023-05-03T15:08:02Z</time>
      </trkpt>
      <trkpt lat="49.88485" lon="2.01549">
        <ele>59.6</ele>
        <time>2023-05-03T15:08:03Z</time>
      </trkpt>
      <trkpt lat="49.88484" lon="2.01549">
        <ele>59.6</ele>
        <time>2023-05-03T15:08:04Z</time>
      </trkpt>
      <trkpt lat="49.88484" lon="2.01548">
        <ele>59.6</ele>
        <time>2023-05-03T15:08:06Z</time>
      </trkpt>
      <trkpt lat="49.88484" lon="2.01548">
        <ele>59.6</ele>
        <time>2023-05-03T15:08:07Z</time>
      </trkpt>
      <trkpt lat="49.88484" lon="2.01548">
        <ele>59.6</ele>
        <time>2023-05-03T15:08:09Z</time>
      </trkpt>
      <trkpt lat="49.88484" lon="2.01548">
        <ele>59.6</ele>
        <time>2023-05-03T15:08:10Z</time>
      </trkpt>
      <trkpt lat="49.88484" lon="2.01547">
        <ele>59.6</ele>
        <time>2023-05-03T15:08:11Z</time>
      </trkpt>
      <trkpt lat="49.88483" lon="2.01547">
        <ele>59.6</ele>
        <time>2023-05-03T15:08:13Z</time>
      </trkpt>
      <trkpt lat="49.88483" lon="2.01546">
        <ele>59.6</ele>
        <time>2023-05-03T15:08:14Z</time>
      </trkpt>
      <trkpt lat="49.88484" lon="2.01546">
        <ele>59.6</ele>
        <time>2023-05-03T15:08:15Z</time>
      </trkpt>
      <trkpt lat="49.88484" lon="2.01546">
        <ele>59.6</ele>
        <time>2023-05-03T15:08:16Z</time>
      </trkpt>
      <trkpt lat="49.88484" lon="2.01546">
        <ele>59.6</ele>
        <time>2023-05-03T15:08:17Z</time>
      </trkpt>
      <trkpt lat="49.88484" lon="2.01546">
        <ele>59.6</ele>
        <time>2023-05-03T15:08:18Z</time>
      </trkpt>
      <trkpt lat="49.88484" lon="2.01546">
        <ele>59.6</ele>
        <time>2023-05-03T15:08:19Z</time>
      </trkpt>
    </trkseg>
  </trk>
</gpx>